<?xml version='1.0' encoding='UTF-8'?><gpx version="1.1" creator="JPX - https://github.com/jenetics/jpx" xmlns="http://www.topografix.com/GPX/1/1"><trk><trkseg><trkpt lat="43.3817329" lon="13.2028845"><ele>495.0</ele><time>2026-03-29T07:38:59.398Z</time></trkpt><trkpt lat="43.3818035" lon="13.2029509"><ele>495.0</ele><time>2026-03-29T07:39:01.368Z</time></trkpt><trkpt lat="43.3819033" lon="13.2030166"><ele>495.0</ele><time>2026-03-29T07:39:03.412Z</time></trkpt><trkpt lat="43.3819587" lon="13.2030711"><ele>495.0</ele><time>2026-03-29T07:39:04.401Z</time></trkpt><trkpt lat="43.3820076" lon="13.2031345"><ele>495.0</ele><time>2026-03-29T07:39:05.392Z</time></trkpt><trkpt lat="43.3820547" lon="13.2032059"><ele>495.0</ele><time>2026-03-29T07:39:06.417Z</time></trkpt><trkpt lat="43.3820997" lon="13.2032762"><ele>496.5</ele><time>2026-03-29T07:39:07.424Z</time></trkpt><trkpt lat="43.3821762" lon="13.2034132"><ele>498.0</ele><time>2026-03-29T07:39:09.417Z</time></trkpt><trkpt lat="43.3822217" lon="13.2034821"><ele>499.5</ele><time>2026-03-29T07:39:10.403Z</time></trkpt><trkpt lat="43.3822667" lon="13.203552"><ele>501.0</ele><time>2026-03-29T07:39:11.408Z</time></trkpt><trkpt lat="43.3823128" lon="13.2036132"><ele>502.5</ele><time>2026-03-29T07:39:12.413Z</time></trkpt><trkpt lat="43.3823606" lon="13.2036874"><ele>504.0</ele><time>2026-03-29T07:39:13.409Z</time></trkpt><trkpt lat="43.3824023" lon="13.203773"><ele>504.0</ele><time>2026-03-29T07:39:14.431Z</time></trkpt><trkpt lat="43.3824347" lon="13.2038476"><ele>504.0</ele><time>2026-03-29T07:39:15.422Z</time></trkpt><trkpt lat="43.3824798" lon="13.2039929"><ele>504.0</ele><time>2026-03-29T07:39:17.368Z</time></trkpt><trkpt lat="43.3824601" lon="13.2041125"><ele>504.0</ele><time>2026-03-29T07:39:20.406Z</time></trkpt><trkpt lat="43.3824088" lon="13.2042034"><ele>504.0</ele><time>2026-03-29T07:39:22.405Z</time></trkpt><trkpt lat="43.38232" lon="13.2043328"><ele>504.6</ele><time>2026-03-29T07:39:24.404Z</time></trkpt><trkpt lat="43.3822688" lon="13.2044167"><ele>505.2</ele><time>2026-03-29T07:39:25.367Z</time></trkpt><trkpt lat="43.3822172" lon="13.2045023"><ele>505.80000000000007</ele><time>2026-03-29T07:39:26.43Z</time></trkpt><trkpt lat="43.3821641" lon="13.2046284"><ele>506.40000000000003</ele><time>2026-03-29T07:39:28.376Z</time></trkpt><trkpt lat="43.3822319" lon="13.204682"><ele>507.0</ele><time>2026-03-29T07:39:30.422Z</time></trkpt><trkpt lat="43.3823584" lon="13.2046539"><ele>507.0</ele><time>2026-03-29T07:39:32.421Z</time></trkpt><trkpt lat="43.3824293" lon="13.204613"><ele>507.0</ele><time>2026-03-29T07:39:33.418Z</time></trkpt><trkpt lat="43.3825026" lon="13.2045846"><ele>507.0</ele><time>2026-03-29T07:39:34.387Z</time></trkpt><trkpt lat="43.3825785" lon="13.2045471"><ele>507.0</ele><time>2026-03-29T07:39:35.357Z</time></trkpt><trkpt lat="43.3826602" lon="13.2044953"><ele>507.0</ele><time>2026-03-29T07:39:36.354Z</time></trkpt><trkpt lat="43.3827394" lon="13.2044373"><ele>507.0</ele><time>2026-03-29T07:39:37.366Z</time></trkpt><trkpt lat="43.3828231" lon="13.2043794"><ele>507.0</ele><time>2026-03-29T07:39:38.344Z</time></trkpt><trkpt lat="43.3829012" lon="13.2042996"><ele>507.00000000000006</ele><time>2026-03-29T07:39:39.347Z</time></trkpt><trkpt lat="43.3829856" lon="13.204231"><ele>507.00000000000006</ele><time>2026-03-29T07:39:40.36Z</time></trkpt><trkpt lat="43.3830546" lon="13.2041569"><ele>507.0</ele><time>2026-03-29T07:39:41.358Z</time></trkpt><trkpt lat="43.3831377" lon="13.2040568"><ele>507.0</ele><time>2026-03-29T07:39:42.359Z</time></trkpt><trkpt lat="43.3832348" lon="13.2039699"><ele>505.20000000000005</ele><time>2026-03-29T07:39:43.379Z</time></trkpt><trkpt lat="43.3833138" lon="13.2038812"><ele>503.40000000000003</ele><time>2026-03-29T07:39:44.364Z</time></trkpt><trkpt lat="43.3833949" lon="13.2037837"><ele>501.59999999999997</ele><time>2026-03-29T07:39:45.362Z</time></trkpt><trkpt lat="43.3834801" lon="13.203691"><ele>499.79999999999995</ele><time>2026-03-29T07:39:46.371Z</time></trkpt><trkpt lat="43.3835675" lon="13.2035884"><ele>498.0</ele><time>2026-03-29T07:39:47.375Z</time></trkpt><trkpt lat="43.3836455" lon="13.2034885"><ele>498.0</ele><time>2026-03-29T07:39:48.379Z</time></trkpt><trkpt lat="43.3837187" lon="13.2033878"><ele>497.99999999999994</ele><time>2026-03-29T07:39:49.378Z</time></trkpt><trkpt lat="43.3837861" lon="13.2032863"><ele>497.99999999999994</ele><time>2026-03-29T07:39:50.367Z</time></trkpt><trkpt lat="43.3838544" lon="13.2031651"><ele>498.0</ele><time>2026-03-29T07:39:51.371Z</time></trkpt><trkpt lat="43.3839229" lon="13.2030477"><ele>498.0</ele><time>2026-03-29T07:39:52.399Z</time></trkpt><trkpt lat="43.3839876" lon="13.2029343"><ele>496.4</ele><time>2026-03-29T07:39:53.408Z</time></trkpt><trkpt lat="43.3840504" lon="13.2028191"><ele>494.79999999999995</ele><time>2026-03-29T07:39:54.401Z</time></trkpt><trkpt lat="43.3841082" lon="13.2026992"><ele>493.2</ele><time>2026-03-29T07:39:55.42Z</time></trkpt><trkpt lat="43.3841633" lon="13.2025794"><ele>491.6</ele><time>2026-03-29T07:39:56.411Z</time></trkpt><trkpt lat="43.3842105" lon="13.202468"><ele>490.0</ele><time>2026-03-29T07:39:57.41Z</time></trkpt><trkpt lat="43.3842493" lon="13.2023465"><ele>489.33333333333337</ele><time>2026-03-29T07:39:58.393Z</time></trkpt><trkpt lat="43.3842913" lon="13.2022319"><ele>488.6666666666667</ele><time>2026-03-29T07:39:59.409Z</time></trkpt><trkpt lat="43.3843212" lon="13.2021172"><ele>488.0</ele><time>2026-03-29T07:40:00.375Z</time></trkpt><trkpt lat="43.3843486" lon="13.202008"><ele>487.33333333333337</ele><time>2026-03-29T07:40:01.388Z</time></trkpt><trkpt lat="43.3843762" lon="13.2018951"><ele>486.6666666666667</ele><time>2026-03-29T07:40:02.376Z</time></trkpt><trkpt lat="43.3844047" lon="13.2017742"><ele>486.0</ele><time>2026-03-29T07:40:03.388Z</time></trkpt><trkpt lat="43.3844352" lon="13.2016451"><ele>486.0</ele><time>2026-03-29T07:40:04.395Z</time></trkpt><trkpt lat="43.3844649" lon="13.2015091"><ele>486.0</ele><time>2026-03-29T07:40:05.395Z</time></trkpt><trkpt lat="43.3844913" lon="13.2013651"><ele>486.0</ele><time>2026-03-29T07:40:06.383Z</time></trkpt><trkpt lat="43.3845199" lon="13.2012185"><ele>486.0</ele><time>2026-03-29T07:40:07.381Z</time></trkpt><trkpt lat="43.3845507" lon="13.2010702"><ele>486.0</ele><time>2026-03-29T07:40:08.382Z</time></trkpt><trkpt lat="43.3845807" lon="13.200916"><ele>484.25</ele><time>2026-03-29T07:40:09.377Z</time></trkpt><trkpt lat="43.3846142" lon="13.2007574"><ele>482.5</ele><time>2026-03-29T07:40:10.369Z</time></trkpt><trkpt lat="43.3846528" lon="13.200611"><ele>480.75</ele><time>2026-03-29T07:40:11.356Z</time></trkpt><trkpt lat="43.3846989" lon="13.2004632"><ele>479.0</ele><time>2026-03-29T07:40:12.354Z</time></trkpt><trkpt lat="43.3847527" lon="13.2003211"><ele>478.0</ele><time>2026-03-29T07:40:13.382Z</time></trkpt><trkpt lat="43.3848229" lon="13.2001887"><ele>477.0</ele><time>2026-03-29T07:40:14.371Z</time></trkpt><trkpt lat="43.3848949" lon="13.2000754"><ele>476.0</ele><time>2026-03-29T07:40:15.377Z</time></trkpt><trkpt lat="43.3849669" lon="13.199964"><ele>475.0</ele><time>2026-03-29T07:40:16.393Z</time></trkpt><trkpt lat="43.3850425" lon="13.1998549"><ele>474.0</ele><time>2026-03-29T07:40:17.363Z</time></trkpt><trkpt lat="43.3851194" lon="13.1997387"><ele>472.6</ele><time>2026-03-29T07:40:18.364Z</time></trkpt><trkpt lat="43.3851889" lon="13.1996118"><ele>471.2</ele><time>2026-03-29T07:40:19.37Z</time></trkpt><trkpt lat="43.3852487" lon="13.1994755"><ele>469.80000000000007</ele><time>2026-03-29T07:40:20.369Z</time></trkpt><trkpt lat="43.3853057" lon="13.199347"><ele>468.40000000000003</ele><time>2026-03-29T07:40:21.351Z</time></trkpt><trkpt lat="43.3853575" lon="13.1992156"><ele>467.0</ele><time>2026-03-29T07:40:22.377Z</time></trkpt><trkpt lat="43.3854042" lon="13.1990798"><ele>465.40000000000003</ele><time>2026-03-29T07:40:23.385Z</time></trkpt><trkpt lat="43.3854687" lon="13.198963"><ele>463.80000000000007</ele><time>2026-03-29T07:40:24.382Z</time></trkpt><trkpt lat="43.385538" lon="13.1988582"><ele>462.2</ele><time>2026-03-29T07:40:25.377Z</time></trkpt><trkpt lat="43.3856079" lon="13.1987585"><ele>460.6</ele><time>2026-03-29T07:40:26.383Z</time></trkpt><trkpt lat="43.385684" lon="13.1986672"><ele>459.0</ele><time>2026-03-29T07:40:27.372Z</time></trkpt><trkpt lat="43.3857702" lon="13.1985829"><ele>459.0</ele><time>2026-03-29T07:40:28.382Z</time></trkpt><trkpt lat="43.385854" lon="13.198519"><ele>459.0</ele><time>2026-03-29T07:40:29.388Z</time></trkpt><trkpt lat="43.3859406" lon="13.1984574"><ele>459.0</ele><time>2026-03-29T07:40:30.372Z</time></trkpt><trkpt lat="43.3860314" lon="13.1983853"><ele>459.0</ele><time>2026-03-29T07:40:31.402Z</time></trkpt><trkpt lat="43.386114" lon="13.1983155"><ele>459.0</ele><time>2026-03-29T07:40:32.371Z</time></trkpt><trkpt lat="43.3861916" lon="13.1982546"><ele>459.0</ele><time>2026-03-29T07:40:33.368Z</time></trkpt><trkpt lat="43.3862701" lon="13.1981954"><ele>459.0</ele><time>2026-03-29T07:40:34.368Z</time></trkpt><trkpt lat="43.3863492" lon="13.1981275"><ele>459.0</ele><time>2026-03-29T07:40:35.374Z</time></trkpt><trkpt lat="43.3864329" lon="13.1980321"><ele>459.0</ele><time>2026-03-29T07:40:36.378Z</time></trkpt><trkpt lat="43.3865206" lon="13.1979225"><ele>459.0</ele><time>2026-03-29T07:40:37.354Z</time></trkpt><trkpt lat="43.3866057" lon="13.1978055"><ele>456.2</ele><time>2026-03-29T07:40:38.362Z</time></trkpt><trkpt lat="43.3866891" lon="13.1976915"><ele>453.4</ele><time>2026-03-29T07:40:39.403Z</time></trkpt><trkpt lat="43.3867666" lon="13.1975871"><ele>450.6</ele><time>2026-03-29T07:40:40.425Z</time></trkpt><trkpt lat="43.386837" lon="13.1974918"><ele>447.8</ele><time>2026-03-29T07:40:41.386Z</time></trkpt><trkpt lat="43.386909" lon="13.1974049"><ele>445.0</ele><time>2026-03-29T07:40:42.405Z</time></trkpt><trkpt lat="43.3869774" lon="13.1973016"><ele>443.2</ele><time>2026-03-29T07:40:43.382Z</time></trkpt><trkpt lat="43.3870192" lon="13.1971843"><ele>441.4</ele><time>2026-03-29T07:40:44.391Z</time></trkpt><trkpt lat="43.3870441" lon="13.197058"><ele>439.6</ele><time>2026-03-29T07:40:45.364Z</time></trkpt><trkpt lat="43.3870693" lon="13.1969386"><ele>437.8</ele><time>2026-03-29T07:40:46.413Z</time></trkpt><trkpt lat="43.3870983" lon="13.1968283"><ele>436.0</ele><time>2026-03-29T07:40:47.407Z</time></trkpt><trkpt lat="43.3871424" lon="13.1967126"><ele>436.0</ele><time>2026-03-29T07:40:48.392Z</time></trkpt><trkpt lat="43.3871931" lon="13.1965924"><ele>436.0</ele><time>2026-03-29T07:40:49.417Z</time></trkpt><trkpt lat="43.3872501" lon="13.1964789"><ele>436.0</ele><time>2026-03-29T07:40:50.406Z</time></trkpt><trkpt lat="43.3873067" lon="13.1963737"><ele>436.0</ele><time>2026-03-29T07:40:51.409Z</time></trkpt><trkpt lat="43.387352" lon="13.1962798"><ele>436.0</ele><time>2026-03-29T07:40:52.425Z</time></trkpt><trkpt lat="43.3873997" lon="13.1961853"><ele>435.6666666666667</ele><time>2026-03-29T07:40:53.392Z</time></trkpt><trkpt lat="43.3874357" lon="13.1961051"><ele>435.33333333333337</ele><time>2026-03-29T07:40:54.401Z</time></trkpt><trkpt lat="43.3874617" lon="13.1959816"><ele>435.0</ele><time>2026-03-29T07:40:56.393Z</time></trkpt><trkpt lat="43.3874255" lon="13.1959068"><ele>434.66666666666663</ele><time>2026-03-29T07:40:59.367Z</time></trkpt><trkpt lat="43.3873234" lon="13.1959397"><ele>434.3333333333333</ele><time>2026-03-29T07:41:01.383Z</time></trkpt><trkpt lat="43.3872554" lon="13.1959767"><ele>434.0</ele><time>2026-03-29T07:41:02.391Z</time></trkpt><trkpt lat="43.3871726" lon="13.1960004"><ele>434.0</ele><time>2026-03-29T07:41:03.398Z</time></trkpt><trkpt lat="43.3870876" lon="13.1960024"><ele>434.0</ele><time>2026-03-29T07:41:04.405Z</time></trkpt><trkpt lat="43.387006" lon="13.1959557"><ele>434.0</ele><time>2026-03-29T07:41:05.4Z</time></trkpt><trkpt lat="43.3869299" lon="13.1958713"><ele>434.0</ele><time>2026-03-29T07:41:06.4Z</time></trkpt><trkpt lat="43.3868592" lon="13.1957611"><ele>434.0</ele><time>2026-03-29T07:41:07.406Z</time></trkpt><trkpt lat="43.386795" lon="13.1956354"><ele>435.0</ele><time>2026-03-29T07:41:08.418Z</time></trkpt><trkpt lat="43.3867299" lon="13.1954908"><ele>436.0</ele><time>2026-03-29T07:41:09.411Z</time></trkpt><trkpt lat="43.3866603" lon="13.1953458"><ele>437.0</ele><time>2026-03-29T07:41:10.408Z</time></trkpt><trkpt lat="43.3865942" lon="13.195202"><ele>438.0</ele><time>2026-03-29T07:41:11.414Z</time></trkpt><trkpt lat="43.3865267" lon="13.1950523"><ele>438.0</ele><time>2026-03-29T07:41:12.393Z</time></trkpt><trkpt lat="43.3864587" lon="13.1949104"><ele>438.0</ele><time>2026-03-29T07:41:13.409Z</time></trkpt><trkpt lat="43.3863922" lon="13.1947703"><ele>438.0</ele><time>2026-03-29T07:41:14.415Z</time></trkpt><trkpt lat="43.3863311" lon="13.1946401"><ele>438.0</ele><time>2026-03-29T07:41:15.354Z</time></trkpt><trkpt lat="43.3862679" lon="13.1945067"><ele>443.5</ele><time>2026-03-29T07:41:16.414Z</time></trkpt><trkpt lat="43.386203" lon="13.1943692"><ele>449.0</ele><time>2026-03-29T07:41:17.417Z</time></trkpt><trkpt lat="43.3861357" lon="13.1942269"><ele>454.5</ele><time>2026-03-29T07:41:18.408Z</time></trkpt><trkpt lat="43.3860689" lon="13.1940862"><ele>460.0</ele><time>2026-03-29T07:41:19.408Z</time></trkpt><trkpt lat="43.3859989" lon="13.1939425"><ele>460.0</ele><time>2026-03-29T07:41:20.396Z</time></trkpt><trkpt lat="43.3859392" lon="13.1938114"><ele>460.0</ele><time>2026-03-29T07:41:21.397Z</time></trkpt><trkpt lat="43.3858998" lon="13.1936775"><ele>460.0</ele><time>2026-03-29T07:41:22.434Z</time></trkpt><trkpt lat="43.3859148" lon="13.1935516"><ele>460.0</ele><time>2026-03-29T07:41:23.406Z</time></trkpt><trkpt lat="43.3859731" lon="13.1934626"><ele>460.0</ele><time>2026-03-29T07:41:24.41Z</time></trkpt><trkpt lat="43.3860597" lon="13.1934349"><ele>460.0</ele><time>2026-03-29T07:41:25.403Z</time></trkpt><trkpt lat="43.3861593" lon="13.1934791"><ele>460.0</ele><time>2026-03-29T07:41:26.366Z</time></trkpt><trkpt lat="43.3862545" lon="13.1935591"><ele>460.0</ele><time>2026-03-29T07:41:27.387Z</time></trkpt><trkpt lat="43.3863436" lon="13.1936545"><ele>460.0</ele><time>2026-03-29T07:41:28.381Z</time></trkpt><trkpt lat="43.3864381" lon="13.1937578"><ele>462.0</ele><time>2026-03-29T07:41:29.358Z</time></trkpt><trkpt lat="43.3865327" lon="13.1938648"><ele>464.0</ele><time>2026-03-29T07:41:30.362Z</time></trkpt><trkpt lat="43.3866348" lon="13.1939685"><ele>466.0</ele><time>2026-03-29T07:41:31.394Z</time></trkpt><trkpt lat="43.3867415" lon="13.194077"><ele>468.0</ele><time>2026-03-29T07:41:32.377Z</time></trkpt><trkpt lat="43.3868556" lon="13.1941827"><ele>465.25</ele><time>2026-03-29T07:41:33.378Z</time></trkpt><trkpt lat="43.3869744" lon="13.1942791"><ele>462.5</ele><time>2026-03-29T07:41:34.389Z</time></trkpt><trkpt lat="43.3871019" lon="13.1943673"><ele>459.75</ele><time>2026-03-29T07:41:35.383Z</time></trkpt><trkpt lat="43.3872354" lon="13.1944314"><ele>457.0</ele><time>2026-03-29T07:41:36.391Z</time></trkpt><trkpt lat="43.3873626" lon="13.1944435"><ele>457.0</ele><time>2026-03-29T07:41:37.403Z</time></trkpt><trkpt lat="43.3874883" lon="13.1943934"><ele>457.0</ele><time>2026-03-29T07:41:38.412Z</time></trkpt><trkpt lat="43.3876094" lon="13.1942977"><ele>457.0</ele><time>2026-03-29T07:41:39.431Z</time></trkpt><trkpt lat="43.3877219" lon="13.1942015"><ele>457.0</ele><time>2026-03-29T07:41:40.431Z</time></trkpt><trkpt lat="43.3878469" lon="13.1941048"><ele>457.0</ele><time>2026-03-29T07:41:41.416Z</time></trkpt><trkpt lat="43.3879713" lon="13.1940069"><ele>457.0</ele><time>2026-03-29T07:41:42.414Z</time></trkpt><trkpt lat="43.3880919" lon="13.1939007"><ele>457.0</ele><time>2026-03-29T07:41:43.404Z</time></trkpt><trkpt lat="43.3882156" lon="13.1937972"><ele>457.0</ele><time>2026-03-29T07:41:44.407Z</time></trkpt><trkpt lat="43.3883316" lon="13.1937018"><ele>457.0</ele><time>2026-03-29T07:41:45.403Z</time></trkpt><trkpt lat="43.388444" lon="13.193611"><ele>457.0</ele><time>2026-03-29T07:41:46.389Z</time></trkpt><trkpt lat="43.3885546" lon="13.193524"><ele>457.0</ele><time>2026-03-29T07:41:47.366Z</time></trkpt><trkpt lat="43.3886592" lon="13.1934377"><ele>457.0</ele><time>2026-03-29T07:41:48.362Z</time></trkpt><trkpt lat="43.3887619" lon="13.193356"><ele>454.0</ele><time>2026-03-29T07:41:49.373Z</time></trkpt><trkpt lat="43.3888672" lon="13.1932598"><ele>451.0</ele><time>2026-03-29T07:41:50.384Z</time></trkpt><trkpt lat="43.3889625" lon="13.1931558"><ele>448.0</ele><time>2026-03-29T07:41:51.374Z</time></trkpt><trkpt lat="43.3890437" lon="13.1930384"><ele>445.0</ele><time>2026-03-29T07:41:52.36Z</time></trkpt><trkpt lat="43.3891079" lon="13.1929055"><ele>445.0</ele><time>2026-03-29T07:41:53.355Z</time></trkpt><trkpt lat="43.3891531" lon="13.19277"><ele>445.0</ele><time>2026-03-29T07:41:54.414Z</time></trkpt><trkpt lat="43.3891811" lon="13.1926317"><ele>445.0</ele><time>2026-03-29T07:41:55.418Z</time></trkpt><trkpt lat="43.3892003" lon="13.1924849"><ele>445.0</ele><time>2026-03-29T07:41:56.386Z</time></trkpt><trkpt lat="43.3892181" lon="13.1923473"><ele>445.0</ele><time>2026-03-29T07:41:57.411Z</time></trkpt><trkpt lat="43.3892369" lon="13.1922207"><ele>444.00000000000006</ele><time>2026-03-29T07:41:58.399Z</time></trkpt><trkpt lat="43.3892529" lon="13.1921114"><ele>443.0</ele><time>2026-03-29T07:41:59.426Z</time></trkpt><trkpt lat="43.3892671" lon="13.1920174"><ele>442.0</ele><time>2026-03-29T07:42:00.389Z</time></trkpt><trkpt lat="43.389275" lon="13.1918885"><ele>441.0</ele><time>2026-03-29T07:42:02.4Z</time></trkpt><trkpt lat="43.3892909" lon="13.1917995"><ele>440.00000000000006</ele><time>2026-03-29T07:42:04.407Z</time></trkpt><trkpt lat="43.3893066" lon="13.1916965"><ele>439.0</ele><time>2026-03-29T07:42:06.364Z</time></trkpt><trkpt lat="43.3893283" lon="13.1915925"><ele>439.00000000000006</ele><time>2026-03-29T07:42:08.378Z</time></trkpt><trkpt lat="43.3894049" lon="13.1915881"><ele>439.0</ele><time>2026-03-29T07:42:10.396Z</time></trkpt><trkpt lat="43.3894179" lon="13.1916807"><ele>439.0</ele><time>2026-03-29T07:42:12.418Z</time></trkpt><trkpt lat="43.389378" lon="13.1918114"><ele>439.0</ele><time>2026-03-29T07:42:14.367Z</time></trkpt><trkpt lat="43.3893692" lon="13.1919102"><ele>439.00000000000006</ele><time>2026-03-29T07:42:15.421Z</time></trkpt><trkpt lat="43.3893557" lon="13.1920133"><ele>439.0</ele><time>2026-03-29T07:42:16.399Z</time></trkpt><trkpt lat="43.3893438" lon="13.1921286"><ele>439.00000000000006</ele><time>2026-03-29T07:42:17.373Z</time></trkpt><trkpt lat="43.389336" lon="13.1922544"><ele>439.0</ele><time>2026-03-29T07:42:18.389Z</time></trkpt><trkpt lat="43.3893326" lon="13.1923697"><ele>439.0</ele><time>2026-03-29T07:42:19.415Z</time></trkpt><trkpt lat="43.3893284" lon="13.1924606"><ele>439.0</ele><time>2026-03-29T07:42:20.374Z</time></trkpt><trkpt lat="43.3893324" lon="13.1925995"><ele>439.00000000000006</ele><time>2026-03-29T07:42:22.385Z</time></trkpt><trkpt lat="43.3893819" lon="13.1926676"><ele>439.0</ele><time>2026-03-29T07:42:24.407Z</time></trkpt><trkpt lat="43.389516" lon="13.1926109"><ele>440.2</ele><time>2026-03-29T07:42:26.403Z</time></trkpt><trkpt lat="43.3895989" lon="13.1925867"><ele>441.4</ele><time>2026-03-29T07:42:27.412Z</time></trkpt><trkpt lat="43.3896913" lon="13.1925676"><ele>442.6</ele><time>2026-03-29T07:42:28.384Z</time></trkpt><trkpt lat="43.3897864" lon="13.19254"><ele>443.8</ele><time>2026-03-29T07:42:29.38Z</time></trkpt><trkpt lat="43.3898764" lon="13.1925238"><ele>445.0</ele><time>2026-03-29T07:42:30.358Z</time></trkpt><trkpt lat="43.3899668" lon="13.192504"><ele>442.6666666666667</ele><time>2026-03-29T07:42:31.366Z</time></trkpt><trkpt lat="43.3900597" lon="13.1924863"><ele>440.33333333333337</ele><time>2026-03-29T07:42:32.41Z</time></trkpt><trkpt lat="43.390152" lon="13.1924562"><ele>438.0</ele><time>2026-03-29T07:42:33.408Z</time></trkpt><trkpt lat="43.390235" lon="13.1924113"><ele>435.66666666666663</ele><time>2026-03-29T07:42:34.413Z</time></trkpt><trkpt lat="43.3903116" lon="13.1923658"><ele>433.3333333333333</ele><time>2026-03-29T07:42:35.431Z</time></trkpt><trkpt lat="43.3903743" lon="13.1922993"><ele>431.0</ele><time>2026-03-29T07:42:36.409Z</time></trkpt><trkpt lat="43.3904271" lon="13.1922305"><ele>429.5</ele><time>2026-03-29T07:42:37.412Z</time></trkpt><trkpt lat="43.3905062" lon="13.1921041"><ele>428.0</ele><time>2026-03-29T07:42:39.414Z</time></trkpt><trkpt lat="43.3905891" lon="13.1919959"><ele>426.5</ele><time>2026-03-29T07:42:41.4Z</time></trkpt><trkpt lat="43.3906676" lon="13.191869"><ele>425.0</ele><time>2026-03-29T07:42:43.394Z</time></trkpt><trkpt lat="43.3907244" lon="13.1917366"><ele>424.6</ele><time>2026-03-29T07:42:45.411Z</time></trkpt><trkpt lat="43.3907981" lon="13.1916436"><ele>424.2</ele><time>2026-03-29T07:42:47.387Z</time></trkpt><trkpt lat="43.3908963" lon="13.1915773"><ele>423.79999999999995</ele><time>2026-03-29T07:42:49.382Z</time></trkpt><trkpt lat="43.3909835" lon="13.1915123"><ele>423.4</ele><time>2026-03-29T07:42:51.418Z</time></trkpt><trkpt lat="43.3910573" lon="13.191485"><ele>423.0</ele><time>2026-03-29T07:42:53.414Z</time></trkpt><trkpt lat="43.3911332" lon="13.1914685"><ele>422.5</ele><time>2026-03-29T07:42:55.39Z</time></trkpt><trkpt lat="43.3912081" lon="13.1914346"><ele>422.0</ele><time>2026-03-29T07:42:58.394Z</time></trkpt><trkpt lat="43.3912753" lon="13.1914083"><ele>421.5</ele><time>2026-03-29T07:43:01.422Z</time></trkpt><trkpt lat="43.3913429" lon="13.1913437"><ele>421.0</ele><time>2026-03-29T07:43:04.406Z</time></trkpt><trkpt lat="43.3914059" lon="13.1912671"><ele>420.5</ele><time>2026-03-29T07:43:07.413Z</time></trkpt><trkpt lat="43.3914723" lon="13.1911937"><ele>420.0</ele><time>2026-03-29T07:43:12.361Z</time></trkpt><trkpt lat="43.3915515" lon="13.1911176"><ele>418.14285714285717</ele><time>2026-03-29T07:43:15.385Z</time></trkpt><trkpt lat="43.3916031" lon="13.1910535"><ele>416.2857142857143</ele><time>2026-03-29T07:43:17.395Z</time></trkpt><trkpt lat="43.3916614" lon="13.1909571"><ele>414.42857142857144</ele><time>2026-03-29T07:43:20.364Z</time></trkpt><trkpt lat="43.3916913" lon="13.190879"><ele>412.57142857142856</ele><time>2026-03-29T07:43:22.407Z</time></trkpt><trkpt lat="43.3917078" lon="13.1907922"><ele>410.7142857142857</ele><time>2026-03-29T07:43:24.415Z</time></trkpt><trkpt lat="43.3917163" lon="13.1906921"><ele>408.8571428571429</ele><time>2026-03-29T07:43:26.397Z</time></trkpt><trkpt lat="43.3917346" lon="13.1905836"><ele>407.0</ele><time>2026-03-29T07:43:28.423Z</time></trkpt><trkpt lat="43.3917342" lon="13.1904752"><ele>404.16666666666663</ele><time>2026-03-29T07:43:31.427Z</time></trkpt><trkpt lat="43.391693" lon="13.1904012"><ele>401.3333333333333</ele><time>2026-03-29T07:43:33.396Z</time></trkpt><trkpt lat="43.3916194" lon="13.190331"><ele>398.5</ele><time>2026-03-29T07:43:35.409Z</time></trkpt><trkpt lat="43.3915622" lon="13.1902577"><ele>395.66666666666663</ele><time>2026-03-29T07:43:36.397Z</time></trkpt><trkpt lat="43.3915121" lon="13.1901409"><ele>392.8333333333333</ele><time>2026-03-29T07:43:38.378Z</time></trkpt><trkpt lat="43.3915612" lon="13.1900593"><ele>390.0</ele><time>2026-03-29T07:43:41.392Z</time></trkpt><trkpt lat="43.3916675" lon="13.1900133"><ele>390.0</ele><time>2026-03-29T07:43:43.415Z</time></trkpt><trkpt lat="43.3917354" lon="13.1899777"><ele>390.0</ele><time>2026-03-29T07:43:44.383Z</time></trkpt><trkpt lat="43.3918104" lon="13.1899485"><ele>390.0</ele><time>2026-03-29T07:43:45.414Z</time></trkpt><trkpt lat="43.3918922" lon="13.1899193"><ele>390.0</ele><time>2026-03-29T07:43:46.407Z</time></trkpt><trkpt lat="43.3919743" lon="13.1898943"><ele>390.0</ele><time>2026-03-29T07:43:47.35Z</time></trkpt><trkpt lat="43.3920565" lon="13.189879"><ele>390.0</ele><time>2026-03-29T07:43:48.411Z</time></trkpt><trkpt lat="43.3921496" lon="13.1898591"><ele>382.8</ele><time>2026-03-29T07:43:49.415Z</time></trkpt><trkpt lat="43.3922444" lon="13.1898369"><ele>375.6</ele><time>2026-03-29T07:43:50.42Z</time></trkpt><trkpt lat="43.3923457" lon="13.1898145"><ele>368.4</ele><time>2026-03-29T07:43:51.399Z</time></trkpt><trkpt lat="43.3924422" lon="13.1897955"><ele>361.2</ele><time>2026-03-29T07:43:52.398Z</time></trkpt><trkpt lat="43.3925412" lon="13.1897695"><ele>354.0</ele><time>2026-03-29T07:43:53.356Z</time></trkpt><trkpt lat="43.3926423" lon="13.1897463"><ele>354.0</ele><time>2026-03-29T07:43:54.407Z</time></trkpt><trkpt lat="43.392736" lon="13.1897263"><ele>354.0</ele><time>2026-03-29T07:43:55.407Z</time></trkpt><trkpt lat="43.3928147" lon="13.1897001"><ele>354.0</ele><time>2026-03-29T07:43:56.408Z</time></trkpt><trkpt lat="43.3928791" lon="13.1896715"><ele>354.0</ele><time>2026-03-29T07:43:57.373Z</time></trkpt><trkpt lat="43.3929444" lon="13.1896487"><ele>354.0</ele><time>2026-03-29T07:43:59.408Z</time></trkpt><trkpt lat="43.3930125" lon="13.1896071"><ele>354.0</ele><time>2026-03-29T07:44:02.413Z</time></trkpt><trkpt lat="43.3930655" lon="13.1895539"><ele>352.6666666666667</ele><time>2026-03-29T07:44:06.415Z</time></trkpt><trkpt lat="43.3931262" lon="13.1894573"><ele>351.3333333333333</ele><time>2026-03-29T07:44:09.384Z</time></trkpt><trkpt lat="43.3931099" lon="13.1893578"><ele>350.0</ele><time>2026-03-29T07:44:12.396Z</time></trkpt><trkpt lat="43.3931436" lon="13.1892571"><ele>348.66666666666663</ele><time>2026-03-29T07:44:15.395Z</time></trkpt><trkpt lat="43.3932061" lon="13.1891875"><ele>347.3333333333333</ele><time>2026-03-29T07:44:17.404Z</time></trkpt><trkpt lat="43.3932975" lon="13.189101"><ele>346.0</ele><time>2026-03-29T07:44:19.387Z</time></trkpt><trkpt lat="43.3933629" lon="13.1890041"><ele>341.6</ele><time>2026-03-29T07:44:21.408Z</time></trkpt><trkpt lat="43.3934265" lon="13.1889417"><ele>337.20000000000005</ele><time>2026-03-29T07:44:23.407Z</time></trkpt><trkpt lat="43.3934975" lon="13.1888692"><ele>332.79999999999995</ele><time>2026-03-29T07:44:25.391Z</time></trkpt><trkpt lat="43.3935701" lon="13.1887557"><ele>328.4</ele><time>2026-03-29T07:44:27.408Z</time></trkpt><trkpt lat="43.3936443" lon="13.1886599"><ele>324.0</ele><time>2026-03-29T07:44:29.359Z</time></trkpt><trkpt lat="43.3937131" lon="13.1885961"><ele>324.0</ele><time>2026-03-29T07:44:31.404Z</time></trkpt><trkpt lat="43.3937891" lon="13.1885481"><ele>324.0</ele><time>2026-03-29T07:44:33.428Z</time></trkpt><trkpt lat="43.393864" lon="13.1885009"><ele>324.0</ele><time>2026-03-29T07:44:35.417Z</time></trkpt><trkpt lat="43.3939382" lon="13.1884636"><ele>324.0</ele><time>2026-03-29T07:44:37.397Z</time></trkpt><trkpt lat="43.3939685" lon="13.1883828"><ele>324.0</ele><time>2026-03-29T07:44:40.42Z</time></trkpt><trkpt lat="43.3939038" lon="13.1883107"><ele>324.0</ele><time>2026-03-29T07:44:43.412Z</time></trkpt><trkpt lat="43.3938382" lon="13.1882548"><ele>324.0</ele><time>2026-03-29T07:44:45.434Z</time></trkpt><trkpt lat="43.3937562" lon="13.1881945"><ele>324.0</ele><time>2026-03-29T07:44:47.421Z</time></trkpt><trkpt lat="43.393693" lon="13.1881512"><ele>324.0</ele><time>2026-03-29T07:44:50.392Z</time></trkpt><trkpt lat="43.3936257" lon="13.1881067"><ele>324.0</ele><time>2026-03-29T07:44:54.411Z</time></trkpt><trkpt lat="43.3935461" lon="13.1880588"><ele>324.0</ele><time>2026-03-29T07:44:59.417Z</time></trkpt><trkpt lat="43.393486" lon="13.1880109"><ele>324.0</ele><time>2026-03-29T07:45:02.41Z</time></trkpt><trkpt lat="43.3934233" lon="13.1879553"><ele>319.1666666666667</ele><time>2026-03-29T07:45:05.393Z</time></trkpt><trkpt lat="43.3933573" lon="13.1879051"><ele>314.3333333333333</ele><time>2026-03-29T07:45:09.404Z</time></trkpt><trkpt lat="43.3933092" lon="13.1878131"><ele>309.5</ele><time>2026-03-29T07:45:14.384Z</time></trkpt><trkpt lat="43.3932536" lon="13.1877287"><ele>304.66666666666663</ele><time>2026-03-29T07:45:17.396Z</time></trkpt><trkpt lat="43.3931486" lon="13.1876904"><ele>299.8333333333333</ele><time>2026-03-29T07:45:20.396Z</time></trkpt><trkpt lat="43.3930695" lon="13.1876821"><ele>295.0</ele><time>2026-03-29T07:45:22.406Z</time></trkpt><trkpt lat="43.3930249" lon="13.187609"><ele>296.00000000000006</ele><time>2026-03-29T07:46:51.414Z</time></trkpt><trkpt lat="43.3930009" lon="13.1875281"><ele>297.0</ele><time>2026-03-29T07:46:54.402Z</time></trkpt><trkpt lat="43.3929448" lon="13.1874669"><ele>298.0</ele><time>2026-03-29T07:46:58.382Z</time></trkpt><trkpt lat="43.3929028" lon="13.1873996"><ele>299.0</ele><time>2026-03-29T07:47:05.398Z</time></trkpt><trkpt lat="43.3928928" lon="13.1873015"><ele>300.0</ele><time>2026-03-29T07:47:13.376Z</time></trkpt><trkpt lat="43.392968" lon="13.1872574"><ele>301.00000000000006</ele><time>2026-03-29T07:47:17.412Z</time></trkpt><trkpt lat="43.3930449" lon="13.1871895"><ele>302.0</ele><time>2026-03-29T07:47:20.381Z</time></trkpt><trkpt lat="43.3931324" lon="13.1871372"><ele>299.1666666666667</ele><time>2026-03-29T07:47:23.39Z</time></trkpt><trkpt lat="43.3931004" lon="13.1870387"><ele>296.33333333333337</ele><time>2026-03-29T07:47:27.395Z</time></trkpt><trkpt lat="43.3930394" lon="13.1869976"><ele>293.5</ele><time>2026-03-29T07:47:29.379Z</time></trkpt><trkpt lat="43.3929626" lon="13.186994"><ele>290.6666666666667</ele><time>2026-03-29T07:47:31.401Z</time></trkpt><trkpt lat="43.3929022" lon="13.1869579"><ele>287.8333333333333</ele><time>2026-03-29T07:47:33.404Z</time></trkpt><trkpt lat="43.3928277" lon="13.1868937"><ele>285.0</ele><time>2026-03-29T07:47:36.41Z</time></trkpt><trkpt lat="43.3927186" lon="13.1867953"><ele>285.0</ele><time>2026-03-29T07:47:38.402Z</time></trkpt><trkpt lat="43.392642" lon="13.1867044"><ele>285.0</ele><time>2026-03-29T07:47:39.372Z</time></trkpt><trkpt lat="43.3925655" lon="13.1865946"><ele>285.0</ele><time>2026-03-29T07:47:40.394Z</time></trkpt><trkpt lat="43.3924996" lon="13.18644"><ele>285.0</ele><time>2026-03-29T07:47:41.387Z</time></trkpt><trkpt lat="43.3924282" lon="13.1862621"><ele>281.3333333333333</ele><time>2026-03-29T07:47:42.415Z</time></trkpt><trkpt lat="43.3923549" lon="13.1860673"><ele>277.66666666666663</ele><time>2026-03-29T07:47:43.394Z</time></trkpt><trkpt lat="43.3922818" lon="13.185866"><ele>274.0</ele><time>2026-03-29T07:47:44.401Z</time></trkpt><trkpt lat="43.3922199" lon="13.1856892"><ele>274.75</ele><time>2026-03-29T07:47:45.401Z</time></trkpt><trkpt lat="43.3921682" lon="13.1855126"><ele>275.5</ele><time>2026-03-29T07:47:46.407Z</time></trkpt><trkpt lat="43.392133" lon="13.185349"><ele>276.25</ele><time>2026-03-29T07:47:47.405Z</time></trkpt><trkpt lat="43.3921101" lon="13.1852031"><ele>277.0</ele><time>2026-03-29T07:47:48.414Z</time></trkpt><trkpt lat="43.3920972" lon="13.1850856"><ele>277.0</ele><time>2026-03-29T07:47:49.416Z</time></trkpt><trkpt lat="43.3921026" lon="13.1849767"><ele>277.0</ele><time>2026-03-29T07:47:50.405Z</time></trkpt><trkpt lat="43.3921155" lon="13.1848416"><ele>277.0</ele><time>2026-03-29T07:47:52.41Z</time></trkpt><trkpt lat="43.3920444" lon="13.1848038"><ele>277.0</ele><time>2026-03-29T07:47:54.401Z</time></trkpt><trkpt lat="43.3919231" lon="13.1847074"><ele>277.0</ele><time>2026-03-29T07:47:56.397Z</time></trkpt><trkpt lat="43.3918465" lon="13.1846432"><ele>276.66666666666663</ele><time>2026-03-29T07:47:57.411Z</time></trkpt><trkpt lat="43.3917709" lon="13.1845764"><ele>276.3333333333333</ele><time>2026-03-29T07:47:58.421Z</time></trkpt><trkpt lat="43.3917026" lon="13.1845071"><ele>276.0</ele><time>2026-03-29T07:47:59.399Z</time></trkpt><trkpt lat="43.3916442" lon="13.184457"><ele>275.6666666666667</ele><time>2026-03-29T07:48:00.396Z</time></trkpt><trkpt lat="43.3915881" lon="13.1844136"><ele>275.33333333333337</ele><time>2026-03-29T07:48:01.398Z</time></trkpt><trkpt lat="43.3914814" lon="13.184353"><ele>275.0</ele><time>2026-03-29T07:48:03.391Z</time></trkpt><trkpt lat="43.3914004" lon="13.184293"><ele>275.0</ele><time>2026-03-29T07:48:05.401Z</time></trkpt><trkpt lat="43.3913516" lon="13.1842355"><ele>275.0</ele><time>2026-03-29T07:48:07.351Z</time></trkpt><trkpt lat="43.3912962" lon="13.1841809"><ele>275.0</ele><time>2026-03-29T07:48:09.408Z</time></trkpt><trkpt lat="43.3912404" lon="13.1841198"><ele>275.0</ele><time>2026-03-29T07:48:12.394Z</time></trkpt><trkpt lat="43.3912466" lon="13.184031"><ele>275.0</ele><time>2026-03-29T07:48:27.41Z</time></trkpt><trkpt lat="43.3912639" lon="13.1839297"><ele>275.0</ele><time>2026-03-29T07:48:29.368Z</time></trkpt><trkpt lat="43.3912787" lon="13.1838127"><ele>275.0</ele><time>2026-03-29T07:48:32.39Z</time></trkpt><trkpt lat="43.3912796" lon="13.1837225"><ele>277.0</ele><time>2026-03-29T07:48:35.396Z</time></trkpt><trkpt lat="43.3912493" lon="13.1836372"><ele>279.0</ele><time>2026-03-29T07:48:39.391Z</time></trkpt><trkpt lat="43.3911546" lon="13.183509"><ele>281.0</ele><time>2026-03-29T07:48:51.381Z</time></trkpt><trkpt lat="43.3910982" lon="13.1834313"><ele>283.0</ele><time>2026-03-29T07:48:52.398Z</time></trkpt><trkpt lat="43.3910578" lon="13.1833586"><ele>285.0</ele><time>2026-03-29T07:48:53.42Z</time></trkpt><trkpt lat="43.3909894" lon="13.1832133"><ele>285.0</ele><time>2026-03-29T07:48:55.412Z</time></trkpt><trkpt lat="43.3909549" lon="13.1831317"><ele>285.0</ele><time>2026-03-29T07:48:56.354Z</time></trkpt><trkpt lat="43.3909137" lon="13.1830652"><ele>285.0</ele><time>2026-03-29T07:48:57.402Z</time></trkpt><trkpt lat="43.390855" lon="13.1830266"><ele>285.0</ele><time>2026-03-29T07:48:59.397Z</time></trkpt><trkpt lat="43.3908255" lon="13.1831267"><ele>285.0</ele><time>2026-03-29T07:49:01.384Z</time></trkpt><trkpt lat="43.3908029" lon="13.183242"><ele>285.0</ele><time>2026-03-29T07:49:03.399Z</time></trkpt><trkpt lat="43.3907764" lon="13.1831617"><ele>285.0</ele><time>2026-03-29T07:49:46.375Z</time></trkpt><trkpt lat="43.3908321" lon="13.1830431"><ele>286.0</ele><time>2026-03-29T07:49:48.409Z</time></trkpt><trkpt lat="43.3908896" lon="13.1829226"><ele>287.0</ele><time>2026-03-29T07:49:50.409Z</time></trkpt><trkpt lat="43.3909561" lon="13.1828665"><ele>288.0</ele><time>2026-03-29T07:49:51.409Z</time></trkpt><trkpt lat="43.3910299" lon="13.1828154"><ele>289.0</ele><time>2026-03-29T07:49:52.398Z</time></trkpt><trkpt lat="43.3910731" lon="13.1827357"><ele>290.0</ele><time>2026-03-29T07:49:54.409Z</time></trkpt><trkpt lat="43.3910194" lon="13.1826599"><ele>291.0</ele><time>2026-03-29T07:49:56.369Z</time></trkpt><trkpt lat="43.3909636" lon="13.1825944"><ele>291.0</ele><time>2026-03-29T07:49:57.41Z</time></trkpt><trkpt lat="43.3908979" lon="13.1824913"><ele>291.0</ele><time>2026-03-29T07:49:58.413Z</time></trkpt><trkpt lat="43.3908344" lon="13.1823517"><ele>291.0</ele><time>2026-03-29T07:49:59.398Z</time></trkpt><trkpt lat="43.3907625" lon="13.1821995"><ele>291.0</ele><time>2026-03-29T07:50:00.381Z</time></trkpt><trkpt lat="43.3906673" lon="13.1820916"><ele>289.0</ele><time>2026-03-29T07:50:01.389Z</time></trkpt><trkpt lat="43.3905538" lon="13.1820257"><ele>287.0</ele><time>2026-03-29T07:50:02.396Z</time></trkpt><trkpt lat="43.3904458" lon="13.1819568"><ele>285.0</ele><time>2026-03-29T07:50:03.411Z</time></trkpt><trkpt lat="43.3903605" lon="13.181875"><ele>283.0</ele><time>2026-03-29T07:50:04.375Z</time></trkpt><trkpt lat="43.3902626" lon="13.1817517"><ele>284.5</ele><time>2026-03-29T07:50:05.401Z</time></trkpt><trkpt lat="43.3901613" lon="13.1816263"><ele>286.0</ele><time>2026-03-29T07:50:06.406Z</time></trkpt><trkpt lat="43.3900874" lon="13.1815131"><ele>287.5</ele><time>2026-03-29T07:50:07.415Z</time></trkpt><trkpt lat="43.3900306" lon="13.1813855"><ele>289.0</ele><time>2026-03-29T07:50:08.409Z</time></trkpt><trkpt lat="43.3899772" lon="13.1812415"><ele>289.0</ele><time>2026-03-29T07:50:09.394Z</time></trkpt><trkpt lat="43.3899202" lon="13.181134"><ele>289.0</ele><time>2026-03-29T07:50:10.372Z</time></trkpt><trkpt lat="43.3898571" lon="13.1810633"><ele>289.0</ele><time>2026-03-29T07:50:11.405Z</time></trkpt><trkpt lat="43.38975" lon="13.1810408"><ele>289.0</ele><time>2026-03-29T07:50:12.415Z</time></trkpt><trkpt lat="43.3896438" lon="13.1810478"><ele>289.0</ele><time>2026-03-29T07:50:13.383Z</time></trkpt><trkpt lat="43.3895589" lon="13.1810225"><ele>292.0</ele><time>2026-03-29T07:50:14.408Z</time></trkpt><trkpt lat="43.3894802" lon="13.1809731"><ele>295.0</ele><time>2026-03-29T07:50:15.408Z</time></trkpt><trkpt lat="43.3893703" lon="13.1809168"><ele>298.0</ele><time>2026-03-29T07:50:16.423Z</time></trkpt><trkpt lat="43.3892483" lon="13.1808789"><ele>301.0</ele><time>2026-03-29T07:50:17.395Z</time></trkpt><trkpt lat="43.3891117" lon="13.1808761"><ele>301.0</ele><time>2026-03-29T07:50:18.385Z</time></trkpt><trkpt lat="43.3889737" lon="13.1808975"><ele>301.0</ele><time>2026-03-29T07:50:19.423Z</time></trkpt><trkpt lat="43.3888444" lon="13.180893"><ele>301.0</ele><time>2026-03-29T07:50:20.421Z</time></trkpt><trkpt lat="43.3887149" lon="13.1808693"><ele>301.0</ele><time>2026-03-29T07:50:21.412Z</time></trkpt><trkpt lat="43.3885783" lon="13.1808561"><ele>302.40000000000003</ele><time>2026-03-29T07:50:22.411Z</time></trkpt><trkpt lat="43.3884588" lon="13.1808691"><ele>303.8</ele><time>2026-03-29T07:50:23.394Z</time></trkpt><trkpt lat="43.3883573" lon="13.1808717"><ele>305.20000000000005</ele><time>2026-03-29T07:50:24.398Z</time></trkpt><trkpt lat="43.3882717" lon="13.1808522"><ele>306.6</ele><time>2026-03-29T07:50:25.393Z</time></trkpt><trkpt lat="43.3881824" lon="13.180794"><ele>308.0</ele><time>2026-03-29T07:50:26.424Z</time></trkpt><trkpt lat="43.3880926" lon="13.1806933"><ele>308.0</ele><time>2026-03-29T07:50:27.384Z</time></trkpt><trkpt lat="43.3879872" lon="13.180559"><ele>308.0</ele><time>2026-03-29T07:50:28.422Z</time></trkpt><trkpt lat="43.387871" lon="13.1804399"><ele>308.0</ele><time>2026-03-29T07:50:29.384Z</time></trkpt><trkpt lat="43.3877312" lon="13.1803418"><ele>308.0</ele><time>2026-03-29T07:50:30.361Z</time></trkpt><trkpt lat="43.3875978" lon="13.1802426"><ele>308.0</ele><time>2026-03-29T07:50:31.423Z</time></trkpt><trkpt lat="43.3874901" lon="13.1801487"><ele>308.0</ele><time>2026-03-29T07:50:32.383Z</time></trkpt><trkpt lat="43.3873937" lon="13.1800764"><ele>308.0</ele><time>2026-03-29T07:50:33.399Z</time></trkpt><trkpt lat="43.3872745" lon="13.1800248"><ele>308.0</ele><time>2026-03-29T07:50:34.416Z</time></trkpt><trkpt lat="43.3871396" lon="13.1799895"><ele>310.0</ele><time>2026-03-29T07:50:35.393Z</time></trkpt><trkpt lat="43.3870039" lon="13.1799717"><ele>312.0</ele><time>2026-03-29T07:50:36.392Z</time></trkpt><trkpt lat="43.3868903" lon="13.1799637"><ele>314.0</ele><time>2026-03-29T07:50:37.419Z</time></trkpt><trkpt lat="43.3867878" lon="13.1799727"><ele>316.0</ele><time>2026-03-29T07:50:38.411Z</time></trkpt><trkpt lat="43.3866779" lon="13.1800368"><ele>316.0</ele><time>2026-03-29T07:50:39.412Z</time></trkpt><trkpt lat="43.3865596" lon="13.1801369"><ele>316.0</ele><time>2026-03-29T07:50:40.404Z</time></trkpt><trkpt lat="43.3864516" lon="13.1802127"><ele>316.0</ele><time>2026-03-29T07:50:41.408Z</time></trkpt><trkpt lat="43.3863505" lon="13.1802433"><ele>316.0</ele><time>2026-03-29T07:50:42.411Z</time></trkpt><trkpt lat="43.3862357" lon="13.1802488"><ele>316.2</ele><time>2026-03-29T07:50:43.42Z</time></trkpt><trkpt lat="43.3861181" lon="13.1802624"><ele>316.40000000000003</ele><time>2026-03-29T07:50:44.407Z</time></trkpt><trkpt lat="43.3860256" lon="13.1803159"><ele>316.6</ele><time>2026-03-29T07:50:45.405Z</time></trkpt><trkpt lat="43.3859461" lon="13.1803833"><ele>316.8</ele><time>2026-03-29T07:50:46.406Z</time></trkpt><trkpt lat="43.3858648" lon="13.1804809"><ele>317.0</ele><time>2026-03-29T07:50:47.417Z</time></trkpt><trkpt lat="43.3857814" lon="13.180576"><ele>317.0</ele><time>2026-03-29T07:50:48.4Z</time></trkpt><trkpt lat="43.3857169" lon="13.1806705"><ele>317.0</ele><time>2026-03-29T07:50:49.403Z</time></trkpt><trkpt lat="43.3856736" lon="13.1807565"><ele>317.0</ele><time>2026-03-29T07:50:51.392Z</time></trkpt><trkpt lat="43.3856002" lon="13.1807874"><ele>317.0</ele><time>2026-03-29T07:51:29.402Z</time></trkpt><trkpt lat="43.3855199" lon="13.1807331"><ele>317.0</ele><time>2026-03-29T07:51:31.41Z</time></trkpt><trkpt lat="43.3854569" lon="13.1806688"><ele>317.0</ele><time>2026-03-29T07:51:34.397Z</time></trkpt><trkpt lat="43.3853888" lon="13.180558"><ele>318.2</ele><time>2026-03-29T07:51:37.375Z</time></trkpt><trkpt lat="43.3853068" lon="13.1804803"><ele>319.4</ele><time>2026-03-29T07:51:39.418Z</time></trkpt><trkpt lat="43.3852071" lon="13.1804186"><ele>320.59999999999997</ele><time>2026-03-29T07:51:41.4Z</time></trkpt><trkpt lat="43.3851175" lon="13.1803496"><ele>321.79999999999995</ele><time>2026-03-29T07:51:43.399Z</time></trkpt><trkpt lat="43.3850194" lon="13.180307"><ele>323.0</ele><time>2026-03-29T07:51:45.408Z</time></trkpt><trkpt lat="43.3849037" lon="13.1802847"><ele>323.0</ele><time>2026-03-29T07:51:47.387Z</time></trkpt><trkpt lat="43.3847905" lon="13.1802777"><ele>323.0</ele><time>2026-03-29T07:51:49.401Z</time></trkpt><trkpt lat="43.3847053" lon="13.1802794"><ele>323.0</ele><time>2026-03-29T07:51:51.393Z</time></trkpt><trkpt lat="43.3846339" lon="13.1802584"><ele>323.0</ele><time>2026-03-29T07:51:53.392Z</time></trkpt><trkpt lat="43.3845356" lon="13.1802312"><ele>323.0</ele><time>2026-03-29T07:51:55.385Z</time></trkpt><trkpt lat="43.3844437" lon="13.1802139"><ele>323.33333333333337</ele><time>2026-03-29T07:51:57.397Z</time></trkpt><trkpt lat="43.3843818" lon="13.1801372"><ele>323.6666666666667</ele><time>2026-03-29T07:51:59.391Z</time></trkpt><trkpt lat="43.3843207" lon="13.1800843"><ele>324.0</ele><time>2026-03-29T07:52:01.391Z</time></trkpt><trkpt lat="43.3842341" lon="13.1800671"><ele>324.3333333333333</ele><time>2026-03-29T07:52:03.391Z</time></trkpt><trkpt lat="43.3841583" lon="13.1800526"><ele>324.66666666666663</ele><time>2026-03-29T07:52:05.405Z</time></trkpt><trkpt lat="43.384039" lon="13.1800158"><ele>325.0</ele><time>2026-03-29T07:52:07.401Z</time></trkpt><trkpt lat="43.3839236" lon="13.1799771"><ele>325.0</ele><time>2026-03-29T07:52:09.384Z</time></trkpt><trkpt lat="43.383851" lon="13.1799549"><ele>325.0</ele><time>2026-03-29T07:52:10.395Z</time></trkpt><trkpt lat="43.383775" lon="13.1799335"><ele>325.0</ele><time>2026-03-29T07:52:11.392Z</time></trkpt><trkpt lat="43.3837024" lon="13.1799195"><ele>325.0</ele><time>2026-03-29T07:52:12.409Z</time></trkpt><trkpt lat="43.3836026" lon="13.179873"><ele>325.0</ele><time>2026-03-29T07:52:14.413Z</time></trkpt><trkpt lat="43.3835436" lon="13.1798209"><ele>325.0</ele><time>2026-03-29T07:52:16.394Z</time></trkpt><trkpt lat="43.3834838" lon="13.1797325"><ele>325.8333333333333</ele><time>2026-03-29T07:52:19.418Z</time></trkpt><trkpt lat="43.3834317" lon="13.1796694"><ele>326.66666666666663</ele><time>2026-03-29T07:52:21.371Z</time></trkpt><trkpt lat="43.3833604" lon="13.1796113"><ele>327.5</ele><time>2026-03-29T07:52:23.432Z</time></trkpt><trkpt lat="43.3832943" lon="13.1795166"><ele>328.3333333333333</ele><time>2026-03-29T07:52:25.386Z</time></trkpt><trkpt lat="43.3832779" lon="13.1794227"><ele>329.1666666666667</ele><time>2026-03-29T07:52:27.408Z</time></trkpt><trkpt lat="43.3833336" lon="13.1793214"><ele>330.0</ele><time>2026-03-29T07:52:30.362Z</time></trkpt><trkpt lat="43.383449" lon="13.1792403"><ele>330.0</ele><time>2026-03-29T07:52:32.393Z</time></trkpt><trkpt lat="43.3835236" lon="13.1791798"><ele>330.0</ele><time>2026-03-29T07:52:33.417Z</time></trkpt><trkpt lat="43.3835988" lon="13.1791186"><ele>330.0</ele><time>2026-03-29T07:52:34.376Z</time></trkpt><trkpt lat="43.3836724" lon="13.1790581"><ele>330.0</ele><time>2026-03-29T07:52:35.403Z</time></trkpt><trkpt lat="43.3837454" lon="13.1789925"><ele>330.0</ele><time>2026-03-29T07:52:36.396Z</time></trkpt><trkpt lat="43.3838265" lon="13.1789281"><ele>330.0</ele><time>2026-03-29T07:52:37.42Z</time></trkpt><trkpt lat="43.3839114" lon="13.1788638"><ele>331.4</ele><time>2026-03-29T07:52:38.412Z</time></trkpt><trkpt lat="43.3839948" lon="13.1787975"><ele>332.8</ele><time>2026-03-29T07:52:39.411Z</time></trkpt><trkpt lat="43.3840846" lon="13.1787233"><ele>334.20000000000005</ele><time>2026-03-29T07:52:40.418Z</time></trkpt><trkpt lat="43.3841761" lon="13.1786494"><ele>335.6</ele><time>2026-03-29T07:52:41.405Z</time></trkpt><trkpt lat="43.3842712" lon="13.1785604"><ele>337.0</ele><time>2026-03-29T07:52:42.382Z</time></trkpt><trkpt lat="43.3843617" lon="13.1784588"><ele>337.0</ele><time>2026-03-29T07:52:43.403Z</time></trkpt><trkpt lat="43.3844383" lon="13.178325"><ele>337.0</ele><time>2026-03-29T07:52:44.411Z</time></trkpt><trkpt lat="43.3845011" lon="13.1781667"><ele>337.0</ele><time>2026-03-29T07:52:45.403Z</time></trkpt><trkpt lat="43.3845375" lon="13.1779981"><ele>337.0</ele><time>2026-03-29T07:52:46.394Z</time></trkpt><trkpt lat="43.3845516" lon="13.1778584"><ele>338.3333333333333</ele><time>2026-03-29T07:52:47.404Z</time></trkpt><trkpt lat="43.3845431" lon="13.1777325"><ele>339.66666666666663</ele><time>2026-03-29T07:52:48.404Z</time></trkpt><trkpt lat="43.3845322" lon="13.1776302"><ele>341.0</ele><time>2026-03-29T07:52:49.4Z</time></trkpt><trkpt lat="43.384511" lon="13.1775367"><ele>342.3333333333333</ele><time>2026-03-29T07:52:50.387Z</time></trkpt><trkpt lat="43.3844926" lon="13.1774451"><ele>343.6666666666667</ele><time>2026-03-29T07:52:51.412Z</time></trkpt><trkpt lat="43.3844561" lon="13.1773042"><ele>345.0</ele><time>2026-03-29T07:52:53.405Z</time></trkpt><trkpt lat="43.3844119" lon="13.1771748"><ele>345.5</ele><time>2026-03-29T07:52:55.43Z</time></trkpt><trkpt lat="43.3843625" lon="13.1771124"><ele>346.0</ele><time>2026-03-29T07:52:57.386Z</time></trkpt><trkpt lat="43.3842924" lon="13.1770557"><ele>346.5</ele><time>2026-03-29T07:53:01.394Z</time></trkpt><trkpt lat="43.3842255" lon="13.1770295"><ele>347.0</ele><time>2026-03-29T07:53:04.395Z</time></trkpt><trkpt lat="43.3841532" lon="13.1769691"><ele>347.5</ele><time>2026-03-29T07:53:12.4Z</time></trkpt><trkpt lat="43.3840636" lon="13.1769113"><ele>348.0</ele><time>2026-03-29T07:53:14.387Z</time></trkpt><trkpt lat="43.3840237" lon="13.1768265"><ele>348.0</ele><time>2026-03-29T07:53:17.385Z</time></trkpt><trkpt lat="43.3839974" lon="13.1767372"><ele>348.0</ele><time>2026-03-29T07:53:35.4Z</time></trkpt><trkpt lat="43.3839756" lon="13.1766463"><ele>348.0</ele><time>2026-03-29T07:53:38.387Z</time></trkpt><trkpt lat="43.3839303" lon="13.1765343"><ele>348.0</ele><time>2026-03-29T07:53:40.398Z</time></trkpt><trkpt lat="43.383864" lon="13.1764146"><ele>348.0</ele><time>2026-03-29T07:53:42.421Z</time></trkpt><trkpt lat="43.3838679" lon="13.1763051"><ele>348.0</ele><time>2026-03-29T07:54:14.406Z</time></trkpt><trkpt lat="43.3838155" lon="13.1762487"><ele>356.0</ele><time>2026-03-29T08:01:06.415Z</time></trkpt><trkpt lat="43.3837536" lon="13.1760786"><ele>364.0</ele><time>2026-03-29T08:01:11.434Z</time></trkpt><trkpt lat="43.3837169" lon="13.175937"><ele>372.0</ele><time>2026-03-29T08:01:14.386Z</time></trkpt><trkpt lat="43.3836968" lon="13.1758449"><ele>380.0</ele><time>2026-03-29T08:01:28.409Z</time></trkpt><trkpt lat="43.3836644" lon="13.1757672"><ele>388.0</ele><time>2026-03-29T08:01:32.355Z</time></trkpt><trkpt lat="43.3836731" lon="13.1756769"><ele>396.0</ele><time>2026-03-29T08:01:40.39Z</time></trkpt><trkpt lat="43.3836512" lon="13.175575"><ele>398.0</ele><time>2026-03-29T08:01:58.379Z</time></trkpt><trkpt lat="43.3836327" lon="13.1754779"><ele>400.0</ele><time>2026-03-29T08:02:01.402Z</time></trkpt><trkpt lat="43.3836298" lon="13.1753766"><ele>402.0</ele><time>2026-03-29T08:02:03.392Z</time></trkpt><trkpt lat="43.3836227" lon="13.1751991"><ele>404.0</ele><time>2026-03-29T08:02:05.385Z</time></trkpt><trkpt lat="43.3836393" lon="13.1750376"><ele>406.0</ele><time>2026-03-29T08:02:07.406Z</time></trkpt><trkpt lat="43.3836563" lon="13.1748895"><ele>407.6</ele><time>2026-03-29T08:02:09.363Z</time></trkpt><trkpt lat="43.3836661" lon="13.1747425"><ele>409.20000000000005</ele><time>2026-03-29T08:02:11.383Z</time></trkpt><trkpt lat="43.3836755" lon="13.174612"><ele>410.79999999999995</ele><time>2026-03-29T08:02:13.414Z</time></trkpt><trkpt lat="43.3836778" lon="13.1744838"><ele>412.4</ele><time>2026-03-29T08:02:15.4Z</time></trkpt><trkpt lat="43.3836737" lon="13.1743433"><ele>414.0</ele><time>2026-03-29T08:02:17.393Z</time></trkpt><trkpt lat="43.3836584" lon="13.174199"><ele>414.0</ele><time>2026-03-29T08:02:19.396Z</time></trkpt><trkpt lat="43.3836531" lon="13.1740538"><ele>414.0</ele><time>2026-03-29T08:02:21.385Z</time></trkpt><trkpt lat="43.3836389" lon="13.173889"><ele>414.0</ele><time>2026-03-29T08:02:23.392Z</time></trkpt><trkpt lat="43.3836314" lon="13.1737772"><ele>414.0</ele><time>2026-03-29T08:02:24.38Z</time></trkpt><trkpt lat="43.3836257" lon="13.1736459"><ele>414.0</ele><time>2026-03-29T08:02:25.352Z</time></trkpt><trkpt lat="43.3836184" lon="13.1734983"><ele>415.0</ele><time>2026-03-29T08:02:26.411Z</time></trkpt><trkpt lat="43.3836032" lon="13.1733443"><ele>416.0</ele><time>2026-03-29T08:02:27.427Z</time></trkpt><trkpt lat="43.3835896" lon="13.1731954"><ele>417.0</ele><time>2026-03-29T08:02:28.415Z</time></trkpt><trkpt lat="43.3835782" lon="13.173044"><ele>418.0</ele><time>2026-03-29T08:02:29.405Z</time></trkpt><trkpt lat="43.3835783" lon="13.1729007"><ele>419.0</ele><time>2026-03-29T08:02:30.407Z</time></trkpt><trkpt lat="43.3835822" lon="13.1727549"><ele>418.99999999999994</ele><time>2026-03-29T08:02:31.358Z</time></trkpt><trkpt lat="43.3835936" lon="13.1726148"><ele>419.0</ele><time>2026-03-29T08:02:32.406Z</time></trkpt><trkpt lat="43.3836074" lon="13.1724741"><ele>419.0</ele><time>2026-03-29T08:02:33.403Z</time></trkpt><trkpt lat="43.3836105" lon="13.1723488"><ele>419.0</ele><time>2026-03-29T08:02:34.418Z</time></trkpt><trkpt lat="43.3835969" lon="13.172253"><ele>418.99999999999994</ele><time>2026-03-29T08:02:35.4Z</time></trkpt><trkpt lat="43.3835742" lon="13.1721595"><ele>419.0</ele><time>2026-03-29T08:02:36.395Z</time></trkpt><trkpt lat="43.3835323" lon="13.1720632"><ele>417.99999999999994</ele><time>2026-03-29T08:02:37.411Z</time></trkpt><trkpt lat="43.3834912" lon="13.1719727"><ele>417.0</ele><time>2026-03-29T08:02:38.412Z</time></trkpt><trkpt lat="43.3834341" lon="13.1718374"><ele>416.0</ele><time>2026-03-29T08:02:40.361Z</time></trkpt><trkpt lat="43.3833941" lon="13.1717628"><ele>415.0</ele><time>2026-03-29T08:02:41.4Z</time></trkpt><trkpt lat="43.3833491" lon="13.1716804"><ele>413.99999999999994</ele><time>2026-03-29T08:02:42.395Z</time></trkpt><trkpt lat="43.3832997" lon="13.1716007"><ele>413.0</ele><time>2026-03-29T08:02:43.406Z</time></trkpt><trkpt lat="43.3832448" lon="13.1715278"><ele>410.99999999999994</ele><time>2026-03-29T08:02:44.411Z</time></trkpt><trkpt lat="43.3831979" lon="13.1714563"><ele>409.0</ele><time>2026-03-29T08:02:45.434Z</time></trkpt><trkpt lat="43.3831576" lon="13.171384"><ele>407.0</ele><time>2026-03-29T08:02:46.414Z</time></trkpt><trkpt lat="43.3831027" lon="13.1712984"><ele>405.0</ele><time>2026-03-29T08:02:47.43Z</time></trkpt><trkpt lat="43.3830466" lon="13.1712031"><ele>402.99999999999994</ele><time>2026-03-29T08:02:48.408Z</time></trkpt><trkpt lat="43.3830022" lon="13.1711076"><ele>401.0</ele><time>2026-03-29T08:02:49.41Z</time></trkpt><trkpt lat="43.3829688" lon="13.1710152"><ele>405.4</ele><time>2026-03-29T08:02:50.408Z</time></trkpt><trkpt lat="43.3829337" lon="13.1709208"><ele>409.8</ele><time>2026-03-29T08:02:51.416Z</time></trkpt><trkpt lat="43.3828865" lon="13.1708129"><ele>414.2</ele><time>2026-03-29T08:02:52.415Z</time></trkpt><trkpt lat="43.3828336" lon="13.1707057"><ele>418.59999999999997</ele><time>2026-03-29T08:02:53.426Z</time></trkpt><trkpt lat="43.3827692" lon="13.1706009"><ele>423.0</ele><time>2026-03-29T08:02:54.392Z</time></trkpt><trkpt lat="43.3827068" lon="13.1705167"><ele>423.0</ele><time>2026-03-29T08:02:55.42Z</time></trkpt><trkpt lat="43.3826498" lon="13.1704338"><ele>423.0</ele><time>2026-03-29T08:02:56.375Z</time></trkpt><trkpt lat="43.3826006" lon="13.1703597"><ele>423.0</ele><time>2026-03-29T08:02:57.373Z</time></trkpt><trkpt lat="43.3825505" lon="13.1702778"><ele>423.0</ele><time>2026-03-29T08:02:58.372Z</time></trkpt><trkpt lat="43.3824959" lon="13.170177"><ele>423.0</ele><time>2026-03-29T08:02:59.376Z</time></trkpt><trkpt lat="43.3824387" lon="13.1700752"><ele>423.0</ele><time>2026-03-29T08:03:00.414Z</time></trkpt><trkpt lat="43.3823802" lon="13.1700007"><ele>423.0</ele><time>2026-03-29T08:03:01.418Z</time></trkpt><trkpt lat="43.382331" lon="13.1699425"><ele>423.0</ele><time>2026-03-29T08:03:02.387Z</time></trkpt><trkpt lat="43.3822276" lon="13.1699092"><ele>423.0</ele><time>2026-03-29T08:03:04.409Z</time></trkpt><trkpt lat="43.3821275" lon="13.1698779"><ele>423.0</ele><time>2026-03-29T08:03:06.409Z</time></trkpt><trkpt lat="43.3820466" lon="13.1698171"><ele>423.0</ele><time>2026-03-29T08:03:08.402Z</time></trkpt><trkpt lat="43.3819848" lon="13.1697613"><ele>423.0</ele><time>2026-03-29T08:03:10.39Z</time></trkpt><trkpt lat="43.3819046" lon="13.1696944"><ele>424.4</ele><time>2026-03-29T08:03:12.398Z</time></trkpt><trkpt lat="43.3818239" lon="13.1696479"><ele>425.79999999999995</ele><time>2026-03-29T08:03:15.4Z</time></trkpt><trkpt lat="43.3817148" lon="13.1696886"><ele>427.2</ele><time>2026-03-29T08:03:17.393Z</time></trkpt><trkpt lat="43.3815993" lon="13.1697439"><ele>428.6</ele><time>2026-03-29T08:03:19.386Z</time></trkpt><trkpt lat="43.3814731" lon="13.1697491"><ele>430.0</ele><time>2026-03-29T08:03:21.399Z</time></trkpt><trkpt lat="43.3814026" lon="13.1697263"><ele>432.4</ele><time>2026-03-29T08:03:22.409Z</time></trkpt><trkpt lat="43.3813306" lon="13.1696748"><ele>434.8</ele><time>2026-03-29T08:03:23.405Z</time></trkpt><trkpt lat="43.3812646" lon="13.1695802"><ele>437.20000000000005</ele><time>2026-03-29T08:03:24.361Z</time></trkpt><trkpt lat="43.3812007" lon="13.1694593"><ele>439.6</ele><time>2026-03-29T08:03:25.42Z</time></trkpt><trkpt lat="43.381142" lon="13.1693454"><ele>442.0</ele><time>2026-03-29T08:03:26.41Z</time></trkpt><trkpt lat="43.3810878" lon="13.169253"><ele>442.0</ele><time>2026-03-29T08:03:27.364Z</time></trkpt><trkpt lat="43.3810256" lon="13.1691861"><ele>442.00000000000006</ele><time>2026-03-29T08:03:28.37Z</time></trkpt><trkpt lat="43.3809488" lon="13.1691246"><ele>442.00000000000006</ele><time>2026-03-29T08:03:29.404Z</time></trkpt><trkpt lat="43.3808618" lon="13.1690584"><ele>442.0</ele><time>2026-03-29T08:03:30.414Z</time></trkpt><trkpt lat="43.3807638" lon="13.168995"><ele>442.0</ele><time>2026-03-29T08:03:31.36Z</time></trkpt><trkpt lat="43.3806598" lon="13.1689285"><ele>443.25</ele><time>2026-03-29T08:03:32.406Z</time></trkpt><trkpt lat="43.3805608" lon="13.1688454"><ele>444.5</ele><time>2026-03-29T08:03:33.415Z</time></trkpt><trkpt lat="43.3804537" lon="13.1687497"><ele>445.75</ele><time>2026-03-29T08:03:34.421Z</time></trkpt><trkpt lat="43.3803495" lon="13.1686629"><ele>447.0</ele><time>2026-03-29T08:03:35.419Z</time></trkpt><trkpt lat="43.3802376" lon="13.1685819"><ele>447.0</ele><time>2026-03-29T08:03:36.403Z</time></trkpt><trkpt lat="43.3801196" lon="13.1685176"><ele>447.0</ele><time>2026-03-29T08:03:37.403Z</time></trkpt><trkpt lat="43.3800046" lon="13.1684661"><ele>447.0</ele><time>2026-03-29T08:03:38.419Z</time></trkpt><trkpt lat="43.3798981" lon="13.1684018"><ele>447.0</ele><time>2026-03-29T08:03:39.415Z</time></trkpt><trkpt lat="43.3797962" lon="13.1683357"><ele>447.0</ele><time>2026-03-29T08:03:40.402Z</time></trkpt><trkpt lat="43.3796964" lon="13.1682793"><ele>447.0</ele><time>2026-03-29T08:03:41.416Z</time></trkpt><trkpt lat="43.3795946" lon="13.1682282"><ele>447.0</ele><time>2026-03-29T08:03:42.398Z</time></trkpt><trkpt lat="43.3794968" lon="13.168153"><ele>447.0</ele><time>2026-03-29T08:03:43.42Z</time></trkpt><trkpt lat="43.379391" lon="13.1680536"><ele>448.0</ele><time>2026-03-29T08:03:44.396Z</time></trkpt><trkpt lat="43.3792794" lon="13.1679512"><ele>449.0</ele><time>2026-03-29T08:03:45.374Z</time></trkpt><trkpt lat="43.3791609" lon="13.1678588"><ele>450.0</ele><time>2026-03-29T08:03:46.356Z</time></trkpt><trkpt lat="43.3790422" lon="13.1677745"><ele>451.0</ele><time>2026-03-29T08:03:47.42Z</time></trkpt><trkpt lat="43.3789266" lon="13.1677053"><ele>451.0</ele><time>2026-03-29T08:03:48.407Z</time></trkpt><trkpt lat="43.3788168" lon="13.1676598"><ele>451.0</ele><time>2026-03-29T08:03:49.393Z</time></trkpt><trkpt lat="43.3787178" lon="13.1676081"><ele>451.0</ele><time>2026-03-29T08:03:50.397Z</time></trkpt><trkpt lat="43.3786343" lon="13.1675304"><ele>451.0</ele><time>2026-03-29T08:03:51.401Z</time></trkpt><trkpt lat="43.378557" lon="13.167428"><ele>451.0</ele><time>2026-03-29T08:03:52.405Z</time></trkpt><trkpt lat="43.3784614" lon="13.1673111"><ele>451.0</ele><time>2026-03-29T08:03:53.409Z</time></trkpt><trkpt lat="43.3783576" lon="13.1672039"><ele>451.0</ele><time>2026-03-29T08:03:54.408Z</time></trkpt><trkpt lat="43.3782412" lon="13.1671178"><ele>451.0</ele><time>2026-03-29T08:03:55.412Z</time></trkpt><trkpt lat="43.3781233" lon="13.1670325"><ele>451.0</ele><time>2026-03-29T08:03:56.406Z</time></trkpt><trkpt lat="43.3780047" lon="13.1669516"><ele>452.0</ele><time>2026-03-29T08:03:57.38Z</time></trkpt><trkpt lat="43.3779024" lon="13.1668878"><ele>453.0</ele><time>2026-03-29T08:03:58.425Z</time></trkpt><trkpt lat="43.3778088" lon="13.1668274"><ele>454.0</ele><time>2026-03-29T08:03:59.41Z</time></trkpt><trkpt lat="43.3777297" lon="13.1667846"><ele>455.0</ele><time>2026-03-29T08:04:00.391Z</time></trkpt><trkpt lat="43.3776617" lon="13.1667658"><ele>456.0</ele><time>2026-03-29T08:04:01.406Z</time></trkpt><trkpt lat="43.3775737" lon="13.1667465"><ele>456.0</ele><time>2026-03-29T08:04:03.407Z</time></trkpt><trkpt lat="43.3775013" lon="13.1667228"><ele>456.0</ele><time>2026-03-29T08:04:07.404Z</time></trkpt><trkpt lat="43.3774303" lon="13.1666916"><ele>456.0</ele><time>2026-03-29T08:04:12.416Z</time></trkpt><trkpt lat="43.3773611" lon="13.1666487"><ele>456.0</ele><time>2026-03-29T08:04:28.393Z</time></trkpt><trkpt lat="43.3772869" lon="13.1666435"><ele>456.0</ele><time>2026-03-29T08:04:33.409Z</time></trkpt><trkpt lat="43.37722" lon="13.1665642"><ele>456.0</ele><time>2026-03-29T08:04:38.397Z</time></trkpt><trkpt lat="43.3771405" lon="13.166492"><ele>452.3333333333333</ele><time>2026-03-29T08:04:40.362Z</time></trkpt><trkpt lat="43.3770607" lon="13.1664604"><ele>448.66666666666663</ele><time>2026-03-29T08:04:42.397Z</time></trkpt><trkpt lat="43.3769943" lon="13.1664274"><ele>445.0</ele><time>2026-03-29T08:04:44.409Z</time></trkpt><trkpt lat="43.3769018" lon="13.1663483"><ele>441.3333333333333</ele><time>2026-03-29T08:04:46.415Z</time></trkpt><trkpt lat="43.3768319" lon="13.1663024"><ele>437.66666666666663</ele><time>2026-03-29T08:04:47.411Z</time></trkpt><trkpt lat="43.3767604" lon="13.1662609"><ele>434.0</ele><time>2026-03-29T08:04:48.401Z</time></trkpt><trkpt lat="43.3766942" lon="13.1662235"><ele>434.0</ele><time>2026-03-29T08:04:49.412Z</time></trkpt><trkpt lat="43.3766285" lon="13.1661833"><ele>434.0</ele><time>2026-03-29T08:04:50.405Z</time></trkpt><trkpt lat="43.3765588" lon="13.1661389"><ele>434.0</ele><time>2026-03-29T08:04:51.402Z</time></trkpt><trkpt lat="43.3764926" lon="13.1660934"><ele>434.0</ele><time>2026-03-29T08:04:52.407Z</time></trkpt><trkpt lat="43.3764293" lon="13.1660409"><ele>434.0</ele><time>2026-03-29T08:04:53.416Z</time></trkpt><trkpt lat="43.3763721" lon="13.1659866"><ele>434.0</ele><time>2026-03-29T08:04:54.416Z</time></trkpt><trkpt lat="43.3763199" lon="13.1659328"><ele>434.0</ele><time>2026-03-29T08:04:55.395Z</time></trkpt><trkpt lat="43.3762597" lon="13.1658739"><ele>435.49999999999994</ele><time>2026-03-29T08:04:56.416Z</time></trkpt><trkpt lat="43.3761949" lon="13.1658085"><ele>437.0</ele><time>2026-03-29T08:04:57.422Z</time></trkpt><trkpt lat="43.3761267" lon="13.1657463"><ele>438.5</ele><time>2026-03-29T08:04:58.408Z</time></trkpt><trkpt lat="43.3760597" lon="13.1656836"><ele>440.0</ele><time>2026-03-29T08:04:59.42Z</time></trkpt><trkpt lat="43.375985" lon="13.1656219"><ele>441.49999999999994</ele><time>2026-03-29T08:05:00.387Z</time></trkpt><trkpt lat="43.3759002" lon="13.1655524"><ele>443.0</ele><time>2026-03-29T08:05:01.384Z</time></trkpt><trkpt lat="43.3758147" lon="13.1654799"><ele>438.3333333333333</ele><time>2026-03-29T08:05:02.423Z</time></trkpt><trkpt lat="43.3757302" lon="13.1654247"><ele>433.66666666666663</ele><time>2026-03-29T08:05:03.435Z</time></trkpt><trkpt lat="43.3756502" lon="13.1653738"><ele>429.0</ele><time>2026-03-29T08:05:04.41Z</time></trkpt><trkpt lat="43.3755768" lon="13.1653348"><ele>424.33333333333337</ele><time>2026-03-29T08:05:05.402Z</time></trkpt><trkpt lat="43.3755068" lon="13.1652988"><ele>419.6666666666667</ele><time>2026-03-29T08:05:06.397Z</time></trkpt><trkpt lat="43.375433" lon="13.1652505"><ele>415.0</ele><time>2026-03-29T08:05:07.367Z</time></trkpt><trkpt lat="43.375353" lon="13.1651974"><ele>415.00000000000006</ele><time>2026-03-29T08:05:08.415Z</time></trkpt><trkpt lat="43.375271" lon="13.1651419"><ele>415.0</ele><time>2026-03-29T08:05:09.418Z</time></trkpt><trkpt lat="43.3751937" lon="13.1650775"><ele>415.0</ele><time>2026-03-29T08:05:10.423Z</time></trkpt><trkpt lat="43.3751239" lon="13.1650106"><ele>415.0</ele><time>2026-03-29T08:05:11.39Z</time></trkpt><trkpt lat="43.375059" lon="13.1649502"><ele>415.00000000000006</ele><time>2026-03-29T08:05:12.409Z</time></trkpt><trkpt lat="43.374992" lon="13.164887"><ele>415.0</ele><time>2026-03-29T08:05:13.405Z</time></trkpt><trkpt lat="43.3749247" lon="13.1648215"><ele>411.6666666666667</ele><time>2026-03-29T08:05:14.419Z</time></trkpt><trkpt lat="43.3748602" lon="13.164761"><ele>408.33333333333337</ele><time>2026-03-29T08:05:15.419Z</time></trkpt><trkpt lat="43.3747863" lon="13.1647011"><ele>405.0</ele><time>2026-03-29T08:05:16.394Z</time></trkpt><trkpt lat="43.3747144" lon="13.1646397"><ele>401.66666666666663</ele><time>2026-03-29T08:05:17.401Z</time></trkpt><trkpt lat="43.3746393" lon="13.1645829"><ele>398.3333333333333</ele><time>2026-03-29T08:05:18.414Z</time></trkpt><trkpt lat="43.374564" lon="13.1645175"><ele>395.0</ele><time>2026-03-29T08:05:19.412Z</time></trkpt><trkpt lat="43.3744935" lon="13.1644518"><ele>395.0</ele><time>2026-03-29T08:05:20.4Z</time></trkpt><trkpt lat="43.3744261" lon="13.1643813"><ele>395.0</ele><time>2026-03-29T08:05:21.416Z</time></trkpt><trkpt lat="43.3743653" lon="13.164313"><ele>395.0</ele><time>2026-03-29T08:05:22.406Z</time></trkpt><trkpt lat="43.3743059" lon="13.1642495"><ele>395.0</ele><time>2026-03-29T08:05:23.374Z</time></trkpt><trkpt lat="43.3742504" lon="13.1641825"><ele>395.0</ele><time>2026-03-29T08:05:24.397Z</time></trkpt><trkpt lat="43.374197" lon="13.1641207"><ele>395.0</ele><time>2026-03-29T08:05:25.4Z</time></trkpt><trkpt lat="43.3741464" lon="13.1640643"><ele>395.0</ele><time>2026-03-29T08:05:26.403Z</time></trkpt><trkpt lat="43.3740976" lon="13.1640042"><ele>392.4</ele><time>2026-03-29T08:05:27.425Z</time></trkpt><trkpt lat="43.3740179" lon="13.1639129"><ele>389.8</ele><time>2026-03-29T08:05:29.39Z</time></trkpt><trkpt lat="43.3739612" lon="13.1638273"><ele>387.20000000000005</ele><time>2026-03-29T08:05:31.359Z</time></trkpt><trkpt lat="43.3738884" lon="13.1636927"><ele>384.6</ele><time>2026-03-29T08:05:33.414Z</time></trkpt><trkpt lat="43.3738443" lon="13.1636173"><ele>382.0</ele><time>2026-03-29T08:05:34.399Z</time></trkpt><trkpt lat="43.3737923" lon="13.1635494"><ele>382.0</ele><time>2026-03-29T08:05:35.421Z</time></trkpt><trkpt lat="43.3737334" lon="13.163475"><ele>382.0</ele><time>2026-03-29T08:05:36.402Z</time></trkpt><trkpt lat="43.3736696" lon="13.1634094"><ele>382.0</ele><time>2026-03-29T08:05:37.394Z</time></trkpt><trkpt lat="43.3736004" lon="13.1633461"><ele>382.0</ele><time>2026-03-29T08:05:38.42Z</time></trkpt><trkpt lat="43.3735253" lon="13.1632805"><ele>382.0</ele><time>2026-03-29T08:05:39.362Z</time></trkpt><trkpt lat="43.3734591" lon="13.1631951"><ele>382.0</ele><time>2026-03-29T08:05:40.394Z</time></trkpt><trkpt lat="43.3733894" lon="13.1630979"><ele>380.8333333333333</ele><time>2026-03-29T08:05:41.388Z</time></trkpt><trkpt lat="43.3733116" lon="13.1630122"><ele>379.66666666666663</ele><time>2026-03-29T08:05:42.407Z</time></trkpt><trkpt lat="43.3732392" lon="13.1629365"><ele>378.5</ele><time>2026-03-29T08:05:43.412Z</time></trkpt><trkpt lat="43.3731757" lon="13.1628684"><ele>377.3333333333333</ele><time>2026-03-29T08:05:44.411Z</time></trkpt><trkpt lat="43.3731151" lon="13.1628137"><ele>376.1666666666667</ele><time>2026-03-29T08:05:45.389Z</time></trkpt><trkpt lat="43.373055" lon="13.1627502"><ele>375.0</ele><time>2026-03-29T08:05:46.408Z</time></trkpt><trkpt lat="43.3729998" lon="13.1626738"><ele>375.0</ele><time>2026-03-29T08:05:47.406Z</time></trkpt><trkpt lat="43.3729075" lon="13.1625885"><ele>375.0</ele><time>2026-03-29T08:05:49.408Z</time></trkpt><trkpt lat="43.3728394" lon="13.1625587"><ele>375.0</ele><time>2026-03-29T08:05:50.407Z</time></trkpt><trkpt lat="43.3727658" lon="13.162498"><ele>375.0</ele><time>2026-03-29T08:05:51.387Z</time></trkpt><trkpt lat="43.3726784" lon="13.1624149"><ele>375.0</ele><time>2026-03-29T08:05:52.405Z</time></trkpt><trkpt lat="43.3725807" lon="13.1623284"><ele>365.6666666666667</ele><time>2026-03-29T08:05:53.401Z</time></trkpt><trkpt lat="43.3724774" lon="13.162232"><ele>356.33333333333337</ele><time>2026-03-29T08:05:54.412Z</time></trkpt><trkpt lat="43.3723438" lon="13.1620992"><ele>347.0</ele><time>2026-03-29T08:05:55.4Z</time></trkpt><trkpt lat="43.3722105" lon="13.1619579"><ele>348.75</ele><time>2026-03-29T08:05:56.405Z</time></trkpt><trkpt lat="43.3720976" lon="13.1618312"><ele>350.5</ele><time>2026-03-29T08:05:57.396Z</time></trkpt><trkpt lat="43.3719937" lon="13.1617185"><ele>352.25</ele><time>2026-03-29T08:05:58.416Z</time></trkpt><trkpt lat="43.3719065" lon="13.1616078"><ele>354.0</ele><time>2026-03-29T08:05:59.407Z</time></trkpt><trkpt lat="43.3718169" lon="13.1614949"><ele>354.0</ele><time>2026-03-29T08:06:00.411Z</time></trkpt><trkpt lat="43.3717057" lon="13.1613787"><ele>354.0</ele><time>2026-03-29T08:06:01.395Z</time></trkpt><trkpt lat="43.3716018" lon="13.1612831"><ele>354.0</ele><time>2026-03-29T08:06:02.406Z</time></trkpt><trkpt lat="43.3715046" lon="13.1611991"><ele>354.0</ele><time>2026-03-29T08:06:03.405Z</time></trkpt><trkpt lat="43.3714167" lon="13.1610961"><ele>353.0</ele><time>2026-03-29T08:06:04.401Z</time></trkpt><trkpt lat="43.371333" lon="13.1609765"><ele>352.0</ele><time>2026-03-29T08:06:05.354Z</time></trkpt><trkpt lat="43.3712634" lon="13.160849"><ele>351.0</ele><time>2026-03-29T08:06:06.357Z</time></trkpt><trkpt lat="43.3712073" lon="13.1607286"><ele>350.0</ele><time>2026-03-29T08:06:07.408Z</time></trkpt><trkpt lat="43.3711511" lon="13.16062"><ele>349.0</ele><time>2026-03-29T08:06:08.395Z</time></trkpt><trkpt lat="43.3710952" lon="13.1605259"><ele>349.0</ele><time>2026-03-29T08:06:09.414Z</time></trkpt><trkpt lat="43.3710427" lon="13.1604464"><ele>349.0</ele><time>2026-03-29T08:06:10.43Z</time></trkpt><trkpt lat="43.3709899" lon="13.1603656"><ele>349.0</ele><time>2026-03-29T08:06:11.423Z</time></trkpt><trkpt lat="43.370931" lon="13.1602946"><ele>349.0</ele><time>2026-03-29T08:06:12.409Z</time></trkpt><trkpt lat="43.3708716" lon="13.1602167"><ele>349.0</ele><time>2026-03-29T08:06:13.418Z</time></trkpt><trkpt lat="43.370814" lon="13.1601334"><ele>349.0</ele><time>2026-03-29T08:06:14.437Z</time></trkpt><trkpt lat="43.3707641" lon="13.160043"><ele>349.0</ele><time>2026-03-29T08:06:15.417Z</time></trkpt><trkpt lat="43.3707195" lon="13.159959"><ele>349.0</ele><time>2026-03-29T08:06:16.412Z</time></trkpt><trkpt lat="43.370664" lon="13.1598887"><ele>349.0</ele><time>2026-03-29T08:06:17.397Z</time></trkpt><trkpt lat="43.3705558" lon="13.1598352"><ele>349.0</ele><time>2026-03-29T08:06:19.384Z</time></trkpt><trkpt lat="43.3704483" lon="13.1598584"><ele>349.0</ele><time>2026-03-29T08:06:21.39Z</time></trkpt><trkpt lat="43.3704111" lon="13.1599345"><ele>349.0</ele><time>2026-03-29T08:06:23.41Z</time></trkpt><trkpt lat="43.3704694" lon="13.1600603"><ele>349.0</ele><time>2026-03-29T08:06:25.393Z</time></trkpt><trkpt lat="43.37051" lon="13.1601315"><ele>349.0</ele><time>2026-03-29T08:06:26.415Z</time></trkpt><trkpt lat="43.3705327" lon="13.1602365"><ele>349.0</ele><time>2026-03-29T08:06:27.425Z</time></trkpt><trkpt lat="43.3705218" lon="13.1603555"><ele>349.0</ele><time>2026-03-29T08:06:28.423Z</time></trkpt><trkpt lat="43.3704868" lon="13.1604764"><ele>349.0</ele><time>2026-03-29T08:06:29.4Z</time></trkpt><trkpt lat="43.3704483" lon="13.160596"><ele>349.0</ele><time>2026-03-29T08:06:30.404Z</time></trkpt><trkpt lat="43.3704237" lon="13.1606899"><ele>347.0</ele><time>2026-03-29T08:06:31.359Z</time></trkpt><trkpt lat="43.3703583" lon="13.160791"><ele>345.0</ele><time>2026-03-29T08:06:33.412Z</time></trkpt><trkpt lat="43.3702296" lon="13.1608091"><ele>343.0</ele><time>2026-03-29T08:06:35.409Z</time></trkpt><trkpt lat="43.3701247" lon="13.1607649"><ele>341.0</ele><time>2026-03-29T08:06:36.418Z</time></trkpt><trkpt lat="43.3700078" lon="13.1606801"><ele>341.0</ele><time>2026-03-29T08:06:37.404Z</time></trkpt><trkpt lat="43.369902" lon="13.1605938"><ele>341.0</ele><time>2026-03-29T08:06:38.405Z</time></trkpt><trkpt lat="43.3698221" lon="13.1605052"><ele>341.0</ele><time>2026-03-29T08:06:39.406Z</time></trkpt><trkpt lat="43.3697726" lon="13.1604442"><ele>341.0</ele><time>2026-03-29T08:06:40.411Z</time></trkpt><trkpt lat="43.3697117" lon="13.1603958"><ele>341.0</ele><time>2026-03-29T08:06:41.431Z</time></trkpt><trkpt lat="43.3696333" lon="13.1603828"><ele>341.0</ele><time>2026-03-29T08:06:42.417Z</time></trkpt><trkpt lat="43.3695357" lon="13.1604113"><ele>340.20000000000005</ele><time>2026-03-29T08:06:43.385Z</time></trkpt><trkpt lat="43.3694282" lon="13.1604563"><ele>339.40000000000003</ele><time>2026-03-29T08:06:44.418Z</time></trkpt><trkpt lat="43.369324" lon="13.1604801"><ele>338.6</ele><time>2026-03-29T08:06:45.406Z</time></trkpt><trkpt lat="43.3692376" lon="13.1604957"><ele>337.8</ele><time>2026-03-29T08:06:46.397Z</time></trkpt><trkpt lat="43.3691715" lon="13.1604972"><ele>337.0</ele><time>2026-03-29T08:06:47.403Z</time></trkpt><trkpt lat="43.3690531" lon="13.1605114"><ele>337.0</ele><time>2026-03-29T08:06:49.405Z</time></trkpt><trkpt lat="43.3689466" lon="13.1605235"><ele>337.0</ele><time>2026-03-29T08:06:51.413Z</time></trkpt><trkpt lat="43.3688842" lon="13.1605427"><ele>337.0</ele><time>2026-03-29T08:06:52.411Z</time></trkpt><trkpt lat="43.3688154" lon="13.1605589"><ele>337.0</ele><time>2026-03-29T08:06:53.398Z</time></trkpt><trkpt lat="43.3687452" lon="13.1605597"><ele>337.0</ele><time>2026-03-29T08:06:54.39Z</time></trkpt><trkpt lat="43.3686785" lon="13.1605499"><ele>337.0</ele><time>2026-03-29T08:06:55.405Z</time></trkpt><trkpt lat="43.3685637" lon="13.1605304"><ele>336.66666666666663</ele><time>2026-03-29T08:06:57.401Z</time></trkpt><trkpt lat="43.3684322" lon="13.1605482"><ele>336.3333333333333</ele><time>2026-03-29T08:06:59.418Z</time></trkpt><trkpt lat="43.368358" lon="13.1605629"><ele>336.0</ele><time>2026-03-29T08:07:00.412Z</time></trkpt><trkpt lat="43.3682821" lon="13.1605691"><ele>335.6666666666667</ele><time>2026-03-29T08:07:01.397Z</time></trkpt><trkpt lat="43.3682046" lon="13.1605643"><ele>335.33333333333337</ele><time>2026-03-29T08:07:02.414Z</time></trkpt><trkpt lat="43.3681265" lon="13.1605423"><ele>335.0</ele><time>2026-03-29T08:07:03.364Z</time></trkpt><trkpt lat="43.3680466" lon="13.1605218"><ele>336.1666666666667</ele><time>2026-03-29T08:07:04.374Z</time></trkpt><trkpt lat="43.3679661" lon="13.160521"><ele>337.33333333333337</ele><time>2026-03-29T08:07:05.402Z</time></trkpt><trkpt lat="43.3678882" lon="13.1605353"><ele>338.5</ele><time>2026-03-29T08:07:06.422Z</time></trkpt><trkpt lat="43.367814" lon="13.1605521"><ele>339.6666666666667</ele><time>2026-03-29T08:07:07.419Z</time></trkpt><trkpt lat="43.3677424" lon="13.1605951"><ele>340.8333333333333</ele><time>2026-03-29T08:07:08.395Z</time></trkpt><trkpt lat="43.3676645" lon="13.1606368"><ele>342.0</ele><time>2026-03-29T08:07:09.399Z</time></trkpt><trkpt lat="43.3675868" lon="13.1606696"><ele>342.3333333333333</ele><time>2026-03-29T08:07:10.417Z</time></trkpt><trkpt lat="43.3675236" lon="13.160709"><ele>342.6666666666667</ele><time>2026-03-29T08:07:11.407Z</time></trkpt><trkpt lat="43.3674456" lon="13.1607554"><ele>343.0</ele><time>2026-03-29T08:07:13.391Z</time></trkpt><trkpt lat="43.3673758" lon="13.160792"><ele>343.33333333333337</ele><time>2026-03-29T08:07:16.405Z</time></trkpt><trkpt lat="43.3672882" lon="13.1608339"><ele>343.6666666666667</ele><time>2026-03-29T08:07:28.413Z</time></trkpt><trkpt lat="43.3672216" lon="13.1608917"><ele>344.0</ele><time>2026-03-29T08:07:30.404Z</time></trkpt><trkpt lat="43.3671652" lon="13.1609695"><ele>344.0</ele><time>2026-03-29T08:07:32.367Z</time></trkpt><trkpt lat="43.3670967" lon="13.1610266"><ele>344.0</ele><time>2026-03-29T08:07:35.388Z</time></trkpt><trkpt lat="43.3670497" lon="13.1610949"><ele>344.0</ele><time>2026-03-29T08:07:41.408Z</time></trkpt><trkpt lat="43.36707" lon="13.1612059"><ele>344.0</ele><time>2026-03-29T08:07:44.402Z</time></trkpt><trkpt lat="43.3670844" lon="13.1613118"><ele>344.0</ele><time>2026-03-29T08:07:46.397Z</time></trkpt><trkpt lat="43.3670877" lon="13.161452"><ele>344.0</ele><time>2026-03-29T08:07:48.433Z</time></trkpt><trkpt lat="43.3671062" lon="13.1615727"><ele>345.33333333333337</ele><time>2026-03-29T08:07:51.409Z</time></trkpt><trkpt lat="43.3671092" lon="13.1616826"><ele>346.6666666666667</ele><time>2026-03-29T08:07:53.394Z</time></trkpt><trkpt lat="43.3671197" lon="13.1618265"><ele>348.0</ele><time>2026-03-29T08:07:55.415Z</time></trkpt><trkpt lat="43.3671502" lon="13.1619164"><ele>349.3333333333333</ele><time>2026-03-29T08:07:57.393Z</time></trkpt><trkpt lat="43.3671847" lon="13.1620143"><ele>350.66666666666663</ele><time>2026-03-29T08:07:59.396Z</time></trkpt><trkpt lat="43.367181" lon="13.1621239"><ele>352.0</ele><time>2026-03-29T08:08:02.406Z</time></trkpt><trkpt lat="43.3671497" lon="13.1622319"><ele>353.66666666666663</ele><time>2026-03-29T08:08:05.411Z</time></trkpt><trkpt lat="43.3671358" lon="13.1623673"><ele>355.3333333333333</ele><time>2026-03-29T08:08:07.42Z</time></trkpt><trkpt lat="43.367131" lon="13.16246"><ele>357.0</ele><time>2026-03-29T08:08:09.39Z</time></trkpt><trkpt lat="43.3671574" lon="13.1625625"><ele>358.6666666666667</ele><time>2026-03-29T08:08:17.39Z</time></trkpt><trkpt lat="43.3672026" lon="13.1626676"><ele>360.33333333333337</ele><time>2026-03-29T08:08:19.389Z</time></trkpt><trkpt lat="43.3672315" lon="13.1627601"><ele>362.0</ele><time>2026-03-29T08:08:21.379Z</time></trkpt><trkpt lat="43.3672837" lon="13.1628434"><ele>365.0</ele><time>2026-03-29T08:08:23.409Z</time></trkpt><trkpt lat="43.367329" lon="13.162953"><ele>368.0</ele><time>2026-03-29T08:08:25.394Z</time></trkpt><trkpt lat="43.367389" lon="13.1630267"><ele>371.0</ele><time>2026-03-29T08:08:27.381Z</time></trkpt><trkpt lat="43.3674843" lon="13.1631195"><ele>374.0</ele><time>2026-03-29T08:08:29.4Z</time></trkpt><trkpt lat="43.3675348" lon="13.1631754"><ele>377.0</ele><time>2026-03-29T08:08:30.405Z</time></trkpt><trkpt lat="43.3675937" lon="13.1632194"><ele>380.0</ele><time>2026-03-29T08:08:31.377Z</time></trkpt><trkpt lat="43.3676932" lon="13.1632908"><ele>380.8</ele><time>2026-03-29T08:08:33.399Z</time></trkpt><trkpt lat="43.3677784" lon="13.1633562"><ele>381.6</ele><time>2026-03-29T08:08:35.378Z</time></trkpt><trkpt lat="43.3678474" lon="13.1634375"><ele>382.4</ele><time>2026-03-29T08:08:37.391Z</time></trkpt><trkpt lat="43.3677958" lon="13.1635509"><ele>383.2</ele><time>2026-03-29T08:08:40.385Z</time></trkpt><trkpt lat="43.3677028" lon="13.1636812"><ele>384.0</ele><time>2026-03-29T08:08:42.414Z</time></trkpt><trkpt lat="43.3676636" lon="13.1637683"><ele>384.0</ele><time>2026-03-29T08:08:43.399Z</time></trkpt><trkpt lat="43.3676368" lon="13.163926"><ele>384.0</ele><time>2026-03-29T08:08:45.398Z</time></trkpt><trkpt lat="43.3676252" lon="13.1640881"><ele>384.0</ele><time>2026-03-29T08:08:47.41Z</time></trkpt><trkpt lat="43.3676152" lon="13.1642292"><ele>384.0</ele><time>2026-03-29T08:08:49.405Z</time></trkpt><trkpt lat="43.3676183" lon="13.1643678"><ele>384.0</ele><time>2026-03-29T08:08:51.413Z</time></trkpt><trkpt lat="43.3676262" lon="13.1644544"><ele>385.4285714285714</ele><time>2026-03-29T08:08:52.417Z</time></trkpt><trkpt lat="43.3676252" lon="13.1645466"><ele>386.85714285714283</ele><time>2026-03-29T08:08:53.413Z</time></trkpt><trkpt lat="43.3676287" lon="13.1646354"><ele>388.2857142857143</ele><time>2026-03-29T08:08:54.424Z</time></trkpt><trkpt lat="43.3676335" lon="13.1647242"><ele>389.71428571428567</ele><time>2026-03-29T08:08:55.417Z</time></trkpt><trkpt lat="43.3676446" lon="13.1648208"><ele>391.14285714285717</ele><time>2026-03-29T08:08:56.409Z</time></trkpt><trkpt lat="43.3676548" lon="13.1649093"><ele>392.57142857142856</ele><time>2026-03-29T08:08:57.408Z</time></trkpt><trkpt lat="43.3676786" lon="13.1650548"><ele>394.0</ele><time>2026-03-29T08:08:59.404Z</time></trkpt><trkpt lat="43.367706" lon="13.1651768"><ele>397.2</ele><time>2026-03-29T08:09:01.41Z</time></trkpt><trkpt lat="43.3677505" lon="13.1652817"><ele>400.4</ele><time>2026-03-29T08:09:03.394Z</time></trkpt><trkpt lat="43.3678111" lon="13.1654116"><ele>403.6</ele><time>2026-03-29T08:09:05.39Z</time></trkpt><trkpt lat="43.3678503" lon="13.1655504"><ele>406.8</ele><time>2026-03-29T08:09:07.39Z</time></trkpt><trkpt lat="43.3678798" lon="13.1656711"><ele>410.0</ele><time>2026-03-29T08:09:09.391Z</time></trkpt><trkpt lat="43.3678981" lon="13.1658019"><ele>410.0</ele><time>2026-03-29T08:09:11.413Z</time></trkpt><trkpt lat="43.3679113" lon="13.1659041"><ele>410.0</ele><time>2026-03-29T08:09:13.384Z</time></trkpt><trkpt lat="43.3678895" lon="13.1660089"><ele>410.0</ele><time>2026-03-29T08:09:16.405Z</time></trkpt><trkpt lat="43.3678321" lon="13.1659022"><ele>410.0</ele><time>2026-03-29T08:09:21.393Z</time></trkpt><trkpt lat="43.3677523" lon="13.1657817"><ele>410.0</ele><time>2026-03-29T08:09:23.396Z</time></trkpt><trkpt lat="43.3676872" lon="13.165654"><ele>410.0</ele><time>2026-03-29T08:09:25.403Z</time></trkpt><trkpt lat="43.3676159" lon="13.1655214"><ele>410.0</ele><time>2026-03-29T08:09:27.356Z</time></trkpt><trkpt lat="43.3675405" lon="13.1653934"><ele>410.0</ele><time>2026-03-29T08:09:29.412Z</time></trkpt><trkpt lat="43.367491" lon="13.1653049"><ele>410.0</ele><time>2026-03-29T08:09:30.409Z</time></trkpt><trkpt lat="43.3674477" lon="13.1652099"><ele>410.0</ele><time>2026-03-29T08:09:31.381Z</time></trkpt><trkpt lat="43.3673997" lon="13.1651008"><ele>409.99999999999994</ele><time>2026-03-29T08:09:32.35Z</time></trkpt><trkpt lat="43.3673413" lon="13.1649962"><ele>410.0</ele><time>2026-03-29T08:09:33.4Z</time></trkpt><trkpt lat="43.3672833" lon="13.1648938"><ele>410.0</ele><time>2026-03-29T08:09:34.395Z</time></trkpt><trkpt lat="43.3672321" lon="13.1648053"><ele>410.0</ele><time>2026-03-29T08:09:35.409Z</time></trkpt><trkpt lat="43.3671879" lon="13.1647175"><ele>409.99999999999994</ele><time>2026-03-29T08:09:36.406Z</time></trkpt><trkpt lat="43.3671489" lon="13.1646283"><ele>410.0</ele><time>2026-03-29T08:09:37.402Z</time></trkpt><trkpt lat="43.3671051" lon="13.1645336"><ele>406.4</ele><time>2026-03-29T08:09:38.414Z</time></trkpt><trkpt lat="43.3670717" lon="13.1644392"><ele>402.8</ele><time>2026-03-29T08:09:39.408Z</time></trkpt><trkpt lat="43.3670377" lon="13.1643461"><ele>399.20000000000005</ele><time>2026-03-29T08:09:40.412Z</time></trkpt><trkpt lat="43.3669669" lon="13.1642115"><ele>395.6</ele><time>2026-03-29T08:09:42.419Z</time></trkpt><trkpt lat="43.3668488" lon="13.1641623"><ele>392.0</ele><time>2026-03-29T08:09:44.424Z</time></trkpt><trkpt lat="43.3667308" lon="13.1641831"><ele>392.0</ele><time>2026-03-29T08:09:46.385Z</time></trkpt><trkpt lat="43.3666762" lon="13.1642318"><ele>392.0</ele><time>2026-03-29T08:09:47.419Z</time></trkpt><trkpt lat="43.3666267" lon="13.1642911"><ele>392.0</ele><time>2026-03-29T08:09:48.412Z</time></trkpt><trkpt lat="43.3665782" lon="13.1643623"><ele>392.0</ele><time>2026-03-29T08:09:49.4Z</time></trkpt><trkpt lat="43.3665342" lon="13.1644507"><ele>392.0</ele><time>2026-03-29T08:09:50.425Z</time></trkpt><trkpt lat="43.3664941" lon="13.1645403"><ele>392.0</ele><time>2026-03-29T08:09:51.431Z</time></trkpt><trkpt lat="43.3664548" lon="13.1646212"><ele>392.0</ele><time>2026-03-29T08:09:52.423Z</time></trkpt><trkpt lat="43.3664095" lon="13.1647827"><ele>393.49999999999994</ele><time>2026-03-29T08:09:54.422Z</time></trkpt><trkpt lat="43.3663849" lon="13.1648829"><ele>395.0</ele><time>2026-03-29T08:09:55.427Z</time></trkpt><trkpt lat="43.3663617" lon="13.1649968"><ele>396.5</ele><time>2026-03-29T08:09:56.419Z</time></trkpt><trkpt lat="43.3663401" lon="13.1651257"><ele>398.0</ele><time>2026-03-29T08:09:57.425Z</time></trkpt><trkpt lat="43.3663148" lon="13.1652384"><ele>399.49999999999994</ele><time>2026-03-29T08:09:58.404Z</time></trkpt><trkpt lat="43.3662783" lon="13.1653332"><ele>401.0</ele><time>2026-03-29T08:09:59.415Z</time></trkpt><trkpt lat="43.3662449" lon="13.1654368"><ele>400.99999999999994</ele><time>2026-03-29T08:10:00.423Z</time></trkpt><trkpt lat="43.3662146" lon="13.1655523"><ele>401.0</ele><time>2026-03-29T08:10:01.404Z</time></trkpt><trkpt lat="43.3661929" lon="13.1656724"><ele>401.0</ele><time>2026-03-29T08:10:02.418Z</time></trkpt><trkpt lat="43.3661825" lon="13.1657754"><ele>401.0</ele><time>2026-03-29T08:10:03.409Z</time></trkpt><trkpt lat="43.3661838" lon="13.1658674"><ele>400.99999999999994</ele><time>2026-03-29T08:10:04.404Z</time></trkpt><trkpt lat="43.3661771" lon="13.1659739"><ele>401.0</ele><time>2026-03-29T08:10:05.411Z</time></trkpt><trkpt lat="43.3661621" lon="13.1660897"><ele>402.66666666666663</ele><time>2026-03-29T08:10:06.41Z</time></trkpt><trkpt lat="43.3661485" lon="13.1662055"><ele>404.3333333333333</ele><time>2026-03-29T08:10:07.419Z</time></trkpt><trkpt lat="43.3661322" lon="13.166326"><ele>406.0</ele><time>2026-03-29T08:10:08.404Z</time></trkpt><trkpt lat="43.3661185" lon="13.166446"><ele>407.66666666666663</ele><time>2026-03-29T08:10:09.398Z</time></trkpt><trkpt lat="43.3661098" lon="13.1665654"><ele>409.3333333333333</ele><time>2026-03-29T08:10:10.417Z</time></trkpt><trkpt lat="43.3661068" lon="13.1666921"><ele>411.0</ele><time>2026-03-29T08:10:11.427Z</time></trkpt><trkpt lat="43.3661027" lon="13.166832"><ele>413.20000000000005</ele><time>2026-03-29T08:10:12.383Z</time></trkpt><trkpt lat="43.3661003" lon="13.1669789"><ele>415.40000000000003</ele><time>2026-03-29T08:10:13.4Z</time></trkpt><trkpt lat="43.3660991" lon="13.1671332"><ele>417.6</ele><time>2026-03-29T08:10:14.404Z</time></trkpt><trkpt lat="43.3660982" lon="13.1672882"><ele>419.8</ele><time>2026-03-29T08:10:15.41Z</time></trkpt><trkpt lat="43.3660943" lon="13.1674325"><ele>422.0</ele><time>2026-03-29T08:10:16.41Z</time></trkpt><trkpt lat="43.3660945" lon="13.1675687"><ele>424.0</ele><time>2026-03-29T08:10:17.394Z</time></trkpt><trkpt lat="43.3661183" lon="13.1676881"><ele>426.0</ele><time>2026-03-29T08:10:18.406Z</time></trkpt><trkpt lat="43.3661484" lon="13.1678053"><ele>428.00000000000006</ele><time>2026-03-29T08:10:19.399Z</time></trkpt><trkpt lat="43.3661804" lon="13.167923"><ele>430.0</ele><time>2026-03-29T08:10:20.405Z</time></trkpt><trkpt lat="43.3662025" lon="13.1680292"><ele>432.0</ele><time>2026-03-29T08:10:21.415Z</time></trkpt><trkpt lat="43.3662271" lon="13.16818"><ele>435.1666666666667</ele><time>2026-03-29T08:10:23.419Z</time></trkpt><trkpt lat="43.3662458" lon="13.1683174"><ele>438.33333333333337</ele><time>2026-03-29T08:10:25.412Z</time></trkpt><trkpt lat="43.3662595" lon="13.1684253"><ele>441.5</ele><time>2026-03-29T08:10:27.396Z</time></trkpt><trkpt lat="43.3661921" lon="13.1684554"><ele>444.6666666666667</ele><time>2026-03-29T08:10:31.402Z</time></trkpt><trkpt lat="43.3661125" lon="13.1683894"><ele>447.83333333333337</ele><time>2026-03-29T08:10:34.402Z</time></trkpt><trkpt lat="43.3660264" lon="13.1683213"><ele>451.0</ele><time>2026-03-29T08:10:36.393Z</time></trkpt><trkpt lat="43.3659641" lon="13.1682558"><ele>447.83333333333337</ele><time>2026-03-29T08:10:37.402Z</time></trkpt><trkpt lat="43.3658979" lon="13.1681893"><ele>444.6666666666667</ele><time>2026-03-29T08:10:38.408Z</time></trkpt><trkpt lat="43.3658476" lon="13.168115"><ele>441.5</ele><time>2026-03-29T08:10:39.39Z</time></trkpt><trkpt lat="43.3657981" lon="13.1680059"><ele>438.33333333333337</ele><time>2026-03-29T08:10:40.393Z</time></trkpt><trkpt lat="43.3657578" lon="13.1678892"><ele>435.1666666666667</ele><time>2026-03-29T08:10:41.387Z</time></trkpt><trkpt lat="43.365728" lon="13.1677696"><ele>432.0</ele><time>2026-03-29T08:10:42.406Z</time></trkpt><trkpt lat="43.3656915" lon="13.1676525"><ele>432.0</ele><time>2026-03-29T08:10:43.404Z</time></trkpt><trkpt lat="43.3656543" lon="13.167542"><ele>432.00000000000006</ele><time>2026-03-29T08:10:44.419Z</time></trkpt><trkpt lat="43.3656189" lon="13.1674538"><ele>432.00000000000006</ele><time>2026-03-29T08:10:45.419Z</time></trkpt><trkpt lat="43.3655497" lon="13.1673078"><ele>432.0</ele><time>2026-03-29T08:10:47.386Z</time></trkpt><trkpt lat="43.3655082" lon="13.1672173"><ele>432.0</ele><time>2026-03-29T08:10:49.406Z</time></trkpt><trkpt lat="43.3654698" lon="13.167114"><ele>431.6</ele><time>2026-03-29T08:11:37.412Z</time></trkpt><trkpt lat="43.3654562" lon="13.1670231"><ele>431.20000000000005</ele><time>2026-03-29T08:11:39.397Z</time></trkpt><trkpt lat="43.3654112" lon="13.1668724"><ele>430.8</ele><time>2026-03-29T08:11:41.399Z</time></trkpt><trkpt lat="43.3653793" lon="13.1667367"><ele>430.4</ele><time>2026-03-29T08:11:43.407Z</time></trkpt><trkpt lat="43.3653518" lon="13.1666253"><ele>430.0</ele><time>2026-03-29T08:11:45.392Z</time></trkpt><trkpt lat="43.3653185" lon="13.1665212"><ele>430.00000000000006</ele><time>2026-03-29T08:11:48.353Z</time></trkpt><trkpt lat="43.3652955" lon="13.1664342"><ele>430.0</ele><time>2026-03-29T08:11:54.389Z</time></trkpt><trkpt lat="43.3652546" lon="13.1663439"><ele>430.0</ele><time>2026-03-29T08:11:57.41Z</time></trkpt><trkpt lat="43.3651843" lon="13.1664032"><ele>430.0</ele><time>2026-03-29T08:12:01.399Z</time></trkpt><trkpt lat="43.365162" lon="13.1665241"><ele>430.00000000000006</ele><time>2026-03-29T08:12:04.387Z</time></trkpt><trkpt lat="43.3651152" lon="13.1666419"><ele>430.0</ele><time>2026-03-29T08:12:07.422Z</time></trkpt><trkpt lat="43.365063" lon="13.1667384"><ele>432.83333333333337</ele><time>2026-03-29T08:12:09.377Z</time></trkpt><trkpt lat="43.3650369" lon="13.1668499"><ele>435.6666666666667</ele><time>2026-03-29T08:12:12.409Z</time></trkpt><trkpt lat="43.3650201" lon="13.1669581"><ele>438.5</ele><time>2026-03-29T08:12:14.379Z</time></trkpt><trkpt lat="43.364973" lon="13.1670236"><ele>441.33333333333337</ele><time>2026-03-29T08:12:16.423Z</time></trkpt><trkpt lat="43.364948" lon="13.1671462"><ele>444.1666666666667</ele><time>2026-03-29T08:12:19.392Z</time></trkpt><trkpt lat="43.3649604" lon="13.1672459"><ele>447.0</ele><time>2026-03-29T08:12:21.427Z</time></trkpt><trkpt lat="43.3649476" lon="13.167369"><ele>449.3333333333333</ele><time>2026-03-29T08:12:23.41Z</time></trkpt><trkpt lat="43.3649455" lon="13.1674821"><ele>451.66666666666663</ele><time>2026-03-29T08:12:25.39Z</time></trkpt><trkpt lat="43.3649121" lon="13.167557"><ele>454.0</ele><time>2026-03-29T08:12:27.405Z</time></trkpt><trkpt lat="43.3648815" lon="13.1676577"><ele>456.3333333333333</ele><time>2026-03-29T08:12:29.432Z</time></trkpt><trkpt lat="43.3648049" lon="13.1676688"><ele>458.66666666666663</ele><time>2026-03-29T08:12:39.395Z</time></trkpt><trkpt lat="43.3647258" lon="13.167682"><ele>461.0</ele><time>2026-03-29T08:12:41.392Z</time></trkpt><trkpt lat="43.3646163" lon="13.1677064"><ele>461.0</ele><time>2026-03-29T08:12:43.427Z</time></trkpt><trkpt lat="43.3645256" lon="13.1677763"><ele>461.0</ele><time>2026-03-29T08:12:45.405Z</time></trkpt><trkpt lat="43.3644521" lon="13.1678757"><ele>461.0</ele><time>2026-03-29T08:12:47.416Z</time></trkpt><trkpt lat="43.3643902" lon="13.1679726"><ele>461.0</ele><time>2026-03-29T08:12:49.4Z</time></trkpt><trkpt lat="43.3643228" lon="13.1680387"><ele>461.0</ele><time>2026-03-29T08:12:51.427Z</time></trkpt><trkpt lat="43.3642559" lon="13.1680743"><ele>461.0</ele><time>2026-03-29T08:12:53.399Z</time></trkpt><trkpt lat="43.3641985" lon="13.1681593"><ele>461.00000000000006</ele><time>2026-03-29T08:12:55.413Z</time></trkpt><trkpt lat="43.3641716" lon="13.16826"><ele>461.0</ele><time>2026-03-29T08:12:57.399Z</time></trkpt><trkpt lat="43.3641493" lon="13.1683422"><ele>461.0</ele><time>2026-03-29T08:12:59.4Z</time></trkpt><trkpt lat="43.3641154" lon="13.1684155"><ele>461.00000000000006</ele><time>2026-03-29T08:13:02.407Z</time></trkpt><trkpt lat="43.364065" lon="13.1684803"><ele>461.0</ele><time>2026-03-29T08:13:13.402Z</time></trkpt><trkpt lat="43.3639981" lon="13.1685434"><ele>461.0</ele><time>2026-03-29T08:13:16.383Z</time></trkpt><trkpt lat="43.3639423" lon="13.1686201"><ele>462.20000000000005</ele><time>2026-03-29T08:13:18.4Z</time></trkpt><trkpt lat="43.3638627" lon="13.1687475"><ele>463.40000000000003</ele><time>2026-03-29T08:13:20.375Z</time></trkpt><trkpt lat="43.3637991" lon="13.1688459"><ele>464.6</ele><time>2026-03-29T08:13:22.347Z</time></trkpt><trkpt lat="43.3637789" lon="13.1689723"><ele>465.8</ele><time>2026-03-29T08:13:24.379Z</time></trkpt><trkpt lat="43.3637814" lon="13.1691363"><ele>467.0</ele><time>2026-03-29T08:13:26.349Z</time></trkpt><trkpt lat="43.3638542" lon="13.1691808"><ele>471.8333333333333</ele><time>2026-03-29T08:13:28.347Z</time></trkpt><trkpt lat="43.3639408" lon="13.1692273"><ele>476.66666666666663</ele><time>2026-03-29T08:13:30.347Z</time></trkpt><trkpt lat="43.3639797" lon="13.1693185"><ele>481.5</ele><time>2026-03-29T08:13:32.353Z</time></trkpt><trkpt lat="43.3640426" lon="13.1693486"><ele>486.33333333333337</ele><time>2026-03-29T08:13:34.348Z</time></trkpt><trkpt lat="43.3640992" lon="13.1693882"><ele>491.1666666666667</ele><time>2026-03-29T08:13:36.351Z</time></trkpt><trkpt lat="43.364167" lon="13.1694349"><ele>496.0</ele><time>2026-03-29T08:13:38.352Z</time></trkpt><trkpt lat="43.36426" lon="13.1694487"><ele>496.00000000000006</ele><time>2026-03-29T08:13:40.375Z</time></trkpt><trkpt lat="43.3643383" lon="13.1695056"><ele>496.0</ele><time>2026-03-29T08:13:43.381Z</time></trkpt><trkpt lat="43.364423" lon="13.169577"><ele>496.0</ele><time>2026-03-29T08:13:45.361Z</time></trkpt><trkpt lat="43.3645106" lon="13.1696232"><ele>496.0</ele><time>2026-03-29T08:13:47.37Z</time></trkpt><trkpt lat="43.3645671" lon="13.1696629"><ele>496.00000000000006</ele><time>2026-03-29T08:13:49.385Z</time></trkpt><trkpt lat="43.3646366" lon="13.1697291"><ele>496.0</ele><time>2026-03-29T08:13:51.377Z</time></trkpt><trkpt lat="43.3647142" lon="13.169765"><ele>498.20000000000005</ele><time>2026-03-29T08:13:53.379Z</time></trkpt><trkpt lat="43.3648127" lon="13.169751"><ele>500.40000000000003</ele><time>2026-03-29T08:13:55.389Z</time></trkpt><trkpt lat="43.3649071" lon="13.1697586"><ele>502.6</ele><time>2026-03-29T08:13:57.382Z</time></trkpt><trkpt lat="43.3649864" lon="13.1697986"><ele>504.8</ele><time>2026-03-29T08:13:59.379Z</time></trkpt><trkpt lat="43.3650658" lon="13.1698791"><ele>507.0</ele><time>2026-03-29T08:14:01.38Z</time></trkpt><trkpt lat="43.3651435" lon="13.1699498"><ele>511.0</ele><time>2026-03-29T08:14:03.36Z</time></trkpt><trkpt lat="43.3652298" lon="13.170067"><ele>515.0</ele><time>2026-03-29T08:14:05.37Z</time></trkpt><trkpt lat="43.3652865" lon="13.1701965"><ele>519.0</ele><time>2026-03-29T08:14:07.384Z</time></trkpt><trkpt lat="43.3653071" lon="13.1703178"><ele>523.0</ele><time>2026-03-29T08:14:09.371Z</time></trkpt><trkpt lat="43.3653484" lon="13.1704547"><ele>527.0</ele><time>2026-03-29T08:14:11.399Z</time></trkpt><trkpt lat="43.3653981" lon="13.170572"><ele>529.2</ele><time>2026-03-29T08:14:13.377Z</time></trkpt><trkpt lat="43.3654265" lon="13.1707153"><ele>531.4000000000001</ele><time>2026-03-29T08:14:15.387Z</time></trkpt><trkpt lat="43.3654584" lon="13.1707917"><ele>533.5999999999999</ele><time>2026-03-29T08:14:16.39Z</time></trkpt><trkpt lat="43.365497" lon="13.1708605"><ele>535.8</ele><time>2026-03-29T08:14:17.38Z</time></trkpt><trkpt lat="43.365564" lon="13.1709735"><ele>538.0</ele><time>2026-03-29T08:14:19.392Z</time></trkpt><trkpt lat="43.3656459" lon="13.1710938"><ele>538.8333333333334</ele><time>2026-03-29T08:14:21.408Z</time></trkpt><trkpt lat="43.3657392" lon="13.1712066"><ele>539.6666666666667</ele><time>2026-03-29T08:14:23.408Z</time></trkpt><trkpt lat="43.3657974" lon="13.1712712"><ele>540.5</ele><time>2026-03-29T08:14:24.402Z</time></trkpt><trkpt lat="43.3658628" lon="13.1713362"><ele>541.3333333333334</ele><time>2026-03-29T08:14:25.405Z</time></trkpt><trkpt lat="43.3659381" lon="13.1713878"><ele>542.1666666666666</ele><time>2026-03-29T08:14:26.359Z</time></trkpt><trkpt lat="43.3660156" lon="13.1714345"><ele>543.0</ele><time>2026-03-29T08:14:27.391Z</time></trkpt><trkpt lat="43.3660842" lon="13.1714655"><ele>543.0</ele><time>2026-03-29T08:14:28.399Z</time></trkpt><trkpt lat="43.3661432" lon="13.1714975"><ele>543.0</ele><time>2026-03-29T08:14:29.408Z</time></trkpt><trkpt lat="43.366239" lon="13.1715983"><ele>543.0</ele><time>2026-03-29T08:14:31.417Z</time></trkpt><trkpt lat="43.3663194" lon="13.1717146"><ele>543.0</ele><time>2026-03-29T08:14:33.361Z</time></trkpt><trkpt lat="43.3663635" lon="13.171777"><ele>543.0</ele><time>2026-03-29T08:14:34.367Z</time></trkpt><trkpt lat="43.3664136" lon="13.1718494"><ele>543.0</ele><time>2026-03-29T08:14:35.403Z</time></trkpt><trkpt lat="43.3664672" lon="13.1719067"><ele>544.1999999999999</ele><time>2026-03-29T08:14:36.406Z</time></trkpt><trkpt lat="43.3665609" lon="13.1720421"><ele>545.4</ele><time>2026-03-29T08:14:38.358Z</time></trkpt><trkpt lat="43.3666008" lon="13.1721172"><ele>546.5999999999999</ele><time>2026-03-29T08:14:39.382Z</time></trkpt><trkpt lat="43.3666764" lon="13.1722398"><ele>547.8</ele><time>2026-03-29T08:14:41.397Z</time></trkpt><trkpt lat="43.3667529" lon="13.1723531"><ele>549.0</ele><time>2026-03-29T08:14:43.39Z</time></trkpt><trkpt lat="43.3667935" lon="13.172421"><ele>554.0</ele><time>2026-03-29T08:14:44.394Z</time></trkpt><trkpt lat="43.3668283" lon="13.1724985"><ele>559.0</ele><time>2026-03-29T08:14:45.401Z</time></trkpt><trkpt lat="43.3668689" lon="13.1725928"><ele>564.0</ele><time>2026-03-29T08:14:46.416Z</time></trkpt><trkpt lat="43.3669051" lon="13.172676"><ele>569.0</ele><time>2026-03-29T08:14:47.395Z</time></trkpt><trkpt lat="43.3669419" lon="13.1727555"><ele>574.0</ele><time>2026-03-29T08:14:48.414Z</time></trkpt><trkpt lat="43.3670126" lon="13.172871"><ele>579.0</ele><time>2026-03-29T08:14:50.415Z</time></trkpt><trkpt lat="43.3670753" lon="13.1729248"><ele>579.0</ele><time>2026-03-29T08:14:52.414Z</time></trkpt><trkpt lat="43.3671615" lon="13.17298"><ele>579.0</ele><time>2026-03-29T08:14:54.409Z</time></trkpt><trkpt lat="43.3672222" lon="13.173074"><ele>579.0</ele><time>2026-03-29T08:14:56.386Z</time></trkpt><trkpt lat="43.3672965" lon="13.173169"><ele>579.0</ele><time>2026-03-29T08:14:58.397Z</time></trkpt><trkpt lat="43.3673549" lon="13.1732254"><ele>579.0</ele><time>2026-03-29T08:15:00.402Z</time></trkpt><trkpt lat="43.3674188" lon="13.1732807"><ele>579.0</ele><time>2026-03-29T08:15:54.406Z</time></trkpt><trkpt lat="43.367486" lon="13.1732776"><ele>580.3333333333334</ele><time>2026-03-29T08:15:56.419Z</time></trkpt><trkpt lat="43.3675397" lon="13.1732178"><ele>581.6666666666666</ele><time>2026-03-29T08:15:58.412Z</time></trkpt><trkpt lat="43.367627" lon="13.17319"><ele>583.0</ele><time>2026-03-29T08:16:01.401Z</time></trkpt><trkpt lat="43.3676649" lon="13.1733058"><ele>584.3333333333333</ele><time>2026-03-29T08:18:16.409Z</time></trkpt><trkpt lat="43.3677034" lon="13.1733801"><ele>585.6666666666666</ele><time>2026-03-29T08:18:18.393Z</time></trkpt><trkpt lat="43.3677408" lon="13.173473"><ele>587.0</ele><time>2026-03-29T08:18:21.385Z</time></trkpt><trkpt lat="43.3678152" lon="13.1734598"><ele>587.0</ele><time>2026-03-29T08:18:24.395Z</time></trkpt><trkpt lat="43.3678749" lon="13.1735193"><ele>587.0</ele><time>2026-03-29T08:18:26.396Z</time></trkpt><trkpt lat="43.3678083" lon="13.1735544"><ele>587.0</ele><time>2026-03-29T08:19:14.425Z</time></trkpt><trkpt lat="43.3677432" lon="13.1735608"><ele>587.0</ele><time>2026-03-29T08:19:17.394Z</time></trkpt><trkpt lat="43.3676978" lon="13.173472"><ele>587.0</ele><time>2026-03-29T08:19:21.391Z</time></trkpt><trkpt lat="43.3676785" lon="13.1733888"><ele>587.0</ele><time>2026-03-29T08:19:23.41Z</time></trkpt><trkpt lat="43.3676247" lon="13.1733153"><ele>587.0</ele><time>2026-03-29T08:19:26.387Z</time></trkpt><trkpt lat="43.3676198" lon="13.1732236"><ele>587.0</ele><time>2026-03-29T08:19:30.405Z</time></trkpt><trkpt lat="43.3675699" lon="13.1731703"><ele>587.0</ele><time>2026-03-29T08:19:34.361Z</time></trkpt><trkpt lat="43.3676451" lon="13.1731826"><ele>587.0</ele><time>2026-03-29T08:20:00.408Z</time></trkpt><trkpt lat="43.3677084" lon="13.1731819"><ele>587.0</ele><time>2026-03-29T08:20:10.413Z</time></trkpt><trkpt lat="43.3677813" lon="13.1731766"><ele>587.0</ele><time>2026-03-29T08:20:22.386Z</time></trkpt><trkpt lat="43.367843" lon="13.1732092"><ele>587.0</ele><time>2026-03-29T08:20:26.41Z</time></trkpt><trkpt lat="43.3678878" lon="13.1732706"><ele>587.0</ele><time>2026-03-29T08:21:53.402Z</time></trkpt><trkpt lat="43.3679055" lon="13.173381"><ele>587.0</ele><time>2026-03-29T08:21:58.414Z</time></trkpt><trkpt lat="43.3679331" lon="13.1734632"><ele>587.0</ele><time>2026-03-29T08:22:17.401Z</time></trkpt><trkpt lat="43.3679621" lon="13.173548"><ele>587.0</ele><time>2026-03-29T08:22:19.428Z</time></trkpt><trkpt lat="43.3680056" lon="13.1736442"><ele>587.0</ele><time>2026-03-29T08:22:21.427Z</time></trkpt><trkpt lat="43.3680473" lon="13.1737629"><ele>587.0</ele><time>2026-03-29T08:22:23.429Z</time></trkpt><trkpt lat="43.3680992" lon="13.1738688"><ele>587.0</ele><time>2026-03-29T08:22:25.395Z</time></trkpt><trkpt lat="43.3681573" lon="13.1739203"><ele>589.8000000000001</ele><time>2026-03-29T08:22:27.413Z</time></trkpt><trkpt lat="43.3682166" lon="13.1739964"><ele>592.6</ele><time>2026-03-29T08:22:40.409Z</time></trkpt><trkpt lat="43.3682685" lon="13.1740561"><ele>595.4000000000001</ele><time>2026-03-29T08:24:45.404Z</time></trkpt><trkpt lat="43.3683152" lon="13.1741608"><ele>598.2</ele><time>2026-03-29T08:25:01.4Z</time></trkpt><trkpt lat="43.3682993" lon="13.1743169"><ele>601.0</ele><time>2026-03-29T08:25:03.393Z</time></trkpt><trkpt lat="43.3683165" lon="13.1744844"><ele>601.6666666666667</ele><time>2026-03-29T08:25:05.408Z</time></trkpt><trkpt lat="43.3683445" lon="13.1746115"><ele>602.3333333333334</ele><time>2026-03-29T08:25:07.427Z</time></trkpt><trkpt lat="43.3682758" lon="13.1746484"><ele>603.0</ele><time>2026-03-29T08:25:11.417Z</time></trkpt><trkpt lat="43.3681516" lon="13.1746633"><ele>603.6666666666666</ele><time>2026-03-29T08:25:13.397Z</time></trkpt><trkpt lat="43.3680802" lon="13.1746639"><ele>604.3333333333333</ele><time>2026-03-29T08:25:14.424Z</time></trkpt><trkpt lat="43.3680155" lon="13.1746725"><ele>605.0</ele><time>2026-03-29T08:25:15.429Z</time></trkpt><trkpt lat="43.3679162" lon="13.1746836"><ele>605.0</ele><time>2026-03-29T08:25:17.405Z</time></trkpt><trkpt lat="43.3678006" lon="13.1745843"><ele>605.0</ele><time>2026-03-29T08:25:19.429Z</time></trkpt><trkpt lat="43.3676892" lon="13.1745601"><ele>605.0</ele><time>2026-03-29T08:25:21.404Z</time></trkpt><trkpt lat="43.3676199" lon="13.1745826"><ele>605.0</ele><time>2026-03-29T08:25:23.428Z</time></trkpt><trkpt lat="43.3675218" lon="13.174584"><ele>605.0</ele><time>2026-03-29T08:25:25.398Z</time></trkpt><trkpt lat="43.367459" lon="13.1745939"><ele>605.0</ele><time>2026-03-29T08:25:26.439Z</time></trkpt><trkpt lat="43.3673357" lon="13.174626"><ele>605.0</ele><time>2026-03-29T08:25:28.409Z</time></trkpt><trkpt lat="43.3672714" lon="13.1746377"><ele>605.0</ele><time>2026-03-29T08:25:29.418Z</time></trkpt><trkpt lat="43.3672051" lon="13.1746321"><ele>605.0</ele><time>2026-03-29T08:25:30.427Z</time></trkpt><trkpt lat="43.3670854" lon="13.17458"><ele>605.0</ele><time>2026-03-29T08:25:32.413Z</time></trkpt><trkpt lat="43.36697" lon="13.1745422"><ele>607.1666666666666</ele><time>2026-03-29T08:25:34.375Z</time></trkpt><trkpt lat="43.366856" lon="13.1744616"><ele>609.3333333333333</ele><time>2026-03-29T08:25:36.398Z</time></trkpt><trkpt lat="43.3667853" lon="13.1744115"><ele>611.5</ele><time>2026-03-29T08:25:37.407Z</time></trkpt><trkpt lat="43.3667168" lon="13.1743617"><ele>613.6666666666666</ele><time>2026-03-29T08:25:38.421Z</time></trkpt><trkpt lat="43.366658" lon="13.1743093"><ele>615.8333333333334</ele><time>2026-03-29T08:25:39.427Z</time></trkpt><trkpt lat="43.3666053" lon="13.174238"><ele>618.0</ele><time>2026-03-29T08:25:40.424Z</time></trkpt><trkpt lat="43.3665622" lon="13.174157"><ele>618.0</ele><time>2026-03-29T08:25:41.423Z</time></trkpt><trkpt lat="43.3665189" lon="13.1740724"><ele>618.0</ele><time>2026-03-29T08:25:42.425Z</time></trkpt><trkpt lat="43.3664707" lon="13.1739987"><ele>618.0</ele><time>2026-03-29T08:25:43.427Z</time></trkpt><trkpt lat="43.3663737" lon="13.1738997"><ele>618.0</ele><time>2026-03-29T08:25:45.393Z</time></trkpt><trkpt lat="43.3663054" lon="13.1739551"><ele>618.0</ele><time>2026-03-29T08:25:47.381Z</time></trkpt><trkpt lat="43.3662991" lon="13.174077"><ele>618.0</ele><time>2026-03-29T08:25:49.423Z</time></trkpt><trkpt lat="43.3662718" lon="13.1741806"><ele>613.5</ele><time>2026-03-29T08:25:50.434Z</time></trkpt><trkpt lat="43.3662439" lon="13.1743011"><ele>609.0</ele><time>2026-03-29T08:25:51.411Z</time></trkpt><trkpt lat="43.366244" lon="13.1744045"><ele>604.5</ele><time>2026-03-29T08:25:52.431Z</time></trkpt><trkpt lat="43.366232" lon="13.1744984"><ele>600.0</ele><time>2026-03-29T08:25:53.401Z</time></trkpt><trkpt lat="43.3661986" lon="13.1746697"><ele>595.5</ele><time>2026-03-29T08:25:55.421Z</time></trkpt><trkpt lat="43.3661709" lon="13.1747679"><ele>591.0</ele><time>2026-03-29T08:25:56.398Z</time></trkpt><trkpt lat="43.3661462" lon="13.1748632"><ele>591.0</ele><time>2026-03-29T08:25:57.417Z</time></trkpt><trkpt lat="43.3661305" lon="13.1749526"><ele>591.0</ele><time>2026-03-29T08:25:58.42Z</time></trkpt><trkpt lat="43.3661201" lon="13.1750416"><ele>591.0</ele><time>2026-03-29T08:25:59.43Z</time></trkpt><trkpt lat="43.3661156" lon="13.1752135"><ele>591.0</ele><time>2026-03-29T08:26:01.43Z</time></trkpt><trkpt lat="43.3661296" lon="13.175326"><ele>591.0</ele><time>2026-03-29T08:26:02.378Z</time></trkpt><trkpt lat="43.3661544" lon="13.1754579"><ele>591.0</ele><time>2026-03-29T08:26:03.41Z</time></trkpt><trkpt lat="43.3661754" lon="13.1755988"><ele>592.0</ele><time>2026-03-29T08:26:04.424Z</time></trkpt><trkpt lat="43.3661996" lon="13.1757348"><ele>593.0</ele><time>2026-03-29T08:26:05.394Z</time></trkpt><trkpt lat="43.3662198" lon="13.1758542"><ele>594.0</ele><time>2026-03-29T08:26:06.411Z</time></trkpt><trkpt lat="43.3662314" lon="13.1759712"><ele>595.0</ele><time>2026-03-29T08:26:07.407Z</time></trkpt><trkpt lat="43.3662339" lon="13.1760772"><ele>596.0</ele><time>2026-03-29T08:26:08.43Z</time></trkpt><trkpt lat="43.3662309" lon="13.1761637"><ele>597.0</ele><time>2026-03-29T08:26:09.411Z</time></trkpt><trkpt lat="43.3662111" lon="13.1762934"><ele>597.0</ele><time>2026-03-29T08:26:11.428Z</time></trkpt><trkpt lat="43.366174" lon="13.1764079"><ele>597.0</ele><time>2026-03-29T08:26:13.391Z</time></trkpt><trkpt lat="43.3661661" lon="13.1765485"><ele>597.0</ele><time>2026-03-29T08:26:15.418Z</time></trkpt><trkpt lat="43.366118" lon="13.1766688"><ele>597.0</ele><time>2026-03-29T08:26:17.38Z</time></trkpt><trkpt lat="43.3660152" lon="13.1767426"><ele>597.0</ele><time>2026-03-29T08:26:19.366Z</time></trkpt><trkpt lat="43.3659391" lon="13.1767487"><ele>596.6666666666666</ele><time>2026-03-29T08:26:20.405Z</time></trkpt><trkpt lat="43.365852" lon="13.1767537"><ele>596.3333333333334</ele><time>2026-03-29T08:26:21.422Z</time></trkpt><trkpt lat="43.3657486" lon="13.1767445"><ele>596.0</ele><time>2026-03-29T08:26:22.433Z</time></trkpt><trkpt lat="43.3656665" lon="13.176736"><ele>595.6666666666667</ele><time>2026-03-29T08:26:23.409Z</time></trkpt><trkpt lat="43.3655866" lon="13.1767198"><ele>595.3333333333334</ele><time>2026-03-29T08:26:24.419Z</time></trkpt><trkpt lat="43.3655073" lon="13.1766897"><ele>595.0</ele><time>2026-03-29T08:26:25.404Z</time></trkpt><trkpt lat="43.3654117" lon="13.1766794"><ele>595.0</ele><time>2026-03-29T08:26:26.396Z</time></trkpt><trkpt lat="43.365301" lon="13.1766727"><ele>595.0</ele><time>2026-03-29T08:26:27.43Z</time></trkpt><trkpt lat="43.3651933" lon="13.17667"><ele>595.0</ele><time>2026-03-29T08:26:28.391Z</time></trkpt><trkpt lat="43.3651057" lon="13.1766884"><ele>595.0</ele><time>2026-03-29T08:26:29.416Z</time></trkpt><trkpt lat="43.3650224" lon="13.1767259"><ele>595.0</ele><time>2026-03-29T08:26:30.396Z</time></trkpt><trkpt lat="43.3649539" lon="13.1767596"><ele>595.0</ele><time>2026-03-29T08:26:31.434Z</time></trkpt><trkpt lat="43.3648876" lon="13.1767771"><ele>595.0</ele><time>2026-03-29T08:26:32.4Z</time></trkpt><trkpt lat="43.3647803" lon="13.176721"><ele>595.0</ele><time>2026-03-29T08:26:34.363Z</time></trkpt><trkpt lat="43.3646777" lon="13.1767234"><ele>595.0</ele><time>2026-03-29T08:26:36.407Z</time></trkpt><trkpt lat="43.3645557" lon="13.1767529"><ele>595.0</ele><time>2026-03-29T08:26:38.416Z</time></trkpt><trkpt lat="43.3644555" lon="13.1768381"><ele>593.0</ele><time>2026-03-29T08:26:40.413Z</time></trkpt><trkpt lat="43.3643701" lon="13.1769233"><ele>591.0</ele><time>2026-03-29T08:26:42.42Z</time></trkpt><trkpt lat="43.3642866" lon="13.1770144"><ele>589.0</ele><time>2026-03-29T08:26:44.389Z</time></trkpt><trkpt lat="43.3641985" lon="13.1770864"><ele>587.0</ele><time>2026-03-29T08:26:46.407Z</time></trkpt><trkpt lat="43.3641343" lon="13.1771495"><ele>585.0</ele><time>2026-03-29T08:26:49.39Z</time></trkpt><trkpt lat="43.3640611" lon="13.1772098"><ele>585.0</ele><time>2026-03-29T08:26:52.39Z</time></trkpt><trkpt lat="43.3640038" lon="13.1772773"><ele>585.0</ele><time>2026-03-29T08:26:55.404Z</time></trkpt><trkpt lat="43.3639494" lon="13.1773508"><ele>585.0</ele><time>2026-03-29T08:26:58.417Z</time></trkpt><trkpt lat="43.3639281" lon="13.1774341"><ele>585.0</ele><time>2026-03-29T08:27:00.396Z</time></trkpt><trkpt lat="43.3639038" lon="13.1775233"><ele>585.0</ele><time>2026-03-29T08:27:03.418Z</time></trkpt><trkpt lat="43.3638583" lon="13.1776036"><ele>585.0</ele><time>2026-03-29T08:27:06.409Z</time></trkpt><trkpt lat="43.3637958" lon="13.1776294"><ele>585.0</ele><time>2026-03-29T08:27:31.363Z</time></trkpt><trkpt lat="43.3637181" lon="13.1777171"><ele>588.2</ele><time>2026-03-29T08:27:50.418Z</time></trkpt><trkpt lat="43.3636306" lon="13.1778771"><ele>591.4</ele><time>2026-03-29T08:27:52.407Z</time></trkpt><trkpt lat="43.363587" lon="13.1779999"><ele>594.6</ele><time>2026-03-29T08:27:53.414Z</time></trkpt><trkpt lat="43.3635529" lon="13.1781262"><ele>597.8</ele><time>2026-03-29T08:27:54.419Z</time></trkpt><trkpt lat="43.3635294" lon="13.1782688"><ele>601.0</ele><time>2026-03-29T08:27:55.413Z</time></trkpt><trkpt lat="43.3635206" lon="13.1784177"><ele>603.6</ele><time>2026-03-29T08:27:56.403Z</time></trkpt><trkpt lat="43.3635327" lon="13.1785702"><ele>606.2</ele><time>2026-03-29T08:27:57.417Z</time></trkpt><trkpt lat="43.3635368" lon="13.1787236"><ele>608.8</ele><time>2026-03-29T08:27:58.409Z</time></trkpt><trkpt lat="43.3635391" lon="13.1788648"><ele>611.4</ele><time>2026-03-29T08:27:59.43Z</time></trkpt><trkpt lat="43.363542" lon="13.1789988"><ele>614.0</ele><time>2026-03-29T08:28:00.431Z</time></trkpt><trkpt lat="43.363543" lon="13.1791495"><ele>617.5</ele><time>2026-03-29T08:28:01.391Z</time></trkpt><trkpt lat="43.3635445" lon="13.1793145"><ele>621.0</ele><time>2026-03-29T08:28:02.411Z</time></trkpt><trkpt lat="43.3635472" lon="13.1794846"><ele>624.5</ele><time>2026-03-29T08:28:03.409Z</time></trkpt><trkpt lat="43.3635498" lon="13.1796557"><ele>628.0</ele><time>2026-03-29T08:28:04.393Z</time></trkpt><trkpt lat="43.3635557" lon="13.1798323"><ele>631.0</ele><time>2026-03-29T08:28:05.414Z</time></trkpt><trkpt lat="43.3635601" lon="13.1800138"><ele>634.0</ele><time>2026-03-29T08:28:06.413Z</time></trkpt><trkpt lat="43.3635701" lon="13.1801922"><ele>637.0</ele><time>2026-03-29T08:28:07.411Z</time></trkpt><trkpt lat="43.3635785" lon="13.1803774"><ele>640.0</ele><time>2026-03-29T08:28:08.422Z</time></trkpt><trkpt lat="43.3635876" lon="13.1805691"><ele>643.75</ele><time>2026-03-29T08:28:09.398Z</time></trkpt><trkpt lat="43.3635974" lon="13.1807613"><ele>647.5</ele><time>2026-03-29T08:28:10.384Z</time></trkpt><trkpt lat="43.3636104" lon="13.180957"><ele>651.25</ele><time>2026-03-29T08:28:11.399Z</time></trkpt><trkpt lat="43.3636302" lon="13.1811539"><ele>655.0</ele><time>2026-03-29T08:28:12.398Z</time></trkpt><trkpt lat="43.3636606" lon="13.1813436"><ele>655.0</ele><time>2026-03-29T08:28:13.43Z</time></trkpt><trkpt lat="43.363701" lon="13.1815138"><ele>655.0</ele><time>2026-03-29T08:28:14.426Z</time></trkpt><trkpt lat="43.363743" lon="13.1816729"><ele>655.0</ele><time>2026-03-29T08:28:15.42Z</time></trkpt><trkpt lat="43.3637761" lon="13.1818127"><ele>655.0</ele><time>2026-03-29T08:28:16.404Z</time></trkpt><trkpt lat="43.3638035" lon="13.181933"><ele>657.3333333333334</ele><time>2026-03-29T08:28:17.394Z</time></trkpt><trkpt lat="43.3638279" lon="13.1820369"><ele>659.6666666666667</ele><time>2026-03-29T08:28:18.419Z</time></trkpt><trkpt lat="43.3638503" lon="13.1821609"><ele>662.0</ele><time>2026-03-29T08:28:20.414Z</time></trkpt><trkpt lat="43.3638813" lon="13.182277"><ele>664.3333333333334</ele><time>2026-03-29T08:28:23.414Z</time></trkpt><trkpt lat="43.3639177" lon="13.1823792"><ele>666.6666666666666</ele><time>2026-03-29T08:28:26.419Z</time></trkpt><trkpt lat="43.3639389" lon="13.1824674"><ele>669.0</ele><time>2026-03-29T08:28:29.416Z</time></trkpt><trkpt lat="43.3639748" lon="13.182549"><ele>669.0</ele><time>2026-03-29T08:28:35.356Z</time></trkpt><trkpt lat="43.3639954" lon="13.1826365"><ele>669.0</ele><time>2026-03-29T08:28:37.414Z</time></trkpt><trkpt lat="43.3639396" lon="13.1825794"><ele>669.0</ele><time>2026-03-29T08:28:41.406Z</time></trkpt><trkpt lat="43.363866" lon="13.1824597"><ele>669.0</ele><time>2026-03-29T08:28:43.416Z</time></trkpt><trkpt lat="43.3638153" lon="13.1823959"><ele>669.0</ele><time>2026-03-29T08:28:44.414Z</time></trkpt><trkpt lat="43.3637626" lon="13.1823434"><ele>669.0</ele><time>2026-03-29T08:28:45.402Z</time></trkpt><trkpt lat="43.3637044" lon="13.1822834"><ele>669.0</ele><time>2026-03-29T08:28:46.419Z</time></trkpt><trkpt lat="43.3636462" lon="13.1822213"><ele>669.0</ele><time>2026-03-29T08:28:47.409Z</time></trkpt><trkpt lat="43.3635848" lon="13.1821583"><ele>669.0</ele><time>2026-03-29T08:28:48.425Z</time></trkpt><trkpt lat="43.3635243" lon="13.1820939"><ele>669.0</ele><time>2026-03-29T08:28:49.392Z</time></trkpt><trkpt lat="43.3634592" lon="13.1820301"><ele>669.0</ele><time>2026-03-29T08:28:50.419Z</time></trkpt><trkpt lat="43.3633946" lon="13.1819663"><ele>669.0</ele><time>2026-03-29T08:28:51.41Z</time></trkpt><trkpt lat="43.3633307" lon="13.1818998"><ele>669.0</ele><time>2026-03-29T08:28:52.408Z</time></trkpt><trkpt lat="43.3632625" lon="13.1818255"><ele>669.0</ele><time>2026-03-29T08:28:53.42Z</time></trkpt><trkpt lat="43.3632006" lon="13.1817465"><ele>669.0</ele><time>2026-03-29T08:28:54.378Z</time></trkpt><trkpt lat="43.3631433" lon="13.1816668"><ele>669.0</ele><time>2026-03-29T08:28:55.4Z</time></trkpt><trkpt lat="43.3630858" lon="13.1815907"><ele>669.0</ele><time>2026-03-29T08:28:56.403Z</time></trkpt><trkpt lat="43.3630302" lon="13.1815123"><ele>669.0</ele><time>2026-03-29T08:28:57.402Z</time></trkpt><trkpt lat="43.3629631" lon="13.1814234"><ele>671.4000000000001</ele><time>2026-03-29T08:28:58.404Z</time></trkpt><trkpt lat="43.3628957" lon="13.1813302"><ele>673.8</ele><time>2026-03-29T08:28:59.407Z</time></trkpt><trkpt lat="43.3628331" lon="13.1812334"><ele>676.2</ele><time>2026-03-29T08:29:00.413Z</time></trkpt><trkpt lat="43.3627693" lon="13.1811359"><ele>678.5999999999999</ele><time>2026-03-29T08:29:01.423Z</time></trkpt><trkpt lat="43.3627097" lon="13.1810555"><ele>681.0</ele><time>2026-03-29T08:29:02.409Z</time></trkpt><trkpt lat="43.3626365" lon="13.1809682"><ele>681.0</ele><time>2026-03-29T08:29:04.419Z</time></trkpt><trkpt lat="43.3625565" lon="13.1809604"><ele>681.0</ele><time>2026-03-29T08:29:18.384Z</time></trkpt><trkpt lat="43.3624917" lon="13.1809296"><ele>681.0</ele><time>2026-03-29T08:29:23.436Z</time></trkpt><trkpt lat="43.3624655" lon="13.1808296"><ele>681.0</ele><time>2026-03-29T08:29:25.417Z</time></trkpt><trkpt lat="43.3624948" lon="13.1806989"><ele>681.0</ele><time>2026-03-29T08:29:27.413Z</time></trkpt><trkpt lat="43.3624867" lon="13.1805357"><ele>681.0</ele><time>2026-03-29T08:29:29.404Z</time></trkpt><trkpt lat="43.3624691" lon="13.1803974"><ele>679.8</ele><time>2026-03-29T08:29:31.429Z</time></trkpt><trkpt lat="43.3624672" lon="13.1802733"><ele>678.5999999999999</ele><time>2026-03-29T08:29:33.416Z</time></trkpt><trkpt lat="43.3624708" lon="13.1801406"><ele>677.4</ele><time>2026-03-29T08:29:35.366Z</time></trkpt><trkpt lat="43.3624753" lon="13.1799939"><ele>676.2</ele><time>2026-03-29T08:29:37.413Z</time></trkpt><trkpt lat="43.362497" lon="13.1798415"><ele>675.0</ele><time>2026-03-29T08:29:39.404Z</time></trkpt><trkpt lat="43.3624926" lon="13.1796841"><ele>673.3333333333334</ele><time>2026-03-29T08:29:41.418Z</time></trkpt><trkpt lat="43.362471" lon="13.1795714"><ele>671.6666666666666</ele><time>2026-03-29T08:29:43.437Z</time></trkpt><trkpt lat="43.3624834" lon="13.1794672"><ele>670.0</ele><time>2026-03-29T08:29:45.411Z</time></trkpt><trkpt lat="43.3624772" lon="13.1793336"><ele>668.3333333333333</ele><time>2026-03-29T08:29:47.441Z</time></trkpt><trkpt lat="43.3624473" lon="13.1792388"><ele>666.6666666666666</ele><time>2026-03-29T08:29:49.36Z</time></trkpt><trkpt lat="43.3624429" lon="13.1791416"><ele>665.0</ele><time>2026-03-29T08:29:51.369Z</time></trkpt><trkpt lat="43.362424" lon="13.1790456"><ele>662.8333333333333</ele><time>2026-03-29T08:29:53.355Z</time></trkpt><trkpt lat="43.3624047" lon="13.178932"><ele>660.6666666666666</ele><time>2026-03-29T08:29:55.352Z</time></trkpt><trkpt lat="43.3624035" lon="13.1788389"><ele>658.5</ele><time>2026-03-29T08:29:57.354Z</time></trkpt><trkpt lat="43.3623953" lon="13.178712"><ele>656.3333333333334</ele><time>2026-03-29T08:29:59.352Z</time></trkpt><trkpt lat="43.3623497" lon="13.1786341"><ele>654.1666666666667</ele><time>2026-03-29T08:30:01.356Z</time></trkpt><trkpt lat="43.3623069" lon="13.1785463"><ele>652.0</ele><time>2026-03-29T08:30:03.357Z</time></trkpt><trkpt lat="43.3622467" lon="13.1784742"><ele>652.0</ele><time>2026-03-29T08:30:06.356Z</time></trkpt><trkpt lat="43.3622246" lon="13.1783409"><ele>652.0</ele><time>2026-03-29T08:30:09.356Z</time></trkpt><trkpt lat="43.3622151" lon="13.178238"><ele>652.0</ele><time>2026-03-29T08:30:11.353Z</time></trkpt><trkpt lat="43.3622026" lon="13.1781205"><ele>652.0</ele><time>2026-03-29T08:30:13.378Z</time></trkpt><trkpt lat="43.3622183" lon="13.1780002"><ele>652.0</ele><time>2026-03-29T08:30:15.36Z</time></trkpt><trkpt lat="43.3621796" lon="13.1778972"><ele>652.0</ele><time>2026-03-29T08:30:17.355Z</time></trkpt><trkpt lat="43.3621638" lon="13.1777915"><ele>649.0</ele><time>2026-03-29T08:30:19.367Z</time></trkpt><trkpt lat="43.3622185" lon="13.1776677"><ele>646.0</ele><time>2026-03-29T08:30:21.351Z</time></trkpt><trkpt lat="43.3622589" lon="13.1775563"><ele>643.0</ele><time>2026-03-29T08:30:23.352Z</time></trkpt><trkpt lat="43.3622594" lon="13.1774608"><ele>640.0</ele><time>2026-03-29T08:30:25.36Z</time></trkpt><trkpt lat="43.3622824" lon="13.1773538"><ele>637.0</ele><time>2026-03-29T08:30:27.377Z</time></trkpt><trkpt lat="43.3623228" lon="13.1772629"><ele>634.0</ele><time>2026-03-29T08:30:29.375Z</time></trkpt><trkpt lat="43.362242" lon="13.1772543"><ele>629.8333333333334</ele><time>2026-03-29T08:30:32.374Z</time></trkpt><trkpt lat="43.3621914" lon="13.177186"><ele>625.6666666666667</ele><time>2026-03-29T08:30:34.378Z</time></trkpt><trkpt lat="43.3621498" lon="13.1770715"><ele>621.5</ele><time>2026-03-29T08:30:36.365Z</time></trkpt><trkpt lat="43.3621088" lon="13.176999"><ele>617.3333333333334</ele><time>2026-03-29T08:30:38.366Z</time></trkpt><trkpt lat="43.3620215" lon="13.1769457"><ele>613.1666666666666</ele><time>2026-03-29T08:30:42.367Z</time></trkpt><trkpt lat="43.3619454" lon="13.1768886"><ele>609.0</ele><time>2026-03-29T08:30:44.417Z</time></trkpt><trkpt lat="43.3618936" lon="13.176752"><ele>609.0</ele><time>2026-03-29T08:30:46.407Z</time></trkpt><trkpt lat="43.361873" lon="13.1766177"><ele>609.0</ele><time>2026-03-29T08:30:48.367Z</time></trkpt><trkpt lat="43.3619008" lon="13.176511"><ele>609.0</ele><time>2026-03-29T08:30:50.366Z</time></trkpt><trkpt lat="43.3618987" lon="13.1763852"><ele>609.0</ele><time>2026-03-29T08:30:52.396Z</time></trkpt><trkpt lat="43.3619284" lon="13.1762867"><ele>609.0</ele><time>2026-03-29T08:30:54.426Z</time></trkpt><trkpt lat="43.3619545" lon="13.1761881"><ele>609.0</ele><time>2026-03-29T08:30:56.419Z</time></trkpt><trkpt lat="43.3618474" lon="13.1761917"><ele>609.0</ele><time>2026-03-29T08:31:00.388Z</time></trkpt><trkpt lat="43.3617578" lon="13.1762277"><ele>609.0</ele><time>2026-03-29T08:31:01.359Z</time></trkpt><trkpt lat="43.3616779" lon="13.1762855"><ele>609.0</ele><time>2026-03-29T08:31:02.407Z</time></trkpt><trkpt lat="43.3616001" lon="13.1763447"><ele>609.0</ele><time>2026-03-29T08:31:03.408Z</time></trkpt><trkpt lat="43.3615376" lon="13.1764162"><ele>609.0</ele><time>2026-03-29T08:31:04.425Z</time></trkpt><trkpt lat="43.3614799" lon="13.1764929"><ele>609.0</ele><time>2026-03-29T08:31:05.384Z</time></trkpt><trkpt lat="43.3614259" lon="13.1765796"><ele>609.0</ele><time>2026-03-29T08:31:06.414Z</time></trkpt><trkpt lat="43.361379" lon="13.1766719"><ele>609.0</ele><time>2026-03-29T08:31:07.405Z</time></trkpt><trkpt lat="43.3613436" lon="13.1767612"><ele>609.0</ele><time>2026-03-29T08:31:08.414Z</time></trkpt><trkpt lat="43.3613227" lon="13.176874"><ele>609.0</ele><time>2026-03-29T08:31:09.412Z</time></trkpt><trkpt lat="43.361302" lon="13.1770039"><ele>609.0</ele><time>2026-03-29T08:31:10.421Z</time></trkpt><trkpt lat="43.3612879" lon="13.1771194"><ele>609.0</ele><time>2026-03-29T08:31:11.379Z</time></trkpt><trkpt lat="43.3612931" lon="13.1772385"><ele>611.0</ele><time>2026-03-29T08:31:12.404Z</time></trkpt><trkpt lat="43.3613078" lon="13.1773431"><ele>613.0</ele><time>2026-03-29T08:31:13.403Z</time></trkpt><trkpt lat="43.3613334" lon="13.1774688"><ele>615.0</ele><time>2026-03-29T08:31:14.416Z</time></trkpt><trkpt lat="43.3613616" lon="13.1775826"><ele>617.0</ele><time>2026-03-29T08:31:15.377Z</time></trkpt><trkpt lat="43.3613866" lon="13.1776808"><ele>619.0</ele><time>2026-03-29T08:31:16.411Z</time></trkpt><trkpt lat="43.3614085" lon="13.1777891"><ele>621.0</ele><time>2026-03-29T08:31:17.407Z</time></trkpt><trkpt lat="43.3614265" lon="13.1779055"><ele>620.9999999999999</ele><time>2026-03-29T08:31:18.391Z</time></trkpt><trkpt lat="43.3614363" lon="13.1780218"><ele>621.0</ele><time>2026-03-29T08:31:19.413Z</time></trkpt><trkpt lat="43.3614401" lon="13.1781266"><ele>621.0</ele><time>2026-03-29T08:31:20.385Z</time></trkpt><trkpt lat="43.3614396" lon="13.1782255"><ele>621.0</ele><time>2026-03-29T08:31:21.433Z</time></trkpt><trkpt lat="43.3614405" lon="13.1783206"><ele>621.0</ele><time>2026-03-29T08:31:22.387Z</time></trkpt><trkpt lat="43.3614426" lon="13.1784153"><ele>620.9999999999999</ele><time>2026-03-29T08:31:23.413Z</time></trkpt><trkpt lat="43.3614408" lon="13.1785104"><ele>621.0</ele><time>2026-03-29T08:31:24.384Z</time></trkpt><trkpt lat="43.3614304" lon="13.1786155"><ele>621.1666666666666</ele><time>2026-03-29T08:31:25.405Z</time></trkpt><trkpt lat="43.3614243" lon="13.1787256"><ele>621.3333333333334</ele><time>2026-03-29T08:31:26.422Z</time></trkpt><trkpt lat="43.3614096" lon="13.1788317"><ele>621.5</ele><time>2026-03-29T08:31:27.389Z</time></trkpt><trkpt lat="43.3613903" lon="13.1789294"><ele>621.6666666666667</ele><time>2026-03-29T08:31:28.398Z</time></trkpt><trkpt lat="43.3613732" lon="13.1790255"><ele>621.8333333333334</ele><time>2026-03-29T08:31:29.373Z</time></trkpt><trkpt lat="43.3613551" lon="13.1791261"><ele>622.0</ele><time>2026-03-29T08:31:30.388Z</time></trkpt><trkpt lat="43.3613341" lon="13.1792331"><ele>615.3333333333334</ele><time>2026-03-29T08:31:31.409Z</time></trkpt><trkpt lat="43.361317" lon="13.1793412"><ele>608.6666666666667</ele><time>2026-03-29T08:31:32.363Z</time></trkpt><trkpt lat="43.3613078" lon="13.1794428"><ele>602.0</ele><time>2026-03-29T08:31:33.41Z</time></trkpt><trkpt lat="43.3612995" lon="13.1795408"><ele>595.3333333333334</ele><time>2026-03-29T08:31:34.424Z</time></trkpt><trkpt lat="43.3612477" lon="13.1796694"><ele>588.6666666666666</ele><time>2026-03-29T08:31:36.412Z</time></trkpt><trkpt lat="43.361151" lon="13.1796777"><ele>582.0</ele><time>2026-03-29T08:31:38.357Z</time></trkpt><trkpt lat="43.3610774" lon="13.1796424"><ele>582.0</ele><time>2026-03-29T08:31:39.406Z</time></trkpt><trkpt lat="43.3610058" lon="13.1796107"><ele>582.0</ele><time>2026-03-29T08:31:40.408Z</time></trkpt><trkpt lat="43.3609306" lon="13.1796061"><ele>582.0</ele><time>2026-03-29T08:31:41.42Z</time></trkpt><trkpt lat="43.360863" lon="13.1796168"><ele>582.0</ele><time>2026-03-29T08:31:42.406Z</time></trkpt><trkpt lat="43.3607939" lon="13.1796387"><ele>582.0</ele><time>2026-03-29T08:31:43.417Z</time></trkpt><trkpt lat="43.3607311" lon="13.1796916"><ele>582.0</ele><time>2026-03-29T08:31:44.393Z</time></trkpt><trkpt lat="43.3606696" lon="13.1797485"><ele>582.0</ele><time>2026-03-29T08:31:45.403Z</time></trkpt><trkpt lat="43.3605708" lon="13.1798085"><ele>582.3333333333334</ele><time>2026-03-29T08:31:47.413Z</time></trkpt><trkpt lat="43.360514" lon="13.1797651"><ele>582.6666666666666</ele><time>2026-03-29T08:31:48.417Z</time></trkpt><trkpt lat="43.3604383" lon="13.1797086"><ele>583.0</ele><time>2026-03-29T08:31:49.415Z</time></trkpt><trkpt lat="43.3603554" lon="13.1796512"><ele>583.3333333333333</ele><time>2026-03-29T08:31:50.405Z</time></trkpt><trkpt lat="43.3602755" lon="13.1795953"><ele>583.6666666666666</ele><time>2026-03-29T08:31:51.428Z</time></trkpt><trkpt lat="43.3601952" lon="13.1795597"><ele>584.0</ele><time>2026-03-29T08:31:52.394Z</time></trkpt><trkpt lat="43.3601064" lon="13.1795284"><ele>584.0</ele><time>2026-03-29T08:31:53.467Z</time></trkpt><trkpt lat="43.3600203" lon="13.1795045"><ele>584.0</ele><time>2026-03-29T08:31:54.426Z</time></trkpt><trkpt lat="43.359934" lon="13.1794791"><ele>584.0</ele><time>2026-03-29T08:31:55.431Z</time></trkpt><trkpt lat="43.3598369" lon="13.1794447"><ele>584.0</ele><time>2026-03-29T08:31:56.416Z</time></trkpt><trkpt lat="43.359733" lon="13.1794103"><ele>584.0</ele><time>2026-03-29T08:31:57.361Z</time></trkpt><trkpt lat="43.3596321" lon="13.179382"><ele>584.1666666666666</ele><time>2026-03-29T08:31:58.359Z</time></trkpt><trkpt lat="43.3595398" lon="13.1793642"><ele>584.3333333333333</ele><time>2026-03-29T08:31:59.406Z</time></trkpt><trkpt lat="43.3594641" lon="13.1793639"><ele>584.5</ele><time>2026-03-29T08:32:00.412Z</time></trkpt><trkpt lat="43.3593739" lon="13.1794712"><ele>584.6666666666666</ele><time>2026-03-29T08:32:02.426Z</time></trkpt><trkpt lat="43.3593325" lon="13.1795532"><ele>584.8333333333334</ele><time>2026-03-29T08:32:03.435Z</time></trkpt><trkpt lat="43.3592923" lon="13.1796408"><ele>585.0</ele><time>2026-03-29T08:32:04.416Z</time></trkpt><trkpt lat="43.3592468" lon="13.1797434"><ele>589.6</ele><time>2026-03-29T08:32:05.408Z</time></trkpt><trkpt lat="43.3592053" lon="13.1798598"><ele>594.2</ele><time>2026-03-29T08:32:06.414Z</time></trkpt><trkpt lat="43.3591619" lon="13.1799917"><ele>598.8</ele><time>2026-03-29T08:32:07.426Z</time></trkpt><trkpt lat="43.3591236" lon="13.1801395"><ele>603.4</ele><time>2026-03-29T08:32:08.377Z</time></trkpt><trkpt lat="43.359083" lon="13.1802925"><ele>608.0</ele><time>2026-03-29T08:32:09.388Z</time></trkpt><trkpt lat="43.3590404" lon="13.1804349"><ele>608.0</ele><time>2026-03-29T08:32:10.396Z</time></trkpt><trkpt lat="43.3590018" lon="13.1805774"><ele>608.0</ele><time>2026-03-29T08:32:11.402Z</time></trkpt><trkpt lat="43.3589724" lon="13.1807153"><ele>608.0</ele><time>2026-03-29T08:32:12.413Z</time></trkpt><trkpt lat="43.3589426" lon="13.1808592"><ele>608.0</ele><time>2026-03-29T08:32:13.411Z</time></trkpt><trkpt lat="43.3589089" lon="13.180998"><ele>608.0</ele><time>2026-03-29T08:32:14.433Z</time></trkpt><trkpt lat="43.3588806" lon="13.1811339"><ele>607.1999999999999</ele><time>2026-03-29T08:32:15.418Z</time></trkpt><trkpt lat="43.358857" lon="13.1812707"><ele>606.4</ele><time>2026-03-29T08:32:16.409Z</time></trkpt><trkpt lat="43.3588267" lon="13.1814132"><ele>605.5999999999999</ele><time>2026-03-29T08:32:17.397Z</time></trkpt><trkpt lat="43.3588019" lon="13.1815441"><ele>604.8</ele><time>2026-03-29T08:32:18.414Z</time></trkpt><trkpt lat="43.3587757" lon="13.1816705"><ele>604.0</ele><time>2026-03-29T08:32:19.443Z</time></trkpt><trkpt lat="43.3587496" lon="13.1817879"><ele>604.0</ele><time>2026-03-29T08:32:20.424Z</time></trkpt><trkpt lat="43.3587187" lon="13.1818972"><ele>604.0</ele><time>2026-03-29T08:32:21.423Z</time></trkpt><trkpt lat="43.3586897" lon="13.1820046"><ele>604.0</ele><time>2026-03-29T08:32:22.406Z</time></trkpt><trkpt lat="43.3586687" lon="13.182121"><ele>604.0</ele><time>2026-03-29T08:32:23.401Z</time></trkpt><trkpt lat="43.3586494" lon="13.1822468"><ele>604.0</ele><time>2026-03-29T08:32:24.42Z</time></trkpt><trkpt lat="43.3586293" lon="13.1823713"><ele>604.0</ele><time>2026-03-29T08:32:25.402Z</time></trkpt><trkpt lat="43.3586077" lon="13.1824942"><ele>608.0</ele><time>2026-03-29T08:32:26.408Z</time></trkpt><trkpt lat="43.3585845" lon="13.1826167"><ele>612.0</ele><time>2026-03-29T08:32:27.427Z</time></trkpt><trkpt lat="43.3585607" lon="13.1827305"><ele>616.0</ele><time>2026-03-29T08:32:28.414Z</time></trkpt><trkpt lat="43.3585471" lon="13.182843"><ele>620.0</ele><time>2026-03-29T08:32:29.42Z</time></trkpt><trkpt lat="43.3585385" lon="13.1829468"><ele>624.0</ele><time>2026-03-29T08:32:30.402Z</time></trkpt><trkpt lat="43.3585363" lon="13.1830404"><ele>628.0</ele><time>2026-03-29T08:32:31.411Z</time></trkpt><trkpt lat="43.3585329" lon="13.1831275"><ele>631.8</ele><time>2026-03-29T08:32:32.403Z</time></trkpt><trkpt lat="43.3585157" lon="13.1832878"><ele>635.5999999999999</ele><time>2026-03-29T08:32:34.358Z</time></trkpt><trkpt lat="43.3584321" lon="13.1833658"><ele>639.4000000000001</ele><time>2026-03-29T08:32:36.42Z</time></trkpt><trkpt lat="43.3582979" lon="13.183357"><ele>643.2</ele><time>2026-03-29T08:32:38.429Z</time></trkpt><trkpt lat="43.3582114" lon="13.1833133"><ele>647.0</ele><time>2026-03-29T08:32:39.415Z</time></trkpt><trkpt lat="43.3581148" lon="13.1832603"><ele>646.2</ele><time>2026-03-29T08:32:40.406Z</time></trkpt><trkpt lat="43.3580078" lon="13.1832063"><ele>645.4000000000001</ele><time>2026-03-29T08:32:41.42Z</time></trkpt><trkpt lat="43.3579222" lon="13.1831493"><ele>644.5999999999999</ele><time>2026-03-29T08:32:42.424Z</time></trkpt><trkpt lat="43.3578408" lon="13.1830864"><ele>643.8</ele><time>2026-03-29T08:32:43.441Z</time></trkpt><trkpt lat="43.3577649" lon="13.1830403"><ele>643.0</ele><time>2026-03-29T08:32:44.428Z</time></trkpt><trkpt lat="43.3576876" lon="13.1830256"><ele>643.0</ele><time>2026-03-29T08:32:45.428Z</time></trkpt><trkpt lat="43.3576185" lon="13.1830362"><ele>643.0</ele><time>2026-03-29T08:32:46.422Z</time></trkpt><trkpt lat="43.3575592" lon="13.1830777"><ele>643.0</ele><time>2026-03-29T08:32:47.41Z</time></trkpt><trkpt lat="43.3574997" lon="13.1831405"><ele>643.0</ele><time>2026-03-29T08:32:48.397Z</time></trkpt><trkpt lat="43.3574309" lon="13.1832142"><ele>643.0</ele><time>2026-03-29T08:32:49.404Z</time></trkpt><trkpt lat="43.3573522" lon="13.1832919"><ele>643.0</ele><time>2026-03-29T08:32:50.412Z</time></trkpt><trkpt lat="43.3572728" lon="13.1833829"><ele>638.0</ele><time>2026-03-29T08:32:51.395Z</time></trkpt><trkpt lat="43.3571982" lon="13.1834803"><ele>633.0</ele><time>2026-03-29T08:32:52.429Z</time></trkpt><trkpt lat="43.3571276" lon="13.1835863"><ele>628.0</ele><time>2026-03-29T08:32:53.407Z</time></trkpt><trkpt lat="43.3570596" lon="13.1836855"><ele>623.0</ele><time>2026-03-29T08:32:54.411Z</time></trkpt><trkpt lat="43.3570034" lon="13.1837824"><ele>618.0</ele><time>2026-03-29T08:32:55.425Z</time></trkpt><trkpt lat="43.356956" lon="13.1838787"><ele>618.0</ele><time>2026-03-29T08:32:56.412Z</time></trkpt><trkpt lat="43.3569185" lon="13.1839728"><ele>618.0</ele><time>2026-03-29T08:32:57.404Z</time></trkpt><trkpt lat="43.3568938" lon="13.1840703"><ele>618.0</ele><time>2026-03-29T08:32:58.4Z</time></trkpt><trkpt lat="43.3568768" lon="13.1841643"><ele>618.0</ele><time>2026-03-29T08:32:59.416Z</time></trkpt><trkpt lat="43.356869" lon="13.1842508"><ele>618.0</ele><time>2026-03-29T08:33:00.431Z</time></trkpt><trkpt lat="43.3568719" lon="13.1843996"><ele>618.0</ele><time>2026-03-29T08:33:02.396Z</time></trkpt><trkpt lat="43.3568694" lon="13.1845863"><ele>620.4</ele><time>2026-03-29T08:33:04.405Z</time></trkpt><trkpt lat="43.3568622" lon="13.1847098"><ele>622.8</ele><time>2026-03-29T08:33:05.391Z</time></trkpt><trkpt lat="43.3568541" lon="13.1848349"><ele>625.2</ele><time>2026-03-29T08:33:06.406Z</time></trkpt><trkpt lat="43.3568481" lon="13.1849479"><ele>627.6</ele><time>2026-03-29T08:33:07.426Z</time></trkpt><trkpt lat="43.3568409" lon="13.1850494"><ele>630.0</ele><time>2026-03-29T08:33:08.417Z</time></trkpt><trkpt lat="43.3568394" lon="13.1852171"><ele>633.0</ele><time>2026-03-29T08:33:10.422Z</time></trkpt><trkpt lat="43.3568386" lon="13.1853066"><ele>636.0</ele><time>2026-03-29T08:33:11.396Z</time></trkpt><trkpt lat="43.3568385" lon="13.1853957"><ele>639.0</ele><time>2026-03-29T08:33:12.401Z</time></trkpt><trkpt lat="43.3568143" lon="13.1855301"><ele>642.0</ele><time>2026-03-29T08:33:14.377Z</time></trkpt><trkpt lat="43.3567351" lon="13.1855592"><ele>645.0</ele><time>2026-03-29T08:33:16.404Z</time></trkpt><trkpt lat="43.3566725" lon="13.1855166"><ele>648.0</ele><time>2026-03-29T08:33:17.421Z</time></trkpt><trkpt lat="43.3565974" lon="13.1854507"><ele>648.0</ele><time>2026-03-29T08:33:18.403Z</time></trkpt><trkpt lat="43.3565038" lon="13.1853637"><ele>648.0</ele><time>2026-03-29T08:33:19.433Z</time></trkpt><trkpt lat="43.3564173" lon="13.1853052"><ele>648.0</ele><time>2026-03-29T08:33:20.402Z</time></trkpt><trkpt lat="43.3563395" lon="13.1852913"><ele>648.0</ele><time>2026-03-29T08:33:21.412Z</time></trkpt><trkpt lat="43.3562615" lon="13.1853007"><ele>648.0</ele><time>2026-03-29T08:33:22.419Z</time></trkpt><trkpt lat="43.3561735" lon="13.1853328"><ele>645.0</ele><time>2026-03-29T08:33:23.432Z</time></trkpt><trkpt lat="43.3560779" lon="13.1853649"><ele>642.0</ele><time>2026-03-29T08:33:24.425Z</time></trkpt><trkpt lat="43.3559793" lon="13.1854184"><ele>639.0</ele><time>2026-03-29T08:33:25.354Z</time></trkpt><trkpt lat="43.3558933" lon="13.1854871"><ele>636.0</ele><time>2026-03-29T08:33:26.378Z</time></trkpt><trkpt lat="43.3558163" lon="13.1855674"><ele>633.0</ele><time>2026-03-29T08:33:27.366Z</time></trkpt><trkpt lat="43.355751" lon="13.18565"><ele>633.3333333333334</ele><time>2026-03-29T08:33:28.42Z</time></trkpt><trkpt lat="43.3557014" lon="13.1857319"><ele>633.6666666666666</ele><time>2026-03-29T08:33:29.407Z</time></trkpt><trkpt lat="43.3556674" lon="13.1858293"><ele>634.0</ele><time>2026-03-29T08:33:30.41Z</time></trkpt><trkpt lat="43.3556421" lon="13.1859425"><ele>634.3333333333333</ele><time>2026-03-29T08:33:31.358Z</time></trkpt><trkpt lat="43.3556062" lon="13.1860628"><ele>634.6666666666666</ele><time>2026-03-29T08:33:32.4Z</time></trkpt><trkpt lat="43.355564" lon="13.1861602"><ele>635.0</ele><time>2026-03-29T08:33:33.396Z</time></trkpt><trkpt lat="43.3555034" lon="13.1862356"><ele>635.0</ele><time>2026-03-29T08:33:34.415Z</time></trkpt><trkpt lat="43.3554306" lon="13.1862943"><ele>635.0</ele><time>2026-03-29T08:33:35.363Z</time></trkpt><trkpt lat="43.355345" lon="13.186355"><ele>635.0</ele><time>2026-03-29T08:33:36.407Z</time></trkpt><trkpt lat="43.3552605" lon="13.1864107"><ele>635.0</ele><time>2026-03-29T08:33:37.401Z</time></trkpt><trkpt lat="43.35519" lon="13.1864586"><ele>635.0</ele><time>2026-03-29T08:33:38.409Z</time></trkpt><trkpt lat="43.3551265" lon="13.1865148"><ele>635.0</ele><time>2026-03-29T08:33:39.427Z</time></trkpt><trkpt lat="43.3550708" lon="13.1865831"><ele>639.5</ele><time>2026-03-29T08:33:40.422Z</time></trkpt><trkpt lat="43.3550169" lon="13.1866716"><ele>644.0</ele><time>2026-03-29T08:33:41.42Z</time></trkpt><trkpt lat="43.3549717" lon="13.186764"><ele>648.5</ele><time>2026-03-29T08:33:42.407Z</time></trkpt><trkpt lat="43.3549254" lon="13.186862"><ele>653.0</ele><time>2026-03-29T08:33:43.408Z</time></trkpt><trkpt lat="43.3548777" lon="13.1869497"><ele>657.5</ele><time>2026-03-29T08:33:44.412Z</time></trkpt><trkpt lat="43.3548409" lon="13.1870211"><ele>662.0</ele><time>2026-03-29T08:33:45.402Z</time></trkpt><trkpt lat="43.3547819" lon="13.1871368"><ele>662.0</ele><time>2026-03-29T08:33:47.424Z</time></trkpt><trkpt lat="43.3547184" lon="13.1872768"><ele>662.0</ele><time>2026-03-29T08:33:49.384Z</time></trkpt><trkpt lat="43.3546904" lon="13.1873633"><ele>662.0</ele><time>2026-03-29T08:33:50.419Z</time></trkpt><trkpt lat="43.3546647" lon="13.1874509"><ele>662.0</ele><time>2026-03-29T08:33:51.412Z</time></trkpt><trkpt lat="43.3546394" lon="13.1875405"><ele>662.0</ele><time>2026-03-29T08:33:52.419Z</time></trkpt><trkpt lat="43.3546204" lon="13.187636"><ele>662.0</ele><time>2026-03-29T08:33:53.429Z</time></trkpt><trkpt lat="43.354603" lon="13.1877212"><ele>663.8</ele><time>2026-03-29T08:33:54.418Z</time></trkpt><trkpt lat="43.3546064" lon="13.1878941"><ele>665.6</ele><time>2026-03-29T08:33:56.411Z</time></trkpt><trkpt lat="43.354626" lon="13.1879917"><ele>667.4</ele><time>2026-03-29T08:33:57.415Z</time></trkpt><trkpt lat="43.3546454" lon="13.1880875"><ele>669.1999999999999</ele><time>2026-03-29T08:33:58.401Z</time></trkpt><trkpt lat="43.3546405" lon="13.1882245"><ele>671.0</ele><time>2026-03-29T08:34:00.436Z</time></trkpt><trkpt lat="43.3545644" lon="13.1883271"><ele>671.0</ele><time>2026-03-29T08:34:02.417Z</time></trkpt><trkpt lat="43.354501" lon="13.1883728"><ele>671.0</ele><time>2026-03-29T08:34:03.415Z</time></trkpt><trkpt lat="43.3544372" lon="13.1884223"><ele>671.0</ele><time>2026-03-29T08:34:04.408Z</time></trkpt><trkpt lat="43.3543612" lon="13.1884728"><ele>671.0</ele><time>2026-03-29T08:34:05.404Z</time></trkpt><trkpt lat="43.3542748" lon="13.1885299"><ele>671.0</ele><time>2026-03-29T08:34:06.414Z</time></trkpt><trkpt lat="43.3541959" lon="13.1885831"><ele>671.0</ele><time>2026-03-29T08:34:07.439Z</time></trkpt><trkpt lat="43.3541248" lon="13.1886371"><ele>671.0</ele><time>2026-03-29T08:34:08.429Z</time></trkpt><trkpt lat="43.3540637" lon="13.1886825"><ele>671.0</ele><time>2026-03-29T08:34:09.4Z</time></trkpt><trkpt lat="43.3540073" lon="13.1887355"><ele>671.0</ele><time>2026-03-29T08:34:10.407Z</time></trkpt><trkpt lat="43.3539665" lon="13.1888068"><ele>671.0</ele><time>2026-03-29T08:34:11.408Z</time></trkpt><trkpt lat="43.3539569" lon="13.1888988"><ele>671.0</ele><time>2026-03-29T08:34:12.423Z</time></trkpt><trkpt lat="43.3539622" lon="13.1890106"><ele>671.0</ele><time>2026-03-29T08:34:13.393Z</time></trkpt><trkpt lat="43.3539762" lon="13.1891277"><ele>671.0</ele><time>2026-03-29T08:34:14.385Z</time></trkpt><trkpt lat="43.353989" lon="13.1892437"><ele>674.0</ele><time>2026-03-29T08:34:15.369Z</time></trkpt><trkpt lat="43.3539996" lon="13.1893575"><ele>677.0</ele><time>2026-03-29T08:34:16.369Z</time></trkpt><trkpt lat="43.3540225" lon="13.1894576"><ele>680.0</ele><time>2026-03-29T08:34:17.409Z</time></trkpt><trkpt lat="43.3540506" lon="13.1895748"><ele>683.0</ele><time>2026-03-29T08:34:18.39Z</time></trkpt><trkpt lat="43.3540633" lon="13.1896979"><ele>686.0</ele><time>2026-03-29T08:34:19.369Z</time></trkpt><trkpt lat="43.3540921" lon="13.1898108"><ele>689.0</ele><time>2026-03-29T08:34:20.373Z</time></trkpt><trkpt lat="43.354123" lon="13.1899046"><ele>690.0</ele><time>2026-03-29T08:34:21.412Z</time></trkpt><trkpt lat="43.3541442" lon="13.1900292"><ele>691.0</ele><time>2026-03-29T08:34:23.422Z</time></trkpt><trkpt lat="43.3541685" lon="13.1901182"><ele>692.0</ele><time>2026-03-29T08:34:27.424Z</time></trkpt><trkpt lat="43.3541717" lon="13.1902053"><ele>693.0</ele><time>2026-03-29T08:34:30.418Z</time></trkpt><trkpt lat="43.3541271" lon="13.1902665"><ele>694.0</ele><time>2026-03-29T08:34:33.416Z</time></trkpt><trkpt lat="43.3540617" lon="13.1902336"><ele>695.0</ele><time>2026-03-29T08:34:36.405Z</time></trkpt><trkpt lat="43.3539739" lon="13.190171"><ele>695.0</ele><time>2026-03-29T08:34:39.401Z</time></trkpt><trkpt lat="43.3538903" lon="13.1901227"><ele>695.0</ele><time>2026-03-29T08:34:41.392Z</time></trkpt><trkpt lat="43.3538187" lon="13.190087"><ele>695.0</ele><time>2026-03-29T08:34:43.365Z</time></trkpt><trkpt lat="43.3537472" lon="13.1900486"><ele>695.0</ele><time>2026-03-29T08:34:45.381Z</time></trkpt><trkpt lat="43.3536742" lon="13.1900041"><ele>695.0</ele><time>2026-03-29T08:34:47.407Z</time></trkpt><trkpt lat="43.3535937" lon="13.1899726"><ele>695.0</ele><time>2026-03-29T08:34:49.417Z</time></trkpt><trkpt lat="43.3535247" lon="13.1899653"><ele>693.0</ele><time>2026-03-29T08:34:50.424Z</time></trkpt><trkpt lat="43.3534506" lon="13.1899633"><ele>691.0</ele><time>2026-03-29T08:34:51.417Z</time></trkpt><trkpt lat="43.3533813" lon="13.1899712"><ele>689.0</ele><time>2026-03-29T08:34:52.418Z</time></trkpt><trkpt lat="43.3533216" lon="13.1900002"><ele>687.0</ele><time>2026-03-29T08:34:53.418Z</time></trkpt><trkpt lat="43.3532558" lon="13.1900419"><ele>685.0</ele><time>2026-03-29T08:34:54.415Z</time></trkpt><trkpt lat="43.3531977" lon="13.1900808"><ele>683.0</ele><time>2026-03-29T08:34:55.393Z</time></trkpt><trkpt lat="43.3531155" lon="13.1901784"><ele>683.0</ele><time>2026-03-29T08:34:57.399Z</time></trkpt><trkpt lat="43.3530616" lon="13.1903041"><ele>683.0</ele><time>2026-03-29T08:34:59.415Z</time></trkpt><trkpt lat="43.3530494" lon="13.1903939"><ele>683.0</ele><time>2026-03-29T08:35:00.424Z</time></trkpt><trkpt lat="43.3530375" lon="13.1904881"><ele>683.0</ele><time>2026-03-29T08:35:01.422Z</time></trkpt><trkpt lat="43.3530281" lon="13.1905752"><ele>683.0</ele><time>2026-03-29T08:35:02.439Z</time></trkpt><trkpt lat="43.353007" lon="13.1906585"><ele>683.0</ele><time>2026-03-29T08:35:03.41Z</time></trkpt><trkpt lat="43.3529606" lon="13.190721"><ele>683.0</ele><time>2026-03-29T08:35:04.421Z</time></trkpt><trkpt lat="43.3529028" lon="13.1907738"><ele>682.8333333333333</ele><time>2026-03-29T08:35:05.407Z</time></trkpt><trkpt lat="43.3528104" lon="13.1908046"><ele>682.6666666666666</ele><time>2026-03-29T08:35:07.432Z</time></trkpt><trkpt lat="43.3527395" lon="13.1908141"><ele>682.5</ele><time>2026-03-29T08:35:15.41Z</time></trkpt><trkpt lat="43.3526783" lon="13.1908517"><ele>682.3333333333334</ele><time>2026-03-29T08:35:18.419Z</time></trkpt><trkpt lat="43.3526091" lon="13.1908788"><ele>682.1666666666667</ele><time>2026-03-29T08:35:21.401Z</time></trkpt><trkpt lat="43.3525359" lon="13.1909365"><ele>682.0</ele><time>2026-03-29T08:35:25.41Z</time></trkpt><trkpt lat="43.3525016" lon="13.1910207"><ele>682.0</ele><time>2026-03-29T08:35:28.426Z</time></trkpt><trkpt lat="43.352485" lon="13.191111"><ele>682.0</ele><time>2026-03-29T08:35:30.381Z</time></trkpt><trkpt lat="43.3524438" lon="13.191225"><ele>682.0</ele><time>2026-03-29T08:35:33.398Z</time></trkpt><trkpt lat="43.3524" lon="13.1913204"><ele>682.0</ele><time>2026-03-29T08:35:35.372Z</time></trkpt><trkpt lat="43.3523507" lon="13.1914043"><ele>682.0</ele><time>2026-03-29T08:35:37.405Z</time></trkpt><trkpt lat="43.3523164" lon="13.1914844"><ele>682.0</ele><time>2026-03-29T08:35:50.419Z</time></trkpt><trkpt lat="43.3522401" lon="13.1915543"><ele>681.8571428571429</ele><time>2026-03-29T08:35:53.401Z</time></trkpt><trkpt lat="43.3521909" lon="13.1916384"><ele>681.7142857142858</ele><time>2026-03-29T08:35:56.371Z</time></trkpt><trkpt lat="43.3521251" lon="13.1917251"><ele>681.5714285714287</ele><time>2026-03-29T08:35:59.412Z</time></trkpt><trkpt lat="43.3520772" lon="13.191788"><ele>681.4285714285714</ele><time>2026-03-29T08:36:01.414Z</time></trkpt><trkpt lat="43.3520329" lon="13.1918633"><ele>681.2857142857143</ele><time>2026-03-29T08:36:03.418Z</time></trkpt><trkpt lat="43.3520139" lon="13.1919521"><ele>681.1428571428572</ele><time>2026-03-29T08:36:06.425Z</time></trkpt><trkpt lat="43.3520078" lon="13.1920406"><ele>681.0</ele><time>2026-03-29T08:36:10.392Z</time></trkpt><trkpt lat="43.3519716" lon="13.1921177"><ele>681.0000000000001</ele><time>2026-03-29T08:36:14.359Z</time></trkpt><trkpt lat="43.3519407" lon="13.1922237"><ele>681.0</ele><time>2026-03-29T08:36:17.42Z</time></trkpt><trkpt lat="43.3519557" lon="13.1923182"><ele>681.0</ele><time>2026-03-29T08:36:20.36Z</time></trkpt><trkpt lat="43.3519407" lon="13.1924143"><ele>681.0</ele><time>2026-03-29T08:36:24.402Z</time></trkpt><trkpt lat="43.3519673" lon="13.1925093"><ele>681.0</ele><time>2026-03-29T08:36:28.395Z</time></trkpt><trkpt lat="43.3520175" lon="13.1925688"><ele>681.0000000000001</ele><time>2026-03-29T08:36:33.401Z</time></trkpt><trkpt lat="43.352083" lon="13.1925832"><ele>681.0</ele><time>2026-03-29T08:36:38.411Z</time></trkpt><trkpt lat="43.3521626" lon="13.1925765"><ele>682.0</ele><time>2026-03-29T08:36:49.398Z</time></trkpt><trkpt lat="43.3522644" lon="13.1925379"><ele>683.0</ele><time>2026-03-29T08:36:52.413Z</time></trkpt><trkpt lat="43.3523337" lon="13.1925467"><ele>684.0</ele><time>2026-03-29T08:36:55.406Z</time></trkpt><trkpt lat="43.3522846" lon="13.1926057"><ele>685.0</ele><time>2026-03-29T08:36:58.318Z</time></trkpt><trkpt lat="43.352257" lon="13.192686"><ele>686.0</ele><time>2026-03-29T08:37:00.396Z</time></trkpt><trkpt lat="43.3522416" lon="13.19277"><ele>687.0</ele><time>2026-03-29T08:37:02.407Z</time></trkpt><trkpt lat="43.3521807" lon="13.1928614"><ele>687.0</ele><time>2026-03-29T08:37:05.412Z</time></trkpt><trkpt lat="43.3521789" lon="13.1929912"><ele>687.0</ele><time>2026-03-29T08:37:08.415Z</time></trkpt><trkpt lat="43.3522073" lon="13.1931"><ele>687.0</ele><time>2026-03-29T08:37:10.421Z</time></trkpt><trkpt lat="43.3522681" lon="13.1931729"><ele>687.0</ele><time>2026-03-29T08:37:12.382Z</time></trkpt><trkpt lat="43.352351" lon="13.1932853"><ele>687.0</ele><time>2026-03-29T08:37:14.382Z</time></trkpt><trkpt lat="43.35239" lon="13.193381"><ele>692.1666666666666</ele><time>2026-03-29T08:37:17.409Z</time></trkpt><trkpt lat="43.3523832" lon="13.1934677"><ele>697.3333333333334</ele><time>2026-03-29T08:37:20.394Z</time></trkpt><trkpt lat="43.3523567" lon="13.1935729"><ele>702.5</ele><time>2026-03-29T08:37:25.411Z</time></trkpt><trkpt lat="43.3523325" lon="13.1936736"><ele>707.6666666666667</ele><time>2026-03-29T08:37:29.41Z</time></trkpt><trkpt lat="43.3523206" lon="13.1937825"><ele>712.8333333333334</ele><time>2026-03-29T08:37:32.417Z</time></trkpt><trkpt lat="43.3522962" lon="13.1938808"><ele>718.0</ele><time>2026-03-29T08:37:34.411Z</time></trkpt><trkpt lat="43.352263" lon="13.1939788"><ele>718.8571428571429</ele><time>2026-03-29T08:37:36.369Z</time></trkpt><trkpt lat="43.352208" lon="13.1940646"><ele>719.7142857142858</ele><time>2026-03-29T08:37:39.383Z</time></trkpt><trkpt lat="43.35216" lon="13.1941418"><ele>720.5714285714286</ele><time>2026-03-29T08:37:41.424Z</time></trkpt><trkpt lat="43.3521212" lon="13.1942164"><ele>721.4285714285714</ele><time>2026-03-29T08:37:43.363Z</time></trkpt><trkpt lat="43.3520695" lon="13.1942844"><ele>722.2857142857142</ele><time>2026-03-29T08:37:47.411Z</time></trkpt><trkpt lat="43.352003" lon="13.194316"><ele>723.1428571428571</ele><time>2026-03-29T08:37:50.409Z</time></trkpt><trkpt lat="43.3519337" lon="13.1942958"><ele>724.0</ele><time>2026-03-29T08:37:53.418Z</time></trkpt><trkpt lat="43.3518567" lon="13.194245"><ele>721.5</ele><time>2026-03-29T08:37:57.405Z</time></trkpt><trkpt lat="43.3517938" lon="13.19418"><ele>719.0</ele><time>2026-03-29T08:38:00.401Z</time></trkpt><trkpt lat="43.3517346" lon="13.1941414"><ele>716.5</ele><time>2026-03-29T08:38:02.393Z</time></trkpt><trkpt lat="43.3516617" lon="13.1941395"><ele>714.0</ele><time>2026-03-29T08:38:04.419Z</time></trkpt><trkpt lat="43.3515752" lon="13.1941513"><ele>711.5</ele><time>2026-03-29T08:38:07.391Z</time></trkpt><trkpt lat="43.3515029" lon="13.1942292"><ele>709.0</ele><time>2026-03-29T08:38:10.401Z</time></trkpt><trkpt lat="43.3514236" lon="13.1942922"><ele>708.0</ele><time>2026-03-29T08:38:13.398Z</time></trkpt><trkpt lat="43.351348" lon="13.1942745"><ele>707.0</ele><time>2026-03-29T08:38:16.412Z</time></trkpt><trkpt lat="43.3512848" lon="13.1941818"><ele>706.0</ele><time>2026-03-29T08:38:19.404Z</time></trkpt><trkpt lat="43.3512032" lon="13.1940994"><ele>705.0</ele><time>2026-03-29T08:38:21.408Z</time></trkpt><trkpt lat="43.3511419" lon="13.1939956"><ele>704.0</ele><time>2026-03-29T08:38:23.371Z</time></trkpt><trkpt lat="43.351081" lon="13.1939028"><ele>704.0</ele><time>2026-03-29T08:38:25.409Z</time></trkpt><trkpt lat="43.3510096" lon="13.1939017"><ele>704.0</ele><time>2026-03-29T08:38:27.419Z</time></trkpt><trkpt lat="43.3509506" lon="13.1939595"><ele>704.0</ele><time>2026-03-29T08:38:29.421Z</time></trkpt><trkpt lat="43.3508898" lon="13.1940355"><ele>704.0</ele><time>2026-03-29T08:38:31.417Z</time></trkpt><trkpt lat="43.3508147" lon="13.1940904"><ele>704.0</ele><time>2026-03-29T08:38:33.404Z</time></trkpt><trkpt lat="43.3507318" lon="13.1941538"><ele>704.0</ele><time>2026-03-29T08:38:35.414Z</time></trkpt><trkpt lat="43.3506606" lon="13.1942126"><ele>704.0</ele><time>2026-03-29T08:38:37.42Z</time></trkpt><trkpt lat="43.3506193" lon="13.1942944"><ele>704.0</ele><time>2026-03-29T08:38:39.408Z</time></trkpt><trkpt lat="43.3505755" lon="13.1943758"><ele>704.0</ele><time>2026-03-29T08:38:41.427Z</time></trkpt><trkpt lat="43.3505208" lon="13.1944571"><ele>704.0</ele><time>2026-03-29T08:38:43.43Z</time></trkpt><trkpt lat="43.3504223" lon="13.194513"><ele>704.0</ele><time>2026-03-29T08:38:45.388Z</time></trkpt><trkpt lat="43.3503195" lon="13.1945305"><ele>704.0</ele><time>2026-03-29T08:38:47.426Z</time></trkpt><trkpt lat="43.350204" lon="13.1945495"><ele>702.2</ele><time>2026-03-29T08:38:49.407Z</time></trkpt><trkpt lat="43.3500952" lon="13.1945899"><ele>700.4000000000001</ele><time>2026-03-29T08:38:51.427Z</time></trkpt><trkpt lat="43.3500043" lon="13.1946305"><ele>698.6</ele><time>2026-03-29T08:38:53.422Z</time></trkpt><trkpt lat="43.3499154" lon="13.1946745"><ele>696.8</ele><time>2026-03-29T08:38:55.427Z</time></trkpt><trkpt lat="43.3498383" lon="13.1947283"><ele>695.0</ele><time>2026-03-29T08:38:57.413Z</time></trkpt><trkpt lat="43.3497509" lon="13.194754"><ele>695.0</ele><time>2026-03-29T08:38:59.434Z</time></trkpt><trkpt lat="43.3496458" lon="13.1947376"><ele>695.0</ele><time>2026-03-29T08:39:01.44Z</time></trkpt><trkpt lat="43.349569" lon="13.1947445"><ele>695.0</ele><time>2026-03-29T08:39:03.43Z</time></trkpt><trkpt lat="43.3495043" lon="13.1947896"><ele>695.0</ele><time>2026-03-29T08:39:05.433Z</time></trkpt><trkpt lat="43.3494262" lon="13.1948687"><ele>695.0</ele><time>2026-03-29T08:39:07.429Z</time></trkpt><trkpt lat="43.349345" lon="13.1949646"><ele>695.0</ele><time>2026-03-29T08:39:09.434Z</time></trkpt><trkpt lat="43.3492861" lon="13.1951145"><ele>695.0</ele><time>2026-03-29T08:39:11.44Z</time></trkpt><trkpt lat="43.3492581" lon="13.195195"><ele>695.0</ele><time>2026-03-29T08:39:12.42Z</time></trkpt><trkpt lat="43.3492319" lon="13.1952767"><ele>695.0</ele><time>2026-03-29T08:39:13.397Z</time></trkpt><trkpt lat="43.3491724" lon="13.1954078"><ele>695.0</ele><time>2026-03-29T08:39:15.421Z</time></trkpt><trkpt lat="43.3491271" lon="13.1955369"><ele>695.0</ele><time>2026-03-29T08:39:17.419Z</time></trkpt><trkpt lat="43.3491142" lon="13.1956626"><ele>695.0</ele><time>2026-03-29T08:39:19.406Z</time></trkpt><trkpt lat="43.3491285" lon="13.195754"><ele>695.0</ele><time>2026-03-29T08:39:22.4Z</time></trkpt><trkpt lat="43.3491389" lon="13.195875"><ele>695.0</ele><time>2026-03-29T08:39:29.401Z</time></trkpt><trkpt lat="43.3491603" lon="13.1959799"><ele>695.0</ele><time>2026-03-29T08:39:31.445Z</time></trkpt><trkpt lat="43.3491909" lon="13.1960773"><ele>695.0</ele><time>2026-03-29T08:39:33.42Z</time></trkpt><trkpt lat="43.3492172" lon="13.1961958"><ele>694.8333333333333</ele><time>2026-03-29T08:39:35.419Z</time></trkpt><trkpt lat="43.3492065" lon="13.1963303"><ele>694.6666666666666</ele><time>2026-03-29T08:39:37.416Z</time></trkpt><trkpt lat="43.3492215" lon="13.1964268"><ele>694.5</ele><time>2026-03-29T08:39:39.427Z</time></trkpt><trkpt lat="43.3492137" lon="13.1965235"><ele>694.3333333333334</ele><time>2026-03-29T08:39:42.44Z</time></trkpt><trkpt lat="43.3491803" lon="13.196621"><ele>694.1666666666667</ele><time>2026-03-29T08:39:44.418Z</time></trkpt><trkpt lat="43.349102" lon="13.196672"><ele>694.0</ele><time>2026-03-29T08:39:46.427Z</time></trkpt><trkpt lat="43.3490358" lon="13.1966569"><ele>693.6</ele><time>2026-03-29T08:39:48.411Z</time></trkpt><trkpt lat="43.3489685" lon="13.1966515"><ele>693.2</ele><time>2026-03-29T08:39:50.428Z</time></trkpt><trkpt lat="43.3488672" lon="13.1967333"><ele>692.8000000000001</ele><time>2026-03-29T08:39:52.403Z</time></trkpt><trkpt lat="43.3488099" lon="13.1968195"><ele>692.4000000000001</ele><time>2026-03-29T08:39:53.403Z</time></trkpt><trkpt lat="43.348746" lon="13.1969209"><ele>692.0</ele><time>2026-03-29T08:39:54.43Z</time></trkpt><trkpt lat="43.3486926" lon="13.1970175"><ele>689.0</ele><time>2026-03-29T08:39:55.414Z</time></trkpt><trkpt lat="43.3486448" lon="13.1971188"><ele>686.0</ele><time>2026-03-29T08:39:56.417Z</time></trkpt><trkpt lat="43.348623" lon="13.1972299"><ele>683.0</ele><time>2026-03-29T08:39:57.413Z</time></trkpt><trkpt lat="43.3486085" lon="13.1973464"><ele>680.0</ele><time>2026-03-29T08:39:58.427Z</time></trkpt><trkpt lat="43.3485856" lon="13.1974512"><ele>677.0</ele><time>2026-03-29T08:39:59.433Z</time></trkpt><trkpt lat="43.3485474" lon="13.1975453"><ele>674.0</ele><time>2026-03-29T08:40:00.426Z</time></trkpt><trkpt lat="43.348499" lon="13.1976371"><ele>674.0</ele><time>2026-03-29T08:40:01.424Z</time></trkpt><trkpt lat="43.3484487" lon="13.1977185"><ele>674.0</ele><time>2026-03-29T08:40:02.486Z</time></trkpt><trkpt lat="43.3483961" lon="13.1977989"><ele>674.0</ele><time>2026-03-29T08:40:03.412Z</time></trkpt><trkpt lat="43.3483448" lon="13.1978844"><ele>674.0</ele><time>2026-03-29T08:40:04.419Z</time></trkpt><trkpt lat="43.3483021" lon="13.1979699"><ele>674.0</ele><time>2026-03-29T08:40:05.422Z</time></trkpt><trkpt lat="43.3482692" lon="13.1980665"><ele>674.0</ele><time>2026-03-29T08:40:06.428Z</time></trkpt><trkpt lat="43.3482452" lon="13.1981664"><ele>674.5</ele><time>2026-03-29T08:40:07.425Z</time></trkpt><trkpt lat="43.3482257" lon="13.1982712"><ele>675.0</ele><time>2026-03-29T08:40:08.428Z</time></trkpt><trkpt lat="43.3482032" lon="13.1983842"><ele>675.5</ele><time>2026-03-29T08:40:09.403Z</time></trkpt><trkpt lat="43.3481867" lon="13.1984965"><ele>676.0</ele><time>2026-03-29T08:40:10.429Z</time></trkpt><trkpt lat="43.3481643" lon="13.1986055"><ele>676.5</ele><time>2026-03-29T08:40:11.429Z</time></trkpt><trkpt lat="43.3481311" lon="13.1987064"><ele>677.0</ele><time>2026-03-29T08:40:12.388Z</time></trkpt><trkpt lat="43.3480904" lon="13.1988068"><ele>677.0</ele><time>2026-03-29T08:40:13.423Z</time></trkpt><trkpt lat="43.3480489" lon="13.1989069"><ele>677.0</ele><time>2026-03-29T08:40:14.418Z</time></trkpt><trkpt lat="43.3480239" lon="13.1990053"><ele>677.0</ele><time>2026-03-29T08:40:15.424Z</time></trkpt><trkpt lat="43.348008" lon="13.1991164"><ele>677.0</ele><time>2026-03-29T08:40:16.427Z</time></trkpt><trkpt lat="43.3479884" lon="13.1992435"><ele>677.0</ele><time>2026-03-29T08:40:17.426Z</time></trkpt><trkpt lat="43.3479699" lon="13.1993829"><ele>677.0</ele><time>2026-03-29T08:40:18.396Z</time></trkpt><trkpt lat="43.3479481" lon="13.1995147"><ele>670.6</ele><time>2026-03-29T08:40:19.404Z</time></trkpt><trkpt lat="43.3479284" lon="13.199646"><ele>664.2</ele><time>2026-03-29T08:40:20.407Z</time></trkpt><trkpt lat="43.3479102" lon="13.1997768"><ele>657.8</ele><time>2026-03-29T08:40:21.43Z</time></trkpt><trkpt lat="43.34789" lon="13.1999119"><ele>651.4</ele><time>2026-03-29T08:40:22.425Z</time></trkpt><trkpt lat="43.3478649" lon="13.2000431"><ele>645.0</ele><time>2026-03-29T08:40:23.415Z</time></trkpt><trkpt lat="43.3478342" lon="13.2001859"><ele>645.0</ele><time>2026-03-29T08:40:24.41Z</time></trkpt><trkpt lat="43.3478029" lon="13.2003351"><ele>645.0</ele><time>2026-03-29T08:40:25.41Z</time></trkpt><trkpt lat="43.3477743" lon="13.200477"><ele>645.0</ele><time>2026-03-29T08:40:26.404Z</time></trkpt><trkpt lat="43.3477573" lon="13.2006126"><ele>645.0</ele><time>2026-03-29T08:40:27.416Z</time></trkpt><trkpt lat="43.3477447" lon="13.2007233"><ele>645.0</ele><time>2026-03-29T08:40:28.394Z</time></trkpt><trkpt lat="43.3477292" lon="13.2008228"><ele>645.3333333333334</ele><time>2026-03-29T08:40:29.411Z</time></trkpt><trkpt lat="43.3477149" lon="13.2009241"><ele>645.6666666666666</ele><time>2026-03-29T08:40:30.41Z</time></trkpt><trkpt lat="43.3476986" lon="13.2010177"><ele>646.0</ele><time>2026-03-29T08:40:31.415Z</time></trkpt><trkpt lat="43.3476876" lon="13.2011075"><ele>646.3333333333333</ele><time>2026-03-29T08:40:32.405Z</time></trkpt><trkpt lat="43.3476701" lon="13.2012676"><ele>646.6666666666666</ele><time>2026-03-29T08:40:34.42Z</time></trkpt><trkpt lat="43.3476489" lon="13.2014196"><ele>647.0</ele><time>2026-03-29T08:40:36.362Z</time></trkpt><trkpt lat="43.3476198" lon="13.2015697"><ele>647.0</ele><time>2026-03-29T08:40:38.423Z</time></trkpt><trkpt lat="43.3475751" lon="13.2017286"><ele>647.0</ele><time>2026-03-29T08:40:40.409Z</time></trkpt><trkpt lat="43.3475428" lon="13.2018748"><ele>647.0</ele><time>2026-03-29T08:40:42.394Z</time></trkpt><trkpt lat="43.3475154" lon="13.2020401"><ele>647.0</ele><time>2026-03-29T08:40:44.393Z</time></trkpt><trkpt lat="43.3475098" lon="13.2021355"><ele>647.0</ele><time>2026-03-29T08:40:45.413Z</time></trkpt><trkpt lat="43.3475087" lon="13.202242"><ele>647.6666666666666</ele><time>2026-03-29T08:40:46.415Z</time></trkpt><trkpt lat="43.3474962" lon="13.2023477"><ele>648.3333333333333</ele><time>2026-03-29T08:40:47.398Z</time></trkpt><trkpt lat="43.3474756" lon="13.2024497"><ele>649.0</ele><time>2026-03-29T08:40:48.412Z</time></trkpt><trkpt lat="43.3474461" lon="13.202553"><ele>649.6666666666666</ele><time>2026-03-29T08:40:49.407Z</time></trkpt><trkpt lat="43.3474116" lon="13.2026461"><ele>650.3333333333334</ele><time>2026-03-29T08:40:50.387Z</time></trkpt><trkpt lat="43.3473697" lon="13.2027283"><ele>651.0</ele><time>2026-03-29T08:40:51.39Z</time></trkpt><trkpt lat="43.3473336" lon="13.202824"><ele>651.0</ele><time>2026-03-29T08:40:52.411Z</time></trkpt><trkpt lat="43.3472917" lon="13.2029206"><ele>651.0</ele><time>2026-03-29T08:40:53.404Z</time></trkpt><trkpt lat="43.3472454" lon="13.2030259"><ele>651.0</ele><time>2026-03-29T08:40:54.42Z</time></trkpt><trkpt lat="43.3472068" lon="13.203145"><ele>651.0</ele><time>2026-03-29T08:40:55.406Z</time></trkpt><trkpt lat="43.3471729" lon="13.2032601"><ele>651.0</ele><time>2026-03-29T08:40:56.415Z</time></trkpt><trkpt lat="43.3471322" lon="13.2033833"><ele>644.5999999999999</ele><time>2026-03-29T08:40:57.38Z</time></trkpt><trkpt lat="43.3470901" lon="13.2035138"><ele>638.1999999999999</ele><time>2026-03-29T08:40:58.409Z</time></trkpt><trkpt lat="43.3470578" lon="13.2036396"><ele>631.8</ele><time>2026-03-29T08:40:59.395Z</time></trkpt><trkpt lat="43.3470349" lon="13.2037733"><ele>625.4</ele><time>2026-03-29T08:41:00.418Z</time></trkpt><trkpt lat="43.3470237" lon="13.2039085"><ele>619.0</ele><time>2026-03-29T08:41:01.403Z</time></trkpt><trkpt lat="43.3470108" lon="13.2040539"><ele>619.0</ele><time>2026-03-29T08:41:02.405Z</time></trkpt><trkpt lat="43.346994" lon="13.2041992"><ele>619.0</ele><time>2026-03-29T08:41:03.431Z</time></trkpt><trkpt lat="43.3469691" lon="13.204344"><ele>619.0</ele><time>2026-03-29T08:41:04.402Z</time></trkpt><trkpt lat="43.3469442" lon="13.204463"><ele>619.0</ele><time>2026-03-29T08:41:05.414Z</time></trkpt><trkpt lat="43.3469165" lon="13.2045774"><ele>619.0</ele><time>2026-03-29T08:41:06.41Z</time></trkpt><trkpt lat="43.3468876" lon="13.2046879"><ele>619.0</ele><time>2026-03-29T08:41:07.407Z</time></trkpt><trkpt lat="43.3468593" lon="13.2047956"><ele>619.0</ele><time>2026-03-29T08:41:08.416Z</time></trkpt><trkpt lat="43.346841" lon="13.2049066"><ele>619.0</ele><time>2026-03-29T08:41:09.408Z</time></trkpt><trkpt lat="43.3468302" lon="13.2050243"><ele>619.0</ele><time>2026-03-29T08:41:10.509Z</time></trkpt><trkpt lat="43.3468165" lon="13.2051414"><ele>619.0</ele><time>2026-03-29T08:41:11.416Z</time></trkpt><trkpt lat="43.3467993" lon="13.2052501"><ele>619.0</ele><time>2026-03-29T08:41:12.399Z</time></trkpt><trkpt lat="43.3467854" lon="13.2053569"><ele>619.5</ele><time>2026-03-29T08:41:13.419Z</time></trkpt><trkpt lat="43.3467732" lon="13.2054628"><ele>620.0</ele><time>2026-03-29T08:41:14.393Z</time></trkpt><trkpt lat="43.3467551" lon="13.2055659"><ele>620.5</ele><time>2026-03-29T08:41:15.418Z</time></trkpt><trkpt lat="43.3467369" lon="13.205659"><ele>621.0</ele><time>2026-03-29T08:41:16.413Z</time></trkpt><trkpt lat="43.3467164" lon="13.2057515"><ele>621.5</ele><time>2026-03-29T08:41:17.416Z</time></trkpt><trkpt lat="43.3466899" lon="13.2058544"><ele>622.0</ele><time>2026-03-29T08:41:18.402Z</time></trkpt><trkpt lat="43.3466609" lon="13.2059535"><ele>622.8333333333334</ele><time>2026-03-29T08:41:19.418Z</time></trkpt><trkpt lat="43.3466305" lon="13.2060415"><ele>623.6666666666667</ele><time>2026-03-29T08:41:20.401Z</time></trkpt><trkpt lat="43.346586" lon="13.2061829"><ele>624.5</ele><time>2026-03-29T08:41:22.403Z</time></trkpt><trkpt lat="43.3465611" lon="13.2062652"><ele>625.3333333333334</ele><time>2026-03-29T08:41:24.377Z</time></trkpt><trkpt lat="43.3465367" lon="13.2063548"><ele>626.1666666666666</ele><time>2026-03-29T08:41:37.379Z</time></trkpt><trkpt lat="43.3464984" lon="13.2064762"><ele>627.0</ele><time>2026-03-29T08:41:40.387Z</time></trkpt><trkpt lat="43.3464717" lon="13.2065595"><ele>627.8571428571429</ele><time>2026-03-29T08:41:42.369Z</time></trkpt><trkpt lat="43.3464107" lon="13.2066255"><ele>628.7142857142857</ele><time>2026-03-29T08:41:46.39Z</time></trkpt><trkpt lat="43.3463509" lon="13.2066562"><ele>629.5714285714286</ele><time>2026-03-29T08:41:50.398Z</time></trkpt><trkpt lat="43.3462647" lon="13.2066875"><ele>630.4285714285714</ele><time>2026-03-29T08:42:03.353Z</time></trkpt><trkpt lat="43.346192" lon="13.206706"><ele>631.2857142857143</ele><time>2026-03-29T08:42:05.408Z</time></trkpt><trkpt lat="43.3461272" lon="13.2067102"><ele>632.1428571428571</ele><time>2026-03-29T08:42:07.398Z</time></trkpt><trkpt lat="43.3460634" lon="13.2067174"><ele>633.0</ele><time>2026-03-29T08:42:09.392Z</time></trkpt><trkpt lat="43.3459947" lon="13.2066881"><ele>627.5</ele><time>2026-03-29T08:42:13.4Z</time></trkpt><trkpt lat="43.3459244" lon="13.2066726"><ele>622.0</ele><time>2026-03-29T08:42:18.392Z</time></trkpt><trkpt lat="43.3458567" lon="13.2066624"><ele>616.5</ele><time>2026-03-29T08:42:20.424Z</time></trkpt><trkpt lat="43.3458017" lon="13.2066079"><ele>611.0</ele><time>2026-03-29T08:42:39.414Z</time></trkpt><trkpt lat="43.345752" lon="13.2066773"><ele>605.5</ele><time>2026-03-29T08:42:44.403Z</time></trkpt><trkpt lat="43.3456935" lon="13.2068343"><ele>600.0</ele><time>2026-03-29T08:42:46.428Z</time></trkpt><trkpt lat="43.3456656" lon="13.206929"><ele>600.0</ele><time>2026-03-29T08:42:47.416Z</time></trkpt><trkpt lat="43.3456368" lon="13.2070124"><ele>600.0</ele><time>2026-03-29T08:42:48.421Z</time></trkpt><trkpt lat="43.3456011" lon="13.2071421"><ele>600.0</ele><time>2026-03-29T08:42:50.396Z</time></trkpt><trkpt lat="43.3455738" lon="13.2072655"><ele>600.0</ele><time>2026-03-29T08:42:52.401Z</time></trkpt><trkpt lat="43.345492" lon="13.2072977"><ele>600.0</ele><time>2026-03-29T08:42:54.404Z</time></trkpt><trkpt lat="43.3453974" lon="13.2073"><ele>600.0</ele><time>2026-03-29T08:42:56.41Z</time></trkpt><trkpt lat="43.3453404" lon="13.2073495"><ele>598.0</ele><time>2026-03-29T08:42:57.412Z</time></trkpt><trkpt lat="43.3452896" lon="13.2074175"><ele>596.0</ele><time>2026-03-29T08:42:58.409Z</time></trkpt><trkpt lat="43.3452372" lon="13.2074787"><ele>594.0</ele><time>2026-03-29T08:42:59.426Z</time></trkpt><trkpt lat="43.3451795" lon="13.2075223"><ele>592.0</ele><time>2026-03-29T08:43:00.407Z</time></trkpt><trkpt lat="43.3450819" lon="13.2076176"><ele>590.0</ele><time>2026-03-29T08:43:02.426Z</time></trkpt><trkpt lat="43.3449956" lon="13.2077149"><ele>588.0</ele><time>2026-03-29T08:43:04.367Z</time></trkpt><trkpt lat="43.344934" lon="13.2077681"><ele>588.0</ele><time>2026-03-29T08:43:06.398Z</time></trkpt><trkpt lat="43.344883" lon="13.2078387"><ele>588.0</ele><time>2026-03-29T08:43:18.37Z</time></trkpt><trkpt lat="43.344854" lon="13.2079242"><ele>588.0</ele><time>2026-03-29T08:43:30.376Z</time></trkpt><trkpt lat="43.3448426" lon="13.2080716"><ele>588.0</ele><time>2026-03-29T08:43:32.411Z</time></trkpt><trkpt lat="43.3448361" lon="13.2082127"><ele>588.0</ele><time>2026-03-29T08:43:34.394Z</time></trkpt><trkpt lat="43.3447804" lon="13.208355"><ele>589.1666666666666</ele><time>2026-03-29T08:43:36.367Z</time></trkpt><trkpt lat="43.3447343" lon="13.2084315"><ele>590.3333333333334</ele><time>2026-03-29T08:43:37.382Z</time></trkpt><trkpt lat="43.3446882" lon="13.2085067"><ele>591.5</ele><time>2026-03-29T08:43:38.423Z</time></trkpt><trkpt lat="43.3446349" lon="13.2085848"><ele>592.6666666666667</ele><time>2026-03-29T08:43:39.408Z</time></trkpt><trkpt lat="43.3445833" lon="13.2086749"><ele>593.8333333333334</ele><time>2026-03-29T08:43:40.419Z</time></trkpt><trkpt lat="43.3445343" lon="13.2087713"><ele>595.0</ele><time>2026-03-29T08:43:41.397Z</time></trkpt><trkpt lat="43.3444853" lon="13.2088691"><ele>593.4</ele><time>2026-03-29T08:43:42.409Z</time></trkpt><trkpt lat="43.3444445" lon="13.2089733"><ele>591.8</ele><time>2026-03-29T08:43:43.391Z</time></trkpt><trkpt lat="43.3443959" lon="13.2090773"><ele>590.2</ele><time>2026-03-29T08:43:44.414Z</time></trkpt><trkpt lat="43.3443462" lon="13.2091996"><ele>588.6</ele><time>2026-03-29T08:43:45.399Z</time></trkpt><trkpt lat="43.3442931" lon="13.2093338"><ele>587.0</ele><time>2026-03-29T08:43:46.396Z</time></trkpt><trkpt lat="43.3442357" lon="13.2094664"><ele>587.0</ele><time>2026-03-29T08:43:47.404Z</time></trkpt><trkpt lat="43.3441837" lon="13.2096089"><ele>587.0</ele><time>2026-03-29T08:43:48.427Z</time></trkpt><trkpt lat="43.3441452" lon="13.2097396"><ele>587.0</ele><time>2026-03-29T08:43:49.412Z</time></trkpt><trkpt lat="43.3441109" lon="13.209862"><ele>587.0</ele><time>2026-03-29T08:43:50.427Z</time></trkpt><trkpt lat="43.3440669" lon="13.2099766"><ele>587.0</ele><time>2026-03-29T08:43:51.404Z</time></trkpt><trkpt lat="43.3440107" lon="13.2101138"><ele>585.75</ele><time>2026-03-29T08:43:52.411Z</time></trkpt><trkpt lat="43.3439582" lon="13.2102751"><ele>584.5</ele><time>2026-03-29T08:43:53.413Z</time></trkpt><trkpt lat="43.3439113" lon="13.2104429"><ele>583.25</ele><time>2026-03-29T08:43:54.427Z</time></trkpt><trkpt lat="43.3438668" lon="13.2106106"><ele>582.0</ele><time>2026-03-29T08:43:55.408Z</time></trkpt><trkpt lat="43.3438348" lon="13.2107647"><ele>582.0</ele><time>2026-03-29T08:43:56.428Z</time></trkpt><trkpt lat="43.3438118" lon="13.2108884"><ele>582.0</ele><time>2026-03-29T08:43:57.408Z</time></trkpt><trkpt lat="43.3437961" lon="13.2109991"><ele>582.0</ele><time>2026-03-29T08:43:58.416Z</time></trkpt><trkpt lat="43.3437843" lon="13.2111089"><ele>582.0</ele><time>2026-03-29T08:43:59.428Z</time></trkpt><trkpt lat="43.3437841" lon="13.2112231"><ele>582.0</ele><time>2026-03-29T08:44:00.422Z</time></trkpt><trkpt lat="43.3437942" lon="13.2113183"><ele>582.0</ele><time>2026-03-29T08:44:01.413Z</time></trkpt><trkpt lat="43.3438103" lon="13.2114552"><ele>583.4</ele><time>2026-03-29T08:44:03.416Z</time></trkpt><trkpt lat="43.3438053" lon="13.2115581"><ele>584.8000000000001</ele><time>2026-03-29T08:44:05.377Z</time></trkpt><trkpt lat="43.3437769" lon="13.2116808"><ele>586.2</ele><time>2026-03-29T08:44:07.412Z</time></trkpt><trkpt lat="43.3437697" lon="13.2118239"><ele>587.6</ele><time>2026-03-29T08:44:09.426Z</time></trkpt><trkpt lat="43.3437449" lon="13.2119697"><ele>589.0</ele><time>2026-03-29T08:44:11.423Z</time></trkpt><trkpt lat="43.3437161" lon="13.2121275"><ele>589.0</ele><time>2026-03-29T08:44:13.42Z</time></trkpt><trkpt lat="43.3437117" lon="13.2122151"><ele>589.0</ele><time>2026-03-29T08:44:14.422Z</time></trkpt><trkpt lat="43.3437096" lon="13.212358"><ele>589.0</ele><time>2026-03-29T08:44:16.412Z</time></trkpt><trkpt lat="43.3436918" lon="13.2124487"><ele>589.0</ele><time>2026-03-29T08:44:57.411Z</time></trkpt><trkpt lat="43.3436789" lon="13.2125933"><ele>589.0</ele><time>2026-03-29T08:44:59.426Z</time></trkpt><trkpt lat="43.3436674" lon="13.2126885"><ele>589.0</ele><time>2026-03-29T08:45:00.431Z</time></trkpt><trkpt lat="43.3436566" lon="13.2127832"><ele>590.6</ele><time>2026-03-29T08:45:01.412Z</time></trkpt><trkpt lat="43.3436584" lon="13.21287"><ele>592.2</ele><time>2026-03-29T08:45:02.417Z</time></trkpt><trkpt lat="43.3436716" lon="13.2130214"><ele>593.8000000000001</ele><time>2026-03-29T08:45:04.423Z</time></trkpt><trkpt lat="43.3436585" lon="13.2131469"><ele>595.4</ele><time>2026-03-29T08:45:06.408Z</time></trkpt><trkpt lat="43.3436504" lon="13.2132796"><ele>597.0</ele><time>2026-03-29T08:45:08.402Z</time></trkpt><trkpt lat="43.3436412" lon="13.213412"><ele>598.6666666666666</ele><time>2026-03-29T08:45:10.38Z</time></trkpt><trkpt lat="43.3436039" lon="13.2135398"><ele>600.3333333333334</ele><time>2026-03-29T08:45:12.387Z</time></trkpt><trkpt lat="43.3435958" lon="13.2136307"><ele>602.0</ele><time>2026-03-29T08:45:13.418Z</time></trkpt><trkpt lat="43.3435977" lon="13.2137255"><ele>603.6666666666667</ele><time>2026-03-29T08:45:14.418Z</time></trkpt><trkpt lat="43.3436037" lon="13.2138228"><ele>605.3333333333334</ele><time>2026-03-29T08:45:15.398Z</time></trkpt><trkpt lat="43.3436082" lon="13.2139196"><ele>607.0</ele><time>2026-03-29T08:45:16.433Z</time></trkpt><trkpt lat="43.3436198" lon="13.2140833"><ele>609.8000000000001</ele><time>2026-03-29T08:45:18.422Z</time></trkpt><trkpt lat="43.3435854" lon="13.2142587"><ele>612.6</ele><time>2026-03-29T08:45:20.428Z</time></trkpt><trkpt lat="43.3435695" lon="13.2143618"><ele>615.4000000000001</ele><time>2026-03-29T08:45:21.421Z</time></trkpt><trkpt lat="43.3435634" lon="13.2144499"><ele>618.2</ele><time>2026-03-29T08:45:22.422Z</time></trkpt><trkpt lat="43.3435741" lon="13.2146148"><ele>621.0</ele><time>2026-03-29T08:45:24.389Z</time></trkpt><trkpt lat="43.3435834" lon="13.2147655"><ele>623.4</ele><time>2026-03-29T08:45:26.408Z</time></trkpt><trkpt lat="43.3435886" lon="13.2149351"><ele>625.8</ele><time>2026-03-29T08:45:28.407Z</time></trkpt><trkpt lat="43.3435949" lon="13.2150428"><ele>628.1999999999999</ele><time>2026-03-29T08:45:29.414Z</time></trkpt><trkpt lat="43.3435994" lon="13.2151671"><ele>630.6</ele><time>2026-03-29T08:45:30.424Z</time></trkpt><trkpt lat="43.3436105" lon="13.2153032"><ele>633.0</ele><time>2026-03-29T08:45:31.431Z</time></trkpt><trkpt lat="43.3436297" lon="13.21544"><ele>633.0</ele><time>2026-03-29T08:45:32.395Z</time></trkpt><trkpt lat="43.343653" lon="13.2155679"><ele>633.0</ele><time>2026-03-29T08:45:33.406Z</time></trkpt><trkpt lat="43.3436769" lon="13.2156779"><ele>633.0</ele><time>2026-03-29T08:45:34.414Z</time></trkpt><trkpt lat="43.3436966" lon="13.215782"><ele>633.0</ele><time>2026-03-29T08:45:35.399Z</time></trkpt><trkpt lat="43.3437253" lon="13.2158766"><ele>633.0</ele><time>2026-03-29T08:45:36.39Z</time></trkpt><trkpt lat="43.3437592" lon="13.2159749"><ele>633.0</ele><time>2026-03-29T08:45:37.368Z</time></trkpt><trkpt lat="43.3438024" lon="13.2160864"><ele>633.0</ele><time>2026-03-29T08:45:38.406Z</time></trkpt><trkpt lat="43.3438394" lon="13.2161824"><ele>633.0</ele><time>2026-03-29T08:45:39.422Z</time></trkpt><trkpt lat="43.3438777" lon="13.2162635"><ele>633.0</ele><time>2026-03-29T08:45:40.408Z</time></trkpt><trkpt lat="43.3439156" lon="13.2163475"><ele>633.0</ele><time>2026-03-29T08:45:41.412Z</time></trkpt><trkpt lat="43.3439597" lon="13.2164397"><ele>633.0</ele><time>2026-03-29T08:45:42.381Z</time></trkpt><trkpt lat="43.3440042" lon="13.2165221"><ele>633.0</ele><time>2026-03-29T08:45:43.381Z</time></trkpt><trkpt lat="43.3440555" lon="13.2166017"><ele>636.2</ele><time>2026-03-29T08:45:44.386Z</time></trkpt><trkpt lat="43.3441125" lon="13.2166738"><ele>639.4</ele><time>2026-03-29T08:45:45.41Z</time></trkpt><trkpt lat="43.3441595" lon="13.2167399"><ele>642.6</ele><time>2026-03-29T08:45:46.418Z</time></trkpt><trkpt lat="43.3442373" lon="13.2168288"><ele>645.8000000000001</ele><time>2026-03-29T08:45:47.372Z</time></trkpt><trkpt lat="43.3443357" lon="13.2169555"><ele>649.0</ele><time>2026-03-29T08:45:48.364Z</time></trkpt><trkpt lat="43.3444207" lon="13.2171195"><ele>649.0</ele><time>2026-03-29T08:45:49.382Z</time></trkpt><trkpt lat="43.3444865" lon="13.217268"><ele>649.0</ele><time>2026-03-29T08:45:50.352Z</time></trkpt><trkpt lat="43.3445671" lon="13.2174536"><ele>649.0</ele><time>2026-03-29T08:45:51.384Z</time></trkpt><trkpt lat="43.3446261" lon="13.2176721"><ele>645.25</ele><time>2026-03-29T08:45:52.387Z</time></trkpt><trkpt lat="43.3446915" lon="13.2178789"><ele>641.5</ele><time>2026-03-29T08:45:53.358Z</time></trkpt><trkpt lat="43.3447429" lon="13.2180699"><ele>637.75</ele><time>2026-03-29T08:45:54.353Z</time></trkpt><trkpt lat="43.344796" lon="13.218231"><ele>634.0</ele><time>2026-03-29T08:45:55.354Z</time></trkpt><trkpt lat="43.3448518" lon="13.2183786"><ele>639.8</ele><time>2026-03-29T08:45:56.356Z</time></trkpt><trkpt lat="43.3448893" lon="13.2185109"><ele>645.5999999999999</ele><time>2026-03-29T08:45:57.357Z</time></trkpt><trkpt lat="43.3449269" lon="13.2186123"><ele>651.4</ele><time>2026-03-29T08:45:58.386Z</time></trkpt><trkpt lat="43.3449715" lon="13.2187304"><ele>657.1999999999999</ele><time>2026-03-29T08:45:59.425Z</time></trkpt><trkpt lat="43.3450345" lon="13.2188866"><ele>663.0</ele><time>2026-03-29T08:46:00.403Z</time></trkpt><trkpt lat="43.3451065" lon="13.2190598"><ele>663.0</ele><time>2026-03-29T08:46:01.419Z</time></trkpt><trkpt lat="43.3451984" lon="13.2192389"><ele>663.0</ele><time>2026-03-29T08:46:02.393Z</time></trkpt><trkpt lat="43.3452753" lon="13.2193815"><ele>663.0</ele><time>2026-03-29T08:46:03.367Z</time></trkpt><trkpt lat="43.3453223" lon="13.2194993"><ele>663.0</ele><time>2026-03-29T08:46:04.371Z</time></trkpt><trkpt lat="43.3453489" lon="13.219613"><ele>663.0</ele><time>2026-03-29T08:46:05.378Z</time></trkpt><trkpt lat="43.3453442" lon="13.2197246"><ele>663.0</ele><time>2026-03-29T08:46:06.38Z</time></trkpt><trkpt lat="43.3453162" lon="13.2198369"><ele>663.0</ele><time>2026-03-29T08:46:07.37Z</time></trkpt><trkpt lat="43.3452519" lon="13.2198905"><ele>663.0</ele><time>2026-03-29T08:46:08.372Z</time></trkpt><trkpt lat="43.3451452" lon="13.2199723"><ele>663.0</ele><time>2026-03-29T08:46:09.406Z</time></trkpt><trkpt lat="43.3450499" lon="13.2200344"><ele>663.4</ele><time>2026-03-29T08:46:10.37Z</time></trkpt><trkpt lat="43.3449612" lon="13.220123"><ele>663.8</ele><time>2026-03-29T08:46:11.385Z</time></trkpt><trkpt lat="43.3448762" lon="13.2202101"><ele>664.2</ele><time>2026-03-29T08:46:12.383Z</time></trkpt><trkpt lat="43.3448147" lon="13.2202975"><ele>664.6</ele><time>2026-03-29T08:46:13.397Z</time></trkpt><trkpt lat="43.3447641" lon="13.220385"><ele>665.0</ele><time>2026-03-29T08:46:14.367Z</time></trkpt><trkpt lat="43.3447321" lon="13.2204931"><ele>665.0</ele><time>2026-03-29T08:46:15.394Z</time></trkpt><trkpt lat="43.3447315" lon="13.2206113"><ele>665.0</ele><time>2026-03-29T08:46:16.421Z</time></trkpt><trkpt lat="43.3447425" lon="13.2207411"><ele>665.0</ele><time>2026-03-29T08:46:17.402Z</time></trkpt><trkpt lat="43.3447566" lon="13.2208774"><ele>665.0</ele><time>2026-03-29T08:46:18.406Z</time></trkpt><trkpt lat="43.3447698" lon="13.2210189"><ele>665.0</ele><time>2026-03-29T08:46:19.404Z</time></trkpt><trkpt lat="43.3447851" lon="13.2211854"><ele>667.75</ele><time>2026-03-29T08:46:20.397Z</time></trkpt><trkpt lat="43.3447944" lon="13.2213709"><ele>670.5</ele><time>2026-03-29T08:46:21.393Z</time></trkpt><trkpt lat="43.3448019" lon="13.2215578"><ele>673.25</ele><time>2026-03-29T08:46:22.39Z</time></trkpt><trkpt lat="43.3448144" lon="13.2217578"><ele>676.0</ele><time>2026-03-29T08:46:23.379Z</time></trkpt><trkpt lat="43.3448349" lon="13.2219633"><ele>676.75</ele><time>2026-03-29T08:46:24.414Z</time></trkpt><trkpt lat="43.3448547" lon="13.22217"><ele>677.5</ele><time>2026-03-29T08:46:25.41Z</time></trkpt><trkpt lat="43.3448762" lon="13.2223506"><ele>678.25</ele><time>2026-03-29T08:46:26.418Z</time></trkpt><trkpt lat="43.3448975" lon="13.2225107"><ele>679.0</ele><time>2026-03-29T08:46:27.383Z</time></trkpt><trkpt lat="43.3449115" lon="13.2226618"><ele>679.2</ele><time>2026-03-29T08:46:28.397Z</time></trkpt><trkpt lat="43.3449283" lon="13.2228105"><ele>679.4000000000001</ele><time>2026-03-29T08:46:29.429Z</time></trkpt><trkpt lat="43.3449512" lon="13.2229601"><ele>679.6</ele><time>2026-03-29T08:46:30.404Z</time></trkpt><trkpt lat="43.344977" lon="13.2230892"><ele>679.8</ele><time>2026-03-29T08:46:31.408Z</time></trkpt><trkpt lat="43.344993" lon="13.2232153"><ele>680.0</ele><time>2026-03-29T08:46:32.379Z</time></trkpt><trkpt lat="43.3450056" lon="13.2233267"><ele>680.0</ele><time>2026-03-29T08:46:33.4Z</time></trkpt><trkpt lat="43.3450218" lon="13.2234287"><ele>680.0</ele><time>2026-03-29T08:46:34.417Z</time></trkpt><trkpt lat="43.3450454" lon="13.2235214"><ele>680.0</ele><time>2026-03-29T08:46:35.38Z</time></trkpt><trkpt lat="43.3450616" lon="13.223619"><ele>680.0</ele><time>2026-03-29T08:46:36.395Z</time></trkpt><trkpt lat="43.345079" lon="13.2237187"><ele>680.0</ele><time>2026-03-29T08:46:37.384Z</time></trkpt><trkpt lat="43.3450991" lon="13.2238156"><ele>680.0</ele><time>2026-03-29T08:46:38.385Z</time></trkpt><trkpt lat="43.3451058" lon="13.2239244"><ele>680.0</ele><time>2026-03-29T08:46:40.374Z</time></trkpt><trkpt lat="43.3450403" lon="13.2239686"><ele>680.0</ele><time>2026-03-29T08:46:42.385Z</time></trkpt><trkpt lat="43.3449679" lon="13.2240096"><ele>680.0</ele><time>2026-03-29T08:46:44.363Z</time></trkpt><trkpt lat="43.3449003" lon="13.2240407"><ele>680.0</ele><time>2026-03-29T08:46:46.364Z</time></trkpt><trkpt lat="43.3448219" lon="13.2240094"><ele>680.0</ele><time>2026-03-29T08:46:49.415Z</time></trkpt><trkpt lat="43.3447696" lon="13.2239225"><ele>680.0</ele><time>2026-03-29T08:46:52.412Z</time></trkpt><trkpt lat="43.3447231" lon="13.2238496"><ele>680.0</ele><time>2026-03-29T08:47:04.427Z</time></trkpt><trkpt lat="43.3446575" lon="13.2237552"><ele>679.0</ele><time>2026-03-29T08:47:07.398Z</time></trkpt><trkpt lat="43.3445888" lon="13.2236442"><ele>678.0</ele><time>2026-03-29T08:47:09.394Z</time></trkpt><trkpt lat="43.344531" lon="13.2235293"><ele>677.0</ele><time>2026-03-29T08:47:11.424Z</time></trkpt><trkpt lat="43.3444555" lon="13.2233838"><ele>676.0</ele><time>2026-03-29T08:47:13.412Z</time></trkpt><trkpt lat="43.3444104" lon="13.223287"><ele>675.0</ele><time>2026-03-29T08:47:14.424Z</time></trkpt><trkpt lat="43.3443686" lon="13.2231948"><ele>674.0</ele><time>2026-03-29T08:47:15.389Z</time></trkpt><trkpt lat="43.3443307" lon="13.2230973"><ele>673.0</ele><time>2026-03-29T08:47:16.374Z</time></trkpt><trkpt lat="43.3442987" lon="13.2230048"><ele>672.0</ele><time>2026-03-29T08:47:17.414Z</time></trkpt><trkpt lat="43.3442755" lon="13.2229177"><ele>671.0</ele><time>2026-03-29T08:47:18.417Z</time></trkpt><trkpt lat="43.3442395" lon="13.2227462"><ele>670.0</ele><time>2026-03-29T08:47:20.41Z</time></trkpt><trkpt lat="43.344222" lon="13.2226533"><ele>669.0</ele><time>2026-03-29T08:47:21.4Z</time></trkpt><trkpt lat="43.3442032" lon="13.2225605"><ele>669.0</ele><time>2026-03-29T08:47:22.398Z</time></trkpt><trkpt lat="43.3441847" lon="13.2224639"><ele>669.0</ele><time>2026-03-29T08:47:23.396Z</time></trkpt><trkpt lat="43.3441641" lon="13.2223622"><ele>669.0</ele><time>2026-03-29T08:47:24.384Z</time></trkpt><trkpt lat="43.3441411" lon="13.2222565"><ele>669.0</ele><time>2026-03-29T08:47:25.396Z</time></trkpt><trkpt lat="43.3441184" lon="13.2221544"><ele>669.0</ele><time>2026-03-29T08:47:26.404Z</time></trkpt><trkpt lat="43.3440981" lon="13.2220575"><ele>669.0</ele><time>2026-03-29T08:47:27.388Z</time></trkpt><trkpt lat="43.3440764" lon="13.2219103"><ele>667.1666666666666</ele><time>2026-03-29T08:47:29.41Z</time></trkpt><trkpt lat="43.3440722" lon="13.2217955"><ele>665.3333333333334</ele><time>2026-03-29T08:47:31.409Z</time></trkpt><trkpt lat="43.3440517" lon="13.2216761"><ele>663.5</ele><time>2026-03-29T08:47:33.409Z</time></trkpt><trkpt lat="43.3440149" lon="13.2215437"><ele>661.6666666666667</ele><time>2026-03-29T08:47:35.413Z</time></trkpt><trkpt lat="43.3439865" lon="13.2214612"><ele>659.8333333333334</ele><time>2026-03-29T08:47:36.384Z</time></trkpt><trkpt lat="43.3439726" lon="13.2213613"><ele>658.0</ele><time>2026-03-29T08:47:37.366Z</time></trkpt><trkpt lat="43.3439618" lon="13.2212472"><ele>658.3333333333334</ele><time>2026-03-29T08:47:38.364Z</time></trkpt><trkpt lat="43.3439496" lon="13.2211269"><ele>658.6666666666667</ele><time>2026-03-29T08:47:39.407Z</time></trkpt><trkpt lat="43.3439311" lon="13.22101"><ele>659.0</ele><time>2026-03-29T08:47:40.406Z</time></trkpt><trkpt lat="43.3439124" lon="13.2208863"><ele>659.3333333333334</ele><time>2026-03-29T08:47:41.395Z</time></trkpt><trkpt lat="43.343897" lon="13.2207675"><ele>659.6666666666666</ele><time>2026-03-29T08:47:42.399Z</time></trkpt><trkpt lat="43.3438775" lon="13.2206537"><ele>660.0</ele><time>2026-03-29T08:47:43.402Z</time></trkpt><trkpt lat="43.3438554" lon="13.2205517"><ele>657.8571428571429</ele><time>2026-03-29T08:47:44.407Z</time></trkpt><trkpt lat="43.3438433" lon="13.2204454"><ele>655.7142857142858</ele><time>2026-03-29T08:47:45.423Z</time></trkpt><trkpt lat="43.3438371" lon="13.2203378"><ele>653.5714285714287</ele><time>2026-03-29T08:47:46.402Z</time></trkpt><trkpt lat="43.3438283" lon="13.220239"><ele>651.4285714285714</ele><time>2026-03-29T08:47:47.407Z</time></trkpt><trkpt lat="43.3438156" lon="13.2201408"><ele>649.2857142857142</ele><time>2026-03-29T08:47:48.402Z</time></trkpt><trkpt lat="43.3437976" lon="13.2200495"><ele>647.1428571428572</ele><time>2026-03-29T08:47:49.405Z</time></trkpt><trkpt lat="43.3437841" lon="13.2199623"><ele>645.0</ele><time>2026-03-29T08:47:50.365Z</time></trkpt><trkpt lat="43.3437655" lon="13.2197947"><ele>642.1666666666666</ele><time>2026-03-29T08:47:52.416Z</time></trkpt><trkpt lat="43.3437661" lon="13.2196909"><ele>639.3333333333334</ele><time>2026-03-29T08:47:53.396Z</time></trkpt><trkpt lat="43.3437726" lon="13.2195907"><ele>636.5</ele><time>2026-03-29T08:47:54.408Z</time></trkpt><trkpt lat="43.3437819" lon="13.2194963"><ele>633.6666666666667</ele><time>2026-03-29T08:47:55.374Z</time></trkpt><trkpt lat="43.3437886" lon="13.2193881"><ele>630.8333333333334</ele><time>2026-03-29T08:47:56.397Z</time></trkpt><trkpt lat="43.3437833" lon="13.2192761"><ele>628.0</ele><time>2026-03-29T08:47:57.408Z</time></trkpt><trkpt lat="43.343762" lon="13.2191646"><ele>628.0</ele><time>2026-03-29T08:47:58.411Z</time></trkpt><trkpt lat="43.3437252" lon="13.2190566"><ele>628.0</ele><time>2026-03-29T08:47:59.412Z</time></trkpt><trkpt lat="43.3436866" lon="13.2189583"><ele>628.0</ele><time>2026-03-29T08:48:00.384Z</time></trkpt><trkpt lat="43.3436375" lon="13.2188546"><ele>628.0</ele><time>2026-03-29T08:48:01.398Z</time></trkpt><trkpt lat="43.3435973" lon="13.2187452"><ele>628.0</ele><time>2026-03-29T08:48:02.404Z</time></trkpt><trkpt lat="43.3435677" lon="13.2186293"><ele>628.0</ele><time>2026-03-29T08:48:03.409Z</time></trkpt><trkpt lat="43.3435519" lon="13.2185181"><ele>624.8333333333334</ele><time>2026-03-29T08:48:04.394Z</time></trkpt><trkpt lat="43.3435343" lon="13.2184077"><ele>621.6666666666667</ele><time>2026-03-29T08:48:05.391Z</time></trkpt><trkpt lat="43.3435127" lon="13.2182993"><ele>618.5</ele><time>2026-03-29T08:48:06.414Z</time></trkpt><trkpt lat="43.3434929" lon="13.2181929"><ele>615.3333333333334</ele><time>2026-03-29T08:48:07.411Z</time></trkpt><trkpt lat="43.3434559" lon="13.2180807"><ele>612.1666666666666</ele><time>2026-03-29T08:48:08.418Z</time></trkpt><trkpt lat="43.3434152" lon="13.2179707"><ele>609.0</ele><time>2026-03-29T08:48:09.437Z</time></trkpt><trkpt lat="43.3433636" lon="13.2178709"><ele>608.0</ele><time>2026-03-29T08:48:10.407Z</time></trkpt><trkpt lat="43.3433032" lon="13.2177822"><ele>607.0</ele><time>2026-03-29T08:48:11.389Z</time></trkpt><trkpt lat="43.3432323" lon="13.2176938"><ele>606.0</ele><time>2026-03-29T08:48:12.388Z</time></trkpt><trkpt lat="43.3431502" lon="13.2176238"><ele>605.0</ele><time>2026-03-29T08:48:13.36Z</time></trkpt><trkpt lat="43.3430702" lon="13.2175629"><ele>604.0</ele><time>2026-03-29T08:48:14.4Z</time></trkpt><trkpt lat="43.3429908" lon="13.2174937"><ele>603.8333333333334</ele><time>2026-03-29T08:48:15.411Z</time></trkpt><trkpt lat="43.3429077" lon="13.217433"><ele>603.6666666666667</ele><time>2026-03-29T08:48:16.407Z</time></trkpt><trkpt lat="43.3428244" lon="13.2173902"><ele>603.5</ele><time>2026-03-29T08:48:17.403Z</time></trkpt><trkpt lat="43.3427363" lon="13.2173696"><ele>603.3333333333334</ele><time>2026-03-29T08:48:18.411Z</time></trkpt><trkpt lat="43.3426529" lon="13.217337"><ele>603.1666666666666</ele><time>2026-03-29T08:48:19.393Z</time></trkpt><trkpt lat="43.3425741" lon="13.2172996"><ele>603.0</ele><time>2026-03-29T08:48:20.41Z</time></trkpt><trkpt lat="43.3424973" lon="13.2172607"><ele>603.0</ele><time>2026-03-29T08:48:21.439Z</time></trkpt><trkpt lat="43.342427" lon="13.2172177"><ele>603.0</ele><time>2026-03-29T08:48:22.396Z</time></trkpt><trkpt lat="43.3423531" lon="13.2171629"><ele>603.0</ele><time>2026-03-29T08:48:23.415Z</time></trkpt><trkpt lat="43.3422727" lon="13.2171028"><ele>603.0</ele><time>2026-03-29T08:48:24.413Z</time></trkpt><trkpt lat="43.3421862" lon="13.2170402"><ele>603.0</ele><time>2026-03-29T08:48:25.397Z</time></trkpt><trkpt lat="43.3420956" lon="13.2169795"><ele>600.1999999999999</ele><time>2026-03-29T08:48:26.414Z</time></trkpt><trkpt lat="43.3420092" lon="13.2169244"><ele>597.4</ele><time>2026-03-29T08:48:27.417Z</time></trkpt><trkpt lat="43.3419278" lon="13.2168787"><ele>594.5999999999999</ele><time>2026-03-29T08:48:28.41Z</time></trkpt><trkpt lat="43.3418498" lon="13.216827"><ele>591.8</ele><time>2026-03-29T08:48:29.406Z</time></trkpt><trkpt lat="43.3417706" lon="13.2167697"><ele>589.0</ele><time>2026-03-29T08:48:30.403Z</time></trkpt><trkpt lat="43.3416887" lon="13.216713"><ele>589.0</ele><time>2026-03-29T08:48:31.404Z</time></trkpt><trkpt lat="43.3415972" lon="13.2166513"><ele>589.0</ele><time>2026-03-29T08:48:32.355Z</time></trkpt><trkpt lat="43.3415064" lon="13.2165871"><ele>589.0</ele><time>2026-03-29T08:48:33.357Z</time></trkpt><trkpt lat="43.3414144" lon="13.2165235"><ele>589.0</ele><time>2026-03-29T08:48:34.401Z</time></trkpt><trkpt lat="43.3413325" lon="13.216463"><ele>589.0</ele><time>2026-03-29T08:48:35.404Z</time></trkpt><trkpt lat="43.3412565" lon="13.2164086"><ele>588.0</ele><time>2026-03-29T08:48:36.39Z</time></trkpt><trkpt lat="43.3411784" lon="13.2163664"><ele>587.0</ele><time>2026-03-29T08:48:37.388Z</time></trkpt><trkpt lat="43.341095" lon="13.2163398"><ele>586.0</ele><time>2026-03-29T08:48:38.363Z</time></trkpt><trkpt lat="43.341013" lon="13.2163251"><ele>585.0</ele><time>2026-03-29T08:48:39.426Z</time></trkpt><trkpt lat="43.3409392" lon="13.2163105"><ele>584.0</ele><time>2026-03-29T08:48:40.41Z</time></trkpt><trkpt lat="43.3408673" lon="13.2162749"><ele>583.0</ele><time>2026-03-29T08:48:41.396Z</time></trkpt><trkpt lat="43.3407951" lon="13.2162176"><ele>583.0</ele><time>2026-03-29T08:48:42.412Z</time></trkpt><trkpt lat="43.3407242" lon="13.2161507"><ele>583.0</ele><time>2026-03-29T08:48:43.402Z</time></trkpt><trkpt lat="43.3406501" lon="13.2160896"><ele>583.0</ele><time>2026-03-29T08:48:44.407Z</time></trkpt><trkpt lat="43.3405724" lon="13.2160178"><ele>583.0</ele><time>2026-03-29T08:48:45.412Z</time></trkpt><trkpt lat="43.3405051" lon="13.2159604"><ele>583.0</ele><time>2026-03-29T08:48:46.399Z</time></trkpt><trkpt lat="43.3404423" lon="13.2159133"><ele>583.0</ele><time>2026-03-29T08:48:47.388Z</time></trkpt><trkpt lat="43.3403818" lon="13.2158857"><ele>581.8333333333334</ele><time>2026-03-29T08:48:48.405Z</time></trkpt><trkpt lat="43.3403146" lon="13.2158785"><ele>580.6666666666667</ele><time>2026-03-29T08:48:49.398Z</time></trkpt><trkpt lat="43.3402522" lon="13.2158667"><ele>579.5</ele><time>2026-03-29T08:48:50.395Z</time></trkpt><trkpt lat="43.3401515" lon="13.2157808"><ele>578.3333333333334</ele><time>2026-03-29T08:48:52.406Z</time></trkpt><trkpt lat="43.3401038" lon="13.2156961"><ele>577.1666666666666</ele><time>2026-03-29T08:48:53.374Z</time></trkpt><trkpt lat="43.3400511" lon="13.2156125"><ele>576.0</ele><time>2026-03-29T08:48:54.414Z</time></trkpt><trkpt lat="43.3399975" lon="13.215521"><ele>574.8333333333334</ele><time>2026-03-29T08:48:55.357Z</time></trkpt><trkpt lat="43.3399434" lon="13.2154438"><ele>573.6666666666666</ele><time>2026-03-29T08:48:56.388Z</time></trkpt><trkpt lat="43.339885" lon="13.2153695"><ele>572.5</ele><time>2026-03-29T08:48:57.393Z</time></trkpt><trkpt lat="43.3398242" lon="13.2152982"><ele>571.3333333333333</ele><time>2026-03-29T08:48:58.396Z</time></trkpt><trkpt lat="43.3397664" lon="13.2152368"><ele>570.1666666666666</ele><time>2026-03-29T08:48:59.392Z</time></trkpt><trkpt lat="43.3397195" lon="13.2151585"><ele>569.0</ele><time>2026-03-29T08:49:00.394Z</time></trkpt><trkpt lat="43.33968" lon="13.2150613"><ele>568.1666666666666</ele><time>2026-03-29T08:49:01.407Z</time></trkpt><trkpt lat="43.3396435" lon="13.2149506"><ele>567.3333333333333</ele><time>2026-03-29T08:49:02.415Z</time></trkpt><trkpt lat="43.3396023" lon="13.2148507"><ele>566.5</ele><time>2026-03-29T08:49:03.398Z</time></trkpt><trkpt lat="43.339549" lon="13.2147686"><ele>565.6666666666666</ele><time>2026-03-29T08:49:04.397Z</time></trkpt><trkpt lat="43.3394969" lon="13.2147061"><ele>564.8333333333334</ele><time>2026-03-29T08:49:05.378Z</time></trkpt><trkpt lat="43.3394315" lon="13.2146533"><ele>564.0</ele><time>2026-03-29T08:49:07.412Z</time></trkpt><trkpt lat="43.3393975" lon="13.2145749"><ele>561.8</ele><time>2026-03-29T08:49:11.404Z</time></trkpt><trkpt lat="43.339388" lon="13.2144659"><ele>559.5999999999999</ele><time>2026-03-29T08:49:17.387Z</time></trkpt><trkpt lat="43.3394286" lon="13.2143649"><ele>557.4</ele><time>2026-03-29T08:49:21.397Z</time></trkpt><trkpt lat="43.3393656" lon="13.2142824"><ele>555.1999999999999</ele><time>2026-03-29T08:49:28.396Z</time></trkpt><trkpt lat="43.3392989" lon="13.2142585"><ele>553.0</ele><time>2026-03-29T08:49:30.4Z</time></trkpt><trkpt lat="43.3391716" lon="13.2142987"><ele>553.0</ele><time>2026-03-29T08:49:32.398Z</time></trkpt><trkpt lat="43.3390972" lon="13.2143082"><ele>553.0</ele><time>2026-03-29T08:49:33.368Z</time></trkpt><trkpt lat="43.339012" lon="13.2142883"><ele>553.0</ele><time>2026-03-29T08:49:34.408Z</time></trkpt><trkpt lat="43.3389169" lon="13.2142549"><ele>553.0</ele><time>2026-03-29T08:49:35.425Z</time></trkpt><trkpt lat="43.338818" lon="13.2142192"><ele>553.0</ele><time>2026-03-29T08:49:36.419Z</time></trkpt><trkpt lat="43.3387259" lon="13.2142009"><ele>552.0</ele><time>2026-03-29T08:49:37.406Z</time></trkpt><trkpt lat="43.3386353" lon="13.2141842"><ele>551.0</ele><time>2026-03-29T08:49:38.365Z</time></trkpt><trkpt lat="43.3385311" lon="13.2141635"><ele>550.0</ele><time>2026-03-29T08:49:39.414Z</time></trkpt><trkpt lat="43.3383976" lon="13.2141363"><ele>549.0</ele><time>2026-03-29T08:49:40.39Z</time></trkpt><trkpt lat="43.3382544" lon="13.2141319"><ele>549.0</ele><time>2026-03-29T08:49:41.417Z</time></trkpt><trkpt lat="43.3381033" lon="13.2141356"><ele>549.0</ele><time>2026-03-29T08:49:42.408Z</time></trkpt><trkpt lat="43.337965" lon="13.2141468"><ele>549.0</ele><time>2026-03-29T08:49:43.42Z</time></trkpt><trkpt lat="43.337836" lon="13.2141479"><ele>549.0</ele><time>2026-03-29T08:49:44.403Z</time></trkpt><trkpt lat="43.3377244" lon="13.21414"><ele>548.6666666666666</ele><time>2026-03-29T08:49:45.413Z</time></trkpt><trkpt lat="43.3376218" lon="13.2141248"><ele>548.3333333333334</ele><time>2026-03-29T08:49:46.411Z</time></trkpt><trkpt lat="43.3375315" lon="13.2141237"><ele>548.0</ele><time>2026-03-29T08:49:47.412Z</time></trkpt><trkpt lat="43.3374467" lon="13.2141209"><ele>547.6666666666667</ele><time>2026-03-29T08:49:48.411Z</time></trkpt><trkpt lat="43.3373736" lon="13.2141325"><ele>547.3333333333334</ele><time>2026-03-29T08:49:49.397Z</time></trkpt><trkpt lat="43.3373078" lon="13.2141477"><ele>547.0</ele><time>2026-03-29T08:49:50.402Z</time></trkpt><trkpt lat="43.33724" lon="13.2141869"><ele>546.8333333333334</ele><time>2026-03-29T08:50:09.402Z</time></trkpt><trkpt lat="43.3371687" lon="13.2142149"><ele>546.6666666666667</ele><time>2026-03-29T08:50:43.389Z</time></trkpt><trkpt lat="43.3371015" lon="13.214253"><ele>546.5</ele><time>2026-03-29T08:52:38.365Z</time></trkpt><trkpt lat="43.3370398" lon="13.2142121"><ele>546.3333333333334</ele><time>2026-03-29T08:52:44.4Z</time></trkpt><trkpt lat="43.3370095" lon="13.2141072"><ele>546.1666666666666</ele><time>2026-03-29T08:52:46.406Z</time></trkpt><trkpt lat="43.3370053" lon="13.2140031"><ele>546.0</ele><time>2026-03-29T08:52:47.38Z</time></trkpt><trkpt lat="43.3369968" lon="13.2138789"><ele>548.5</ele><time>2026-03-29T08:52:48.414Z</time></trkpt><trkpt lat="43.3369965" lon="13.2137538"><ele>551.0</ele><time>2026-03-29T08:52:49.396Z</time></trkpt><trkpt lat="43.336987" lon="13.2136345"><ele>553.5</ele><time>2026-03-29T08:52:50.39Z</time></trkpt><trkpt lat="43.3369762" lon="13.2135476"><ele>556.0</ele><time>2026-03-29T08:52:51.412Z</time></trkpt><trkpt lat="43.3369528" lon="13.2134294"><ele>558.5</ele><time>2026-03-29T08:52:53.404Z</time></trkpt><trkpt lat="43.3368547" lon="13.2134605"><ele>561.0</ele><time>2026-03-29T08:53:22.394Z</time></trkpt><trkpt lat="43.3367721" lon="13.2135024"><ele>561.0</ele><time>2026-03-29T08:53:55.416Z</time></trkpt><trkpt lat="43.3367007" lon="13.2134951"><ele>561.0</ele><time>2026-03-29T08:54:05.411Z</time></trkpt><trkpt lat="43.3366366" lon="13.213451"><ele>561.0</ele><time>2026-03-29T08:54:10.376Z</time></trkpt><trkpt lat="43.3365689" lon="13.213427"><ele>561.0</ele><time>2026-03-29T08:54:11.428Z</time></trkpt><trkpt lat="43.3364732" lon="13.2134004"><ele>561.0</ele><time>2026-03-29T08:54:12.422Z</time></trkpt><trkpt lat="43.3363886" lon="13.2133968"><ele>561.0</ele><time>2026-03-29T08:54:13.415Z</time></trkpt><trkpt lat="43.3363066" lon="13.2134131"><ele>565.25</ele><time>2026-03-29T08:54:14.428Z</time></trkpt><trkpt lat="43.336219" lon="13.2134284"><ele>569.5</ele><time>2026-03-29T08:54:15.419Z</time></trkpt><trkpt lat="43.3361141" lon="13.2134415"><ele>573.75</ele><time>2026-03-29T08:54:16.383Z</time></trkpt><trkpt lat="43.3359871" lon="13.2134741"><ele>578.0</ele><time>2026-03-29T08:54:17.394Z</time></trkpt><trkpt lat="43.3358562" lon="13.2135006"><ele>578.0</ele><time>2026-03-29T08:54:18.39Z</time></trkpt><trkpt lat="43.3357161" lon="13.2135174"><ele>578.0</ele><time>2026-03-29T08:54:19.422Z</time></trkpt><trkpt lat="43.3355712" lon="13.2135447"><ele>578.0</ele><time>2026-03-29T08:54:20.429Z</time></trkpt><trkpt lat="43.3354215" lon="13.2135693"><ele>578.0</ele><time>2026-03-29T08:54:21.415Z</time></trkpt><trkpt lat="43.3352742" lon="13.2135763"><ele>577.8</ele><time>2026-03-29T08:54:22.433Z</time></trkpt><trkpt lat="43.3351466" lon="13.2135635"><ele>577.5999999999999</ele><time>2026-03-29T08:54:23.423Z</time></trkpt><trkpt lat="43.3350509" lon="13.2135306"><ele>577.4000000000001</ele><time>2026-03-29T08:54:24.405Z</time></trkpt><trkpt lat="43.3349799" lon="13.213457"><ele>577.2</ele><time>2026-03-29T08:54:26.411Z</time></trkpt><trkpt lat="43.3349752" lon="13.213313"><ele>577.0</ele><time>2026-03-29T08:54:28.415Z</time></trkpt><trkpt lat="43.335007" lon="13.2132203"><ele>580.6</ele><time>2026-03-29T08:54:29.429Z</time></trkpt><trkpt lat="43.3350476" lon="13.2131371"><ele>584.2</ele><time>2026-03-29T08:54:30.431Z</time></trkpt><trkpt lat="43.3350213" lon="13.212978"><ele>587.8</ele><time>2026-03-29T08:54:32.41Z</time></trkpt><trkpt lat="43.3349763" lon="13.2128659"><ele>591.4</ele><time>2026-03-29T08:54:33.411Z</time></trkpt><trkpt lat="43.3349222" lon="13.2127594"><ele>595.0</ele><time>2026-03-29T08:54:34.406Z</time></trkpt><trkpt lat="43.3348724" lon="13.2126797"><ele>595.0</ele><time>2026-03-29T08:54:35.431Z</time></trkpt><trkpt lat="43.3348199" lon="13.2125911"><ele>595.0</ele><time>2026-03-29T08:54:37.41Z</time></trkpt><trkpt lat="43.3349217" lon="13.2125635"><ele>595.0</ele><time>2026-03-29T08:54:39.405Z</time></trkpt><trkpt lat="43.3349942" lon="13.2125846"><ele>595.0</ele><time>2026-03-29T08:54:40.414Z</time></trkpt><trkpt lat="43.3351169" lon="13.2125339"><ele>595.0</ele><time>2026-03-29T08:54:42.41Z</time></trkpt><trkpt lat="43.3351551" lon="13.2124633"><ele>595.0</ele><time>2026-03-29T08:54:43.388Z</time></trkpt><trkpt lat="43.3351723" lon="13.2123744"><ele>595.0</ele><time>2026-03-29T08:54:44.424Z</time></trkpt><trkpt lat="43.3352037" lon="13.212296"><ele>595.0</ele><time>2026-03-29T08:54:45.418Z</time></trkpt><trkpt lat="43.3352596" lon="13.2122327"><ele>595.0</ele><time>2026-03-29T08:54:46.43Z</time></trkpt><trkpt lat="43.335328" lon="13.2121619"><ele>595.0</ele><time>2026-03-29T08:54:47.414Z</time></trkpt><trkpt lat="43.3353949" lon="13.2120879"><ele>595.0</ele><time>2026-03-29T08:54:48.415Z</time></trkpt><trkpt lat="43.3354661" lon="13.2120161"><ele>597.8333333333334</ele><time>2026-03-29T08:54:49.421Z</time></trkpt><trkpt lat="43.3355381" lon="13.2119361"><ele>600.6666666666667</ele><time>2026-03-29T08:54:50.409Z</time></trkpt><trkpt lat="43.3355789" lon="13.2118426"><ele>603.5</ele><time>2026-03-29T08:54:51.403Z</time></trkpt><trkpt lat="43.3355918" lon="13.2117548"><ele>606.3333333333334</ele><time>2026-03-29T08:54:52.421Z</time></trkpt><trkpt lat="43.3355741" lon="13.2116618"><ele>609.1666666666666</ele><time>2026-03-29T08:54:53.422Z</time></trkpt><trkpt lat="43.3355716" lon="13.2114952"><ele>612.0</ele><time>2026-03-29T08:54:55.426Z</time></trkpt><trkpt lat="43.3355992" lon="13.2113885"><ele>614.8333333333334</ele><time>2026-03-29T08:54:56.417Z</time></trkpt><trkpt lat="43.3356182" lon="13.2112914"><ele>617.6666666666666</ele><time>2026-03-29T08:54:57.403Z</time></trkpt><trkpt lat="43.3356187" lon="13.2111662"><ele>620.5</ele><time>2026-03-29T08:54:58.412Z</time></trkpt><trkpt lat="43.3355903" lon="13.211027"><ele>623.3333333333333</ele><time>2026-03-29T08:54:59.415Z</time></trkpt><trkpt lat="43.3355411" lon="13.2109182"><ele>626.1666666666666</ele><time>2026-03-29T08:55:00.404Z</time></trkpt><trkpt lat="43.3354845" lon="13.2108751"><ele>629.0</ele><time>2026-03-29T08:55:12.426Z</time></trkpt><trkpt lat="43.3354546" lon="13.2107875"><ele>629.0</ele><time>2026-03-29T08:55:15.394Z</time></trkpt><trkpt lat="43.3354225" lon="13.2107127"><ele>629.0</ele><time>2026-03-29T08:55:24.427Z</time></trkpt><trkpt lat="43.3353959" lon="13.2106183"><ele>629.0</ele><time>2026-03-29T08:55:26.421Z</time></trkpt><trkpt lat="43.3353745" lon="13.2104826"><ele>629.0</ele><time>2026-03-29T08:55:28.401Z</time></trkpt><trkpt lat="43.3353767" lon="13.2103646"><ele>629.0</ele><time>2026-03-29T08:55:30.417Z</time></trkpt><trkpt lat="43.3354016" lon="13.2102796"><ele>629.0</ele><time>2026-03-29T08:55:49.433Z</time></trkpt><trkpt lat="43.3354707" lon="13.2102464"><ele>630.5714285714286</ele><time>2026-03-29T08:55:53.417Z</time></trkpt><trkpt lat="43.3355205" lon="13.2101913"><ele>632.1428571428572</ele><time>2026-03-29T08:55:56.403Z</time></trkpt><trkpt lat="43.3355847" lon="13.2101537"><ele>633.7142857142858</ele><time>2026-03-29T08:55:59.43Z</time></trkpt><trkpt lat="43.3356489" lon="13.2101701"><ele>635.2857142857142</ele><time>2026-03-29T08:56:02.42Z</time></trkpt><trkpt lat="43.3357193" lon="13.210192"><ele>636.8571428571429</ele><time>2026-03-29T08:56:06.434Z</time></trkpt><trkpt lat="43.3357946" lon="13.210191"><ele>638.4285714285714</ele><time>2026-03-29T08:56:09.393Z</time></trkpt><trkpt lat="43.3358455" lon="13.210135"><ele>640.0</ele><time>2026-03-29T08:56:13.39Z</time></trkpt><trkpt lat="43.3359111" lon="13.2100475"><ele>644.8333333333334</ele><time>2026-03-29T08:56:17.408Z</time></trkpt><trkpt lat="43.3359012" lon="13.2099565"><ele>649.6666666666667</ele><time>2026-03-29T08:56:50.383Z</time></trkpt><trkpt lat="43.3359162" lon="13.2098543"><ele>654.5</ele><time>2026-03-29T08:58:03.434Z</time></trkpt><trkpt lat="43.3359706" lon="13.2097648"><ele>659.3333333333334</ele><time>2026-03-29T08:58:07.411Z</time></trkpt><trkpt lat="43.3359718" lon="13.2096623"><ele>664.1666666666666</ele><time>2026-03-29T08:58:10.414Z</time></trkpt><trkpt lat="43.3359641" lon="13.2095637"><ele>669.0</ele><time>2026-03-29T08:58:13.401Z</time></trkpt><trkpt lat="43.3359615" lon="13.2094509"><ele>673.0</ele><time>2026-03-29T08:58:26.42Z</time></trkpt><trkpt lat="43.3359031" lon="13.2094164"><ele>677.0</ele><time>2026-03-29T08:59:06.388Z</time></trkpt><trkpt lat="43.3359455" lon="13.2094839"><ele>681.0</ele><time>2026-03-29T08:59:34.403Z</time></trkpt><trkpt lat="43.3360176" lon="13.2095088"><ele>685.0</ele><time>2026-03-29T08:59:40.421Z</time></trkpt><trkpt lat="43.3360739" lon="13.2094511"><ele>689.0</ele><time>2026-03-29T09:00:29.389Z</time></trkpt><trkpt lat="43.3361382" lon="13.2094472"><ele>693.0</ele><time>2026-03-29T09:32:49.406Z</time></trkpt><trkpt lat="43.3361905" lon="13.2093989"><ele>697.0</ele><time>2026-03-29T09:32:52.408Z</time></trkpt><trkpt lat="43.3362803" lon="13.2093344"><ele>697.0</ele><time>2026-03-29T09:32:54.411Z</time></trkpt><trkpt lat="43.3363826" lon="13.2092796"><ele>697.0</ele><time>2026-03-29T09:32:56.375Z</time></trkpt><trkpt lat="43.3364724" lon="13.2092342"><ele>697.0</ele><time>2026-03-29T09:32:58.371Z</time></trkpt><trkpt lat="43.3365544" lon="13.2091201"><ele>697.0</ele><time>2026-03-29T09:33:00.358Z</time></trkpt><trkpt lat="43.3366119" lon="13.209039"><ele>697.0</ele><time>2026-03-29T09:33:01.36Z</time></trkpt><trkpt lat="43.3366716" lon="13.2089451"><ele>701.3333333333334</ele><time>2026-03-29T09:33:02.361Z</time></trkpt><trkpt lat="43.3367336" lon="13.2089152"><ele>705.6666666666667</ele><time>2026-03-29T09:33:03.36Z</time></trkpt><trkpt lat="43.3368029" lon="13.2088927"><ele>710.0</ele><time>2026-03-29T09:33:04.383Z</time></trkpt><trkpt lat="43.336879" lon="13.2088327"><ele>714.3333333333334</ele><time>2026-03-29T09:33:06.37Z</time></trkpt><trkpt lat="43.3369617" lon="13.2088068"><ele>718.6666666666666</ele><time>2026-03-29T09:33:07.384Z</time></trkpt><trkpt lat="43.3370269" lon="13.2087763"><ele>723.0</ele><time>2026-03-29T09:33:08.375Z</time></trkpt><trkpt lat="43.337101" lon="13.2087245"><ele>723.0</ele><time>2026-03-29T09:33:09.37Z</time></trkpt><trkpt lat="43.337173" lon="13.2086789"><ele>723.0</ele><time>2026-03-29T09:33:10.376Z</time></trkpt><trkpt lat="43.3372375" lon="13.2086354"><ele>723.0</ele><time>2026-03-29T09:33:11.393Z</time></trkpt><trkpt lat="43.337312" lon="13.2086018"><ele>723.0</ele><time>2026-03-29T09:33:12.378Z</time></trkpt><trkpt lat="43.3373945" lon="13.2085644"><ele>723.0</ele><time>2026-03-29T09:33:13.382Z</time></trkpt><trkpt lat="43.3374761" lon="13.2085231"><ele>723.0</ele><time>2026-03-29T09:33:14.374Z</time></trkpt><trkpt lat="43.3375449" lon="13.2084872"><ele>724.1666666666666</ele><time>2026-03-29T09:33:15.388Z</time></trkpt><trkpt lat="43.3376104" lon="13.2084579"><ele>725.3333333333334</ele><time>2026-03-29T09:33:16.381Z</time></trkpt><trkpt lat="43.3376746" lon="13.2084123"><ele>726.5</ele><time>2026-03-29T09:33:17.429Z</time></trkpt><trkpt lat="43.3377552" lon="13.2083608"><ele>727.6666666666667</ele><time>2026-03-29T09:33:18.411Z</time></trkpt><trkpt lat="43.3378418" lon="13.2082958"><ele>728.8333333333334</ele><time>2026-03-29T09:33:19.406Z</time></trkpt><trkpt lat="43.3379155" lon="13.2082259"><ele>730.0</ele><time>2026-03-29T09:33:20.402Z</time></trkpt><trkpt lat="43.3380045" lon="13.208147"><ele>725.5</ele><time>2026-03-29T09:33:21.383Z</time></trkpt><trkpt lat="43.3380756" lon="13.2080775"><ele>721.0</ele><time>2026-03-29T09:33:22.407Z</time></trkpt><trkpt lat="43.3381309" lon="13.2080114"><ele>716.5</ele><time>2026-03-29T09:33:23.39Z</time></trkpt><trkpt lat="43.3382149" lon="13.2079537"><ele>712.0</ele><time>2026-03-29T09:33:24.396Z</time></trkpt><trkpt lat="43.3382966" lon="13.2079278"><ele>707.5</ele><time>2026-03-29T09:33:25.438Z</time></trkpt><trkpt lat="43.3383779" lon="13.2078869"><ele>703.0</ele><time>2026-03-29T09:33:26.397Z</time></trkpt><trkpt lat="43.3384649" lon="13.2078493"><ele>703.0</ele><time>2026-03-29T09:33:27.378Z</time></trkpt><trkpt lat="43.338544" lon="13.2078361"><ele>703.0</ele><time>2026-03-29T09:33:28.371Z</time></trkpt><trkpt lat="43.3386477" lon="13.2078276"><ele>703.0</ele><time>2026-03-29T09:33:29.415Z</time></trkpt><trkpt lat="43.3387326" lon="13.2078221"><ele>703.0</ele><time>2026-03-29T09:33:30.382Z</time></trkpt><trkpt lat="43.3388255" lon="13.207818"><ele>703.0</ele><time>2026-03-29T09:33:31.415Z</time></trkpt><trkpt lat="43.3389136" lon="13.2078239"><ele>700.8333333333334</ele><time>2026-03-29T09:33:32.367Z</time></trkpt><trkpt lat="43.3390026" lon="13.2078408"><ele>698.6666666666667</ele><time>2026-03-29T09:33:33.413Z</time></trkpt><trkpt lat="43.3390788" lon="13.207862"><ele>696.5</ele><time>2026-03-29T09:33:34.363Z</time></trkpt><trkpt lat="43.3391637" lon="13.2078724"><ele>694.3333333333334</ele><time>2026-03-29T09:33:35.42Z</time></trkpt><trkpt lat="43.3392447" lon="13.2078727"><ele>692.1666666666666</ele><time>2026-03-29T09:33:36.402Z</time></trkpt><trkpt lat="43.3393281" lon="13.2078671"><ele>690.0</ele><time>2026-03-29T09:33:37.403Z</time></trkpt><trkpt lat="43.3394082" lon="13.2078468"><ele>690.0</ele><time>2026-03-29T09:33:38.389Z</time></trkpt><trkpt lat="43.3394795" lon="13.2077918"><ele>690.0</ele><time>2026-03-29T09:33:39.381Z</time></trkpt><trkpt lat="43.3395475" lon="13.2077336"><ele>690.0</ele><time>2026-03-29T09:33:40.386Z</time></trkpt><trkpt lat="43.3396146" lon="13.2076803"><ele>690.0</ele><time>2026-03-29T09:33:41.412Z</time></trkpt><trkpt lat="43.3396931" lon="13.2076104"><ele>690.0</ele><time>2026-03-29T09:33:42.404Z</time></trkpt><trkpt lat="43.339771" lon="13.2075621"><ele>690.0</ele><time>2026-03-29T09:33:43.366Z</time></trkpt><trkpt lat="43.3398511" lon="13.207505"><ele>689.5</ele><time>2026-03-29T09:33:44.387Z</time></trkpt><trkpt lat="43.3399213" lon="13.2074394"><ele>689.0</ele><time>2026-03-29T09:33:45.391Z</time></trkpt><trkpt lat="43.3399853" lon="13.2073647"><ele>688.5</ele><time>2026-03-29T09:33:46.384Z</time></trkpt><trkpt lat="43.3400316" lon="13.2072849"><ele>688.0</ele><time>2026-03-29T09:33:47.393Z</time></trkpt><trkpt lat="43.3400567" lon="13.2072007"><ele>687.5</ele><time>2026-03-29T09:33:48.418Z</time></trkpt><trkpt lat="43.3400853" lon="13.2071034"><ele>687.0</ele><time>2026-03-29T09:33:49.401Z</time></trkpt><trkpt lat="43.3400865" lon="13.2069837"><ele>687.0</ele><time>2026-03-29T09:33:50.398Z</time></trkpt><trkpt lat="43.3400898" lon="13.2068457"><ele>687.0</ele><time>2026-03-29T09:33:51.398Z</time></trkpt><trkpt lat="43.3400896" lon="13.206691"><ele>687.0</ele><time>2026-03-29T09:33:52.391Z</time></trkpt><trkpt lat="43.3400903" lon="13.2065273"><ele>687.0</ele><time>2026-03-29T09:33:53.378Z</time></trkpt><trkpt lat="43.3400853" lon="13.2063631"><ele>686.8</ele><time>2026-03-29T09:33:54.402Z</time></trkpt><trkpt lat="43.3400789" lon="13.2062154"><ele>686.6</ele><time>2026-03-29T09:33:55.411Z</time></trkpt><trkpt lat="43.3400668" lon="13.2060779"><ele>686.4</ele><time>2026-03-29T09:33:56.417Z</time></trkpt><trkpt lat="43.3400538" lon="13.205936"><ele>686.1999999999999</ele><time>2026-03-29T09:33:57.376Z</time></trkpt><trkpt lat="43.3400334" lon="13.2057962"><ele>686.0</ele><time>2026-03-29T09:33:58.392Z</time></trkpt><trkpt lat="43.3400064" lon="13.2056434"><ele>685.0</ele><time>2026-03-29T09:33:59.402Z</time></trkpt><trkpt lat="43.3399738" lon="13.205483"><ele>684.0</ele><time>2026-03-29T09:34:00.388Z</time></trkpt><trkpt lat="43.3399483" lon="13.2053356"><ele>683.0</ele><time>2026-03-29T09:34:01.4Z</time></trkpt><trkpt lat="43.339925" lon="13.2051919"><ele>682.0</ele><time>2026-03-29T09:34:02.404Z</time></trkpt><trkpt lat="43.3399065" lon="13.2050436"><ele>681.0</ele><time>2026-03-29T09:34:03.399Z</time></trkpt><trkpt lat="43.339885" lon="13.2048979"><ele>680.8333333333334</ele><time>2026-03-29T09:34:04.409Z</time></trkpt><trkpt lat="43.3398545" lon="13.2047689"><ele>680.6666666666666</ele><time>2026-03-29T09:34:05.417Z</time></trkpt><trkpt lat="43.3398345" lon="13.204663"><ele>680.5</ele><time>2026-03-29T09:34:06.409Z</time></trkpt><trkpt lat="43.3398195" lon="13.2045541"><ele>680.3333333333333</ele><time>2026-03-29T09:34:07.42Z</time></trkpt><trkpt lat="43.3398213" lon="13.2044486"><ele>680.1666666666666</ele><time>2026-03-29T09:34:08.423Z</time></trkpt><trkpt lat="43.3398425" lon="13.2043364"><ele>680.0</ele><time>2026-03-29T09:34:09.428Z</time></trkpt><trkpt lat="43.3398444" lon="13.2042188"><ele>680.0</ele><time>2026-03-29T09:34:10.403Z</time></trkpt><trkpt lat="43.3398179" lon="13.2040919"><ele>680.0</ele><time>2026-03-29T09:34:11.396Z</time></trkpt><trkpt lat="43.3397861" lon="13.2039683"><ele>680.0</ele><time>2026-03-29T09:34:12.399Z</time></trkpt><trkpt lat="43.3397567" lon="13.2038562"><ele>680.0</ele><time>2026-03-29T09:34:13.386Z</time></trkpt><trkpt lat="43.3397274" lon="13.203735"><ele>680.0</ele><time>2026-03-29T09:34:14.405Z</time></trkpt><trkpt lat="43.3397066" lon="13.2036065"><ele>682.3333333333333</ele><time>2026-03-29T09:34:15.403Z</time></trkpt><trkpt lat="43.3396842" lon="13.2034906"><ele>684.6666666666666</ele><time>2026-03-29T09:34:16.366Z</time></trkpt><trkpt lat="43.3396456" lon="13.2033953"><ele>687.0</ele><time>2026-03-29T09:34:17.402Z</time></trkpt><trkpt lat="43.3395989" lon="13.2033077"><ele>689.3333333333334</ele><time>2026-03-29T09:34:18.429Z</time></trkpt><trkpt lat="43.3395414" lon="13.2032181"><ele>691.6666666666667</ele><time>2026-03-29T09:34:19.414Z</time></trkpt><trkpt lat="43.3394907" lon="13.2031199"><ele>694.0</ele><time>2026-03-29T09:34:20.396Z</time></trkpt><trkpt lat="43.3394434" lon="13.2030223"><ele>694.0</ele><time>2026-03-29T09:34:21.417Z</time></trkpt><trkpt lat="43.3394138" lon="13.2029297"><ele>694.0</ele><time>2026-03-29T09:34:22.414Z</time></trkpt><trkpt lat="43.3394258" lon="13.202764"><ele>694.0</ele><time>2026-03-29T09:34:24.44Z</time></trkpt><trkpt lat="43.3394602" lon="13.202683"><ele>694.0</ele><time>2026-03-29T09:34:25.41Z</time></trkpt><trkpt lat="43.3395139" lon="13.2025527"><ele>694.0</ele><time>2026-03-29T09:34:27.394Z</time></trkpt><trkpt lat="43.3395115" lon="13.2024501"><ele>694.0</ele><time>2026-03-29T09:34:29.411Z</time></trkpt><trkpt lat="43.3394906" lon="13.2023591"><ele>693.8000000000001</ele><time>2026-03-29T09:34:31.4Z</time></trkpt><trkpt lat="43.3394409" lon="13.2022431"><ele>693.6</ele><time>2026-03-29T09:34:34.365Z</time></trkpt><trkpt lat="43.339404" lon="13.2021296"><ele>693.4</ele><time>2026-03-29T09:34:36.419Z</time></trkpt><trkpt lat="43.3393633" lon="13.2019905"><ele>693.2</ele><time>2026-03-29T09:34:38.419Z</time></trkpt><trkpt lat="43.3393253" lon="13.201856"><ele>693.0</ele><time>2026-03-29T09:34:40.424Z</time></trkpt><trkpt lat="43.339283" lon="13.2017284"><ele>693.0</ele><time>2026-03-29T09:34:42.425Z</time></trkpt><trkpt lat="43.3392404" lon="13.2015981"><ele>693.0</ele><time>2026-03-29T09:34:44.393Z</time></trkpt><trkpt lat="43.3391882" lon="13.2014527"><ele>693.0</ele><time>2026-03-29T09:34:46.404Z</time></trkpt><trkpt lat="43.3391511" lon="13.2012928"><ele>693.0</ele><time>2026-03-29T09:34:48.426Z</time></trkpt><trkpt lat="43.3391308" lon="13.2011558"><ele>693.0</ele><time>2026-03-29T09:34:50.404Z</time></trkpt><trkpt lat="43.3391468" lon="13.2010543"><ele>693.5999999999999</ele><time>2026-03-29T09:34:52.429Z</time></trkpt><trkpt lat="43.3392237" lon="13.2009973"><ele>694.1999999999999</ele><time>2026-03-29T09:34:54.411Z</time></trkpt><trkpt lat="43.3393101" lon="13.2009419"><ele>694.8</ele><time>2026-03-29T09:34:56.403Z</time></trkpt><trkpt lat="43.3393914" lon="13.2008704"><ele>695.4</ele><time>2026-03-29T09:34:58.424Z</time></trkpt><trkpt lat="43.3394668" lon="13.2007829"><ele>696.0</ele><time>2026-03-29T09:35:00.434Z</time></trkpt><trkpt lat="43.3395563" lon="13.2006891"><ele>695.0</ele><time>2026-03-29T09:35:02.397Z</time></trkpt><trkpt lat="43.3396462" lon="13.2005908"><ele>694.0</ele><time>2026-03-29T09:35:04.412Z</time></trkpt><trkpt lat="43.33973" lon="13.2004907"><ele>693.0</ele><time>2026-03-29T09:35:06.41Z</time></trkpt><trkpt lat="43.3397624" lon="13.2003422"><ele>692.0</ele><time>2026-03-29T09:35:08.427Z</time></trkpt><trkpt lat="43.339742" lon="13.2002015"><ele>691.0</ele><time>2026-03-29T09:35:10.428Z</time></trkpt><trkpt lat="43.3397432" lon="13.2000776"><ele>691.4</ele><time>2026-03-29T09:35:12.373Z</time></trkpt><trkpt lat="43.339763" lon="13.1999234"><ele>691.8</ele><time>2026-03-29T09:35:14.416Z</time></trkpt><trkpt lat="43.3398241" lon="13.1998209"><ele>692.1999999999999</ele><time>2026-03-29T09:35:16.433Z</time></trkpt><trkpt lat="43.3398818" lon="13.1997119"><ele>692.5999999999999</ele><time>2026-03-29T09:35:18.366Z</time></trkpt><trkpt lat="43.3399529" lon="13.1996153"><ele>693.0</ele><time>2026-03-29T09:35:20.409Z</time></trkpt><trkpt lat="43.3400141" lon="13.1995433"><ele>693.0</ele><time>2026-03-29T09:35:22.427Z</time></trkpt><trkpt lat="43.3400828" lon="13.1994853"><ele>693.0</ele><time>2026-03-29T09:35:50.377Z</time></trkpt><trkpt lat="43.3401439" lon="13.1994108"><ele>693.0</ele><time>2026-03-29T09:35:52.391Z</time></trkpt><trkpt lat="43.3402004" lon="13.1993512"><ele>693.0</ele><time>2026-03-29T09:35:54.427Z</time></trkpt><trkpt lat="43.3402572" lon="13.1992932"><ele>693.0</ele><time>2026-03-29T09:35:57.41Z</time></trkpt><trkpt lat="43.3403183" lon="13.1992234"><ele>693.0</ele><time>2026-03-29T09:36:01.398Z</time></trkpt><trkpt lat="43.3403881" lon="13.1991656"><ele>693.0</ele><time>2026-03-29T09:36:05.412Z</time></trkpt><trkpt lat="43.3404485" lon="13.1991298"><ele>693.0</ele><time>2026-03-29T09:36:09.393Z</time></trkpt><trkpt lat="43.3405058" lon="13.1990853"><ele>693.0</ele><time>2026-03-29T09:36:17.431Z</time></trkpt><trkpt lat="43.340579" lon="13.1990501"><ele>693.0</ele><time>2026-03-29T09:36:20.424Z</time></trkpt><trkpt lat="43.3406522" lon="13.199025"><ele>693.0</ele><time>2026-03-29T09:36:23.433Z</time></trkpt><trkpt lat="43.3407187" lon="13.1990094"><ele>693.0</ele><time>2026-03-29T09:36:25.423Z</time></trkpt><trkpt lat="43.3407978" lon="13.1989809"><ele>693.0</ele><time>2026-03-29T09:36:27.425Z</time></trkpt><trkpt lat="43.3408991" lon="13.1989398"><ele>691.5999999999999</ele><time>2026-03-29T09:36:29.431Z</time></trkpt><trkpt lat="43.3410017" lon="13.1988887"><ele>690.1999999999999</ele><time>2026-03-29T09:36:31.43Z</time></trkpt><trkpt lat="43.3410906" lon="13.1988185"><ele>688.8</ele><time>2026-03-29T09:36:33.431Z</time></trkpt><trkpt lat="43.3411846" lon="13.1987445"><ele>687.4</ele><time>2026-03-29T09:36:35.433Z</time></trkpt><trkpt lat="43.3412756" lon="13.1986643"><ele>686.0</ele><time>2026-03-29T09:36:37.45Z</time></trkpt><trkpt lat="43.3413365" lon="13.1986233"><ele>686.6666666666666</ele><time>2026-03-29T09:36:38.45Z</time></trkpt><trkpt lat="43.3413994" lon="13.198575"><ele>687.3333333333333</ele><time>2026-03-29T09:36:39.371Z</time></trkpt><trkpt lat="43.3414571" lon="13.198515"><ele>688.0</ele><time>2026-03-29T09:36:40.375Z</time></trkpt><trkpt lat="43.3415131" lon="13.1984523"><ele>688.6666666666666</ele><time>2026-03-29T09:36:41.434Z</time></trkpt><trkpt lat="43.341603" lon="13.1983599"><ele>689.3333333333334</ele><time>2026-03-29T09:36:43.437Z</time></trkpt><trkpt lat="43.3416888" lon="13.1982908"><ele>690.0</ele><time>2026-03-29T09:36:45.379Z</time></trkpt><trkpt lat="43.3417933" lon="13.1982208"><ele>687.6</ele><time>2026-03-29T09:36:47.432Z</time></trkpt><trkpt lat="43.3418882" lon="13.198137"><ele>685.2</ele><time>2026-03-29T09:36:49.434Z</time></trkpt><trkpt lat="43.341971" lon="13.1980189"><ele>682.8</ele><time>2026-03-29T09:36:51.42Z</time></trkpt><trkpt lat="43.3420474" lon="13.1979029"><ele>680.4</ele><time>2026-03-29T09:36:53.432Z</time></trkpt><trkpt lat="43.342109" lon="13.1977929"><ele>678.0</ele><time>2026-03-29T09:36:55.426Z</time></trkpt><trkpt lat="43.3421554" lon="13.1976769"><ele>678.0</ele><time>2026-03-29T09:36:57.417Z</time></trkpt><trkpt lat="43.342208" lon="13.1975788"><ele>678.0</ele><time>2026-03-29T09:36:59.415Z</time></trkpt><trkpt lat="43.3422898" lon="13.1975189"><ele>678.0</ele><time>2026-03-29T09:37:01.442Z</time></trkpt><trkpt lat="43.3423875" lon="13.1974895"><ele>678.0</ele><time>2026-03-29T09:37:03.405Z</time></trkpt><trkpt lat="43.3424724" lon="13.1974588"><ele>678.0</ele><time>2026-03-29T09:37:05.406Z</time></trkpt><trkpt lat="43.3425615" lon="13.1974234"><ele>676.5999999999999</ele><time>2026-03-29T09:37:07.426Z</time></trkpt><trkpt lat="43.3426641" lon="13.1973609"><ele>675.1999999999999</ele><time>2026-03-29T09:37:09.393Z</time></trkpt><trkpt lat="43.34275" lon="13.1972753"><ele>673.8</ele><time>2026-03-29T09:37:11.401Z</time></trkpt><trkpt lat="43.342829" lon="13.1972063"><ele>672.4</ele><time>2026-03-29T09:37:13.429Z</time></trkpt><trkpt lat="43.3428992" lon="13.197139"><ele>671.0</ele><time>2026-03-29T09:37:15.416Z</time></trkpt><trkpt lat="43.3429685" lon="13.1970707"><ele>666.4</ele><time>2026-03-29T09:37:17.417Z</time></trkpt><trkpt lat="43.3430484" lon="13.1970177"><ele>661.8</ele><time>2026-03-29T09:37:19.407Z</time></trkpt><trkpt lat="43.3431194" lon="13.1970014"><ele>657.1999999999999</ele><time>2026-03-29T09:37:21.436Z</time></trkpt><trkpt lat="43.3432128" lon="13.1970656"><ele>652.5999999999999</ele><time>2026-03-29T09:37:23.423Z</time></trkpt><trkpt lat="43.3432864" lon="13.1971699"><ele>648.0</ele><time>2026-03-29T09:37:25.429Z</time></trkpt><trkpt lat="43.3433565" lon="13.1972452"><ele>648.0</ele><time>2026-03-29T09:37:27.399Z</time></trkpt><trkpt lat="43.3434188" lon="13.1972124"><ele>648.0</ele><time>2026-03-29T09:37:29.433Z</time></trkpt><trkpt lat="43.3434824" lon="13.1970513"><ele>648.0</ele><time>2026-03-29T09:37:31.408Z</time></trkpt><trkpt lat="43.3435208" lon="13.1969444"><ele>648.0</ele><time>2026-03-29T09:37:32.425Z</time></trkpt><trkpt lat="43.3435566" lon="13.1968257"><ele>648.0</ele><time>2026-03-29T09:37:33.425Z</time></trkpt><trkpt lat="43.3435898" lon="13.1967099"><ele>648.0</ele><time>2026-03-29T09:37:34.417Z</time></trkpt><trkpt lat="43.3436161" lon="13.1966079"><ele>648.0</ele><time>2026-03-29T09:37:35.401Z</time></trkpt><trkpt lat="43.3436445" lon="13.1965062"><ele>648.0</ele><time>2026-03-29T09:37:36.411Z</time></trkpt><trkpt lat="43.3436781" lon="13.1964067"><ele>648.0</ele><time>2026-03-29T09:37:37.43Z</time></trkpt><trkpt lat="43.3437073" lon="13.1963151"><ele>648.0</ele><time>2026-03-29T09:37:38.407Z</time></trkpt><trkpt lat="43.3437374" lon="13.1962282"><ele>648.0</ele><time>2026-03-29T09:37:39.428Z</time></trkpt><trkpt lat="43.3437599" lon="13.196138"><ele>646.5</ele><time>2026-03-29T09:37:40.437Z</time></trkpt><trkpt lat="43.3437794" lon="13.1960453"><ele>645.0</ele><time>2026-03-29T09:37:41.397Z</time></trkpt><trkpt lat="43.3437949" lon="13.1959455"><ele>643.5</ele><time>2026-03-29T09:37:42.412Z</time></trkpt><trkpt lat="43.3437923" lon="13.1958434"><ele>642.0</ele><time>2026-03-29T09:37:43.429Z</time></trkpt><trkpt lat="43.3437767" lon="13.1957251"><ele>640.5</ele><time>2026-03-29T09:37:44.43Z</time></trkpt><trkpt lat="43.3437658" lon="13.195601"><ele>639.0</ele><time>2026-03-29T09:37:45.367Z</time></trkpt><trkpt lat="43.343759" lon="13.195473"><ele>636.8333333333334</ele><time>2026-03-29T09:37:46.412Z</time></trkpt><trkpt lat="43.3437536" lon="13.1953453"><ele>634.6666666666666</ele><time>2026-03-29T09:37:47.425Z</time></trkpt><trkpt lat="43.3437499" lon="13.1952244"><ele>632.5</ele><time>2026-03-29T09:37:48.432Z</time></trkpt><trkpt lat="43.34375" lon="13.1951127"><ele>630.3333333333333</ele><time>2026-03-29T09:37:49.425Z</time></trkpt><trkpt lat="43.3437479" lon="13.1950017"><ele>628.1666666666666</ele><time>2026-03-29T09:37:50.415Z</time></trkpt><trkpt lat="43.3437441" lon="13.1948921"><ele>626.0</ele><time>2026-03-29T09:37:51.434Z</time></trkpt><trkpt lat="43.34375" lon="13.1947245"><ele>622.8</ele><time>2026-03-29T09:37:53.378Z</time></trkpt><trkpt lat="43.3437669" lon="13.1946394"><ele>619.6</ele><time>2026-03-29T09:37:54.429Z</time></trkpt><trkpt lat="43.3437918" lon="13.1944838"><ele>616.4</ele><time>2026-03-29T09:37:56.422Z</time></trkpt><trkpt lat="43.3438002" lon="13.1943361"><ele>613.2</ele><time>2026-03-29T09:37:58.401Z</time></trkpt><trkpt lat="43.3438132" lon="13.1941933"><ele>610.0</ele><time>2026-03-29T09:38:00.419Z</time></trkpt><trkpt lat="43.3438322" lon="13.1940696"><ele>606.2</ele><time>2026-03-29T09:38:02.418Z</time></trkpt><trkpt lat="43.3438467" lon="13.1939443"><ele>602.4</ele><time>2026-03-29T09:38:04.412Z</time></trkpt><trkpt lat="43.3438744" lon="13.193806"><ele>598.6</ele><time>2026-03-29T09:38:06.434Z</time></trkpt><trkpt lat="43.3439035" lon="13.1936572"><ele>594.8</ele><time>2026-03-29T09:38:08.428Z</time></trkpt><trkpt lat="43.3439188" lon="13.1934971"><ele>591.0</ele><time>2026-03-29T09:38:10.435Z</time></trkpt><trkpt lat="43.3438977" lon="13.1933558"><ele>591.0</ele><time>2026-03-29T09:38:12.398Z</time></trkpt><trkpt lat="43.3438794" lon="13.1932429"><ele>591.0</ele><time>2026-03-29T09:38:14.385Z</time></trkpt><trkpt lat="43.3439476" lon="13.1931996"><ele>591.0</ele><time>2026-03-29T09:38:17.398Z</time></trkpt><trkpt lat="43.3440118" lon="13.1932833"><ele>591.0</ele><time>2026-03-29T09:38:19.418Z</time></trkpt><trkpt lat="43.3440823" lon="13.1933355"><ele>591.0</ele><time>2026-03-29T09:38:21.433Z</time></trkpt><trkpt lat="43.3440796" lon="13.1932334"><ele>591.0</ele><time>2026-03-29T09:39:27.426Z</time></trkpt><trkpt lat="43.3440619" lon="13.1931501"><ele>587.8</ele><time>2026-03-29T09:39:29.421Z</time></trkpt><trkpt lat="43.3439805" lon="13.1930161"><ele>584.6</ele><time>2026-03-29T09:39:31.433Z</time></trkpt><trkpt lat="43.3439235" lon="13.1929594"><ele>581.4</ele><time>2026-03-29T09:39:32.43Z</time></trkpt><trkpt lat="43.3438703" lon="13.19291"><ele>578.2</ele><time>2026-03-29T09:39:33.411Z</time></trkpt><trkpt lat="43.3437741" lon="13.1928205"><ele>575.0</ele><time>2026-03-29T09:39:35.369Z</time></trkpt><trkpt lat="43.3436916" lon="13.192733"><ele>575.0</ele><time>2026-03-29T09:39:37.428Z</time></trkpt><trkpt lat="43.3436105" lon="13.1926641"><ele>575.0</ele><time>2026-03-29T09:39:39.388Z</time></trkpt><trkpt lat="43.3435292" lon="13.1925986"><ele>575.0</ele><time>2026-03-29T09:39:41.394Z</time></trkpt><trkpt lat="43.3434563" lon="13.192535"><ele>575.0</ele><time>2026-03-29T09:39:43.396Z</time></trkpt><trkpt lat="43.3433878" lon="13.1924467"><ele>575.0</ele><time>2026-03-29T09:39:45.369Z</time></trkpt><trkpt lat="43.3433796" lon="13.1923186"><ele>571.8333333333333</ele><time>2026-03-29T09:39:47.399Z</time></trkpt><trkpt lat="43.3434744" lon="13.1922442"><ele>568.6666666666666</ele><time>2026-03-29T09:39:49.436Z</time></trkpt><trkpt lat="43.3435424" lon="13.1922442"><ele>565.5</ele><time>2026-03-29T09:39:50.446Z</time></trkpt><trkpt lat="43.3436176" lon="13.1922468"><ele>562.3333333333334</ele><time>2026-03-29T09:39:51.423Z</time></trkpt><trkpt lat="43.343704" lon="13.1922523"><ele>559.1666666666667</ele><time>2026-03-29T09:39:52.444Z</time></trkpt><trkpt lat="43.3437927" lon="13.1922595"><ele>556.0</ele><time>2026-03-29T09:39:53.398Z</time></trkpt><trkpt lat="43.3438725" lon="13.1922619"><ele>556.5</ele><time>2026-03-29T09:39:54.415Z</time></trkpt><trkpt lat="43.3439494" lon="13.1922681"><ele>557.0</ele><time>2026-03-29T09:39:55.433Z</time></trkpt><trkpt lat="43.344017" lon="13.1923043"><ele>557.5</ele><time>2026-03-29T09:39:56.431Z</time></trkpt><trkpt lat="43.3440791" lon="13.1923659"><ele>558.0</ele><time>2026-03-29T09:39:57.435Z</time></trkpt><trkpt lat="43.3441364" lon="13.1924336"><ele>558.5</ele><time>2026-03-29T09:39:58.42Z</time></trkpt><trkpt lat="43.3442068" lon="13.1925196"><ele>559.0</ele><time>2026-03-29T09:39:59.424Z</time></trkpt><trkpt lat="43.3442741" lon="13.1926204"><ele>561.0</ele><time>2026-03-29T09:40:00.417Z</time></trkpt><trkpt lat="43.3443396" lon="13.1927229"><ele>563.0</ele><time>2026-03-29T09:40:01.418Z</time></trkpt><trkpt lat="43.3443945" lon="13.1928224"><ele>565.0</ele><time>2026-03-29T09:40:02.367Z</time></trkpt><trkpt lat="43.3444439" lon="13.1929208"><ele>567.0</ele><time>2026-03-29T09:40:03.418Z</time></trkpt><trkpt lat="43.3444891" lon="13.1930144"><ele>569.0</ele><time>2026-03-29T09:40:04.426Z</time></trkpt><trkpt lat="43.3445362" lon="13.1931108"><ele>571.0</ele><time>2026-03-29T09:40:05.425Z</time></trkpt><trkpt lat="43.3445814" lon="13.1932055"><ele>571.0</ele><time>2026-03-29T09:40:06.41Z</time></trkpt><trkpt lat="43.344637" lon="13.1932863"><ele>571.0</ele><time>2026-03-29T09:40:07.421Z</time></trkpt><trkpt lat="43.3447023" lon="13.1933303"><ele>571.0</ele><time>2026-03-29T09:40:08.415Z</time></trkpt><trkpt lat="43.3447906" lon="13.1933179"><ele>571.0</ele><time>2026-03-29T09:40:09.422Z</time></trkpt><trkpt lat="43.3448615" lon="13.1932375"><ele>571.0</ele><time>2026-03-29T09:40:10.396Z</time></trkpt><trkpt lat="43.3448876" lon="13.1931249"><ele>571.0</ele><time>2026-03-29T09:40:11.432Z</time></trkpt><trkpt lat="43.3448862" lon="13.1929838"><ele>571.75</ele><time>2026-03-29T09:40:12.427Z</time></trkpt><trkpt lat="43.3448505" lon="13.1928382"><ele>572.5</ele><time>2026-03-29T09:40:13.423Z</time></trkpt><trkpt lat="43.344814" lon="13.1926817"><ele>573.25</ele><time>2026-03-29T09:40:14.418Z</time></trkpt><trkpt lat="43.3447725" lon="13.1925319"><ele>574.0</ele><time>2026-03-29T09:40:15.423Z</time></trkpt><trkpt lat="43.3447312" lon="13.192369"><ele>570.25</ele><time>2026-03-29T09:40:16.43Z</time></trkpt><trkpt lat="43.3446942" lon="13.1922003"><ele>566.5</ele><time>2026-03-29T09:40:17.418Z</time></trkpt><trkpt lat="43.344669" lon="13.1920366"><ele>562.75</ele><time>2026-03-29T09:40:18.419Z</time></trkpt><trkpt lat="43.3446556" lon="13.1918812"><ele>559.0</ele><time>2026-03-29T09:40:19.413Z</time></trkpt><trkpt lat="43.3446482" lon="13.1917378"><ele>559.0</ele><time>2026-03-29T09:40:20.431Z</time></trkpt><trkpt lat="43.3446598" lon="13.1915993"><ele>559.0</ele><time>2026-03-29T09:40:21.422Z</time></trkpt><trkpt lat="43.3446786" lon="13.1914662"><ele>559.0</ele><time>2026-03-29T09:40:22.419Z</time></trkpt><trkpt lat="43.3447086" lon="13.1913276"><ele>559.0</ele><time>2026-03-29T09:40:23.418Z</time></trkpt><trkpt lat="43.3447387" lon="13.1911781"><ele>559.0</ele><time>2026-03-29T09:40:24.43Z</time></trkpt><trkpt lat="43.3447659" lon="13.1910291"><ele>560.0</ele><time>2026-03-29T09:40:25.441Z</time></trkpt><trkpt lat="43.3447918" lon="13.1908782"><ele>561.0</ele><time>2026-03-29T09:40:26.411Z</time></trkpt><trkpt lat="43.3448081" lon="13.190724"><ele>562.0</ele><time>2026-03-29T09:40:27.387Z</time></trkpt><trkpt lat="43.3448196" lon="13.1905664"><ele>563.0</ele><time>2026-03-29T09:40:28.424Z</time></trkpt><trkpt lat="43.344834" lon="13.190424"><ele>564.0</ele><time>2026-03-29T09:40:29.432Z</time></trkpt><trkpt lat="43.3448623" lon="13.1902888"><ele>564.0</ele><time>2026-03-29T09:40:30.408Z</time></trkpt><trkpt lat="43.3448969" lon="13.1901634"><ele>564.0</ele><time>2026-03-29T09:40:31.433Z</time></trkpt><trkpt lat="43.3449424" lon="13.1900539"><ele>564.0</ele><time>2026-03-29T09:40:32.431Z</time></trkpt><trkpt lat="43.3449845" lon="13.1899378"><ele>564.0</ele><time>2026-03-29T09:40:33.422Z</time></trkpt><trkpt lat="43.3450245" lon="13.1898262"><ele>564.0</ele><time>2026-03-29T09:40:34.42Z</time></trkpt><trkpt lat="43.3450528" lon="13.189703"><ele>563.0</ele><time>2026-03-29T09:40:35.432Z</time></trkpt><trkpt lat="43.3450845" lon="13.1895804"><ele>562.0</ele><time>2026-03-29T09:40:36.434Z</time></trkpt><trkpt lat="43.3451147" lon="13.1894545"><ele>561.0</ele><time>2026-03-29T09:40:37.418Z</time></trkpt><trkpt lat="43.3451489" lon="13.189336"><ele>560.0</ele><time>2026-03-29T09:40:38.419Z</time></trkpt><trkpt lat="43.3451842" lon="13.1892145"><ele>559.0</ele><time>2026-03-29T09:40:39.435Z</time></trkpt><trkpt lat="43.34523" lon="13.1890967"><ele>557.6</ele><time>2026-03-29T09:40:40.426Z</time></trkpt><trkpt lat="43.3452904" lon="13.1889744"><ele>556.2</ele><time>2026-03-29T09:40:41.391Z</time></trkpt><trkpt lat="43.3453526" lon="13.1888474"><ele>554.8000000000001</ele><time>2026-03-29T09:40:42.414Z</time></trkpt><trkpt lat="43.3454086" lon="13.1887174"><ele>553.4</ele><time>2026-03-29T09:40:43.42Z</time></trkpt><trkpt lat="43.3454579" lon="13.1885817"><ele>552.0</ele><time>2026-03-29T09:40:44.414Z</time></trkpt><trkpt lat="43.3454848" lon="13.1884439"><ele>552.0</ele><time>2026-03-29T09:40:45.372Z</time></trkpt><trkpt lat="43.3454875" lon="13.1883007"><ele>552.0</ele><time>2026-03-29T09:40:46.417Z</time></trkpt><trkpt lat="43.3454922" lon="13.1881612"><ele>552.0</ele><time>2026-03-29T09:40:47.406Z</time></trkpt><trkpt lat="43.3454961" lon="13.1880193"><ele>552.0</ele><time>2026-03-29T09:40:48.404Z</time></trkpt><trkpt lat="43.3454997" lon="13.1878777"><ele>552.0</ele><time>2026-03-29T09:40:49.427Z</time></trkpt><trkpt lat="43.3455022" lon="13.1877311"><ele>549.0</ele><time>2026-03-29T09:40:50.425Z</time></trkpt><trkpt lat="43.345499" lon="13.1875771"><ele>546.0</ele><time>2026-03-29T09:40:51.415Z</time></trkpt><trkpt lat="43.3454927" lon="13.1874149"><ele>543.0</ele><time>2026-03-29T09:40:52.421Z</time></trkpt><trkpt lat="43.3454824" lon="13.1872501"><ele>540.0</ele><time>2026-03-29T09:40:53.413Z</time></trkpt><trkpt lat="43.3454611" lon="13.187081"><ele>540.0</ele><time>2026-03-29T09:40:54.434Z</time></trkpt><trkpt lat="43.3454276" lon="13.1869126"><ele>540.0</ele><time>2026-03-29T09:40:55.507Z</time></trkpt><trkpt lat="43.3453811" lon="13.1867478"><ele>540.0</ele><time>2026-03-29T09:40:56.43Z</time></trkpt><trkpt lat="43.3453352" lon="13.186599"><ele>540.0</ele><time>2026-03-29T09:40:57.432Z</time></trkpt><trkpt lat="43.3452907" lon="13.1864489"><ele>540.5</ele><time>2026-03-29T09:40:58.411Z</time></trkpt><trkpt lat="43.3452429" lon="13.1863071"><ele>541.0</ele><time>2026-03-29T09:40:59.407Z</time></trkpt><trkpt lat="43.3451894" lon="13.1861657"><ele>541.5</ele><time>2026-03-29T09:41:00.424Z</time></trkpt><trkpt lat="43.3451265" lon="13.1860236"><ele>542.0</ele><time>2026-03-29T09:41:01.43Z</time></trkpt><trkpt lat="43.3450594" lon="13.1858808"><ele>542.0</ele><time>2026-03-29T09:41:02.413Z</time></trkpt><trkpt lat="43.3449885" lon="13.1857366"><ele>542.0</ele><time>2026-03-29T09:41:03.435Z</time></trkpt><trkpt lat="43.3449168" lon="13.1855939"><ele>542.0</ele><time>2026-03-29T09:41:04.432Z</time></trkpt><trkpt lat="43.344844" lon="13.1854541"><ele>542.0</ele><time>2026-03-29T09:41:05.437Z</time></trkpt><trkpt lat="43.3447773" lon="13.1853212"><ele>541.25</ele><time>2026-03-29T09:41:06.435Z</time></trkpt><trkpt lat="43.3446996" lon="13.1852026"><ele>540.5</ele><time>2026-03-29T09:41:07.425Z</time></trkpt><trkpt lat="43.3446031" lon="13.1850955"><ele>539.75</ele><time>2026-03-29T09:41:08.404Z</time></trkpt><trkpt lat="43.3445047" lon="13.1849966"><ele>539.0</ele><time>2026-03-29T09:41:09.407Z</time></trkpt><trkpt lat="43.3444052" lon="13.1849112"><ele>539.75</ele><time>2026-03-29T09:41:10.413Z</time></trkpt><trkpt lat="43.3442953" lon="13.184829"><ele>540.5</ele><time>2026-03-29T09:41:11.376Z</time></trkpt><trkpt lat="43.3441945" lon="13.184734"><ele>541.25</ele><time>2026-03-29T09:41:12.434Z</time></trkpt><trkpt lat="43.3441115" lon="13.1846295"><ele>542.0</ele><time>2026-03-29T09:41:13.416Z</time></trkpt><trkpt lat="43.3440388" lon="13.1845182"><ele>542.0</ele><time>2026-03-29T09:41:14.413Z</time></trkpt><trkpt lat="43.3439769" lon="13.1844069"><ele>542.0</ele><time>2026-03-29T09:41:15.415Z</time></trkpt><trkpt lat="43.3439264" lon="13.1843156"><ele>542.0</ele><time>2026-03-29T09:41:16.409Z</time></trkpt><trkpt lat="43.3438865" lon="13.1842219"><ele>542.0</ele><time>2026-03-29T09:41:17.403Z</time></trkpt><trkpt lat="43.3438581" lon="13.1841328"><ele>542.0</ele><time>2026-03-29T09:41:18.382Z</time></trkpt><trkpt lat="43.3438216" lon="13.1840494"><ele>542.0</ele><time>2026-03-29T09:41:19.419Z</time></trkpt><trkpt lat="43.3437628" lon="13.1839465"><ele>539.0</ele><time>2026-03-29T09:41:21.422Z</time></trkpt><trkpt lat="43.3437218" lon="13.1838735"><ele>536.0</ele><time>2026-03-29T09:41:23.396Z</time></trkpt><trkpt lat="43.3436811" lon="13.1837799"><ele>533.0</ele><time>2026-03-29T09:41:26.416Z</time></trkpt><trkpt lat="43.3436479" lon="13.1837046"><ele>530.0</ele><time>2026-03-29T09:41:28.406Z</time></trkpt><trkpt lat="43.3436145" lon="13.1836269"><ele>527.0</ele><time>2026-03-29T09:41:31.424Z</time></trkpt><trkpt lat="43.3435794" lon="13.1835411"><ele>524.0</ele><time>2026-03-29T09:41:34.419Z</time></trkpt><trkpt lat="43.3435352" lon="13.1834375"><ele>521.0</ele><time>2026-03-29T09:41:37.383Z</time></trkpt><trkpt lat="43.3434989" lon="13.183361"><ele>521.0</ele><time>2026-03-29T09:41:39.391Z</time></trkpt><trkpt lat="43.3434439" lon="13.1832449"><ele>521.0</ele><time>2026-03-29T09:41:41.405Z</time></trkpt><trkpt lat="43.3434012" lon="13.1831068"><ele>521.0</ele><time>2026-03-29T09:41:43.387Z</time></trkpt><trkpt lat="43.3433789" lon="13.183025"><ele>521.0</ele><time>2026-03-29T09:41:44.361Z</time></trkpt><trkpt lat="43.343359" lon="13.1829392"><ele>521.0</ele><time>2026-03-29T09:41:45.369Z</time></trkpt><trkpt lat="43.3433147" lon="13.182794"><ele>520.4</ele><time>2026-03-29T09:41:47.402Z</time></trkpt><trkpt lat="43.343236" lon="13.1827015"><ele>519.8</ele><time>2026-03-29T09:41:49.419Z</time></trkpt><trkpt lat="43.3431547" lon="13.1826929"><ele>519.1999999999999</ele><time>2026-03-29T09:41:50.415Z</time></trkpt><trkpt lat="43.3430698" lon="13.1826975"><ele>518.6</ele><time>2026-03-29T09:41:51.446Z</time></trkpt><trkpt lat="43.3429679" lon="13.1826974"><ele>518.0</ele><time>2026-03-29T09:41:52.421Z</time></trkpt><trkpt lat="43.3428652" lon="13.1826905"><ele>515.5</ele><time>2026-03-29T09:41:53.425Z</time></trkpt><trkpt lat="43.3427757" lon="13.1826652"><ele>513.0</ele><time>2026-03-29T09:41:54.387Z</time></trkpt><trkpt lat="43.3427165" lon="13.1825966"><ele>510.5</ele><time>2026-03-29T09:41:55.443Z</time></trkpt><trkpt lat="43.3426869" lon="13.1825121"><ele>508.0</ele><time>2026-03-29T09:41:56.421Z</time></trkpt><trkpt lat="43.34269" lon="13.1824161"><ele>505.49999999999994</ele><time>2026-03-29T09:41:57.413Z</time></trkpt><trkpt lat="43.3427238" lon="13.1823277"><ele>503.0</ele><time>2026-03-29T09:41:58.371Z</time></trkpt><trkpt lat="43.3427646" lon="13.1822342"><ele>504.3333333333333</ele><time>2026-03-29T09:41:59.369Z</time></trkpt><trkpt lat="43.3428147" lon="13.1821537"><ele>505.66666666666663</ele><time>2026-03-29T09:42:00.43Z</time></trkpt><trkpt lat="43.3428788" lon="13.1820792"><ele>507.0</ele><time>2026-03-29T09:42:01.417Z</time></trkpt><trkpt lat="43.342956" lon="13.1820017"><ele>508.33333333333337</ele><time>2026-03-29T09:42:02.414Z</time></trkpt><trkpt lat="43.3430122" lon="13.1819164"><ele>509.6666666666667</ele><time>2026-03-29T09:42:03.414Z</time></trkpt><trkpt lat="43.3430659" lon="13.1818182"><ele>511.0</ele><time>2026-03-29T09:42:04.404Z</time></trkpt><trkpt lat="43.3430943" lon="13.1817063"><ele>511.0</ele><time>2026-03-29T09:42:05.416Z</time></trkpt><trkpt lat="43.3431023" lon="13.1815592"><ele>511.0</ele><time>2026-03-29T09:42:06.408Z</time></trkpt><trkpt lat="43.3431107" lon="13.1814192"><ele>511.0</ele><time>2026-03-29T09:42:07.425Z</time></trkpt><trkpt lat="43.3431132" lon="13.1812863"><ele>511.0</ele><time>2026-03-29T09:42:08.399Z</time></trkpt><trkpt lat="43.3431135" lon="13.1811499"><ele>511.0</ele><time>2026-03-29T09:42:09.404Z</time></trkpt><trkpt lat="43.3431179" lon="13.181011"><ele>510.20000000000005</ele><time>2026-03-29T09:42:10.421Z</time></trkpt><trkpt lat="43.3431245" lon="13.1808711"><ele>509.40000000000003</ele><time>2026-03-29T09:42:11.408Z</time></trkpt><trkpt lat="43.343141" lon="13.1807278"><ele>508.6</ele><time>2026-03-29T09:42:12.426Z</time></trkpt><trkpt lat="43.3431589" lon="13.1805813"><ele>507.8</ele><time>2026-03-29T09:42:13.413Z</time></trkpt><trkpt lat="43.3431777" lon="13.1804341"><ele>507.0</ele><time>2026-03-29T09:42:14.405Z</time></trkpt><trkpt lat="43.3431849" lon="13.1802799"><ele>506.25</ele><time>2026-03-29T09:42:15.421Z</time></trkpt><trkpt lat="43.3431881" lon="13.1801189"><ele>505.5</ele><time>2026-03-29T09:42:16.412Z</time></trkpt><trkpt lat="43.3431789" lon="13.179959"><ele>504.75</ele><time>2026-03-29T09:42:17.43Z</time></trkpt><trkpt lat="43.343156" lon="13.1798035"><ele>504.0</ele><time>2026-03-29T09:42:18.407Z</time></trkpt><trkpt lat="43.3431098" lon="13.1796626"><ele>500.5</ele><time>2026-03-29T09:42:19.39Z</time></trkpt><trkpt lat="43.3430346" lon="13.1795425"><ele>497.0</ele><time>2026-03-29T09:42:20.412Z</time></trkpt><trkpt lat="43.3429425" lon="13.1794361"><ele>493.5</ele><time>2026-03-29T09:42:21.42Z</time></trkpt><trkpt lat="43.3428536" lon="13.1793277"><ele>490.0</ele><time>2026-03-29T09:42:22.433Z</time></trkpt><trkpt lat="43.3427791" lon="13.1792062"><ele>490.0</ele><time>2026-03-29T09:42:23.415Z</time></trkpt><trkpt lat="43.3427296" lon="13.1790727"><ele>490.0</ele><time>2026-03-29T09:42:24.418Z</time></trkpt><trkpt lat="43.3427153" lon="13.1789339"><ele>490.0</ele><time>2026-03-29T09:42:25.414Z</time></trkpt><trkpt lat="43.342717" lon="13.1788073"><ele>490.0</ele><time>2026-03-29T09:42:26.382Z</time></trkpt><trkpt lat="43.3427322" lon="13.1787079"><ele>490.0</ele><time>2026-03-29T09:42:27.426Z</time></trkpt><trkpt lat="43.3427498" lon="13.1786105"><ele>490.57142857142856</ele><time>2026-03-29T09:42:28.427Z</time></trkpt><trkpt lat="43.3427581" lon="13.1785223"><ele>491.1428571428571</ele><time>2026-03-29T09:42:29.414Z</time></trkpt><trkpt lat="43.3427654" lon="13.1784338"><ele>491.7142857142857</ele><time>2026-03-29T09:42:30.407Z</time></trkpt><trkpt lat="43.3427734" lon="13.1783451"><ele>492.2857142857143</ele><time>2026-03-29T09:42:31.392Z</time></trkpt><trkpt lat="43.3427803" lon="13.1782499"><ele>492.85714285714283</ele><time>2026-03-29T09:42:32.415Z</time></trkpt><trkpt lat="43.3427898" lon="13.1781558"><ele>493.42857142857144</ele><time>2026-03-29T09:42:33.418Z</time></trkpt><trkpt lat="43.3428106" lon="13.1780562"><ele>494.0</ele><time>2026-03-29T09:42:34.418Z</time></trkpt><trkpt lat="43.342846" lon="13.1779629"><ele>492.3333333333333</ele><time>2026-03-29T09:42:35.421Z</time></trkpt><trkpt lat="43.3428939" lon="13.177881"><ele>490.66666666666663</ele><time>2026-03-29T09:42:36.419Z</time></trkpt><trkpt lat="43.3429403" lon="13.1777954"><ele>489.0</ele><time>2026-03-29T09:42:37.407Z</time></trkpt><trkpt lat="43.3429941" lon="13.1777115"><ele>487.33333333333337</ele><time>2026-03-29T09:42:38.416Z</time></trkpt><trkpt lat="43.3430578" lon="13.1776395"><ele>485.6666666666667</ele><time>2026-03-29T09:42:39.427Z</time></trkpt><trkpt lat="43.3431161" lon="13.1775718"><ele>484.0</ele><time>2026-03-29T09:42:40.431Z</time></trkpt><trkpt lat="43.3431741" lon="13.1775084"><ele>485.6666666666667</ele><time>2026-03-29T09:42:41.387Z</time></trkpt><trkpt lat="43.343228" lon="13.1774468"><ele>487.33333333333337</ele><time>2026-03-29T09:42:42.428Z</time></trkpt><trkpt lat="43.3432811" lon="13.1773843"><ele>489.0</ele><time>2026-03-29T09:42:43.419Z</time></trkpt><trkpt lat="43.3433295" lon="13.1773267"><ele>490.66666666666663</ele><time>2026-03-29T09:42:44.425Z</time></trkpt><trkpt lat="43.3433836" lon="13.1772765"><ele>492.3333333333333</ele><time>2026-03-29T09:42:45.397Z</time></trkpt><trkpt lat="43.3434904" lon="13.1772005"><ele>494.0</ele><time>2026-03-29T09:42:47.424Z</time></trkpt><trkpt lat="43.3435994" lon="13.1771191"><ele>493.99999999999994</ele><time>2026-03-29T09:42:49.401Z</time></trkpt><trkpt lat="43.3436702" lon="13.1769979"><ele>494.0</ele><time>2026-03-29T09:42:51.42Z</time></trkpt><trkpt lat="43.3437276" lon="13.1768467"><ele>494.0</ele><time>2026-03-29T09:42:53.412Z</time></trkpt><trkpt lat="43.343765" lon="13.1767695"><ele>494.0</ele><time>2026-03-29T09:42:54.425Z</time></trkpt><trkpt lat="43.3438059" lon="13.1766965"><ele>493.99999999999994</ele><time>2026-03-29T09:42:55.425Z</time></trkpt><trkpt lat="43.3438528" lon="13.1766246"><ele>494.0</ele><time>2026-03-29T09:42:56.402Z</time></trkpt><trkpt lat="43.3439045" lon="13.1765584"><ele>492.99999999999994</ele><time>2026-03-29T09:42:57.368Z</time></trkpt><trkpt lat="43.3439645" lon="13.1764925"><ele>492.0</ele><time>2026-03-29T09:42:58.415Z</time></trkpt><trkpt lat="43.344033" lon="13.1764272"><ele>491.0</ele><time>2026-03-29T09:42:59.431Z</time></trkpt><trkpt lat="43.3441025" lon="13.1763547"><ele>490.0</ele><time>2026-03-29T09:43:00.422Z</time></trkpt><trkpt lat="43.3441661" lon="13.1762908"><ele>488.99999999999994</ele><time>2026-03-29T09:43:01.437Z</time></trkpt><trkpt lat="43.3442261" lon="13.1762331"><ele>488.0</ele><time>2026-03-29T09:43:02.424Z</time></trkpt><trkpt lat="43.3442867" lon="13.1761749"><ele>487.99999999999994</ele><time>2026-03-29T09:43:03.404Z</time></trkpt><trkpt lat="43.3443431" lon="13.1761142"><ele>488.0</ele><time>2026-03-29T09:43:04.418Z</time></trkpt><trkpt lat="43.3443922" lon="13.1760543"><ele>488.0</ele><time>2026-03-29T09:43:05.437Z</time></trkpt><trkpt lat="43.344449" lon="13.175938"><ele>488.0</ele><time>2026-03-29T09:43:07.434Z</time></trkpt><trkpt lat="43.3443958" lon="13.1758479"><ele>487.99999999999994</ele><time>2026-03-29T09:43:09.422Z</time></trkpt><trkpt lat="43.3443274" lon="13.17581"><ele>488.0</ele><time>2026-03-29T09:43:10.388Z</time></trkpt><trkpt lat="43.3442549" lon="13.1757672"><ele>487.99999999999994</ele><time>2026-03-29T09:43:11.41Z</time></trkpt><trkpt lat="43.3441969" lon="13.1757066"><ele>488.0</ele><time>2026-03-29T09:43:12.407Z</time></trkpt><trkpt lat="43.344153" lon="13.1756242"><ele>488.0</ele><time>2026-03-29T09:43:13.426Z</time></trkpt><trkpt lat="43.3441079" lon="13.1755223"><ele>488.0</ele><time>2026-03-29T09:43:14.44Z</time></trkpt><trkpt lat="43.3440667" lon="13.1754195"><ele>487.99999999999994</ele><time>2026-03-29T09:43:15.411Z</time></trkpt><trkpt lat="43.3440217" lon="13.1753157"><ele>488.0</ele><time>2026-03-29T09:43:16.432Z</time></trkpt><trkpt lat="43.3439717" lon="13.1752137"><ele>485.99999999999994</ele><time>2026-03-29T09:43:17.432Z</time></trkpt><trkpt lat="43.3439178" lon="13.1751119"><ele>484.0</ele><time>2026-03-29T09:43:18.418Z</time></trkpt><trkpt lat="43.3438667" lon="13.1750083"><ele>482.0</ele><time>2026-03-29T09:43:19.376Z</time></trkpt><trkpt lat="43.3438238" lon="13.174898"><ele>480.0</ele><time>2026-03-29T09:43:20.421Z</time></trkpt><trkpt lat="43.3437824" lon="13.1747859"><ele>477.99999999999994</ele><time>2026-03-29T09:43:21.426Z</time></trkpt><trkpt lat="43.3437547" lon="13.1746762"><ele>476.0</ele><time>2026-03-29T09:43:22.45Z</time></trkpt><trkpt lat="43.3437287" lon="13.1745669"><ele>473.4</ele><time>2026-03-29T09:43:23.427Z</time></trkpt><trkpt lat="43.3437059" lon="13.1744612"><ele>470.8</ele><time>2026-03-29T09:43:24.417Z</time></trkpt><trkpt lat="43.3436786" lon="13.1743468"><ele>468.19999999999993</ele><time>2026-03-29T09:43:25.432Z</time></trkpt><trkpt lat="43.3436378" lon="13.1742384"><ele>465.59999999999997</ele><time>2026-03-29T09:43:26.436Z</time></trkpt><trkpt lat="43.3435832" lon="13.1741165"><ele>463.0</ele><time>2026-03-29T09:43:27.401Z</time></trkpt><trkpt lat="43.3435451" lon="13.1739994"><ele>462.50000000000006</ele><time>2026-03-29T09:43:28.436Z</time></trkpt><trkpt lat="43.3435227" lon="13.1738722"><ele>462.0</ele><time>2026-03-29T09:43:29.421Z</time></trkpt><trkpt lat="43.3435126" lon="13.1737381"><ele>461.5</ele><time>2026-03-29T09:43:30.428Z</time></trkpt><trkpt lat="43.3435115" lon="13.1736211"><ele>461.0</ele><time>2026-03-29T09:43:31.438Z</time></trkpt><trkpt lat="43.343511" lon="13.1735155"><ele>460.50000000000006</ele><time>2026-03-29T09:43:32.442Z</time></trkpt><trkpt lat="43.3435084" lon="13.1733965"><ele>460.0</ele><time>2026-03-29T09:43:33.442Z</time></trkpt><trkpt lat="43.343518" lon="13.1732771"><ele>460.4</ele><time>2026-03-29T09:43:34.419Z</time></trkpt><trkpt lat="43.3435261" lon="13.1731537"><ele>460.8</ele><time>2026-03-29T09:43:35.431Z</time></trkpt><trkpt lat="43.343532" lon="13.1730245"><ele>461.20000000000005</ele><time>2026-03-29T09:43:36.428Z</time></trkpt><trkpt lat="43.3435374" lon="13.1728867"><ele>461.6</ele><time>2026-03-29T09:43:37.443Z</time></trkpt><trkpt lat="43.3435444" lon="13.1727368"><ele>462.0</ele><time>2026-03-29T09:43:38.422Z</time></trkpt><trkpt lat="43.3435443" lon="13.1725834"><ele>462.0</ele><time>2026-03-29T09:43:39.433Z</time></trkpt><trkpt lat="43.3435434" lon="13.1724297"><ele>462.0</ele><time>2026-03-29T09:43:40.441Z</time></trkpt><trkpt lat="43.3435345" lon="13.1722676"><ele>462.0</ele><time>2026-03-29T09:43:41.432Z</time></trkpt><trkpt lat="43.3435171" lon="13.1720878"><ele>462.0</ele><time>2026-03-29T09:43:42.446Z</time></trkpt><trkpt lat="43.3435013" lon="13.1719126"><ele>463.75</ele><time>2026-03-29T09:43:43.405Z</time></trkpt><trkpt lat="43.3434836" lon="13.1717308"><ele>465.5</ele><time>2026-03-29T09:43:44.412Z</time></trkpt><trkpt lat="43.3434631" lon="13.1715471"><ele>467.25</ele><time>2026-03-29T09:43:45.388Z</time></trkpt><trkpt lat="43.3434416" lon="13.1713769"><ele>469.0</ele><time>2026-03-29T09:43:46.365Z</time></trkpt><trkpt lat="43.3434162" lon="13.1712116"><ele>469.0</ele><time>2026-03-29T09:43:47.366Z</time></trkpt><trkpt lat="43.343382" lon="13.171054"><ele>469.0</ele><time>2026-03-29T09:43:48.412Z</time></trkpt><trkpt lat="43.34332" lon="13.1709043"><ele>469.0</ele><time>2026-03-29T09:43:49.428Z</time></trkpt><trkpt lat="43.3432433" lon="13.1707456"><ele>469.0</ele><time>2026-03-29T09:43:50.398Z</time></trkpt><trkpt lat="43.3431738" lon="13.1705798"><ele>468.5</ele><time>2026-03-29T09:43:51.373Z</time></trkpt><trkpt lat="43.3431067" lon="13.1704271"><ele>468.0</ele><time>2026-03-29T09:43:52.429Z</time></trkpt><trkpt lat="43.3430674" lon="13.1702892"><ele>467.5</ele><time>2026-03-29T09:43:53.387Z</time></trkpt><trkpt lat="43.3430562" lon="13.170141"><ele>467.0</ele><time>2026-03-29T09:43:54.407Z</time></trkpt><trkpt lat="43.3430783" lon="13.1699707"><ele>467.25</ele><time>2026-03-29T09:43:55.425Z</time></trkpt><trkpt lat="43.3431081" lon="13.1698027"><ele>467.5</ele><time>2026-03-29T09:43:56.428Z</time></trkpt><trkpt lat="43.3431453" lon="13.1696389"><ele>467.75</ele><time>2026-03-29T09:43:57.431Z</time></trkpt><trkpt lat="43.3431882" lon="13.1694835"><ele>468.0</ele><time>2026-03-29T09:43:58.412Z</time></trkpt><trkpt lat="43.3432375" lon="13.1693298"><ele>468.0</ele><time>2026-03-29T09:43:59.406Z</time></trkpt><trkpt lat="43.3432798" lon="13.1691744"><ele>467.99999999999994</ele><time>2026-03-29T09:44:00.423Z</time></trkpt><trkpt lat="43.3433114" lon="13.1690232"><ele>467.99999999999994</ele><time>2026-03-29T09:44:01.41Z</time></trkpt><trkpt lat="43.3433258" lon="13.1688807"><ele>468.0</ele><time>2026-03-29T09:44:02.422Z</time></trkpt><trkpt lat="43.3433245" lon="13.168758"><ele>468.0</ele><time>2026-03-29T09:44:03.42Z</time></trkpt><trkpt lat="43.3433174" lon="13.1686333"><ele>468.5</ele><time>2026-03-29T09:44:04.377Z</time></trkpt><trkpt lat="43.3433007" lon="13.1684896"><ele>469.0</ele><time>2026-03-29T09:44:05.414Z</time></trkpt><trkpt lat="43.3432826" lon="13.1683307"><ele>469.5</ele><time>2026-03-29T09:44:06.411Z</time></trkpt><trkpt lat="43.3432584" lon="13.1681627"><ele>470.0</ele><time>2026-03-29T09:44:07.412Z</time></trkpt><trkpt lat="43.343241" lon="13.1679947"><ele>470.2</ele><time>2026-03-29T09:44:08.422Z</time></trkpt><trkpt lat="43.3432274" lon="13.1678296"><ele>470.4</ele><time>2026-03-29T09:44:09.408Z</time></trkpt><trkpt lat="43.3432178" lon="13.1676886"><ele>470.6</ele><time>2026-03-29T09:44:10.431Z</time></trkpt><trkpt lat="43.3432074" lon="13.1675683"><ele>470.8</ele><time>2026-03-29T09:44:11.438Z</time></trkpt><trkpt lat="43.3431939" lon="13.1674496"><ele>471.0</ele><time>2026-03-29T09:44:12.428Z</time></trkpt><trkpt lat="43.3431738" lon="13.1673211"><ele>469.4</ele><time>2026-03-29T09:44:13.413Z</time></trkpt><trkpt lat="43.3431464" lon="13.1671972"><ele>467.8</ele><time>2026-03-29T09:44:14.388Z</time></trkpt><trkpt lat="43.3431238" lon="13.1670628"><ele>466.19999999999993</ele><time>2026-03-29T09:44:15.423Z</time></trkpt><trkpt lat="43.3431129" lon="13.1669238"><ele>464.59999999999997</ele><time>2026-03-29T09:44:16.43Z</time></trkpt><trkpt lat="43.3431343" lon="13.1667681"><ele>463.0</ele><time>2026-03-29T09:44:17.435Z</time></trkpt><trkpt lat="43.3431841" lon="13.1666235"><ele>460.0</ele><time>2026-03-29T09:44:18.443Z</time></trkpt><trkpt lat="43.3432513" lon="13.1664996"><ele>457.0</ele><time>2026-03-29T09:44:19.428Z</time></trkpt><trkpt lat="43.3433093" lon="13.1663736"><ele>454.0</ele><time>2026-03-29T09:44:20.433Z</time></trkpt><trkpt lat="43.3433739" lon="13.1662394"><ele>451.0</ele><time>2026-03-29T09:44:21.415Z</time></trkpt><trkpt lat="43.3434322" lon="13.166105"><ele>451.0</ele><time>2026-03-29T09:44:22.409Z</time></trkpt><trkpt lat="43.3434903" lon="13.1659694"><ele>451.0</ele><time>2026-03-29T09:44:23.431Z</time></trkpt><trkpt lat="43.3435488" lon="13.1658276"><ele>451.0</ele><time>2026-03-29T09:44:24.423Z</time></trkpt><trkpt lat="43.3436116" lon="13.1656768"><ele>451.0</ele><time>2026-03-29T09:44:25.43Z</time></trkpt><trkpt lat="43.3436744" lon="13.1655294"><ele>446.5</ele><time>2026-03-29T09:44:26.424Z</time></trkpt><trkpt lat="43.3437354" lon="13.1653836"><ele>442.0</ele><time>2026-03-29T09:44:27.447Z</time></trkpt><trkpt lat="43.3438004" lon="13.1652462"><ele>437.5</ele><time>2026-03-29T09:44:28.438Z</time></trkpt><trkpt lat="43.3438616" lon="13.1651036"><ele>433.0</ele><time>2026-03-29T09:44:29.441Z</time></trkpt><trkpt lat="43.3439197" lon="13.1649644"><ele>431.4</ele><time>2026-03-29T09:44:30.435Z</time></trkpt><trkpt lat="43.3439664" lon="13.1648349"><ele>429.79999999999995</ele><time>2026-03-29T09:44:31.428Z</time></trkpt><trkpt lat="43.344001" lon="13.1647059"><ele>428.2</ele><time>2026-03-29T09:44:32.436Z</time></trkpt><trkpt lat="43.3440165" lon="13.1645728"><ele>426.6</ele><time>2026-03-29T09:44:33.415Z</time></trkpt><trkpt lat="43.3440129" lon="13.1644364"><ele>425.0</ele><time>2026-03-29T09:44:34.435Z</time></trkpt><trkpt lat="43.3439838" lon="13.1642914"><ele>425.0</ele><time>2026-03-29T09:44:35.432Z</time></trkpt><trkpt lat="43.3439511" lon="13.1641425"><ele>425.0</ele><time>2026-03-29T09:44:36.427Z</time></trkpt><trkpt lat="43.3439233" lon="13.1639922"><ele>425.0</ele><time>2026-03-29T09:44:37.41Z</time></trkpt><trkpt lat="43.3439087" lon="13.1638266"><ele>425.0</ele><time>2026-03-29T09:44:38.426Z</time></trkpt><trkpt lat="43.343901" lon="13.1636834"><ele>422.4</ele><time>2026-03-29T09:44:39.419Z</time></trkpt><trkpt lat="43.3439098" lon="13.1635381"><ele>419.8</ele><time>2026-03-29T09:44:40.449Z</time></trkpt><trkpt lat="43.3439388" lon="13.163409"><ele>417.20000000000005</ele><time>2026-03-29T09:44:41.399Z</time></trkpt><trkpt lat="43.343991" lon="13.1632936"><ele>414.6</ele><time>2026-03-29T09:44:42.417Z</time></trkpt><trkpt lat="43.3440575" lon="13.1631994"><ele>412.0</ele><time>2026-03-29T09:44:43.433Z</time></trkpt><trkpt lat="43.3441335" lon="13.1631085"><ele>410.6</ele><time>2026-03-29T09:44:44.428Z</time></trkpt><trkpt lat="43.3442093" lon="13.1630083"><ele>409.20000000000005</ele><time>2026-03-29T09:44:45.418Z</time></trkpt><trkpt lat="43.3442895" lon="13.1629052"><ele>407.8</ele><time>2026-03-29T09:44:46.37Z</time></trkpt><trkpt lat="43.3443785" lon="13.1628068"><ele>406.4</ele><time>2026-03-29T09:44:47.422Z</time></trkpt><trkpt lat="43.344474" lon="13.1627201"><ele>405.0</ele><time>2026-03-29T09:44:48.422Z</time></trkpt><trkpt lat="43.3445736" lon="13.1626463"><ele>405.0</ele><time>2026-03-29T09:44:49.454Z</time></trkpt><trkpt lat="43.3446701" lon="13.1625821"><ele>405.0</ele><time>2026-03-29T09:44:50.42Z</time></trkpt><trkpt lat="43.3447648" lon="13.1625086"><ele>405.0</ele><time>2026-03-29T09:44:51.43Z</time></trkpt><trkpt lat="43.3448527" lon="13.1624301"><ele>405.0</ele><time>2026-03-29T09:44:52.428Z</time></trkpt><trkpt lat="43.3449246" lon="13.1623334"><ele>405.0</ele><time>2026-03-29T09:44:53.438Z</time></trkpt><trkpt lat="43.3449753" lon="13.1622155"><ele>402.2</ele><time>2026-03-29T09:44:54.406Z</time></trkpt><trkpt lat="43.3450164" lon="13.162084"><ele>399.4</ele><time>2026-03-29T09:44:55.426Z</time></trkpt><trkpt lat="43.3450392" lon="13.161963"><ele>396.6</ele><time>2026-03-29T09:44:56.424Z</time></trkpt><trkpt lat="43.3450319" lon="13.1618393"><ele>393.8</ele><time>2026-03-29T09:44:57.42Z</time></trkpt><trkpt lat="43.3449937" lon="13.1617305"><ele>391.0</ele><time>2026-03-29T09:44:58.424Z</time></trkpt><trkpt lat="43.3449505" lon="13.1616219"><ele>389.00000000000006</ele><time>2026-03-29T09:44:59.442Z</time></trkpt><trkpt lat="43.3449143" lon="13.1615074"><ele>387.0</ele><time>2026-03-29T09:45:00.416Z</time></trkpt><trkpt lat="43.3448844" lon="13.1613967"><ele>385.0</ele><time>2026-03-29T09:45:01.432Z</time></trkpt><trkpt lat="43.3448612" lon="13.1612869"><ele>383.0</ele><time>2026-03-29T09:45:02.432Z</time></trkpt><trkpt lat="43.344844" lon="13.1611922"><ele>381.0</ele><time>2026-03-29T09:45:03.411Z</time></trkpt><trkpt lat="43.3448469" lon="13.1610961"><ele>379.0</ele><time>2026-03-29T09:45:04.438Z</time></trkpt><trkpt lat="43.3448811" lon="13.1610215"><ele>379.0</ele><time>2026-03-29T09:45:05.433Z</time></trkpt><trkpt lat="43.3449449" lon="13.160985"><ele>379.0</ele><time>2026-03-29T09:45:06.418Z</time></trkpt><trkpt lat="43.3450194" lon="13.160967"><ele>379.0</ele><time>2026-03-29T09:45:07.433Z</time></trkpt><trkpt lat="43.3451019" lon="13.1609671"><ele>379.0</ele><time>2026-03-29T09:45:08.412Z</time></trkpt><trkpt lat="43.3451868" lon="13.1609697"><ele>379.0</ele><time>2026-03-29T09:45:09.412Z</time></trkpt><trkpt lat="43.3452789" lon="13.1609707"><ele>379.0</ele><time>2026-03-29T09:45:10.41Z</time></trkpt><trkpt lat="43.3453807" lon="13.1609607"><ele>379.0</ele><time>2026-03-29T09:45:11.407Z</time></trkpt><trkpt lat="43.345484" lon="13.1609345"><ele>379.0</ele><time>2026-03-29T09:45:12.417Z</time></trkpt><trkpt lat="43.3455862" lon="13.1608969"><ele>379.0</ele><time>2026-03-29T09:45:13.419Z</time></trkpt><trkpt lat="43.34569" lon="13.16086"><ele>379.0</ele><time>2026-03-29T09:45:14.41Z</time></trkpt><trkpt lat="43.3457886" lon="13.1608166"><ele>379.0</ele><time>2026-03-29T09:45:15.417Z</time></trkpt><trkpt lat="43.3458808" lon="13.1607633"><ele>376.6</ele><time>2026-03-29T09:45:16.4Z</time></trkpt><trkpt lat="43.3459579" lon="13.1606866"><ele>374.2</ele><time>2026-03-29T09:45:17.433Z</time></trkpt><trkpt lat="43.3460237" lon="13.1605907"><ele>371.8</ele><time>2026-03-29T09:45:18.416Z</time></trkpt><trkpt lat="43.3460761" lon="13.1604725"><ele>369.40000000000003</ele><time>2026-03-29T09:45:19.406Z</time></trkpt><trkpt lat="43.3461226" lon="13.1603563"><ele>367.0</ele><time>2026-03-29T09:45:20.423Z</time></trkpt><trkpt lat="43.3461597" lon="13.1602124"><ele>367.0</ele><time>2026-03-29T09:45:21.426Z</time></trkpt><trkpt lat="43.3461907" lon="13.1600549"><ele>367.0</ele><time>2026-03-29T09:45:22.415Z</time></trkpt><trkpt lat="43.3462161" lon="13.1599066"><ele>367.0</ele><time>2026-03-29T09:45:23.437Z</time></trkpt><trkpt lat="43.3462266" lon="13.1597679"><ele>367.0</ele><time>2026-03-29T09:45:24.411Z</time></trkpt><trkpt lat="43.3462319" lon="13.1596324"><ele>367.0</ele><time>2026-03-29T09:45:25.42Z</time></trkpt><trkpt lat="43.3462432" lon="13.159503"><ele>365.66666666666663</ele><time>2026-03-29T09:45:26.379Z</time></trkpt><trkpt lat="43.3462637" lon="13.1593897"><ele>364.3333333333333</ele><time>2026-03-29T09:45:27.417Z</time></trkpt><trkpt lat="43.3463015" lon="13.1593179"><ele>363.0</ele><time>2026-03-29T09:45:28.406Z</time></trkpt><trkpt lat="43.3463769" lon="13.159263"><ele>361.6666666666667</ele><time>2026-03-29T09:45:30.42Z</time></trkpt><trkpt lat="43.3464545" lon="13.1592152"><ele>360.33333333333337</ele><time>2026-03-29T09:45:50.412Z</time></trkpt><trkpt lat="43.3465238" lon="13.1591547"><ele>359.0</ele><time>2026-03-29T09:45:54.424Z</time></trkpt><trkpt lat="43.3466116" lon="13.1590686"><ele>358.2857142857143</ele><time>2026-03-29T09:45:57.427Z</time></trkpt><trkpt lat="43.3466623" lon="13.1590071"><ele>357.57142857142856</ele><time>2026-03-29T09:45:58.425Z</time></trkpt><trkpt lat="43.3467172" lon="13.1589445"><ele>356.8571428571429</ele><time>2026-03-29T09:45:59.424Z</time></trkpt><trkpt lat="43.3467662" lon="13.1588863"><ele>356.1428571428571</ele><time>2026-03-29T09:46:00.439Z</time></trkpt><trkpt lat="43.3468171" lon="13.1588261"><ele>355.4285714285714</ele><time>2026-03-29T09:46:01.429Z</time></trkpt><trkpt lat="43.3468713" lon="13.1587632"><ele>354.7142857142857</ele><time>2026-03-29T09:46:02.387Z</time></trkpt><trkpt lat="43.34693" lon="13.1586976"><ele>354.0</ele><time>2026-03-29T09:46:03.392Z</time></trkpt><trkpt lat="43.3469917" lon="13.1586158"><ele>354.0</ele><time>2026-03-29T09:46:04.432Z</time></trkpt><trkpt lat="43.3470565" lon="13.158536"><ele>354.0</ele><time>2026-03-29T09:46:05.428Z</time></trkpt><trkpt lat="43.3471141" lon="13.1584525"><ele>354.0</ele><time>2026-03-29T09:46:06.499Z</time></trkpt><trkpt lat="43.3472069" lon="13.1582682"><ele>354.0</ele><time>2026-03-29T09:46:08.41Z</time></trkpt><trkpt lat="43.3472399" lon="13.1581652"><ele>354.0</ele><time>2026-03-29T09:46:09.403Z</time></trkpt><trkpt lat="43.3472328" lon="13.1580526"><ele>352.2</ele><time>2026-03-29T09:46:10.367Z</time></trkpt><trkpt lat="43.3472003" lon="13.1579291"><ele>350.4</ele><time>2026-03-29T09:46:11.409Z</time></trkpt><trkpt lat="43.3471489" lon="13.1577999"><ele>348.6</ele><time>2026-03-29T09:46:12.407Z</time></trkpt><trkpt lat="43.3470969" lon="13.1576725"><ele>346.8</ele><time>2026-03-29T09:46:13.437Z</time></trkpt><trkpt lat="43.3470457" lon="13.1575422"><ele>345.0</ele><time>2026-03-29T09:46:14.416Z</time></trkpt><trkpt lat="43.3469965" lon="13.1574198"><ele>343.8</ele><time>2026-03-29T09:46:15.409Z</time></trkpt><trkpt lat="43.3469542" lon="13.1573032"><ele>342.6</ele><time>2026-03-29T09:46:16.402Z</time></trkpt><trkpt lat="43.346905" lon="13.1571828"><ele>341.4</ele><time>2026-03-29T09:46:17.405Z</time></trkpt><trkpt lat="43.3468588" lon="13.1570517"><ele>340.2</ele><time>2026-03-29T09:46:18.409Z</time></trkpt><trkpt lat="43.3468173" lon="13.1569238"><ele>339.0</ele><time>2026-03-29T09:46:19.436Z</time></trkpt><trkpt lat="43.3467766" lon="13.156791"><ele>339.0</ele><time>2026-03-29T09:46:20.436Z</time></trkpt><trkpt lat="43.346734" lon="13.1566593"><ele>339.0</ele><time>2026-03-29T09:46:21.444Z</time></trkpt><trkpt lat="43.3466934" lon="13.156531"><ele>339.0</ele><time>2026-03-29T09:46:22.425Z</time></trkpt><trkpt lat="43.3466591" lon="13.1564082"><ele>339.0</ele><time>2026-03-29T09:46:23.431Z</time></trkpt><trkpt lat="43.3466328" lon="13.1562887"><ele>339.0</ele><time>2026-03-29T09:46:24.419Z</time></trkpt><trkpt lat="43.3466214" lon="13.1561658"><ele>338.2</ele><time>2026-03-29T09:46:25.424Z</time></trkpt><trkpt lat="43.3466118" lon="13.1560393"><ele>337.4</ele><time>2026-03-29T09:46:26.419Z</time></trkpt><trkpt lat="43.346614" lon="13.1559164"><ele>336.6</ele><time>2026-03-29T09:46:27.423Z</time></trkpt><trkpt lat="43.3466313" lon="13.1557871"><ele>335.8</ele><time>2026-03-29T09:46:28.434Z</time></trkpt><trkpt lat="43.3466479" lon="13.1556572"><ele>335.0</ele><time>2026-03-29T09:46:29.427Z</time></trkpt><trkpt lat="43.3466618" lon="13.1555267"><ele>336.8</ele><time>2026-03-29T09:46:30.436Z</time></trkpt><trkpt lat="43.3466774" lon="13.1553853"><ele>338.6</ele><time>2026-03-29T09:46:31.414Z</time></trkpt><trkpt lat="43.3466897" lon="13.1552508"><ele>340.4</ele><time>2026-03-29T09:46:32.418Z</time></trkpt><trkpt lat="43.3467033" lon="13.1551134"><ele>342.2</ele><time>2026-03-29T09:46:33.435Z</time></trkpt><trkpt lat="43.3467171" lon="13.1549768"><ele>344.0</ele><time>2026-03-29T09:46:34.425Z</time></trkpt><trkpt lat="43.3467314" lon="13.1548504"><ele>347.83333333333337</ele><time>2026-03-29T09:46:35.411Z</time></trkpt><trkpt lat="43.3467513" lon="13.1547354"><ele>351.6666666666667</ele><time>2026-03-29T09:46:36.369Z</time></trkpt><trkpt lat="43.3467846" lon="13.1546449"><ele>355.5</ele><time>2026-03-29T09:46:37.398Z</time></trkpt><trkpt lat="43.3468405" lon="13.1545946"><ele>359.3333333333333</ele><time>2026-03-29T09:46:38.433Z</time></trkpt><trkpt lat="43.3469206" lon="13.1545781"><ele>363.16666666666663</ele><time>2026-03-29T09:46:39.41Z</time></trkpt><trkpt lat="43.3470175" lon="13.1545836"><ele>367.0</ele><time>2026-03-29T09:46:40.417Z</time></trkpt><trkpt lat="43.3471082" lon="13.154581"><ele>367.0</ele><time>2026-03-29T09:46:41.41Z</time></trkpt><trkpt lat="43.3471892" lon="13.1545223"><ele>367.0</ele><time>2026-03-29T09:46:42.368Z</time></trkpt><trkpt lat="43.3472497" lon="13.154415"><ele>367.0</ele><time>2026-03-29T09:46:43.427Z</time></trkpt><trkpt lat="43.3472927" lon="13.1542896"><ele>367.0</ele><time>2026-03-29T09:46:44.429Z</time></trkpt><trkpt lat="43.3473315" lon="13.1541784"><ele>367.0</ele><time>2026-03-29T09:46:45.417Z</time></trkpt><trkpt lat="43.3473634" lon="13.1540609"><ele>367.0</ele><time>2026-03-29T09:46:46.358Z</time></trkpt><trkpt lat="43.3473909" lon="13.1539631"><ele>367.0</ele><time>2026-03-29T09:46:47.372Z</time></trkpt><trkpt lat="43.3474181" lon="13.1538534"><ele>367.0</ele><time>2026-03-29T09:46:48.366Z</time></trkpt><trkpt lat="43.347437" lon="13.1537384"><ele>367.0</ele><time>2026-03-29T09:46:49.377Z</time></trkpt><trkpt lat="43.3474645" lon="13.1536162"><ele>367.0</ele><time>2026-03-29T09:46:50.422Z</time></trkpt><trkpt lat="43.3474791" lon="13.1534756"><ele>367.0</ele><time>2026-03-29T09:46:51.377Z</time></trkpt><trkpt lat="43.3474896" lon="13.1533635"><ele>367.0</ele><time>2026-03-29T09:46:52.412Z</time></trkpt><trkpt lat="43.3474967" lon="13.1532565"><ele>367.0</ele><time>2026-03-29T09:46:53.365Z</time></trkpt><trkpt lat="43.3474298" lon="13.1531115"><ele>367.0</ele><time>2026-03-29T09:46:55.424Z</time></trkpt><trkpt lat="43.3472932" lon="13.1531502"><ele>367.0</ele><time>2026-03-29T09:46:57.431Z</time></trkpt><trkpt lat="43.3472204" lon="13.1532004"><ele>367.0</ele><time>2026-03-29T09:46:58.417Z</time></trkpt><trkpt lat="43.3471497" lon="13.1532491"><ele>369.8</ele><time>2026-03-29T09:46:59.415Z</time></trkpt><trkpt lat="43.3470646" lon="13.1532794"><ele>372.6</ele><time>2026-03-29T09:47:00.428Z</time></trkpt><trkpt lat="43.34697" lon="13.1532782"><ele>375.40000000000003</ele><time>2026-03-29T09:47:01.437Z</time></trkpt><trkpt lat="43.3468797" lon="13.1532424"><ele>378.20000000000005</ele><time>2026-03-29T09:47:02.429Z</time></trkpt><trkpt lat="43.3467911" lon="13.1531794"><ele>381.0</ele><time>2026-03-29T09:47:03.416Z</time></trkpt><trkpt lat="43.3466997" lon="13.1531078"><ele>381.0</ele><time>2026-03-29T09:47:04.418Z</time></trkpt><trkpt lat="43.3465986" lon="13.1530438"><ele>381.0</ele><time>2026-03-29T09:47:05.42Z</time></trkpt><trkpt lat="43.3464984" lon="13.1529887"><ele>381.0</ele><time>2026-03-29T09:47:06.437Z</time></trkpt><trkpt lat="43.3463957" lon="13.1529326"><ele>381.0</ele><time>2026-03-29T09:47:07.433Z</time></trkpt><trkpt lat="43.346293" lon="13.1528744"><ele>381.0</ele><time>2026-03-29T09:47:08.409Z</time></trkpt><trkpt lat="43.3461902" lon="13.1528175"><ele>383.25</ele><time>2026-03-29T09:47:09.42Z</time></trkpt><trkpt lat="43.3460853" lon="13.1527606"><ele>385.5</ele><time>2026-03-29T09:47:10.428Z</time></trkpt><trkpt lat="43.3459809" lon="13.1527082"><ele>387.75</ele><time>2026-03-29T09:47:11.407Z</time></trkpt><trkpt lat="43.3458709" lon="13.1526604"><ele>390.0</ele><time>2026-03-29T09:47:12.414Z</time></trkpt><trkpt lat="43.3457653" lon="13.1526159"><ele>390.0</ele><time>2026-03-29T09:47:13.419Z</time></trkpt><trkpt lat="43.345659" lon="13.1525759"><ele>390.0</ele><time>2026-03-29T09:47:14.419Z</time></trkpt><trkpt lat="43.345553" lon="13.1525497"><ele>390.0</ele><time>2026-03-29T09:47:15.406Z</time></trkpt><trkpt lat="43.3454424" lon="13.152538"><ele>390.0</ele><time>2026-03-29T09:47:16.428Z</time></trkpt><trkpt lat="43.3453243" lon="13.1525416"><ele>390.0</ele><time>2026-03-29T09:47:17.423Z</time></trkpt><trkpt lat="43.3452095" lon="13.1525598"><ele>393.5</ele><time>2026-03-29T09:47:18.424Z</time></trkpt><trkpt lat="43.3450945" lon="13.1526004"><ele>397.0</ele><time>2026-03-29T09:47:19.426Z</time></trkpt><trkpt lat="43.344983" lon="13.1526413"><ele>400.5</ele><time>2026-03-29T09:47:20.429Z</time></trkpt><trkpt lat="43.3448711" lon="13.1526771"><ele>404.0</ele><time>2026-03-29T09:47:21.37Z</time></trkpt><trkpt lat="43.344753" lon="13.1527055"><ele>406.2</ele><time>2026-03-29T09:47:22.431Z</time></trkpt><trkpt lat="43.3446505" lon="13.1527181"><ele>408.4</ele><time>2026-03-29T09:47:23.423Z</time></trkpt><trkpt lat="43.3445627" lon="13.152713"><ele>410.6</ele><time>2026-03-29T09:47:24.415Z</time></trkpt><trkpt lat="43.3444973" lon="13.1526796"><ele>412.8</ele><time>2026-03-29T09:47:25.44Z</time></trkpt><trkpt lat="43.3444793" lon="13.1525214"><ele>415.0</ele><time>2026-03-29T09:47:27.428Z</time></trkpt><trkpt lat="43.3445643" lon="13.152393"><ele>416.6666666666667</ele><time>2026-03-29T09:47:29.442Z</time></trkpt><trkpt lat="43.3446284" lon="13.1523173"><ele>418.33333333333337</ele><time>2026-03-29T09:47:30.437Z</time></trkpt><trkpt lat="43.3447007" lon="13.1522338"><ele>420.0</ele><time>2026-03-29T09:47:31.433Z</time></trkpt><trkpt lat="43.344764" lon="13.152146"><ele>421.66666666666663</ele><time>2026-03-29T09:47:32.435Z</time></trkpt><trkpt lat="43.3448087" lon="13.1520708"><ele>423.3333333333333</ele><time>2026-03-29T09:47:33.366Z</time></trkpt><trkpt lat="43.3448537" lon="13.1519689"><ele>425.0</ele><time>2026-03-29T09:47:35.397Z</time></trkpt><trkpt lat="43.3448926" lon="13.1518786"><ele>424.99999999999994</ele><time>2026-03-29T09:47:38.417Z</time></trkpt><trkpt lat="43.3449261" lon="13.1517937"><ele>425.0</ele><time>2026-03-29T09:47:40.387Z</time></trkpt><trkpt lat="43.3449519" lon="13.1517051"><ele>425.0</ele><time>2026-03-29T09:47:43.411Z</time></trkpt><trkpt lat="43.3449682" lon="13.1515994"><ele>425.0</ele><time>2026-03-29T09:47:47.42Z</time></trkpt><trkpt lat="43.345013" lon="13.1515047"><ele>424.99999999999994</ele><time>2026-03-29T09:48:02.432Z</time></trkpt><trkpt lat="43.3450266" lon="13.1514035"><ele>425.0</ele><time>2026-03-29T09:48:06.381Z</time></trkpt><trkpt lat="43.3450967" lon="13.1513321"><ele>428.3333333333333</ele><time>2026-03-29T09:48:08.403Z</time></trkpt><trkpt lat="43.3451206" lon="13.1512494"><ele>431.66666666666663</ele><time>2026-03-29T09:48:09.362Z</time></trkpt><trkpt lat="43.345185" lon="13.1511369"><ele>435.0</ele><time>2026-03-29T09:48:11.402Z</time></trkpt><trkpt lat="43.3452645" lon="13.1510047"><ele>438.33333333333337</ele><time>2026-03-29T09:48:13.414Z</time></trkpt><trkpt lat="43.3453087" lon="13.1509398"><ele>441.6666666666667</ele><time>2026-03-29T09:48:14.419Z</time></trkpt><trkpt lat="43.3453615" lon="13.1508825"><ele>445.0</ele><time>2026-03-29T09:48:15.393Z</time></trkpt><trkpt lat="43.3454162" lon="13.1508181"><ele>445.0</ele><time>2026-03-29T09:48:16.41Z</time></trkpt><trkpt lat="43.3454714" lon="13.1507707"><ele>445.0</ele><time>2026-03-29T09:48:17.402Z</time></trkpt><trkpt lat="43.3455617" lon="13.150676"><ele>445.0</ele><time>2026-03-29T09:48:19.433Z</time></trkpt><trkpt lat="43.3456095" lon="13.1506194"><ele>445.0</ele><time>2026-03-29T09:48:20.432Z</time></trkpt><trkpt lat="43.3456985" lon="13.1505126"><ele>445.0</ele><time>2026-03-29T09:48:22.422Z</time></trkpt><trkpt lat="43.3457845" lon="13.1504234"><ele>439.6</ele><time>2026-03-29T09:48:24.419Z</time></trkpt><trkpt lat="43.3458631" lon="13.1503458"><ele>434.2</ele><time>2026-03-29T09:48:26.418Z</time></trkpt><trkpt lat="43.3459494" lon="13.150286"><ele>428.79999999999995</ele><time>2026-03-29T09:48:28.423Z</time></trkpt><trkpt lat="43.3460727" lon="13.1502349"><ele>423.4</ele><time>2026-03-29T09:48:30.409Z</time></trkpt><trkpt lat="43.3461389" lon="13.1502062"><ele>418.0</ele><time>2026-03-29T09:48:31.418Z</time></trkpt><trkpt lat="43.3462011" lon="13.1501809"><ele>418.00000000000006</ele><time>2026-03-29T09:48:32.401Z</time></trkpt><trkpt lat="43.3462658" lon="13.1501586"><ele>418.0</ele><time>2026-03-29T09:48:33.43Z</time></trkpt><trkpt lat="43.346329" lon="13.1501334"><ele>418.0</ele><time>2026-03-29T09:48:34.432Z</time></trkpt><trkpt lat="43.3464232" lon="13.1500297"><ele>418.0</ele><time>2026-03-29T09:48:36.414Z</time></trkpt><trkpt lat="43.3464477" lon="13.1498656"><ele>418.00000000000006</ele><time>2026-03-29T09:48:38.371Z</time></trkpt><trkpt lat="43.3464119" lon="13.1497796"><ele>418.0</ele><time>2026-03-29T09:48:39.423Z</time></trkpt><trkpt lat="43.3463377" lon="13.1497212"><ele>416.59999999999997</ele><time>2026-03-29T09:48:40.415Z</time></trkpt><trkpt lat="43.3462365" lon="13.1496975"><ele>415.2</ele><time>2026-03-29T09:48:41.418Z</time></trkpt><trkpt lat="43.3461368" lon="13.1496896"><ele>413.8</ele><time>2026-03-29T09:48:42.438Z</time></trkpt><trkpt lat="43.3460438" lon="13.149691"><ele>412.4</ele><time>2026-03-29T09:48:43.423Z</time></trkpt><trkpt lat="43.3459599" lon="13.1496884"><ele>411.0</ele><time>2026-03-29T09:48:44.427Z</time></trkpt><trkpt lat="43.345884" lon="13.1496672"><ele>411.0</ele><time>2026-03-29T09:48:45.425Z</time></trkpt><trkpt lat="43.3458087" lon="13.1495573"><ele>411.0</ele><time>2026-03-29T09:48:47.373Z</time></trkpt><trkpt lat="43.3457869" lon="13.1493963"><ele>411.0</ele><time>2026-03-29T09:48:49.42Z</time></trkpt><trkpt lat="43.3457778" lon="13.1493021"><ele>411.0</ele><time>2026-03-29T09:48:50.438Z</time></trkpt><trkpt lat="43.3457749" lon="13.1492063"><ele>411.0</ele><time>2026-03-29T09:48:51.438Z</time></trkpt><trkpt lat="43.3457625" lon="13.149114"><ele>411.0</ele><time>2026-03-29T09:48:52.424Z</time></trkpt><trkpt lat="43.3457488" lon="13.1490233"><ele>409.57142857142856</ele><time>2026-03-29T09:48:53.428Z</time></trkpt><trkpt lat="43.3457486" lon="13.1489334"><ele>408.1428571428571</ele><time>2026-03-29T09:48:54.425Z</time></trkpt><trkpt lat="43.3457475" lon="13.1488406"><ele>406.7142857142857</ele><time>2026-03-29T09:48:55.43Z</time></trkpt><trkpt lat="43.3457243" lon="13.1486851"><ele>405.2857142857143</ele><time>2026-03-29T09:48:57.407Z</time></trkpt><trkpt lat="43.3457123" lon="13.1485902"><ele>403.8571428571429</ele><time>2026-03-29T09:48:59.417Z</time></trkpt><trkpt lat="43.3457089" lon="13.148498"><ele>402.42857142857144</ele><time>2026-03-29T09:49:02.427Z</time></trkpt><trkpt lat="43.3457216" lon="13.148412"><ele>401.0</ele><time>2026-03-29T09:49:05.406Z</time></trkpt><trkpt lat="43.3457237" lon="13.1483039"><ele>399.20000000000005</ele><time>2026-03-29T09:49:08.357Z</time></trkpt><trkpt lat="43.3457387" lon="13.1481584"><ele>397.40000000000003</ele><time>2026-03-29T09:49:10.368Z</time></trkpt><trkpt lat="43.3457724" lon="13.1480412"><ele>395.6</ele><time>2026-03-29T09:49:12.38Z</time></trkpt><trkpt lat="43.3458029" lon="13.1479503"><ele>393.8</ele><time>2026-03-29T09:49:14.369Z</time></trkpt><trkpt lat="43.3458027" lon="13.1477865"><ele>392.0</ele><time>2026-03-29T09:49:16.383Z</time></trkpt><trkpt lat="43.3457998" lon="13.1476909"><ele>391.99999999999994</ele><time>2026-03-29T09:49:17.404Z</time></trkpt><trkpt lat="43.3457947" lon="13.1476024"><ele>392.0</ele><time>2026-03-29T09:49:18.416Z</time></trkpt><trkpt lat="43.3457908" lon="13.147511"><ele>392.0</ele><time>2026-03-29T09:49:19.387Z</time></trkpt><trkpt lat="43.3457613" lon="13.1474321"><ele>392.0</ele><time>2026-03-29T09:49:20.402Z</time></trkpt><trkpt lat="43.3457327" lon="13.147333"><ele>391.99999999999994</ele><time>2026-03-29T09:49:21.376Z</time></trkpt><trkpt lat="43.3456761" lon="13.1471642"><ele>392.0</ele><time>2026-03-29T09:49:23.418Z</time></trkpt><trkpt lat="43.3456545" lon="13.1470757"><ele>393.0</ele><time>2026-03-29T09:49:24.386Z</time></trkpt><trkpt lat="43.3456203" lon="13.1469943"><ele>394.0</ele><time>2026-03-29T09:49:25.379Z</time></trkpt><trkpt lat="43.3455877" lon="13.1469107"><ele>395.0</ele><time>2026-03-29T09:49:26.422Z</time></trkpt><trkpt lat="43.3455651" lon="13.1468262"><ele>396.0</ele><time>2026-03-29T09:49:27.393Z</time></trkpt><trkpt lat="43.3455386" lon="13.1467441"><ele>397.0</ele><time>2026-03-29T09:49:28.38Z</time></trkpt><trkpt lat="43.3455092" lon="13.1466662"><ele>398.0</ele><time>2026-03-29T09:49:29.383Z</time></trkpt><trkpt lat="43.3454784" lon="13.1465612"><ele>399.0</ele><time>2026-03-29T09:49:31.373Z</time></trkpt><trkpt lat="43.3454537" lon="13.1464641"><ele>395.5</ele><time>2026-03-29T09:49:35.377Z</time></trkpt><trkpt lat="43.3454072" lon="13.1463816"><ele>392.0</ele><time>2026-03-29T09:49:39.38Z</time></trkpt><trkpt lat="43.3453806" lon="13.1462403"><ele>388.5</ele><time>2026-03-29T09:49:42.379Z</time></trkpt><trkpt lat="43.3453537" lon="13.1461598"><ele>385.0</ele><time>2026-03-29T09:49:43.404Z</time></trkpt><trkpt lat="43.3453181" lon="13.1460845"><ele>381.5</ele><time>2026-03-29T09:49:44.41Z</time></trkpt><trkpt lat="43.3452214" lon="13.1459804"><ele>378.0</ele><time>2026-03-29T09:49:46.371Z</time></trkpt><trkpt lat="43.3451363" lon="13.1459106"><ele>378.0</ele><time>2026-03-29T09:49:48.417Z</time></trkpt><trkpt lat="43.3451227" lon="13.1458192"><ele>378.0</ele><time>2026-03-29T09:49:51.378Z</time></trkpt><trkpt lat="43.3452159" lon="13.1458157"><ele>378.0</ele><time>2026-03-29T09:49:54.421Z</time></trkpt><trkpt lat="43.3453192" lon="13.1458557"><ele>378.0</ele><time>2026-03-29T09:49:56.424Z</time></trkpt><trkpt lat="43.3454162" lon="13.1459154"><ele>378.0</ele><time>2026-03-29T09:49:58.411Z</time></trkpt><trkpt lat="43.345504" lon="13.1460022"><ele>376.79999999999995</ele><time>2026-03-29T09:50:00.392Z</time></trkpt><trkpt lat="43.3455737" lon="13.1460214"><ele>375.6</ele><time>2026-03-29T09:50:02.392Z</time></trkpt><trkpt lat="43.3456605" lon="13.1460108"><ele>374.4</ele><time>2026-03-29T09:50:04.415Z</time></trkpt><trkpt lat="43.3457857" lon="13.1459987"><ele>373.20000000000005</ele><time>2026-03-29T09:50:06.383Z</time></trkpt><trkpt lat="43.3458493" lon="13.1460047"><ele>372.0</ele><time>2026-03-29T09:50:07.423Z</time></trkpt><trkpt lat="43.3459456" lon="13.1460605"><ele>372.0</ele><time>2026-03-29T09:50:09.371Z</time></trkpt><trkpt lat="43.3460301" lon="13.1461611"><ele>372.0</ele><time>2026-03-29T09:50:11.398Z</time></trkpt><trkpt lat="43.3461249" lon="13.1462483"><ele>372.0</ele><time>2026-03-29T09:50:13.435Z</time></trkpt><trkpt lat="43.3462217" lon="13.1463374"><ele>372.0</ele><time>2026-03-29T09:50:15.416Z</time></trkpt><trkpt lat="43.3463106" lon="13.1464184"><ele>372.0</ele><time>2026-03-29T09:50:17.401Z</time></trkpt><trkpt lat="43.3463836" lon="13.1464088"><ele>372.0</ele><time>2026-03-29T09:50:20.417Z</time></trkpt><trkpt lat="43.3463802" lon="13.1463096"><ele>372.0</ele><time>2026-03-29T09:50:23.41Z</time></trkpt><trkpt lat="43.3463147" lon="13.1462177"><ele>372.0</ele><time>2026-03-29T09:50:25.421Z</time></trkpt><trkpt lat="43.3462284" lon="13.1461066"><ele>372.0</ele><time>2026-03-29T09:50:27.425Z</time></trkpt><trkpt lat="43.3461474" lon="13.1459711"><ele>372.0</ele><time>2026-03-29T09:50:29.414Z</time></trkpt><trkpt lat="43.3461147" lon="13.14589"><ele>372.0</ele><time>2026-03-29T09:50:30.387Z</time></trkpt><trkpt lat="43.3460738" lon="13.1457428"><ele>372.0</ele><time>2026-03-29T09:50:32.408Z</time></trkpt><trkpt lat="43.3460615" lon="13.1456533"><ele>372.0</ele><time>2026-03-29T09:50:36.414Z</time></trkpt><trkpt lat="43.3460337" lon="13.1455367"><ele>372.0</ele><time>2026-03-29T09:51:52.359Z</time></trkpt><trkpt lat="43.3460348" lon="13.1454418"><ele>372.0</ele><time>2026-03-29T09:51:54.365Z</time></trkpt><trkpt lat="43.3460641" lon="13.1453496"><ele>372.0</ele><time>2026-03-29T09:51:56.381Z</time></trkpt><trkpt lat="43.3460352" lon="13.145199"><ele>373.8</ele><time>2026-03-29T09:51:59.395Z</time></trkpt><trkpt lat="43.3459509" lon="13.1450439"><ele>375.6</ele><time>2026-03-29T09:52:01.403Z</time></trkpt><trkpt lat="43.3458863" lon="13.144944"><ele>377.40000000000003</ele><time>2026-03-29T09:52:03.403Z</time></trkpt><trkpt lat="43.3458355" lon="13.1448616"><ele>379.20000000000005</ele><time>2026-03-29T09:52:05.371Z</time></trkpt><trkpt lat="43.3457799" lon="13.1447804"><ele>381.0</ele><time>2026-03-29T09:52:07.403Z</time></trkpt><trkpt lat="43.3457385" lon="13.1447047"><ele>382.1666666666667</ele><time>2026-03-29T09:52:08.423Z</time></trkpt><trkpt lat="43.3457438" lon="13.1445835"><ele>383.33333333333337</ele><time>2026-03-29T09:52:10.431Z</time></trkpt><trkpt lat="43.3458183" lon="13.1446366"><ele>384.5</ele><time>2026-03-29T09:52:13.398Z</time></trkpt><trkpt lat="43.3459113" lon="13.1447282"><ele>385.6666666666667</ele><time>2026-03-29T09:52:15.407Z</time></trkpt><trkpt lat="43.3459722" lon="13.1447656"><ele>386.83333333333337</ele><time>2026-03-29T09:52:16.414Z</time></trkpt><trkpt lat="43.3460571" lon="13.1448062"><ele>388.0</ele><time>2026-03-29T09:52:18.429Z</time></trkpt><trkpt lat="43.3461299" lon="13.1448348"><ele>386.83333333333337</ele><time>2026-03-29T09:52:20.434Z</time></trkpt><trkpt lat="43.3461934" lon="13.1449089"><ele>385.6666666666667</ele><time>2026-03-29T09:52:22.409Z</time></trkpt><trkpt lat="43.3462345" lon="13.1449753"><ele>384.5</ele><time>2026-03-29T09:52:24.377Z</time></trkpt><trkpt lat="43.3462926" lon="13.1450686"><ele>383.33333333333337</ele><time>2026-03-29T09:52:26.426Z</time></trkpt><trkpt lat="43.3463331" lon="13.1451349"><ele>382.1666666666667</ele><time>2026-03-29T09:52:27.398Z</time></trkpt><trkpt lat="43.3463744" lon="13.145201"><ele>381.0</ele><time>2026-03-29T09:52:28.421Z</time></trkpt><trkpt lat="43.3464352" lon="13.1453371"><ele>386.6</ele><time>2026-03-29T09:52:30.411Z</time></trkpt><trkpt lat="43.3465258" lon="13.1454435"><ele>392.20000000000005</ele><time>2026-03-29T09:52:32.411Z</time></trkpt><trkpt lat="43.3466108" lon="13.1455535"><ele>397.79999999999995</ele><time>2026-03-29T09:52:34.423Z</time></trkpt><trkpt lat="43.3466743" lon="13.1456576"><ele>403.4</ele><time>2026-03-29T09:52:36.404Z</time></trkpt><trkpt lat="43.3467454" lon="13.1456506"><ele>409.0</ele><time>2026-03-29T09:52:40.424Z</time></trkpt><trkpt lat="43.3467177" lon="13.1455672"><ele>409.00000000000006</ele><time>2026-03-29T09:52:42.431Z</time></trkpt><trkpt lat="43.3466794" lon="13.145498"><ele>409.0</ele><time>2026-03-29T09:52:43.416Z</time></trkpt><trkpt lat="43.3466416" lon="13.1454146"><ele>409.0</ele><time>2026-03-29T09:52:44.427Z</time></trkpt><trkpt lat="43.3466135" lon="13.1453147"><ele>409.0</ele><time>2026-03-29T09:52:45.431Z</time></trkpt><trkpt lat="43.3465848" lon="13.1452177"><ele>409.00000000000006</ele><time>2026-03-29T09:52:46.405Z</time></trkpt><trkpt lat="43.3465758" lon="13.1451118"><ele>409.0</ele><time>2026-03-29T09:52:47.374Z</time></trkpt><trkpt lat="43.3465699" lon="13.1449884"><ele>409.33333333333337</ele><time>2026-03-29T09:52:48.413Z</time></trkpt><trkpt lat="43.3465597" lon="13.1448695"><ele>409.6666666666667</ele><time>2026-03-29T09:52:49.406Z</time></trkpt><trkpt lat="43.3465486" lon="13.144747"><ele>410.0</ele><time>2026-03-29T09:52:50.414Z</time></trkpt><trkpt lat="43.3465442" lon="13.1446275"><ele>410.33333333333337</ele><time>2026-03-29T09:52:51.419Z</time></trkpt><trkpt lat="43.3465495" lon="13.1445115"><ele>410.6666666666667</ele><time>2026-03-29T09:52:52.418Z</time></trkpt><trkpt lat="43.3465513" lon="13.1443965"><ele>411.0</ele><time>2026-03-29T09:52:53.43Z</time></trkpt><trkpt lat="43.3465404" lon="13.1442988"><ele>411.0</ele><time>2026-03-29T09:52:54.412Z</time></trkpt><trkpt lat="43.3465574" lon="13.1441603"><ele>411.0</ele><time>2026-03-29T09:52:56.407Z</time></trkpt><trkpt lat="43.3466796" lon="13.1441004"><ele>411.0</ele><time>2026-03-29T09:52:58.41Z</time></trkpt><trkpt lat="43.3467447" lon="13.1440702"><ele>411.0</ele><time>2026-03-29T09:52:59.42Z</time></trkpt><trkpt lat="43.3468307" lon="13.1440623"><ele>411.0</ele><time>2026-03-29T09:53:01.418Z</time></trkpt><trkpt lat="43.3468354" lon="13.1441775"><ele>411.0</ele><time>2026-03-29T09:53:03.41Z</time></trkpt><trkpt lat="43.3468188" lon="13.1442783"><ele>411.0</ele><time>2026-03-29T09:53:04.415Z</time></trkpt><trkpt lat="43.3468103" lon="13.1443805"><ele>411.0</ele><time>2026-03-29T09:53:05.424Z</time></trkpt><trkpt lat="43.3468168" lon="13.1444882"><ele>411.0</ele><time>2026-03-29T09:53:06.428Z</time></trkpt><trkpt lat="43.3468701" lon="13.1446156"><ele>411.0</ele><time>2026-03-29T09:53:07.433Z</time></trkpt><trkpt lat="43.3469555" lon="13.144749"><ele>410.5</ele><time>2026-03-29T09:53:08.414Z</time></trkpt><trkpt lat="43.347055" lon="13.1449086"><ele>410.0</ele><time>2026-03-29T09:53:09.419Z</time></trkpt><trkpt lat="43.3471639" lon="13.145068"><ele>409.5</ele><time>2026-03-29T09:53:10.438Z</time></trkpt><trkpt lat="43.3472475" lon="13.1451716"><ele>409.0</ele><time>2026-03-29T09:53:11.423Z</time></trkpt><trkpt lat="43.3473248" lon="13.1452385"><ele>415.0</ele><time>2026-03-29T09:53:12.423Z</time></trkpt><trkpt lat="43.347392" lon="13.1453352"><ele>421.0</ele><time>2026-03-29T09:53:13.411Z</time></trkpt><trkpt lat="43.3474615" lon="13.1454619"><ele>427.0</ele><time>2026-03-29T09:53:14.432Z</time></trkpt><trkpt lat="43.3475513" lon="13.1455734"><ele>433.0</ele><time>2026-03-29T09:53:15.422Z</time></trkpt><trkpt lat="43.3476492" lon="13.1456728"><ele>430.79999999999995</ele><time>2026-03-29T09:53:16.431Z</time></trkpt><trkpt lat="43.3477642" lon="13.1457743"><ele>428.59999999999997</ele><time>2026-03-29T09:53:17.428Z</time></trkpt><trkpt lat="43.3478585" lon="13.1458654"><ele>426.4</ele><time>2026-03-29T09:53:18.413Z</time></trkpt><trkpt lat="43.347941" lon="13.1459387"><ele>424.20000000000005</ele><time>2026-03-29T09:53:19.423Z</time></trkpt><trkpt lat="43.3480208" lon="13.1460001"><ele>422.0</ele><time>2026-03-29T09:53:20.421Z</time></trkpt><trkpt lat="43.3481032" lon="13.1460427"><ele>426.40000000000003</ele><time>2026-03-29T09:53:21.414Z</time></trkpt><trkpt lat="43.3481921" lon="13.1460619"><ele>430.8</ele><time>2026-03-29T09:53:22.395Z</time></trkpt><trkpt lat="43.3482931" lon="13.1460805"><ele>435.2</ele><time>2026-03-29T09:53:23.406Z</time></trkpt><trkpt lat="43.3483958" lon="13.1461069"><ele>439.6</ele><time>2026-03-29T09:53:24.432Z</time></trkpt><trkpt lat="43.3485065" lon="13.1461451"><ele>444.0</ele><time>2026-03-29T09:53:25.428Z</time></trkpt><trkpt lat="43.3486152" lon="13.1462077"><ele>444.0</ele><time>2026-03-29T09:53:26.415Z</time></trkpt><trkpt lat="43.3487119" lon="13.1462734"><ele>444.0</ele><time>2026-03-29T09:53:27.42Z</time></trkpt><trkpt lat="43.3487885" lon="13.1463453"><ele>444.0</ele><time>2026-03-29T09:53:28.416Z</time></trkpt><trkpt lat="43.3488609" lon="13.1464012"><ele>444.0</ele><time>2026-03-29T09:53:29.42Z</time></trkpt><trkpt lat="43.3489256" lon="13.1464168"><ele>444.0</ele><time>2026-03-29T09:53:30.424Z</time></trkpt><trkpt lat="43.3490071" lon="13.1464152"><ele>444.0</ele><time>2026-03-29T09:53:31.409Z</time></trkpt><trkpt lat="43.3490834" lon="13.1463809"><ele>445.0</ele><time>2026-03-29T09:53:32.417Z</time></trkpt><trkpt lat="43.3491413" lon="13.1463129"><ele>446.0</ele><time>2026-03-29T09:53:33.416Z</time></trkpt><trkpt lat="43.3491897" lon="13.1462235"><ele>447.0</ele><time>2026-03-29T09:53:34.373Z</time></trkpt><trkpt lat="43.3492325" lon="13.1461058"><ele>448.0</ele><time>2026-03-29T09:53:35.414Z</time></trkpt><trkpt lat="43.3492715" lon="13.1459733"><ele>449.0</ele><time>2026-03-29T09:53:36.392Z</time></trkpt><trkpt lat="43.3493133" lon="13.1458174"><ele>450.75</ele><time>2026-03-29T09:53:37.414Z</time></trkpt><trkpt lat="43.349357" lon="13.145634"><ele>452.5</ele><time>2026-03-29T09:53:38.428Z</time></trkpt><trkpt lat="43.3493949" lon="13.145446"><ele>454.25</ele><time>2026-03-29T09:53:39.403Z</time></trkpt><trkpt lat="43.349439" lon="13.1452668"><ele>456.0</ele><time>2026-03-29T09:53:40.416Z</time></trkpt><trkpt lat="43.3494818" lon="13.1450973"><ele>456.0</ele><time>2026-03-29T09:53:41.42Z</time></trkpt><trkpt lat="43.3495299" lon="13.1449231"><ele>456.0</ele><time>2026-03-29T09:53:42.424Z</time></trkpt><trkpt lat="43.3495749" lon="13.1447644"><ele>456.0</ele><time>2026-03-29T09:53:43.42Z</time></trkpt><trkpt lat="43.3496223" lon="13.144638"><ele>456.0</ele><time>2026-03-29T09:53:44.377Z</time></trkpt><trkpt lat="43.3496613" lon="13.1445346"><ele>456.0</ele><time>2026-03-29T09:53:45.416Z</time></trkpt><trkpt lat="43.3497036" lon="13.1444671"><ele>456.1666666666667</ele><time>2026-03-29T09:53:46.422Z</time></trkpt><trkpt lat="43.3498243" lon="13.1444239"><ele>456.33333333333337</ele><time>2026-03-29T09:53:48.419Z</time></trkpt><trkpt lat="43.349899" lon="13.1444018"><ele>456.5</ele><time>2026-03-29T09:53:49.399Z</time></trkpt><trkpt lat="43.3499722" lon="13.1443826"><ele>456.6666666666667</ele><time>2026-03-29T09:53:50.372Z</time></trkpt><trkpt lat="43.3500368" lon="13.1443607"><ele>456.83333333333337</ele><time>2026-03-29T09:53:51.416Z</time></trkpt><trkpt lat="43.3501238" lon="13.1443058"><ele>457.0</ele><time>2026-03-29T09:53:53.408Z</time></trkpt><trkpt lat="43.3501401" lon="13.1441636"><ele>457.0</ele><time>2026-03-29T09:53:55.411Z</time></trkpt><trkpt lat="43.3501205" lon="13.1440582"><ele>457.00000000000006</ele><time>2026-03-29T09:53:56.403Z</time></trkpt><trkpt lat="43.35009" lon="13.1439163"><ele>457.00000000000006</ele><time>2026-03-29T09:53:57.419Z</time></trkpt><trkpt lat="43.3500508" lon="13.1437598"><ele>457.0</ele><time>2026-03-29T09:53:58.431Z</time></trkpt><trkpt lat="43.3500063" lon="13.1436179"><ele>457.0</ele><time>2026-03-29T09:53:59.408Z</time></trkpt><trkpt lat="43.3499642" lon="13.1435048"><ele>457.1666666666667</ele><time>2026-03-29T09:54:00.42Z</time></trkpt><trkpt lat="43.3499299" lon="13.1434066"><ele>457.33333333333337</ele><time>2026-03-29T09:54:01.428Z</time></trkpt><trkpt lat="43.3498955" lon="13.1433132"><ele>457.5</ele><time>2026-03-29T09:54:02.41Z</time></trkpt><trkpt lat="43.3498578" lon="13.1432076"><ele>457.66666666666663</ele><time>2026-03-29T09:54:03.422Z</time></trkpt><trkpt lat="43.3498229" lon="13.1431056"><ele>457.8333333333333</ele><time>2026-03-29T09:54:04.42Z</time></trkpt><trkpt lat="43.3497826" lon="13.1429926"><ele>458.0</ele><time>2026-03-29T09:54:05.423Z</time></trkpt><trkpt lat="43.3497408" lon="13.1428754"><ele>458.59999999999997</ele><time>2026-03-29T09:54:06.41Z</time></trkpt><trkpt lat="43.3496956" lon="13.1427544"><ele>459.19999999999993</ele><time>2026-03-29T09:54:07.408Z</time></trkpt><trkpt lat="43.349651" lon="13.142628"><ele>459.8</ele><time>2026-03-29T09:54:08.4Z</time></trkpt><trkpt lat="43.3496053" lon="13.1424949"><ele>460.4</ele><time>2026-03-29T09:54:09.398Z</time></trkpt><trkpt lat="43.3495528" lon="13.1423495"><ele>461.0</ele><time>2026-03-29T09:54:10.414Z</time></trkpt><trkpt lat="43.3495051" lon="13.1422119"><ele>461.8</ele><time>2026-03-29T09:54:11.384Z</time></trkpt><trkpt lat="43.3494696" lon="13.1420812"><ele>462.6</ele><time>2026-03-29T09:54:12.433Z</time></trkpt><trkpt lat="43.3494569" lon="13.1419548"><ele>463.4</ele><time>2026-03-29T09:54:13.432Z</time></trkpt><trkpt lat="43.3494525" lon="13.1418282"><ele>464.2</ele><time>2026-03-29T09:54:14.429Z</time></trkpt><trkpt lat="43.3494226" lon="13.1417158"><ele>465.0</ele><time>2026-03-29T09:54:15.392Z</time></trkpt><trkpt lat="43.3493726" lon="13.1416147"><ele>465.6</ele><time>2026-03-29T09:54:16.409Z</time></trkpt><trkpt lat="43.3493181" lon="13.141508"><ele>466.2</ele><time>2026-03-29T09:54:17.408Z</time></trkpt><trkpt lat="43.3492534" lon="13.1413698"><ele>466.79999999999995</ele><time>2026-03-29T09:54:18.414Z</time></trkpt><trkpt lat="43.3492054" lon="13.1412371"><ele>467.4</ele><time>2026-03-29T09:54:19.416Z</time></trkpt><trkpt lat="43.349167" lon="13.1411147"><ele>468.0</ele><time>2026-03-29T09:54:20.432Z</time></trkpt><trkpt lat="43.3491371" lon="13.1409956"><ele>468.0</ele><time>2026-03-29T09:54:21.414Z</time></trkpt><trkpt lat="43.3490892" lon="13.1408837"><ele>467.99999999999994</ele><time>2026-03-29T09:54:22.416Z</time></trkpt><trkpt lat="43.3490337" lon="13.1407777"><ele>467.99999999999994</ele><time>2026-03-29T09:54:23.416Z</time></trkpt><trkpt lat="43.3489584" lon="13.1406663"><ele>468.0</ele><time>2026-03-29T09:54:24.43Z</time></trkpt><trkpt lat="43.3488638" lon="13.1405591"><ele>468.0</ele><time>2026-03-29T09:54:25.441Z</time></trkpt><trkpt lat="43.3487629" lon="13.1404521"><ele>469.4</ele><time>2026-03-29T09:54:26.409Z</time></trkpt><trkpt lat="43.3486578" lon="13.1403484"><ele>470.79999999999995</ele><time>2026-03-29T09:54:27.427Z</time></trkpt><trkpt lat="43.3485721" lon="13.1402451"><ele>472.2</ele><time>2026-03-29T09:54:28.425Z</time></trkpt><trkpt lat="43.3485039" lon="13.1401312"><ele>473.6</ele><time>2026-03-29T09:54:29.425Z</time></trkpt><trkpt lat="43.3484474" lon="13.1400214"><ele>475.0</ele><time>2026-03-29T09:54:30.394Z</time></trkpt><trkpt lat="43.3484058" lon="13.139916"><ele>474.1666666666667</ele><time>2026-03-29T09:54:31.414Z</time></trkpt><trkpt lat="43.3483553" lon="13.1398121"><ele>473.33333333333337</ele><time>2026-03-29T09:54:32.421Z</time></trkpt><trkpt lat="43.3483063" lon="13.1397032"><ele>472.5</ele><time>2026-03-29T09:54:33.439Z</time></trkpt><trkpt lat="43.348265" lon="13.1395999"><ele>471.66666666666663</ele><time>2026-03-29T09:54:34.432Z</time></trkpt><trkpt lat="43.3482296" lon="13.1395045"><ele>470.8333333333333</ele><time>2026-03-29T09:54:35.417Z</time></trkpt><trkpt lat="43.3481967" lon="13.1394044"><ele>470.0</ele><time>2026-03-29T09:54:36.394Z</time></trkpt><trkpt lat="43.3481643" lon="13.1393097"><ele>470.0</ele><time>2026-03-29T09:54:37.416Z</time></trkpt><trkpt lat="43.348132" lon="13.1392213"><ele>469.99999999999994</ele><time>2026-03-29T09:54:38.427Z</time></trkpt><trkpt lat="43.3480986" lon="13.1391309"><ele>470.0</ele><time>2026-03-29T09:54:39.415Z</time></trkpt><trkpt lat="43.3480621" lon="13.1390538"><ele>470.0</ele><time>2026-03-29T09:54:40.417Z</time></trkpt><trkpt lat="43.348021" lon="13.1389765"><ele>469.99999999999994</ele><time>2026-03-29T09:54:41.411Z</time></trkpt><trkpt lat="43.3479775" lon="13.1388953"><ele>470.0</ele><time>2026-03-29T09:54:42.398Z</time></trkpt><trkpt lat="43.3479374" lon="13.1388034"><ele>470.0</ele><time>2026-03-29T09:54:43.404Z</time></trkpt><trkpt lat="43.3478947" lon="13.1387114"><ele>467.99999999999994</ele><time>2026-03-29T09:54:44.421Z</time></trkpt><trkpt lat="43.3478569" lon="13.1386072"><ele>466.0</ele><time>2026-03-29T09:54:45.42Z</time></trkpt><trkpt lat="43.3478206" lon="13.1385021"><ele>464.0</ele><time>2026-03-29T09:54:46.415Z</time></trkpt><trkpt lat="43.3477866" lon="13.1383905"><ele>462.0</ele><time>2026-03-29T09:54:47.372Z</time></trkpt><trkpt lat="43.3477416" lon="13.1382806"><ele>459.99999999999994</ele><time>2026-03-29T09:54:48.423Z</time></trkpt><trkpt lat="43.3476932" lon="13.1381746"><ele>458.0</ele><time>2026-03-29T09:54:49.41Z</time></trkpt><trkpt lat="43.3476471" lon="13.1380841"><ele>457.57142857142856</ele><time>2026-03-29T09:54:50.418Z</time></trkpt><trkpt lat="43.3476087" lon="13.137999"><ele>457.14285714285717</ele><time>2026-03-29T09:54:51.412Z</time></trkpt><trkpt lat="43.3475743" lon="13.1379113"><ele>456.7142857142857</ele><time>2026-03-29T09:54:52.407Z</time></trkpt><trkpt lat="43.3475425" lon="13.1378261"><ele>456.2857142857143</ele><time>2026-03-29T09:54:53.442Z</time></trkpt><trkpt lat="43.347522" lon="13.1377416"><ele>455.8571428571429</ele><time>2026-03-29T09:54:54.417Z</time></trkpt><trkpt lat="43.3475051" lon="13.1376539"><ele>455.42857142857144</ele><time>2026-03-29T09:54:55.435Z</time></trkpt><trkpt lat="43.3474902" lon="13.1375545"><ele>455.0</ele><time>2026-03-29T09:54:56.434Z</time></trkpt><trkpt lat="43.3474847" lon="13.137449"><ele>453.2</ele><time>2026-03-29T09:54:57.431Z</time></trkpt><trkpt lat="43.3474849" lon="13.137342"><ele>451.4</ele><time>2026-03-29T09:54:58.418Z</time></trkpt><trkpt lat="43.3475039" lon="13.1372202"><ele>449.6</ele><time>2026-03-29T09:54:59.415Z</time></trkpt><trkpt lat="43.3475364" lon="13.1370799"><ele>447.8</ele><time>2026-03-29T09:55:00.384Z</time></trkpt><trkpt lat="43.347579" lon="13.1369174"><ele>446.0</ele><time>2026-03-29T09:55:01.418Z</time></trkpt><trkpt lat="43.3476295" lon="13.1367382"><ele>446.0</ele><time>2026-03-29T09:55:02.422Z</time></trkpt><trkpt lat="43.3476806" lon="13.1365557"><ele>446.0</ele><time>2026-03-29T09:55:03.43Z</time></trkpt><trkpt lat="43.3477268" lon="13.1363641"><ele>446.0</ele><time>2026-03-29T09:55:04.42Z</time></trkpt><trkpt lat="43.3477738" lon="13.1361628"><ele>446.0</ele><time>2026-03-29T09:55:05.369Z</time></trkpt><trkpt lat="43.3478161" lon="13.1359625"><ele>444.25</ele><time>2026-03-29T09:55:06.413Z</time></trkpt><trkpt lat="43.3478533" lon="13.1357818"><ele>442.5</ele><time>2026-03-29T09:55:07.442Z</time></trkpt><trkpt lat="43.3478875" lon="13.1356151"><ele>440.75</ele><time>2026-03-29T09:55:08.429Z</time></trkpt><trkpt lat="43.347911" lon="13.1354717"><ele>439.0</ele><time>2026-03-29T09:55:09.428Z</time></trkpt><trkpt lat="43.3479237" lon="13.1353393"><ele>438.6</ele><time>2026-03-29T09:55:10.407Z</time></trkpt><trkpt lat="43.3479109" lon="13.135204"><ele>438.2</ele><time>2026-03-29T09:55:11.43Z</time></trkpt><trkpt lat="43.3478842" lon="13.1350547"><ele>437.80000000000007</ele><time>2026-03-29T09:55:12.402Z</time></trkpt><trkpt lat="43.347846" lon="13.1349061"><ele>437.40000000000003</ele><time>2026-03-29T09:55:13.429Z</time></trkpt><trkpt lat="43.3478154" lon="13.134745"><ele>437.0</ele><time>2026-03-29T09:55:14.431Z</time></trkpt><trkpt lat="43.3477786" lon="13.1345772"><ele>437.0</ele><time>2026-03-29T09:55:15.402Z</time></trkpt><trkpt lat="43.347736" lon="13.1343969"><ele>437.0</ele><time>2026-03-29T09:55:16.415Z</time></trkpt><trkpt lat="43.3476932" lon="13.1342117"><ele>437.0</ele><time>2026-03-29T09:55:17.412Z</time></trkpt><trkpt lat="43.3476406" lon="13.1340285"><ele>437.0</ele><time>2026-03-29T09:55:18.439Z</time></trkpt><trkpt lat="43.3475809" lon="13.1338502"><ele>437.25</ele><time>2026-03-29T09:55:19.421Z</time></trkpt><trkpt lat="43.3475299" lon="13.1336681"><ele>437.5</ele><time>2026-03-29T09:55:20.421Z</time></trkpt><trkpt lat="43.3474887" lon="13.1334874"><ele>437.75</ele><time>2026-03-29T09:55:21.42Z</time></trkpt><trkpt lat="43.3474436" lon="13.133308"><ele>438.0</ele><time>2026-03-29T09:55:22.426Z</time></trkpt><trkpt lat="43.3474062" lon="13.1331375"><ele>438.4</ele><time>2026-03-29T09:55:23.365Z</time></trkpt><trkpt lat="43.3473746" lon="13.1329834"><ele>438.79999999999995</ele><time>2026-03-29T09:55:24.421Z</time></trkpt><trkpt lat="43.3473497" lon="13.1328536"><ele>439.2</ele><time>2026-03-29T09:55:25.429Z</time></trkpt><trkpt lat="43.3473332" lon="13.1327403"><ele>439.6</ele><time>2026-03-29T09:55:26.43Z</time></trkpt><trkpt lat="43.3473239" lon="13.1326421"><ele>440.0</ele><time>2026-03-29T09:55:27.417Z</time></trkpt><trkpt lat="43.3472741" lon="13.1324844"><ele>439.99999999999994</ele><time>2026-03-29T09:55:29.402Z</time></trkpt><trkpt lat="43.3472395" lon="13.1323968"><ele>440.0</ele><time>2026-03-29T09:55:30.428Z</time></trkpt><trkpt lat="43.3472184" lon="13.1323025"><ele>440.0</ele><time>2026-03-29T09:55:31.419Z</time></trkpt><trkpt lat="43.3472096" lon="13.1321977"><ele>440.0</ele><time>2026-03-29T09:55:32.422Z</time></trkpt><trkpt lat="43.3471723" lon="13.1320701"><ele>439.99999999999994</ele><time>2026-03-29T09:55:33.42Z</time></trkpt><trkpt lat="43.3471272" lon="13.1319603"><ele>440.0</ele><time>2026-03-29T09:55:34.42Z</time></trkpt><trkpt lat="43.3471085" lon="13.131852"><ele>440.8333333333333</ele><time>2026-03-29T09:55:35.44Z</time></trkpt><trkpt lat="43.3470995" lon="13.1317348"><ele>441.66666666666663</ele><time>2026-03-29T09:55:36.376Z</time></trkpt><trkpt lat="43.3470892" lon="13.1316179"><ele>442.5</ele><time>2026-03-29T09:55:37.413Z</time></trkpt><trkpt lat="43.3470643" lon="13.1315209"><ele>443.33333333333337</ele><time>2026-03-29T09:55:38.42Z</time></trkpt><trkpt lat="43.3470267" lon="13.1314146"><ele>444.1666666666667</ele><time>2026-03-29T09:55:39.42Z</time></trkpt><trkpt lat="43.3469865" lon="13.1312996"><ele>445.0</ele><time>2026-03-29T09:55:40.424Z</time></trkpt><trkpt lat="43.3469486" lon="13.1311757"><ele>446.6</ele><time>2026-03-29T09:55:41.431Z</time></trkpt><trkpt lat="43.3469135" lon="13.131053"><ele>448.2</ele><time>2026-03-29T09:55:42.417Z</time></trkpt><trkpt lat="43.3468726" lon="13.1309259"><ele>449.79999999999995</ele><time>2026-03-29T09:55:43.435Z</time></trkpt><trkpt lat="43.346812" lon="13.1307983"><ele>451.4</ele><time>2026-03-29T09:55:44.42Z</time></trkpt><trkpt lat="43.3467353" lon="13.1306713"><ele>453.0</ele><time>2026-03-29T09:55:45.416Z</time></trkpt><trkpt lat="43.34666" lon="13.1305451"><ele>453.2</ele><time>2026-03-29T09:55:46.421Z</time></trkpt><trkpt lat="43.3465919" lon="13.1304128"><ele>453.4</ele><time>2026-03-29T09:55:47.375Z</time></trkpt><trkpt lat="43.346523" lon="13.1303089"><ele>453.59999999999997</ele><time>2026-03-29T09:55:48.41Z</time></trkpt><trkpt lat="43.3464553" lon="13.1302254"><ele>453.79999999999995</ele><time>2026-03-29T09:55:49.422Z</time></trkpt><trkpt lat="43.346387" lon="13.1301447"><ele>454.0</ele><time>2026-03-29T09:55:50.366Z</time></trkpt><trkpt lat="43.3463288" lon="13.1300499"><ele>454.33333333333337</ele><time>2026-03-29T09:55:51.418Z</time></trkpt><trkpt lat="43.3462825" lon="13.1299692"><ele>454.6666666666667</ele><time>2026-03-29T09:55:52.433Z</time></trkpt><trkpt lat="43.3462428" lon="13.1298519"><ele>455.0</ele><time>2026-03-29T09:55:54.42Z</time></trkpt><trkpt lat="43.3461782" lon="13.129776"><ele>455.33333333333337</ele><time>2026-03-29T09:55:57.422Z</time></trkpt><trkpt lat="43.3461282" lon="13.1297042"><ele>455.6666666666667</ele><time>2026-03-29T09:55:59.394Z</time></trkpt><trkpt lat="43.3460815" lon="13.1296287"><ele>456.0</ele><time>2026-03-29T09:56:01.433Z</time></trkpt><trkpt lat="43.3460362" lon="13.1295062"><ele>456.0</ele><time>2026-03-29T09:56:03.403Z</time></trkpt><trkpt lat="43.3459993" lon="13.1294175"><ele>455.99999999999994</ele><time>2026-03-29T09:56:05.42Z</time></trkpt><trkpt lat="43.3459708" lon="13.1293368"><ele>456.0</ele><time>2026-03-29T09:56:07.425Z</time></trkpt><trkpt lat="43.3459335" lon="13.1292488"><ele>456.0</ele><time>2026-03-29T09:56:09.405Z</time></trkpt><trkpt lat="43.3459025" lon="13.1291637"><ele>455.99999999999994</ele><time>2026-03-29T09:56:11.372Z</time></trkpt><trkpt lat="43.3458724" lon="13.1290786"><ele>456.0</ele><time>2026-03-29T09:56:13.401Z</time></trkpt><trkpt lat="43.3458405" lon="13.1289515"><ele>456.0</ele><time>2026-03-29T09:56:15.418Z</time></trkpt><trkpt lat="43.3457946" lon="13.1288223"><ele>455.8333333333333</ele><time>2026-03-29T09:56:17.426Z</time></trkpt><trkpt lat="43.3457473" lon="13.1287198"><ele>455.66666666666663</ele><time>2026-03-29T09:56:19.42Z</time></trkpt><trkpt lat="43.345721" lon="13.1286082"><ele>455.5</ele><time>2026-03-29T09:56:21.42Z</time></trkpt><trkpt lat="43.3456885" lon="13.1284961"><ele>455.3333333333333</ele><time>2026-03-29T09:56:23.401Z</time></trkpt><trkpt lat="43.3456604" lon="13.1284083"><ele>455.16666666666663</ele><time>2026-03-29T09:56:25.414Z</time></trkpt><trkpt lat="43.3456191" lon="13.1282773"><ele>455.0</ele><time>2026-03-29T09:56:27.414Z</time></trkpt><trkpt lat="43.3455789" lon="13.128195"><ele>456.25</ele><time>2026-03-29T09:56:28.406Z</time></trkpt><trkpt lat="43.3455119" lon="13.1281118"><ele>457.5</ele><time>2026-03-29T09:56:29.422Z</time></trkpt><trkpt lat="43.3454144" lon="13.1280352"><ele>458.75</ele><time>2026-03-29T09:56:30.427Z</time></trkpt><trkpt lat="43.3452995" lon="13.1279707"><ele>460.0</ele><time>2026-03-29T09:56:31.409Z</time></trkpt><trkpt lat="43.3451621" lon="13.1279032"><ele>460.0</ele><time>2026-03-29T09:56:32.438Z</time></trkpt><trkpt lat="43.3450123" lon="13.1278263"><ele>460.0</ele><time>2026-03-29T09:56:33.43Z</time></trkpt><trkpt lat="43.3448678" lon="13.1277538"><ele>460.0</ele><time>2026-03-29T09:56:34.425Z</time></trkpt><trkpt lat="43.3447352" lon="13.1276845"><ele>458.75</ele><time>2026-03-29T09:56:35.429Z</time></trkpt><trkpt lat="43.3446179" lon="13.1276385"><ele>457.5</ele><time>2026-03-29T09:56:36.404Z</time></trkpt><trkpt lat="43.3445017" lon="13.1276068"><ele>456.25</ele><time>2026-03-29T09:56:37.419Z</time></trkpt><trkpt lat="43.3443794" lon="13.1275847"><ele>455.0</ele><time>2026-03-29T09:56:38.429Z</time></trkpt><trkpt lat="43.3442614" lon="13.1275478"><ele>455.0</ele><time>2026-03-29T09:56:39.426Z</time></trkpt><trkpt lat="43.3441454" lon="13.1274754"><ele>455.0</ele><time>2026-03-29T09:56:40.428Z</time></trkpt><trkpt lat="43.3440285" lon="13.127396"><ele>455.0</ele><time>2026-03-29T09:56:41.407Z</time></trkpt><trkpt lat="43.3439125" lon="13.1273399"><ele>455.0</ele><time>2026-03-29T09:56:42.416Z</time></trkpt><trkpt lat="43.3437822" lon="13.1273149"><ele>455.75</ele><time>2026-03-29T09:56:43.412Z</time></trkpt><trkpt lat="43.3436358" lon="13.1273213"><ele>456.5</ele><time>2026-03-29T09:56:44.422Z</time></trkpt><trkpt lat="43.3435072" lon="13.127357"><ele>457.25</ele><time>2026-03-29T09:56:45.434Z</time></trkpt><trkpt lat="43.343391" lon="13.1274103"><ele>458.0</ele><time>2026-03-29T09:56:46.42Z</time></trkpt><trkpt lat="43.3432739" lon="13.1274746"><ele>458.0</ele><time>2026-03-29T09:56:47.375Z</time></trkpt><trkpt lat="43.3431561" lon="13.1275442"><ele>458.0</ele><time>2026-03-29T09:56:48.378Z</time></trkpt><trkpt lat="43.3430448" lon="13.1276169"><ele>458.0</ele><time>2026-03-29T09:56:49.44Z</time></trkpt><trkpt lat="43.3429361" lon="13.127673"><ele>458.0</ele><time>2026-03-29T09:56:50.421Z</time></trkpt><trkpt lat="43.3428335" lon="13.1277078"><ele>458.59999999999997</ele><time>2026-03-29T09:56:51.414Z</time></trkpt><trkpt lat="43.34274" lon="13.1277291"><ele>459.19999999999993</ele><time>2026-03-29T09:56:52.427Z</time></trkpt><trkpt lat="43.3426469" lon="13.1277369"><ele>459.8</ele><time>2026-03-29T09:56:53.426Z</time></trkpt><trkpt lat="43.3425543" lon="13.1277023"><ele>460.4</ele><time>2026-03-29T09:56:54.418Z</time></trkpt><trkpt lat="43.3424547" lon="13.1276232"><ele>461.0</ele><time>2026-03-29T09:56:55.43Z</time></trkpt><trkpt lat="43.342356" lon="13.1275405"><ele>461.0</ele><time>2026-03-29T09:56:56.425Z</time></trkpt><trkpt lat="43.3422492" lon="13.1274428"><ele>461.0</ele><time>2026-03-29T09:56:57.398Z</time></trkpt><trkpt lat="43.3421294" lon="13.1273399"><ele>461.0</ele><time>2026-03-29T09:56:58.372Z</time></trkpt><trkpt lat="43.3420044" lon="13.12723"><ele>461.0</ele><time>2026-03-29T09:56:59.418Z</time></trkpt><trkpt lat="43.3418622" lon="13.1270897"><ele>464.0</ele><time>2026-03-29T09:57:00.421Z</time></trkpt><trkpt lat="43.3417085" lon="13.1269474"><ele>467.0</ele><time>2026-03-29T09:57:01.421Z</time></trkpt><trkpt lat="43.3415289" lon="13.1268146"><ele>470.0</ele><time>2026-03-29T09:57:02.379Z</time></trkpt><trkpt lat="43.3413358" lon="13.1267353"><ele>470.0</ele><time>2026-03-29T09:57:03.384Z</time></trkpt><trkpt lat="43.3411457" lon="13.1266893"><ele>470.0</ele><time>2026-03-29T09:57:04.375Z</time></trkpt><trkpt lat="43.3409511" lon="13.1266531"><ele>470.0</ele><time>2026-03-29T09:57:05.393Z</time></trkpt><trkpt lat="43.3407609" lon="13.1266116"><ele>470.0</ele><time>2026-03-29T09:57:06.406Z</time></trkpt><trkpt lat="43.3405655" lon="13.126564"><ele>470.0</ele><time>2026-03-29T09:57:07.405Z</time></trkpt><trkpt lat="43.3403724" lon="13.1265068"><ele>470.0</ele><time>2026-03-29T09:57:08.384Z</time></trkpt><trkpt lat="43.3402118" lon="13.1264523"><ele>471.75</ele><time>2026-03-29T09:57:09.425Z</time></trkpt><trkpt lat="43.3400628" lon="13.1263904"><ele>473.5</ele><time>2026-03-29T09:57:10.388Z</time></trkpt><trkpt lat="43.3399275" lon="13.1263568"><ele>475.25</ele><time>2026-03-29T09:57:11.411Z</time></trkpt><trkpt lat="43.3398159" lon="13.1263692"><ele>477.0</ele><time>2026-03-29T09:57:12.427Z</time></trkpt><trkpt lat="43.3397033" lon="13.1263919"><ele>478.75</ele><time>2026-03-29T09:57:13.431Z</time></trkpt><trkpt lat="43.3395966" lon="13.1263848"><ele>480.5</ele><time>2026-03-29T09:57:14.407Z</time></trkpt><trkpt lat="43.3394814" lon="13.1262988"><ele>482.25</ele><time>2026-03-29T09:57:15.417Z</time></trkpt><trkpt lat="43.3393369" lon="13.126157"><ele>484.0</ele><time>2026-03-29T09:57:16.397Z</time></trkpt><trkpt lat="43.3391762" lon="13.1260195"><ele>484.0</ele><time>2026-03-29T09:57:17.386Z</time></trkpt><trkpt lat="43.3389919" lon="13.1258883"><ele>484.0</ele><time>2026-03-29T09:57:18.403Z</time></trkpt><trkpt lat="43.3388089" lon="13.1257742"><ele>484.0</ele><time>2026-03-29T09:57:19.405Z</time></trkpt><trkpt lat="43.3386403" lon="13.1256758"><ele>484.33333333333337</ele><time>2026-03-29T09:57:20.38Z</time></trkpt><trkpt lat="43.338483" lon="13.1256047"><ele>484.66666666666663</ele><time>2026-03-29T09:57:21.374Z</time></trkpt><trkpt lat="43.3383221" lon="13.1255186"><ele>485.0</ele><time>2026-03-29T09:57:22.418Z</time></trkpt><trkpt lat="43.3381641" lon="13.1253922"><ele>487.0</ele><time>2026-03-29T09:57:23.415Z</time></trkpt><trkpt lat="43.3380016" lon="13.1252286"><ele>489.0</ele><time>2026-03-29T09:57:24.429Z</time></trkpt><trkpt lat="43.3378368" lon="13.1250618"><ele>491.0</ele><time>2026-03-29T09:57:25.394Z</time></trkpt><trkpt lat="43.3376851" lon="13.1249014"><ele>490.3333333333333</ele><time>2026-03-29T09:57:26.427Z</time></trkpt><trkpt lat="43.3375482" lon="13.1247463"><ele>489.66666666666663</ele><time>2026-03-29T09:57:27.435Z</time></trkpt><trkpt lat="43.3374084" lon="13.1246148"><ele>489.0</ele><time>2026-03-29T09:57:28.432Z</time></trkpt><trkpt lat="43.3372623" lon="13.124518"><ele>490.66666666666663</ele><time>2026-03-29T09:57:29.43Z</time></trkpt><trkpt lat="43.3371036" lon="13.1244549"><ele>492.3333333333333</ele><time>2026-03-29T09:57:30.424Z</time></trkpt><trkpt lat="43.3369371" lon="13.1244203"><ele>494.0</ele><time>2026-03-29T09:57:31.399Z</time></trkpt><trkpt lat="43.3367544" lon="13.1243924"><ele>494.0</ele><time>2026-03-29T09:57:32.411Z</time></trkpt><trkpt lat="43.3365743" lon="13.1243575"><ele>494.0</ele><time>2026-03-29T09:57:33.419Z</time></trkpt><trkpt lat="43.3364202" lon="13.124318"><ele>494.0</ele><time>2026-03-29T09:57:34.371Z</time></trkpt><trkpt lat="43.3362845" lon="13.1242782"><ele>494.75</ele><time>2026-03-29T09:57:35.408Z</time></trkpt><trkpt lat="43.3361548" lon="13.124236"><ele>495.5</ele><time>2026-03-29T09:57:36.404Z</time></trkpt><trkpt lat="43.3360371" lon="13.1241798"><ele>496.25</ele><time>2026-03-29T09:57:37.398Z</time></trkpt><trkpt lat="43.3359274" lon="13.1241306"><ele>497.0</ele><time>2026-03-29T09:57:38.419Z</time></trkpt><trkpt lat="43.335809" lon="13.1240984"><ele>497.0</ele><time>2026-03-29T09:57:39.41Z</time></trkpt><trkpt lat="43.3356665" lon="13.1240898"><ele>497.0</ele><time>2026-03-29T09:57:40.41Z</time></trkpt><trkpt lat="43.3355034" lon="13.1240912"><ele>497.0</ele><time>2026-03-29T09:57:41.412Z</time></trkpt><trkpt lat="43.3353527" lon="13.1240717"><ele>494.0</ele><time>2026-03-29T09:57:42.433Z</time></trkpt><trkpt lat="43.335223" lon="13.1240324"><ele>491.0</ele><time>2026-03-29T09:57:43.391Z</time></trkpt><trkpt lat="43.3351087" lon="13.123992"><ele>488.0</ele><time>2026-03-29T09:57:44.433Z</time></trkpt><trkpt lat="43.3350028" lon="13.1239828"><ele>485.0</ele><time>2026-03-29T09:57:45.422Z</time></trkpt><trkpt lat="43.3348799" lon="13.1240071"><ele>490.0</ele><time>2026-03-29T09:57:46.416Z</time></trkpt><trkpt lat="43.3347427" lon="13.1240697"><ele>495.0</ele><time>2026-03-29T09:57:47.378Z</time></trkpt><trkpt lat="43.334588" lon="13.1241361"><ele>500.0</ele><time>2026-03-29T09:57:48.367Z</time></trkpt><trkpt lat="43.3344284" lon="13.1242015"><ele>500.0</ele><time>2026-03-29T09:57:49.425Z</time></trkpt><trkpt lat="43.3342547" lon="13.1242526"><ele>500.0</ele><time>2026-03-29T09:57:50.423Z</time></trkpt><trkpt lat="43.334066" lon="13.1242817"><ele>500.0</ele><time>2026-03-29T09:57:51.418Z</time></trkpt><trkpt lat="43.3338835" lon="13.1243043"><ele>501.0</ele><time>2026-03-29T09:57:52.43Z</time></trkpt><trkpt lat="43.3337259" lon="13.1243214"><ele>502.0</ele><time>2026-03-29T09:57:53.366Z</time></trkpt><trkpt lat="43.3335833" lon="13.1243403"><ele>503.0</ele><time>2026-03-29T09:57:54.422Z</time></trkpt><trkpt lat="43.3334636" lon="13.1243527"><ele>504.0</ele><time>2026-03-29T09:57:55.415Z</time></trkpt><trkpt lat="43.3333588" lon="13.1243743"><ele>504.0</ele><time>2026-03-29T09:57:56.42Z</time></trkpt><trkpt lat="43.3332656" lon="13.1243993"><ele>504.0</ele><time>2026-03-29T09:57:57.425Z</time></trkpt><trkpt lat="43.3332012" lon="13.124417"><ele>504.0</ele><time>2026-03-29T09:57:58.427Z</time></trkpt><trkpt lat="43.3330993" lon="13.1244193"><ele>504.0</ele><time>2026-03-29T09:58:00.428Z</time></trkpt><trkpt lat="43.3330464" lon="13.124268"><ele>504.0</ele><time>2026-03-29T09:58:02.414Z</time></trkpt><trkpt lat="43.3330477" lon="13.1241723"><ele>503.3333333333333</ele><time>2026-03-29T09:58:03.419Z</time></trkpt><trkpt lat="43.3330357" lon="13.1240728"><ele>502.66666666666663</ele><time>2026-03-29T09:58:04.428Z</time></trkpt><trkpt lat="43.3330133" lon="13.1239765"><ele>502.0</ele><time>2026-03-29T09:58:05.522Z</time></trkpt><trkpt lat="43.3329928" lon="13.1238851"><ele>501.3333333333333</ele><time>2026-03-29T09:58:06.427Z</time></trkpt><trkpt lat="43.3329726" lon="13.1238004"><ele>500.66666666666663</ele><time>2026-03-29T09:58:07.434Z</time></trkpt><trkpt lat="43.332935" lon="13.1236496"><ele>500.0</ele><time>2026-03-29T09:58:09.434Z</time></trkpt><trkpt lat="43.3328973" lon="13.123517"><ele>500.16666666666663</ele><time>2026-03-29T09:58:11.409Z</time></trkpt><trkpt lat="43.332876" lon="13.1234291"><ele>500.3333333333333</ele><time>2026-03-29T09:58:13.418Z</time></trkpt><trkpt lat="43.3328508" lon="13.1233209"><ele>500.5</ele><time>2026-03-29T09:58:17.434Z</time></trkpt><trkpt lat="43.3328633" lon="13.1232021"><ele>500.66666666666663</ele><time>2026-03-29T09:58:20.423Z</time></trkpt><trkpt lat="43.3329456" lon="13.1231015"><ele>500.8333333333333</ele><time>2026-03-29T09:58:22.431Z</time></trkpt><trkpt lat="43.3330056" lon="13.1230691"><ele>501.0</ele><time>2026-03-29T09:58:23.439Z</time></trkpt><trkpt lat="43.3330687" lon="13.1230152"><ele>501.0</ele><time>2026-03-29T09:58:24.406Z</time></trkpt><trkpt lat="43.3331273" lon="13.1229425"><ele>501.0</ele><time>2026-03-29T09:58:25.414Z</time></trkpt><trkpt lat="43.3331836" lon="13.1228748"><ele>501.0</ele><time>2026-03-29T09:58:26.426Z</time></trkpt><trkpt lat="43.3332404" lon="13.1228011"><ele>501.0</ele><time>2026-03-29T09:58:27.431Z</time></trkpt><trkpt lat="43.3333007" lon="13.1227224"><ele>501.0</ele><time>2026-03-29T09:58:28.427Z</time></trkpt><trkpt lat="43.3333642" lon="13.1226457"><ele>501.0</ele><time>2026-03-29T09:58:29.406Z</time></trkpt><trkpt lat="43.3334263" lon="13.1225667"><ele>501.0</ele><time>2026-03-29T09:58:30.413Z</time></trkpt><trkpt lat="43.3334928" lon="13.1224852"><ele>501.0</ele><time>2026-03-29T09:58:31.404Z</time></trkpt><trkpt lat="43.3335565" lon="13.1224018"><ele>501.0</ele><time>2026-03-29T09:58:32.428Z</time></trkpt><trkpt lat="43.3336208" lon="13.1223179"><ele>501.0</ele><time>2026-03-29T09:58:33.433Z</time></trkpt><trkpt lat="43.3336841" lon="13.1222347"><ele>501.0</ele><time>2026-03-29T09:58:34.419Z</time></trkpt><trkpt lat="43.3337491" lon="13.1221542"><ele>501.0</ele><time>2026-03-29T09:58:35.429Z</time></trkpt><trkpt lat="43.3338161" lon="13.1220736"><ele>501.6</ele><time>2026-03-29T09:58:36.414Z</time></trkpt><trkpt lat="43.3338806" lon="13.1219911"><ele>502.20000000000005</ele><time>2026-03-29T09:58:37.43Z</time></trkpt><trkpt lat="43.3339402" lon="13.1218948"><ele>502.79999999999995</ele><time>2026-03-29T09:58:38.423Z</time></trkpt><trkpt lat="43.3339954" lon="13.1217878"><ele>503.4</ele><time>2026-03-29T09:58:39.426Z</time></trkpt><trkpt lat="43.3340466" lon="13.121663"><ele>504.0</ele><time>2026-03-29T09:58:40.433Z</time></trkpt><trkpt lat="43.3340857" lon="13.1215255"><ele>504.0</ele><time>2026-03-29T09:58:41.422Z</time></trkpt><trkpt lat="43.3341141" lon="13.121377"><ele>504.0</ele><time>2026-03-29T09:58:42.406Z</time></trkpt><trkpt lat="43.3341337" lon="13.1212114"><ele>504.0</ele><time>2026-03-29T09:58:43.439Z</time></trkpt><trkpt lat="43.3341497" lon="13.1210308"><ele>504.0</ele><time>2026-03-29T09:58:44.408Z</time></trkpt><trkpt lat="43.3341649" lon="13.1208429"><ele>505.4</ele><time>2026-03-29T09:58:45.408Z</time></trkpt><trkpt lat="43.3341907" lon="13.1206777"><ele>506.79999999999995</ele><time>2026-03-29T09:58:46.412Z</time></trkpt><trkpt lat="43.334226" lon="13.1205337"><ele>508.20000000000005</ele><time>2026-03-29T09:58:47.376Z</time></trkpt><trkpt lat="43.3342748" lon="13.1204048"><ele>509.6</ele><time>2026-03-29T09:58:48.369Z</time></trkpt><trkpt lat="43.3343198" lon="13.1202951"><ele>511.0</ele><time>2026-03-29T09:58:49.434Z</time></trkpt><trkpt lat="43.3343666" lon="13.120203"><ele>511.00000000000006</ele><time>2026-03-29T09:58:50.392Z</time></trkpt><trkpt lat="43.3344152" lon="13.1201136"><ele>511.0</ele><time>2026-03-29T09:58:51.417Z</time></trkpt><trkpt lat="43.3344748" lon="13.1200241"><ele>511.0</ele><time>2026-03-29T09:58:52.422Z</time></trkpt><trkpt lat="43.3345411" lon="13.119952"><ele>511.0</ele><time>2026-03-29T09:58:53.429Z</time></trkpt><trkpt lat="43.3346059" lon="13.1198801"><ele>511.00000000000006</ele><time>2026-03-29T09:58:54.421Z</time></trkpt><trkpt lat="43.3346769" lon="13.1197987"><ele>511.0</ele><time>2026-03-29T09:58:55.438Z</time></trkpt><trkpt lat="43.3347368" lon="13.1197272"><ele>510.33333333333337</ele><time>2026-03-29T09:58:56.429Z</time></trkpt><trkpt lat="43.3347823" lon="13.1196661"><ele>509.6666666666667</ele><time>2026-03-29T09:58:57.432Z</time></trkpt><trkpt lat="43.3348499" lon="13.1195504"><ele>509.0</ele><time>2026-03-29T09:58:59.44Z</time></trkpt><trkpt lat="43.3348022" lon="13.1194386"><ele>508.33333333333337</ele><time>2026-03-29T09:59:01.422Z</time></trkpt><trkpt lat="43.3346989" lon="13.1194781"><ele>507.6666666666667</ele><time>2026-03-29T09:59:03.413Z</time></trkpt><trkpt lat="43.3346366" lon="13.1195284"><ele>507.0</ele><time>2026-03-29T09:59:04.421Z</time></trkpt><trkpt lat="43.3345588" lon="13.1195796"><ele>507.0</ele><time>2026-03-29T09:59:05.413Z</time></trkpt><trkpt lat="43.3344617" lon="13.119633"><ele>507.0</ele><time>2026-03-29T09:59:06.415Z</time></trkpt><trkpt lat="43.3343614" lon="13.1197039"><ele>507.0</ele><time>2026-03-29T09:59:07.414Z</time></trkpt><trkpt lat="43.3342596" lon="13.1197956"><ele>507.0</ele><time>2026-03-29T09:59:08.403Z</time></trkpt><trkpt lat="43.3341571" lon="13.1198861"><ele>507.8</ele><time>2026-03-29T09:59:09.364Z</time></trkpt><trkpt lat="43.3340687" lon="13.119951"><ele>508.6</ele><time>2026-03-29T09:59:10.383Z</time></trkpt><trkpt lat="43.3339815" lon="13.1200032"><ele>509.40000000000003</ele><time>2026-03-29T09:59:11.414Z</time></trkpt><trkpt lat="43.3338863" lon="13.1200532"><ele>510.20000000000005</ele><time>2026-03-29T09:59:12.436Z</time></trkpt><trkpt lat="43.3337835" lon="13.1200786"><ele>511.0</ele><time>2026-03-29T09:59:13.404Z</time></trkpt><trkpt lat="43.3336818" lon="13.1200847"><ele>513.4</ele><time>2026-03-29T09:59:14.438Z</time></trkpt><trkpt lat="43.3335831" lon="13.1200755"><ele>515.8</ele><time>2026-03-29T09:59:15.426Z</time></trkpt><trkpt lat="43.3334891" lon="13.1200656"><ele>518.1999999999999</ele><time>2026-03-29T09:59:16.42Z</time></trkpt><trkpt lat="43.3334028" lon="13.1200526"><ele>520.6</ele><time>2026-03-29T09:59:17.406Z</time></trkpt><trkpt lat="43.3333183" lon="13.1200259"><ele>523.0</ele><time>2026-03-29T09:59:18.429Z</time></trkpt><trkpt lat="43.3332356" lon="13.1199989"><ele>523.0</ele><time>2026-03-29T09:59:19.432Z</time></trkpt><trkpt lat="43.333152" lon="13.1199768"><ele>523.0</ele><time>2026-03-29T09:59:20.411Z</time></trkpt><trkpt lat="43.3330879" lon="13.1199581"><ele>523.0</ele><time>2026-03-29T09:59:21.42Z</time></trkpt><trkpt lat="43.33299" lon="13.1199056"><ele>523.0</ele><time>2026-03-29T09:59:23.435Z</time></trkpt><trkpt lat="43.3329347" lon="13.1198195"><ele>523.0</ele><time>2026-03-29T09:59:25.425Z</time></trkpt><trkpt lat="43.332907" lon="13.1196886"><ele>523.0</ele><time>2026-03-29T09:59:27.426Z</time></trkpt><trkpt lat="43.3329148" lon="13.1195504"><ele>522.8</ele><time>2026-03-29T09:59:29.426Z</time></trkpt><trkpt lat="43.3329231" lon="13.1194293"><ele>522.5999999999999</ele><time>2026-03-29T09:59:31.402Z</time></trkpt><trkpt lat="43.3329212" lon="13.1192892"><ele>522.4000000000001</ele><time>2026-03-29T09:59:33.395Z</time></trkpt><trkpt lat="43.3329131" lon="13.1191507"><ele>522.2</ele><time>2026-03-29T09:59:35.434Z</time></trkpt><trkpt lat="43.3328641" lon="13.1190249"><ele>522.0</ele><time>2026-03-29T09:59:38.41Z</time></trkpt><trkpt lat="43.3328616" lon="13.1189347"><ele>523.0</ele><time>2026-03-29T09:59:39.391Z</time></trkpt><trkpt lat="43.3328568" lon="13.1188214"><ele>524.0</ele><time>2026-03-29T09:59:40.42Z</time></trkpt><trkpt lat="43.3328228" lon="13.1186968"><ele>525.0</ele><time>2026-03-29T09:59:41.412Z</time></trkpt><trkpt lat="43.3327603" lon="13.118559"><ele>526.0</ele><time>2026-03-29T09:59:42.415Z</time></trkpt><trkpt lat="43.3326699" lon="13.1184283"><ele>527.0</ele><time>2026-03-29T09:59:43.431Z</time></trkpt><trkpt lat="43.332565" lon="13.1183033"><ele>527.8000000000001</ele><time>2026-03-29T09:59:44.411Z</time></trkpt><trkpt lat="43.332462" lon="13.1182006"><ele>528.6</ele><time>2026-03-29T09:59:45.433Z</time></trkpt><trkpt lat="43.3323717" lon="13.1181121"><ele>529.4000000000001</ele><time>2026-03-29T09:59:46.4Z</time></trkpt><trkpt lat="43.332286" lon="13.1180462"><ele>530.2</ele><time>2026-03-29T09:59:47.411Z</time></trkpt><trkpt lat="43.3322002" lon="13.1179854"><ele>531.0</ele><time>2026-03-29T09:59:48.373Z</time></trkpt><trkpt lat="43.3321189" lon="13.1179365"><ele>531.0</ele><time>2026-03-29T09:59:49.413Z</time></trkpt><trkpt lat="43.3320401" lon="13.117893"><ele>531.0</ele><time>2026-03-29T09:59:50.406Z</time></trkpt><trkpt lat="43.3319682" lon="13.1178452"><ele>531.0</ele><time>2026-03-29T09:59:51.449Z</time></trkpt><trkpt lat="43.3319007" lon="13.1177914"><ele>531.0</ele><time>2026-03-29T09:59:52.428Z</time></trkpt><trkpt lat="43.3318358" lon="13.117728"><ele>531.0</ele><time>2026-03-29T09:59:53.438Z</time></trkpt><trkpt lat="43.3317804" lon="13.1176594"><ele>531.0</ele><time>2026-03-29T09:59:54.434Z</time></trkpt><trkpt lat="43.3317447" lon="13.117577"><ele>531.0</ele><time>2026-03-29T09:59:55.432Z</time></trkpt><trkpt lat="43.3317273" lon="13.117475"><ele>531.0</ele><time>2026-03-29T09:59:56.426Z</time></trkpt><trkpt lat="43.3317129" lon="13.1173614"><ele>531.0</ele><time>2026-03-29T09:59:57.396Z</time></trkpt><trkpt lat="43.3317166" lon="13.1172457"><ele>531.0</ele><time>2026-03-29T09:59:58.379Z</time></trkpt><trkpt lat="43.3317278" lon="13.117147"><ele>531.0</ele><time>2026-03-29T09:59:59.421Z</time></trkpt><trkpt lat="43.3317461" lon="13.1170605"><ele>531.0</ele><time>2026-03-29T10:00:00.4Z</time></trkpt><trkpt lat="43.3318118" lon="13.1169559"><ele>533.1666666666666</ele><time>2026-03-29T10:00:02.385Z</time></trkpt><trkpt lat="43.3318848" lon="13.116922"><ele>535.3333333333334</ele><time>2026-03-29T10:00:04.42Z</time></trkpt><trkpt lat="43.3319223" lon="13.116826"><ele>537.5</ele><time>2026-03-29T10:00:07.423Z</time></trkpt><trkpt lat="43.3319471" lon="13.1167211"><ele>539.6666666666667</ele><time>2026-03-29T10:00:09.424Z</time></trkpt><trkpt lat="43.3320324" lon="13.1166599"><ele>541.8333333333334</ele><time>2026-03-29T10:00:11.395Z</time></trkpt><trkpt lat="43.3320913" lon="13.1166092"><ele>544.0</ele><time>2026-03-29T10:00:13.419Z</time></trkpt><trkpt lat="43.3321778" lon="13.1165414"><ele>545.8333333333334</ele><time>2026-03-29T10:00:16.439Z</time></trkpt><trkpt lat="43.3322616" lon="13.1164563"><ele>547.6666666666667</ele><time>2026-03-29T10:00:18.422Z</time></trkpt><trkpt lat="43.3323185" lon="13.1164031"><ele>549.5</ele><time>2026-03-29T10:00:19.373Z</time></trkpt><trkpt lat="43.332376" lon="13.1163493"><ele>551.3333333333334</ele><time>2026-03-29T10:00:20.4Z</time></trkpt><trkpt lat="43.3324282" lon="13.1162849"><ele>553.1666666666666</ele><time>2026-03-29T10:00:21.402Z</time></trkpt><trkpt lat="43.3324753" lon="13.1162067"><ele>555.0</ele><time>2026-03-29T10:00:22.386Z</time></trkpt><trkpt lat="43.3325246" lon="13.1161171"><ele>555.0</ele><time>2026-03-29T10:00:23.371Z</time></trkpt><trkpt lat="43.3325823" lon="13.1160075"><ele>555.0</ele><time>2026-03-29T10:00:24.388Z</time></trkpt><trkpt lat="43.3326613" lon="13.1158838"><ele>555.0</ele><time>2026-03-29T10:00:25.372Z</time></trkpt><trkpt lat="43.3327402" lon="13.1157649"><ele>555.0</ele><time>2026-03-29T10:00:26.373Z</time></trkpt><trkpt lat="43.3328128" lon="13.1156724"><ele>555.0</ele><time>2026-03-29T10:00:27.396Z</time></trkpt><trkpt lat="43.3328677" lon="13.1155702"><ele>558.3333333333334</ele><time>2026-03-29T10:00:28.393Z</time></trkpt><trkpt lat="43.3329027" lon="13.1154536"><ele>561.6666666666666</ele><time>2026-03-29T10:00:29.373Z</time></trkpt><trkpt lat="43.3329298" lon="13.1153539"><ele>565.0</ele><time>2026-03-29T10:00:30.382Z</time></trkpt><trkpt lat="43.3329427" lon="13.1152502"><ele>568.3333333333333</ele><time>2026-03-29T10:00:31.428Z</time></trkpt><trkpt lat="43.3329345" lon="13.1151315"><ele>571.6666666666666</ele><time>2026-03-29T10:00:32.385Z</time></trkpt><trkpt lat="43.3329087" lon="13.1150037"><ele>575.0</ele><time>2026-03-29T10:00:33.426Z</time></trkpt><trkpt lat="43.3328879" lon="13.1148672"><ele>577.8333333333333</ele><time>2026-03-29T10:00:34.389Z</time></trkpt><trkpt lat="43.3328908" lon="13.1147466"><ele>580.6666666666666</ele><time>2026-03-29T10:00:35.39Z</time></trkpt><trkpt lat="43.3328958" lon="13.1146483"><ele>583.5</ele><time>2026-03-29T10:00:36.429Z</time></trkpt><trkpt lat="43.3328716" lon="13.114485"><ele>586.3333333333334</ele><time>2026-03-29T10:00:38.434Z</time></trkpt><trkpt lat="43.332847" lon="13.1143844"><ele>589.1666666666667</ele><time>2026-03-29T10:00:39.433Z</time></trkpt><trkpt lat="43.3328068" lon="13.114274"><ele>592.0</ele><time>2026-03-29T10:00:40.421Z</time></trkpt><trkpt lat="43.3327812" lon="13.1141534"><ele>592.0</ele><time>2026-03-29T10:00:41.395Z</time></trkpt><trkpt lat="43.332786" lon="13.1140495"><ele>592.0</ele><time>2026-03-29T10:00:42.421Z</time></trkpt><trkpt lat="43.3328044" lon="13.1139662"><ele>592.0</ele><time>2026-03-29T10:00:43.441Z</time></trkpt><trkpt lat="43.332726" lon="13.113992"><ele>592.0</ele><time>2026-03-29T10:00:47.406Z</time></trkpt><trkpt lat="43.3326903" lon="13.1141485"><ele>592.0</ele><time>2026-03-29T10:00:49.42Z</time></trkpt><trkpt lat="43.3326427" lon="13.1142342"><ele>592.0</ele><time>2026-03-29T10:00:50.422Z</time></trkpt><trkpt lat="43.3325848" lon="13.1143385"><ele>592.0</ele><time>2026-03-29T10:00:51.428Z</time></trkpt><trkpt lat="43.33252" lon="13.1144487"><ele>592.0</ele><time>2026-03-29T10:00:52.392Z</time></trkpt><trkpt lat="43.3324592" lon="13.114556"><ele>592.0</ele><time>2026-03-29T10:00:53.413Z</time></trkpt><trkpt lat="43.3324012" lon="13.1146492"><ele>592.0</ele><time>2026-03-29T10:00:54.404Z</time></trkpt><trkpt lat="43.3323578" lon="13.1147181"><ele>592.0</ele><time>2026-03-29T10:00:55.41Z</time></trkpt><trkpt lat="43.3322557" lon="13.1147926"><ele>597.8000000000001</ele><time>2026-03-29T10:00:57.426Z</time></trkpt><trkpt lat="43.3321143" lon="13.1148252"><ele>603.6</ele><time>2026-03-29T10:00:59.402Z</time></trkpt><trkpt lat="43.332026" lon="13.1148481"><ele>609.4000000000001</ele><time>2026-03-29T10:01:00.422Z</time></trkpt><trkpt lat="43.3319428" lon="13.1148661"><ele>615.2</ele><time>2026-03-29T10:01:01.403Z</time></trkpt><trkpt lat="43.3318572" lon="13.1148724"><ele>621.0</ele><time>2026-03-29T10:01:02.422Z</time></trkpt><trkpt lat="43.331768" lon="13.1148545"><ele>621.0</ele><time>2026-03-29T10:01:03.367Z</time></trkpt><trkpt lat="43.331679" lon="13.1148352"><ele>621.0</ele><time>2026-03-29T10:01:04.385Z</time></trkpt><trkpt lat="43.3315757" lon="13.1147995"><ele>621.0</ele><time>2026-03-29T10:01:05.381Z</time></trkpt><trkpt lat="43.3314669" lon="13.1147487"><ele>621.0</ele><time>2026-03-29T10:01:06.391Z</time></trkpt><trkpt lat="43.3313358" lon="13.1146912"><ele>621.0</ele><time>2026-03-29T10:01:07.427Z</time></trkpt><trkpt lat="43.331194" lon="13.1146364"><ele>622.75</ele><time>2026-03-29T10:01:08.405Z</time></trkpt><trkpt lat="43.3310651" lon="13.1145838"><ele>624.5</ele><time>2026-03-29T10:01:09.396Z</time></trkpt><trkpt lat="43.3309421" lon="13.1145862"><ele>626.25</ele><time>2026-03-29T10:01:10.4Z</time></trkpt><trkpt lat="43.3308136" lon="13.1146041"><ele>628.0</ele><time>2026-03-29T10:01:11.431Z</time></trkpt><trkpt lat="43.3306771" lon="13.11462"><ele>631.5999999999999</ele><time>2026-03-29T10:01:12.408Z</time></trkpt><trkpt lat="43.3305498" lon="13.1146304"><ele>635.1999999999999</ele><time>2026-03-29T10:01:13.409Z</time></trkpt><trkpt lat="43.3304327" lon="13.1146562"><ele>638.8</ele><time>2026-03-29T10:01:14.428Z</time></trkpt><trkpt lat="43.3303256" lon="13.1147053"><ele>642.4</ele><time>2026-03-29T10:01:15.423Z</time></trkpt><trkpt lat="43.3302542" lon="13.1147715"><ele>646.0</ele><time>2026-03-29T10:01:16.414Z</time></trkpt><trkpt lat="43.3301961" lon="13.1148482"><ele>642.3333333333334</ele><time>2026-03-29T10:01:17.424Z</time></trkpt><trkpt lat="43.330151" lon="13.1149287"><ele>638.6666666666667</ele><time>2026-03-29T10:01:18.404Z</time></trkpt><trkpt lat="43.3301124" lon="13.1150126"><ele>635.0</ele><time>2026-03-29T10:01:19.424Z</time></trkpt><trkpt lat="43.3300652" lon="13.1150977"><ele>631.3333333333334</ele><time>2026-03-29T10:01:20.432Z</time></trkpt><trkpt lat="43.3300062" lon="13.115186"><ele>627.6666666666666</ele><time>2026-03-29T10:01:21.429Z</time></trkpt><trkpt lat="43.3299344" lon="13.1152532"><ele>624.0</ele><time>2026-03-29T10:01:22.418Z</time></trkpt><trkpt lat="43.3298684" lon="13.1153052"><ele>624.0</ele><time>2026-03-29T10:01:23.368Z</time></trkpt><trkpt lat="43.329805" lon="13.1153427"><ele>624.0</ele><time>2026-03-29T10:01:24.414Z</time></trkpt><trkpt lat="43.3297235" lon="13.11537"><ele>624.0</ele><time>2026-03-29T10:01:25.423Z</time></trkpt><trkpt lat="43.3296322" lon="13.1153853"><ele>624.0</ele><time>2026-03-29T10:01:26.409Z</time></trkpt><trkpt lat="43.3295338" lon="13.1153911"><ele>624.0</ele><time>2026-03-29T10:01:27.433Z</time></trkpt><trkpt lat="43.3294225" lon="13.1153893"><ele>629.75</ele><time>2026-03-29T10:01:28.413Z</time></trkpt><trkpt lat="43.329306" lon="13.1153928"><ele>635.5</ele><time>2026-03-29T10:01:29.423Z</time></trkpt><trkpt lat="43.3291881" lon="13.1153946"><ele>641.25</ele><time>2026-03-29T10:01:30.433Z</time></trkpt><trkpt lat="43.3290572" lon="13.1153915"><ele>647.0</ele><time>2026-03-29T10:01:31.427Z</time></trkpt><trkpt lat="43.3289388" lon="13.115401"><ele>649.8</ele><time>2026-03-29T10:01:32.425Z</time></trkpt><trkpt lat="43.3288306" lon="13.1153993"><ele>652.6</ele><time>2026-03-29T10:01:33.415Z</time></trkpt><trkpt lat="43.3287384" lon="13.1153467"><ele>655.4</ele><time>2026-03-29T10:01:34.372Z</time></trkpt><trkpt lat="43.3286501" lon="13.1152711"><ele>658.1999999999999</ele><time>2026-03-29T10:01:35.422Z</time></trkpt><trkpt lat="43.3285545" lon="13.1152351"><ele>661.0</ele><time>2026-03-29T10:01:36.419Z</time></trkpt><trkpt lat="43.3284475" lon="13.1152508"><ele>661.0</ele><time>2026-03-29T10:01:37.429Z</time></trkpt><trkpt lat="43.328352" lon="13.1152729"><ele>661.0</ele><time>2026-03-29T10:01:38.43Z</time></trkpt><trkpt lat="43.3282649" lon="13.115276"><ele>661.0</ele><time>2026-03-29T10:01:39.415Z</time></trkpt><trkpt lat="43.3281531" lon="13.1152568"><ele>661.0</ele><time>2026-03-29T10:01:40.422Z</time></trkpt><trkpt lat="43.3280358" lon="13.1152431"><ele>661.0</ele><time>2026-03-29T10:01:41.408Z</time></trkpt><trkpt lat="43.3279251" lon="13.1152471"><ele>662.8</ele><time>2026-03-29T10:01:42.405Z</time></trkpt><trkpt lat="43.3278254" lon="13.1152614"><ele>664.5999999999999</ele><time>2026-03-29T10:01:43.412Z</time></trkpt><trkpt lat="43.3277251" lon="13.1152843"><ele>666.4</ele><time>2026-03-29T10:01:44.399Z</time></trkpt><trkpt lat="43.3276222" lon="13.115297"><ele>668.2</ele><time>2026-03-29T10:01:45.363Z</time></trkpt><trkpt lat="43.3275177" lon="13.1152968"><ele>670.0</ele><time>2026-03-29T10:01:46.419Z</time></trkpt><trkpt lat="43.3274099" lon="13.1152782"><ele>670.0</ele><time>2026-03-29T10:01:47.425Z</time></trkpt><trkpt lat="43.3272916" lon="13.1152613"><ele>670.0</ele><time>2026-03-29T10:01:48.364Z</time></trkpt><trkpt lat="43.3271609" lon="13.1152703"><ele>670.0</ele><time>2026-03-29T10:01:49.43Z</time></trkpt><trkpt lat="43.32704" lon="13.1153091"><ele>670.0</ele><time>2026-03-29T10:01:50.406Z</time></trkpt><trkpt lat="43.3269386" lon="13.1153485"><ele>672.3333333333334</ele><time>2026-03-29T10:01:51.415Z</time></trkpt><trkpt lat="43.3268578" lon="13.1153846"><ele>674.6666666666667</ele><time>2026-03-29T10:01:52.435Z</time></trkpt><trkpt lat="43.3267873" lon="13.1154158"><ele>677.0</ele><time>2026-03-29T10:01:53.42Z</time></trkpt><trkpt lat="43.3267056" lon="13.1154391"><ele>679.3333333333334</ele><time>2026-03-29T10:02:03.402Z</time></trkpt><trkpt lat="43.3266187" lon="13.1154604"><ele>681.6666666666666</ele><time>2026-03-29T10:02:05.395Z</time></trkpt><trkpt lat="43.3265157" lon="13.1154764"><ele>684.0</ele><time>2026-03-29T10:02:07.398Z</time></trkpt><trkpt lat="43.3263928" lon="13.1154566"><ele>685.8333333333334</ele><time>2026-03-29T10:02:09.418Z</time></trkpt><trkpt lat="43.3263245" lon="13.1154195"><ele>687.6666666666666</ele><time>2026-03-29T10:02:10.395Z</time></trkpt><trkpt lat="43.3262489" lon="13.1153946"><ele>689.5</ele><time>2026-03-29T10:02:11.415Z</time></trkpt><trkpt lat="43.3261682" lon="13.1153794"><ele>691.3333333333333</ele><time>2026-03-29T10:02:12.42Z</time></trkpt><trkpt lat="43.3260841" lon="13.1153655"><ele>693.1666666666666</ele><time>2026-03-29T10:02:13.414Z</time></trkpt><trkpt lat="43.3260037" lon="13.115353"><ele>695.0</ele><time>2026-03-29T10:02:14.404Z</time></trkpt><trkpt lat="43.32593" lon="13.1153392"><ele>695.0</ele><time>2026-03-29T10:02:15.425Z</time></trkpt><trkpt lat="43.3258606" lon="13.1153196"><ele>695.0</ele><time>2026-03-29T10:02:16.44Z</time></trkpt><trkpt lat="43.3257992" lon="13.1152915"><ele>695.0</ele><time>2026-03-29T10:02:17.444Z</time></trkpt><trkpt lat="43.3257068" lon="13.1151983"><ele>695.0</ele><time>2026-03-29T10:02:19.408Z</time></trkpt><trkpt lat="43.3256584" lon="13.1151388"><ele>695.0</ele><time>2026-03-29T10:02:20.431Z</time></trkpt><trkpt lat="43.3256013" lon="13.115093"><ele>695.0</ele><time>2026-03-29T10:02:21.423Z</time></trkpt><trkpt lat="43.325523" lon="13.1149942"><ele>693.6666666666666</ele><time>2026-03-29T10:02:23.396Z</time></trkpt><trkpt lat="43.3254714" lon="13.114839"><ele>692.3333333333333</ele><time>2026-03-29T10:02:25.406Z</time></trkpt><trkpt lat="43.3254351" lon="13.1147432"><ele>691.0</ele><time>2026-03-29T10:02:26.373Z</time></trkpt><trkpt lat="43.3254119" lon="13.1146315"><ele>689.6666666666666</ele><time>2026-03-29T10:02:27.419Z</time></trkpt><trkpt lat="43.3253865" lon="13.1145299"><ele>688.3333333333334</ele><time>2026-03-29T10:02:28.426Z</time></trkpt><trkpt lat="43.3253604" lon="13.1144349"><ele>687.0</ele><time>2026-03-29T10:02:29.406Z</time></trkpt><trkpt lat="43.325338" lon="13.1143282"><ele>687.0</ele><time>2026-03-29T10:02:30.428Z</time></trkpt><trkpt lat="43.325317" lon="13.1142208"><ele>687.0</ele><time>2026-03-29T10:02:31.412Z</time></trkpt><trkpt lat="43.3252985" lon="13.1141119"><ele>687.0</ele><time>2026-03-29T10:02:32.409Z</time></trkpt><trkpt lat="43.3252777" lon="13.1140038"><ele>687.0</ele><time>2026-03-29T10:02:33.428Z</time></trkpt><trkpt lat="43.3252589" lon="13.1138961"><ele>687.0</ele><time>2026-03-29T10:02:34.411Z</time></trkpt><trkpt lat="43.3252376" lon="13.113797"><ele>687.0</ele><time>2026-03-29T10:02:35.431Z</time></trkpt><trkpt lat="43.3252261" lon="13.1136349"><ele>689.5</ele><time>2026-03-29T10:02:37.427Z</time></trkpt><trkpt lat="43.3251869" lon="13.1134728"><ele>692.0</ele><time>2026-03-29T10:02:39.419Z</time></trkpt><trkpt lat="43.3251597" lon="13.1133895"><ele>694.5</ele><time>2026-03-29T10:02:40.404Z</time></trkpt><trkpt lat="43.325131" lon="13.113299"><ele>697.0</ele><time>2026-03-29T10:02:41.42Z</time></trkpt><trkpt lat="43.3250985" lon="13.1132024"><ele>699.5</ele><time>2026-03-29T10:02:42.413Z</time></trkpt><trkpt lat="43.3250695" lon="13.1131067"><ele>702.0</ele><time>2026-03-29T10:02:43.428Z</time></trkpt><trkpt lat="43.3250446" lon="13.1130154"><ele>704.6666666666666</ele><time>2026-03-29T10:02:44.406Z</time></trkpt><trkpt lat="43.3250245" lon="13.1129305"><ele>707.3333333333334</ele><time>2026-03-29T10:02:45.417Z</time></trkpt><trkpt lat="43.3250031" lon="13.1128419"><ele>710.0</ele><time>2026-03-29T10:02:46.381Z</time></trkpt><trkpt lat="43.3249841" lon="13.112747"><ele>712.6666666666667</ele><time>2026-03-29T10:02:47.422Z</time></trkpt><trkpt lat="43.324963" lon="13.1126569"><ele>715.3333333333334</ele><time>2026-03-29T10:02:48.368Z</time></trkpt><trkpt lat="43.3249391" lon="13.1125728"><ele>718.0</ele><time>2026-03-29T10:02:49.433Z</time></trkpt><trkpt lat="43.3249198" lon="13.1124073"><ele>721.0</ele><time>2026-03-29T10:02:51.398Z</time></trkpt><trkpt lat="43.3249091" lon="13.1122354"><ele>724.0</ele><time>2026-03-29T10:02:53.421Z</time></trkpt><trkpt lat="43.3249073" lon="13.1121395"><ele>727.0</ele><time>2026-03-29T10:02:54.421Z</time></trkpt><trkpt lat="43.3249053" lon="13.112041"><ele>730.0</ele><time>2026-03-29T10:02:55.439Z</time></trkpt><trkpt lat="43.3249034" lon="13.1119445"><ele>733.0</ele><time>2026-03-29T10:02:56.391Z</time></trkpt><trkpt lat="43.3249039" lon="13.1118513"><ele>736.0</ele><time>2026-03-29T10:02:57.435Z</time></trkpt><trkpt lat="43.3248892" lon="13.1117095"><ele>736.0</ele><time>2026-03-29T10:02:59.397Z</time></trkpt><trkpt lat="43.3248724" lon="13.1116157"><ele>736.0</ele><time>2026-03-29T10:03:01.437Z</time></trkpt><trkpt lat="43.3248417" lon="13.1115253"><ele>736.0</ele><time>2026-03-29T10:03:04.399Z</time></trkpt><trkpt lat="43.3248271" lon="13.111429"><ele>736.0</ele><time>2026-03-29T10:03:58.406Z</time></trkpt><trkpt lat="43.3248005" lon="13.111308"><ele>736.0</ele><time>2026-03-29T10:04:00.435Z</time></trkpt><trkpt lat="43.3247587" lon="13.1111996"><ele>736.0</ele><time>2026-03-29T10:04:02.409Z</time></trkpt><trkpt lat="43.3247353" lon="13.1111182"><ele>735.3333333333334</ele><time>2026-03-29T10:04:04.428Z</time></trkpt><trkpt lat="43.3246829" lon="13.1110483"><ele>734.6666666666667</ele><time>2026-03-29T10:04:37.402Z</time></trkpt><trkpt lat="43.3246156" lon="13.1110492"><ele>734.0</ele><time>2026-03-29T10:04:40.412Z</time></trkpt><trkpt lat="43.3245503" lon="13.1110079"><ele>733.3333333333334</ele><time>2026-03-29T10:04:43.416Z</time></trkpt><trkpt lat="43.3244615" lon="13.1109967"><ele>732.6666666666666</ele><time>2026-03-29T10:04:46.413Z</time></trkpt><trkpt lat="43.3243742" lon="13.1110137"><ele>732.0</ele><time>2026-03-29T10:04:49.401Z</time></trkpt><trkpt lat="43.324297" lon="13.1110354"><ele>732.0</ele><time>2026-03-29T10:04:52.409Z</time></trkpt><trkpt lat="43.3242089" lon="13.1110439"><ele>732.0</ele><time>2026-03-29T10:04:55.382Z</time></trkpt><trkpt lat="43.3242669" lon="13.1111215"><ele>732.0</ele><time>2026-03-29T10:05:04.406Z</time></trkpt><trkpt lat="43.3243351" lon="13.1111577"><ele>732.0</ele><time>2026-03-29T10:05:07.397Z</time></trkpt><trkpt lat="43.3243893" lon="13.1112132"><ele>732.0</ele><time>2026-03-29T10:05:09.407Z</time></trkpt><trkpt lat="43.3244534" lon="13.1112839"><ele>732.0</ele><time>2026-03-29T10:05:12.386Z</time></trkpt><trkpt lat="43.3245172" lon="13.1113464"><ele>732.0</ele><time>2026-03-29T10:05:15.355Z</time></trkpt><trkpt lat="43.3245538" lon="13.1114241"><ele>732.0</ele><time>2026-03-29T10:05:17.355Z</time></trkpt><trkpt lat="43.3246292" lon="13.1115712"><ele>732.0</ele><time>2026-03-29T10:05:19.362Z</time></trkpt><trkpt lat="43.3246487" lon="13.1116555"><ele>732.0</ele><time>2026-03-29T10:05:22.384Z</time></trkpt><trkpt lat="43.3246598" lon="13.1117878"><ele>732.0</ele><time>2026-03-29T10:05:24.369Z</time></trkpt><trkpt lat="43.324672" lon="13.1119036"><ele>732.0</ele><time>2026-03-29T10:05:27.367Z</time></trkpt><trkpt lat="43.3247056" lon="13.1120291"><ele>727.0</ele><time>2026-03-29T10:05:30.371Z</time></trkpt><trkpt lat="43.3246965" lon="13.112155"><ele>722.0</ele><time>2026-03-29T10:05:32.38Z</time></trkpt><trkpt lat="43.3246889" lon="13.1122476"><ele>717.0</ele><time>2026-03-29T10:05:34.366Z</time></trkpt><trkpt lat="43.3246954" lon="13.1123455"><ele>712.0</ele><time>2026-03-29T10:05:36.393Z</time></trkpt><trkpt lat="43.3246902" lon="13.1124661"><ele>707.0</ele><time>2026-03-29T10:05:38.403Z</time></trkpt><trkpt lat="43.3246987" lon="13.1125849"><ele>702.0</ele><time>2026-03-29T10:05:41.388Z</time></trkpt><trkpt lat="43.3247032" lon="13.1126939"><ele>697.6666666666666</ele><time>2026-03-29T10:05:44.429Z</time></trkpt><trkpt lat="43.3247066" lon="13.112799"><ele>693.3333333333334</ele><time>2026-03-29T10:05:46.377Z</time></trkpt><trkpt lat="43.3247077" lon="13.112917"><ele>689.0</ele><time>2026-03-29T10:05:48.377Z</time></trkpt><trkpt lat="43.3247083" lon="13.1130413"><ele>684.6666666666667</ele><time>2026-03-29T10:05:51.394Z</time></trkpt><trkpt lat="43.3247187" lon="13.113148"><ele>680.3333333333334</ele><time>2026-03-29T10:05:53.374Z</time></trkpt><trkpt lat="43.3247163" lon="13.1132484"><ele>676.0</ele><time>2026-03-29T10:05:55.437Z</time></trkpt><trkpt lat="43.3247259" lon="13.1133654"><ele>672.1666666666667</ele><time>2026-03-29T10:05:57.404Z</time></trkpt><trkpt lat="43.3247257" lon="13.1134651"><ele>668.3333333333334</ele><time>2026-03-29T10:05:59.415Z</time></trkpt><trkpt lat="43.3247259" lon="13.1135997"><ele>664.5</ele><time>2026-03-29T10:06:01.425Z</time></trkpt><trkpt lat="43.3247296" lon="13.1137251"><ele>660.6666666666666</ele><time>2026-03-29T10:06:03.414Z</time></trkpt><trkpt lat="43.3247378" lon="13.1138295"><ele>656.8333333333333</ele><time>2026-03-29T10:06:05.412Z</time></trkpt><trkpt lat="43.3247547" lon="13.1139223"><ele>653.0</ele><time>2026-03-29T10:06:07.414Z</time></trkpt><trkpt lat="43.3247538" lon="13.1140252"><ele>658.6666666666666</ele><time>2026-03-29T10:06:09.427Z</time></trkpt><trkpt lat="43.3247735" lon="13.1141467"><ele>664.3333333333333</ele><time>2026-03-29T10:06:12.409Z</time></trkpt><trkpt lat="43.3247832" lon="13.114283"><ele>670.0</ele><time>2026-03-29T10:06:15.389Z</time></trkpt><trkpt lat="43.3247993" lon="13.1143957"><ele>675.6666666666666</ele><time>2026-03-29T10:06:17.424Z</time></trkpt><trkpt lat="43.3248178" lon="13.1144996"><ele>681.3333333333334</ele><time>2026-03-29T10:06:20.424Z</time></trkpt><trkpt lat="43.3248439" lon="13.114601"><ele>687.0</ele><time>2026-03-29T10:06:23.42Z</time></trkpt><trkpt lat="43.3248606" lon="13.1147184"><ele>687.0</ele><time>2026-03-29T10:06:26.401Z</time></trkpt><trkpt lat="43.3248676" lon="13.1148418"><ele>687.0</ele><time>2026-03-29T10:06:29.423Z</time></trkpt><trkpt lat="43.3248752" lon="13.1149711"><ele>687.0</ele><time>2026-03-29T10:06:32.409Z</time></trkpt><trkpt lat="43.3248765" lon="13.1150639"><ele>687.0</ele><time>2026-03-29T10:06:34.414Z</time></trkpt><trkpt lat="43.3248914" lon="13.1151646"><ele>687.0</ele><time>2026-03-29T10:06:36.436Z</time></trkpt><trkpt lat="43.3248997" lon="13.1152834"><ele>687.0</ele><time>2026-03-29T10:06:38.402Z</time></trkpt><trkpt lat="43.3249078" lon="13.1153938"><ele>684.3333333333334</ele><time>2026-03-29T10:06:40.363Z</time></trkpt><trkpt lat="43.3249126" lon="13.1154982"><ele>681.6666666666666</ele><time>2026-03-29T10:06:42.416Z</time></trkpt><trkpt lat="43.3249254" lon="13.1155868"><ele>679.0</ele><time>2026-03-29T10:06:44.419Z</time></trkpt><trkpt lat="43.3249359" lon="13.1157111"><ele>676.3333333333333</ele><time>2026-03-29T10:06:47.414Z</time></trkpt><trkpt lat="43.324938" lon="13.1157977"><ele>673.6666666666666</ele><time>2026-03-29T10:06:49.368Z</time></trkpt><trkpt lat="43.3249358" lon="13.1159252"><ele>671.0</ele><time>2026-03-29T10:06:52.392Z</time></trkpt><trkpt lat="43.3249376" lon="13.1160155"><ele>668.0</ele><time>2026-03-29T10:06:54.412Z</time></trkpt><trkpt lat="43.3249411" lon="13.1161245"><ele>665.0</ele><time>2026-03-29T10:06:57.428Z</time></trkpt><trkpt lat="43.3249394" lon="13.1162379"><ele>662.0</ele><time>2026-03-29T10:07:00.41Z</time></trkpt><trkpt lat="43.3249386" lon="13.1163303"><ele>659.0</ele><time>2026-03-29T10:07:02.413Z</time></trkpt><trkpt lat="43.3249379" lon="13.1164211"><ele>656.0</ele><time>2026-03-29T10:07:04.387Z</time></trkpt><trkpt lat="43.3249206" lon="13.1165679"><ele>653.0</ele><time>2026-03-29T10:07:07.406Z</time></trkpt><trkpt lat="43.3249278" lon="13.1166669"><ele>650.1666666666666</ele><time>2026-03-29T10:07:10.384Z</time></trkpt><trkpt lat="43.324916" lon="13.1167798"><ele>647.3333333333333</ele><time>2026-03-29T10:07:13.418Z</time></trkpt><trkpt lat="43.3249198" lon="13.1168883"><ele>644.5</ele><time>2026-03-29T10:07:16.416Z</time></trkpt><trkpt lat="43.3249132" lon="13.1170006"><ele>641.6666666666666</ele><time>2026-03-29T10:07:18.421Z</time></trkpt><trkpt lat="43.3249207" lon="13.1171113"><ele>638.8333333333334</ele><time>2026-03-29T10:07:21.362Z</time></trkpt><trkpt lat="43.3249173" lon="13.1172001"><ele>636.0</ele><time>2026-03-29T10:07:23.403Z</time></trkpt><trkpt lat="43.3249063" lon="13.117303"><ele>634.0</ele><time>2026-03-29T10:07:25.433Z</time></trkpt><trkpt lat="43.324888" lon="13.117414"><ele>632.0</ele><time>2026-03-29T10:07:29.403Z</time></trkpt><trkpt lat="43.3248633" lon="13.117547"><ele>630.0</ele><time>2026-03-29T10:07:32.393Z</time></trkpt><trkpt lat="43.3248606" lon="13.1176449"><ele>628.0</ele><time>2026-03-29T10:07:34.415Z</time></trkpt><trkpt lat="43.3248618" lon="13.1177419"><ele>626.0</ele><time>2026-03-29T10:07:37.41Z</time></trkpt><trkpt lat="43.3248557" lon="13.1178293"><ele>624.0</ele><time>2026-03-29T10:07:39.417Z</time></trkpt><trkpt lat="43.3248641" lon="13.1179163"><ele>624.0</ele><time>2026-03-29T10:07:41.394Z</time></trkpt><trkpt lat="43.3248747" lon="13.1180106"><ele>624.0</ele><time>2026-03-29T10:07:50.426Z</time></trkpt><trkpt lat="43.3248899" lon="13.1181113"><ele>624.0</ele><time>2026-03-29T10:07:53.413Z</time></trkpt><trkpt lat="43.3249007" lon="13.1182079"><ele>624.0</ele><time>2026-03-29T10:07:56.365Z</time></trkpt><trkpt lat="43.3249215" lon="13.1182999"><ele>624.0</ele><time>2026-03-29T10:08:07.417Z</time></trkpt><trkpt lat="43.3249427" lon="13.1184053"><ele>624.0</ele><time>2026-03-29T10:08:17.427Z</time></trkpt><trkpt lat="43.3249352" lon="13.1185461"><ele>621.6666666666666</ele><time>2026-03-29T10:08:20.402Z</time></trkpt><trkpt lat="43.3249147" lon="13.118656"><ele>619.3333333333334</ele><time>2026-03-29T10:08:22.409Z</time></trkpt><trkpt lat="43.3248954" lon="13.118763"><ele>617.0</ele><time>2026-03-29T10:08:24.42Z</time></trkpt><trkpt lat="43.3248846" lon="13.1188808"><ele>614.6666666666667</ele><time>2026-03-29T10:08:27.416Z</time></trkpt><trkpt lat="43.3248839" lon="13.1190055"><ele>612.3333333333334</ele><time>2026-03-29T10:08:30.425Z</time></trkpt><trkpt lat="43.3248883" lon="13.1191207"><ele>610.0</ele><time>2026-03-29T10:08:32.426Z</time></trkpt><trkpt lat="43.3248973" lon="13.1192346"><ele>607.0</ele><time>2026-03-29T10:08:35.409Z</time></trkpt><trkpt lat="43.3248933" lon="13.1193468"><ele>604.0</ele><time>2026-03-29T10:08:38.422Z</time></trkpt><trkpt lat="43.3248832" lon="13.1194624"><ele>601.0</ele><time>2026-03-29T10:08:41.385Z</time></trkpt><trkpt lat="43.3248757" lon="13.1195618"><ele>598.0</ele><time>2026-03-29T10:08:44.424Z</time></trkpt><trkpt lat="43.3248787" lon="13.119665"><ele>595.0</ele><time>2026-03-29T10:08:46.417Z</time></trkpt><trkpt lat="43.3248524" lon="13.1197447"><ele>592.0</ele><time>2026-03-29T10:08:49.372Z</time></trkpt><trkpt lat="43.3247623" lon="13.1197402"><ele>586.0</ele><time>2026-03-29T10:08:52.414Z</time></trkpt><trkpt lat="43.3246986" lon="13.1197177"><ele>580.0</ele><time>2026-03-29T10:08:54.411Z</time></trkpt><trkpt lat="43.3246253" lon="13.1196459"><ele>574.0</ele><time>2026-03-29T10:08:57.393Z</time></trkpt><trkpt lat="43.3245669" lon="13.1196977"><ele>568.0</ele><time>2026-03-29T10:09:01.412Z</time></trkpt><trkpt lat="43.3245617" lon="13.1198084"><ele>562.0</ele><time>2026-03-29T10:20:08.45Z</time></trkpt><trkpt lat="43.3245669" lon="13.1199293"><ele>556.0</ele><time>2026-03-29T10:20:10.436Z</time></trkpt><trkpt lat="43.3245691" lon="13.1201028"><ele>554.5</ele><time>2026-03-29T10:20:12.429Z</time></trkpt><trkpt lat="43.3245634" lon="13.1201938"><ele>553.0</ele><time>2026-03-29T10:20:13.418Z</time></trkpt><trkpt lat="43.3245513" lon="13.1202901"><ele>551.5</ele><time>2026-03-29T10:20:14.432Z</time></trkpt><trkpt lat="43.3245522" lon="13.1203807"><ele>550.0</ele><time>2026-03-29T10:20:15.438Z</time></trkpt><trkpt lat="43.3245801" lon="13.1204911"><ele>548.5</ele><time>2026-03-29T10:20:16.423Z</time></trkpt><trkpt lat="43.32462" lon="13.1206068"><ele>547.0</ele><time>2026-03-29T10:20:17.423Z</time></trkpt><trkpt lat="43.324667" lon="13.1207101"><ele>549.3333333333334</ele><time>2026-03-29T10:20:18.429Z</time></trkpt><trkpt lat="43.3247163" lon="13.1208166"><ele>551.6666666666667</ele><time>2026-03-29T10:20:19.426Z</time></trkpt><trkpt lat="43.3247569" lon="13.1209265"><ele>554.0</ele><time>2026-03-29T10:20:20.435Z</time></trkpt><trkpt lat="43.3248015" lon="13.1210337"><ele>556.3333333333334</ele><time>2026-03-29T10:20:21.419Z</time></trkpt><trkpt lat="43.3248412" lon="13.1211343"><ele>558.6666666666666</ele><time>2026-03-29T10:20:22.451Z</time></trkpt><trkpt lat="43.3248908" lon="13.1212069"><ele>561.0</ele><time>2026-03-29T10:20:23.401Z</time></trkpt><trkpt lat="43.3249522" lon="13.1212652"><ele>561.0</ele><time>2026-03-29T10:20:24.424Z</time></trkpt><trkpt lat="43.3250137" lon="13.1213337"><ele>561.0</ele><time>2026-03-29T10:20:25.43Z</time></trkpt><trkpt lat="43.3250772" lon="13.1214114"><ele>561.0</ele><time>2026-03-29T10:20:26.43Z</time></trkpt><trkpt lat="43.3251303" lon="13.1215053"><ele>561.0</ele><time>2026-03-29T10:20:27.442Z</time></trkpt><trkpt lat="43.3251669" lon="13.1216065"><ele>561.0</ele><time>2026-03-29T10:20:28.437Z</time></trkpt><trkpt lat="43.32521" lon="13.1217266"><ele>561.0</ele><time>2026-03-29T10:20:30.438Z</time></trkpt><trkpt lat="43.3252293" lon="13.1218099"><ele>561.0</ele><time>2026-03-29T10:20:34.442Z</time></trkpt><trkpt lat="43.3251445" lon="13.1217888"><ele>561.0</ele><time>2026-03-29T10:22:58.425Z</time></trkpt><trkpt lat="43.3250568" lon="13.1216878"><ele>561.0</ele><time>2026-03-29T10:23:00.439Z</time></trkpt><trkpt lat="43.3249994" lon="13.1216455"><ele>561.0</ele><time>2026-03-29T10:23:01.422Z</time></trkpt><trkpt lat="43.3248932" lon="13.1215872"><ele>561.0</ele><time>2026-03-29T10:23:03.376Z</time></trkpt><trkpt lat="43.3248316" lon="13.1215523"><ele>561.0</ele><time>2026-03-29T10:23:04.434Z</time></trkpt><trkpt lat="43.3247581" lon="13.121495"><ele>554.8</ele><time>2026-03-29T10:23:05.425Z</time></trkpt><trkpt lat="43.3246773" lon="13.1214195"><ele>548.6</ele><time>2026-03-29T10:23:06.442Z</time></trkpt><trkpt lat="43.3245969" lon="13.1213484"><ele>542.4</ele><time>2026-03-29T10:23:07.436Z</time></trkpt><trkpt lat="43.3245115" lon="13.1212719"><ele>536.2</ele><time>2026-03-29T10:23:08.451Z</time></trkpt><trkpt lat="43.324437" lon="13.1211994"><ele>530.0</ele><time>2026-03-29T10:23:09.421Z</time></trkpt><trkpt lat="43.3243664" lon="13.1211181"><ele>530.0</ele><time>2026-03-29T10:23:10.422Z</time></trkpt><trkpt lat="43.3242923" lon="13.1210326"><ele>530.0</ele><time>2026-03-29T10:23:11.426Z</time></trkpt><trkpt lat="43.3242147" lon="13.1209419"><ele>530.0</ele><time>2026-03-29T10:23:12.432Z</time></trkpt><trkpt lat="43.3241339" lon="13.1208551"><ele>530.0</ele><time>2026-03-29T10:23:13.442Z</time></trkpt><trkpt lat="43.3240606" lon="13.1207562"><ele>530.0</ele><time>2026-03-29T10:23:14.399Z</time></trkpt><trkpt lat="43.3239948" lon="13.1206583"><ele>532.8333333333333</ele><time>2026-03-29T10:23:15.421Z</time></trkpt><trkpt lat="43.3239373" lon="13.1205612"><ele>535.6666666666666</ele><time>2026-03-29T10:23:16.415Z</time></trkpt><trkpt lat="43.3238912" lon="13.1204724"><ele>538.5</ele><time>2026-03-29T10:23:17.443Z</time></trkpt><trkpt lat="43.3238601" lon="13.1203762"><ele>541.3333333333334</ele><time>2026-03-29T10:23:18.423Z</time></trkpt><trkpt lat="43.32384" lon="13.1202616"><ele>544.1666666666667</ele><time>2026-03-29T10:23:19.372Z</time></trkpt><trkpt lat="43.3238184" lon="13.1201427"><ele>547.0</ele><time>2026-03-29T10:23:20.427Z</time></trkpt><trkpt lat="43.3237655" lon="13.1200271"><ele>538.2</ele><time>2026-03-29T10:23:21.419Z</time></trkpt><trkpt lat="43.3237072" lon="13.1199175"><ele>529.4000000000001</ele><time>2026-03-29T10:23:22.429Z</time></trkpt><trkpt lat="43.3236578" lon="13.1198166"><ele>520.5999999999999</ele><time>2026-03-29T10:23:23.401Z</time></trkpt><trkpt lat="43.3236145" lon="13.1197098"><ele>511.79999999999995</ele><time>2026-03-29T10:23:24.426Z</time></trkpt><trkpt lat="43.3235773" lon="13.1195964"><ele>503.0</ele><time>2026-03-29T10:23:25.434Z</time></trkpt><trkpt lat="43.3235626" lon="13.1194841"><ele>502.99999999999994</ele><time>2026-03-29T10:23:26.42Z</time></trkpt><trkpt lat="43.3235624" lon="13.1193697"><ele>503.0</ele><time>2026-03-29T10:23:27.435Z</time></trkpt><trkpt lat="43.3235689" lon="13.1192463"><ele>503.0</ele><time>2026-03-29T10:23:28.417Z</time></trkpt><trkpt lat="43.3235772" lon="13.1191264"><ele>503.0</ele><time>2026-03-29T10:23:29.413Z</time></trkpt><trkpt lat="43.3235802" lon="13.1190031"><ele>502.99999999999994</ele><time>2026-03-29T10:23:30.428Z</time></trkpt><trkpt lat="43.3235794" lon="13.1188673"><ele>503.0</ele><time>2026-03-29T10:23:31.45Z</time></trkpt><trkpt lat="43.3235726" lon="13.1187263"><ele>503.59999999999997</ele><time>2026-03-29T10:23:32.407Z</time></trkpt><trkpt lat="43.3235833" lon="13.1185934"><ele>504.19999999999993</ele><time>2026-03-29T10:23:33.37Z</time></trkpt><trkpt lat="43.3236002" lon="13.118464"><ele>504.8</ele><time>2026-03-29T10:23:34.439Z</time></trkpt><trkpt lat="43.3236059" lon="13.1183468"><ele>505.4</ele><time>2026-03-29T10:23:35.444Z</time></trkpt><trkpt lat="43.3235803" lon="13.1182097"><ele>506.0</ele><time>2026-03-29T10:23:36.412Z</time></trkpt><trkpt lat="43.323541" lon="13.1180608"><ele>507.8</ele><time>2026-03-29T10:23:37.396Z</time></trkpt><trkpt lat="43.3235032" lon="13.1179127"><ele>509.6</ele><time>2026-03-29T10:23:38.374Z</time></trkpt><trkpt lat="43.3234652" lon="13.1177945"><ele>511.4</ele><time>2026-03-29T10:23:39.377Z</time></trkpt><trkpt lat="43.3234181" lon="13.1177086"><ele>513.2</ele><time>2026-03-29T10:23:40.368Z</time></trkpt><trkpt lat="43.3233777" lon="13.1176216"><ele>515.0</ele><time>2026-03-29T10:23:41.409Z</time></trkpt><trkpt lat="43.3233077" lon="13.1175399"><ele>515.0</ele><time>2026-03-29T10:23:42.362Z</time></trkpt><trkpt lat="43.3232493" lon="13.1174537"><ele>515.0</ele><time>2026-03-29T10:23:43.356Z</time></trkpt><trkpt lat="43.3231785" lon="13.1173895"><ele>515.0</ele><time>2026-03-29T10:23:44.369Z</time></trkpt><trkpt lat="43.3230932" lon="13.1173425"><ele>515.0</ele><time>2026-03-29T10:23:45.381Z</time></trkpt><trkpt lat="43.3230204" lon="13.1172827"><ele>515.0</ele><time>2026-03-29T10:23:46.376Z</time></trkpt><trkpt lat="43.3229564" lon="13.1172637"><ele>515.0</ele><time>2026-03-29T10:23:47.412Z</time></trkpt><trkpt lat="43.3228915" lon="13.1172758"><ele>514.0</ele><time>2026-03-29T10:23:48.387Z</time></trkpt><trkpt lat="43.322828" lon="13.1173025"><ele>513.0</ele><time>2026-03-29T10:23:49.403Z</time></trkpt><trkpt lat="43.3227375" lon="13.1172852"><ele>512.0</ele><time>2026-03-29T10:23:51.393Z</time></trkpt><trkpt lat="43.3226896" lon="13.1172161"><ele>511.0</ele><time>2026-03-29T10:23:52.415Z</time></trkpt><trkpt lat="43.3226298" lon="13.1171219"><ele>509.99999999999994</ele><time>2026-03-29T10:23:53.39Z</time></trkpt><trkpt lat="43.3225611" lon="13.1170317"><ele>509.0</ele><time>2026-03-29T10:23:54.419Z</time></trkpt><trkpt lat="43.3225087" lon="13.1169466"><ele>509.0</ele><time>2026-03-29T10:23:55.424Z</time></trkpt><trkpt lat="43.3224361" lon="13.11682"><ele>509.0</ele><time>2026-03-29T10:23:57.398Z</time></trkpt><trkpt lat="43.322391" lon="13.1166832"><ele>509.0</ele><time>2026-03-29T10:23:59.422Z</time></trkpt><trkpt lat="43.3223582" lon="13.1165963"><ele>509.0</ele><time>2026-03-29T10:24:00.375Z</time></trkpt><trkpt lat="43.3223051" lon="13.1164974"><ele>509.0</ele><time>2026-03-29T10:24:01.358Z</time></trkpt><trkpt lat="43.3222845" lon="13.1164061"><ele>511.0</ele><time>2026-03-29T10:24:02.383Z</time></trkpt><trkpt lat="43.3222246" lon="13.1162831"><ele>513.0</ele><time>2026-03-29T10:24:04.383Z</time></trkpt><trkpt lat="43.3221492" lon="13.116205"><ele>515.0</ele><time>2026-03-29T10:24:06.368Z</time></trkpt><trkpt lat="43.322134" lon="13.1161079"><ele>517.0</ele><time>2026-03-29T10:24:08.406Z</time></trkpt><trkpt lat="43.3220545" lon="13.1160194"><ele>519.0</ele><time>2026-03-29T10:24:10.405Z</time></trkpt><trkpt lat="43.3219694" lon="13.1159409"><ele>519.0</ele><time>2026-03-29T10:24:12.401Z</time></trkpt><trkpt lat="43.321889" lon="13.1158349"><ele>519.0</ele><time>2026-03-29T10:24:14.398Z</time></trkpt><trkpt lat="43.3218372" lon="13.1157738"><ele>519.0</ele><time>2026-03-29T10:24:15.412Z</time></trkpt><trkpt lat="43.3217797" lon="13.1157122"><ele>519.0</ele><time>2026-03-29T10:24:16.393Z</time></trkpt><trkpt lat="43.3217246" lon="13.1155826"><ele>519.0</ele><time>2026-03-29T10:24:18.378Z</time></trkpt><trkpt lat="43.3216769" lon="13.1155067"><ele>519.0</ele><time>2026-03-29T10:24:19.389Z</time></trkpt><trkpt lat="43.3216093" lon="13.1154265"><ele>519.4</ele><time>2026-03-29T10:24:20.388Z</time></trkpt><trkpt lat="43.3215439" lon="13.1153846"><ele>519.8</ele><time>2026-03-29T10:24:21.378Z</time></trkpt><trkpt lat="43.3214239" lon="13.1154201"><ele>520.2</ele><time>2026-03-29T10:24:23.427Z</time></trkpt><trkpt lat="43.3213685" lon="13.1154807"><ele>520.6</ele><time>2026-03-29T10:24:24.409Z</time></trkpt><trkpt lat="43.3212846" lon="13.115598"><ele>521.0</ele><time>2026-03-29T10:24:26.425Z</time></trkpt><trkpt lat="43.3212304" lon="13.1156458"><ele>524.6666666666666</ele><time>2026-03-29T10:24:27.405Z</time></trkpt><trkpt lat="43.3211624" lon="13.1157086"><ele>528.3333333333333</ele><time>2026-03-29T10:24:28.421Z</time></trkpt><trkpt lat="43.3210862" lon="13.1157781"><ele>532.0</ele><time>2026-03-29T10:24:29.409Z</time></trkpt><trkpt lat="43.3210071" lon="13.1158349"><ele>535.6666666666666</ele><time>2026-03-29T10:24:30.41Z</time></trkpt><trkpt lat="43.3209252" lon="13.115847"><ele>539.3333333333334</ele><time>2026-03-29T10:24:31.424Z</time></trkpt><trkpt lat="43.320851" lon="13.1158339"><ele>543.0</ele><time>2026-03-29T10:24:32.427Z</time></trkpt><trkpt lat="43.3207666" lon="13.1158904"><ele>543.0</ele><time>2026-03-29T10:24:33.428Z</time></trkpt><trkpt lat="43.3206853" lon="13.1159813"><ele>543.0</ele><time>2026-03-29T10:24:34.421Z</time></trkpt><trkpt lat="43.320593" lon="13.1160693"><ele>543.0</ele><time>2026-03-29T10:24:35.403Z</time></trkpt><trkpt lat="43.3204907" lon="13.116125"><ele>543.0</ele><time>2026-03-29T10:24:36.427Z</time></trkpt><trkpt lat="43.3204009" lon="13.1161623"><ele>543.0</ele><time>2026-03-29T10:24:37.405Z</time></trkpt><trkpt lat="43.320349" lon="13.1162202"><ele>547.0</ele><time>2026-03-29T10:24:38.425Z</time></trkpt><trkpt lat="43.3202932" lon="13.1163169"><ele>551.0</ele><time>2026-03-29T10:24:39.413Z</time></trkpt><trkpt lat="43.3202324" lon="13.1164609"><ele>555.0</ele><time>2026-03-29T10:24:40.425Z</time></trkpt><trkpt lat="43.3201817" lon="13.1165668"><ele>559.0</ele><time>2026-03-29T10:24:41.386Z</time></trkpt><trkpt lat="43.320107" lon="13.1166328"><ele>563.0</ele><time>2026-03-29T10:24:42.422Z</time></trkpt><trkpt lat="43.320023" lon="13.1166704"><ele>563.0</ele><time>2026-03-29T10:24:43.419Z</time></trkpt><trkpt lat="43.3199615" lon="13.1167061"><ele>563.0</ele><time>2026-03-29T10:24:44.428Z</time></trkpt><trkpt lat="43.3199213" lon="13.1167929"><ele>563.0</ele><time>2026-03-29T10:24:47.411Z</time></trkpt><trkpt lat="43.3198533" lon="13.1168546"><ele>563.0</ele><time>2026-03-29T10:24:53.401Z</time></trkpt><trkpt lat="43.3198088" lon="13.1169174"><ele>563.0</ele><time>2026-03-29T10:24:56.4Z</time></trkpt><trkpt lat="43.319736" lon="13.1169604"><ele>563.0</ele><time>2026-03-29T10:27:11.411Z</time></trkpt><trkpt lat="43.3196541" lon="13.1170523"><ele>568.8</ele><time>2026-03-29T10:27:13.386Z</time></trkpt><trkpt lat="43.3195886" lon="13.1171263"><ele>574.5999999999999</ele><time>2026-03-29T10:27:14.415Z</time></trkpt><trkpt lat="43.3195245" lon="13.1172191"><ele>580.4000000000001</ele><time>2026-03-29T10:27:15.372Z</time></trkpt><trkpt lat="43.319466" lon="13.1173195"><ele>586.2</ele><time>2026-03-29T10:27:16.371Z</time></trkpt><trkpt lat="43.3194122" lon="13.1174143"><ele>592.0</ele><time>2026-03-29T10:27:17.437Z</time></trkpt><trkpt lat="43.3195053" lon="13.1174734"><ele>592.0</ele><time>2026-03-29T10:27:20.416Z</time></trkpt><trkpt lat="43.3196018" lon="13.1174721"><ele>592.0</ele><time>2026-03-29T10:27:22.572Z</time></trkpt><trkpt lat="43.3197061" lon="13.1174911"><ele>592.0</ele><time>2026-03-29T10:27:24.404Z</time></trkpt><trkpt lat="43.3198182" lon="13.1175495"><ele>592.0</ele><time>2026-03-29T10:27:26.394Z</time></trkpt><trkpt lat="43.3198795" lon="13.1175962"><ele>592.0</ele><time>2026-03-29T10:27:27.416Z</time></trkpt><trkpt lat="43.319943" lon="13.1176475"><ele>588.0</ele><time>2026-03-29T10:27:28.411Z</time></trkpt><trkpt lat="43.320003" lon="13.1176792"><ele>584.0</ele><time>2026-03-29T10:27:29.392Z</time></trkpt><trkpt lat="43.32008" lon="13.1177277"><ele>580.0</ele><time>2026-03-29T10:27:30.423Z</time></trkpt><trkpt lat="43.3201713" lon="13.1178018"><ele>576.0</ele><time>2026-03-29T10:27:31.421Z</time></trkpt><trkpt lat="43.3202712" lon="13.1178866"><ele>572.0</ele><time>2026-03-29T10:27:32.407Z</time></trkpt><trkpt lat="43.320378" lon="13.117964"><ele>572.0</ele><time>2026-03-29T10:27:33.423Z</time></trkpt><trkpt lat="43.3204775" lon="13.1180437"><ele>572.0</ele><time>2026-03-29T10:27:34.419Z</time></trkpt><trkpt lat="43.3205549" lon="13.118118"><ele>572.0</ele><time>2026-03-29T10:27:35.403Z</time></trkpt><trkpt lat="43.3206374" lon="13.1182169"><ele>572.0</ele><time>2026-03-29T10:27:36.442Z</time></trkpt><trkpt lat="43.3207174" lon="13.1183349"><ele>572.0</ele><time>2026-03-29T10:27:37.421Z</time></trkpt><trkpt lat="43.3207791" lon="13.1184502"><ele>572.2</ele><time>2026-03-29T10:27:38.432Z</time></trkpt><trkpt lat="43.3208247" lon="13.1185461"><ele>572.4000000000001</ele><time>2026-03-29T10:27:39.422Z</time></trkpt><trkpt lat="43.3208863" lon="13.1186521"><ele>572.5999999999999</ele><time>2026-03-29T10:27:40.437Z</time></trkpt><trkpt lat="43.3209483" lon="13.118769"><ele>572.8</ele><time>2026-03-29T10:27:41.423Z</time></trkpt><trkpt lat="43.3210055" lon="13.1188824"><ele>573.0</ele><time>2026-03-29T10:27:42.431Z</time></trkpt><trkpt lat="43.3210585" lon="13.1189867"><ele>574.0</ele><time>2026-03-29T10:27:43.418Z</time></trkpt><trkpt lat="43.3211039" lon="13.1190911"><ele>575.0</ele><time>2026-03-29T10:27:44.412Z</time></trkpt><trkpt lat="43.3211375" lon="13.1191994"><ele>576.0</ele><time>2026-03-29T10:27:45.422Z</time></trkpt><trkpt lat="43.3211747" lon="13.1193053"><ele>577.0</ele><time>2026-03-29T10:27:46.438Z</time></trkpt><trkpt lat="43.3212117" lon="13.1194202"><ele>578.0</ele><time>2026-03-29T10:27:47.437Z</time></trkpt><trkpt lat="43.3212518" lon="13.119543"><ele>579.0</ele><time>2026-03-29T10:27:48.425Z</time></trkpt><trkpt lat="43.3212872" lon="13.1196558"><ele>579.0</ele><time>2026-03-29T10:27:49.432Z</time></trkpt><trkpt lat="43.3213206" lon="13.1197715"><ele>579.0</ele><time>2026-03-29T10:27:50.424Z</time></trkpt><trkpt lat="43.3213515" lon="13.1199008"><ele>579.0</ele><time>2026-03-29T10:27:51.38Z</time></trkpt><trkpt lat="43.3213888" lon="13.1200529"><ele>579.0</ele><time>2026-03-29T10:27:52.429Z</time></trkpt><trkpt lat="43.3214296" lon="13.1202182"><ele>579.0</ele><time>2026-03-29T10:27:53.419Z</time></trkpt><trkpt lat="43.3214956" lon="13.1203848"><ele>574.5</ele><time>2026-03-29T10:27:54.419Z</time></trkpt><trkpt lat="43.3215765" lon="13.1205416"><ele>570.0</ele><time>2026-03-29T10:27:55.437Z</time></trkpt><trkpt lat="43.3216387" lon="13.1206914"><ele>565.5</ele><time>2026-03-29T10:27:56.424Z</time></trkpt><trkpt lat="43.3216672" lon="13.1208391"><ele>561.0</ele><time>2026-03-29T10:27:57.433Z</time></trkpt><trkpt lat="43.3216905" lon="13.1209715"><ele>561.0</ele><time>2026-03-29T10:27:58.391Z</time></trkpt><trkpt lat="43.3217143" lon="13.1211209"><ele>561.0</ele><time>2026-03-29T10:27:59.433Z</time></trkpt><trkpt lat="43.3217414" lon="13.1212955"><ele>561.0</ele><time>2026-03-29T10:28:00.431Z</time></trkpt><trkpt lat="43.321759" lon="13.1214755"><ele>561.0</ele><time>2026-03-29T10:28:01.416Z</time></trkpt><trkpt lat="43.321766" lon="13.1216952"><ele>560.25</ele><time>2026-03-29T10:28:02.426Z</time></trkpt><trkpt lat="43.3217516" lon="13.1219146"><ele>559.5</ele><time>2026-03-29T10:28:03.43Z</time></trkpt><trkpt lat="43.32173" lon="13.1220937"><ele>558.75</ele><time>2026-03-29T10:28:04.422Z</time></trkpt><trkpt lat="43.3216966" lon="13.1222461"><ele>558.0</ele><time>2026-03-29T10:28:05.441Z</time></trkpt><trkpt lat="43.3216603" lon="13.122358"><ele>557.5</ele><time>2026-03-29T10:28:06.433Z</time></trkpt><trkpt lat="43.3216094" lon="13.122469"><ele>557.0</ele><time>2026-03-29T10:28:07.427Z</time></trkpt><trkpt lat="43.3215285" lon="13.1226093"><ele>556.5</ele><time>2026-03-29T10:28:08.438Z</time></trkpt><trkpt lat="43.321455" lon="13.122768"><ele>556.0</ele><time>2026-03-29T10:28:09.425Z</time></trkpt><trkpt lat="43.3213898" lon="13.1229133"><ele>564.0</ele><time>2026-03-29T10:28:10.432Z</time></trkpt><trkpt lat="43.3213317" lon="13.1230281"><ele>572.0</ele><time>2026-03-29T10:28:11.379Z</time></trkpt><trkpt lat="43.3212525" lon="13.1231301"><ele>580.0</ele><time>2026-03-29T10:28:12.426Z</time></trkpt><trkpt lat="43.3211538" lon="13.1232363"><ele>588.0</ele><time>2026-03-29T10:28:13.412Z</time></trkpt><trkpt lat="43.3210532" lon="13.1233319"><ele>588.0</ele><time>2026-03-29T10:28:14.422Z</time></trkpt><trkpt lat="43.3209781" lon="13.1233978"><ele>588.0</ele><time>2026-03-29T10:28:15.428Z</time></trkpt><trkpt lat="43.3208973" lon="13.1234494"><ele>588.0</ele><time>2026-03-29T10:28:17.379Z</time></trkpt><trkpt lat="43.3208771" lon="13.1235763"><ele>588.0</ele><time>2026-03-29T10:28:20.422Z</time></trkpt><trkpt lat="43.3208725" lon="13.1236871"><ele>588.0</ele><time>2026-03-29T10:28:21.447Z</time></trkpt><trkpt lat="43.3208663" lon="13.123847"><ele>588.0</ele><time>2026-03-29T10:28:22.444Z</time></trkpt><trkpt lat="43.3208641" lon="13.1240428"><ele>588.0</ele><time>2026-03-29T10:28:23.433Z</time></trkpt><trkpt lat="43.3208657" lon="13.1242634"><ele>588.0</ele><time>2026-03-29T10:28:24.423Z</time></trkpt><trkpt lat="43.3208671" lon="13.1244784"><ele>586.0</ele><time>2026-03-29T10:28:25.437Z</time></trkpt><trkpt lat="43.320842" lon="13.1246805"><ele>584.0</ele><time>2026-03-29T10:28:26.439Z</time></trkpt><trkpt lat="43.3207835" lon="13.1248628"><ele>582.0</ele><time>2026-03-29T10:28:27.414Z</time></trkpt><trkpt lat="43.3207051" lon="13.1250432"><ele>580.0</ele><time>2026-03-29T10:28:28.438Z</time></trkpt><trkpt lat="43.3206387" lon="13.1252158"><ele>580.5</ele><time>2026-03-29T10:28:29.437Z</time></trkpt><trkpt lat="43.3205942" lon="13.1254004"><ele>581.0</ele><time>2026-03-29T10:28:30.37Z</time></trkpt><trkpt lat="43.3205725" lon="13.1255924"><ele>581.5</ele><time>2026-03-29T10:28:31.437Z</time></trkpt><trkpt lat="43.3205663" lon="13.1257992"><ele>582.0</ele><time>2026-03-29T10:28:32.422Z</time></trkpt><trkpt lat="43.3205517" lon="13.126003"><ele>582.0</ele><time>2026-03-29T10:28:33.412Z</time></trkpt><trkpt lat="43.3205313" lon="13.1262016"><ele>582.0</ele><time>2026-03-29T10:28:34.438Z</time></trkpt><trkpt lat="43.3204736" lon="13.1263722"><ele>582.0</ele><time>2026-03-29T10:28:35.43Z</time></trkpt><trkpt lat="43.3203919" lon="13.1265378"><ele>582.0</ele><time>2026-03-29T10:28:36.422Z</time></trkpt><trkpt lat="43.3202939" lon="13.1267007"><ele>577.75</ele><time>2026-03-29T10:28:37.398Z</time></trkpt><trkpt lat="43.3202011" lon="13.1268267"><ele>573.5</ele><time>2026-03-29T10:28:38.451Z</time></trkpt><trkpt lat="43.3200944" lon="13.1269104"><ele>569.25</ele><time>2026-03-29T10:28:39.437Z</time></trkpt><trkpt lat="43.3199801" lon="13.1269799"><ele>565.0</ele><time>2026-03-29T10:28:40.428Z</time></trkpt><trkpt lat="43.3198678" lon="13.1270616"><ele>565.0</ele><time>2026-03-29T10:28:41.42Z</time></trkpt><trkpt lat="43.3197712" lon="13.1271808"><ele>565.0</ele><time>2026-03-29T10:28:42.433Z</time></trkpt><trkpt lat="43.3196731" lon="13.1272989"><ele>565.0</ele><time>2026-03-29T10:28:43.426Z</time></trkpt><trkpt lat="43.3195706" lon="13.1273957"><ele>565.0</ele><time>2026-03-29T10:28:44.441Z</time></trkpt><trkpt lat="43.3194651" lon="13.1274907"><ele>562.75</ele><time>2026-03-29T10:28:45.431Z</time></trkpt><trkpt lat="43.3193641" lon="13.1275865"><ele>560.5</ele><time>2026-03-29T10:28:46.438Z</time></trkpt><trkpt lat="43.3192586" lon="13.1276694"><ele>558.25</ele><time>2026-03-29T10:28:47.45Z</time></trkpt><trkpt lat="43.3191445" lon="13.1277447"><ele>556.0</ele><time>2026-03-29T10:28:48.439Z</time></trkpt><trkpt lat="43.3190265" lon="13.127782"><ele>556.0</ele><time>2026-03-29T10:28:49.411Z</time></trkpt><trkpt lat="43.3189091" lon="13.1277814"><ele>556.0</ele><time>2026-03-29T10:28:50.439Z</time></trkpt><trkpt lat="43.3188071" lon="13.1277708"><ele>556.0</ele><time>2026-03-29T10:28:51.419Z</time></trkpt><trkpt lat="43.3187178" lon="13.127777"><ele>556.0</ele><time>2026-03-29T10:28:52.39Z</time></trkpt><trkpt lat="43.3186502" lon="13.1278059"><ele>556.0</ele><time>2026-03-29T10:28:53.433Z</time></trkpt><trkpt lat="43.3186191" lon="13.1279537"><ele>556.0</ele><time>2026-03-29T10:28:55.439Z</time></trkpt><trkpt lat="43.3186712" lon="13.1280068"><ele>556.0</ele><time>2026-03-29T10:28:56.434Z</time></trkpt><trkpt lat="43.3187426" lon="13.128014"><ele>556.0</ele><time>2026-03-29T10:28:57.418Z</time></trkpt><trkpt lat="43.3188239" lon="13.1279949"><ele>556.0</ele><time>2026-03-29T10:28:58.433Z</time></trkpt><trkpt lat="43.3189196" lon="13.1279939"><ele>556.0</ele><time>2026-03-29T10:28:59.434Z</time></trkpt><trkpt lat="43.3190243" lon="13.1280126"><ele>556.0</ele><time>2026-03-29T10:29:00.436Z</time></trkpt><trkpt lat="43.3191157" lon="13.1280487"><ele>556.0</ele><time>2026-03-29T10:29:01.375Z</time></trkpt><trkpt lat="43.3192072" lon="13.128098"><ele>556.0</ele><time>2026-03-29T10:29:02.421Z</time></trkpt><trkpt lat="43.3192998" lon="13.1281478"><ele>556.0</ele><time>2026-03-29T10:29:03.424Z</time></trkpt><trkpt lat="43.3193871" lon="13.1282149"><ele>556.0</ele><time>2026-03-29T10:29:04.436Z</time></trkpt><trkpt lat="43.3194733" lon="13.1282817"><ele>556.0</ele><time>2026-03-29T10:29:05.426Z</time></trkpt><trkpt lat="43.3195623" lon="13.1283642"><ele>552.2</ele><time>2026-03-29T10:29:06.43Z</time></trkpt><trkpt lat="43.3196243" lon="13.1284757"><ele>548.4000000000001</ele><time>2026-03-29T10:29:07.449Z</time></trkpt><trkpt lat="43.3196578" lon="13.1286033"><ele>544.6</ele><time>2026-03-29T10:29:08.432Z</time></trkpt><trkpt lat="43.3196689" lon="13.1287481"><ele>540.8000000000001</ele><time>2026-03-29T10:29:09.436Z</time></trkpt><trkpt lat="43.3196447" lon="13.1289219"><ele>537.0</ele><time>2026-03-29T10:29:10.437Z</time></trkpt><trkpt lat="43.319627" lon="13.1290973"><ele>534.0</ele><time>2026-03-29T10:29:11.422Z</time></trkpt><trkpt lat="43.3196162" lon="13.1292622"><ele>531.0</ele><time>2026-03-29T10:29:12.393Z</time></trkpt><trkpt lat="43.3196093" lon="13.1294296"><ele>528.0</ele><time>2026-03-29T10:29:13.389Z</time></trkpt><trkpt lat="43.3196279" lon="13.1295913"><ele>525.0</ele><time>2026-03-29T10:29:14.42Z</time></trkpt><trkpt lat="43.319694" lon="13.1297087"><ele>524.25</ele><time>2026-03-29T10:29:15.43Z</time></trkpt><trkpt lat="43.3198037" lon="13.1297679"><ele>523.5</ele><time>2026-03-29T10:29:16.426Z</time></trkpt><trkpt lat="43.3199277" lon="13.1298046"><ele>522.75</ele><time>2026-03-29T10:29:17.436Z</time></trkpt><trkpt lat="43.3200462" lon="13.1298585"><ele>522.0</ele><time>2026-03-29T10:29:18.426Z</time></trkpt><trkpt lat="43.3201463" lon="13.1299411"><ele>522.0</ele><time>2026-03-29T10:29:19.414Z</time></trkpt><trkpt lat="43.3202396" lon="13.1300676"><ele>522.0</ele><time>2026-03-29T10:29:20.422Z</time></trkpt><trkpt lat="43.320324" lon="13.1302012"><ele>522.0</ele><time>2026-03-29T10:29:21.43Z</time></trkpt><trkpt lat="43.3204109" lon="13.1303402"><ele>522.0</ele><time>2026-03-29T10:29:22.432Z</time></trkpt><trkpt lat="43.3204919" lon="13.1304817"><ele>522.0</ele><time>2026-03-29T10:29:23.435Z</time></trkpt><trkpt lat="43.3205654" lon="13.1306067"><ele>522.0</ele><time>2026-03-29T10:29:24.375Z</time></trkpt><trkpt lat="43.3206287" lon="13.1307355"><ele>522.0</ele><time>2026-03-29T10:29:25.429Z</time></trkpt><trkpt lat="43.3206707" lon="13.1308672"><ele>522.0</ele><time>2026-03-29T10:29:26.375Z</time></trkpt><trkpt lat="43.3206626" lon="13.130989"><ele>522.0</ele><time>2026-03-29T10:29:27.446Z</time></trkpt><trkpt lat="43.3206234" lon="13.1311173"><ele>522.2</ele><time>2026-03-29T10:29:28.434Z</time></trkpt><trkpt lat="43.3205817" lon="13.1312437"><ele>522.4000000000001</ele><time>2026-03-29T10:29:29.434Z</time></trkpt><trkpt lat="43.32053" lon="13.1313792"><ele>522.5999999999999</ele><time>2026-03-29T10:29:30.446Z</time></trkpt><trkpt lat="43.3204584" lon="13.1315047"><ele>522.8</ele><time>2026-03-29T10:29:31.444Z</time></trkpt><trkpt lat="43.320364" lon="13.1315996"><ele>523.0</ele><time>2026-03-29T10:29:32.445Z</time></trkpt><trkpt lat="43.3202525" lon="13.1316555"><ele>523.0</ele><time>2026-03-29T10:29:33.442Z</time></trkpt><trkpt lat="43.3201401" lon="13.131656"><ele>523.0</ele><time>2026-03-29T10:29:34.448Z</time></trkpt><trkpt lat="43.3200308" lon="13.1316031"><ele>523.0</ele><time>2026-03-29T10:29:35.417Z</time></trkpt><trkpt lat="43.3199121" lon="13.1315284"><ele>523.0</ele><time>2026-03-29T10:29:36.423Z</time></trkpt><trkpt lat="43.319793" lon="13.1314591"><ele>518.25</ele><time>2026-03-29T10:29:37.418Z</time></trkpt><trkpt lat="43.3196951" lon="13.1313693"><ele>513.5</ele><time>2026-03-29T10:29:38.421Z</time></trkpt><trkpt lat="43.3196191" lon="13.1312386"><ele>508.75</ele><time>2026-03-29T10:29:39.405Z</time></trkpt><trkpt lat="43.3195591" lon="13.1311013"><ele>504.0</ele><time>2026-03-29T10:29:40.429Z</time></trkpt><trkpt lat="43.319485" lon="13.1309715"><ele>504.0</ele><time>2026-03-29T10:29:41.417Z</time></trkpt><trkpt lat="43.3193974" lon="13.1308497"><ele>504.0</ele><time>2026-03-29T10:29:42.44Z</time></trkpt><trkpt lat="43.3192942" lon="13.1307618"><ele>504.0</ele><time>2026-03-29T10:29:43.416Z</time></trkpt><trkpt lat="43.3191872" lon="13.1306714"><ele>504.0</ele><time>2026-03-29T10:29:44.475Z</time></trkpt><trkpt lat="43.319091" lon="13.1305671"><ele>503.6</ele><time>2026-03-29T10:29:45.414Z</time></trkpt><trkpt lat="43.3190058" lon="13.1304495"><ele>503.2</ele><time>2026-03-29T10:29:46.435Z</time></trkpt><trkpt lat="43.318948" lon="13.1303186"><ele>502.80000000000007</ele><time>2026-03-29T10:29:47.39Z</time></trkpt><trkpt lat="43.3188887" lon="13.1302007"><ele>502.40000000000003</ele><time>2026-03-29T10:29:48.424Z</time></trkpt><trkpt lat="43.3188127" lon="13.1301042"><ele>502.0</ele><time>2026-03-29T10:29:49.432Z</time></trkpt><trkpt lat="43.3187088" lon="13.1300684"><ele>502.0</ele><time>2026-03-29T10:29:50.373Z</time></trkpt><trkpt lat="43.3186055" lon="13.1300963"><ele>502.00000000000006</ele><time>2026-03-29T10:29:51.377Z</time></trkpt><trkpt lat="43.3185035" lon="13.13016"><ele>502.00000000000006</ele><time>2026-03-29T10:29:52.419Z</time></trkpt><trkpt lat="43.3184103" lon="13.1302288"><ele>502.0</ele><time>2026-03-29T10:29:53.42Z</time></trkpt><trkpt lat="43.3183186" lon="13.1302888"><ele>502.0</ele><time>2026-03-29T10:29:54.43Z</time></trkpt><trkpt lat="43.3182292" lon="13.1303451"><ele>502.0</ele><time>2026-03-29T10:29:55.435Z</time></trkpt><trkpt lat="43.3181423" lon="13.1303979"><ele>502.00000000000006</ele><time>2026-03-29T10:29:56.416Z</time></trkpt><trkpt lat="43.3180578" lon="13.1304448"><ele>502.00000000000006</ele><time>2026-03-29T10:29:57.438Z</time></trkpt><trkpt lat="43.3179716" lon="13.1304821"><ele>502.0</ele><time>2026-03-29T10:29:58.439Z</time></trkpt><trkpt lat="43.3178827" lon="13.1305127"><ele>502.0</ele><time>2026-03-29T10:29:59.419Z</time></trkpt><trkpt lat="43.3177877" lon="13.1305386"><ele>502.8</ele><time>2026-03-29T10:30:00.43Z</time></trkpt><trkpt lat="43.3176928" lon="13.1305618"><ele>503.6</ele><time>2026-03-29T10:30:01.406Z</time></trkpt><trkpt lat="43.3175968" lon="13.1305801"><ele>504.40000000000003</ele><time>2026-03-29T10:30:02.425Z</time></trkpt><trkpt lat="43.3175015" lon="13.1305951"><ele>505.20000000000005</ele><time>2026-03-29T10:30:03.436Z</time></trkpt><trkpt lat="43.3174087" lon="13.1305908"><ele>506.0</ele><time>2026-03-29T10:30:04.449Z</time></trkpt><trkpt lat="43.3173204" lon="13.1305759"><ele>505.99999999999994</ele><time>2026-03-29T10:30:05.445Z</time></trkpt><trkpt lat="43.3172397" lon="13.1305897"><ele>506.0</ele><time>2026-03-29T10:30:06.434Z</time></trkpt><trkpt lat="43.3171622" lon="13.1306291"><ele>506.0</ele><time>2026-03-29T10:30:07.431Z</time></trkpt><trkpt lat="43.3171099" lon="13.1307133"><ele>506.0</ele><time>2026-03-29T10:30:08.428Z</time></trkpt><trkpt lat="43.3170946" lon="13.1308407"><ele>505.99999999999994</ele><time>2026-03-29T10:30:09.448Z</time></trkpt><trkpt lat="43.3170871" lon="13.1309701"><ele>506.0</ele><time>2026-03-29T10:30:10.432Z</time></trkpt><trkpt lat="43.3170746" lon="13.1310948"><ele>506.99999999999994</ele><time>2026-03-29T10:30:11.418Z</time></trkpt><trkpt lat="43.3170576" lon="13.1312212"><ele>508.0</ele><time>2026-03-29T10:30:12.437Z</time></trkpt><trkpt lat="43.3170273" lon="13.1313281"><ele>509.0</ele><time>2026-03-29T10:30:13.436Z</time></trkpt><trkpt lat="43.3169816" lon="13.131424"><ele>510.0</ele><time>2026-03-29T10:30:14.435Z</time></trkpt><trkpt lat="43.3169189" lon="13.1315079"><ele>510.99999999999994</ele><time>2026-03-29T10:30:15.441Z</time></trkpt><trkpt lat="43.316854" lon="13.131571"><ele>512.0</ele><time>2026-03-29T10:30:16.465Z</time></trkpt><trkpt lat="43.3167969" lon="13.1316429"><ele>511.99999999999994</ele><time>2026-03-29T10:30:17.425Z</time></trkpt><trkpt lat="43.3167506" lon="13.131706"><ele>512.0</ele><time>2026-03-29T10:30:18.447Z</time></trkpt><trkpt lat="43.316699" lon="13.1318458"><ele>512.0</ele><time>2026-03-29T10:30:20.413Z</time></trkpt><trkpt lat="43.3166574" lon="13.1319995"><ele>512.0</ele><time>2026-03-29T10:30:22.419Z</time></trkpt><trkpt lat="43.3166335" lon="13.1320844"><ele>511.99999999999994</ele><time>2026-03-29T10:30:23.406Z</time></trkpt><trkpt lat="43.316611" lon="13.1321657"><ele>512.0</ele><time>2026-03-29T10:30:24.425Z</time></trkpt><trkpt lat="43.3165814" lon="13.132261"><ele>511.99999999999994</ele><time>2026-03-29T10:30:26.45Z</time></trkpt><trkpt lat="43.3165376" lon="13.132354"><ele>512.0</ele><time>2026-03-29T10:30:29.415Z</time></trkpt><trkpt lat="43.3164745" lon="13.1324269"><ele>512.0</ele><time>2026-03-29T10:30:32.427Z</time></trkpt><trkpt lat="43.3163951" lon="13.1324817"><ele>512.0</ele><time>2026-03-29T10:30:34.413Z</time></trkpt><trkpt lat="43.3163131" lon="13.1324941"><ele>511.99999999999994</ele><time>2026-03-29T10:30:36.428Z</time></trkpt><trkpt lat="43.3162193" lon="13.1324802"><ele>512.0</ele><time>2026-03-29T10:30:38.379Z</time></trkpt><trkpt lat="43.3161035" lon="13.1324871"><ele>513.2857142857142</ele><time>2026-03-29T10:30:40.418Z</time></trkpt><trkpt lat="43.3160402" lon="13.1325013"><ele>514.5714285714286</ele><time>2026-03-29T10:30:41.459Z</time></trkpt><trkpt lat="43.3159687" lon="13.132522"><ele>515.8571428571429</ele><time>2026-03-29T10:30:42.434Z</time></trkpt><trkpt lat="43.3158931" lon="13.1325415"><ele>517.1428571428571</ele><time>2026-03-29T10:30:43.437Z</time></trkpt><trkpt lat="43.3158115" lon="13.1325662"><ele>518.4285714285714</ele><time>2026-03-29T10:30:44.446Z</time></trkpt><trkpt lat="43.3157439" lon="13.1325963"><ele>519.7142857142857</ele><time>2026-03-29T10:30:45.437Z</time></trkpt><trkpt lat="43.3156807" lon="13.1326239"><ele>521.0</ele><time>2026-03-29T10:30:46.438Z</time></trkpt><trkpt lat="43.3155736" lon="13.1326607"><ele>523.3333333333333</ele><time>2026-03-29T10:30:48.424Z</time></trkpt><trkpt lat="43.3154924" lon="13.1326706"><ele>525.6666666666666</ele><time>2026-03-29T10:30:50.419Z</time></trkpt><trkpt lat="43.3153883" lon="13.1326724"><ele>528.0</ele><time>2026-03-29T10:30:52.399Z</time></trkpt><trkpt lat="43.3153242" lon="13.1326818"><ele>530.3333333333334</ele><time>2026-03-29T10:30:53.44Z</time></trkpt><trkpt lat="43.3152044" lon="13.1326834"><ele>532.6666666666667</ele><time>2026-03-29T10:30:55.438Z</time></trkpt><trkpt lat="43.3151354" lon="13.1326918"><ele>535.0</ele><time>2026-03-29T10:30:56.402Z</time></trkpt><trkpt lat="43.3150562" lon="13.1327116"><ele>535.0</ele><time>2026-03-29T10:30:57.419Z</time></trkpt><trkpt lat="43.3149786" lon="13.1327351"><ele>535.0</ele><time>2026-03-29T10:30:58.43Z</time></trkpt><trkpt lat="43.3149011" lon="13.13277"><ele>535.0</ele><time>2026-03-29T10:30:59.439Z</time></trkpt><trkpt lat="43.3148192" lon="13.1328052"><ele>535.0</ele><time>2026-03-29T10:31:00.411Z</time></trkpt><trkpt lat="43.3147286" lon="13.132841"><ele>535.0</ele><time>2026-03-29T10:31:01.428Z</time></trkpt><trkpt lat="43.314654" lon="13.1328677"><ele>535.0</ele><time>2026-03-29T10:31:02.458Z</time></trkpt><trkpt lat="43.3145324" lon="13.1328697"><ele>536.6</ele><time>2026-03-29T10:31:04.436Z</time></trkpt><trkpt lat="43.3144808" lon="13.1328117"><ele>538.2</ele><time>2026-03-29T10:31:05.409Z</time></trkpt><trkpt lat="43.3144252" lon="13.1327277"><ele>539.8</ele><time>2026-03-29T10:31:06.432Z</time></trkpt><trkpt lat="43.3143641" lon="13.1326238"><ele>541.4</ele><time>2026-03-29T10:31:07.437Z</time></trkpt><trkpt lat="43.3142936" lon="13.1325248"><ele>543.0</ele><time>2026-03-29T10:31:08.44Z</time></trkpt><trkpt lat="43.3142097" lon="13.1324193"><ele>542.8</ele><time>2026-03-29T10:31:09.455Z</time></trkpt><trkpt lat="43.314136" lon="13.1323307"><ele>542.5999999999999</ele><time>2026-03-29T10:31:10.453Z</time></trkpt><trkpt lat="43.314062" lon="13.1322951"><ele>542.4000000000001</ele><time>2026-03-29T10:31:11.437Z</time></trkpt><trkpt lat="43.3139846" lon="13.1322937"><ele>542.2</ele><time>2026-03-29T10:31:12.418Z</time></trkpt><trkpt lat="43.3138981" lon="13.1323377"><ele>542.0</ele><time>2026-03-29T10:31:13.424Z</time></trkpt><trkpt lat="43.3137914" lon="13.1324051"><ele>542.0</ele><time>2026-03-29T10:31:14.425Z</time></trkpt><trkpt lat="43.3136755" lon="13.1324276"><ele>542.0</ele><time>2026-03-29T10:31:15.431Z</time></trkpt><trkpt lat="43.313559" lon="13.1324332"><ele>542.0</ele><time>2026-03-29T10:31:16.379Z</time></trkpt><trkpt lat="43.3134444" lon="13.1324468"><ele>542.0</ele><time>2026-03-29T10:31:17.441Z</time></trkpt><trkpt lat="43.3133326" lon="13.1324659"><ele>542.0</ele><time>2026-03-29T10:31:18.448Z</time></trkpt><trkpt lat="43.3132217" lon="13.1324832"><ele>542.0</ele><time>2026-03-29T10:31:19.443Z</time></trkpt><trkpt lat="43.3131111" lon="13.1324978"><ele>542.0</ele><time>2026-03-29T10:31:20.44Z</time></trkpt><trkpt lat="43.3129926" lon="13.1325083"><ele>542.0</ele><time>2026-03-29T10:31:21.432Z</time></trkpt><trkpt lat="43.3128712" lon="13.1325015"><ele>541.4</ele><time>2026-03-29T10:31:22.44Z</time></trkpt><trkpt lat="43.312759" lon="13.132481"><ele>540.8000000000001</ele><time>2026-03-29T10:31:23.463Z</time></trkpt><trkpt lat="43.3126634" lon="13.1324807"><ele>540.2</ele><time>2026-03-29T10:31:24.443Z</time></trkpt><trkpt lat="43.3125736" lon="13.1324858"><ele>539.6</ele><time>2026-03-29T10:31:25.424Z</time></trkpt><trkpt lat="43.3124872" lon="13.1324861"><ele>539.0</ele><time>2026-03-29T10:31:26.431Z</time></trkpt><trkpt lat="43.3124152" lon="13.1324861"><ele>539.0</ele><time>2026-03-29T10:31:27.43Z</time></trkpt><trkpt lat="43.3122942" lon="13.1325077"><ele>539.0</ele><time>2026-03-29T10:31:29.419Z</time></trkpt><trkpt lat="43.3122104" lon="13.1325269"><ele>539.0</ele><time>2026-03-29T10:31:31.429Z</time></trkpt><trkpt lat="43.3121614" lon="13.1324435"><ele>539.0</ele><time>2026-03-29T10:31:33.389Z</time></trkpt><trkpt lat="43.3121266" lon="13.1322934"><ele>539.0</ele><time>2026-03-29T10:31:35.424Z</time></trkpt><trkpt lat="43.3121182" lon="13.1321212"><ele>539.3333333333333</ele><time>2026-03-29T10:31:37.425Z</time></trkpt><trkpt lat="43.3121098" lon="13.1320212"><ele>539.6666666666666</ele><time>2026-03-29T10:31:38.438Z</time></trkpt><trkpt lat="43.3120975" lon="13.1319114"><ele>540.0</ele><time>2026-03-29T10:31:39.444Z</time></trkpt><trkpt lat="43.3120898" lon="13.1317992"><ele>540.3333333333334</ele><time>2026-03-29T10:31:40.434Z</time></trkpt><trkpt lat="43.3120823" lon="13.1316859"><ele>540.6666666666667</ele><time>2026-03-29T10:31:41.432Z</time></trkpt><trkpt lat="43.3120545" lon="13.1315696"><ele>541.0</ele><time>2026-03-29T10:31:42.433Z</time></trkpt><trkpt lat="43.3120054" lon="13.1314683"><ele>541.0</ele><time>2026-03-29T10:31:43.427Z</time></trkpt><trkpt lat="43.3119363" lon="13.1313871"><ele>541.0</ele><time>2026-03-29T10:31:44.435Z</time></trkpt><trkpt lat="43.3118515" lon="13.131347"><ele>541.0</ele><time>2026-03-29T10:31:45.426Z</time></trkpt><trkpt lat="43.3117626" lon="13.131326"><ele>541.0</ele><time>2026-03-29T10:31:46.446Z</time></trkpt><trkpt lat="43.3116715" lon="13.131302"><ele>541.0</ele><time>2026-03-29T10:31:47.443Z</time></trkpt><trkpt lat="43.3115693" lon="13.1312886"><ele>541.0</ele><time>2026-03-29T10:31:48.438Z</time></trkpt><trkpt lat="43.3114853" lon="13.1312965"><ele>541.0</ele><time>2026-03-29T10:31:49.435Z</time></trkpt><trkpt lat="43.3114069" lon="13.131303"><ele>541.0</ele><time>2026-03-29T10:31:50.449Z</time></trkpt><trkpt lat="43.3113123" lon="13.1313113"><ele>541.0</ele><time>2026-03-29T10:31:51.369Z</time></trkpt><trkpt lat="43.3112105" lon="13.1313111"><ele>541.0</ele><time>2026-03-29T10:31:52.426Z</time></trkpt><trkpt lat="43.3111006" lon="13.1313023"><ele>543.4</ele><time>2026-03-29T10:31:53.418Z</time></trkpt><trkpt lat="43.3109991" lon="13.1313089"><ele>545.8</ele><time>2026-03-29T10:31:54.437Z</time></trkpt><trkpt lat="43.3108893" lon="13.1313503"><ele>548.1999999999999</ele><time>2026-03-29T10:31:55.418Z</time></trkpt><trkpt lat="43.3107783" lon="13.1314103"><ele>550.6</ele><time>2026-03-29T10:31:56.423Z</time></trkpt><trkpt lat="43.3106826" lon="13.1314713"><ele>553.0</ele><time>2026-03-29T10:31:57.418Z</time></trkpt><trkpt lat="43.3105983" lon="13.1315253"><ele>558.0</ele><time>2026-03-29T10:31:58.442Z</time></trkpt><trkpt lat="43.3105331" lon="13.1315862"><ele>563.0</ele><time>2026-03-29T10:31:59.435Z</time></trkpt><trkpt lat="43.3104832" lon="13.131684"><ele>568.0</ele><time>2026-03-29T10:32:00.43Z</time></trkpt><trkpt lat="43.3104716" lon="13.1318261"><ele>573.0</ele><time>2026-03-29T10:32:01.396Z</time></trkpt><trkpt lat="43.3104791" lon="13.1319753"><ele>578.0</ele><time>2026-03-29T10:32:02.426Z</time></trkpt><trkpt lat="43.3104799" lon="13.1321244"><ele>578.0</ele><time>2026-03-29T10:32:03.448Z</time></trkpt><trkpt lat="43.3104376" lon="13.1322667"><ele>578.0</ele><time>2026-03-29T10:32:04.433Z</time></trkpt><trkpt lat="43.3103897" lon="13.1324013"><ele>578.0</ele><time>2026-03-29T10:32:05.415Z</time></trkpt><trkpt lat="43.3103428" lon="13.1325391"><ele>578.0</ele><time>2026-03-29T10:32:06.414Z</time></trkpt><trkpt lat="43.3103033" lon="13.1326714"><ele>578.0</ele><time>2026-03-29T10:32:07.375Z</time></trkpt><trkpt lat="43.3102705" lon="13.1328122"><ele>577.3333333333333</ele><time>2026-03-29T10:32:08.374Z</time></trkpt><trkpt lat="43.310224" lon="13.1329152"><ele>576.6666666666666</ele><time>2026-03-29T10:32:09.372Z</time></trkpt><trkpt lat="43.3101828" lon="13.1329983"><ele>576.0</ele><time>2026-03-29T10:32:10.372Z</time></trkpt><trkpt lat="43.3101362" lon="13.1330851"><ele>575.3333333333334</ele><time>2026-03-29T10:32:11.404Z</time></trkpt><trkpt lat="43.3100924" lon="13.1331681"><ele>574.6666666666667</ele><time>2026-03-29T10:32:12.397Z</time></trkpt><trkpt lat="43.3100465" lon="13.1332475"><ele>574.0</ele><time>2026-03-29T10:32:13.421Z</time></trkpt><trkpt lat="43.3099484" lon="13.1333342"><ele>571.0</ele><time>2026-03-29T10:32:15.425Z</time></trkpt><trkpt lat="43.3098632" lon="13.1333519"><ele>568.0</ele><time>2026-03-29T10:32:16.413Z</time></trkpt><trkpt lat="43.3097602" lon="13.1333375"><ele>565.0</ele><time>2026-03-29T10:32:17.426Z</time></trkpt><trkpt lat="43.3096577" lon="13.1333049"><ele>562.0</ele><time>2026-03-29T10:32:18.436Z</time></trkpt><trkpt lat="43.3095546" lon="13.1332799"><ele>559.0</ele><time>2026-03-29T10:32:19.445Z</time></trkpt><trkpt lat="43.3094605" lon="13.1332496"><ele>558.6</ele><time>2026-03-29T10:32:20.435Z</time></trkpt><trkpt lat="43.3093799" lon="13.1332335"><ele>558.2</ele><time>2026-03-29T10:32:21.45Z</time></trkpt><trkpt lat="43.3092685" lon="13.1331854"><ele>557.8000000000001</ele><time>2026-03-29T10:32:23.419Z</time></trkpt><trkpt lat="43.3091613" lon="13.133124"><ele>557.4</ele><time>2026-03-29T10:32:25.429Z</time></trkpt><trkpt lat="43.3091064" lon="13.1330743"><ele>557.0</ele><time>2026-03-29T10:32:26.447Z</time></trkpt><trkpt lat="43.3090431" lon="13.1330261"><ele>559.5</ele><time>2026-03-29T10:32:27.438Z</time></trkpt><trkpt lat="43.3089768" lon="13.1329741"><ele>562.0</ele><time>2026-03-29T10:32:28.44Z</time></trkpt><trkpt lat="43.3089038" lon="13.1329267"><ele>564.5</ele><time>2026-03-29T10:32:29.439Z</time></trkpt><trkpt lat="43.3088381" lon="13.1328809"><ele>567.0</ele><time>2026-03-29T10:32:30.438Z</time></trkpt><trkpt lat="43.3087766" lon="13.1328348"><ele>569.5</ele><time>2026-03-29T10:32:31.431Z</time></trkpt><trkpt lat="43.3087142" lon="13.1327693"><ele>572.0</ele><time>2026-03-29T10:32:32.398Z</time></trkpt><trkpt lat="43.3086444" lon="13.1326947"><ele>572.0</ele><time>2026-03-29T10:32:33.41Z</time></trkpt><trkpt lat="43.308579" lon="13.1326239"><ele>572.0</ele><time>2026-03-29T10:32:34.429Z</time></trkpt><trkpt lat="43.3085183" lon="13.1325558"><ele>572.0</ele><time>2026-03-29T10:32:35.441Z</time></trkpt><trkpt lat="43.3084556" lon="13.1324853"><ele>572.0</ele><time>2026-03-29T10:32:36.428Z</time></trkpt><trkpt lat="43.3083897" lon="13.1324354"><ele>572.0</ele><time>2026-03-29T10:32:37.437Z</time></trkpt><trkpt lat="43.3083104" lon="13.1324047"><ele>572.0</ele><time>2026-03-29T10:32:38.427Z</time></trkpt><trkpt lat="43.3082083" lon="13.1324141"><ele>572.0</ele><time>2026-03-29T10:32:39.434Z</time></trkpt><trkpt lat="43.3081159" lon="13.1324257"><ele>572.0</ele><time>2026-03-29T10:32:40.418Z</time></trkpt><trkpt lat="43.3080356" lon="13.1324307"><ele>572.0</ele><time>2026-03-29T10:32:41.413Z</time></trkpt><trkpt lat="43.3079498" lon="13.1324242"><ele>572.0</ele><time>2026-03-29T10:32:42.422Z</time></trkpt><trkpt lat="43.3078566" lon="13.1324296"><ele>572.0</ele><time>2026-03-29T10:32:43.432Z</time></trkpt><trkpt lat="43.307755" lon="13.1324672"><ele>571.8333333333333</ele><time>2026-03-29T10:32:44.445Z</time></trkpt><trkpt lat="43.3076711" lon="13.1325184"><ele>571.6666666666666</ele><time>2026-03-29T10:32:45.425Z</time></trkpt><trkpt lat="43.3075984" lon="13.1325628"><ele>571.5</ele><time>2026-03-29T10:32:46.444Z</time></trkpt><trkpt lat="43.307527" lon="13.1325889"><ele>571.3333333333334</ele><time>2026-03-29T10:32:47.424Z</time></trkpt><trkpt lat="43.3074485" lon="13.1326024"><ele>571.1666666666667</ele><time>2026-03-29T10:32:48.417Z</time></trkpt><trkpt lat="43.3073366" lon="13.1326038"><ele>571.0</ele><time>2026-03-29T10:32:49.433Z</time></trkpt><trkpt lat="43.3071978" lon="13.1326056"><ele>577.0</ele><time>2026-03-29T10:32:50.432Z</time></trkpt><trkpt lat="43.3070836" lon="13.132609"><ele>583.0</ele><time>2026-03-29T10:32:51.379Z</time></trkpt><trkpt lat="43.3069978" lon="13.1326594"><ele>589.0</ele><time>2026-03-29T10:32:52.381Z</time></trkpt><trkpt lat="43.3069219" lon="13.1327676"><ele>595.0</ele><time>2026-03-29T10:32:53.412Z</time></trkpt><trkpt lat="43.3068636" lon="13.132886"><ele>601.0</ele><time>2026-03-29T10:32:54.425Z</time></trkpt><trkpt lat="43.3068184" lon="13.132985"><ele>601.0</ele><time>2026-03-29T10:32:55.428Z</time></trkpt><trkpt lat="43.3067712" lon="13.1330761"><ele>601.0</ele><time>2026-03-29T10:32:56.425Z</time></trkpt><trkpt lat="43.3067268" lon="13.133168"><ele>601.0</ele><time>2026-03-29T10:32:57.412Z</time></trkpt><trkpt lat="43.3066962" lon="13.1332739"><ele>601.0</ele><time>2026-03-29T10:32:58.449Z</time></trkpt><trkpt lat="43.3066914" lon="13.1333722"><ele>601.0</ele><time>2026-03-29T10:32:59.415Z</time></trkpt><trkpt lat="43.3066969" lon="13.133475"><ele>601.0</ele><time>2026-03-29T10:33:00.372Z</time></trkpt><trkpt lat="43.3067136" lon="13.1335854"><ele>597.6</ele><time>2026-03-29T10:33:01.412Z</time></trkpt><trkpt lat="43.306731" lon="13.1337269"><ele>594.2</ele><time>2026-03-29T10:33:02.425Z</time></trkpt><trkpt lat="43.3067315" lon="13.1338713"><ele>590.8</ele><time>2026-03-29T10:33:03.422Z</time></trkpt><trkpt lat="43.3067004" lon="13.1340038"><ele>587.4</ele><time>2026-03-29T10:33:04.432Z</time></trkpt><trkpt lat="43.3066647" lon="13.1341391"><ele>584.0</ele><time>2026-03-29T10:33:05.427Z</time></trkpt><trkpt lat="43.3066328" lon="13.1342655"><ele>583.6</ele><time>2026-03-29T10:33:06.417Z</time></trkpt><trkpt lat="43.3065888" lon="13.1343833"><ele>583.2</ele><time>2026-03-29T10:33:07.432Z</time></trkpt><trkpt lat="43.3065393" lon="13.1345099"><ele>582.8000000000001</ele><time>2026-03-29T10:33:08.416Z</time></trkpt><trkpt lat="43.3064771" lon="13.1346461"><ele>582.4</ele><time>2026-03-29T10:33:09.403Z</time></trkpt><trkpt lat="43.3064083" lon="13.1347838"><ele>582.0</ele><time>2026-03-29T10:33:10.44Z</time></trkpt><trkpt lat="43.3063398" lon="13.1348961"><ele>582.0</ele><time>2026-03-29T10:33:11.381Z</time></trkpt><trkpt lat="43.3062745" lon="13.1349839"><ele>582.0</ele><time>2026-03-29T10:33:12.415Z</time></trkpt><trkpt lat="43.3061958" lon="13.1350713"><ele>582.0</ele><time>2026-03-29T10:33:13.414Z</time></trkpt><trkpt lat="43.3061206" lon="13.1351474"><ele>582.0</ele><time>2026-03-29T10:33:14.416Z</time></trkpt><trkpt lat="43.3060435" lon="13.1352225"><ele>582.0</ele><time>2026-03-29T10:33:15.417Z</time></trkpt><trkpt lat="43.3059636" lon="13.1352929"><ele>582.0</ele><time>2026-03-29T10:33:16.425Z</time></trkpt><trkpt lat="43.3058856" lon="13.1353593"><ele>582.0</ele><time>2026-03-29T10:33:17.432Z</time></trkpt><trkpt lat="43.30581" lon="13.1354113"><ele>582.0</ele><time>2026-03-29T10:33:18.41Z</time></trkpt><trkpt lat="43.3057352" lon="13.1354496"><ele>582.0</ele><time>2026-03-29T10:33:19.436Z</time></trkpt><trkpt lat="43.3056657" lon="13.1354582"><ele>582.0</ele><time>2026-03-29T10:33:20.448Z</time></trkpt><trkpt lat="43.3055993" lon="13.1354237"><ele>582.0</ele><time>2026-03-29T10:33:21.43Z</time></trkpt><trkpt lat="43.3055493" lon="13.1353439"><ele>583.6</ele><time>2026-03-29T10:33:22.428Z</time></trkpt><trkpt lat="43.3055155" lon="13.135241"><ele>585.2</ele><time>2026-03-29T10:33:23.447Z</time></trkpt><trkpt lat="43.3054948" lon="13.1351207"><ele>586.8</ele><time>2026-03-29T10:33:24.439Z</time></trkpt><trkpt lat="43.3054671" lon="13.1349972"><ele>588.4</ele><time>2026-03-29T10:33:25.441Z</time></trkpt><trkpt lat="43.3054255" lon="13.1348643"><ele>590.0</ele><time>2026-03-29T10:33:26.387Z</time></trkpt><trkpt lat="43.3053775" lon="13.1347215"><ele>590.0</ele><time>2026-03-29T10:33:27.415Z</time></trkpt><trkpt lat="43.305337" lon="13.1345986"><ele>590.0</ele><time>2026-03-29T10:33:28.418Z</time></trkpt><trkpt lat="43.3052942" lon="13.1344907"><ele>590.0</ele><time>2026-03-29T10:33:29.432Z</time></trkpt><trkpt lat="43.3052444" lon="13.1344041"><ele>590.0</ele><time>2026-03-29T10:33:30.413Z</time></trkpt><trkpt lat="43.305189" lon="13.1343346"><ele>590.0</ele><time>2026-03-29T10:33:31.405Z</time></trkpt><trkpt lat="43.3051174" lon="13.1342989"><ele>590.0</ele><time>2026-03-29T10:33:32.431Z</time></trkpt><trkpt lat="43.3050177" lon="13.1342857"><ele>590.0</ele><time>2026-03-29T10:33:33.428Z</time></trkpt><trkpt lat="43.3049228" lon="13.1342735"><ele>590.0</ele><time>2026-03-29T10:33:34.434Z</time></trkpt><trkpt lat="43.3048385" lon="13.1342694"><ele>590.0</ele><time>2026-03-29T10:33:35.439Z</time></trkpt><trkpt lat="43.3047538" lon="13.134293"><ele>590.0</ele><time>2026-03-29T10:33:36.431Z</time></trkpt><trkpt lat="43.3046612" lon="13.1343393"><ele>590.0</ele><time>2026-03-29T10:33:37.407Z</time></trkpt><trkpt lat="43.304559" lon="13.1344039"><ele>591.4</ele><time>2026-03-29T10:33:38.373Z</time></trkpt><trkpt lat="43.3044606" lon="13.1344729"><ele>592.8</ele><time>2026-03-29T10:33:39.414Z</time></trkpt><trkpt lat="43.3043744" lon="13.1345439"><ele>594.2</ele><time>2026-03-29T10:33:40.453Z</time></trkpt><trkpt lat="43.304315" lon="13.1346584"><ele>595.6</ele><time>2026-03-29T10:33:41.442Z</time></trkpt><trkpt lat="43.3042662" lon="13.1347822"><ele>597.0</ele><time>2026-03-29T10:33:42.426Z</time></trkpt><trkpt lat="43.3042211" lon="13.1348961"><ele>593.0</ele><time>2026-03-29T10:33:43.439Z</time></trkpt><trkpt lat="43.3041726" lon="13.1350029"><ele>589.0</ele><time>2026-03-29T10:33:44.399Z</time></trkpt><trkpt lat="43.3041091" lon="13.1350983"><ele>585.0</ele><time>2026-03-29T10:33:45.42Z</time></trkpt><trkpt lat="43.3040534" lon="13.1351875"><ele>581.0</ele><time>2026-03-29T10:33:46.408Z</time></trkpt><trkpt lat="43.3039962" lon="13.1352839"><ele>577.0</ele><time>2026-03-29T10:33:48.422Z</time></trkpt><trkpt lat="43.3039343" lon="13.1353721"><ele>579.0</ele><time>2026-03-29T10:33:51.386Z</time></trkpt><trkpt lat="43.3038862" lon="13.1354458"><ele>581.0</ele><time>2026-03-29T10:33:54.417Z</time></trkpt><trkpt lat="43.3038357" lon="13.1355466"><ele>583.0</ele><time>2026-03-29T10:33:57.426Z</time></trkpt><trkpt lat="43.303796" lon="13.1356622"><ele>585.0</ele><time>2026-03-29T10:33:59.432Z</time></trkpt><trkpt lat="43.3037584" lon="13.1357847"><ele>587.0</ele><time>2026-03-29T10:34:01.399Z</time></trkpt><trkpt lat="43.3036936" lon="13.1359056"><ele>587.0</ele><time>2026-03-29T10:34:03.433Z</time></trkpt><trkpt lat="43.303601" lon="13.1360312"><ele>587.0</ele><time>2026-03-29T10:34:05.433Z</time></trkpt><trkpt lat="43.3035393" lon="13.1360885"><ele>587.0</ele><time>2026-03-29T10:34:06.436Z</time></trkpt><trkpt lat="43.3034757" lon="13.1361409"><ele>587.0</ele><time>2026-03-29T10:34:07.438Z</time></trkpt><trkpt lat="43.3034165" lon="13.136186"><ele>587.0</ele><time>2026-03-29T10:34:08.45Z</time></trkpt><trkpt lat="43.3033565" lon="13.1362295"><ele>587.0</ele><time>2026-03-29T10:34:09.431Z</time></trkpt><trkpt lat="43.303295" lon="13.1362687"><ele>587.0</ele><time>2026-03-29T10:34:10.422Z</time></trkpt><trkpt lat="43.3031845" lon="13.1363286"><ele>587.0</ele><time>2026-03-29T10:34:12.43Z</time></trkpt><trkpt lat="43.303121" lon="13.1363276"><ele>587.0</ele><time>2026-03-29T10:34:13.434Z</time></trkpt><trkpt lat="43.3030518" lon="13.1363124"><ele>587.0</ele><time>2026-03-29T10:34:14.435Z</time></trkpt><trkpt lat="43.3029772" lon="13.1362866"><ele>587.0</ele><time>2026-03-29T10:34:15.369Z</time></trkpt><trkpt lat="43.3029048" lon="13.1362495"><ele>587.0</ele><time>2026-03-29T10:34:16.423Z</time></trkpt><trkpt lat="43.3028339" lon="13.1362124"><ele>587.8000000000001</ele><time>2026-03-29T10:34:17.43Z</time></trkpt><trkpt lat="43.302762" lon="13.1361764"><ele>588.6</ele><time>2026-03-29T10:34:18.441Z</time></trkpt><trkpt lat="43.3026904" lon="13.1361435"><ele>589.4000000000001</ele><time>2026-03-29T10:34:19.451Z</time></trkpt><trkpt lat="43.3026232" lon="13.1361154"><ele>590.2</ele><time>2026-03-29T10:34:20.393Z</time></trkpt><trkpt lat="43.3025105" lon="13.1360731"><ele>591.0</ele><time>2026-03-29T10:34:22.436Z</time></trkpt><trkpt lat="43.3023934" lon="13.1360509"><ele>591.0</ele><time>2026-03-29T10:34:24.432Z</time></trkpt><trkpt lat="43.3022842" lon="13.1360323"><ele>591.0</ele><time>2026-03-29T10:34:26.448Z</time></trkpt><trkpt lat="43.3022091" lon="13.1360348"><ele>591.0</ele><time>2026-03-29T10:34:29.444Z</time></trkpt><trkpt lat="43.3021427" lon="13.1360397"><ele>591.0</ele><time>2026-03-29T10:34:33.389Z</time></trkpt><trkpt lat="43.3020654" lon="13.1360273"><ele>591.0</ele><time>2026-03-29T10:34:37.422Z</time></trkpt><trkpt lat="43.3021405" lon="13.1360658"><ele>591.0</ele><time>2026-03-29T10:40:43.435Z</time></trkpt><trkpt lat="43.3022653" lon="13.1360612"><ele>591.0</ele><time>2026-03-29T10:40:45.451Z</time></trkpt><trkpt lat="43.302342" lon="13.1360633"><ele>591.0</ele><time>2026-03-29T10:40:46.417Z</time></trkpt><trkpt lat="43.3024059" lon="13.1360712"><ele>591.0</ele><time>2026-03-29T10:40:47.373Z</time></trkpt><trkpt lat="43.302482" lon="13.1360744"><ele>591.0</ele><time>2026-03-29T10:40:50.37Z</time></trkpt><trkpt lat="43.3026056" lon="13.1360841"><ele>591.0</ele><time>2026-03-29T10:41:05.389Z</time></trkpt><trkpt lat="43.3026767" lon="13.1361223"><ele>591.0</ele><time>2026-03-29T10:41:06.404Z</time></trkpt><trkpt lat="43.3027597" lon="13.1361648"><ele>591.0</ele><time>2026-03-29T10:41:07.402Z</time></trkpt><trkpt lat="43.3028571" lon="13.1362162"><ele>591.0</ele><time>2026-03-29T10:41:08.381Z</time></trkpt><trkpt lat="43.3029424" lon="13.1362502"><ele>591.0</ele><time>2026-03-29T10:41:09.389Z</time></trkpt><trkpt lat="43.3030397" lon="13.1362741"><ele>591.0</ele><time>2026-03-29T10:41:10.383Z</time></trkpt><trkpt lat="43.3031241" lon="13.1363"><ele>591.0</ele><time>2026-03-29T10:41:11.372Z</time></trkpt><trkpt lat="43.3032168" lon="13.1362975"><ele>590.2</ele><time>2026-03-29T10:41:13.392Z</time></trkpt><trkpt lat="43.3033036" lon="13.1362544"><ele>589.4000000000001</ele><time>2026-03-29T10:41:37.404Z</time></trkpt><trkpt lat="43.303407" lon="13.1361974"><ele>588.6</ele><time>2026-03-29T10:41:39.433Z</time></trkpt><trkpt lat="43.303478" lon="13.1361415"><ele>587.8000000000001</ele><time>2026-03-29T10:41:40.419Z</time></trkpt><trkpt lat="43.3035479" lon="13.1360698"><ele>587.0</ele><time>2026-03-29T10:41:41.415Z</time></trkpt><trkpt lat="43.3036364" lon="13.1359584"><ele>587.0</ele><time>2026-03-29T10:41:42.426Z</time></trkpt><trkpt lat="43.3037093" lon="13.135848"><ele>587.0</ele><time>2026-03-29T10:41:43.434Z</time></trkpt><trkpt lat="43.3037901" lon="13.1357327"><ele>587.0</ele><time>2026-03-29T10:41:44.408Z</time></trkpt><trkpt lat="43.3038627" lon="13.1356278"><ele>587.0</ele><time>2026-03-29T10:41:45.407Z</time></trkpt><trkpt lat="43.3039294" lon="13.1355303"><ele>587.0</ele><time>2026-03-29T10:41:46.38Z</time></trkpt><trkpt lat="43.3039982" lon="13.1354518"><ele>585.0</ele><time>2026-03-29T10:41:47.402Z</time></trkpt><trkpt lat="43.3040714" lon="13.135373"><ele>583.0</ele><time>2026-03-29T10:41:48.428Z</time></trkpt><trkpt lat="43.3041468" lon="13.1353023"><ele>581.0</ele><time>2026-03-29T10:41:49.406Z</time></trkpt><trkpt lat="43.3042317" lon="13.1352469"><ele>579.0</ele><time>2026-03-29T10:41:50.367Z</time></trkpt><trkpt lat="43.3043236" lon="13.1352123"><ele>577.0</ele><time>2026-03-29T10:41:51.416Z</time></trkpt><trkpt lat="43.3044314" lon="13.1352272"><ele>577.0</ele><time>2026-03-29T10:41:52.403Z</time></trkpt><trkpt lat="43.3045037" lon="13.1352986"><ele>577.0</ele><time>2026-03-29T10:41:53.38Z</time></trkpt><trkpt lat="43.304561" lon="13.1353885"><ele>577.0</ele><time>2026-03-29T10:41:54.418Z</time></trkpt><trkpt lat="43.3045727" lon="13.1355107"><ele>577.0</ele><time>2026-03-29T10:41:55.412Z</time></trkpt><trkpt lat="43.3045608" lon="13.1356492"><ele>577.0</ele><time>2026-03-29T10:41:56.427Z</time></trkpt><trkpt lat="43.3045499" lon="13.1358124"><ele>572.75</ele><time>2026-03-29T10:41:57.384Z</time></trkpt><trkpt lat="43.3045307" lon="13.1360187"><ele>568.5</ele><time>2026-03-29T10:41:58.384Z</time></trkpt><trkpt lat="43.3045085" lon="13.1362233"><ele>564.25</ele><time>2026-03-29T10:41:59.427Z</time></trkpt><trkpt lat="43.3044848" lon="13.1364119"><ele>560.0</ele><time>2026-03-29T10:42:00.424Z</time></trkpt><trkpt lat="43.3044529" lon="13.1365566"><ele>557.5</ele><time>2026-03-29T10:42:01.375Z</time></trkpt><trkpt lat="43.3043873" lon="13.1366857"><ele>555.0</ele><time>2026-03-29T10:42:02.395Z</time></trkpt><trkpt lat="43.3042779" lon="13.1368054"><ele>552.5</ele><time>2026-03-29T10:42:03.396Z</time></trkpt><trkpt lat="43.3041447" lon="13.1369467"><ele>550.0</ele><time>2026-03-29T10:42:04.418Z</time></trkpt><trkpt lat="43.3040127" lon="13.1370703"><ele>553.25</ele><time>2026-03-29T10:42:05.414Z</time></trkpt><trkpt lat="43.3038856" lon="13.1371718"><ele>556.5</ele><time>2026-03-29T10:42:06.424Z</time></trkpt><trkpt lat="43.3037745" lon="13.1372362"><ele>559.75</ele><time>2026-03-29T10:42:07.403Z</time></trkpt><trkpt lat="43.3036795" lon="13.1372694"><ele>563.0</ele><time>2026-03-29T10:42:08.404Z</time></trkpt><trkpt lat="43.3035885" lon="13.1373127"><ele>557.75</ele><time>2026-03-29T10:42:09.401Z</time></trkpt><trkpt lat="43.3035219" lon="13.1373954"><ele>552.5</ele><time>2026-03-29T10:42:10.399Z</time></trkpt><trkpt lat="43.3034615" lon="13.1375563"><ele>547.25</ele><time>2026-03-29T10:42:11.387Z</time></trkpt><trkpt lat="43.3033833" lon="13.1377638"><ele>542.0</ele><time>2026-03-29T10:42:12.417Z</time></trkpt><trkpt lat="43.3033142" lon="13.1379946"><ele>537.3333333333333</ele><time>2026-03-29T10:42:13.398Z</time></trkpt><trkpt lat="43.3032493" lon="13.1382243"><ele>532.6666666666666</ele><time>2026-03-29T10:42:14.408Z</time></trkpt><trkpt lat="43.3031809" lon="13.1384683"><ele>528.0</ele><time>2026-03-29T10:42:15.396Z</time></trkpt><trkpt lat="43.3031175" lon="13.1387216"><ele>527.0</ele><time>2026-03-29T10:42:16.412Z</time></trkpt><trkpt lat="43.30306" lon="13.1389646"><ele>526.0</ele><time>2026-03-29T10:42:17.407Z</time></trkpt><trkpt lat="43.3030113" lon="13.1391899"><ele>525.0</ele><time>2026-03-29T10:42:18.397Z</time></trkpt><trkpt lat="43.3029618" lon="13.1393855"><ele>523.0</ele><time>2026-03-29T10:42:19.401Z</time></trkpt><trkpt lat="43.3028804" lon="13.1395291"><ele>521.0</ele><time>2026-03-29T10:42:20.419Z</time></trkpt><trkpt lat="43.302766" lon="13.1396565"><ele>519.0</ele><time>2026-03-29T10:42:21.415Z</time></trkpt><trkpt lat="43.3026243" lon="13.1397395"><ele>517.0</ele><time>2026-03-29T10:42:22.418Z</time></trkpt><trkpt lat="43.3024722" lon="13.1398185"><ele>516.6666666666667</ele><time>2026-03-29T10:42:23.442Z</time></trkpt><trkpt lat="43.3023125" lon="13.1399103"><ele>516.3333333333334</ele><time>2026-03-29T10:42:24.413Z</time></trkpt><trkpt lat="43.3021476" lon="13.1400248"><ele>516.0</ele><time>2026-03-29T10:42:25.395Z</time></trkpt><trkpt lat="43.3019905" lon="13.1401537"><ele>511.33333333333337</ele><time>2026-03-29T10:42:26.424Z</time></trkpt><trkpt lat="43.301856" lon="13.1402869"><ele>506.6666666666667</ele><time>2026-03-29T10:42:27.436Z</time></trkpt><trkpt lat="43.3017509" lon="13.1404351"><ele>502.0</ele><time>2026-03-29T10:42:28.423Z</time></trkpt><trkpt lat="43.3016706" lon="13.1405871"><ele>501.75</ele><time>2026-03-29T10:42:29.401Z</time></trkpt><trkpt lat="43.301627" lon="13.1407715"><ele>501.5</ele><time>2026-03-29T10:42:30.418Z</time></trkpt><trkpt lat="43.3016059" lon="13.1409654"><ele>501.25</ele><time>2026-03-29T10:42:31.424Z</time></trkpt><trkpt lat="43.3015876" lon="13.1411672"><ele>501.0</ele><time>2026-03-29T10:42:32.403Z</time></trkpt><trkpt lat="43.3015611" lon="13.1413805"><ele>500.0</ele><time>2026-03-29T10:42:33.418Z</time></trkpt><trkpt lat="43.3015326" lon="13.1416142"><ele>499.0</ele><time>2026-03-29T10:42:34.429Z</time></trkpt><trkpt lat="43.3015077" lon="13.1418561"><ele>498.0</ele><time>2026-03-29T10:42:35.418Z</time></trkpt><trkpt lat="43.3014781" lon="13.1420861"><ele>498.0</ele><time>2026-03-29T10:42:36.419Z</time></trkpt><trkpt lat="43.3014545" lon="13.1422994"><ele>498.0</ele><time>2026-03-29T10:42:37.415Z</time></trkpt><trkpt lat="43.3014344" lon="13.1425103"><ele>498.0</ele><time>2026-03-29T10:42:38.423Z</time></trkpt><trkpt lat="43.3014149" lon="13.1427169"><ele>493.33333333333337</ele><time>2026-03-29T10:42:39.424Z</time></trkpt><trkpt lat="43.3013959" lon="13.1429272"><ele>488.6666666666667</ele><time>2026-03-29T10:42:40.431Z</time></trkpt><trkpt lat="43.3013767" lon="13.1431582"><ele>484.0</ele><time>2026-03-29T10:42:41.432Z</time></trkpt><trkpt lat="43.3013548" lon="13.1433839"><ele>482.25</ele><time>2026-03-29T10:42:42.443Z</time></trkpt><trkpt lat="43.3013334" lon="13.1435933"><ele>480.5</ele><time>2026-03-29T10:42:43.398Z</time></trkpt><trkpt lat="43.3013126" lon="13.1437843"><ele>478.75</ele><time>2026-03-29T10:42:44.37Z</time></trkpt><trkpt lat="43.3012913" lon="13.1439633"><ele>477.0</ele><time>2026-03-29T10:42:45.403Z</time></trkpt><trkpt lat="43.30127" lon="13.1441407"><ele>476.0</ele><time>2026-03-29T10:42:46.421Z</time></trkpt><trkpt lat="43.3012548" lon="13.1443113"><ele>475.00000000000006</ele><time>2026-03-29T10:42:47.379Z</time></trkpt><trkpt lat="43.3012396" lon="13.1444695"><ele>474.00000000000006</ele><time>2026-03-29T10:42:48.397Z</time></trkpt><trkpt lat="43.3012267" lon="13.144603"><ele>473.0</ele><time>2026-03-29T10:42:49.383Z</time></trkpt><trkpt lat="43.3012052" lon="13.1446949"><ele>472.0</ele><time>2026-03-29T10:42:50.405Z</time></trkpt><trkpt lat="43.3011102" lon="13.1447384"><ele>472.00000000000006</ele><time>2026-03-29T10:42:52.433Z</time></trkpt><trkpt lat="43.301058" lon="13.1445998"><ele>472.0</ele><time>2026-03-29T10:42:54.419Z</time></trkpt><trkpt lat="43.3010122" lon="13.1445079"><ele>472.0</ele><time>2026-03-29T10:42:55.428Z</time></trkpt><trkpt lat="43.3009586" lon="13.1444286"><ele>472.0</ele><time>2026-03-29T10:42:56.43Z</time></trkpt><trkpt lat="43.3008997" lon="13.1443548"><ele>472.00000000000006</ele><time>2026-03-29T10:42:57.404Z</time></trkpt><trkpt lat="43.300827" lon="13.1442929"><ele>472.0</ele><time>2026-03-29T10:42:58.412Z</time></trkpt><trkpt lat="43.3007496" lon="13.1442454"><ele>472.0</ele><time>2026-03-29T10:42:59.439Z</time></trkpt><trkpt lat="43.3006579" lon="13.1442119"><ele>472.00000000000006</ele><time>2026-03-29T10:43:00.423Z</time></trkpt><trkpt lat="43.3005662" lon="13.1442088"><ele>472.00000000000006</ele><time>2026-03-29T10:43:01.447Z</time></trkpt><trkpt lat="43.300462" lon="13.1442206"><ele>472.0</ele><time>2026-03-29T10:43:02.433Z</time></trkpt><trkpt lat="43.3003602" lon="13.1442433"><ele>472.0</ele><time>2026-03-29T10:43:03.413Z</time></trkpt><trkpt lat="43.3002502" lon="13.1442814"><ele>471.5</ele><time>2026-03-29T10:43:04.427Z</time></trkpt><trkpt lat="43.3001402" lon="13.1443255"><ele>471.0</ele><time>2026-03-29T10:43:05.424Z</time></trkpt><trkpt lat="43.300022" lon="13.1443659"><ele>470.5</ele><time>2026-03-29T10:43:06.42Z</time></trkpt><trkpt lat="43.2999023" lon="13.1444122"><ele>470.0</ele><time>2026-03-29T10:43:07.447Z</time></trkpt><trkpt lat="43.2997789" lon="13.1444622"><ele>472.25</ele><time>2026-03-29T10:43:08.436Z</time></trkpt><trkpt lat="43.2996556" lon="13.144509"><ele>474.5</ele><time>2026-03-29T10:43:09.425Z</time></trkpt><trkpt lat="43.2995272" lon="13.1445474"><ele>476.75</ele><time>2026-03-29T10:43:10.428Z</time></trkpt><trkpt lat="43.2994005" lon="13.1445583"><ele>479.0</ele><time>2026-03-29T10:43:11.434Z</time></trkpt><trkpt lat="43.29928" lon="13.144528"><ele>479.0</ele><time>2026-03-29T10:43:12.433Z</time></trkpt><trkpt lat="43.2991639" lon="13.1444559"><ele>479.0</ele><time>2026-03-29T10:43:13.435Z</time></trkpt><trkpt lat="43.2990611" lon="13.1443632"><ele>479.0</ele><time>2026-03-29T10:43:14.423Z</time></trkpt><trkpt lat="43.2989562" lon="13.1442644"><ele>479.0</ele><time>2026-03-29T10:43:15.431Z</time></trkpt><trkpt lat="43.298851" lon="13.1441621"><ele>481.0</ele><time>2026-03-29T10:43:16.383Z</time></trkpt><trkpt lat="43.2987454" lon="13.1440653"><ele>483.0</ele><time>2026-03-29T10:43:17.434Z</time></trkpt><trkpt lat="43.2986396" lon="13.1439706"><ele>485.0</ele><time>2026-03-29T10:43:18.422Z</time></trkpt><trkpt lat="43.2985367" lon="13.1438741"><ele>487.0</ele><time>2026-03-29T10:43:19.431Z</time></trkpt><trkpt lat="43.2984419" lon="13.1437856"><ele>487.0</ele><time>2026-03-29T10:43:20.424Z</time></trkpt><trkpt lat="43.2983566" lon="13.1437081"><ele>487.00000000000006</ele><time>2026-03-29T10:43:21.424Z</time></trkpt><trkpt lat="43.2982792" lon="13.1436385"><ele>487.00000000000006</ele><time>2026-03-29T10:43:22.431Z</time></trkpt><trkpt lat="43.2982004" lon="13.143565"><ele>487.0</ele><time>2026-03-29T10:43:23.431Z</time></trkpt><trkpt lat="43.298123" lon="13.1434892"><ele>487.0</ele><time>2026-03-29T10:43:24.422Z</time></trkpt><trkpt lat="43.2980459" lon="13.1434188"><ele>487.8</ele><time>2026-03-29T10:43:25.434Z</time></trkpt><trkpt lat="43.2979674" lon="13.1433444"><ele>488.6</ele><time>2026-03-29T10:43:26.439Z</time></trkpt><trkpt lat="43.2978912" lon="13.1432729"><ele>489.40000000000003</ele><time>2026-03-29T10:43:27.43Z</time></trkpt><trkpt lat="43.2978188" lon="13.143204"><ele>490.20000000000005</ele><time>2026-03-29T10:43:28.433Z</time></trkpt><trkpt lat="43.2977449" lon="13.1431354"><ele>491.0</ele><time>2026-03-29T10:43:29.434Z</time></trkpt><trkpt lat="43.2976709" lon="13.1430684"><ele>491.8333333333333</ele><time>2026-03-29T10:43:30.427Z</time></trkpt><trkpt lat="43.2975996" lon="13.143"><ele>492.66666666666663</ele><time>2026-03-29T10:43:31.429Z</time></trkpt><trkpt lat="43.2975294" lon="13.142932"><ele>493.5</ele><time>2026-03-29T10:43:32.425Z</time></trkpt><trkpt lat="43.2974585" lon="13.1428667"><ele>494.33333333333337</ele><time>2026-03-29T10:43:33.438Z</time></trkpt><trkpt lat="43.2973915" lon="13.1428025"><ele>495.1666666666667</ele><time>2026-03-29T10:43:34.434Z</time></trkpt><trkpt lat="43.2973258" lon="13.1427396"><ele>496.0</ele><time>2026-03-29T10:43:35.456Z</time></trkpt><trkpt lat="43.2972575" lon="13.1426776"><ele>497.00000000000006</ele><time>2026-03-29T10:43:36.409Z</time></trkpt><trkpt lat="43.2971849" lon="13.142624"><ele>498.0</ele><time>2026-03-29T10:43:37.422Z</time></trkpt><trkpt lat="43.2971111" lon="13.1425848"><ele>499.0</ele><time>2026-03-29T10:43:38.431Z</time></trkpt><trkpt lat="43.29703" lon="13.142565"><ele>500.0</ele><time>2026-03-29T10:43:39.437Z</time></trkpt><trkpt lat="43.2969516" lon="13.1425721"><ele>501.00000000000006</ele><time>2026-03-29T10:43:40.446Z</time></trkpt><trkpt lat="43.2968736" lon="13.1425995"><ele>502.0</ele><time>2026-03-29T10:43:41.438Z</time></trkpt><trkpt lat="43.2967969" lon="13.1426383"><ele>502.00000000000006</ele><time>2026-03-29T10:43:42.437Z</time></trkpt><trkpt lat="43.2967236" lon="13.1426879"><ele>502.0</ele><time>2026-03-29T10:43:43.436Z</time></trkpt><trkpt lat="43.2966506" lon="13.1427496"><ele>502.0</ele><time>2026-03-29T10:43:44.427Z</time></trkpt><trkpt lat="43.2965739" lon="13.142815"><ele>502.0</ele><time>2026-03-29T10:43:45.424Z</time></trkpt><trkpt lat="43.2964995" lon="13.1428867"><ele>502.00000000000006</ele><time>2026-03-29T10:43:46.434Z</time></trkpt><trkpt lat="43.2964233" lon="13.142954"><ele>502.0</ele><time>2026-03-29T10:43:47.419Z</time></trkpt><trkpt lat="43.2963458" lon="13.1430255"><ele>503.20000000000005</ele><time>2026-03-29T10:43:48.438Z</time></trkpt><trkpt lat="43.296268" lon="13.1430997"><ele>504.40000000000003</ele><time>2026-03-29T10:43:49.439Z</time></trkpt><trkpt lat="43.296189" lon="13.1431734"><ele>505.59999999999997</ele><time>2026-03-29T10:43:50.445Z</time></trkpt><trkpt lat="43.2961136" lon="13.1432465"><ele>506.79999999999995</ele><time>2026-03-29T10:43:51.427Z</time></trkpt><trkpt lat="43.2960417" lon="13.1433153"><ele>508.0</ele><time>2026-03-29T10:43:52.431Z</time></trkpt><trkpt lat="43.2959671" lon="13.1433829"><ele>508.0</ele><time>2026-03-29T10:43:53.382Z</time></trkpt><trkpt lat="43.2958855" lon="13.1434563"><ele>507.99999999999994</ele><time>2026-03-29T10:43:54.433Z</time></trkpt><trkpt lat="43.295801" lon="13.143532"><ele>507.99999999999994</ele><time>2026-03-29T10:43:55.43Z</time></trkpt><trkpt lat="43.2957129" lon="13.1436172"><ele>508.0</ele><time>2026-03-29T10:43:56.429Z</time></trkpt><trkpt lat="43.2956248" lon="13.1437025"><ele>508.0</ele><time>2026-03-29T10:43:57.424Z</time></trkpt><trkpt lat="43.2955369" lon="13.143787"><ele>509.59999999999997</ele><time>2026-03-29T10:43:58.426Z</time></trkpt><trkpt lat="43.2954503" lon="13.1438642"><ele>511.19999999999993</ele><time>2026-03-29T10:43:59.428Z</time></trkpt><trkpt lat="43.2953639" lon="13.1439471"><ele>512.8</ele><time>2026-03-29T10:44:00.423Z</time></trkpt><trkpt lat="43.2952776" lon="13.1440324"><ele>514.4</ele><time>2026-03-29T10:44:01.431Z</time></trkpt><trkpt lat="43.2951933" lon="13.1441185"><ele>516.0</ele><time>2026-03-29T10:44:02.425Z</time></trkpt><trkpt lat="43.2951156" lon="13.1442142"><ele>516.0</ele><time>2026-03-29T10:44:03.444Z</time></trkpt><trkpt lat="43.2950577" lon="13.1443181"><ele>516.0</ele><time>2026-03-29T10:44:04.442Z</time></trkpt><trkpt lat="43.2950206" lon="13.144431"><ele>516.0</ele><time>2026-03-29T10:44:05.4Z</time></trkpt><trkpt lat="43.2949971" lon="13.1445411"><ele>516.0</ele><time>2026-03-29T10:44:06.417Z</time></trkpt><trkpt lat="43.2949978" lon="13.1446605"><ele>516.0</ele><time>2026-03-29T10:44:07.418Z</time></trkpt><trkpt lat="43.2950348" lon="13.1447712"><ele>516.0</ele><time>2026-03-29T10:44:08.413Z</time></trkpt><trkpt lat="43.2950926" lon="13.1448646"><ele>517.6</ele><time>2026-03-29T10:44:09.43Z</time></trkpt><trkpt lat="43.295168" lon="13.1449522"><ele>519.2</ele><time>2026-03-29T10:44:10.399Z</time></trkpt><trkpt lat="43.2952485" lon="13.1450363"><ele>520.8</ele><time>2026-03-29T10:44:11.426Z</time></trkpt><trkpt lat="43.2953314" lon="13.1451299"><ele>522.4</ele><time>2026-03-29T10:44:12.424Z</time></trkpt><trkpt lat="43.2954146" lon="13.1452351"><ele>524.0</ele><time>2026-03-29T10:44:13.443Z</time></trkpt><trkpt lat="43.2954869" lon="13.1453506"><ele>524.0</ele><time>2026-03-29T10:44:14.437Z</time></trkpt><trkpt lat="43.2955436" lon="13.1454855"><ele>524.0</ele><time>2026-03-29T10:44:15.429Z</time></trkpt><trkpt lat="43.2955736" lon="13.1456314"><ele>524.0</ele><time>2026-03-29T10:44:16.432Z</time></trkpt><trkpt lat="43.2955788" lon="13.1457777"><ele>524.0</ele><time>2026-03-29T10:44:17.43Z</time></trkpt><trkpt lat="43.2955714" lon="13.1459166"><ele>524.0</ele><time>2026-03-29T10:44:18.418Z</time></trkpt><trkpt lat="43.2955612" lon="13.146067"><ele>527.0</ele><time>2026-03-29T10:44:19.436Z</time></trkpt><trkpt lat="43.295548" lon="13.1462288"><ele>530.0</ele><time>2026-03-29T10:44:20.435Z</time></trkpt><trkpt lat="43.2955339" lon="13.1463917"><ele>533.0</ele><time>2026-03-29T10:44:21.429Z</time></trkpt><trkpt lat="43.2955168" lon="13.1465584"><ele>536.0</ele><time>2026-03-29T10:44:22.444Z</time></trkpt><trkpt lat="43.2955034" lon="13.1467209"><ele>537.0</ele><time>2026-03-29T10:44:23.418Z</time></trkpt><trkpt lat="43.2954889" lon="13.1468818"><ele>538.0</ele><time>2026-03-29T10:44:24.446Z</time></trkpt><trkpt lat="43.2954738" lon="13.1470495"><ele>539.0</ele><time>2026-03-29T10:44:25.434Z</time></trkpt><trkpt lat="43.2954553" lon="13.147221"><ele>540.0</ele><time>2026-03-29T10:44:26.436Z</time></trkpt><trkpt lat="43.2954296" lon="13.1473858"><ele>540.25</ele><time>2026-03-29T10:44:27.418Z</time></trkpt><trkpt lat="43.2953767" lon="13.1475454"><ele>540.5</ele><time>2026-03-29T10:44:28.417Z</time></trkpt><trkpt lat="43.2953151" lon="13.1476863"><ele>540.75</ele><time>2026-03-29T10:44:29.428Z</time></trkpt><trkpt lat="43.2952413" lon="13.14782"><ele>541.0</ele><time>2026-03-29T10:44:30.428Z</time></trkpt><trkpt lat="43.2951616" lon="13.1479443"><ele>541.0</ele><time>2026-03-29T10:44:31.433Z</time></trkpt><trkpt lat="43.2950731" lon="13.1480689"><ele>541.0</ele><time>2026-03-29T10:44:32.434Z</time></trkpt><trkpt lat="43.2949854" lon="13.1481895"><ele>541.0</ele><time>2026-03-29T10:44:33.435Z</time></trkpt><trkpt lat="43.2949037" lon="13.1483123"><ele>541.0</ele><time>2026-03-29T10:44:34.414Z</time></trkpt><trkpt lat="43.2948264" lon="13.1484397"><ele>540.0</ele><time>2026-03-29T10:44:35.444Z</time></trkpt><trkpt lat="43.2947599" lon="13.1485781"><ele>539.0</ele><time>2026-03-29T10:44:36.413Z</time></trkpt><trkpt lat="43.2947134" lon="13.1487322"><ele>538.0</ele><time>2026-03-29T10:44:37.435Z</time></trkpt><trkpt lat="43.2946888" lon="13.1488978"><ele>537.0</ele><time>2026-03-29T10:44:38.441Z</time></trkpt><trkpt lat="43.2946824" lon="13.1490707"><ele>537.5</ele><time>2026-03-29T10:44:39.441Z</time></trkpt><trkpt lat="43.2946903" lon="13.1492411"><ele>538.0</ele><time>2026-03-29T10:44:40.447Z</time></trkpt><trkpt lat="43.2947077" lon="13.1494098"><ele>538.5</ele><time>2026-03-29T10:44:41.439Z</time></trkpt><trkpt lat="43.2947403" lon="13.1495784"><ele>539.0</ele><time>2026-03-29T10:44:42.427Z</time></trkpt><trkpt lat="43.2947832" lon="13.1497475"><ele>538.75</ele><time>2026-03-29T10:44:43.44Z</time></trkpt><trkpt lat="43.2948245" lon="13.1499153"><ele>538.5</ele><time>2026-03-29T10:44:44.41Z</time></trkpt><trkpt lat="43.2948692" lon="13.1500889"><ele>538.25</ele><time>2026-03-29T10:44:45.445Z</time></trkpt><trkpt lat="43.2949136" lon="13.1502624"><ele>538.0</ele><time>2026-03-29T10:44:46.411Z</time></trkpt><trkpt lat="43.2949577" lon="13.1504308"><ele>538.0</ele><time>2026-03-29T10:44:47.428Z</time></trkpt><trkpt lat="43.2950057" lon="13.1505996"><ele>538.0</ele><time>2026-03-29T10:44:48.43Z</time></trkpt><trkpt lat="43.2950562" lon="13.1507632"><ele>538.0</ele><time>2026-03-29T10:44:49.429Z</time></trkpt><trkpt lat="43.2951148" lon="13.1509156"><ele>538.0</ele><time>2026-03-29T10:44:50.425Z</time></trkpt><trkpt lat="43.2951802" lon="13.1510643"><ele>536.25</ele><time>2026-03-29T10:44:51.377Z</time></trkpt><trkpt lat="43.2952521" lon="13.1512019"><ele>534.5</ele><time>2026-03-29T10:44:52.439Z</time></trkpt><trkpt lat="43.2953302" lon="13.1513368"><ele>532.75</ele><time>2026-03-29T10:44:53.386Z</time></trkpt><trkpt lat="43.2954107" lon="13.151472"><ele>531.0</ele><time>2026-03-29T10:44:54.425Z</time></trkpt><trkpt lat="43.295494" lon="13.1515966"><ele>529.5</ele><time>2026-03-29T10:44:55.436Z</time></trkpt><trkpt lat="43.2955744" lon="13.1517221"><ele>528.0</ele><time>2026-03-29T10:44:56.446Z</time></trkpt><trkpt lat="43.2956561" lon="13.1518537"><ele>526.5</ele><time>2026-03-29T10:44:57.419Z</time></trkpt><trkpt lat="43.2957361" lon="13.1519703"><ele>525.0</ele><time>2026-03-29T10:44:58.436Z</time></trkpt><trkpt lat="43.2958104" lon="13.1520831"><ele>528.0</ele><time>2026-03-29T10:44:59.439Z</time></trkpt><trkpt lat="43.2958738" lon="13.1521951"><ele>531.0</ele><time>2026-03-29T10:45:00.431Z</time></trkpt><trkpt lat="43.2959246" lon="13.1523027"><ele>534.0</ele><time>2026-03-29T10:45:01.44Z</time></trkpt><trkpt lat="43.2959587" lon="13.152424"><ele>537.0</ele><time>2026-03-29T10:45:02.396Z</time></trkpt><trkpt lat="43.2959693" lon="13.1525662"><ele>540.0</ele><time>2026-03-29T10:45:03.423Z</time></trkpt><trkpt lat="43.2959591" lon="13.1526986"><ele>540.0</ele><time>2026-03-29T10:45:04.425Z</time></trkpt><trkpt lat="43.295931" lon="13.1528297"><ele>540.0</ele><time>2026-03-29T10:45:05.425Z</time></trkpt><trkpt lat="43.2959019" lon="13.1529434"><ele>540.0</ele><time>2026-03-29T10:45:06.444Z</time></trkpt><trkpt lat="43.2958712" lon="13.1530467"><ele>540.0</ele><time>2026-03-29T10:45:07.445Z</time></trkpt><trkpt lat="43.2958309" lon="13.1531488"><ele>540.0</ele><time>2026-03-29T10:45:08.428Z</time></trkpt><trkpt lat="43.295779" lon="13.1532475"><ele>540.0</ele><time>2026-03-29T10:45:09.444Z</time></trkpt><trkpt lat="43.2957166" lon="13.1533365"><ele>540.5</ele><time>2026-03-29T10:45:10.444Z</time></trkpt><trkpt lat="43.2956508" lon="13.1534168"><ele>541.0</ele><time>2026-03-29T10:45:11.405Z</time></trkpt><trkpt lat="43.2955793" lon="13.1534907"><ele>541.5</ele><time>2026-03-29T10:45:12.433Z</time></trkpt><trkpt lat="43.2955081" lon="13.1535648"><ele>542.0</ele><time>2026-03-29T10:45:13.421Z</time></trkpt><trkpt lat="43.2954532" lon="13.1536495"><ele>542.5</ele><time>2026-03-29T10:45:14.43Z</time></trkpt><trkpt lat="43.2954221" lon="13.1537518"><ele>543.0</ele><time>2026-03-29T10:45:15.441Z</time></trkpt><trkpt lat="43.2954197" lon="13.1538728"><ele>542.4</ele><time>2026-03-29T10:45:16.433Z</time></trkpt><trkpt lat="43.295435" lon="13.153996"><ele>541.8</ele><time>2026-03-29T10:45:17.413Z</time></trkpt><trkpt lat="43.295478" lon="13.1541014"><ele>541.2</ele><time>2026-03-29T10:45:18.426Z</time></trkpt><trkpt lat="43.2955503" lon="13.1541894"><ele>540.6</ele><time>2026-03-29T10:45:19.449Z</time></trkpt><trkpt lat="43.2956402" lon="13.154248"><ele>540.0</ele><time>2026-03-29T10:45:20.421Z</time></trkpt><trkpt lat="43.2957361" lon="13.1543117"><ele>540.0</ele><time>2026-03-29T10:45:21.416Z</time></trkpt><trkpt lat="43.2958345" lon="13.1543742"><ele>540.0</ele><time>2026-03-29T10:45:22.427Z</time></trkpt><trkpt lat="43.2959334" lon="13.1544371"><ele>540.0</ele><time>2026-03-29T10:45:23.426Z</time></trkpt><trkpt lat="43.2960266" lon="13.154508"><ele>540.0</ele><time>2026-03-29T10:45:24.431Z</time></trkpt><trkpt lat="43.2961149" lon="13.1545898"><ele>540.0</ele><time>2026-03-29T10:45:25.43Z</time></trkpt><trkpt lat="43.296196" lon="13.1547016"><ele>540.0</ele><time>2026-03-29T10:45:26.44Z</time></trkpt><trkpt lat="43.2962613" lon="13.1548352"><ele>540.0</ele><time>2026-03-29T10:45:27.435Z</time></trkpt><trkpt lat="43.2963174" lon="13.1549778"><ele>540.0</ele><time>2026-03-29T10:45:28.427Z</time></trkpt><trkpt lat="43.2963567" lon="13.1551288"><ele>540.0</ele><time>2026-03-29T10:45:29.425Z</time></trkpt><trkpt lat="43.2963882" lon="13.1552817"><ele>539.75</ele><time>2026-03-29T10:45:30.438Z</time></trkpt><trkpt lat="43.2964171" lon="13.1554448"><ele>539.5</ele><time>2026-03-29T10:45:31.416Z</time></trkpt><trkpt lat="43.29644" lon="13.155613"><ele>539.25</ele><time>2026-03-29T10:45:32.429Z</time></trkpt><trkpt lat="43.2964598" lon="13.1557836"><ele>539.0</ele><time>2026-03-29T10:45:33.441Z</time></trkpt><trkpt lat="43.2964746" lon="13.1559555"><ele>537.75</ele><time>2026-03-29T10:45:34.445Z</time></trkpt><trkpt lat="43.2964916" lon="13.1561231"><ele>536.5</ele><time>2026-03-29T10:45:35.443Z</time></trkpt><trkpt lat="43.2965073" lon="13.1562878"><ele>535.25</ele><time>2026-03-29T10:45:36.434Z</time></trkpt><trkpt lat="43.2965242" lon="13.1564474"><ele>534.0</ele><time>2026-03-29T10:45:37.434Z</time></trkpt><trkpt lat="43.2965383" lon="13.1565982"><ele>533.2</ele><time>2026-03-29T10:45:38.419Z</time></trkpt><trkpt lat="43.2965454" lon="13.1567434"><ele>532.4</ele><time>2026-03-29T10:45:39.446Z</time></trkpt><trkpt lat="43.2965408" lon="13.1568861"><ele>531.6</ele><time>2026-03-29T10:45:40.429Z</time></trkpt><trkpt lat="43.2965255" lon="13.1570241"><ele>530.8</ele><time>2026-03-29T10:45:41.418Z</time></trkpt><trkpt lat="43.2965016" lon="13.1571644"><ele>530.0</ele><time>2026-03-29T10:45:42.412Z</time></trkpt><trkpt lat="43.2964694" lon="13.1573087"><ele>530.25</ele><time>2026-03-29T10:45:43.442Z</time></trkpt><trkpt lat="43.2964334" lon="13.1574514"><ele>530.5</ele><time>2026-03-29T10:45:44.451Z</time></trkpt><trkpt lat="43.2963922" lon="13.1575949"><ele>530.75</ele><time>2026-03-29T10:45:45.426Z</time></trkpt><trkpt lat="43.2963477" lon="13.1577403"><ele>531.0</ele><time>2026-03-29T10:45:46.438Z</time></trkpt><trkpt lat="43.2963019" lon="13.1578899"><ele>526.25</ele><time>2026-03-29T10:45:47.415Z</time></trkpt><trkpt lat="43.296251" lon="13.1580463"><ele>521.5</ele><time>2026-03-29T10:45:48.45Z</time></trkpt><trkpt lat="43.2961997" lon="13.1582023"><ele>516.75</ele><time>2026-03-29T10:45:49.408Z</time></trkpt><trkpt lat="43.2961519" lon="13.1583559"><ele>512.0</ele><time>2026-03-29T10:45:50.431Z</time></trkpt><trkpt lat="43.2961136" lon="13.1585095"><ele>512.0</ele><time>2026-03-29T10:45:51.436Z</time></trkpt><trkpt lat="43.2960835" lon="13.158664"><ele>512.0</ele><time>2026-03-29T10:45:52.422Z</time></trkpt><trkpt lat="43.2960668" lon="13.1588112"><ele>512.0</ele><time>2026-03-29T10:45:53.378Z</time></trkpt><trkpt lat="43.2960691" lon="13.1589418"><ele>512.0</ele><time>2026-03-29T10:45:54.425Z</time></trkpt><trkpt lat="43.2960787" lon="13.1590468"><ele>512.0</ele><time>2026-03-29T10:45:55.411Z</time></trkpt><trkpt lat="43.2961035" lon="13.1591457"><ele>511.49999999999994</ele><time>2026-03-29T10:45:56.444Z</time></trkpt><trkpt lat="43.2961363" lon="13.1592433"><ele>511.0</ele><time>2026-03-29T10:45:57.415Z</time></trkpt><trkpt lat="43.2961807" lon="13.1593297"><ele>510.5</ele><time>2026-03-29T10:45:58.404Z</time></trkpt><trkpt lat="43.2962261" lon="13.1594172"><ele>510.0</ele><time>2026-03-29T10:45:59.435Z</time></trkpt><trkpt lat="43.2962594" lon="13.1594959"><ele>509.49999999999994</ele><time>2026-03-29T10:46:00.417Z</time></trkpt><trkpt lat="43.2962831" lon="13.1595894"><ele>509.0</ele><time>2026-03-29T10:46:01.412Z</time></trkpt><trkpt lat="43.2963047" lon="13.1596921"><ele>508.99999999999994</ele><time>2026-03-29T10:46:02.42Z</time></trkpt><trkpt lat="43.2963261" lon="13.1597936"><ele>509.0</ele><time>2026-03-29T10:46:03.419Z</time></trkpt><trkpt lat="43.2963436" lon="13.1599069"><ele>509.0</ele><time>2026-03-29T10:46:04.426Z</time></trkpt><trkpt lat="43.2963558" lon="13.1600243"><ele>509.0</ele><time>2026-03-29T10:46:05.417Z</time></trkpt><trkpt lat="43.2963653" lon="13.160146"><ele>508.99999999999994</ele><time>2026-03-29T10:46:06.399Z</time></trkpt><trkpt lat="43.2963736" lon="13.1602632"><ele>509.0</ele><time>2026-03-29T10:46:07.436Z</time></trkpt><trkpt lat="43.2963798" lon="13.1603828"><ele>508.49999999999994</ele><time>2026-03-29T10:46:08.44Z</time></trkpt><trkpt lat="43.2963835" lon="13.1605011"><ele>508.0</ele><time>2026-03-29T10:46:09.432Z</time></trkpt><trkpt lat="43.296386" lon="13.1606182"><ele>507.5</ele><time>2026-03-29T10:46:10.391Z</time></trkpt><trkpt lat="43.2963787" lon="13.1607285"><ele>507.0</ele><time>2026-03-29T10:46:11.433Z</time></trkpt><trkpt lat="43.296362" lon="13.1608257"><ele>506.49999999999994</ele><time>2026-03-29T10:46:12.426Z</time></trkpt><trkpt lat="43.2963304" lon="13.1609185"><ele>506.0</ele><time>2026-03-29T10:46:13.432Z</time></trkpt><trkpt lat="43.2962895" lon="13.1609992"><ele>507.49999999999994</ele><time>2026-03-29T10:46:14.435Z</time></trkpt><trkpt lat="43.296239" lon="13.1610647"><ele>509.0</ele><time>2026-03-29T10:46:15.443Z</time></trkpt><trkpt lat="43.2961881" lon="13.1611254"><ele>510.5</ele><time>2026-03-29T10:46:16.403Z</time></trkpt><trkpt lat="43.296123" lon="13.1611957"><ele>512.0</ele><time>2026-03-29T10:46:17.424Z</time></trkpt><trkpt lat="43.2960617" lon="13.1612605"><ele>513.5</ele><time>2026-03-29T10:46:18.417Z</time></trkpt><trkpt lat="43.2960055" lon="13.1613361"><ele>515.0</ele><time>2026-03-29T10:46:19.417Z</time></trkpt><trkpt lat="43.295944" lon="13.1614284"><ele>515.0</ele><time>2026-03-29T10:46:20.43Z</time></trkpt><trkpt lat="43.2958883" lon="13.1615312"><ele>515.0</ele><time>2026-03-29T10:46:21.381Z</time></trkpt><trkpt lat="43.2958377" lon="13.1616424"><ele>515.0</ele><time>2026-03-29T10:46:22.435Z</time></trkpt><trkpt lat="43.2957975" lon="13.161758"><ele>515.0</ele><time>2026-03-29T10:46:23.428Z</time></trkpt><trkpt lat="43.2957707" lon="13.1618762"><ele>515.0</ele><time>2026-03-29T10:46:24.415Z</time></trkpt><trkpt lat="43.2957491" lon="13.1619925"><ele>518.0</ele><time>2026-03-29T10:46:25.418Z</time></trkpt><trkpt lat="43.2957453" lon="13.162119"><ele>521.0</ele><time>2026-03-29T10:46:26.421Z</time></trkpt><trkpt lat="43.2957598" lon="13.1622528"><ele>524.0</ele><time>2026-03-29T10:46:27.436Z</time></trkpt><trkpt lat="43.2957894" lon="13.1623798"><ele>527.0</ele><time>2026-03-29T10:46:28.401Z</time></trkpt><trkpt lat="43.2958258" lon="13.1625035"><ele>530.0</ele><time>2026-03-29T10:46:29.438Z</time></trkpt><trkpt lat="43.2958669" lon="13.162622"><ele>532.4</ele><time>2026-03-29T10:46:30.425Z</time></trkpt><trkpt lat="43.2959134" lon="13.1627407"><ele>534.8</ele><time>2026-03-29T10:46:31.426Z</time></trkpt><trkpt lat="43.2959634" lon="13.1628495"><ele>537.2</ele><time>2026-03-29T10:46:32.402Z</time></trkpt><trkpt lat="43.2960164" lon="13.1629557"><ele>539.6</ele><time>2026-03-29T10:46:33.407Z</time></trkpt><trkpt lat="43.2960624" lon="13.1630567"><ele>542.0</ele><time>2026-03-29T10:46:34.419Z</time></trkpt><trkpt lat="43.29611" lon="13.1631596"><ele>544.2</ele><time>2026-03-29T10:46:35.436Z</time></trkpt><trkpt lat="43.2961452" lon="13.1632653"><ele>546.4000000000001</ele><time>2026-03-29T10:46:36.435Z</time></trkpt><trkpt lat="43.296153" lon="13.1633709"><ele>548.5999999999999</ele><time>2026-03-29T10:46:37.427Z</time></trkpt><trkpt lat="43.2961525" lon="13.1634831"><ele>550.8</ele><time>2026-03-29T10:46:38.449Z</time></trkpt><trkpt lat="43.2961732" lon="13.1636426"><ele>553.0</ele><time>2026-03-29T10:46:40.431Z</time></trkpt><trkpt lat="43.2962979" lon="13.1636395"><ele>553.0</ele><time>2026-03-29T10:46:42.414Z</time></trkpt><trkpt lat="43.2963478" lon="13.1635656"><ele>553.0</ele><time>2026-03-29T10:46:43.436Z</time></trkpt><trkpt lat="43.2963762" lon="13.1634592"><ele>553.0</ele><time>2026-03-29T10:46:44.438Z</time></trkpt><trkpt lat="43.2963953" lon="13.1633391"><ele>553.0</ele><time>2026-03-29T10:46:45.419Z</time></trkpt><trkpt lat="43.2963874" lon="13.1632139"><ele>553.0</ele><time>2026-03-29T10:46:46.431Z</time></trkpt><trkpt lat="43.2963666" lon="13.1631096"><ele>553.0</ele><time>2026-03-29T10:46:47.429Z</time></trkpt><trkpt lat="43.2963458" lon="13.1630277"><ele>551.1666666666667</ele><time>2026-03-29T10:46:48.421Z</time></trkpt><trkpt lat="43.2963168" lon="13.1629004"><ele>549.3333333333334</ele><time>2026-03-29T10:46:50.445Z</time></trkpt><trkpt lat="43.2963741" lon="13.1628132"><ele>547.5</ele><time>2026-03-29T10:46:54.401Z</time></trkpt><trkpt lat="43.2964688" lon="13.1628822"><ele>545.6666666666666</ele><time>2026-03-29T10:46:56.428Z</time></trkpt><trkpt lat="43.2965145" lon="13.1629474"><ele>543.8333333333333</ele><time>2026-03-29T10:46:57.428Z</time></trkpt><trkpt lat="43.2965575" lon="13.1630205"><ele>542.0</ele><time>2026-03-29T10:46:58.443Z</time></trkpt><trkpt lat="43.2966087" lon="13.1631037"><ele>547.0</ele><time>2026-03-29T10:46:59.443Z</time></trkpt><trkpt lat="43.2966677" lon="13.1631883"><ele>552.0</ele><time>2026-03-29T10:47:00.415Z</time></trkpt><trkpt lat="43.2967346" lon="13.1632886"><ele>557.0</ele><time>2026-03-29T10:47:01.438Z</time></trkpt><trkpt lat="43.2968209" lon="13.1633967"><ele>562.0</ele><time>2026-03-29T10:47:02.432Z</time></trkpt><trkpt lat="43.2969134" lon="13.1634787"><ele>567.0</ele><time>2026-03-29T10:47:03.427Z</time></trkpt><trkpt lat="43.2970181" lon="13.1635516"><ele>567.0</ele><time>2026-03-29T10:47:04.421Z</time></trkpt><trkpt lat="43.2971322" lon="13.1636168"><ele>567.0</ele><time>2026-03-29T10:47:05.407Z</time></trkpt><trkpt lat="43.2972538" lon="13.1636789"><ele>567.0</ele><time>2026-03-29T10:47:06.438Z</time></trkpt><trkpt lat="43.2973856" lon="13.1637284"><ele>567.0</ele><time>2026-03-29T10:47:07.378Z</time></trkpt><trkpt lat="43.2975172" lon="13.1637715"><ele>568.25</ele><time>2026-03-29T10:47:08.443Z</time></trkpt><trkpt lat="43.2976398" lon="13.1638121"><ele>569.5</ele><time>2026-03-29T10:47:09.434Z</time></trkpt><trkpt lat="43.2977507" lon="13.1638535"><ele>570.75</ele><time>2026-03-29T10:47:10.443Z</time></trkpt><trkpt lat="43.2978554" lon="13.1639003"><ele>572.0</ele><time>2026-03-29T10:47:11.433Z</time></trkpt><trkpt lat="43.2979605" lon="13.1639465"><ele>572.0</ele><time>2026-03-29T10:47:12.425Z</time></trkpt><trkpt lat="43.2980592" lon="13.1639966"><ele>572.0</ele><time>2026-03-29T10:47:13.423Z</time></trkpt><trkpt lat="43.2981532" lon="13.1640446"><ele>572.0</ele><time>2026-03-29T10:47:14.397Z</time></trkpt><trkpt lat="43.2982415" lon="13.1640901"><ele>572.0</ele><time>2026-03-29T10:47:15.44Z</time></trkpt><trkpt lat="43.2983266" lon="13.1641316"><ele>572.0</ele><time>2026-03-29T10:47:16.413Z</time></trkpt><trkpt lat="43.2984124" lon="13.1641663"><ele>570.6</ele><time>2026-03-29T10:47:17.419Z</time></trkpt><trkpt lat="43.2985049" lon="13.1641992"><ele>569.2</ele><time>2026-03-29T10:47:18.444Z</time></trkpt><trkpt lat="43.29859" lon="13.1642126"><ele>567.8</ele><time>2026-03-29T10:47:19.443Z</time></trkpt><trkpt lat="43.2986856" lon="13.1642152"><ele>566.4</ele><time>2026-03-29T10:47:20.433Z</time></trkpt><trkpt lat="43.298786" lon="13.1641959"><ele>565.0</ele><time>2026-03-29T10:47:21.426Z</time></trkpt><trkpt lat="43.2988958" lon="13.1641565"><ele>564.4</ele><time>2026-03-29T10:47:22.433Z</time></trkpt><trkpt lat="43.2990002" lon="13.1641076"><ele>563.8</ele><time>2026-03-29T10:47:23.424Z</time></trkpt><trkpt lat="43.2991008" lon="13.1640647"><ele>563.2</ele><time>2026-03-29T10:47:24.441Z</time></trkpt><trkpt lat="43.2992037" lon="13.1640378"><ele>562.6</ele><time>2026-03-29T10:47:25.455Z</time></trkpt><trkpt lat="43.2993111" lon="13.1640292"><ele>562.0</ele><time>2026-03-29T10:47:26.421Z</time></trkpt><trkpt lat="43.2994177" lon="13.1640471"><ele>562.0</ele><time>2026-03-29T10:47:27.431Z</time></trkpt><trkpt lat="43.2995253" lon="13.1640788"><ele>562.0</ele><time>2026-03-29T10:47:28.412Z</time></trkpt><trkpt lat="43.2996351" lon="13.1641244"><ele>562.0</ele><time>2026-03-29T10:47:29.439Z</time></trkpt><trkpt lat="43.2997409" lon="13.164172"><ele>562.0</ele><time>2026-03-29T10:47:30.433Z</time></trkpt><trkpt lat="43.299834" lon="13.1642108"><ele>562.0</ele><time>2026-03-29T10:47:31.429Z</time></trkpt><trkpt lat="43.299917" lon="13.164249"><ele>562.2</ele><time>2026-03-29T10:47:32.423Z</time></trkpt><trkpt lat="43.2999938" lon="13.1642901"><ele>562.4000000000001</ele><time>2026-03-29T10:47:33.435Z</time></trkpt><trkpt lat="43.3000614" lon="13.1643377"><ele>562.5999999999999</ele><time>2026-03-29T10:47:34.419Z</time></trkpt><trkpt lat="43.300129" lon="13.1644115"><ele>562.8</ele><time>2026-03-29T10:47:35.444Z</time></trkpt><trkpt lat="43.3002017" lon="13.1645057"><ele>563.0</ele><time>2026-03-29T10:47:36.435Z</time></trkpt><trkpt lat="43.3002775" lon="13.1646161"><ele>563.0</ele><time>2026-03-29T10:47:37.428Z</time></trkpt><trkpt lat="43.3003556" lon="13.1647289"><ele>563.0</ele><time>2026-03-29T10:47:38.439Z</time></trkpt><trkpt lat="43.3004367" lon="13.1648516"><ele>563.0</ele><time>2026-03-29T10:47:39.453Z</time></trkpt><trkpt lat="43.3005269" lon="13.1649736"><ele>563.0</ele><time>2026-03-29T10:47:40.419Z</time></trkpt><trkpt lat="43.3006164" lon="13.1651011"><ele>561.1999999999999</ele><time>2026-03-29T10:47:41.451Z</time></trkpt><trkpt lat="43.3006983" lon="13.1652188"><ele>559.4</ele><time>2026-03-29T10:47:42.447Z</time></trkpt><trkpt lat="43.3007784" lon="13.1653281"><ele>557.5999999999999</ele><time>2026-03-29T10:47:43.443Z</time></trkpt><trkpt lat="43.3008591" lon="13.1654315"><ele>555.8</ele><time>2026-03-29T10:47:44.427Z</time></trkpt><trkpt lat="43.3009431" lon="13.1655213"><ele>554.0</ele><time>2026-03-29T10:47:45.453Z</time></trkpt><trkpt lat="43.3010296" lon="13.1655964"><ele>554.0</ele><time>2026-03-29T10:47:46.434Z</time></trkpt><trkpt lat="43.3011229" lon="13.1656644"><ele>554.0</ele><time>2026-03-29T10:47:47.433Z</time></trkpt><trkpt lat="43.3012228" lon="13.165724"><ele>554.0</ele><time>2026-03-29T10:47:48.438Z</time></trkpt><trkpt lat="43.301323" lon="13.1657736"><ele>554.0</ele><time>2026-03-29T10:47:49.443Z</time></trkpt><trkpt lat="43.3014313" lon="13.165814"><ele>554.0</ele><time>2026-03-29T10:47:50.451Z</time></trkpt><trkpt lat="43.301548" lon="13.1658372"><ele>552.25</ele><time>2026-03-29T10:47:51.437Z</time></trkpt><trkpt lat="43.3016669" lon="13.1658505"><ele>550.5</ele><time>2026-03-29T10:47:52.418Z</time></trkpt><trkpt lat="43.3017841" lon="13.1658483"><ele>548.75</ele><time>2026-03-29T10:47:53.385Z</time></trkpt><trkpt lat="43.3018986" lon="13.1658555"><ele>547.0</ele><time>2026-03-29T10:47:54.389Z</time></trkpt><trkpt lat="43.3020182" lon="13.1658608"><ele>547.0</ele><time>2026-03-29T10:47:55.445Z</time></trkpt><trkpt lat="43.3021337" lon="13.1658669"><ele>547.0</ele><time>2026-03-29T10:47:56.447Z</time></trkpt><trkpt lat="43.3022527" lon="13.1658656"><ele>547.0</ele><time>2026-03-29T10:47:57.427Z</time></trkpt><trkpt lat="43.302368" lon="13.1658612"><ele>547.0</ele><time>2026-03-29T10:47:58.441Z</time></trkpt><trkpt lat="43.3024805" lon="13.1658503"><ele>545.0</ele><time>2026-03-29T10:47:59.434Z</time></trkpt><trkpt lat="43.3025899" lon="13.1658377"><ele>543.0</ele><time>2026-03-29T10:48:00.42Z</time></trkpt><trkpt lat="43.3026982" lon="13.1658211"><ele>541.0</ele><time>2026-03-29T10:48:01.43Z</time></trkpt><trkpt lat="43.3028065" lon="13.1658068"><ele>539.0</ele><time>2026-03-29T10:48:02.441Z</time></trkpt><trkpt lat="43.3029102" lon="13.165793"><ele>537.0</ele><time>2026-03-29T10:48:03.423Z</time></trkpt><trkpt lat="43.303015" lon="13.1657781"><ele>536.0</ele><time>2026-03-29T10:48:04.435Z</time></trkpt><trkpt lat="43.3031186" lon="13.1657668"><ele>535.0</ele><time>2026-03-29T10:48:05.434Z</time></trkpt><trkpt lat="43.3032197" lon="13.1657597"><ele>534.0</ele><time>2026-03-29T10:48:06.43Z</time></trkpt><trkpt lat="43.3033235" lon="13.1657525"><ele>533.0</ele><time>2026-03-29T10:48:07.435Z</time></trkpt><trkpt lat="43.3034255" lon="13.1657499"><ele>532.0</ele><time>2026-03-29T10:48:08.437Z</time></trkpt><trkpt lat="43.3035284" lon="13.1657495"><ele>532.0</ele><time>2026-03-29T10:48:09.415Z</time></trkpt><trkpt lat="43.303627" lon="13.1657489"><ele>532.0</ele><time>2026-03-29T10:48:10.453Z</time></trkpt><trkpt lat="43.3037277" lon="13.1657494"><ele>532.0</ele><time>2026-03-29T10:48:11.44Z</time></trkpt><trkpt lat="43.3038284" lon="13.1657494"><ele>532.0</ele><time>2026-03-29T10:48:12.441Z</time></trkpt><trkpt lat="43.3039228" lon="13.1657487"><ele>532.0</ele><time>2026-03-29T10:48:13.439Z</time></trkpt><trkpt lat="43.3040216" lon="13.1657527"><ele>531.1666666666667</ele><time>2026-03-29T10:48:14.44Z</time></trkpt><trkpt lat="43.3041172" lon="13.1657729"><ele>530.3333333333334</ele><time>2026-03-29T10:48:15.426Z</time></trkpt><trkpt lat="43.3042104" lon="13.1657994"><ele>529.5</ele><time>2026-03-29T10:48:16.442Z</time></trkpt><trkpt lat="43.3042982" lon="13.1658167"><ele>528.6666666666666</ele><time>2026-03-29T10:48:17.426Z</time></trkpt><trkpt lat="43.3043786" lon="13.1658217"><ele>527.8333333333333</ele><time>2026-03-29T10:48:18.454Z</time></trkpt><trkpt lat="43.3044489" lon="13.1658387"><ele>527.0</ele><time>2026-03-29T10:48:19.427Z</time></trkpt><trkpt lat="43.3045095" lon="13.1658737"><ele>527.0</ele><time>2026-03-29T10:48:20.441Z</time></trkpt><trkpt lat="43.3045556" lon="13.1659363"><ele>527.0</ele><time>2026-03-29T10:48:21.43Z</time></trkpt><trkpt lat="43.3045823" lon="13.1660281"><ele>527.0</ele><time>2026-03-29T10:48:22.415Z</time></trkpt><trkpt lat="43.3046071" lon="13.1661539"><ele>527.0</ele><time>2026-03-29T10:48:23.461Z</time></trkpt><trkpt lat="43.3046286" lon="13.1662867"><ele>527.0</ele><time>2026-03-29T10:48:24.468Z</time></trkpt><trkpt lat="43.30466" lon="13.1664343"><ele>527.0</ele><time>2026-03-29T10:48:25.443Z</time></trkpt><trkpt lat="43.3046965" lon="13.1665849"><ele>525.4</ele><time>2026-03-29T10:48:26.421Z</time></trkpt><trkpt lat="43.3047491" lon="13.1667183"><ele>523.8000000000001</ele><time>2026-03-29T10:48:27.416Z</time></trkpt><trkpt lat="43.3048003" lon="13.1668385"><ele>522.2</ele><time>2026-03-29T10:48:28.427Z</time></trkpt><trkpt lat="43.3048494" lon="13.1669461"><ele>520.6</ele><time>2026-03-29T10:48:29.427Z</time></trkpt><trkpt lat="43.3048999" lon="13.1670518"><ele>519.0</ele><time>2026-03-29T10:48:30.43Z</time></trkpt><trkpt lat="43.3049593" lon="13.1671539"><ele>519.0</ele><time>2026-03-29T10:48:31.429Z</time></trkpt><trkpt lat="43.3050255" lon="13.1672371"><ele>519.0</ele><time>2026-03-29T10:48:32.417Z</time></trkpt><trkpt lat="43.3051064" lon="13.167319"><ele>519.0</ele><time>2026-03-29T10:48:33.433Z</time></trkpt><trkpt lat="43.3051889" lon="13.1673987"><ele>519.0</ele><time>2026-03-29T10:48:34.446Z</time></trkpt><trkpt lat="43.3052797" lon="13.167467"><ele>519.0</ele><time>2026-03-29T10:48:35.427Z</time></trkpt><trkpt lat="43.3053748" lon="13.1675335"><ele>517.5</ele><time>2026-03-29T10:48:36.443Z</time></trkpt><trkpt lat="43.3054754" lon="13.1676157"><ele>516.0</ele><time>2026-03-29T10:48:37.444Z</time></trkpt><trkpt lat="43.3055667" lon="13.1677151"><ele>514.5</ele><time>2026-03-29T10:48:38.441Z</time></trkpt><trkpt lat="43.3056541" lon="13.167829"><ele>513.0</ele><time>2026-03-29T10:48:39.435Z</time></trkpt><trkpt lat="43.3057427" lon="13.1679475"><ele>512.5</ele><time>2026-03-29T10:48:40.439Z</time></trkpt><trkpt lat="43.3058302" lon="13.1680685"><ele>512.0</ele><time>2026-03-29T10:48:41.416Z</time></trkpt><trkpt lat="43.3059156" lon="13.1681907"><ele>511.5</ele><time>2026-03-29T10:48:42.443Z</time></trkpt><trkpt lat="43.3059965" lon="13.1683166"><ele>511.0</ele><time>2026-03-29T10:48:43.451Z</time></trkpt><trkpt lat="43.3060773" lon="13.168435"><ele>510.4</ele><time>2026-03-29T10:48:44.443Z</time></trkpt><trkpt lat="43.3061558" lon="13.1685482"><ele>509.8</ele><time>2026-03-29T10:48:45.434Z</time></trkpt><trkpt lat="43.3062304" lon="13.1686611"><ele>509.19999999999993</ele><time>2026-03-29T10:48:46.442Z</time></trkpt><trkpt lat="43.3063002" lon="13.1687688"><ele>508.59999999999997</ele><time>2026-03-29T10:48:47.394Z</time></trkpt><trkpt lat="43.3063729" lon="13.168875"><ele>508.0</ele><time>2026-03-29T10:48:48.442Z</time></trkpt><trkpt lat="43.306458" lon="13.1689662"><ele>508.75</ele><time>2026-03-29T10:48:49.435Z</time></trkpt><trkpt lat="43.3065557" lon="13.1690396"><ele>509.5</ele><time>2026-03-29T10:48:50.413Z</time></trkpt><trkpt lat="43.3066651" lon="13.1690988"><ele>510.25</ele><time>2026-03-29T10:48:51.439Z</time></trkpt><trkpt lat="43.3067788" lon="13.1691532"><ele>511.0</ele><time>2026-03-29T10:48:52.452Z</time></trkpt><trkpt lat="43.3068892" lon="13.1692076"><ele>511.0</ele><time>2026-03-29T10:48:53.384Z</time></trkpt><trkpt lat="43.3070021" lon="13.1692808"><ele>511.0</ele><time>2026-03-29T10:48:54.394Z</time></trkpt><trkpt lat="43.3071057" lon="13.1693697"><ele>511.0</ele><time>2026-03-29T10:48:55.437Z</time></trkpt><trkpt lat="43.307213" lon="13.1694676"><ele>511.0</ele><time>2026-03-29T10:48:56.436Z</time></trkpt><trkpt lat="43.3073245" lon="13.1695644"><ele>509.25</ele><time>2026-03-29T10:48:57.412Z</time></trkpt><trkpt lat="43.3074461" lon="13.1696504"><ele>507.5</ele><time>2026-03-29T10:48:58.445Z</time></trkpt><trkpt lat="43.3075714" lon="13.1697269"><ele>505.75</ele><time>2026-03-29T10:48:59.43Z</time></trkpt><trkpt lat="43.3077018" lon="13.1697836"><ele>504.0</ele><time>2026-03-29T10:49:00.411Z</time></trkpt><trkpt lat="43.3078277" lon="13.1698269"><ele>504.0</ele><time>2026-03-29T10:49:01.448Z</time></trkpt><trkpt lat="43.3079494" lon="13.1698506"><ele>504.0</ele><time>2026-03-29T10:49:02.441Z</time></trkpt><trkpt lat="43.3080638" lon="13.1698603"><ele>504.0</ele><time>2026-03-29T10:49:03.425Z</time></trkpt><trkpt lat="43.3081776" lon="13.1698655"><ele>504.0</ele><time>2026-03-29T10:49:04.435Z</time></trkpt><trkpt lat="43.3082936" lon="13.1698846"><ele>505.75</ele><time>2026-03-29T10:49:05.439Z</time></trkpt><trkpt lat="43.3084144" lon="13.1699182"><ele>507.5</ele><time>2026-03-29T10:49:06.407Z</time></trkpt><trkpt lat="43.3085337" lon="13.1699633"><ele>509.25</ele><time>2026-03-29T10:49:07.397Z</time></trkpt><trkpt lat="43.3086487" lon="13.1700045"><ele>511.0</ele><time>2026-03-29T10:49:08.434Z</time></trkpt><trkpt lat="43.3087648" lon="13.1700446"><ele>511.0</ele><time>2026-03-29T10:49:09.427Z</time></trkpt><trkpt lat="43.3088826" lon="13.1700901"><ele>511.0</ele><time>2026-03-29T10:49:10.436Z</time></trkpt><trkpt lat="43.3090035" lon="13.17014"><ele>511.0</ele><time>2026-03-29T10:49:11.432Z</time></trkpt><trkpt lat="43.309124" lon="13.1702061"><ele>511.0</ele><time>2026-03-29T10:49:12.415Z</time></trkpt><trkpt lat="43.3092414" lon="13.1702752"><ele>511.25</ele><time>2026-03-29T10:49:13.444Z</time></trkpt><trkpt lat="43.3093488" lon="13.1703458"><ele>511.5</ele><time>2026-03-29T10:49:14.441Z</time></trkpt><trkpt lat="43.3094563" lon="13.1704211"><ele>511.75</ele><time>2026-03-29T10:49:15.464Z</time></trkpt><trkpt lat="43.3095582" lon="13.1704956"><ele>512.0</ele><time>2026-03-29T10:49:16.428Z</time></trkpt><trkpt lat="43.309654" lon="13.170573"><ele>512.0</ele><time>2026-03-29T10:49:17.431Z</time></trkpt><trkpt lat="43.309737" lon="13.1706541"><ele>512.0</ele><time>2026-03-29T10:49:18.408Z</time></trkpt><trkpt lat="43.3098144" lon="13.1707479"><ele>512.0</ele><time>2026-03-29T10:49:19.443Z</time></trkpt><trkpt lat="43.3098911" lon="13.1708476"><ele>512.0</ele><time>2026-03-29T10:49:20.425Z</time></trkpt><trkpt lat="43.3099671" lon="13.1709571"><ele>512.0</ele><time>2026-03-29T10:49:21.446Z</time></trkpt><trkpt lat="43.3100438" lon="13.1710821"><ele>512.4</ele><time>2026-03-29T10:49:22.443Z</time></trkpt><trkpt lat="43.3101139" lon="13.1711995"><ele>512.8000000000001</ele><time>2026-03-29T10:49:23.42Z</time></trkpt><trkpt lat="43.3101753" lon="13.1713038"><ele>513.2</ele><time>2026-03-29T10:49:24.428Z</time></trkpt><trkpt lat="43.3102403" lon="13.1713967"><ele>513.6</ele><time>2026-03-29T10:49:25.44Z</time></trkpt><trkpt lat="43.3103097" lon="13.1714941"><ele>514.0</ele><time>2026-03-29T10:49:26.429Z</time></trkpt><trkpt lat="43.3103821" lon="13.1715828"><ele>515.0</ele><time>2026-03-29T10:49:27.436Z</time></trkpt><trkpt lat="43.3104602" lon="13.1716597"><ele>516.0</ele><time>2026-03-29T10:49:28.421Z</time></trkpt><trkpt lat="43.3105499" lon="13.1717236"><ele>517.0</ele><time>2026-03-29T10:49:29.424Z</time></trkpt><trkpt lat="43.3106407" lon="13.1717764"><ele>518.0</ele><time>2026-03-29T10:49:30.446Z</time></trkpt><trkpt lat="43.3107345" lon="13.1718199"><ele>519.0</ele><time>2026-03-29T10:49:31.452Z</time></trkpt><trkpt lat="43.3108319" lon="13.171865"><ele>519.0</ele><time>2026-03-29T10:49:32.42Z</time></trkpt><trkpt lat="43.3109296" lon="13.1719137"><ele>519.0</ele><time>2026-03-29T10:49:33.423Z</time></trkpt><trkpt lat="43.311025" lon="13.1719667"><ele>519.0</ele><time>2026-03-29T10:49:34.433Z</time></trkpt><trkpt lat="43.3111113" lon="13.1720199"><ele>519.0</ele><time>2026-03-29T10:49:35.426Z</time></trkpt><trkpt lat="43.3111985" lon="13.172076"><ele>519.0</ele><time>2026-03-29T10:49:36.452Z</time></trkpt><trkpt lat="43.311286" lon="13.1721426"><ele>519.0</ele><time>2026-03-29T10:49:37.419Z</time></trkpt><trkpt lat="43.3113759" lon="13.172223"><ele>519.0</ele><time>2026-03-29T10:49:38.42Z</time></trkpt><trkpt lat="43.3114599" lon="13.1723099"><ele>519.0</ele><time>2026-03-29T10:49:39.444Z</time></trkpt><trkpt lat="43.3115506" lon="13.1724034"><ele>519.0</ele><time>2026-03-29T10:49:40.4Z</time></trkpt><trkpt lat="43.3116448" lon="13.1725064"><ele>519.0</ele><time>2026-03-29T10:49:41.397Z</time></trkpt><trkpt lat="43.3117376" lon="13.1726032"><ele>517.4</ele><time>2026-03-29T10:49:42.396Z</time></trkpt><trkpt lat="43.3118227" lon="13.1726964"><ele>515.8</ele><time>2026-03-29T10:49:43.399Z</time></trkpt><trkpt lat="43.3119148" lon="13.1727889"><ele>514.2</ele><time>2026-03-29T10:49:44.449Z</time></trkpt><trkpt lat="43.3120002" lon="13.1728807"><ele>512.6</ele><time>2026-03-29T10:49:45.434Z</time></trkpt><trkpt lat="43.3120844" lon="13.1729683"><ele>511.0</ele><time>2026-03-29T10:49:46.424Z</time></trkpt><trkpt lat="43.3121673" lon="13.1730543"><ele>511.4</ele><time>2026-03-29T10:49:47.42Z</time></trkpt><trkpt lat="43.3122496" lon="13.1731383"><ele>511.8</ele><time>2026-03-29T10:49:48.377Z</time></trkpt><trkpt lat="43.3123318" lon="13.1732127"><ele>512.1999999999999</ele><time>2026-03-29T10:49:49.406Z</time></trkpt><trkpt lat="43.3124217" lon="13.1732991"><ele>512.6</ele><time>2026-03-29T10:49:50.41Z</time></trkpt><trkpt lat="43.3125122" lon="13.17339"><ele>513.0</ele><time>2026-03-29T10:49:51.408Z</time></trkpt><trkpt lat="43.3126042" lon="13.1734789"><ele>511.0</ele><time>2026-03-29T10:49:52.399Z</time></trkpt><trkpt lat="43.3126979" lon="13.1735688"><ele>509.0</ele><time>2026-03-29T10:49:53.407Z</time></trkpt><trkpt lat="43.3127917" lon="13.173662"><ele>507.0</ele><time>2026-03-29T10:49:54.385Z</time></trkpt><trkpt lat="43.3128805" lon="13.1737597"><ele>505.0</ele><time>2026-03-29T10:49:55.446Z</time></trkpt><trkpt lat="43.3129575" lon="13.1738684"><ele>505.0</ele><time>2026-03-29T10:49:56.425Z</time></trkpt><trkpt lat="43.3130254" lon="13.1739894"><ele>505.0</ele><time>2026-03-29T10:49:57.435Z</time></trkpt><trkpt lat="43.3130773" lon="13.1741198"><ele>505.0</ele><time>2026-03-29T10:49:58.427Z</time></trkpt><trkpt lat="43.3131243" lon="13.174246"><ele>505.0</ele><time>2026-03-29T10:49:59.429Z</time></trkpt><trkpt lat="43.3131604" lon="13.1743808"><ele>505.0</ele><time>2026-03-29T10:50:00.439Z</time></trkpt><trkpt lat="43.3131654" lon="13.1745208"><ele>504.4</ele><time>2026-03-29T10:50:01.452Z</time></trkpt><trkpt lat="43.313148" lon="13.1746596"><ele>503.8</ele><time>2026-03-29T10:50:02.4Z</time></trkpt><trkpt lat="43.3131189" lon="13.1748032"><ele>503.20000000000005</ele><time>2026-03-29T10:50:03.444Z</time></trkpt><trkpt lat="43.3130735" lon="13.1749411"><ele>502.6</ele><time>2026-03-29T10:50:04.449Z</time></trkpt><trkpt lat="43.3130242" lon="13.1750902"><ele>502.0</ele><time>2026-03-29T10:50:05.442Z</time></trkpt><trkpt lat="43.3129756" lon="13.1752383"><ele>502.0</ele><time>2026-03-29T10:50:06.389Z</time></trkpt><trkpt lat="43.3129404" lon="13.1753959"><ele>502.0</ele><time>2026-03-29T10:50:07.441Z</time></trkpt><trkpt lat="43.3129317" lon="13.1755547"><ele>502.0</ele><time>2026-03-29T10:50:08.437Z</time></trkpt><trkpt lat="43.3129464" lon="13.1757079"><ele>502.0</ele><time>2026-03-29T10:50:09.433Z</time></trkpt><trkpt lat="43.312974" lon="13.1758476"><ele>498.40000000000003</ele><time>2026-03-29T10:50:10.438Z</time></trkpt><trkpt lat="43.3130204" lon="13.1759818"><ele>494.80000000000007</ele><time>2026-03-29T10:50:11.443Z</time></trkpt><trkpt lat="43.3130895" lon="13.1761057"><ele>491.2</ele><time>2026-03-29T10:50:12.431Z</time></trkpt><trkpt lat="43.3131619" lon="13.1762199"><ele>487.6</ele><time>2026-03-29T10:50:13.431Z</time></trkpt><trkpt lat="43.3132337" lon="13.1763267"><ele>484.0</ele><time>2026-03-29T10:50:14.42Z</time></trkpt><trkpt lat="43.3132977" lon="13.1764309"><ele>482.83333333333337</ele><time>2026-03-29T10:50:15.431Z</time></trkpt><trkpt lat="43.3133574" lon="13.1765384"><ele>481.6666666666667</ele><time>2026-03-29T10:50:16.44Z</time></trkpt><trkpt lat="43.3133849" lon="13.1766514"><ele>480.5</ele><time>2026-03-29T10:50:17.439Z</time></trkpt><trkpt lat="43.3133673" lon="13.1767552"><ele>479.33333333333337</ele><time>2026-03-29T10:50:18.439Z</time></trkpt><trkpt lat="43.3133264" lon="13.1768598"><ele>478.1666666666667</ele><time>2026-03-29T10:50:19.417Z</time></trkpt><trkpt lat="43.3132578" lon="13.1769308"><ele>477.0</ele><time>2026-03-29T10:50:20.439Z</time></trkpt><trkpt lat="43.3131647" lon="13.1769741"><ele>476.3333333333333</ele><time>2026-03-29T10:50:21.428Z</time></trkpt><trkpt lat="43.313067" lon="13.1769875"><ele>475.66666666666663</ele><time>2026-03-29T10:50:22.435Z</time></trkpt><trkpt lat="43.3129772" lon="13.1770027"><ele>475.0</ele><time>2026-03-29T10:50:23.423Z</time></trkpt><trkpt lat="43.3129058" lon="13.1770566"><ele>474.3333333333333</ele><time>2026-03-29T10:50:24.438Z</time></trkpt><trkpt lat="43.3128572" lon="13.1771621"><ele>473.66666666666663</ele><time>2026-03-29T10:50:25.44Z</time></trkpt><trkpt lat="43.3128438" lon="13.177271"><ele>473.0</ele><time>2026-03-29T10:50:26.433Z</time></trkpt><trkpt lat="43.3128388" lon="13.1773737"><ele>471.99999999999994</ele><time>2026-03-29T10:50:27.435Z</time></trkpt><trkpt lat="43.3128319" lon="13.1775323"><ele>471.0</ele><time>2026-03-29T10:50:29.447Z</time></trkpt><trkpt lat="43.3128518" lon="13.1776298"><ele>470.0</ele><time>2026-03-29T10:50:31.434Z</time></trkpt><trkpt lat="43.3128363" lon="13.1777253"><ele>469.0</ele><time>2026-03-29T10:50:34.441Z</time></trkpt><trkpt lat="43.3128264" lon="13.1778595"><ele>467.99999999999994</ele><time>2026-03-29T10:50:38.419Z</time></trkpt><trkpt lat="43.3128743" lon="13.1779313"><ele>467.0</ele><time>2026-03-29T10:50:39.398Z</time></trkpt><trkpt lat="43.312931" lon="13.1780082"><ele>467.0</ele><time>2026-03-29T10:50:40.424Z</time></trkpt><trkpt lat="43.3129971" lon="13.1780871"><ele>467.00000000000006</ele><time>2026-03-29T10:50:41.439Z</time></trkpt><trkpt lat="43.3130707" lon="13.1781717"><ele>467.00000000000006</ele><time>2026-03-29T10:50:42.42Z</time></trkpt><trkpt lat="43.3131516" lon="13.1782639"><ele>467.0</ele><time>2026-03-29T10:50:43.436Z</time></trkpt><trkpt lat="43.3132322" lon="13.1783613"><ele>467.0</ele><time>2026-03-29T10:50:44.429Z</time></trkpt><trkpt lat="43.3133211" lon="13.1784595"><ele>466.75</ele><time>2026-03-29T10:50:45.446Z</time></trkpt><trkpt lat="43.3134073" lon="13.178562"><ele>466.5</ele><time>2026-03-29T10:50:46.426Z</time></trkpt><trkpt lat="43.3134951" lon="13.1786622"><ele>466.25</ele><time>2026-03-29T10:50:47.434Z</time></trkpt><trkpt lat="43.3135839" lon="13.178759"><ele>466.0</ele><time>2026-03-29T10:50:48.423Z</time></trkpt><trkpt lat="43.3136696" lon="13.1788553"><ele>466.0</ele><time>2026-03-29T10:50:49.422Z</time></trkpt><trkpt lat="43.3137584" lon="13.178953"><ele>466.0</ele><time>2026-03-29T10:50:50.483Z</time></trkpt><trkpt lat="43.3138557" lon="13.179047"><ele>466.0</ele><time>2026-03-29T10:50:51.41Z</time></trkpt><trkpt lat="43.313953" lon="13.179139"><ele>466.0</ele><time>2026-03-29T10:50:52.443Z</time></trkpt><trkpt lat="43.3140511" lon="13.1792409"><ele>466.75</ele><time>2026-03-29T10:50:53.396Z</time></trkpt><trkpt lat="43.3141499" lon="13.1793374"><ele>467.5</ele><time>2026-03-29T10:50:54.387Z</time></trkpt><trkpt lat="43.3142489" lon="13.1794335"><ele>468.25</ele><time>2026-03-29T10:50:55.444Z</time></trkpt><trkpt lat="43.3143496" lon="13.1795357"><ele>469.0</ele><time>2026-03-29T10:50:56.419Z</time></trkpt><trkpt lat="43.3144517" lon="13.1796425"><ele>469.0</ele><time>2026-03-29T10:50:57.43Z</time></trkpt><trkpt lat="43.314554" lon="13.1797506"><ele>469.0</ele><time>2026-03-29T10:50:58.437Z</time></trkpt><trkpt lat="43.3146418" lon="13.1798651"><ele>469.0</ele><time>2026-03-29T10:50:59.434Z</time></trkpt><trkpt lat="43.3146915" lon="13.180008"><ele>469.0</ele><time>2026-03-29T10:51:00.434Z</time></trkpt><trkpt lat="43.3147123" lon="13.1801662"><ele>470.79999999999995</ele><time>2026-03-29T10:51:01.439Z</time></trkpt><trkpt lat="43.3147256" lon="13.1803286"><ele>472.59999999999997</ele><time>2026-03-29T10:51:02.432Z</time></trkpt><trkpt lat="43.3147341" lon="13.1804668"><ele>474.4</ele><time>2026-03-29T10:51:03.437Z</time></trkpt><trkpt lat="43.3147369" lon="13.1805994"><ele>476.2</ele><time>2026-03-29T10:51:04.438Z</time></trkpt><trkpt lat="43.314742" lon="13.1807169"><ele>478.0</ele><time>2026-03-29T10:51:05.411Z</time></trkpt><trkpt lat="43.3147545" lon="13.1808098"><ele>478.2</ele><time>2026-03-29T10:51:06.431Z</time></trkpt><trkpt lat="43.3146877" lon="13.1809058"><ele>478.4</ele><time>2026-03-29T10:51:08.436Z</time></trkpt><trkpt lat="43.3146" lon="13.180854"><ele>478.59999999999997</ele><time>2026-03-29T10:51:10.436Z</time></trkpt><trkpt lat="43.3145239" lon="13.1807399"><ele>478.79999999999995</ele><time>2026-03-29T10:51:12.435Z</time></trkpt><trkpt lat="43.3144509" lon="13.1806197"><ele>479.0</ele><time>2026-03-29T10:51:14.437Z</time></trkpt><trkpt lat="43.3143402" lon="13.1805244"><ele>478.99999999999994</ele><time>2026-03-29T10:51:16.425Z</time></trkpt><trkpt lat="43.3142739" lon="13.1804976"><ele>479.0</ele><time>2026-03-29T10:51:17.384Z</time></trkpt><trkpt lat="43.3141943" lon="13.1804779"><ele>479.0</ele><time>2026-03-29T10:51:18.424Z</time></trkpt><trkpt lat="43.3141116" lon="13.1804646"><ele>479.0</ele><time>2026-03-29T10:51:19.428Z</time></trkpt><trkpt lat="43.3140216" lon="13.1804536"><ele>478.99999999999994</ele><time>2026-03-29T10:51:20.435Z</time></trkpt><trkpt lat="43.3139204" lon="13.1804479"><ele>479.0</ele><time>2026-03-29T10:51:21.434Z</time></trkpt><trkpt lat="43.3138147" lon="13.1804451"><ele>481.4</ele><time>2026-03-29T10:51:22.437Z</time></trkpt><trkpt lat="43.31371" lon="13.1804391"><ele>483.79999999999995</ele><time>2026-03-29T10:51:23.44Z</time></trkpt><trkpt lat="43.3136007" lon="13.1804301"><ele>486.20000000000005</ele><time>2026-03-29T10:51:24.449Z</time></trkpt><trkpt lat="43.313493" lon="13.1804199"><ele>488.6</ele><time>2026-03-29T10:51:25.438Z</time></trkpt><trkpt lat="43.3133843" lon="13.1804059"><ele>491.0</ele><time>2026-03-29T10:51:26.442Z</time></trkpt><trkpt lat="43.3132851" lon="13.1803938"><ele>491.0</ele><time>2026-03-29T10:51:27.439Z</time></trkpt><trkpt lat="43.3131941" lon="13.180384"><ele>490.99999999999994</ele><time>2026-03-29T10:51:28.433Z</time></trkpt><trkpt lat="43.3131161" lon="13.180379"><ele>491.0</ele><time>2026-03-29T10:51:29.429Z</time></trkpt><trkpt lat="43.3130469" lon="13.1803733"><ele>491.0</ele><time>2026-03-29T10:51:30.435Z</time></trkpt><trkpt lat="43.3129806" lon="13.1803689"><ele>490.99999999999994</ele><time>2026-03-29T10:51:31.443Z</time></trkpt><trkpt lat="43.3129167" lon="13.1803686"><ele>491.0</ele><time>2026-03-29T10:51:32.442Z</time></trkpt><trkpt lat="43.3128529" lon="13.1803894"><ele>491.0</ele><time>2026-03-29T10:51:33.434Z</time></trkpt><trkpt lat="43.3128107" lon="13.1804556"><ele>492.16666666666663</ele><time>2026-03-29T10:51:34.444Z</time></trkpt><trkpt lat="43.3128225" lon="13.1806189"><ele>493.3333333333333</ele><time>2026-03-29T10:51:36.431Z</time></trkpt><trkpt lat="43.3128542" lon="13.1806978"><ele>494.5</ele><time>2026-03-29T10:51:37.413Z</time></trkpt><trkpt lat="43.3128891" lon="13.1807707"><ele>495.66666666666663</ele><time>2026-03-29T10:51:38.458Z</time></trkpt><trkpt lat="43.3129203" lon="13.1808494"><ele>496.8333333333333</ele><time>2026-03-29T10:51:39.442Z</time></trkpt><trkpt lat="43.3129473" lon="13.1809418"><ele>498.0</ele><time>2026-03-29T10:51:40.403Z</time></trkpt><trkpt lat="43.3129694" lon="13.1810393"><ele>499.8333333333333</ele><time>2026-03-29T10:51:41.444Z</time></trkpt><trkpt lat="43.312981" lon="13.1811475"><ele>501.66666666666663</ele><time>2026-03-29T10:51:42.442Z</time></trkpt><trkpt lat="43.3129855" lon="13.1812588"><ele>503.5</ele><time>2026-03-29T10:51:43.442Z</time></trkpt><trkpt lat="43.3129716" lon="13.1813714"><ele>505.3333333333333</ele><time>2026-03-29T10:51:44.431Z</time></trkpt><trkpt lat="43.3129358" lon="13.1814818"><ele>507.16666666666663</ele><time>2026-03-29T10:51:45.417Z</time></trkpt><trkpt lat="43.312892" lon="13.1815725"><ele>509.0</ele><time>2026-03-29T10:51:46.438Z</time></trkpt><trkpt lat="43.3128428" lon="13.1816595"><ele>510.3333333333333</ele><time>2026-03-29T10:51:47.455Z</time></trkpt><trkpt lat="43.3127762" lon="13.1817388"><ele>511.66666666666663</ele><time>2026-03-29T10:51:48.431Z</time></trkpt><trkpt lat="43.3127085" lon="13.1818063"><ele>513.0</ele><time>2026-03-29T10:51:49.425Z</time></trkpt><trkpt lat="43.3126319" lon="13.1818746"><ele>514.3333333333334</ele><time>2026-03-29T10:51:50.418Z</time></trkpt><trkpt lat="43.3125595" lon="13.1819365"><ele>515.6666666666667</ele><time>2026-03-29T10:51:51.376Z</time></trkpt><trkpt lat="43.3124892" lon="13.1820091"><ele>517.0</ele><time>2026-03-29T10:51:52.42Z</time></trkpt><trkpt lat="43.3124173" lon="13.1820859"><ele>517.0</ele><time>2026-03-29T10:51:53.408Z</time></trkpt><trkpt lat="43.312333" lon="13.1821677"><ele>517.0</ele><time>2026-03-29T10:51:54.422Z</time></trkpt><trkpt lat="43.3122622" lon="13.1822506"><ele>517.0</ele><time>2026-03-29T10:51:55.398Z</time></trkpt><trkpt lat="43.3121833" lon="13.1823464"><ele>517.0</ele><time>2026-03-29T10:51:56.385Z</time></trkpt><trkpt lat="43.3121093" lon="13.1824341"><ele>517.0</ele><time>2026-03-29T10:51:57.372Z</time></trkpt><trkpt lat="43.3120391" lon="13.1825292"><ele>518.0</ele><time>2026-03-29T10:51:58.395Z</time></trkpt><trkpt lat="43.3119793" lon="13.1826234"><ele>519.0</ele><time>2026-03-29T10:51:59.448Z</time></trkpt><trkpt lat="43.3119184" lon="13.1827129"><ele>520.0</ele><time>2026-03-29T10:52:00.431Z</time></trkpt><trkpt lat="43.3118604" lon="13.1828056"><ele>521.0</ele><time>2026-03-29T10:52:01.426Z</time></trkpt><trkpt lat="43.3118073" lon="13.1828984"><ele>522.0</ele><time>2026-03-29T10:52:02.387Z</time></trkpt><trkpt lat="43.3117611" lon="13.1829777"><ele>523.0</ele><time>2026-03-29T10:52:03.608Z</time></trkpt><trkpt lat="43.3116939" lon="13.1830909"><ele>524.5</ele><time>2026-03-29T10:52:05.42Z</time></trkpt><trkpt lat="43.3116379" lon="13.1831866"><ele>526.0</ele><time>2026-03-29T10:52:09.412Z</time></trkpt><trkpt lat="43.3115935" lon="13.1832593"><ele>527.5</ele><time>2026-03-29T10:52:11.412Z</time></trkpt><trkpt lat="43.3115441" lon="13.183314"><ele>529.0</ele><time>2026-03-29T10:52:15.438Z</time></trkpt><trkpt lat="43.3114719" lon="13.1833777"><ele>530.5</ele><time>2026-03-29T10:52:18.436Z</time></trkpt><trkpt lat="43.3114232" lon="13.1834486"><ele>532.0</ele><time>2026-03-29T10:52:24.446Z</time></trkpt><trkpt lat="43.3113597" lon="13.1834974"><ele>532.0</ele><time>2026-03-29T10:52:26.429Z</time></trkpt><trkpt lat="43.3112771" lon="13.1835402"><ele>532.0</ele><time>2026-03-29T10:52:28.429Z</time></trkpt><trkpt lat="43.3111827" lon="13.1835488"><ele>532.0</ele><time>2026-03-29T10:52:30.419Z</time></trkpt><trkpt lat="43.3110931" lon="13.1835469"><ele>532.0</ele><time>2026-03-29T10:52:32.437Z</time></trkpt><trkpt lat="43.3110123" lon="13.1835412"><ele>532.0</ele><time>2026-03-29T10:52:34.403Z</time></trkpt><trkpt lat="43.3109039" lon="13.1835204"><ele>532.0</ele><time>2026-03-29T10:52:36.41Z</time></trkpt><trkpt lat="43.310787" lon="13.1834824"><ele>532.0</ele><time>2026-03-29T10:52:38.416Z</time></trkpt><trkpt lat="43.3106916" lon="13.183465"><ele>532.0</ele><time>2026-03-29T10:52:40.402Z</time></trkpt><trkpt lat="43.3105678" lon="13.1834235"><ele>532.0</ele><time>2026-03-29T10:52:42.445Z</time></trkpt><trkpt lat="43.3104998" lon="13.1834005"><ele>532.0</ele><time>2026-03-29T10:52:43.421Z</time></trkpt><trkpt lat="43.3104352" lon="13.1833734"><ele>528.0</ele><time>2026-03-29T10:52:44.447Z</time></trkpt><trkpt lat="43.3103723" lon="13.1833378"><ele>524.0</ele><time>2026-03-29T10:52:45.426Z</time></trkpt><trkpt lat="43.3103005" lon="13.1833075"><ele>520.0</ele><time>2026-03-29T10:52:46.439Z</time></trkpt><trkpt lat="43.3102194" lon="13.1832845"><ele>516.0</ele><time>2026-03-29T10:52:47.409Z</time></trkpt><trkpt lat="43.3101347" lon="13.1832604"><ele>512.0</ele><time>2026-03-29T10:52:48.426Z</time></trkpt><trkpt lat="43.310053" lon="13.1832363"><ele>508.0</ele><time>2026-03-29T10:52:49.431Z</time></trkpt><trkpt lat="43.3099766" lon="13.183203"><ele>510.2</ele><time>2026-03-29T10:52:50.416Z</time></trkpt><trkpt lat="43.3099018" lon="13.1831679"><ele>512.4</ele><time>2026-03-29T10:52:51.433Z</time></trkpt><trkpt lat="43.3098148" lon="13.1831287"><ele>514.5999999999999</ele><time>2026-03-29T10:52:52.416Z</time></trkpt><trkpt lat="43.3097243" lon="13.1830933"><ele>516.8</ele><time>2026-03-29T10:52:53.368Z</time></trkpt><trkpt lat="43.3096296" lon="13.1830596"><ele>519.0</ele><time>2026-03-29T10:52:54.382Z</time></trkpt><trkpt lat="43.3095351" lon="13.1830182"><ele>515.1666666666666</ele><time>2026-03-29T10:52:55.429Z</time></trkpt><trkpt lat="43.3094518" lon="13.1829688"><ele>511.33333333333337</ele><time>2026-03-29T10:52:56.442Z</time></trkpt><trkpt lat="43.3093627" lon="13.1829189"><ele>507.5</ele><time>2026-03-29T10:52:57.426Z</time></trkpt><trkpt lat="43.3092827" lon="13.1828624"><ele>503.6666666666667</ele><time>2026-03-29T10:52:58.435Z</time></trkpt><trkpt lat="43.3092113" lon="13.1828045"><ele>499.83333333333337</ele><time>2026-03-29T10:52:59.437Z</time></trkpt><trkpt lat="43.3091471" lon="13.1827495"><ele>496.0</ele><time>2026-03-29T10:53:00.421Z</time></trkpt><trkpt lat="43.3090748" lon="13.1826995"><ele>496.00000000000006</ele><time>2026-03-29T10:53:01.442Z</time></trkpt><trkpt lat="43.3089966" lon="13.1826483"><ele>496.0</ele><time>2026-03-29T10:53:02.435Z</time></trkpt><trkpt lat="43.3089198" lon="13.1826293"><ele>496.0</ele><time>2026-03-29T10:53:03.444Z</time></trkpt><trkpt lat="43.308854" lon="13.1825992"><ele>496.0</ele><time>2026-03-29T10:53:04.412Z</time></trkpt><trkpt lat="43.3087949" lon="13.1825543"><ele>496.00000000000006</ele><time>2026-03-29T10:53:05.432Z</time></trkpt><trkpt lat="43.3087349" lon="13.1825047"><ele>496.0</ele><time>2026-03-29T10:53:06.438Z</time></trkpt><trkpt lat="43.308662" lon="13.1824562"><ele>491.0</ele><time>2026-03-29T10:53:07.432Z</time></trkpt><trkpt lat="43.3085782" lon="13.1824199"><ele>486.0</ele><time>2026-03-29T10:53:08.443Z</time></trkpt><trkpt lat="43.3084885" lon="13.182394"><ele>481.0</ele><time>2026-03-29T10:53:09.426Z</time></trkpt><trkpt lat="43.3083912" lon="13.1823811"><ele>476.0</ele><time>2026-03-29T10:53:10.432Z</time></trkpt><trkpt lat="43.3082945" lon="13.1823692"><ele>471.0</ele><time>2026-03-29T10:53:11.385Z</time></trkpt><trkpt lat="43.3082019" lon="13.1823707"><ele>471.0</ele><time>2026-03-29T10:53:12.44Z</time></trkpt><trkpt lat="43.3081042" lon="13.1823837"><ele>471.0</ele><time>2026-03-29T10:53:13.452Z</time></trkpt><trkpt lat="43.3080113" lon="13.1824025"><ele>471.0</ele><time>2026-03-29T10:53:14.438Z</time></trkpt><trkpt lat="43.3079246" lon="13.1824232"><ele>471.0</ele><time>2026-03-29T10:53:15.435Z</time></trkpt><trkpt lat="43.3078348" lon="13.1824436"><ele>471.0</ele><time>2026-03-29T10:53:16.425Z</time></trkpt><trkpt lat="43.3077492" lon="13.1824697"><ele>469.0</ele><time>2026-03-29T10:53:17.402Z</time></trkpt><trkpt lat="43.3076768" lon="13.1825016"><ele>467.0</ele><time>2026-03-29T10:53:18.408Z</time></trkpt><trkpt lat="43.3075151" lon="13.18257"><ele>465.0</ele><time>2026-03-29T10:53:21.522Z</time></trkpt><trkpt lat="43.3073936" lon="13.1825911"><ele>463.0</ele><time>2026-03-29T10:53:23.418Z</time></trkpt><trkpt lat="43.3073257" lon="13.1825784"><ele>461.0</ele><time>2026-03-29T10:53:24.426Z</time></trkpt><trkpt lat="43.307251" lon="13.1825619"><ele>458.49999999999994</ele><time>2026-03-29T10:53:25.424Z</time></trkpt><trkpt lat="43.3071713" lon="13.1825509"><ele>456.0</ele><time>2026-03-29T10:53:26.403Z</time></trkpt><trkpt lat="43.3070874" lon="13.1825444"><ele>453.5</ele><time>2026-03-29T10:53:27.447Z</time></trkpt><trkpt lat="43.3070065" lon="13.1825352"><ele>451.0</ele><time>2026-03-29T10:53:28.408Z</time></trkpt><trkpt lat="43.3069286" lon="13.182529"><ele>448.49999999999994</ele><time>2026-03-29T10:53:29.441Z</time></trkpt><trkpt lat="43.3068497" lon="13.1825338"><ele>446.0</ele><time>2026-03-29T10:53:30.427Z</time></trkpt><trkpt lat="43.3067732" lon="13.1825689"><ele>446.0</ele><time>2026-03-29T10:53:31.445Z</time></trkpt><trkpt lat="43.3066926" lon="13.1826326"><ele>446.0</ele><time>2026-03-29T10:53:32.417Z</time></trkpt><trkpt lat="43.3066248" lon="13.1826966"><ele>446.0</ele><time>2026-03-29T10:53:33.442Z</time></trkpt><trkpt lat="43.3065503" lon="13.1827691"><ele>446.0</ele><time>2026-03-29T10:53:34.439Z</time></trkpt><trkpt lat="43.306473" lon="13.1828463"><ele>446.0</ele><time>2026-03-29T10:53:35.433Z</time></trkpt><trkpt lat="43.3064028" lon="13.1829397"><ele>443.20000000000005</ele><time>2026-03-29T10:53:36.439Z</time></trkpt><trkpt lat="43.3063399" lon="13.1830473"><ele>440.40000000000003</ele><time>2026-03-29T10:53:37.427Z</time></trkpt><trkpt lat="43.3062818" lon="13.1831638"><ele>437.6</ele><time>2026-03-29T10:53:38.421Z</time></trkpt><trkpt lat="43.3062349" lon="13.1832846"><ele>434.8</ele><time>2026-03-29T10:53:39.389Z</time></trkpt><trkpt lat="43.3061927" lon="13.1833983"><ele>432.0</ele><time>2026-03-29T10:53:40.444Z</time></trkpt><trkpt lat="43.3061483" lon="13.1835083"><ele>432.0</ele><time>2026-03-29T10:53:41.428Z</time></trkpt><trkpt lat="43.3060967" lon="13.1836065"><ele>432.00000000000006</ele><time>2026-03-29T10:53:42.441Z</time></trkpt><trkpt lat="43.3060383" lon="13.1836866"><ele>432.00000000000006</ele><time>2026-03-29T10:53:43.429Z</time></trkpt><trkpt lat="43.305991" lon="13.1837672"><ele>432.0</ele><time>2026-03-29T10:53:44.425Z</time></trkpt><trkpt lat="43.3059716" lon="13.1838517"><ele>432.0</ele><time>2026-03-29T10:53:45.421Z</time></trkpt><trkpt lat="43.3060408" lon="13.184019"><ele>431.8</ele><time>2026-03-29T10:53:47.402Z</time></trkpt><trkpt lat="43.3061046" lon="13.1841029"><ele>431.6</ele><time>2026-03-29T10:53:48.436Z</time></trkpt><trkpt lat="43.3061724" lon="13.1841939"><ele>431.40000000000003</ele><time>2026-03-29T10:53:49.447Z</time></trkpt><trkpt lat="43.3062385" lon="13.1843073"><ele>431.20000000000005</ele><time>2026-03-29T10:53:50.447Z</time></trkpt><trkpt lat="43.3063034" lon="13.1844537"><ele>431.0</ele><time>2026-03-29T10:53:51.436Z</time></trkpt><trkpt lat="43.3063545" lon="13.1845992"><ele>431.0</ele><time>2026-03-29T10:53:52.422Z</time></trkpt><trkpt lat="43.3064012" lon="13.18475"><ele>431.0</ele><time>2026-03-29T10:53:53.431Z</time></trkpt><trkpt lat="43.3064585" lon="13.1848954"><ele>431.0</ele><time>2026-03-29T10:53:54.383Z</time></trkpt><trkpt lat="43.3065434" lon="13.1850112"><ele>431.0</ele><time>2026-03-29T10:53:55.443Z</time></trkpt><trkpt lat="43.3066492" lon="13.1850856"><ele>428.25</ele><time>2026-03-29T10:53:56.424Z</time></trkpt><trkpt lat="43.3067545" lon="13.1851379"><ele>425.5</ele><time>2026-03-29T10:53:57.417Z</time></trkpt><trkpt lat="43.3068641" lon="13.1852055"><ele>422.75</ele><time>2026-03-29T10:53:58.411Z</time></trkpt><trkpt lat="43.3069564" lon="13.1853102"><ele>420.0</ele><time>2026-03-29T10:53:59.428Z</time></trkpt><trkpt lat="43.307031" lon="13.1854353"><ele>420.0</ele><time>2026-03-29T10:54:00.417Z</time></trkpt><trkpt lat="43.3070874" lon="13.1855746"><ele>420.0</ele><time>2026-03-29T10:54:01.447Z</time></trkpt><trkpt lat="43.3071445" lon="13.1857019"><ele>420.0</ele><time>2026-03-29T10:54:02.457Z</time></trkpt><trkpt lat="43.3072105" lon="13.1858299"><ele>420.0</ele><time>2026-03-29T10:54:03.439Z</time></trkpt><trkpt lat="43.3072885" lon="13.1859634"><ele>419.25</ele><time>2026-03-29T10:54:04.442Z</time></trkpt><trkpt lat="43.3073688" lon="13.1860882"><ele>418.5</ele><time>2026-03-29T10:54:05.408Z</time></trkpt><trkpt lat="43.3074563" lon="13.1862014"><ele>417.75</ele><time>2026-03-29T10:54:06.426Z</time></trkpt><trkpt lat="43.3075404" lon="13.1863199"><ele>417.0</ele><time>2026-03-29T10:54:07.443Z</time></trkpt><trkpt lat="43.3076239" lon="13.1864379"><ele>414.75</ele><time>2026-03-29T10:54:08.428Z</time></trkpt><trkpt lat="43.3076992" lon="13.1865595"><ele>412.5</ele><time>2026-03-29T10:54:09.438Z</time></trkpt><trkpt lat="43.3077733" lon="13.1866773"><ele>410.25</ele><time>2026-03-29T10:54:10.431Z</time></trkpt><trkpt lat="43.3078328" lon="13.1868127"><ele>408.0</ele><time>2026-03-29T10:54:11.438Z</time></trkpt><trkpt lat="43.3078893" lon="13.1869489"><ele>408.0</ele><time>2026-03-29T10:54:12.444Z</time></trkpt><trkpt lat="43.3079362" lon="13.1870899"><ele>408.0</ele><time>2026-03-29T10:54:13.385Z</time></trkpt><trkpt lat="43.3079641" lon="13.1872458"><ele>408.0</ele><time>2026-03-29T10:54:14.417Z</time></trkpt><trkpt lat="43.307953" lon="13.187408"><ele>408.0</ele><time>2026-03-29T10:54:15.441Z</time></trkpt><trkpt lat="43.3079199" lon="13.1875587"><ele>408.25</ele><time>2026-03-29T10:54:16.43Z</time></trkpt><trkpt lat="43.3078892" lon="13.1877174"><ele>408.5</ele><time>2026-03-29T10:54:17.423Z</time></trkpt><trkpt lat="43.3078684" lon="13.1878828"><ele>408.75</ele><time>2026-03-29T10:54:18.417Z</time></trkpt><trkpt lat="43.3078619" lon="13.1880523"><ele>409.0</ele><time>2026-03-29T10:54:19.446Z</time></trkpt><trkpt lat="43.307874" lon="13.1882181"><ele>409.0</ele><time>2026-03-29T10:54:20.448Z</time></trkpt><trkpt lat="43.3079128" lon="13.1883728"><ele>409.0</ele><time>2026-03-29T10:54:21.43Z</time></trkpt><trkpt lat="43.307982" lon="13.1884991"><ele>409.0</ele><time>2026-03-29T10:54:22.423Z</time></trkpt><trkpt lat="43.3080543" lon="13.1885923"><ele>409.0</ele><time>2026-03-29T10:54:23.406Z</time></trkpt><trkpt lat="43.3081053" lon="13.1886686"><ele>409.0</ele><time>2026-03-29T10:54:24.407Z</time></trkpt><trkpt lat="43.3081856" lon="13.1887814"><ele>409.1666666666667</ele><time>2026-03-29T10:54:26.405Z</time></trkpt><trkpt lat="43.3082451" lon="13.1889096"><ele>409.33333333333337</ele><time>2026-03-29T10:54:28.418Z</time></trkpt><trkpt lat="43.3082343" lon="13.1889961"><ele>409.5</ele><time>2026-03-29T10:54:29.422Z</time></trkpt><trkpt lat="43.3081923" lon="13.1890681"><ele>409.66666666666663</ele><time>2026-03-29T10:54:30.438Z</time></trkpt><trkpt lat="43.3080955" lon="13.1891807"><ele>409.8333333333333</ele><time>2026-03-29T10:54:32.419Z</time></trkpt><trkpt lat="43.3080374" lon="13.1892551"><ele>410.0</ele><time>2026-03-29T10:54:33.412Z</time></trkpt><trkpt lat="43.3079698" lon="13.189324"><ele>410.0</ele><time>2026-03-29T10:54:34.43Z</time></trkpt><trkpt lat="43.3078903" lon="13.1894001"><ele>410.0</ele><time>2026-03-29T10:54:35.42Z</time></trkpt><trkpt lat="43.3078038" lon="13.1894872"><ele>410.0</ele><time>2026-03-29T10:54:36.41Z</time></trkpt><trkpt lat="43.3077198" lon="13.1895763"><ele>410.0</ele><time>2026-03-29T10:54:37.427Z</time></trkpt><trkpt lat="43.3076447" lon="13.189669"><ele>410.0</ele><time>2026-03-29T10:54:38.425Z</time></trkpt><trkpt lat="43.3075771" lon="13.1897831"><ele>406.8</ele><time>2026-03-29T10:54:39.424Z</time></trkpt><trkpt lat="43.3075089" lon="13.1899032"><ele>403.6</ele><time>2026-03-29T10:54:40.439Z</time></trkpt><trkpt lat="43.3074404" lon="13.1900205"><ele>400.4</ele><time>2026-03-29T10:54:41.443Z</time></trkpt><trkpt lat="43.3073725" lon="13.1901409"><ele>397.2</ele><time>2026-03-29T10:54:42.424Z</time></trkpt><trkpt lat="43.3073089" lon="13.1902625"><ele>394.0</ele><time>2026-03-29T10:54:43.436Z</time></trkpt><trkpt lat="43.3072416" lon="13.1903871"><ele>392.0</ele><time>2026-03-29T10:54:44.422Z</time></trkpt><trkpt lat="43.3071709" lon="13.1905145"><ele>390.0</ele><time>2026-03-29T10:54:45.448Z</time></trkpt><trkpt lat="43.3071011" lon="13.1906528"><ele>388.0</ele><time>2026-03-29T10:54:46.452Z</time></trkpt><trkpt lat="43.3070252" lon="13.1908087"><ele>386.0</ele><time>2026-03-29T10:54:47.445Z</time></trkpt><trkpt lat="43.3069554" lon="13.1909654"><ele>386.0</ele><time>2026-03-29T10:54:48.411Z</time></trkpt><trkpt lat="43.3068909" lon="13.191139"><ele>386.0</ele><time>2026-03-29T10:54:49.382Z</time></trkpt><trkpt lat="43.3068369" lon="13.1913227"><ele>386.0</ele><time>2026-03-29T10:54:50.435Z</time></trkpt><trkpt lat="43.3067672" lon="13.1915043"><ele>386.0</ele><time>2026-03-29T10:54:51.426Z</time></trkpt><trkpt lat="43.3066772" lon="13.1916631"><ele>386.0</ele><time>2026-03-29T10:54:52.428Z</time></trkpt><trkpt lat="43.3065756" lon="13.1918007"><ele>386.0</ele><time>2026-03-29T10:54:53.448Z</time></trkpt><trkpt lat="43.306468" lon="13.1919487"><ele>386.0</ele><time>2026-03-29T10:54:54.382Z</time></trkpt><trkpt lat="43.3063701" lon="13.1921118"><ele>386.0</ele><time>2026-03-29T10:54:55.441Z</time></trkpt><trkpt lat="43.3062853" lon="13.1922958"><ele>386.0</ele><time>2026-03-29T10:54:56.437Z</time></trkpt><trkpt lat="43.3062219" lon="13.1924829"><ele>386.0</ele><time>2026-03-29T10:54:57.444Z</time></trkpt><trkpt lat="43.3061727" lon="13.192651"><ele>386.0</ele><time>2026-03-29T10:54:58.445Z</time></trkpt><trkpt lat="43.306146" lon="13.1927983"><ele>386.0</ele><time>2026-03-29T10:54:59.429Z</time></trkpt><trkpt lat="43.3061509" lon="13.1929281"><ele>386.0</ele><time>2026-03-29T10:55:00.432Z</time></trkpt><trkpt lat="43.3061607" lon="13.1930334"><ele>386.0</ele><time>2026-03-29T10:55:01.426Z</time></trkpt><trkpt lat="43.3061912" lon="13.193179"><ele>386.0</ele><time>2026-03-29T10:55:03.447Z</time></trkpt><trkpt lat="43.3062744" lon="13.193201"><ele>386.0</ele><time>2026-03-29T10:55:05.419Z</time></trkpt><trkpt lat="43.3063971" lon="13.1930943"><ele>386.0</ele><time>2026-03-29T10:55:07.422Z</time></trkpt><trkpt lat="43.3064944" lon="13.1930239"><ele>389.4</ele><time>2026-03-29T10:55:08.447Z</time></trkpt><trkpt lat="43.3066051" lon="13.1929605"><ele>392.8</ele><time>2026-03-29T10:55:09.452Z</time></trkpt><trkpt lat="43.306701" lon="13.1929091"><ele>396.2</ele><time>2026-03-29T10:55:10.418Z</time></trkpt><trkpt lat="43.3067848" lon="13.1928633"><ele>399.59999999999997</ele><time>2026-03-29T10:55:11.442Z</time></trkpt><trkpt lat="43.3068704" lon="13.192829"><ele>403.0</ele><time>2026-03-29T10:55:12.441Z</time></trkpt><trkpt lat="43.3069538" lon="13.192808"><ele>403.0</ele><time>2026-03-29T10:55:13.44Z</time></trkpt><trkpt lat="43.3070461" lon="13.1928119"><ele>403.0</ele><time>2026-03-29T10:55:14.421Z</time></trkpt><trkpt lat="43.3071427" lon="13.1928325"><ele>403.0</ele><time>2026-03-29T10:55:15.424Z</time></trkpt><trkpt lat="43.3072366" lon="13.1928705"><ele>403.0</ele><time>2026-03-29T10:55:16.442Z</time></trkpt><trkpt lat="43.3073296" lon="13.192932"><ele>403.0</ele><time>2026-03-29T10:55:17.421Z</time></trkpt><trkpt lat="43.3074293" lon="13.1930169"><ele>405.75</ele><time>2026-03-29T10:55:18.429Z</time></trkpt><trkpt lat="43.307521" lon="13.1931307"><ele>408.5</ele><time>2026-03-29T10:55:19.45Z</time></trkpt><trkpt lat="43.3076049" lon="13.1932502"><ele>411.25</ele><time>2026-03-29T10:55:20.445Z</time></trkpt><trkpt lat="43.3076857" lon="13.1933596"><ele>414.0</ele><time>2026-03-29T10:55:21.428Z</time></trkpt><trkpt lat="43.3077702" lon="13.1934684"><ele>416.79999999999995</ele><time>2026-03-29T10:55:22.439Z</time></trkpt><trkpt lat="43.307846" lon="13.193566"><ele>419.59999999999997</ele><time>2026-03-29T10:55:23.43Z</time></trkpt><trkpt lat="43.307931" lon="13.1936505"><ele>422.4</ele><time>2026-03-29T10:55:24.432Z</time></trkpt><trkpt lat="43.3080187" lon="13.1937322"><ele>425.2</ele><time>2026-03-29T10:55:25.454Z</time></trkpt><trkpt lat="43.3081019" lon="13.1938174"><ele>428.0</ele><time>2026-03-29T10:55:26.382Z</time></trkpt><trkpt lat="43.3081874" lon="13.1939095"><ele>428.59999999999997</ele><time>2026-03-29T10:55:27.442Z</time></trkpt><trkpt lat="43.3082731" lon="13.1940037"><ele>429.19999999999993</ele><time>2026-03-29T10:55:28.442Z</time></trkpt><trkpt lat="43.308358" lon="13.1940935"><ele>429.8</ele><time>2026-03-29T10:55:29.437Z</time></trkpt><trkpt lat="43.3084477" lon="13.1941677"><ele>430.4</ele><time>2026-03-29T10:55:30.431Z</time></trkpt><trkpt lat="43.3085367" lon="13.1942185"><ele>431.0</ele><time>2026-03-29T10:55:31.397Z</time></trkpt><trkpt lat="43.3086174" lon="13.1942492"><ele>433.20000000000005</ele><time>2026-03-29T10:55:32.438Z</time></trkpt><trkpt lat="43.3086852" lon="13.1942663"><ele>435.40000000000003</ele><time>2026-03-29T10:55:33.45Z</time></trkpt><trkpt lat="43.3088014" lon="13.1942999"><ele>437.6</ele><time>2026-03-29T10:55:35.432Z</time></trkpt><trkpt lat="43.3089118" lon="13.1943174"><ele>439.8</ele><time>2026-03-29T10:55:37.433Z</time></trkpt><trkpt lat="43.3090123" lon="13.1943118"><ele>442.0</ele><time>2026-03-29T10:55:39.435Z</time></trkpt><trkpt lat="43.3090783" lon="13.1943416"><ele>443.00000000000006</ele><time>2026-03-29T10:55:41.426Z</time></trkpt><trkpt lat="43.3091149" lon="13.1944334"><ele>444.0</ele><time>2026-03-29T10:55:43.425Z</time></trkpt><trkpt lat="43.3090908" lon="13.1945331"><ele>445.0</ele><time>2026-03-29T10:55:45.417Z</time></trkpt><trkpt lat="43.3090436" lon="13.1946388"><ele>446.0</ele><time>2026-03-29T10:55:47.454Z</time></trkpt><trkpt lat="43.3089759" lon="13.1947066"><ele>447.00000000000006</ele><time>2026-03-29T10:55:49.427Z</time></trkpt><trkpt lat="43.3089249" lon="13.1947956"><ele>448.0</ele><time>2026-03-29T10:55:51.426Z</time></trkpt><trkpt lat="43.3088815" lon="13.1948819"><ele>448.00000000000006</ele><time>2026-03-29T10:55:53.442Z</time></trkpt><trkpt lat="43.3088405" lon="13.1949682"><ele>448.0</ele><time>2026-03-29T10:55:55.401Z</time></trkpt><trkpt lat="43.3088071" lon="13.1950868"><ele>448.0</ele><time>2026-03-29T10:55:57.455Z</time></trkpt><trkpt lat="43.3087932" lon="13.195228"><ele>448.0</ele><time>2026-03-29T10:55:59.439Z</time></trkpt><trkpt lat="43.3088017" lon="13.1953396"><ele>448.00000000000006</ele><time>2026-03-29T10:56:01.46Z</time></trkpt><trkpt lat="43.3088204" lon="13.1954515"><ele>448.0</ele><time>2026-03-29T10:56:04.421Z</time></trkpt><trkpt lat="43.3088334" lon="13.1955617"><ele>447.5</ele><time>2026-03-29T10:56:06.438Z</time></trkpt><trkpt lat="43.3088533" lon="13.1957017"><ele>447.0</ele><time>2026-03-29T10:56:08.438Z</time></trkpt><trkpt lat="43.3088888" lon="13.1958513"><ele>446.5</ele><time>2026-03-29T10:56:10.44Z</time></trkpt><trkpt lat="43.3089195" lon="13.1960078"><ele>446.0</ele><time>2026-03-29T10:56:12.433Z</time></trkpt><trkpt lat="43.308957" lon="13.1961733"><ele>449.16666666666663</ele><time>2026-03-29T10:56:14.435Z</time></trkpt><trkpt lat="43.308981" lon="13.1962649"><ele>452.3333333333333</ele><time>2026-03-29T10:56:15.437Z</time></trkpt><trkpt lat="43.3090055" lon="13.196353"><ele>455.5</ele><time>2026-03-29T10:56:16.451Z</time></trkpt><trkpt lat="43.3090369" lon="13.1964338"><ele>458.66666666666663</ele><time>2026-03-29T10:56:17.45Z</time></trkpt><trkpt lat="43.3090617" lon="13.196517"><ele>461.8333333333333</ele><time>2026-03-29T10:56:18.431Z</time></trkpt><trkpt lat="43.3090905" lon="13.1966672"><ele>465.0</ele><time>2026-03-29T10:56:20.435Z</time></trkpt><trkpt lat="43.3091026" lon="13.1968444"><ele>465.0</ele><time>2026-03-29T10:56:22.403Z</time></trkpt><trkpt lat="43.3091033" lon="13.1969336"><ele>465.0</ele><time>2026-03-29T10:56:23.411Z</time></trkpt><trkpt lat="43.3090977" lon="13.1970252"><ele>465.0</ele><time>2026-03-29T10:56:24.431Z</time></trkpt><trkpt lat="43.3090846" lon="13.1971194"><ele>465.0</ele><time>2026-03-29T10:56:25.431Z</time></trkpt><trkpt lat="43.3090608" lon="13.1972104"><ele>465.0</ele><time>2026-03-29T10:56:26.427Z</time></trkpt><trkpt lat="43.3090301" lon="13.197291"><ele>465.0</ele><time>2026-03-29T10:56:27.441Z</time></trkpt><trkpt lat="43.3089691" lon="13.1973972"><ele>465.0</ele><time>2026-03-29T10:56:29.451Z</time></trkpt><trkpt lat="43.3089495" lon="13.1974811"><ele>465.0</ele><time>2026-03-29T10:56:31.438Z</time></trkpt><trkpt lat="43.3090196" lon="13.1975031"><ele>465.0</ele><time>2026-03-29T10:56:33.431Z</time></trkpt><trkpt lat="43.3090807" lon="13.1974598"><ele>465.0</ele><time>2026-03-29T10:56:52.421Z</time></trkpt><trkpt lat="43.3091424" lon="13.1973992"><ele>465.0</ele><time>2026-03-29T10:56:57.415Z</time></trkpt><trkpt lat="43.3091948" lon="13.1973402"><ele>465.0</ele><time>2026-03-29T10:57:11.414Z</time></trkpt><trkpt lat="43.3092832" lon="13.1972672"><ele>465.0</ele><time>2026-03-29T10:57:14.398Z</time></trkpt><trkpt lat="43.3093714" lon="13.19723"><ele>465.0</ele><time>2026-03-29T10:57:16.432Z</time></trkpt><trkpt lat="43.3094354" lon="13.1972443"><ele>465.0</ele><time>2026-03-29T10:57:18.422Z</time></trkpt><trkpt lat="43.3094982" lon="13.1972945"><ele>465.0</ele><time>2026-03-29T10:57:24.432Z</time></trkpt><trkpt lat="43.3095637" lon="13.1973719"><ele>465.0</ele><time>2026-03-29T10:57:28.426Z</time></trkpt><trkpt lat="43.3096143" lon="13.1974392"><ele>465.0</ele><time>2026-03-29T10:57:31.424Z</time></trkpt><trkpt lat="43.3096703" lon="13.1975446"><ele>465.0</ele><time>2026-03-29T10:57:34.43Z</time></trkpt><trkpt lat="43.3097249" lon="13.1976403"><ele>462.0</ele><time>2026-03-29T10:57:36.429Z</time></trkpt><trkpt lat="43.3097662" lon="13.1977207"><ele>459.0</ele><time>2026-03-29T10:57:38.421Z</time></trkpt><trkpt lat="43.3097972" lon="13.197806"><ele>456.0</ele><time>2026-03-29T10:57:40.404Z</time></trkpt><trkpt lat="43.309837" lon="13.1979045"><ele>453.0</ele><time>2026-03-29T10:57:42.394Z</time></trkpt><trkpt lat="43.3098665" lon="13.1980079"><ele>450.0</ele><time>2026-03-29T10:57:44.427Z</time></trkpt><trkpt lat="43.3098888" lon="13.1980973"><ele>447.0</ele><time>2026-03-29T10:57:46.421Z</time></trkpt><trkpt lat="43.3099282" lon="13.1981991"><ele>445.5</ele><time>2026-03-29T10:57:48.425Z</time></trkpt><trkpt lat="43.309965" lon="13.1983002"><ele>444.0</ele><time>2026-03-29T10:57:50.413Z</time></trkpt><trkpt lat="43.3100052" lon="13.1983938"><ele>442.5</ele><time>2026-03-29T10:57:52.391Z</time></trkpt><trkpt lat="43.3100509" lon="13.1985147"><ele>441.0</ele><time>2026-03-29T10:57:54.389Z</time></trkpt><trkpt lat="43.3100872" lon="13.1986268"><ele>439.5</ele><time>2026-03-29T10:57:56.428Z</time></trkpt><trkpt lat="43.3101128" lon="13.1987082"><ele>438.0</ele><time>2026-03-29T10:57:58.439Z</time></trkpt><trkpt lat="43.310136" lon="13.1987947"><ele>438.0</ele><time>2026-03-29T10:58:00.412Z</time></trkpt><trkpt lat="43.3101755" lon="13.198902"><ele>438.0</ele><time>2026-03-29T10:58:02.407Z</time></trkpt><trkpt lat="43.3102036" lon="13.198992"><ele>438.0</ele><time>2026-03-29T10:58:04.381Z</time></trkpt><trkpt lat="43.3102353" lon="13.1990857"><ele>438.0</ele><time>2026-03-29T10:58:06.434Z</time></trkpt><trkpt lat="43.3102718" lon="13.1991709"><ele>438.0</ele><time>2026-03-29T10:58:08.417Z</time></trkpt><trkpt lat="43.3103274" lon="13.1992561"><ele>438.0</ele><time>2026-03-29T10:58:10.412Z</time></trkpt><trkpt lat="43.3103721" lon="13.1993852"><ele>437.5</ele><time>2026-03-29T10:58:12.427Z</time></trkpt><trkpt lat="43.3103646" lon="13.1995208"><ele>437.0</ele><time>2026-03-29T10:58:14.399Z</time></trkpt><trkpt lat="43.3103726" lon="13.1996342"><ele>436.5</ele><time>2026-03-29T10:58:16.411Z</time></trkpt><trkpt lat="43.310389" lon="13.199763"><ele>436.0</ele><time>2026-03-29T10:58:18.402Z</time></trkpt><trkpt lat="43.3103963" lon="13.1998657"><ele>435.5</ele><time>2026-03-29T10:58:20.426Z</time></trkpt><trkpt lat="43.3103918" lon="13.199981"><ele>435.0</ele><time>2026-03-29T11:00:04.42Z</time></trkpt><trkpt lat="43.3104215" lon="13.2001397"><ele>434.8571428571429</ele><time>2026-03-29T11:00:06.379Z</time></trkpt><trkpt lat="43.3104351" lon="13.2002323"><ele>434.7142857142857</ele><time>2026-03-29T11:00:07.396Z</time></trkpt><trkpt lat="43.3104636" lon="13.2003379"><ele>434.57142857142856</ele><time>2026-03-29T11:00:08.382Z</time></trkpt><trkpt lat="43.3105" lon="13.2004325"><ele>434.42857142857144</ele><time>2026-03-29T11:00:09.397Z</time></trkpt><trkpt lat="43.3105335" lon="13.2005192"><ele>434.2857142857143</ele><time>2026-03-29T11:00:10.374Z</time></trkpt><trkpt lat="43.3105583" lon="13.2006154"><ele>434.14285714285717</ele><time>2026-03-29T11:00:11.415Z</time></trkpt><trkpt lat="43.3105751" lon="13.2007112"><ele>434.0</ele><time>2026-03-29T11:00:12.425Z</time></trkpt><trkpt lat="43.3105682" lon="13.2008184"><ele>433.16666666666663</ele><time>2026-03-29T11:00:13.413Z</time></trkpt><trkpt lat="43.310566" lon="13.2009372"><ele>432.3333333333333</ele><time>2026-03-29T11:00:14.394Z</time></trkpt><trkpt lat="43.3105495" lon="13.2010501"><ele>431.5</ele><time>2026-03-29T11:00:15.434Z</time></trkpt><trkpt lat="43.3105108" lon="13.2011439"><ele>430.66666666666663</ele><time>2026-03-29T11:00:16.434Z</time></trkpt><trkpt lat="43.3104434" lon="13.2012219"><ele>429.8333333333333</ele><time>2026-03-29T11:00:17.43Z</time></trkpt><trkpt lat="43.3103635" lon="13.2012926"><ele>429.0</ele><time>2026-03-29T11:00:18.416Z</time></trkpt><trkpt lat="43.3102801" lon="13.2013553"><ele>429.0</ele><time>2026-03-29T11:00:19.444Z</time></trkpt><trkpt lat="43.3102262" lon="13.201427"><ele>429.0</ele><time>2026-03-29T11:00:20.413Z</time></trkpt><trkpt lat="43.310208" lon="13.2015604"><ele>429.0</ele><time>2026-03-29T11:00:22.423Z</time></trkpt><trkpt lat="43.3101959" lon="13.2016823"><ele>429.0</ele><time>2026-03-29T11:00:25.416Z</time></trkpt><trkpt lat="43.3101334" lon="13.2017464"><ele>429.0</ele><time>2026-03-29T11:00:27.385Z</time></trkpt><trkpt lat="43.3100488" lon="13.2016918"><ele>429.0</ele><time>2026-03-29T11:00:29.415Z</time></trkpt><trkpt lat="43.3099487" lon="13.2017339"><ele>429.4</ele><time>2026-03-29T11:00:31.443Z</time></trkpt><trkpt lat="43.3099163" lon="13.2018109"><ele>429.79999999999995</ele><time>2026-03-29T11:00:32.424Z</time></trkpt><trkpt lat="43.3099126" lon="13.2019268"><ele>430.20000000000005</ele><time>2026-03-29T11:00:33.425Z</time></trkpt><trkpt lat="43.3099316" lon="13.2020681"><ele>430.6</ele><time>2026-03-29T11:00:34.419Z</time></trkpt><trkpt lat="43.309962" lon="13.2022192"><ele>431.0</ele><time>2026-03-29T11:00:35.417Z</time></trkpt><trkpt lat="43.3099939" lon="13.202382"><ele>434.0</ele><time>2026-03-29T11:00:36.437Z</time></trkpt><trkpt lat="43.3100121" lon="13.2025523"><ele>437.0</ele><time>2026-03-29T11:00:37.419Z</time></trkpt><trkpt lat="43.3100256" lon="13.202737"><ele>440.0</ele><time>2026-03-29T11:00:38.431Z</time></trkpt><trkpt lat="43.3100331" lon="13.2029349"><ele>443.0</ele><time>2026-03-29T11:00:39.413Z</time></trkpt><trkpt lat="43.3100558" lon="13.2031422"><ele>446.79999999999995</ele><time>2026-03-29T11:00:40.424Z</time></trkpt><trkpt lat="43.3100826" lon="13.203323"><ele>450.59999999999997</ele><time>2026-03-29T11:00:41.408Z</time></trkpt><trkpt lat="43.3100952" lon="13.203463"><ele>454.40000000000003</ele><time>2026-03-29T11:00:42.429Z</time></trkpt><trkpt lat="43.3100908" lon="13.2035711"><ele>458.20000000000005</ele><time>2026-03-29T11:00:43.389Z</time></trkpt><trkpt lat="43.3100752" lon="13.2037196"><ele>462.0</ele><time>2026-03-29T11:00:45.441Z</time></trkpt><trkpt lat="43.3101108" lon="13.2039145"><ele>464.1666666666667</ele><time>2026-03-29T11:00:47.4Z</time></trkpt><trkpt lat="43.3101341" lon="13.2040456"><ele>466.33333333333337</ele><time>2026-03-29T11:00:48.436Z</time></trkpt><trkpt lat="43.3101513" lon="13.2041578"><ele>468.5</ele><time>2026-03-29T11:00:49.433Z</time></trkpt><trkpt lat="43.3101614" lon="13.2042564"><ele>470.6666666666667</ele><time>2026-03-29T11:00:50.409Z</time></trkpt><trkpt lat="43.3101659" lon="13.2043514"><ele>472.83333333333337</ele><time>2026-03-29T11:00:51.436Z</time></trkpt><trkpt lat="43.3101718" lon="13.204446"><ele>475.0</ele><time>2026-03-29T11:00:52.436Z</time></trkpt><trkpt lat="43.3101785" lon="13.2045514"><ele>475.0</ele><time>2026-03-29T11:00:53.422Z</time></trkpt><trkpt lat="43.3101749" lon="13.2046638"><ele>475.0</ele><time>2026-03-29T11:00:54.406Z</time></trkpt><trkpt lat="43.3101543" lon="13.2047746"><ele>475.0</ele><time>2026-03-29T11:00:55.383Z</time></trkpt><trkpt lat="43.3101098" lon="13.2048982"><ele>475.0</ele><time>2026-03-29T11:00:56.438Z</time></trkpt><trkpt lat="43.3100562" lon="13.2050358"><ele>475.0</ele><time>2026-03-29T11:00:57.424Z</time></trkpt><trkpt lat="43.310013" lon="13.2051554"><ele>477.50000000000006</ele><time>2026-03-29T11:00:58.442Z</time></trkpt><trkpt lat="43.3099922" lon="13.2052593"><ele>480.0</ele><time>2026-03-29T11:00:59.434Z</time></trkpt><trkpt lat="43.3099863" lon="13.2053482"><ele>482.5</ele><time>2026-03-29T11:01:00.443Z</time></trkpt><trkpt lat="43.3099642" lon="13.2055071"><ele>485.0</ele><time>2026-03-29T11:01:02.429Z</time></trkpt><trkpt lat="43.3098877" lon="13.2056228"><ele>487.50000000000006</ele><time>2026-03-29T11:01:04.432Z</time></trkpt><trkpt lat="43.3098333" lon="13.2056697"><ele>490.0</ele><time>2026-03-29T11:01:05.45Z</time></trkpt><trkpt lat="43.3097791" lon="13.2057282"><ele>492.0</ele><time>2026-03-29T11:01:06.433Z</time></trkpt><trkpt lat="43.309737" lon="13.2057936"><ele>494.0</ele><time>2026-03-29T11:01:07.435Z</time></trkpt><trkpt lat="43.3096448" lon="13.2058889"><ele>496.0</ele><time>2026-03-29T11:01:09.424Z</time></trkpt><trkpt lat="43.3096604" lon="13.2060247"><ele>498.0</ele><time>2026-03-29T11:01:11.446Z</time></trkpt><trkpt lat="43.3097103" lon="13.2061712"><ele>500.0</ele><time>2026-03-29T11:01:13.404Z</time></trkpt><trkpt lat="43.3097288" lon="13.2062613"><ele>499.99999999999994</ele><time>2026-03-29T11:01:14.419Z</time></trkpt><trkpt lat="43.3097389" lon="13.2063593"><ele>500.0</ele><time>2026-03-29T11:01:15.409Z</time></trkpt><trkpt lat="43.3097311" lon="13.2064468"><ele>500.0</ele><time>2026-03-29T11:01:16.38Z</time></trkpt><trkpt lat="43.3097342" lon="13.2065861"><ele>500.0</ele><time>2026-03-29T11:01:18.423Z</time></trkpt><trkpt lat="43.3097663" lon="13.2067246"><ele>499.99999999999994</ele><time>2026-03-29T11:01:20.416Z</time></trkpt><trkpt lat="43.3098068" lon="13.206857"><ele>500.0</ele><time>2026-03-29T11:01:22.389Z</time></trkpt><trkpt lat="43.3098738" lon="13.2070021"><ele>504.6</ele><time>2026-03-29T11:01:24.407Z</time></trkpt><trkpt lat="43.3099333" lon="13.2071446"><ele>509.2</ele><time>2026-03-29T11:01:26.438Z</time></trkpt><trkpt lat="43.3099663" lon="13.2072352"><ele>513.8</ele><time>2026-03-29T11:01:27.451Z</time></trkpt><trkpt lat="43.3099987" lon="13.2073384"><ele>518.4</ele><time>2026-03-29T11:01:28.41Z</time></trkpt><trkpt lat="43.3100336" lon="13.2074493"><ele>523.0</ele><time>2026-03-29T11:01:29.423Z</time></trkpt><trkpt lat="43.3100849" lon="13.2075682"><ele>526.6</ele><time>2026-03-29T11:01:30.438Z</time></trkpt><trkpt lat="43.3101499" lon="13.2076923"><ele>530.1999999999999</ele><time>2026-03-29T11:01:31.411Z</time></trkpt><trkpt lat="43.3102038" lon="13.207807"><ele>533.8</ele><time>2026-03-29T11:01:32.449Z</time></trkpt><trkpt lat="43.3102416" lon="13.2078901"><ele>537.4</ele><time>2026-03-29T11:01:33.382Z</time></trkpt><trkpt lat="43.3102726" lon="13.2080388"><ele>541.0</ele><time>2026-03-29T11:01:35.438Z</time></trkpt><trkpt lat="43.3102465" lon="13.2081361"><ele>544.6</ele><time>2026-03-29T11:01:36.436Z</time></trkpt><trkpt lat="43.3101999" lon="13.2082541"><ele>548.2</ele><time>2026-03-29T11:01:37.444Z</time></trkpt><trkpt lat="43.3101631" lon="13.2083914"><ele>551.8</ele><time>2026-03-29T11:01:38.437Z</time></trkpt><trkpt lat="43.3101551" lon="13.2085137"><ele>555.4</ele><time>2026-03-29T11:01:39.446Z</time></trkpt><trkpt lat="43.3101916" lon="13.2086105"><ele>559.0</ele><time>2026-03-29T11:01:40.435Z</time></trkpt><trkpt lat="43.3102653" lon="13.20866"><ele>559.0</ele><time>2026-03-29T11:01:41.443Z</time></trkpt><trkpt lat="43.3103501" lon="13.2086586"><ele>559.0</ele><time>2026-03-29T11:01:42.438Z</time></trkpt><trkpt lat="43.3104519" lon="13.2085737"><ele>559.0</ele><time>2026-03-29T11:01:44.434Z</time></trkpt><trkpt lat="43.3105609" lon="13.2084964"><ele>559.0</ele><time>2026-03-29T11:01:46.43Z</time></trkpt><trkpt lat="43.3106847" lon="13.2085492"><ele>562.2</ele><time>2026-03-29T11:01:48.431Z</time></trkpt><trkpt lat="43.310757" lon="13.208607"><ele>565.4</ele><time>2026-03-29T11:01:49.401Z</time></trkpt><trkpt lat="43.3108406" lon="13.2086929"><ele>568.6</ele><time>2026-03-29T11:01:50.432Z</time></trkpt><trkpt lat="43.3109204" lon="13.2087842"><ele>571.8</ele><time>2026-03-29T11:01:51.454Z</time></trkpt><trkpt lat="43.3110196" lon="13.2088426"><ele>575.0</ele><time>2026-03-29T11:01:53.418Z</time></trkpt><trkpt lat="43.3110815" lon="13.2087701"><ele>575.0</ele><time>2026-03-29T11:01:54.427Z</time></trkpt><trkpt lat="43.3111497" lon="13.2086502"><ele>575.0</ele><time>2026-03-29T11:01:55.384Z</time></trkpt><trkpt lat="43.3111933" lon="13.2085394"><ele>575.0</ele><time>2026-03-29T11:01:56.409Z</time></trkpt><trkpt lat="43.3112304" lon="13.2084584"><ele>575.0</ele><time>2026-03-29T11:01:57.429Z</time></trkpt><trkpt lat="43.3113128" lon="13.2083861"><ele>575.0</ele><time>2026-03-29T11:01:59.447Z</time></trkpt><trkpt lat="43.3114115" lon="13.2083682"><ele>578.8</ele><time>2026-03-29T11:02:01.429Z</time></trkpt><trkpt lat="43.3115398" lon="13.2083149"><ele>582.6</ele><time>2026-03-29T11:02:03.405Z</time></trkpt><trkpt lat="43.3116034" lon="13.2082755"><ele>586.4</ele><time>2026-03-29T11:02:04.454Z</time></trkpt><trkpt lat="43.3117084" lon="13.2083016"><ele>590.2</ele><time>2026-03-29T11:02:06.389Z</time></trkpt><trkpt lat="43.3117467" lon="13.2083743"><ele>594.0</ele><time>2026-03-29T11:02:07.433Z</time></trkpt><trkpt lat="43.3117829" lon="13.2084773"><ele>594.0</ele><time>2026-03-29T11:02:08.442Z</time></trkpt><trkpt lat="43.3118291" lon="13.2085922"><ele>594.0</ele><time>2026-03-29T11:02:09.428Z</time></trkpt><trkpt lat="43.3118908" lon="13.2086785"><ele>594.0</ele><time>2026-03-29T11:02:10.449Z</time></trkpt><trkpt lat="43.3119484" lon="13.2087203"><ele>594.0</ele><time>2026-03-29T11:02:11.451Z</time></trkpt><trkpt lat="43.3120357" lon="13.2087779"><ele>594.0</ele><time>2026-03-29T11:02:13.429Z</time></trkpt><trkpt lat="43.3121408" lon="13.2088742"><ele>594.0</ele><time>2026-03-29T11:02:15.442Z</time></trkpt><trkpt lat="43.3122049" lon="13.2089448"><ele>594.0</ele><time>2026-03-29T11:02:16.443Z</time></trkpt><trkpt lat="43.3122737" lon="13.2090105"><ele>594.0</ele><time>2026-03-29T11:02:17.432Z</time></trkpt><trkpt lat="43.3123402" lon="13.2090651"><ele>594.0</ele><time>2026-03-29T11:02:18.421Z</time></trkpt><trkpt lat="43.312419" lon="13.20915"><ele>594.0</ele><time>2026-03-29T11:02:20.448Z</time></trkpt><trkpt lat="43.3124272" lon="13.2092815"><ele>594.0</ele><time>2026-03-29T11:02:24.442Z</time></trkpt><trkpt lat="43.3124534" lon="13.2093739"><ele>596.5</ele><time>2026-03-29T11:02:27.426Z</time></trkpt><trkpt lat="43.3124652" lon="13.2094624"><ele>599.0</ele><time>2026-03-29T11:02:50.438Z</time></trkpt><trkpt lat="43.3124206" lon="13.2095337"><ele>601.5</ele><time>2026-03-29T11:02:52.453Z</time></trkpt><trkpt lat="43.3123485" lon="13.2096113"><ele>604.0</ele><time>2026-03-29T11:02:54.434Z</time></trkpt><trkpt lat="43.3122572" lon="13.2097227"><ele>606.5</ele><time>2026-03-29T11:02:56.413Z</time></trkpt><trkpt lat="43.3122077" lon="13.2097774"><ele>609.0</ele><time>2026-03-29T11:02:57.436Z</time></trkpt><trkpt lat="43.3121405" lon="13.2098565"><ele>611.8</ele><time>2026-03-29T11:02:59.444Z</time></trkpt><trkpt lat="43.31212" lon="13.2099545"><ele>614.5999999999999</ele><time>2026-03-29T11:03:02.43Z</time></trkpt><trkpt lat="43.3120872" lon="13.2100721"><ele>617.4</ele><time>2026-03-29T11:03:21.409Z</time></trkpt><trkpt lat="43.3120412" lon="13.2101979"><ele>620.1999999999999</ele><time>2026-03-29T11:03:23.436Z</time></trkpt><trkpt lat="43.3119783" lon="13.2103343"><ele>623.0</ele><time>2026-03-29T11:03:25.437Z</time></trkpt><trkpt lat="43.3119178" lon="13.2104824"><ele>623.0</ele><time>2026-03-29T11:03:27.431Z</time></trkpt><trkpt lat="43.3119006" lon="13.2105729"><ele>623.0</ele><time>2026-03-29T11:03:28.432Z</time></trkpt><trkpt lat="43.3118826" lon="13.2106698"><ele>623.0</ele><time>2026-03-29T11:03:29.442Z</time></trkpt><trkpt lat="43.3118561" lon="13.2107797"><ele>623.0</ele><time>2026-03-29T11:03:30.444Z</time></trkpt><trkpt lat="43.3118351" lon="13.2108629"><ele>623.0</ele><time>2026-03-29T11:03:31.437Z</time></trkpt><trkpt lat="43.3118448" lon="13.2109642"><ele>623.0</ele><time>2026-03-29T11:03:33.443Z</time></trkpt><trkpt lat="43.3118852" lon="13.2111052"><ele>626.5999999999999</ele><time>2026-03-29T11:03:35.43Z</time></trkpt><trkpt lat="43.3119531" lon="13.2112342"><ele>630.1999999999999</ele><time>2026-03-29T11:03:37.446Z</time></trkpt><trkpt lat="43.3119543" lon="13.2113479"><ele>633.8</ele><time>2026-03-29T11:03:39.497Z</time></trkpt><trkpt lat="43.3119316" lon="13.2115044"><ele>637.4</ele><time>2026-03-29T11:03:41.453Z</time></trkpt><trkpt lat="43.3118819" lon="13.2116278"><ele>641.0</ele><time>2026-03-29T11:03:43.444Z</time></trkpt><trkpt lat="43.3118479" lon="13.2117085"><ele>643.3333333333333</ele><time>2026-03-29T11:03:44.454Z</time></trkpt><trkpt lat="43.3117964" lon="13.211791"><ele>645.6666666666666</ele><time>2026-03-29T11:03:45.446Z</time></trkpt><trkpt lat="43.3117448" lon="13.2118553"><ele>648.0</ele><time>2026-03-29T11:03:46.447Z</time></trkpt><trkpt lat="43.3116869" lon="13.2119121"><ele>650.3333333333334</ele><time>2026-03-29T11:03:47.444Z</time></trkpt><trkpt lat="43.3116247" lon="13.2119639"><ele>652.6666666666667</ele><time>2026-03-29T11:03:48.437Z</time></trkpt><trkpt lat="43.3115288" lon="13.2120486"><ele>655.0</ele><time>2026-03-29T11:03:50.461Z</time></trkpt><trkpt lat="43.3114832" lon="13.2121112"><ele>655.0</ele><time>2026-03-29T11:03:51.429Z</time></trkpt><trkpt lat="43.3114287" lon="13.2121834"><ele>655.0</ele><time>2026-03-29T11:03:52.443Z</time></trkpt><trkpt lat="43.3113822" lon="13.2122604"><ele>655.0</ele><time>2026-03-29T11:03:53.423Z</time></trkpt><trkpt lat="43.3113407" lon="13.2123326"><ele>655.0</ele><time>2026-03-29T11:03:54.453Z</time></trkpt><trkpt lat="43.311295" lon="13.2124037"><ele>655.0</ele><time>2026-03-29T11:03:55.383Z</time></trkpt><trkpt lat="43.3112515" lon="13.2124759"><ele>655.0</ele><time>2026-03-29T11:03:56.433Z</time></trkpt><trkpt lat="43.3112123" lon="13.2125438"><ele>655.0</ele><time>2026-03-29T11:03:57.445Z</time></trkpt><trkpt lat="43.3111555" lon="13.2126454"><ele>658.4</ele><time>2026-03-29T11:03:59.397Z</time></trkpt><trkpt lat="43.3111064" lon="13.2127396"><ele>661.8</ele><time>2026-03-29T11:04:01.378Z</time></trkpt><trkpt lat="43.3110385" lon="13.2128603"><ele>665.2</ele><time>2026-03-29T11:04:03.431Z</time></trkpt><trkpt lat="43.310963" lon="13.2129783"><ele>668.6</ele><time>2026-03-29T11:04:05.37Z</time></trkpt><trkpt lat="43.3109158" lon="13.2131181"><ele>672.0</ele><time>2026-03-29T11:04:07.396Z</time></trkpt><trkpt lat="43.3108708" lon="13.2132654"><ele>674.0</ele><time>2026-03-29T11:04:09.39Z</time></trkpt><trkpt lat="43.3108316" lon="13.2133568"><ele>676.0</ele><time>2026-03-29T11:04:10.388Z</time></trkpt><trkpt lat="43.3107811" lon="13.2134548"><ele>678.0</ele><time>2026-03-29T11:04:11.4Z</time></trkpt><trkpt lat="43.3107415" lon="13.2135447"><ele>680.0</ele><time>2026-03-29T11:04:12.391Z</time></trkpt><trkpt lat="43.3107075" lon="13.213639"><ele>682.0</ele><time>2026-03-29T11:04:13.41Z</time></trkpt><trkpt lat="43.310679" lon="13.2137274"><ele>684.0</ele><time>2026-03-29T11:04:14.417Z</time></trkpt><trkpt lat="43.3106469" lon="13.2138049"><ele>684.0</ele><time>2026-03-29T11:04:15.429Z</time></trkpt><trkpt lat="43.31059" lon="13.2139402"><ele>684.0</ele><time>2026-03-29T11:04:17.44Z</time></trkpt><trkpt lat="43.3105805" lon="13.2140306"><ele>684.0</ele><time>2026-03-29T11:04:19.406Z</time></trkpt><trkpt lat="43.3105272" lon="13.2141056"><ele>684.0</ele><time>2026-03-29T11:04:21.401Z</time></trkpt><trkpt lat="43.3104785" lon="13.2141782"><ele>684.0</ele><time>2026-03-29T11:05:43.406Z</time></trkpt><trkpt lat="43.3104739" lon="13.2142662"><ele>684.0</ele><time>2026-03-29T11:05:46.417Z</time></trkpt><trkpt lat="43.3104017" lon="13.2143262"><ele>687.6</ele><time>2026-03-29T11:05:50.403Z</time></trkpt><trkpt lat="43.3103604" lon="13.2144128"><ele>691.2</ele><time>2026-03-29T11:05:52.433Z</time></trkpt><trkpt lat="43.3103127" lon="13.2145447"><ele>694.8000000000001</ele><time>2026-03-29T11:05:54.448Z</time></trkpt><trkpt lat="43.3102879" lon="13.2146772"><ele>698.4000000000001</ele><time>2026-03-29T11:05:56.392Z</time></trkpt><trkpt lat="43.3102726" lon="13.214804"><ele>702.0</ele><time>2026-03-29T11:05:58.446Z</time></trkpt><trkpt lat="43.3102747" lon="13.2149233"><ele>704.8</ele><time>2026-03-29T11:06:00.432Z</time></trkpt><trkpt lat="43.3102636" lon="13.2150476"><ele>707.6</ele><time>2026-03-29T11:06:02.442Z</time></trkpt><trkpt lat="43.3102457" lon="13.2152043"><ele>710.4</ele><time>2026-03-29T11:06:04.438Z</time></trkpt><trkpt lat="43.310238" lon="13.2153568"><ele>713.1999999999999</ele><time>2026-03-29T11:06:06.439Z</time></trkpt><trkpt lat="43.3102361" lon="13.2155224"><ele>716.0</ele><time>2026-03-29T11:06:08.435Z</time></trkpt><trkpt lat="43.3102429" lon="13.2156092"><ele>717.8333333333333</ele><time>2026-03-29T11:06:09.427Z</time></trkpt><trkpt lat="43.3102537" lon="13.2156966"><ele>719.6666666666666</ele><time>2026-03-29T11:06:10.442Z</time></trkpt><trkpt lat="43.3102621" lon="13.2157905"><ele>721.5</ele><time>2026-03-29T11:06:11.428Z</time></trkpt><trkpt lat="43.3102712" lon="13.2158818"><ele>723.3333333333334</ele><time>2026-03-29T11:06:12.435Z</time></trkpt><trkpt lat="43.3102886" lon="13.2160475"><ele>725.1666666666667</ele><time>2026-03-29T11:06:14.447Z</time></trkpt><trkpt lat="43.3103101" lon="13.2162198"><ele>727.0</ele><time>2026-03-29T11:06:16.433Z</time></trkpt><trkpt lat="43.310326" lon="13.216305"><ele>727.0</ele><time>2026-03-29T11:06:17.44Z</time></trkpt><trkpt lat="43.3103431" lon="13.2164391"><ele>727.0</ele><time>2026-03-29T11:06:19.418Z</time></trkpt><trkpt lat="43.3103518" lon="13.2165449"><ele>727.0</ele><time>2026-03-29T11:06:21.438Z</time></trkpt><trkpt lat="43.3103582" lon="13.2166431"><ele>727.0</ele><time>2026-03-29T11:06:23.44Z</time></trkpt><trkpt lat="43.3103603" lon="13.2167386"><ele>727.0</ele><time>2026-03-29T11:06:46.44Z</time></trkpt><trkpt lat="43.3103698" lon="13.216864"><ele>727.0</ele><time>2026-03-29T11:06:49.405Z</time></trkpt><trkpt lat="43.3103869" lon="13.2169891"><ele>728.8333333333334</ele><time>2026-03-29T11:06:52.44Z</time></trkpt><trkpt lat="43.3103957" lon="13.2171033"><ele>730.6666666666667</ele><time>2026-03-29T11:06:54.438Z</time></trkpt><trkpt lat="43.3103994" lon="13.2172043"><ele>732.5</ele><time>2026-03-29T11:06:56.385Z</time></trkpt><trkpt lat="43.3104147" lon="13.2173203"><ele>734.3333333333334</ele><time>2026-03-29T11:06:58.436Z</time></trkpt><trkpt lat="43.3104372" lon="13.2174321"><ele>736.1666666666666</ele><time>2026-03-29T11:07:00.435Z</time></trkpt><trkpt lat="43.3104572" lon="13.2175453"><ele>738.0</ele><time>2026-03-29T11:07:02.433Z</time></trkpt><trkpt lat="43.3104719" lon="13.2176482"><ele>740.3333333333334</ele><time>2026-03-29T11:07:04.435Z</time></trkpt><trkpt lat="43.3104838" lon="13.2177475"><ele>742.6666666666666</ele><time>2026-03-29T11:07:06.385Z</time></trkpt><trkpt lat="43.3104926" lon="13.2178471"><ele>745.0</ele><time>2026-03-29T11:07:08.428Z</time></trkpt><trkpt lat="43.3105115" lon="13.2179546"><ele>747.3333333333333</ele><time>2026-03-29T11:07:14.429Z</time></trkpt><trkpt lat="43.3105296" lon="13.2180573"><ele>749.6666666666666</ele><time>2026-03-29T11:07:17.437Z</time></trkpt><trkpt lat="43.3105378" lon="13.2181862"><ele>752.0</ele><time>2026-03-29T11:07:20.417Z</time></trkpt><trkpt lat="43.3105294" lon="13.2182859"><ele>754.0</ele><time>2026-03-29T11:07:23.437Z</time></trkpt><trkpt lat="43.3105176" lon="13.2183924"><ele>756.0</ele><time>2026-03-29T11:07:30.426Z</time></trkpt><trkpt lat="43.3105203" lon="13.2184941"><ele>758.0</ele><time>2026-03-29T11:07:34.431Z</time></trkpt><trkpt lat="43.3105245" lon="13.2186017"><ele>760.0</ele><time>2026-03-29T11:07:38.441Z</time></trkpt><trkpt lat="43.3105537" lon="13.2186958"><ele>762.0</ele><time>2026-03-29T11:07:41.38Z</time></trkpt><trkpt lat="43.3105726" lon="13.2187887"><ele>764.0</ele><time>2026-03-29T11:07:52.419Z</time></trkpt><trkpt lat="43.3105665" lon="13.2188752"><ele>766.0</ele><time>2026-03-29T11:07:55.417Z</time></trkpt><trkpt lat="43.3105693" lon="13.2189967"><ele>768.4285714285714</ele><time>2026-03-29T11:07:58.413Z</time></trkpt><trkpt lat="43.3105811" lon="13.2190991"><ele>770.8571428571429</ele><time>2026-03-29T11:08:03.425Z</time></trkpt><trkpt lat="43.310593" lon="13.2191958"><ele>773.2857142857142</ele><time>2026-03-29T11:08:22.404Z</time></trkpt><trkpt lat="43.3106145" lon="13.2192884"><ele>775.7142857142858</ele><time>2026-03-29T11:08:24.443Z</time></trkpt><trkpt lat="43.310631" lon="13.2193901"><ele>778.1428571428572</ele><time>2026-03-29T11:08:32.43Z</time></trkpt><trkpt lat="43.3106451" lon="13.2194776"><ele>780.5714285714286</ele><time>2026-03-29T11:08:37.44Z</time></trkpt><trkpt lat="43.3106815" lon="13.2195815"><ele>783.0</ele><time>2026-03-29T11:08:41.422Z</time></trkpt><trkpt lat="43.3107008" lon="13.2197007"><ele>783.0</ele><time>2026-03-29T11:08:44.452Z</time></trkpt><trkpt lat="43.3107189" lon="13.2197906"><ele>783.0</ele><time>2026-03-29T11:08:46.413Z</time></trkpt><trkpt lat="43.3107495" lon="13.219884"><ele>783.0</ele><time>2026-03-29T11:08:49.448Z</time></trkpt><trkpt lat="43.310781" lon="13.2199896"><ele>783.0</ele><time>2026-03-29T11:08:51.439Z</time></trkpt><trkpt lat="43.3108112" lon="13.2201039"><ele>783.0</ele><time>2026-03-29T11:08:53.431Z</time></trkpt><trkpt lat="43.3108487" lon="13.2202058"><ele>783.0</ele><time>2026-03-29T11:08:55.43Z</time></trkpt><trkpt lat="43.3108805" lon="13.2202899"><ele>785.1666666666666</ele><time>2026-03-29T11:08:57.434Z</time></trkpt><trkpt lat="43.3109095" lon="13.2203687"><ele>787.3333333333333</ele><time>2026-03-29T11:08:59.446Z</time></trkpt><trkpt lat="43.3109438" lon="13.2204617"><ele>789.5</ele><time>2026-03-29T11:09:01.448Z</time></trkpt><trkpt lat="43.3109808" lon="13.2205338"><ele>791.6666666666666</ele><time>2026-03-29T11:09:03.429Z</time></trkpt><trkpt lat="43.3110271" lon="13.2206214"><ele>793.8333333333333</ele><time>2026-03-29T11:09:05.472Z</time></trkpt><trkpt lat="43.3110693" lon="13.2207301"><ele>796.0</ele><time>2026-03-29T11:09:07.419Z</time></trkpt><trkpt lat="43.3111007" lon="13.2208282"><ele>797.1666666666666</ele><time>2026-03-29T11:09:10.443Z</time></trkpt><trkpt lat="43.3111397" lon="13.2209241"><ele>798.3333333333333</ele><time>2026-03-29T11:09:13.406Z</time></trkpt><trkpt lat="43.311176" lon="13.2209969"><ele>799.5</ele><time>2026-03-29T11:09:15.419Z</time></trkpt><trkpt lat="43.3112332" lon="13.221085"><ele>800.6666666666667</ele><time>2026-03-29T11:09:18.453Z</time></trkpt><trkpt lat="43.3112745" lon="13.2211662"><ele>801.8333333333334</ele><time>2026-03-29T11:09:21.44Z</time></trkpt><trkpt lat="43.3113271" lon="13.221247"><ele>803.0</ele><time>2026-03-29T11:09:24.407Z</time></trkpt><trkpt lat="43.311348" lon="13.2213368"><ele>802.6666666666667</ele><time>2026-03-29T11:10:41.408Z</time></trkpt><trkpt lat="43.3114084" lon="13.2214265"><ele>802.3333333333334</ele><time>2026-03-29T11:10:44.454Z</time></trkpt><trkpt lat="43.3114652" lon="13.2215119"><ele>802.0</ele><time>2026-03-29T11:10:47.408Z</time></trkpt><trkpt lat="43.3115108" lon="13.2215915"><ele>801.6666666666667</ele><time>2026-03-29T11:10:50.436Z</time></trkpt><trkpt lat="43.3115651" lon="13.221679"><ele>801.3333333333334</ele><time>2026-03-29T11:10:53.403Z</time></trkpt><trkpt lat="43.3115999" lon="13.221755"><ele>801.0</ele><time>2026-03-29T11:10:56.409Z</time></trkpt><trkpt lat="43.3116465" lon="13.2218411"><ele>801.0</ele><time>2026-03-29T11:10:59.406Z</time></trkpt><trkpt lat="43.3117226" lon="13.2218494"><ele>801.0</ele><time>2026-03-29T11:11:02.444Z</time></trkpt><trkpt lat="43.3117906" lon="13.2218339"><ele>801.0</ele><time>2026-03-29T11:11:18.442Z</time></trkpt><trkpt lat="43.3118548" lon="13.2218344"><ele>801.0</ele><time>2026-03-29T11:11:27.425Z</time></trkpt><trkpt lat="43.3119199" lon="13.2218169"><ele>801.0</ele><time>2026-03-29T11:11:42.435Z</time></trkpt><trkpt lat="43.312007" lon="13.2217865"><ele>801.0</ele><time>2026-03-29T11:11:46.438Z</time></trkpt><trkpt lat="43.3120913" lon="13.2217742"><ele>801.0</ele><time>2026-03-29T11:11:49.439Z</time></trkpt><trkpt lat="43.3121789" lon="13.22176"><ele>801.0</ele><time>2026-03-29T11:11:51.429Z</time></trkpt><trkpt lat="43.3122617" lon="13.2217539"><ele>801.0</ele><time>2026-03-29T11:11:54.431Z</time></trkpt><trkpt lat="43.3123419" lon="13.2217436"><ele>801.0</ele><time>2026-03-29T11:11:56.386Z</time></trkpt><trkpt lat="43.3124112" lon="13.2217363"><ele>801.0</ele><time>2026-03-29T11:11:58.391Z</time></trkpt><trkpt lat="43.3124858" lon="13.2217193"><ele>801.0</ele><time>2026-03-29T11:12:00.42Z</time></trkpt><trkpt lat="43.3125716" lon="13.2217071"><ele>797.4</ele><time>2026-03-29T11:12:02.406Z</time></trkpt><trkpt lat="43.3126555" lon="13.2216944"><ele>793.8</ele><time>2026-03-29T11:12:04.387Z</time></trkpt><trkpt lat="43.3127549" lon="13.2216682"><ele>790.1999999999999</ele><time>2026-03-29T11:12:06.411Z</time></trkpt><trkpt lat="43.3128537" lon="13.2216471"><ele>786.5999999999999</ele><time>2026-03-29T11:12:08.409Z</time></trkpt><trkpt lat="43.3129317" lon="13.2217457"><ele>783.0</ele><time>2026-03-29T11:12:11.389Z</time></trkpt><trkpt lat="43.3129525" lon="13.2218335"><ele>783.0</ele><time>2026-03-29T11:12:12.444Z</time></trkpt><trkpt lat="43.3129771" lon="13.2219172"><ele>783.0</ele><time>2026-03-29T11:12:13.45Z</time></trkpt><trkpt lat="43.3130007" lon="13.2220042"><ele>783.0</ele><time>2026-03-29T11:12:14.39Z</time></trkpt><trkpt lat="43.313023" lon="13.222097"><ele>783.0</ele><time>2026-03-29T11:12:15.446Z</time></trkpt><trkpt lat="43.313045" lon="13.222186"><ele>783.0</ele><time>2026-03-29T11:12:16.445Z</time></trkpt><trkpt lat="43.3130689" lon="13.2222709"><ele>783.0</ele><time>2026-03-29T11:12:17.447Z</time></trkpt><trkpt lat="43.3131151" lon="13.2224229"><ele>780.4</ele><time>2026-03-29T11:12:19.446Z</time></trkpt><trkpt lat="43.313179" lon="13.2225643"><ele>777.8</ele><time>2026-03-29T11:12:21.443Z</time></trkpt><trkpt lat="43.3132362" lon="13.222681"><ele>775.2</ele><time>2026-03-29T11:12:23.43Z</time></trkpt><trkpt lat="43.3132897" lon="13.2227889"><ele>772.6</ele><time>2026-03-29T11:12:25.446Z</time></trkpt><trkpt lat="43.3133294" lon="13.2229024"><ele>770.0</ele><time>2026-03-29T11:12:27.444Z</time></trkpt><trkpt lat="43.3133522" lon="13.2230317"><ele>768.8333333333334</ele><time>2026-03-29T11:12:29.41Z</time></trkpt><trkpt lat="43.3133714" lon="13.2231563"><ele>767.6666666666667</ele><time>2026-03-29T11:12:31.428Z</time></trkpt><trkpt lat="43.3133927" lon="13.2232617"><ele>766.5</ele><time>2026-03-29T11:12:33.434Z</time></trkpt><trkpt lat="43.3134292" lon="13.2233622"><ele>765.3333333333334</ele><time>2026-03-29T11:12:35.401Z</time></trkpt><trkpt lat="43.3134677" lon="13.2234458"><ele>764.1666666666667</ele><time>2026-03-29T11:12:37.445Z</time></trkpt><trkpt lat="43.3135228" lon="13.2235528"><ele>763.0</ele><time>2026-03-29T11:12:40.397Z</time></trkpt><trkpt lat="43.3135724" lon="13.2236412"><ele>763.0</ele><time>2026-03-29T11:12:42.42Z</time></trkpt><trkpt lat="43.3136197" lon="13.2237202"><ele>763.0</ele><time>2026-03-29T11:12:44.392Z</time></trkpt><trkpt lat="43.31368" lon="13.2237991"><ele>763.0</ele><time>2026-03-29T11:12:46.408Z</time></trkpt><trkpt lat="43.313751" lon="13.2238738"><ele>763.0</ele><time>2026-03-29T11:12:48.46Z</time></trkpt><trkpt lat="43.3138078" lon="13.2239514"><ele>763.0</ele><time>2026-03-29T11:12:50.429Z</time></trkpt><trkpt lat="43.3138565" lon="13.2240466"><ele>763.0</ele><time>2026-03-29T11:12:52.382Z</time></trkpt><trkpt lat="43.3139033" lon="13.2241577"><ele>762.4</ele><time>2026-03-29T11:12:54.426Z</time></trkpt><trkpt lat="43.313932" lon="13.2242666"><ele>761.8</ele><time>2026-03-29T11:12:56.389Z</time></trkpt><trkpt lat="43.3139686" lon="13.2243854"><ele>761.2</ele><time>2026-03-29T11:12:58.435Z</time></trkpt><trkpt lat="43.3140031" lon="13.2245067"><ele>760.6</ele><time>2026-03-29T11:13:00.435Z</time></trkpt><trkpt lat="43.314034" lon="13.2246331"><ele>760.0</ele><time>2026-03-29T11:13:02.442Z</time></trkpt><trkpt lat="43.3140782" lon="13.224756"><ele>757.0</ele><time>2026-03-29T11:13:04.386Z</time></trkpt><trkpt lat="43.3141228" lon="13.224871"><ele>754.0</ele><time>2026-03-29T11:13:06.434Z</time></trkpt><trkpt lat="43.3141594" lon="13.2249846"><ele>751.0</ele><time>2026-03-29T11:13:08.423Z</time></trkpt><trkpt lat="43.3141895" lon="13.2251072"><ele>748.0</ele><time>2026-03-29T11:13:10.45Z</time></trkpt><trkpt lat="43.3142096" lon="13.2252306"><ele>745.0</ele><time>2026-03-29T11:13:12.447Z</time></trkpt><trkpt lat="43.3142389" lon="13.2253468"><ele>745.0</ele><time>2026-03-29T11:13:14.415Z</time></trkpt><trkpt lat="43.3142675" lon="13.2254676"><ele>745.0</ele><time>2026-03-29T11:13:16.445Z</time></trkpt><trkpt lat="43.314285" lon="13.2255656"><ele>745.0</ele><time>2026-03-29T11:13:18.381Z</time></trkpt><trkpt lat="43.3143128" lon="13.2256841"><ele>745.0</ele><time>2026-03-29T11:13:20.43Z</time></trkpt><trkpt lat="43.3143373" lon="13.2257763"><ele>745.0</ele><time>2026-03-29T11:13:22.423Z</time></trkpt><trkpt lat="43.3143698" lon="13.2259046"><ele>745.0</ele><time>2026-03-29T11:13:24.423Z</time></trkpt><trkpt lat="43.3144106" lon="13.2260224"><ele>742.6666666666667</ele><time>2026-03-29T11:13:26.417Z</time></trkpt><trkpt lat="43.3144394" lon="13.22614"><ele>740.3333333333334</ele><time>2026-03-29T11:13:28.428Z</time></trkpt><trkpt lat="43.3144586" lon="13.2262493"><ele>738.0</ele><time>2026-03-29T11:13:30.401Z</time></trkpt><trkpt lat="43.3144812" lon="13.2263446"><ele>735.6666666666666</ele><time>2026-03-29T11:13:32.437Z</time></trkpt><trkpt lat="43.3145118" lon="13.226441"><ele>733.3333333333333</ele><time>2026-03-29T11:13:34.431Z</time></trkpt><trkpt lat="43.3145279" lon="13.2265559"><ele>731.0</ele><time>2026-03-29T11:13:36.397Z</time></trkpt><trkpt lat="43.3145418" lon="13.2266709"><ele>727.8</ele><time>2026-03-29T11:13:38.418Z</time></trkpt><trkpt lat="43.314576" lon="13.2267967"><ele>724.5999999999999</ele><time>2026-03-29T11:13:40.44Z</time></trkpt><trkpt lat="43.3146132" lon="13.2269412"><ele>721.4</ele><time>2026-03-29T11:13:42.437Z</time></trkpt><trkpt lat="43.3146445" lon="13.227078"><ele>718.2</ele><time>2026-03-29T11:13:44.446Z</time></trkpt><trkpt lat="43.3146705" lon="13.2272142"><ele>715.0</ele><time>2026-03-29T11:13:46.434Z</time></trkpt><trkpt lat="43.3146939" lon="13.2273385"><ele>715.6</ele><time>2026-03-29T11:13:48.414Z</time></trkpt><trkpt lat="43.3146753" lon="13.2274747"><ele>716.2</ele><time>2026-03-29T11:13:52.442Z</time></trkpt><trkpt lat="43.3146887" lon="13.2276489"><ele>716.8</ele><time>2026-03-29T11:13:54.431Z</time></trkpt><trkpt lat="43.3147152" lon="13.2277605"><ele>717.4</ele><time>2026-03-29T11:13:55.435Z</time></trkpt><trkpt lat="43.3147563" lon="13.2278786"><ele>718.0</ele><time>2026-03-29T11:13:56.387Z</time></trkpt><trkpt lat="43.3148071" lon="13.2280109"><ele>713.5</ele><time>2026-03-29T11:13:57.438Z</time></trkpt><trkpt lat="43.3148707" lon="13.2281456"><ele>709.0</ele><time>2026-03-29T11:13:58.413Z</time></trkpt><trkpt lat="43.3149411" lon="13.2282761"><ele>704.5</ele><time>2026-03-29T11:13:59.416Z</time></trkpt><trkpt lat="43.3150227" lon="13.2283975"><ele>700.0</ele><time>2026-03-29T11:14:00.411Z</time></trkpt><trkpt lat="43.3151192" lon="13.2285073"><ele>700.0</ele><time>2026-03-29T11:14:01.433Z</time></trkpt><trkpt lat="43.3152209" lon="13.2286174"><ele>700.0</ele><time>2026-03-29T11:14:02.425Z</time></trkpt><trkpt lat="43.31532" lon="13.2287337"><ele>700.0</ele><time>2026-03-29T11:14:03.429Z</time></trkpt><trkpt lat="43.3154098" lon="13.2288655"><ele>700.0</ele><time>2026-03-29T11:14:04.431Z</time></trkpt><trkpt lat="43.3155031" lon="13.229007"><ele>699.6666666666667</ele><time>2026-03-29T11:14:05.417Z</time></trkpt><trkpt lat="43.3156023" lon="13.2291514"><ele>699.3333333333334</ele><time>2026-03-29T11:14:06.422Z</time></trkpt><trkpt lat="43.3157094" lon="13.2293038"><ele>699.0</ele><time>2026-03-29T11:14:07.432Z</time></trkpt><trkpt lat="43.3158234" lon="13.2294418"><ele>699.0</ele><time>2026-03-29T11:14:08.442Z</time></trkpt><trkpt lat="43.3159401" lon="13.2295651"><ele>699.0</ele><time>2026-03-29T11:14:09.449Z</time></trkpt><trkpt lat="43.316053" lon="13.229678"><ele>699.0</ele><time>2026-03-29T11:14:10.417Z</time></trkpt><trkpt lat="43.3161531" lon="13.2298026"><ele>699.0</ele><time>2026-03-29T11:14:11.432Z</time></trkpt><trkpt lat="43.3162144" lon="13.2299678"><ele>691.5</ele><time>2026-03-29T11:14:12.45Z</time></trkpt><trkpt lat="43.3162511" lon="13.2301506"><ele>684.0</ele><time>2026-03-29T11:14:13.405Z</time></trkpt><trkpt lat="43.3162859" lon="13.2303323"><ele>676.5</ele><time>2026-03-29T11:14:14.455Z</time></trkpt><trkpt lat="43.3163253" lon="13.2305127"><ele>669.0</ele><time>2026-03-29T11:14:15.405Z</time></trkpt><trkpt lat="43.316363" lon="13.2307059"><ele>670.3333333333334</ele><time>2026-03-29T11:14:16.412Z</time></trkpt><trkpt lat="43.3164086" lon="13.2309071"><ele>671.6666666666667</ele><time>2026-03-29T11:14:17.427Z</time></trkpt><trkpt lat="43.3164561" lon="13.2311117"><ele>673.0</ele><time>2026-03-29T11:14:18.432Z</time></trkpt><trkpt lat="43.3165009" lon="13.2313175"><ele>670.75</ele><time>2026-03-29T11:14:19.445Z</time></trkpt><trkpt lat="43.3165408" lon="13.2315239"><ele>668.5</ele><time>2026-03-29T11:14:20.411Z</time></trkpt><trkpt lat="43.3165817" lon="13.2317204"><ele>666.25</ele><time>2026-03-29T11:14:21.43Z</time></trkpt><trkpt lat="43.3166209" lon="13.231912"><ele>664.0</ele><time>2026-03-29T11:14:22.437Z</time></trkpt><trkpt lat="43.3166638" lon="13.2320977"><ele>664.0</ele><time>2026-03-29T11:14:23.426Z</time></trkpt><trkpt lat="43.3167042" lon="13.2322818"><ele>664.0</ele><time>2026-03-29T11:14:24.416Z</time></trkpt><trkpt lat="43.3167423" lon="13.2324542"><ele>664.0</ele><time>2026-03-29T11:14:25.414Z</time></trkpt><trkpt lat="43.3167815" lon="13.2326268"><ele>664.0</ele><time>2026-03-29T11:14:26.433Z</time></trkpt><trkpt lat="43.3168196" lon="13.2327944"><ele>661.75</ele><time>2026-03-29T11:14:27.459Z</time></trkpt><trkpt lat="43.3168553" lon="13.2329556"><ele>659.5</ele><time>2026-03-29T11:14:28.429Z</time></trkpt><trkpt lat="43.3168853" lon="13.2331215"><ele>657.25</ele><time>2026-03-29T11:14:29.45Z</time></trkpt><trkpt lat="43.316915" lon="13.2332889"><ele>655.0</ele><time>2026-03-29T11:14:30.417Z</time></trkpt><trkpt lat="43.3169433" lon="13.2334626"><ele>653.2</ele><time>2026-03-29T11:14:31.448Z</time></trkpt><trkpt lat="43.3169565" lon="13.2336444"><ele>651.4</ele><time>2026-03-29T11:14:32.41Z</time></trkpt><trkpt lat="43.3169449" lon="13.2338208"><ele>649.5999999999999</ele><time>2026-03-29T11:14:33.416Z</time></trkpt><trkpt lat="43.3168983" lon="13.2339511"><ele>647.8</ele><time>2026-03-29T11:14:34.383Z</time></trkpt><trkpt lat="43.3168346" lon="13.2340201"><ele>646.0</ele><time>2026-03-29T11:14:35.399Z</time></trkpt><trkpt lat="43.3167506" lon="13.234038"><ele>646.0</ele><time>2026-03-29T11:14:36.394Z</time></trkpt><trkpt lat="43.3166421" lon="13.2340163"><ele>646.0</ele><time>2026-03-29T11:14:37.417Z</time></trkpt><trkpt lat="43.3165457" lon="13.2339189"><ele>646.0</ele><time>2026-03-29T11:14:38.432Z</time></trkpt><trkpt lat="43.3164567" lon="13.2338071"><ele>646.0</ele><time>2026-03-29T11:14:39.402Z</time></trkpt><trkpt lat="43.3163582" lon="13.2336831"><ele>643.75</ele><time>2026-03-29T11:14:40.437Z</time></trkpt><trkpt lat="43.3162541" lon="13.2335542"><ele>641.5</ele><time>2026-03-29T11:14:41.438Z</time></trkpt><trkpt lat="43.3161649" lon="13.2334231"><ele>639.25</ele><time>2026-03-29T11:14:42.447Z</time></trkpt><trkpt lat="43.3161082" lon="13.2332754"><ele>637.0</ele><time>2026-03-29T11:14:43.399Z</time></trkpt><trkpt lat="43.3160636" lon="13.2331166"><ele>637.0</ele><time>2026-03-29T11:14:44.395Z</time></trkpt><trkpt lat="43.3160312" lon="13.2329539"><ele>637.0</ele><time>2026-03-29T11:14:45.441Z</time></trkpt><trkpt lat="43.3160048" lon="13.2328031"><ele>637.0</ele><time>2026-03-29T11:14:46.377Z</time></trkpt><trkpt lat="43.3159713" lon="13.2326845"><ele>637.0</ele><time>2026-03-29T11:14:47.381Z</time></trkpt><trkpt lat="43.3159127" lon="13.2325906"><ele>637.0</ele><time>2026-03-29T11:14:48.381Z</time></trkpt><trkpt lat="43.3158348" lon="13.2325502"><ele>637.0</ele><time>2026-03-29T11:14:49.378Z</time></trkpt><trkpt lat="43.3157412" lon="13.2325695"><ele>637.0</ele><time>2026-03-29T11:14:50.375Z</time></trkpt><trkpt lat="43.315682" lon="13.2326749"><ele>637.0</ele><time>2026-03-29T11:14:51.384Z</time></trkpt><trkpt lat="43.3156713" lon="13.2327704"><ele>637.0</ele><time>2026-03-29T11:14:52.413Z</time></trkpt><trkpt lat="43.3156907" lon="13.232857"><ele>637.0</ele><time>2026-03-29T11:14:54.427Z</time></trkpt><trkpt lat="43.3157074" lon="13.2329566"><ele>637.0</ele><time>2026-03-29T11:14:57.379Z</time></trkpt><trkpt lat="43.315699" lon="13.2330627"><ele>637.0</ele><time>2026-03-29T11:15:16.424Z</time></trkpt><trkpt lat="43.3156179" lon="13.2330639"><ele>637.0</ele><time>2026-03-29T11:15:19.439Z</time></trkpt><trkpt lat="43.315518" lon="13.2330087"><ele>637.0</ele><time>2026-03-29T11:15:21.418Z</time></trkpt><trkpt lat="43.315456" lon="13.2329925"><ele>637.0</ele><time>2026-03-29T11:15:22.428Z</time></trkpt><trkpt lat="43.3153874" lon="13.2329713"><ele>637.0</ele><time>2026-03-29T11:15:23.412Z</time></trkpt><trkpt lat="43.3152805" lon="13.2329663"><ele>637.0</ele><time>2026-03-29T11:15:25.436Z</time></trkpt><trkpt lat="43.3151811" lon="13.232974"><ele>631.25</ele><time>2026-03-29T11:15:27.433Z</time></trkpt><trkpt lat="43.3150707" lon="13.2329788"><ele>625.5</ele><time>2026-03-29T11:15:29.45Z</time></trkpt><trkpt lat="43.3149521" lon="13.23299"><ele>619.75</ele><time>2026-03-29T11:15:31.448Z</time></trkpt><trkpt lat="43.3148279" lon="13.2329939"><ele>614.0</ele><time>2026-03-29T11:15:33.452Z</time></trkpt><trkpt lat="43.3147086" lon="13.2329943"><ele>609.4</ele><time>2026-03-29T11:15:35.444Z</time></trkpt><trkpt lat="43.3146137" lon="13.2329554"><ele>604.8</ele><time>2026-03-29T11:15:37.438Z</time></trkpt><trkpt lat="43.3145108" lon="13.2328805"><ele>600.2</ele><time>2026-03-29T11:15:39.429Z</time></trkpt><trkpt lat="43.3144014" lon="13.2328163"><ele>595.6</ele><time>2026-03-29T11:15:41.442Z</time></trkpt><trkpt lat="43.3143381" lon="13.232784"><ele>591.0</ele><time>2026-03-29T11:15:42.445Z</time></trkpt><trkpt lat="43.314228" lon="13.2327272"><ele>591.0</ele><time>2026-03-29T11:15:44.425Z</time></trkpt><trkpt lat="43.3141396" lon="13.2326938"><ele>591.0</ele><time>2026-03-29T11:15:46.438Z</time></trkpt><trkpt lat="43.3140712" lon="13.2326557"><ele>591.0</ele><time>2026-03-29T11:15:53.445Z</time></trkpt><trkpt lat="43.3140111" lon="13.2326234"><ele>591.0</ele><time>2026-03-29T11:15:56.423Z</time></trkpt><trkpt lat="43.3139449" lon="13.2325603"><ele>591.0</ele><time>2026-03-29T11:15:59.457Z</time></trkpt><trkpt lat="43.3138885" lon="13.2324995"><ele>591.0</ele><time>2026-03-29T11:16:03.437Z</time></trkpt><trkpt lat="43.3138393" lon="13.2324368"><ele>591.0</ele><time>2026-03-29T11:16:10.426Z</time></trkpt><trkpt lat="43.3137919" lon="13.2323559"><ele>587.5714285714286</ele><time>2026-03-29T11:16:14.434Z</time></trkpt><trkpt lat="43.3137235" lon="13.2323446"><ele>584.1428571428571</ele><time>2026-03-29T11:16:18.43Z</time></trkpt><trkpt lat="43.3136599" lon="13.2323338"><ele>580.7142857142858</ele><time>2026-03-29T11:16:22.405Z</time></trkpt><trkpt lat="43.3135898" lon="13.2322921"><ele>577.2857142857142</ele><time>2026-03-29T11:16:28.433Z</time></trkpt><trkpt lat="43.3135313" lon="13.2322513"><ele>573.8571428571429</ele><time>2026-03-29T11:16:33.417Z</time></trkpt><trkpt lat="43.3134781" lon="13.2321908"><ele>570.4285714285714</ele><time>2026-03-29T11:16:36.421Z</time></trkpt><trkpt lat="43.3134224" lon="13.232098"><ele>567.0</ele><time>2026-03-29T11:16:39.411Z</time></trkpt><trkpt lat="43.3133268" lon="13.2320327"><ele>567.0</ele><time>2026-03-29T11:16:42.418Z</time></trkpt><trkpt lat="43.3132625" lon="13.2320672"><ele>567.0</ele><time>2026-03-29T11:16:43.442Z</time></trkpt><trkpt lat="43.3132137" lon="13.232122"><ele>567.0</ele><time>2026-03-29T11:16:44.436Z</time></trkpt><trkpt lat="43.3131983" lon="13.2322614"><ele>567.0</ele><time>2026-03-29T11:16:46.434Z</time></trkpt><trkpt lat="43.313243" lon="13.2323438"><ele>567.0</ele><time>2026-03-29T11:16:47.438Z</time></trkpt><trkpt lat="43.3132861" lon="13.2324245"><ele>567.0</ele><time>2026-03-29T11:16:48.437Z</time></trkpt><trkpt lat="43.3133275" lon="13.23254"><ele>566.4</ele><time>2026-03-29T11:16:49.42Z</time></trkpt><trkpt lat="43.313344" lon="13.2326718"><ele>565.8000000000001</ele><time>2026-03-29T11:16:50.444Z</time></trkpt><trkpt lat="43.3133292" lon="13.2328146"><ele>565.2</ele><time>2026-03-29T11:16:51.445Z</time></trkpt><trkpt lat="43.313313" lon="13.2329532"><ele>564.6</ele><time>2026-03-29T11:16:52.422Z</time></trkpt><trkpt lat="43.3132802" lon="13.233085"><ele>564.0</ele><time>2026-03-29T11:16:53.426Z</time></trkpt><trkpt lat="43.3132324" lon="13.2332207"><ele>562.0</ele><time>2026-03-29T11:16:54.447Z</time></trkpt><trkpt lat="43.3131904" lon="13.2333681"><ele>560.0</ele><time>2026-03-29T11:16:55.436Z</time></trkpt><trkpt lat="43.3131507" lon="13.2335078"><ele>558.0</ele><time>2026-03-29T11:16:56.433Z</time></trkpt><trkpt lat="43.3131217" lon="13.2336428"><ele>556.0</ele><time>2026-03-29T11:16:57.388Z</time></trkpt><trkpt lat="43.3130856" lon="13.2337804"><ele>554.0</ele><time>2026-03-29T11:16:58.439Z</time></trkpt><trkpt lat="43.3130495" lon="13.2339092"><ele>548.5</ele><time>2026-03-29T11:16:59.434Z</time></trkpt><trkpt lat="43.3130132" lon="13.234029"><ele>543.0</ele><time>2026-03-29T11:17:00.463Z</time></trkpt><trkpt lat="43.3129752" lon="13.2341407"><ele>537.5</ele><time>2026-03-29T11:17:01.454Z</time></trkpt><trkpt lat="43.3129558" lon="13.2342495"><ele>532.0</ele><time>2026-03-29T11:17:02.442Z</time></trkpt><trkpt lat="43.3129561" lon="13.234353"><ele>526.5</ele><time>2026-03-29T11:17:03.417Z</time></trkpt><trkpt lat="43.3129597" lon="13.2344418"><ele>521.0</ele><time>2026-03-29T11:17:04.436Z</time></trkpt><trkpt lat="43.3129464" lon="13.2346203"><ele>521.0</ele><time>2026-03-29T11:17:06.434Z</time></trkpt><trkpt lat="43.3129189" lon="13.2347193"><ele>521.0</ele><time>2026-03-29T11:17:07.432Z</time></trkpt><trkpt lat="43.3128689" lon="13.2348564"><ele>521.0</ele><time>2026-03-29T11:17:09.394Z</time></trkpt><trkpt lat="43.3128206" lon="13.2349893"><ele>521.0</ele><time>2026-03-29T11:17:11.44Z</time></trkpt><trkpt lat="43.3127769" lon="13.2351404"><ele>521.0</ele><time>2026-03-29T11:17:13.398Z</time></trkpt><trkpt lat="43.3127604" lon="13.23523"><ele>518.8</ele><time>2026-03-29T11:17:14.437Z</time></trkpt><trkpt lat="43.3127505" lon="13.2353155"><ele>516.6</ele><time>2026-03-29T11:17:15.386Z</time></trkpt><trkpt lat="43.3127349" lon="13.2354699"><ele>514.4</ele><time>2026-03-29T11:17:17.393Z</time></trkpt><trkpt lat="43.3127155" lon="13.2356183"><ele>512.2</ele><time>2026-03-29T11:17:19.401Z</time></trkpt><trkpt lat="43.3126741" lon="13.2357522"><ele>510.0</ele><time>2026-03-29T11:17:21.396Z</time></trkpt><trkpt lat="43.3126265" lon="13.2358934"><ele>508.5714285714286</ele><time>2026-03-29T11:17:23.425Z</time></trkpt><trkpt lat="43.3126011" lon="13.2359823"><ele>507.1428571428572</ele><time>2026-03-29T11:17:24.435Z</time></trkpt><trkpt lat="43.3125748" lon="13.2360779"><ele>505.7142857142857</ele><time>2026-03-29T11:17:25.403Z</time></trkpt><trkpt lat="43.3125517" lon="13.2361744"><ele>504.28571428571433</ele><time>2026-03-29T11:17:26.447Z</time></trkpt><trkpt lat="43.3125221" lon="13.2362676"><ele>502.8571428571429</ele><time>2026-03-29T11:17:27.435Z</time></trkpt><trkpt lat="43.312496" lon="13.23635"><ele>501.42857142857144</ele><time>2026-03-29T11:17:28.428Z</time></trkpt><trkpt lat="43.3124672" lon="13.2364473"><ele>500.0</ele><time>2026-03-29T11:17:29.428Z</time></trkpt><trkpt lat="43.3124315" lon="13.2365518"><ele>499.2</ele><time>2026-03-29T11:17:30.436Z</time></trkpt><trkpt lat="43.3123924" lon="13.2366592"><ele>498.4</ele><time>2026-03-29T11:17:31.441Z</time></trkpt><trkpt lat="43.3123548" lon="13.2367807"><ele>497.6</ele><time>2026-03-29T11:17:32.391Z</time></trkpt><trkpt lat="43.312324" lon="13.236911"><ele>496.8</ele><time>2026-03-29T11:17:33.422Z</time></trkpt><trkpt lat="43.3123109" lon="13.237058"><ele>496.0</ele><time>2026-03-29T11:17:34.425Z</time></trkpt><trkpt lat="43.3122977" lon="13.2372091"><ele>495.4</ele><time>2026-03-29T11:17:35.417Z</time></trkpt><trkpt lat="43.3122934" lon="13.2373504"><ele>494.8</ele><time>2026-03-29T11:17:36.429Z</time></trkpt><trkpt lat="43.3122947" lon="13.2374905"><ele>494.19999999999993</ele><time>2026-03-29T11:17:37.429Z</time></trkpt><trkpt lat="43.3122844" lon="13.2376328"><ele>493.59999999999997</ele><time>2026-03-29T11:17:38.388Z</time></trkpt><trkpt lat="43.3122558" lon="13.2377858"><ele>493.0</ele><time>2026-03-29T11:17:39.434Z</time></trkpt><trkpt lat="43.3122005" lon="13.2379527"><ele>490.75</ele><time>2026-03-29T11:17:40.442Z</time></trkpt><trkpt lat="43.3121355" lon="13.2381254"><ele>488.5</ele><time>2026-03-29T11:17:41.436Z</time></trkpt><trkpt lat="43.3120645" lon="13.238278"><ele>486.25</ele><time>2026-03-29T11:17:42.424Z</time></trkpt><trkpt lat="43.3119917" lon="13.2384139"><ele>484.0</ele><time>2026-03-29T11:17:43.424Z</time></trkpt><trkpt lat="43.3119224" lon="13.2385297"><ele>482.6666666666667</ele><time>2026-03-29T11:17:44.456Z</time></trkpt><trkpt lat="43.3118521" lon="13.238627"><ele>481.33333333333337</ele><time>2026-03-29T11:17:45.418Z</time></trkpt><trkpt lat="43.3117842" lon="13.2387054"><ele>480.0</ele><time>2026-03-29T11:17:46.447Z</time></trkpt><trkpt lat="43.3117147" lon="13.2387674"><ele>478.66666666666663</ele><time>2026-03-29T11:17:47.415Z</time></trkpt><trkpt lat="43.3116456" lon="13.2388121"><ele>477.3333333333333</ele><time>2026-03-29T11:17:48.447Z</time></trkpt><trkpt lat="43.3115528" lon="13.2388697"><ele>476.0</ele><time>2026-03-29T11:17:50.454Z</time></trkpt><trkpt lat="43.3115011" lon="13.2389226"><ele>475.20000000000005</ele><time>2026-03-29T11:17:52.429Z</time></trkpt><trkpt lat="43.3114653" lon="13.2390463"><ele>474.40000000000003</ele><time>2026-03-29T11:17:54.404Z</time></trkpt><trkpt lat="43.3114792" lon="13.2391452"><ele>473.6</ele><time>2026-03-29T11:17:55.441Z</time></trkpt><trkpt lat="43.3115072" lon="13.2392665"><ele>472.8</ele><time>2026-03-29T11:17:56.449Z</time></trkpt><trkpt lat="43.3115385" lon="13.2393958"><ele>472.0</ele><time>2026-03-29T11:17:57.387Z</time></trkpt><trkpt lat="43.3115764" lon="13.2395366"><ele>472.0</ele><time>2026-03-29T11:17:58.429Z</time></trkpt><trkpt lat="43.3116165" lon="13.2396791"><ele>472.00000000000006</ele><time>2026-03-29T11:17:59.439Z</time></trkpt><trkpt lat="43.3116593" lon="13.2398108"><ele>472.00000000000006</ele><time>2026-03-29T11:18:00.413Z</time></trkpt><trkpt lat="43.3117065" lon="13.2399241"><ele>472.0</ele><time>2026-03-29T11:18:01.424Z</time></trkpt><trkpt lat="43.3117493" lon="13.2400234"><ele>472.0</ele><time>2026-03-29T11:18:02.432Z</time></trkpt><trkpt lat="43.3117966" lon="13.2401184"><ele>471.50000000000006</ele><time>2026-03-29T11:18:03.434Z</time></trkpt><trkpt lat="43.3118451" lon="13.2402028"><ele>471.0</ele><time>2026-03-29T11:18:04.449Z</time></trkpt><trkpt lat="43.3119031" lon="13.2402839"><ele>470.5</ele><time>2026-03-29T11:18:05.438Z</time></trkpt><trkpt lat="43.3119644" lon="13.2403659"><ele>470.0</ele><time>2026-03-29T11:18:06.422Z</time></trkpt><trkpt lat="43.3120217" lon="13.2404469"><ele>469.50000000000006</ele><time>2026-03-29T11:18:07.444Z</time></trkpt><trkpt lat="43.3120967" lon="13.2405293"><ele>469.0</ele><time>2026-03-29T11:18:08.431Z</time></trkpt><trkpt lat="43.3121692" lon="13.2406139"><ele>468.79999999999995</ele><time>2026-03-29T11:18:09.454Z</time></trkpt><trkpt lat="43.312245" lon="13.2407017"><ele>468.59999999999997</ele><time>2026-03-29T11:18:10.454Z</time></trkpt><trkpt lat="43.3123227" lon="13.2407923"><ele>468.4</ele><time>2026-03-29T11:18:11.436Z</time></trkpt><trkpt lat="43.3124001" lon="13.2408748"><ele>468.2</ele><time>2026-03-29T11:18:12.44Z</time></trkpt><trkpt lat="43.3124675" lon="13.2409515"><ele>468.0</ele><time>2026-03-29T11:18:13.439Z</time></trkpt><trkpt lat="43.3125294" lon="13.2410255"><ele>468.0</ele><time>2026-03-29T11:18:14.44Z</time></trkpt><trkpt lat="43.3125923" lon="13.2410922"><ele>468.0</ele><time>2026-03-29T11:18:15.442Z</time></trkpt><trkpt lat="43.3126603" lon="13.2411515"><ele>468.0</ele><time>2026-03-29T11:18:16.427Z</time></trkpt><trkpt lat="43.3127299" lon="13.2412114"><ele>468.0</ele><time>2026-03-29T11:18:17.449Z</time></trkpt><trkpt lat="43.3128045" lon="13.2412755"><ele>468.0</ele><time>2026-03-29T11:18:18.402Z</time></trkpt><trkpt lat="43.3128779" lon="13.2413423"><ele>468.0</ele><time>2026-03-29T11:18:19.45Z</time></trkpt><trkpt lat="43.3129572" lon="13.2414032"><ele>468.0</ele><time>2026-03-29T11:18:20.443Z</time></trkpt><trkpt lat="43.3130261" lon="13.2414569"><ele>468.00000000000006</ele><time>2026-03-29T11:18:21.439Z</time></trkpt><trkpt lat="43.3130891" lon="13.2415033"><ele>468.0</ele><time>2026-03-29T11:18:22.447Z</time></trkpt><trkpt lat="43.313148" lon="13.2415404"><ele>468.0</ele><time>2026-03-29T11:18:23.462Z</time></trkpt><trkpt lat="43.3132078" lon="13.2415754"><ele>468.00000000000006</ele><time>2026-03-29T11:18:24.431Z</time></trkpt><trkpt lat="43.3132706" lon="13.2416169"><ele>468.0</ele><time>2026-03-29T11:18:25.462Z</time></trkpt><trkpt lat="43.3133358" lon="13.24166"><ele>468.0</ele><time>2026-03-29T11:18:26.431Z</time></trkpt><trkpt lat="43.3134039" lon="13.2416987"><ele>469.0</ele><time>2026-03-29T11:18:27.445Z</time></trkpt><trkpt lat="43.3134676" lon="13.2417366"><ele>470.0</ele><time>2026-03-29T11:18:28.444Z</time></trkpt><trkpt lat="43.3135301" lon="13.2417772"><ele>471.0</ele><time>2026-03-29T11:18:29.459Z</time></trkpt><trkpt lat="43.3136376" lon="13.2418395"><ele>472.0</ele><time>2026-03-29T11:18:31.435Z</time></trkpt><trkpt lat="43.3137485" lon="13.2418629"><ele>473.0</ele><time>2026-03-29T11:18:33.387Z</time></trkpt><trkpt lat="43.3137912" lon="13.2417673"><ele>474.0</ele><time>2026-03-29T11:18:35.442Z</time></trkpt><trkpt lat="43.3137399" lon="13.2416701"><ele>474.0</ele><time>2026-03-29T11:18:37.415Z</time></trkpt><trkpt lat="43.3136702" lon="13.2415909"><ele>474.0</ele><time>2026-03-29T11:18:39.448Z</time></trkpt><trkpt lat="43.3136181" lon="13.2415188"><ele>474.0</ele><time>2026-03-29T11:18:41.421Z</time></trkpt><trkpt lat="43.3135676" lon="13.2414628"><ele>474.0</ele><time>2026-03-29T11:18:43.384Z</time></trkpt><trkpt lat="43.3134971" lon="13.2414186"><ele>474.0</ele><time>2026-03-29T11:18:46.423Z</time></trkpt><trkpt lat="43.3134235" lon="13.241385"><ele>474.0</ele><time>2026-03-29T11:18:49.419Z</time></trkpt><trkpt lat="43.3133599" lon="13.2413346"><ele>479.0</ele><time>2026-03-29T11:18:52.415Z</time></trkpt><trkpt lat="43.3133028" lon="13.2412711"><ele>479.0</ele><time>2026-03-29T11:18:55.401Z</time></trkpt><trkpt lat="43.3132528" lon="13.2412125"><ele>479.0</ele><time>2026-03-29T11:18:58.444Z</time></trkpt><trkpt lat="43.3132015" lon="13.2411426"><ele>479.0</ele><time>2026-03-29T11:19:01.445Z</time></trkpt><trkpt lat="43.3131443" lon="13.2412035"><ele>479.0</ele><time>2026-03-29T11:19:05.44Z</time></trkpt><trkpt lat="43.3131826" lon="13.2412757"><ele>479.0</ele><time>2026-03-29T11:20:14.383Z</time></trkpt></trkseg><trkseg><trkpt lat="43.3132495" lon="13.2411856"><ele>478.99999999999994</ele><time>2026-03-29T13:13:23.937Z</time></trkpt><trkpt lat="43.313191" lon="13.2411513"><ele>479.0</ele><time>2026-03-29T13:13:33.943Z</time></trkpt><trkpt lat="43.3132476" lon="13.2412217"><ele>479.0</ele><time>2026-03-29T13:19:46.947Z</time></trkpt><trkpt lat="43.3133347" lon="13.2412854"><ele>479.0</ele><time>2026-03-29T13:19:48.942Z</time></trkpt><trkpt lat="43.3134149" lon="13.2413297"><ele>478.99999999999994</ele><time>2026-03-29T13:19:50.946Z</time></trkpt><trkpt lat="43.3133738" lon="13.2413958"><ele>479.0</ele><time>2026-03-29T13:19:53.947Z</time></trkpt><trkpt lat="43.3133033" lon="13.2413659"><ele>479.0</ele><time>2026-03-29T13:19:56.94Z</time></trkpt><trkpt lat="43.3132336" lon="13.2413392"><ele>479.0</ele><time>2026-03-29T13:20:00.954Z</time></trkpt><trkpt lat="43.3131681" lon="13.2413873"><ele>479.0</ele><time>2026-03-29T13:20:04.95Z</time></trkpt><trkpt lat="43.3130995" lon="13.241428"><ele>479.0</ele><time>2026-03-29T13:20:06.943Z</time></trkpt><trkpt lat="43.3130176" lon="13.2414213"><ele>479.0</ele><time>2026-03-29T13:20:08.952Z</time></trkpt><trkpt lat="43.3129535" lon="13.2413802"><ele>479.0</ele><time>2026-03-29T13:20:10.954Z</time></trkpt><trkpt lat="43.3129987" lon="13.2414539"><ele>479.0</ele><time>2026-03-29T13:20:15.95Z</time></trkpt><trkpt lat="43.3130536" lon="13.2415073"><ele>478.2857142857143</ele><time>2026-03-29T13:21:32.964Z</time></trkpt><trkpt lat="43.3131158" lon="13.2415435"><ele>477.57142857142856</ele><time>2026-03-29T13:21:35.947Z</time></trkpt><trkpt lat="43.3130625" lon="13.2414572"><ele>476.85714285714283</ele><time>2026-03-29T13:21:41.951Z</time></trkpt><trkpt lat="43.3130019" lon="13.2414248"><ele>476.1428571428571</ele><time>2026-03-29T13:21:43.955Z</time></trkpt><trkpt lat="43.3129433" lon="13.241371"><ele>475.42857142857144</ele><time>2026-03-29T13:21:45.952Z</time></trkpt><trkpt lat="43.312882" lon="13.2413277"><ele>474.71428571428567</ele><time>2026-03-29T13:21:47.956Z</time></trkpt><trkpt lat="43.3128223" lon="13.2412731"><ele>473.99999999999994</ele><time>2026-03-29T13:21:50.95Z</time></trkpt><trkpt lat="43.3127606" lon="13.2412197"><ele>473.1428571428571</ele><time>2026-03-29T13:21:53.955Z</time></trkpt><trkpt lat="43.3127047" lon="13.2411737"><ele>472.2857142857143</ele><time>2026-03-29T13:21:55.957Z</time></trkpt><trkpt lat="43.3126474" lon="13.2411275"><ele>471.42857142857144</ele><time>2026-03-29T13:21:57.945Z</time></trkpt><trkpt lat="43.3125936" lon="13.2410789"><ele>470.57142857142856</ele><time>2026-03-29T13:21:59.945Z</time></trkpt><trkpt lat="43.3125332" lon="13.2410054"><ele>469.7142857142858</ele><time>2026-03-29T13:22:02.946Z</time></trkpt><trkpt lat="43.3124856" lon="13.2409465"><ele>468.8571428571429</ele><time>2026-03-29T13:22:04.942Z</time></trkpt><trkpt lat="43.3124258" lon="13.2408792"><ele>468.0</ele><time>2026-03-29T13:22:06.945Z</time></trkpt><trkpt lat="43.3123564" lon="13.2407879"><ele>468.0</ele><time>2026-03-29T13:22:08.948Z</time></trkpt><trkpt lat="43.3122733" lon="13.2406878"><ele>468.0</ele><time>2026-03-29T13:22:10.944Z</time></trkpt><trkpt lat="43.3122214" lon="13.2406218"><ele>468.0</ele><time>2026-03-29T13:22:11.954Z</time></trkpt><trkpt lat="43.3121693" lon="13.240564"><ele>468.0</ele><time>2026-03-29T13:22:12.941Z</time></trkpt><trkpt lat="43.3121114" lon="13.2404883"><ele>468.0</ele><time>2026-03-29T13:22:13.956Z</time></trkpt><trkpt lat="43.3120444" lon="13.2404035"><ele>468.0</ele><time>2026-03-29T13:22:14.945Z</time></trkpt><trkpt lat="43.3119744" lon="13.2403083"><ele>468.1666666666667</ele><time>2026-03-29T13:22:15.946Z</time></trkpt><trkpt lat="43.3119003" lon="13.240213"><ele>468.33333333333337</ele><time>2026-03-29T13:22:16.94Z</time></trkpt><trkpt lat="43.3118356" lon="13.240121"><ele>468.5</ele><time>2026-03-29T13:22:17.95Z</time></trkpt><trkpt lat="43.311787" lon="13.2400265"><ele>468.6666666666667</ele><time>2026-03-29T13:22:18.958Z</time></trkpt><trkpt lat="43.3117441" lon="13.2399333"><ele>468.83333333333337</ele><time>2026-03-29T13:22:19.951Z</time></trkpt><trkpt lat="43.3117015" lon="13.2398381"><ele>469.0</ele><time>2026-03-29T13:22:20.942Z</time></trkpt><trkpt lat="43.3116608" lon="13.2397362"><ele>469.6</ele><time>2026-03-29T13:22:21.946Z</time></trkpt><trkpt lat="43.3116295" lon="13.2396608"><ele>470.2</ele><time>2026-03-29T13:22:22.943Z</time></trkpt><trkpt lat="43.3115838" lon="13.239512"><ele>470.80000000000007</ele><time>2026-03-29T13:22:24.943Z</time></trkpt><trkpt lat="43.3115381" lon="13.2393572"><ele>471.40000000000003</ele><time>2026-03-29T13:22:26.943Z</time></trkpt><trkpt lat="43.3115046" lon="13.239252"><ele>472.0</ele><time>2026-03-29T13:22:28.948Z</time></trkpt><trkpt lat="43.3114886" lon="13.2391482"><ele>472.00000000000006</ele><time>2026-03-29T13:22:30.954Z</time></trkpt><trkpt lat="43.311488" lon="13.2390488"><ele>472.0</ele><time>2026-03-29T13:22:32.952Z</time></trkpt><trkpt lat="43.3115319" lon="13.2389553"><ele>472.0</ele><time>2026-03-29T13:22:34.954Z</time></trkpt><trkpt lat="43.3116244" lon="13.2388567"><ele>472.0</ele><time>2026-03-29T13:22:36.947Z</time></trkpt><trkpt lat="43.3116791" lon="13.2388045"><ele>472.00000000000006</ele><time>2026-03-29T13:22:37.945Z</time></trkpt><trkpt lat="43.3117297" lon="13.2387431"><ele>472.0</ele><time>2026-03-29T13:22:38.951Z</time></trkpt><trkpt lat="43.3117835" lon="13.2386821"><ele>472.6666666666667</ele><time>2026-03-29T13:22:39.949Z</time></trkpt><trkpt lat="43.3118331" lon="13.2386254"><ele>473.33333333333337</ele><time>2026-03-29T13:22:40.951Z</time></trkpt><trkpt lat="43.3118864" lon="13.238562"><ele>474.0</ele><time>2026-03-29T13:22:41.95Z</time></trkpt><trkpt lat="43.3119359" lon="13.2384949"><ele>474.66666666666663</ele><time>2026-03-29T13:22:42.951Z</time></trkpt><trkpt lat="43.3119857" lon="13.2384065"><ele>475.3333333333333</ele><time>2026-03-29T13:22:43.947Z</time></trkpt><trkpt lat="43.3120333" lon="13.2383114"><ele>476.0</ele><time>2026-03-29T13:22:44.954Z</time></trkpt><trkpt lat="43.3120854" lon="13.2382278"><ele>476.0</ele><time>2026-03-29T13:22:45.951Z</time></trkpt><trkpt lat="43.3121257" lon="13.2381474"><ele>476.0</ele><time>2026-03-29T13:22:46.949Z</time></trkpt><trkpt lat="43.3121555" lon="13.2380695"><ele>476.0</ele><time>2026-03-29T13:22:47.952Z</time></trkpt><trkpt lat="43.3121901" lon="13.2379802"><ele>476.0</ele><time>2026-03-29T13:22:48.951Z</time></trkpt><trkpt lat="43.312228" lon="13.237894"><ele>476.0</ele><time>2026-03-29T13:22:49.946Z</time></trkpt><trkpt lat="43.3122599" lon="13.2377999"><ele>476.0</ele><time>2026-03-29T13:22:50.943Z</time></trkpt><trkpt lat="43.3122944" lon="13.2377092"><ele>476.0</ele><time>2026-03-29T13:22:51.953Z</time></trkpt><trkpt lat="43.3123111" lon="13.2376197"><ele>478.42857142857144</ele><time>2026-03-29T13:22:52.942Z</time></trkpt><trkpt lat="43.3123162" lon="13.2375244"><ele>480.8571428571429</ele><time>2026-03-29T13:22:53.959Z</time></trkpt><trkpt lat="43.3123325" lon="13.2374314"><ele>483.2857142857143</ele><time>2026-03-29T13:22:54.946Z</time></trkpt><trkpt lat="43.3123509" lon="13.2373362"><ele>485.7142857142857</ele><time>2026-03-29T13:22:55.945Z</time></trkpt><trkpt lat="43.3123667" lon="13.2372379"><ele>488.14285714285717</ele><time>2026-03-29T13:22:56.952Z</time></trkpt><trkpt lat="43.3123797" lon="13.2371389"><ele>490.57142857142856</ele><time>2026-03-29T13:22:57.954Z</time></trkpt><trkpt lat="43.3123926" lon="13.2370401"><ele>493.0</ele><time>2026-03-29T13:22:59.947Z</time></trkpt><trkpt lat="43.3123693" lon="13.2369341"><ele>493.50000000000006</ele><time>2026-03-29T13:23:02.939Z</time></trkpt><trkpt lat="43.3123703" lon="13.2368069"><ele>494.0</ele><time>2026-03-29T13:23:05.952Z</time></trkpt><trkpt lat="43.3124073" lon="13.2366974"><ele>494.5</ele><time>2026-03-29T13:23:08.948Z</time></trkpt><trkpt lat="43.312438" lon="13.2365855"><ele>495.0</ele><time>2026-03-29T13:23:11.939Z</time></trkpt><trkpt lat="43.3124526" lon="13.2365007"><ele>495.50000000000006</ele><time>2026-03-29T13:23:13.945Z</time></trkpt><trkpt lat="43.3124764" lon="13.2364169"><ele>496.0</ele><time>2026-03-29T13:23:15.96Z</time></trkpt><trkpt lat="43.3125146" lon="13.2363158"><ele>496.8</ele><time>2026-03-29T13:23:17.949Z</time></trkpt><trkpt lat="43.3125472" lon="13.2361914"><ele>497.6</ele><time>2026-03-29T13:23:19.966Z</time></trkpt><trkpt lat="43.3125807" lon="13.2360733"><ele>498.4</ele><time>2026-03-29T13:23:21.96Z</time></trkpt><trkpt lat="43.3126229" lon="13.2359697"><ele>499.2</ele><time>2026-03-29T13:23:23.966Z</time></trkpt><trkpt lat="43.3126634" lon="13.2358507"><ele>500.0</ele><time>2026-03-29T13:23:25.945Z</time></trkpt><trkpt lat="43.3126955" lon="13.2357281"><ele>501.66666666666663</ele><time>2026-03-29T13:23:27.935Z</time></trkpt><trkpt lat="43.3127197" lon="13.2356119"><ele>503.3333333333333</ele><time>2026-03-29T13:23:29.944Z</time></trkpt><trkpt lat="43.3127536" lon="13.2354917"><ele>505.0</ele><time>2026-03-29T13:23:31.97Z</time></trkpt><trkpt lat="43.3127837" lon="13.235395"><ele>506.66666666666663</ele><time>2026-03-29T13:23:33.957Z</time></trkpt><trkpt lat="43.3127951" lon="13.2352779"><ele>508.3333333333333</ele><time>2026-03-29T13:23:35.946Z</time></trkpt><trkpt lat="43.3128137" lon="13.235138"><ele>510.0</ele><time>2026-03-29T13:23:38.96Z</time></trkpt><trkpt lat="43.3128437" lon="13.2350152"><ele>510.0</ele><time>2026-03-29T13:23:40.947Z</time></trkpt><trkpt lat="43.3128689" lon="13.2348925"><ele>510.0</ele><time>2026-03-29T13:23:42.95Z</time></trkpt><trkpt lat="43.3128925" lon="13.2347766"><ele>510.0</ele><time>2026-03-29T13:23:44.956Z</time></trkpt><trkpt lat="43.3129326" lon="13.2346775"><ele>510.0</ele><time>2026-03-29T13:23:46.952Z</time></trkpt><trkpt lat="43.3129675" lon="13.2345753"><ele>510.0</ele><time>2026-03-29T13:23:48.941Z</time></trkpt><trkpt lat="43.3129759" lon="13.2344852"><ele>510.0</ele><time>2026-03-29T13:23:50.944Z</time></trkpt><trkpt lat="43.3129938" lon="13.2343561"><ele>511.8333333333333</ele><time>2026-03-29T13:23:52.959Z</time></trkpt><trkpt lat="43.3130004" lon="13.2342049"><ele>513.6666666666666</ele><time>2026-03-29T13:23:54.951Z</time></trkpt><trkpt lat="43.3130197" lon="13.2341186"><ele>515.5</ele><time>2026-03-29T13:23:55.943Z</time></trkpt><trkpt lat="43.31305" lon="13.2340153"><ele>517.3333333333333</ele><time>2026-03-29T13:23:56.948Z</time></trkpt><trkpt lat="43.3130829" lon="13.2339051"><ele>519.1666666666666</ele><time>2026-03-29T13:23:57.95Z</time></trkpt><trkpt lat="43.3131219" lon="13.2337876"><ele>521.0</ele><time>2026-03-29T13:23:58.94Z</time></trkpt><trkpt lat="43.3131626" lon="13.2336412"><ele>529.25</ele><time>2026-03-29T13:23:59.946Z</time></trkpt><trkpt lat="43.3131974" lon="13.2334795"><ele>537.5</ele><time>2026-03-29T13:24:00.944Z</time></trkpt><trkpt lat="43.3132399" lon="13.2333225"><ele>545.75</ele><time>2026-03-29T13:24:01.963Z</time></trkpt><trkpt lat="43.3132933" lon="13.2331564"><ele>554.0</ele><time>2026-03-29T13:24:02.939Z</time></trkpt><trkpt lat="43.3133443" lon="13.2329977"><ele>556.5</ele><time>2026-03-29T13:24:03.948Z</time></trkpt><trkpt lat="43.3133789" lon="13.2328444"><ele>559.0</ele><time>2026-03-29T13:24:04.94Z</time></trkpt><trkpt lat="43.3133999" lon="13.232687"><ele>561.5</ele><time>2026-03-29T13:24:05.95Z</time></trkpt><trkpt lat="43.3133794" lon="13.2325379"><ele>564.0</ele><time>2026-03-29T13:24:06.95Z</time></trkpt><trkpt lat="43.3133353" lon="13.2323962"><ele>564.5</ele><time>2026-03-29T13:24:07.94Z</time></trkpt><trkpt lat="43.3132806" lon="13.2322592"><ele>565.0</ele><time>2026-03-29T13:24:08.94Z</time></trkpt><trkpt lat="43.3132287" lon="13.2321448"><ele>565.5</ele><time>2026-03-29T13:24:09.943Z</time></trkpt><trkpt lat="43.3132513" lon="13.2320408"><ele>566.0</ele><time>2026-03-29T13:24:11.949Z</time></trkpt><trkpt lat="43.3133109" lon="13.2319809"><ele>566.5</ele><time>2026-03-29T13:24:28.94Z</time></trkpt><trkpt lat="43.3133826" lon="13.2320143"><ele>567.0</ele><time>2026-03-29T13:24:41.946Z</time></trkpt><trkpt lat="43.3133944" lon="13.2321009"><ele>567.0</ele><time>2026-03-29T13:25:05.939Z</time></trkpt><trkpt lat="43.3134492" lon="13.2321536"><ele>567.0</ele><time>2026-03-29T13:25:08.943Z</time></trkpt><trkpt lat="43.3135076" lon="13.2322034"><ele>567.0</ele><time>2026-03-29T13:25:11.948Z</time></trkpt><trkpt lat="43.3135712" lon="13.2322432"><ele>567.0</ele><time>2026-03-29T13:25:17.951Z</time></trkpt><trkpt lat="43.3136509" lon="13.232258"><ele>567.0</ele><time>2026-03-29T13:25:20.95Z</time></trkpt><trkpt lat="43.3137091" lon="13.2322961"><ele>567.0</ele><time>2026-03-29T13:25:24.949Z</time></trkpt><trkpt lat="43.3137646" lon="13.2323601"><ele>567.0</ele><time>2026-03-29T13:25:28.941Z</time></trkpt><trkpt lat="43.313823" lon="13.232441"><ele>566.5</ele><time>2026-03-29T13:25:32.96Z</time></trkpt><trkpt lat="43.3138879" lon="13.2324978"><ele>566.0</ele><time>2026-03-29T13:25:34.958Z</time></trkpt><trkpt lat="43.3139588" lon="13.2325433"><ele>565.5</ele><time>2026-03-29T13:25:36.938Z</time></trkpt><trkpt lat="43.3140198" lon="13.2325969"><ele>565.0</ele><time>2026-03-29T13:25:38.944Z</time></trkpt><trkpt lat="43.3141181" lon="13.2326622"><ele>564.5</ele><time>2026-03-29T13:25:40.94Z</time></trkpt><trkpt lat="43.314194" lon="13.2327146"><ele>564.0</ele><time>2026-03-29T13:25:41.951Z</time></trkpt><trkpt lat="43.3142645" lon="13.2327546"><ele>567.8571428571429</ele><time>2026-03-29T13:25:42.94Z</time></trkpt><trkpt lat="43.3143346" lon="13.2327911"><ele>571.7142857142857</ele><time>2026-03-29T13:25:43.96Z</time></trkpt><trkpt lat="43.314397" lon="13.2328259"><ele>575.5714285714286</ele><time>2026-03-29T13:25:44.952Z</time></trkpt><trkpt lat="43.3144561" lon="13.2328606"><ele>579.4285714285714</ele><time>2026-03-29T13:25:45.949Z</time></trkpt><trkpt lat="43.314533" lon="13.2328977"><ele>583.2857142857143</ele><time>2026-03-29T13:25:46.949Z</time></trkpt><trkpt lat="43.314596" lon="13.2329189"><ele>587.1428571428571</ele><time>2026-03-29T13:25:47.949Z</time></trkpt><trkpt lat="43.3146776" lon="13.2329327"><ele>591.0</ele><time>2026-03-29T13:25:48.947Z</time></trkpt><trkpt lat="43.3147465" lon="13.2329533"><ele>595.6</ele><time>2026-03-29T13:25:49.957Z</time></trkpt><trkpt lat="43.3148129" lon="13.2329646"><ele>600.2</ele><time>2026-03-29T13:25:50.947Z</time></trkpt><trkpt lat="43.3149327" lon="13.2329726"><ele>604.8</ele><time>2026-03-29T13:25:52.952Z</time></trkpt><trkpt lat="43.3150454" lon="13.2329689"><ele>609.4</ele><time>2026-03-29T13:25:54.956Z</time></trkpt><trkpt lat="43.3151563" lon="13.2329359"><ele>614.0</ele><time>2026-03-29T13:25:56.952Z</time></trkpt><trkpt lat="43.3152671" lon="13.2329236"><ele>614.0</ele><time>2026-03-29T13:25:58.945Z</time></trkpt><trkpt lat="43.315333" lon="13.2329322"><ele>614.0</ele><time>2026-03-29T13:25:59.972Z</time></trkpt><trkpt lat="43.315402" lon="13.2329489"><ele>614.0</ele><time>2026-03-29T13:26:00.964Z</time></trkpt><trkpt lat="43.315466" lon="13.2329694"><ele>614.0</ele><time>2026-03-29T13:26:01.95Z</time></trkpt><trkpt lat="43.3155753" lon="13.233014"><ele>614.0</ele><time>2026-03-29T13:26:03.96Z</time></trkpt><trkpt lat="43.3156409" lon="13.2330453"><ele>614.0</ele><time>2026-03-29T13:26:05.955Z</time></trkpt><trkpt lat="43.3156983" lon="13.2329653"><ele>617.8333333333333</ele><time>2026-03-29T13:26:09.948Z</time></trkpt><trkpt lat="43.3156893" lon="13.2327936"><ele>621.6666666666666</ele><time>2026-03-29T13:26:11.959Z</time></trkpt><trkpt lat="43.3156965" lon="13.2327073"><ele>625.5</ele><time>2026-03-29T13:26:12.939Z</time></trkpt><trkpt lat="43.3157272" lon="13.2326298"><ele>629.3333333333334</ele><time>2026-03-29T13:26:13.95Z</time></trkpt><trkpt lat="43.315783" lon="13.2325747"><ele>633.1666666666667</ele><time>2026-03-29T13:26:14.964Z</time></trkpt><trkpt lat="43.3158693" lon="13.2326006"><ele>637.0</ele><time>2026-03-29T13:26:15.95Z</time></trkpt><trkpt lat="43.3159171" lon="13.2326585"><ele>637.0</ele><time>2026-03-29T13:26:16.944Z</time></trkpt><trkpt lat="43.3159535" lon="13.2327495"><ele>637.0</ele><time>2026-03-29T13:26:17.945Z</time></trkpt><trkpt lat="43.3159833" lon="13.2328635"><ele>637.0</ele><time>2026-03-29T13:26:18.939Z</time></trkpt><trkpt lat="43.3160099" lon="13.2329803"><ele>637.0</ele><time>2026-03-29T13:26:19.944Z</time></trkpt><trkpt lat="43.316026" lon="13.2331039"><ele>637.0</ele><time>2026-03-29T13:26:20.942Z</time></trkpt><trkpt lat="43.31604" lon="13.2332066"><ele>637.0</ele><time>2026-03-29T13:26:21.962Z</time></trkpt><trkpt lat="43.3160569" lon="13.2332949"><ele>635.2</ele><time>2026-03-29T13:26:22.941Z</time></trkpt><trkpt lat="43.3160937" lon="13.233388"><ele>633.4000000000001</ele><time>2026-03-29T13:26:24.951Z</time></trkpt><trkpt lat="43.3161369" lon="13.2334729"><ele>631.5999999999999</ele><time>2026-03-29T13:26:36.94Z</time></trkpt><trkpt lat="43.316218" lon="13.2335579"><ele>629.8</ele><time>2026-03-29T13:26:42.951Z</time></trkpt><trkpt lat="43.3163131" lon="13.2336665"><ele>628.0</ele><time>2026-03-29T13:26:44.941Z</time></trkpt><trkpt lat="43.3163901" lon="13.2337532"><ele>630.0</ele><time>2026-03-29T13:26:46.941Z</time></trkpt><trkpt lat="43.3164591" lon="13.2338248"><ele>632.0</ele><time>2026-03-29T13:26:53.956Z</time></trkpt><trkpt lat="43.3165432" lon="13.2339055"><ele>634.0</ele><time>2026-03-29T13:26:55.952Z</time></trkpt><trkpt lat="43.3165999" lon="13.2339691"><ele>636.0</ele><time>2026-03-29T13:26:56.947Z</time></trkpt><trkpt lat="43.3166672" lon="13.2340253"><ele>638.0</ele><time>2026-03-29T13:26:57.947Z</time></trkpt><trkpt lat="43.3167399" lon="13.2340541"><ele>640.0</ele><time>2026-03-29T13:26:58.948Z</time></trkpt><trkpt lat="43.3168117" lon="13.2340396"><ele>640.0</ele><time>2026-03-29T13:26:59.941Z</time></trkpt><trkpt lat="43.3168778" lon="13.2339881"><ele>640.0</ele><time>2026-03-29T13:27:00.943Z</time></trkpt><trkpt lat="43.3169288" lon="13.233919"><ele>640.0</ele><time>2026-03-29T13:27:01.943Z</time></trkpt><trkpt lat="43.3169661" lon="13.233835"><ele>640.0</ele><time>2026-03-29T13:27:02.943Z</time></trkpt><trkpt lat="43.3169831" lon="13.2337231"><ele>640.0</ele><time>2026-03-29T13:27:03.955Z</time></trkpt><trkpt lat="43.3169842" lon="13.2336154"><ele>640.0</ele><time>2026-03-29T13:27:04.943Z</time></trkpt><trkpt lat="43.3169745" lon="13.2335076"><ele>641.2</ele><time>2026-03-29T13:27:05.959Z</time></trkpt><trkpt lat="43.3169497" lon="13.2333848"><ele>642.4</ele><time>2026-03-29T13:27:06.958Z</time></trkpt><trkpt lat="43.316926" lon="13.2332576"><ele>643.5999999999999</ele><time>2026-03-29T13:27:07.964Z</time></trkpt><trkpt lat="43.3169048" lon="13.2331304"><ele>644.8</ele><time>2026-03-29T13:27:08.961Z</time></trkpt><trkpt lat="43.3168744" lon="13.233"><ele>646.0</ele><time>2026-03-29T13:27:09.951Z</time></trkpt><trkpt lat="43.3168419" lon="13.2328655"><ele>647.5</ele><time>2026-03-29T13:27:10.953Z</time></trkpt><trkpt lat="43.3168109" lon="13.2327462"><ele>649.0</ele><time>2026-03-29T13:27:11.95Z</time></trkpt><trkpt lat="43.3167834" lon="13.2326338"><ele>650.5</ele><time>2026-03-29T13:27:12.943Z</time></trkpt><trkpt lat="43.3167559" lon="13.2325244"><ele>652.0</ele><time>2026-03-29T13:27:13.948Z</time></trkpt><trkpt lat="43.3167343" lon="13.232405"><ele>653.5</ele><time>2026-03-29T13:27:14.944Z</time></trkpt><trkpt lat="43.3167102" lon="13.2322813"><ele>655.0</ele><time>2026-03-29T13:27:15.953Z</time></trkpt><trkpt lat="43.3166802" lon="13.2321485"><ele>656.8</ele><time>2026-03-29T13:27:16.951Z</time></trkpt><trkpt lat="43.3166567" lon="13.2320148"><ele>658.6</ele><time>2026-03-29T13:27:17.947Z</time></trkpt><trkpt lat="43.3166284" lon="13.2318882"><ele>660.4000000000001</ele><time>2026-03-29T13:27:18.958Z</time></trkpt><trkpt lat="43.316597" lon="13.2317564"><ele>662.2</ele><time>2026-03-29T13:27:19.954Z</time></trkpt><trkpt lat="43.3165628" lon="13.2316217"><ele>664.0</ele><time>2026-03-29T13:27:20.946Z</time></trkpt><trkpt lat="43.3165351" lon="13.2314887"><ele>665.8000000000001</ele><time>2026-03-29T13:27:21.95Z</time></trkpt><trkpt lat="43.3165049" lon="13.2313608"><ele>667.6</ele><time>2026-03-29T13:27:22.952Z</time></trkpt><trkpt lat="43.3164739" lon="13.2312452"><ele>669.4</ele><time>2026-03-29T13:27:23.962Z</time></trkpt><trkpt lat="43.3164489" lon="13.2311183"><ele>671.2</ele><time>2026-03-29T13:27:24.954Z</time></trkpt><trkpt lat="43.3164307" lon="13.2309887"><ele>673.0</ele><time>2026-03-29T13:27:25.951Z</time></trkpt><trkpt lat="43.3164061" lon="13.2308575"><ele>672.3333333333334</ele><time>2026-03-29T13:27:26.945Z</time></trkpt><trkpt lat="43.3163801" lon="13.230724"><ele>671.6666666666667</ele><time>2026-03-29T13:27:27.942Z</time></trkpt><trkpt lat="43.316356" lon="13.2306043"><ele>671.0</ele><time>2026-03-29T13:27:28.945Z</time></trkpt><trkpt lat="43.3163411" lon="13.2305107"><ele>670.3333333333334</ele><time>2026-03-29T13:27:29.95Z</time></trkpt><trkpt lat="43.316319" lon="13.2303861"><ele>669.6666666666666</ele><time>2026-03-29T13:27:31.952Z</time></trkpt><trkpt lat="43.3162873" lon="13.2302766"><ele>669.0</ele><time>2026-03-29T13:27:36.949Z</time></trkpt><trkpt lat="43.3162715" lon="13.2301794"><ele>669.0</ele><time>2026-03-29T13:27:38.948Z</time></trkpt><trkpt lat="43.3162534" lon="13.2300843"><ele>669.0</ele><time>2026-03-29T13:27:40.949Z</time></trkpt><trkpt lat="43.3162221" lon="13.2299645"><ele>669.0</ele><time>2026-03-29T13:27:42.951Z</time></trkpt><trkpt lat="43.3161749" lon="13.2298315"><ele>669.0</ele><time>2026-03-29T13:27:44.941Z</time></trkpt><trkpt lat="43.3160898" lon="13.229682"><ele>669.0</ele><time>2026-03-29T13:27:46.934Z</time></trkpt><trkpt lat="43.3160236" lon="13.229618"><ele>675.0</ele><time>2026-03-29T13:27:47.947Z</time></trkpt><trkpt lat="43.3159455" lon="13.2295608"><ele>681.0</ele><time>2026-03-29T13:27:49.949Z</time></trkpt><trkpt lat="43.315872" lon="13.2294917"><ele>687.0</ele><time>2026-03-29T13:27:51.951Z</time></trkpt><trkpt lat="43.3157971" lon="13.2294033"><ele>693.0</ele><time>2026-03-29T13:27:53.935Z</time></trkpt><trkpt lat="43.3157388" lon="13.2293082"><ele>699.0</ele><time>2026-03-29T13:27:56.933Z</time></trkpt><trkpt lat="43.3156711" lon="13.229237"><ele>699.0</ele><time>2026-03-29T13:27:59.966Z</time></trkpt><trkpt lat="43.3156274" lon="13.2291678"><ele>699.0</ele><time>2026-03-29T13:28:02.949Z</time></trkpt><trkpt lat="43.3155795" lon="13.2291002"><ele>699.0</ele><time>2026-03-29T13:28:49.946Z</time></trkpt><trkpt lat="43.3155281" lon="13.2290208"><ele>699.0</ele><time>2026-03-29T13:28:52.943Z</time></trkpt><trkpt lat="43.3154758" lon="13.2289424"><ele>699.0</ele><time>2026-03-29T13:28:56.946Z</time></trkpt><trkpt lat="43.3154069" lon="13.2288461"><ele>699.0</ele><time>2026-03-29T13:28:59.953Z</time></trkpt><trkpt lat="43.3153429" lon="13.2287448"><ele>699.1666666666666</ele><time>2026-03-29T13:29:01.943Z</time></trkpt><trkpt lat="43.3152754" lon="13.2286333"><ele>699.3333333333334</ele><time>2026-03-29T13:29:03.951Z</time></trkpt><trkpt lat="43.3151827" lon="13.2285109"><ele>699.5</ele><time>2026-03-29T13:29:05.945Z</time></trkpt><trkpt lat="43.3151377" lon="13.2284453"><ele>699.6666666666667</ele><time>2026-03-29T13:29:06.956Z</time></trkpt><trkpt lat="43.3150823" lon="13.2283891"><ele>699.8333333333334</ele><time>2026-03-29T13:29:07.961Z</time></trkpt><trkpt lat="43.3150291" lon="13.2283312"><ele>700.0</ele><time>2026-03-29T13:29:08.959Z</time></trkpt><trkpt lat="43.3149527" lon="13.2282386"><ele>700.0</ele><time>2026-03-29T13:29:10.943Z</time></trkpt><trkpt lat="43.3149094" lon="13.2281595"><ele>700.0</ele><time>2026-03-29T13:29:12.952Z</time></trkpt><trkpt lat="43.3148563" lon="13.2280416"><ele>700.0</ele><time>2026-03-29T13:29:14.948Z</time></trkpt><trkpt lat="43.3148099" lon="13.2279117"><ele>700.0</ele><time>2026-03-29T13:29:16.943Z</time></trkpt><trkpt lat="43.3147866" lon="13.2277993"><ele>700.0</ele><time>2026-03-29T13:29:19.951Z</time></trkpt><trkpt lat="43.3147431" lon="13.2276864"><ele>699.0</ele><time>2026-03-29T13:29:23.958Z</time></trkpt><trkpt lat="43.3147213" lon="13.2275794"><ele>698.0</ele><time>2026-03-29T13:29:25.964Z</time></trkpt><trkpt lat="43.3147078" lon="13.2274849"><ele>697.0</ele><time>2026-03-29T13:29:28.952Z</time></trkpt><trkpt lat="43.314664" lon="13.2273495"><ele>696.0</ele><time>2026-03-29T13:29:30.954Z</time></trkpt><trkpt lat="43.3146351" lon="13.2272098"><ele>695.0</ele><time>2026-03-29T13:29:32.952Z</time></trkpt><trkpt lat="43.3146244" lon="13.2270747"><ele>698.3333333333333</ele><time>2026-03-29T13:29:34.954Z</time></trkpt><trkpt lat="43.3146169" lon="13.2269749"><ele>701.6666666666666</ele><time>2026-03-29T13:29:36.945Z</time></trkpt><trkpt lat="43.3145791" lon="13.226854"><ele>705.0</ele><time>2026-03-29T13:29:39.96Z</time></trkpt><trkpt lat="43.3145453" lon="13.2267327"><ele>708.3333333333334</ele><time>2026-03-29T13:29:41.961Z</time></trkpt><trkpt lat="43.3145122" lon="13.2266146"><ele>711.6666666666667</ele><time>2026-03-29T13:29:43.957Z</time></trkpt><trkpt lat="43.3144933" lon="13.2264944"><ele>715.0</ele><time>2026-03-29T13:29:45.964Z</time></trkpt><trkpt lat="43.3144735" lon="13.2263781"><ele>717.6666666666667</ele><time>2026-03-29T13:29:47.952Z</time></trkpt><trkpt lat="43.3144483" lon="13.2262756"><ele>720.3333333333334</ele><time>2026-03-29T13:29:49.963Z</time></trkpt><trkpt lat="43.3144217" lon="13.2261526"><ele>723.0</ele><time>2026-03-29T13:29:51.952Z</time></trkpt><trkpt lat="43.3143921" lon="13.2260519"><ele>725.6666666666666</ele><time>2026-03-29T13:29:53.95Z</time></trkpt><trkpt lat="43.3143541" lon="13.2259399"><ele>728.3333333333333</ele><time>2026-03-29T13:29:55.958Z</time></trkpt><trkpt lat="43.3143299" lon="13.225829"><ele>731.0</ele><time>2026-03-29T13:29:57.952Z</time></trkpt><trkpt lat="43.3143052" lon="13.2257307"><ele>733.3333333333333</ele><time>2026-03-29T13:29:59.954Z</time></trkpt><trkpt lat="43.3142764" lon="13.2256344"><ele>735.6666666666666</ele><time>2026-03-29T13:30:01.955Z</time></trkpt><trkpt lat="43.3142494" lon="13.2255163"><ele>738.0</ele><time>2026-03-29T13:30:03.95Z</time></trkpt><trkpt lat="43.3142248" lon="13.2254049"><ele>740.3333333333334</ele><time>2026-03-29T13:30:05.958Z</time></trkpt><trkpt lat="43.3142141" lon="13.2253154"><ele>742.6666666666667</ele><time>2026-03-29T13:30:06.95Z</time></trkpt><trkpt lat="43.3141991" lon="13.2251628"><ele>745.0</ele><time>2026-03-29T13:30:08.958Z</time></trkpt><trkpt lat="43.3141612" lon="13.2250388"><ele>745.0</ele><time>2026-03-29T13:30:10.954Z</time></trkpt><trkpt lat="43.3141162" lon="13.224932"><ele>745.0</ele><time>2026-03-29T13:30:12.95Z</time></trkpt><trkpt lat="43.3140663" lon="13.2247787"><ele>745.0</ele><time>2026-03-29T13:30:14.951Z</time></trkpt><trkpt lat="43.3140401" lon="13.2246709"><ele>745.0</ele><time>2026-03-29T13:30:15.957Z</time></trkpt><trkpt lat="43.3140082" lon="13.2245559"><ele>745.0</ele><time>2026-03-29T13:30:16.95Z</time></trkpt><trkpt lat="43.3139718" lon="13.2244471"><ele>746.5</ele><time>2026-03-29T13:30:17.952Z</time></trkpt><trkpt lat="43.3139353" lon="13.2243377"><ele>748.0</ele><time>2026-03-29T13:30:18.947Z</time></trkpt><trkpt lat="43.3139015" lon="13.2242389"><ele>749.5</ele><time>2026-03-29T13:30:19.97Z</time></trkpt><trkpt lat="43.3138631" lon="13.2241512"><ele>751.0</ele><time>2026-03-29T13:30:20.96Z</time></trkpt><trkpt lat="43.3138224" lon="13.2240733"><ele>752.5</ele><time>2026-03-29T13:30:21.961Z</time></trkpt><trkpt lat="43.3137695" lon="13.2239819"><ele>754.0</ele><time>2026-03-29T13:30:22.965Z</time></trkpt><trkpt lat="43.3137171" lon="13.2239017"><ele>755.8000000000001</ele><time>2026-03-29T13:30:23.958Z</time></trkpt><trkpt lat="43.3136722" lon="13.2238256"><ele>757.6</ele><time>2026-03-29T13:30:24.949Z</time></trkpt><trkpt lat="43.3136065" lon="13.2237043"><ele>759.4</ele><time>2026-03-29T13:30:26.959Z</time></trkpt><trkpt lat="43.3135602" lon="13.2236263"><ele>761.2</ele><time>2026-03-29T13:30:28.954Z</time></trkpt><trkpt lat="43.3134919" lon="13.2235152"><ele>763.0</ele><time>2026-03-29T13:30:30.947Z</time></trkpt><trkpt lat="43.3134238" lon="13.223394"><ele>763.0</ele><time>2026-03-29T13:30:32.947Z</time></trkpt><trkpt lat="43.3133849" lon="13.2232923"><ele>763.0</ele><time>2026-03-29T13:30:34.962Z</time></trkpt><trkpt lat="43.3134135" lon="13.2232092"><ele>763.0</ele><time>2026-03-29T13:30:36.95Z</time></trkpt><trkpt lat="43.3134839" lon="13.2231858"><ele>763.0</ele><time>2026-03-29T13:30:37.952Z</time></trkpt><trkpt lat="43.3135562" lon="13.2231735"><ele>763.0</ele><time>2026-03-29T13:30:38.946Z</time></trkpt><trkpt lat="43.3136416" lon="13.2231777"><ele>763.0</ele><time>2026-03-29T13:30:39.956Z</time></trkpt><trkpt lat="43.3137345" lon="13.2231883"><ele>763.0</ele><time>2026-03-29T13:30:40.955Z</time></trkpt><trkpt lat="43.3138411" lon="13.223206"><ele>763.0</ele><time>2026-03-29T13:30:41.96Z</time></trkpt><trkpt lat="43.3139455" lon="13.2232318"><ele>763.0</ele><time>2026-03-29T13:30:42.962Z</time></trkpt><trkpt lat="43.3140466" lon="13.2232582"><ele>763.0</ele><time>2026-03-29T13:30:43.951Z</time></trkpt><trkpt lat="43.3141563" lon="13.2232929"><ele>763.0</ele><time>2026-03-29T13:30:44.945Z</time></trkpt><trkpt lat="43.3142652" lon="13.2233368"><ele>764.2</ele><time>2026-03-29T13:30:45.95Z</time></trkpt><trkpt lat="43.3143719" lon="13.2233778"><ele>765.4</ele><time>2026-03-29T13:30:46.95Z</time></trkpt><trkpt lat="43.3144724" lon="13.2234154"><ele>766.6</ele><time>2026-03-29T13:30:47.954Z</time></trkpt><trkpt lat="43.3145705" lon="13.2234517"><ele>767.8000000000001</ele><time>2026-03-29T13:30:48.945Z</time></trkpt><trkpt lat="43.3146643" lon="13.2234839"><ele>769.0</ele><time>2026-03-29T13:30:49.952Z</time></trkpt><trkpt lat="43.3147462" lon="13.223519"><ele>770.6666666666666</ele><time>2026-03-29T13:30:50.958Z</time></trkpt><trkpt lat="43.3148227" lon="13.2235618"><ele>772.3333333333333</ele><time>2026-03-29T13:30:51.954Z</time></trkpt><trkpt lat="43.3149029" lon="13.2235973"><ele>774.0</ele><time>2026-03-29T13:30:52.961Z</time></trkpt><trkpt lat="43.3149832" lon="13.2236344"><ele>775.6666666666667</ele><time>2026-03-29T13:30:53.96Z</time></trkpt><trkpt lat="43.3150716" lon="13.2236727"><ele>777.3333333333334</ele><time>2026-03-29T13:30:54.957Z</time></trkpt><trkpt lat="43.3151576" lon="13.2237083"><ele>779.0</ele><time>2026-03-29T13:30:55.943Z</time></trkpt><trkpt lat="43.315249" lon="13.2237515"><ele>779.0</ele><time>2026-03-29T13:30:56.944Z</time></trkpt><trkpt lat="43.3153344" lon="13.2238063"><ele>779.0</ele><time>2026-03-29T13:30:57.945Z</time></trkpt><trkpt lat="43.3154191" lon="13.2238665"><ele>779.0</ele><time>2026-03-29T13:30:58.941Z</time></trkpt><trkpt lat="43.3155087" lon="13.2239405"><ele>779.0</ele><time>2026-03-29T13:30:59.956Z</time></trkpt><trkpt lat="43.3155916" lon="13.2240189"><ele>779.0</ele><time>2026-03-29T13:31:00.941Z</time></trkpt><trkpt lat="43.3156707" lon="13.2240872"><ele>780.0</ele><time>2026-03-29T13:31:01.946Z</time></trkpt><trkpt lat="43.315754" lon="13.2241651"><ele>781.0</ele><time>2026-03-29T13:31:02.936Z</time></trkpt><trkpt lat="43.3158318" lon="13.2242643"><ele>782.0</ele><time>2026-03-29T13:31:03.955Z</time></trkpt><trkpt lat="43.3159048" lon="13.2243648"><ele>783.0</ele><time>2026-03-29T13:31:04.942Z</time></trkpt><trkpt lat="43.3159747" lon="13.2244719"><ele>784.0</ele><time>2026-03-29T13:31:05.953Z</time></trkpt><trkpt lat="43.3160507" lon="13.2245818"><ele>784.0</ele><time>2026-03-29T13:31:06.96Z</time></trkpt><trkpt lat="43.3161316" lon="13.2247025"><ele>784.0</ele><time>2026-03-29T13:31:07.96Z</time></trkpt><trkpt lat="43.3162122" lon="13.2248246"><ele>784.0</ele><time>2026-03-29T13:31:08.954Z</time></trkpt><trkpt lat="43.3162951" lon="13.2249359"><ele>784.0</ele><time>2026-03-29T13:31:09.957Z</time></trkpt><trkpt lat="43.3163869" lon="13.2250547"><ele>786.5</ele><time>2026-03-29T13:31:10.953Z</time></trkpt><trkpt lat="43.316472" lon="13.2251799"><ele>789.0</ele><time>2026-03-29T13:31:11.964Z</time></trkpt><trkpt lat="43.3165607" lon="13.2253018"><ele>791.5</ele><time>2026-03-29T13:31:12.952Z</time></trkpt><trkpt lat="43.3166506" lon="13.2254212"><ele>794.0</ele><time>2026-03-29T13:31:13.943Z</time></trkpt><trkpt lat="43.3167438" lon="13.2255333"><ele>794.0</ele><time>2026-03-29T13:31:14.948Z</time></trkpt><trkpt lat="43.3168283" lon="13.2256379"><ele>794.0</ele><time>2026-03-29T13:31:15.955Z</time></trkpt><trkpt lat="43.3169073" lon="13.2257417"><ele>794.0</ele><time>2026-03-29T13:31:16.956Z</time></trkpt><trkpt lat="43.316981" lon="13.2258469"><ele>794.0</ele><time>2026-03-29T13:31:17.95Z</time></trkpt><trkpt lat="43.3170433" lon="13.2259471"><ele>794.0</ele><time>2026-03-29T13:31:18.941Z</time></trkpt><trkpt lat="43.3170977" lon="13.2260312"><ele>793.5000000000001</ele><time>2026-03-29T13:31:19.949Z</time></trkpt><trkpt lat="43.3171541" lon="13.2261137"><ele>793.0</ele><time>2026-03-29T13:31:20.948Z</time></trkpt><trkpt lat="43.3172074" lon="13.2261935"><ele>792.5</ele><time>2026-03-29T13:31:21.957Z</time></trkpt><trkpt lat="43.3172621" lon="13.2262697"><ele>792.0</ele><time>2026-03-29T13:31:22.955Z</time></trkpt><trkpt lat="43.3173179" lon="13.22635"><ele>791.5000000000001</ele><time>2026-03-29T13:31:23.964Z</time></trkpt><trkpt lat="43.3173637" lon="13.2264203"><ele>791.0</ele><time>2026-03-29T13:31:24.965Z</time></trkpt><trkpt lat="43.3174438" lon="13.2265383"><ele>791.0000000000001</ele><time>2026-03-29T13:31:26.949Z</time></trkpt><trkpt lat="43.3175308" lon="13.2266645"><ele>791.0</ele><time>2026-03-29T13:31:28.952Z</time></trkpt><trkpt lat="43.3175807" lon="13.2267435"><ele>791.0</ele><time>2026-03-29T13:31:29.953Z</time></trkpt><trkpt lat="43.3176363" lon="13.2268222"><ele>791.0</ele><time>2026-03-29T13:31:30.939Z</time></trkpt><trkpt lat="43.3176978" lon="13.2268989"><ele>791.0000000000001</ele><time>2026-03-29T13:31:31.956Z</time></trkpt><trkpt lat="43.317758" lon="13.2269704"><ele>791.0</ele><time>2026-03-29T13:31:32.959Z</time></trkpt><trkpt lat="43.3178107" lon="13.2270352"><ele>791.0000000000001</ele><time>2026-03-29T13:31:33.951Z</time></trkpt><trkpt lat="43.3178609" lon="13.2270926"><ele>791.0</ele><time>2026-03-29T13:31:34.952Z</time></trkpt><trkpt lat="43.3179603" lon="13.2271873"><ele>791.0</ele><time>2026-03-29T13:31:36.954Z</time></trkpt><trkpt lat="43.318059" lon="13.2272951"><ele>791.0</ele><time>2026-03-29T13:31:38.952Z</time></trkpt><trkpt lat="43.3181149" lon="13.2273534"><ele>791.0000000000001</ele><time>2026-03-29T13:31:39.95Z</time></trkpt><trkpt lat="43.3181698" lon="13.2274039"><ele>791.0</ele><time>2026-03-29T13:31:40.943Z</time></trkpt><trkpt lat="43.3182233" lon="13.2274571"><ele>790.6666666666667</ele><time>2026-03-29T13:31:41.962Z</time></trkpt><trkpt lat="43.3182792" lon="13.2275099"><ele>790.3333333333334</ele><time>2026-03-29T13:31:42.949Z</time></trkpt><trkpt lat="43.3183815" lon="13.2276085"><ele>790.0</ele><time>2026-03-29T13:31:44.966Z</time></trkpt><trkpt lat="43.3184352" lon="13.227659"><ele>789.6666666666667</ele><time>2026-03-29T13:31:45.95Z</time></trkpt><trkpt lat="43.3184949" lon="13.2277019"><ele>789.3333333333334</ele><time>2026-03-29T13:31:46.938Z</time></trkpt><trkpt lat="43.3185993" lon="13.2277735"><ele>789.0</ele><time>2026-03-29T13:31:48.944Z</time></trkpt><trkpt lat="43.3186939" lon="13.2278339"><ele>789.0</ele><time>2026-03-29T13:31:50.946Z</time></trkpt><trkpt lat="43.318767" lon="13.2278965"><ele>789.0</ele><time>2026-03-29T13:31:52.95Z</time></trkpt><trkpt lat="43.3188512" lon="13.2279655"><ele>789.0</ele><time>2026-03-29T13:31:55.948Z</time></trkpt><trkpt lat="43.3189212" lon="13.2280357"><ele>789.0</ele><time>2026-03-29T13:31:57.949Z</time></trkpt><trkpt lat="43.3189745" lon="13.2281002"><ele>789.0</ele><time>2026-03-29T13:31:59.955Z</time></trkpt><trkpt lat="43.3190433" lon="13.2281679"><ele>789.0</ele><time>2026-03-29T13:32:01.954Z</time></trkpt><trkpt lat="43.3191131" lon="13.228229"><ele>787.3333333333334</ele><time>2026-03-29T13:32:03.948Z</time></trkpt><trkpt lat="43.319181" lon="13.2282669"><ele>785.6666666666667</ele><time>2026-03-29T13:32:09.949Z</time></trkpt><trkpt lat="43.3192461" lon="13.2283094"><ele>784.0</ele><time>2026-03-29T13:32:12.948Z</time></trkpt><trkpt lat="43.3193336" lon="13.2283847"><ele>782.3333333333334</ele><time>2026-03-29T13:32:14.949Z</time></trkpt><trkpt lat="43.3193873" lon="13.2284347"><ele>780.6666666666667</ele><time>2026-03-29T13:32:15.954Z</time></trkpt><trkpt lat="43.319445" lon="13.2284755"><ele>779.0</ele><time>2026-03-29T13:32:16.955Z</time></trkpt><trkpt lat="43.3195142" lon="13.2285167"><ele>779.0000000000001</ele><time>2026-03-29T13:32:17.954Z</time></trkpt><trkpt lat="43.3196184" lon="13.2285542"><ele>779.0</ele><time>2026-03-29T13:32:19.939Z</time></trkpt><trkpt lat="43.3197128" lon="13.2286057"><ele>779.0</ele><time>2026-03-29T13:32:21.951Z</time></trkpt><trkpt lat="43.3197844" lon="13.2286273"><ele>779.0</ele><time>2026-03-29T13:32:23.949Z</time></trkpt><trkpt lat="43.3198442" lon="13.2285979"><ele>779.0000000000001</ele><time>2026-03-29T13:32:25.945Z</time></trkpt><trkpt lat="43.3199344" lon="13.228535"><ele>779.0</ele><time>2026-03-29T13:32:27.948Z</time></trkpt><trkpt lat="43.3200434" lon="13.2284672"><ele>777.3333333333334</ele><time>2026-03-29T13:32:29.945Z</time></trkpt><trkpt lat="43.3201047" lon="13.2284171"><ele>775.6666666666667</ele><time>2026-03-29T13:32:30.949Z</time></trkpt><trkpt lat="43.3201682" lon="13.2283718"><ele>774.0</ele><time>2026-03-29T13:32:31.947Z</time></trkpt><trkpt lat="43.3202436" lon="13.2283379"><ele>772.3333333333333</ele><time>2026-03-29T13:32:32.956Z</time></trkpt><trkpt lat="43.3203293" lon="13.228297"><ele>770.6666666666666</ele><time>2026-03-29T13:32:33.947Z</time></trkpt><trkpt lat="43.3204233" lon="13.228254"><ele>769.0</ele><time>2026-03-29T13:32:34.944Z</time></trkpt><trkpt lat="43.3205109" lon="13.2282102"><ele>768.8000000000001</ele><time>2026-03-29T13:32:35.955Z</time></trkpt><trkpt lat="43.3206002" lon="13.2281727"><ele>768.6</ele><time>2026-03-29T13:32:36.94Z</time></trkpt><trkpt lat="43.3206944" lon="13.2281402"><ele>768.4</ele><time>2026-03-29T13:32:37.94Z</time></trkpt><trkpt lat="43.3207927" lon="13.2281022"><ele>768.2</ele><time>2026-03-29T13:32:38.946Z</time></trkpt><trkpt lat="43.3208965" lon="13.2280546"><ele>768.0</ele><time>2026-03-29T13:32:39.945Z</time></trkpt><trkpt lat="43.3209896" lon="13.2279996"><ele>768.0</ele><time>2026-03-29T13:32:40.943Z</time></trkpt><trkpt lat="43.3210754" lon="13.2279366"><ele>768.0</ele><time>2026-03-29T13:32:41.943Z</time></trkpt><trkpt lat="43.3211576" lon="13.2278832"><ele>768.0</ele><time>2026-03-29T13:32:42.942Z</time></trkpt><trkpt lat="43.3212397" lon="13.2278324"><ele>768.0</ele><time>2026-03-29T13:32:43.945Z</time></trkpt><trkpt lat="43.321322" lon="13.2277858"><ele>768.0</ele><time>2026-03-29T13:32:44.94Z</time></trkpt><trkpt lat="43.3214033" lon="13.2277526"><ele>766.6666666666666</ele><time>2026-03-29T13:32:45.955Z</time></trkpt><trkpt lat="43.3214832" lon="13.2277329"><ele>765.3333333333334</ele><time>2026-03-29T13:32:46.944Z</time></trkpt><trkpt lat="43.3215584" lon="13.227735"><ele>764.0</ele><time>2026-03-29T13:32:47.953Z</time></trkpt><trkpt lat="43.3216258" lon="13.2277595"><ele>762.6666666666667</ele><time>2026-03-29T13:32:48.948Z</time></trkpt><trkpt lat="43.3217201" lon="13.2278303"><ele>761.3333333333334</ele><time>2026-03-29T13:32:50.932Z</time></trkpt><trkpt lat="43.3217905" lon="13.2279"><ele>760.0</ele><time>2026-03-29T13:32:52.95Z</time></trkpt><trkpt lat="43.3218464" lon="13.2280017"><ele>760.0</ele><time>2026-03-29T13:32:54.946Z</time></trkpt><trkpt lat="43.3219147" lon="13.228131"><ele>760.0</ele><time>2026-03-29T13:32:56.947Z</time></trkpt><trkpt lat="43.3219589" lon="13.228198"><ele>760.0</ele><time>2026-03-29T13:32:57.945Z</time></trkpt><trkpt lat="43.3220053" lon="13.2282936"><ele>760.0</ele><time>2026-03-29T13:32:58.951Z</time></trkpt><trkpt lat="43.3220455" lon="13.2284079"><ele>760.0</ele><time>2026-03-29T13:32:59.949Z</time></trkpt><trkpt lat="43.3220809" lon="13.2285097"><ele>760.0</ele><time>2026-03-29T13:33:00.947Z</time></trkpt><trkpt lat="43.3221169" lon="13.2286039"><ele>759.2</ele><time>2026-03-29T13:33:01.948Z</time></trkpt><trkpt lat="43.322166" lon="13.2287079"><ele>758.4</ele><time>2026-03-29T13:33:02.957Z</time></trkpt><trkpt lat="43.3222267" lon="13.2288107"><ele>757.5999999999999</ele><time>2026-03-29T13:33:03.951Z</time></trkpt><trkpt lat="43.3222994" lon="13.2289016"><ele>756.8</ele><time>2026-03-29T13:33:04.942Z</time></trkpt><trkpt lat="43.3223765" lon="13.2289689"><ele>756.0</ele><time>2026-03-29T13:33:05.95Z</time></trkpt><trkpt lat="43.32246" lon="13.2290387"><ele>754.1666666666666</ele><time>2026-03-29T13:33:06.943Z</time></trkpt><trkpt lat="43.3225311" lon="13.2291257"><ele>752.3333333333334</ele><time>2026-03-29T13:33:07.946Z</time></trkpt><trkpt lat="43.3225866" lon="13.2292066"><ele>750.5</ele><time>2026-03-29T13:33:08.946Z</time></trkpt><trkpt lat="43.322641" lon="13.2292858"><ele>748.6666666666667</ele><time>2026-03-29T13:33:09.959Z</time></trkpt><trkpt lat="43.3226952" lon="13.2293773"><ele>746.8333333333334</ele><time>2026-03-29T13:33:10.944Z</time></trkpt><trkpt lat="43.3227614" lon="13.2294678"><ele>745.0</ele><time>2026-03-29T13:33:11.964Z</time></trkpt><trkpt lat="43.3228338" lon="13.2295496"><ele>745.0</ele><time>2026-03-29T13:33:12.951Z</time></trkpt><trkpt lat="43.3229093" lon="13.2296306"><ele>745.0</ele><time>2026-03-29T13:33:13.944Z</time></trkpt><trkpt lat="43.3229784" lon="13.2297134"><ele>745.0</ele><time>2026-03-29T13:33:14.946Z</time></trkpt><trkpt lat="43.32303" lon="13.2297849"><ele>745.0</ele><time>2026-03-29T13:33:15.94Z</time></trkpt><trkpt lat="43.3230765" lon="13.229855"><ele>745.0</ele><time>2026-03-29T13:33:16.949Z</time></trkpt><trkpt lat="43.3231469" lon="13.229995"><ele>745.0</ele><time>2026-03-29T13:33:18.939Z</time></trkpt><trkpt lat="43.3231845" lon="13.230137"><ele>745.0</ele><time>2026-03-29T13:33:20.952Z</time></trkpt><trkpt lat="43.3232321" lon="13.2302932"><ele>745.0</ele><time>2026-03-29T13:33:22.948Z</time></trkpt><trkpt lat="43.3232856" lon="13.2304302"><ele>745.0</ele><time>2026-03-29T13:33:24.945Z</time></trkpt><trkpt lat="43.3233499" lon="13.2305241"><ele>745.0</ele><time>2026-03-29T13:33:26.954Z</time></trkpt><trkpt lat="43.3234432" lon="13.2305887"><ele>744.2</ele><time>2026-03-29T13:33:28.939Z</time></trkpt><trkpt lat="43.323546" lon="13.2306669"><ele>743.4</ele><time>2026-03-29T13:33:30.947Z</time></trkpt><trkpt lat="43.323641" lon="13.230748"><ele>742.5999999999999</ele><time>2026-03-29T13:33:32.939Z</time></trkpt><trkpt lat="43.3237351" lon="13.230835"><ele>741.8</ele><time>2026-03-29T13:33:34.946Z</time></trkpt><trkpt lat="43.3237894" lon="13.2308859"><ele>741.0</ele><time>2026-03-29T13:33:35.946Z</time></trkpt><trkpt lat="43.3238597" lon="13.2309363"><ele>740.3333333333334</ele><time>2026-03-29T13:33:36.942Z</time></trkpt><trkpt lat="43.3239275" lon="13.2309856"><ele>739.6666666666666</ele><time>2026-03-29T13:33:37.957Z</time></trkpt><trkpt lat="43.323987" lon="13.2310176"><ele>739.0</ele><time>2026-03-29T13:33:38.938Z</time></trkpt><trkpt lat="43.3240784" lon="13.2310455"><ele>738.3333333333333</ele><time>2026-03-29T13:33:40.949Z</time></trkpt><trkpt lat="43.3241628" lon="13.2311373"><ele>737.6666666666666</ele><time>2026-03-29T13:33:42.935Z</time></trkpt><trkpt lat="43.3242063" lon="13.2312163"><ele>737.0</ele><time>2026-03-29T13:33:43.946Z</time></trkpt><trkpt lat="43.3242341" lon="13.2313071"><ele>737.0000000000001</ele><time>2026-03-29T13:33:44.946Z</time></trkpt><trkpt lat="43.3242559" lon="13.231402"><ele>737.0</ele><time>2026-03-29T13:33:45.958Z</time></trkpt><trkpt lat="43.3242739" lon="13.2314896"><ele>737.0</ele><time>2026-03-29T13:33:46.952Z</time></trkpt><trkpt lat="43.324295" lon="13.2315845"><ele>737.0</ele><time>2026-03-29T13:33:47.946Z</time></trkpt><trkpt lat="43.3243271" lon="13.2316811"><ele>737.0</ele><time>2026-03-29T13:33:48.962Z</time></trkpt><trkpt lat="43.3243693" lon="13.2317692"><ele>737.0000000000001</ele><time>2026-03-29T13:33:49.962Z</time></trkpt><trkpt lat="43.3244164" lon="13.2318522"><ele>737.0</ele><time>2026-03-29T13:33:50.944Z</time></trkpt><trkpt lat="43.3244822" lon="13.231924"><ele>736.3333333333333</ele><time>2026-03-29T13:33:51.945Z</time></trkpt><trkpt lat="43.3245582" lon="13.2319865"><ele>735.6666666666666</ele><time>2026-03-29T13:33:52.944Z</time></trkpt><trkpt lat="43.3246374" lon="13.2320354"><ele>735.0</ele><time>2026-03-29T13:33:53.951Z</time></trkpt><trkpt lat="43.3247118" lon="13.2320853"><ele>734.3333333333334</ele><time>2026-03-29T13:33:54.951Z</time></trkpt><trkpt lat="43.3247793" lon="13.2321384"><ele>733.6666666666667</ele><time>2026-03-29T13:33:55.959Z</time></trkpt><trkpt lat="43.3248399" lon="13.2321924"><ele>733.0</ele><time>2026-03-29T13:33:56.948Z</time></trkpt><trkpt lat="43.3249065" lon="13.2323225"><ele>734.5999999999999</ele><time>2026-03-29T13:33:58.947Z</time></trkpt><trkpt lat="43.3249143" lon="13.2324293"><ele>736.1999999999999</ele><time>2026-03-29T13:33:59.954Z</time></trkpt><trkpt lat="43.3249286" lon="13.2325613"><ele>737.8</ele><time>2026-03-29T13:34:00.958Z</time></trkpt><trkpt lat="43.3249615" lon="13.2327021"><ele>739.4</ele><time>2026-03-29T13:34:01.979Z</time></trkpt><trkpt lat="43.3249942" lon="13.2328506"><ele>741.0</ele><time>2026-03-29T13:34:02.941Z</time></trkpt><trkpt lat="43.3250235" lon="13.2329794"><ele>741.0</ele><time>2026-03-29T13:34:03.956Z</time></trkpt><trkpt lat="43.3250521" lon="13.2330891"><ele>741.0</ele><time>2026-03-29T13:34:04.94Z</time></trkpt><trkpt lat="43.3251078" lon="13.233203"><ele>741.0</ele><time>2026-03-29T13:34:06.946Z</time></trkpt><trkpt lat="43.3251614" lon="13.2332828"><ele>741.0</ele><time>2026-03-29T13:34:09.948Z</time></trkpt><trkpt lat="43.3252491" lon="13.2333331"><ele>741.0</ele><time>2026-03-29T13:34:11.945Z</time></trkpt><trkpt lat="43.3253164" lon="13.2333653"><ele>741.0</ele><time>2026-03-29T13:34:13.948Z</time></trkpt><trkpt lat="43.3253859" lon="13.2334543"><ele>740.0</ele><time>2026-03-29T13:34:16.952Z</time></trkpt><trkpt lat="43.3254283" lon="13.2335204"><ele>739.0</ele><time>2026-03-29T13:34:18.94Z</time></trkpt><trkpt lat="43.3254613" lon="13.2336221"><ele>738.0</ele><time>2026-03-29T13:34:21.949Z</time></trkpt><trkpt lat="43.3255093" lon="13.2336926"><ele>737.0</ele><time>2026-03-29T13:34:24.949Z</time></trkpt><trkpt lat="43.3255747" lon="13.2337644"><ele>736.0</ele><time>2026-03-29T13:34:26.95Z</time></trkpt><trkpt lat="43.325644" lon="13.2338304"><ele>735.0</ele><time>2026-03-29T13:34:28.943Z</time></trkpt><trkpt lat="43.3257238" lon="13.2338664"><ele>734.6666666666666</ele><time>2026-03-29T13:34:31.958Z</time></trkpt><trkpt lat="43.3257846" lon="13.2339028"><ele>734.3333333333334</ele><time>2026-03-29T13:34:33.961Z</time></trkpt><trkpt lat="43.3258433" lon="13.23395"><ele>734.0</ele><time>2026-03-29T13:34:35.956Z</time></trkpt><trkpt lat="43.3259252" lon="13.2339996"><ele>733.6666666666667</ele><time>2026-03-29T13:34:37.949Z</time></trkpt><trkpt lat="43.3259869" lon="13.2341099"><ele>733.3333333333334</ele><time>2026-03-29T13:34:39.949Z</time></trkpt><trkpt lat="43.3260406" lon="13.2342135"><ele>733.0</ele><time>2026-03-29T13:34:41.954Z</time></trkpt><trkpt lat="43.3261067" lon="13.2342562"><ele>732.9999999999999</ele><time>2026-03-29T13:34:43.942Z</time></trkpt><trkpt lat="43.3261909" lon="13.2343027"><ele>733.0</ele><time>2026-03-29T13:34:46.944Z</time></trkpt><trkpt lat="43.3262527" lon="13.2343338"><ele>733.0</ele><time>2026-03-29T13:34:48.935Z</time></trkpt><trkpt lat="43.3263187" lon="13.2343902"><ele>733.0</ele><time>2026-03-29T13:34:50.941Z</time></trkpt><trkpt lat="43.3263887" lon="13.2344344"><ele>733.0</ele><time>2026-03-29T13:34:52.941Z</time></trkpt><trkpt lat="43.3264514" lon="13.2344771"><ele>732.9999999999999</ele><time>2026-03-29T13:34:54.952Z</time></trkpt><trkpt lat="43.3265001" lon="13.2345348"><ele>733.0</ele><time>2026-03-29T13:34:56.947Z</time></trkpt><trkpt lat="43.3265335" lon="13.2346103"><ele>732.0</ele><time>2026-03-29T13:34:58.943Z</time></trkpt><trkpt lat="43.3265674" lon="13.2347029"><ele>731.0</ele><time>2026-03-29T13:35:01.95Z</time></trkpt><trkpt lat="43.3266205" lon="13.2347807"><ele>730.0</ele><time>2026-03-29T13:35:04.953Z</time></trkpt><trkpt lat="43.3266717" lon="13.2348325"><ele>729.0</ele><time>2026-03-29T13:35:07.963Z</time></trkpt><trkpt lat="43.3267299" lon="13.234909"><ele>728.0</ele><time>2026-03-29T13:35:10.958Z</time></trkpt><trkpt lat="43.3267814" lon="13.2349822"><ele>727.0</ele><time>2026-03-29T13:35:12.953Z</time></trkpt><trkpt lat="43.3268702" lon="13.2350783"><ele>727.0</ele><time>2026-03-29T13:35:14.946Z</time></trkpt><trkpt lat="43.3269219" lon="13.2351397"><ele>727.0</ele><time>2026-03-29T13:35:16.945Z</time></trkpt><trkpt lat="43.3269919" lon="13.2352033"><ele>727.0</ele><time>2026-03-29T13:37:01.947Z</time></trkpt><trkpt lat="43.3270463" lon="13.2352605"><ele>727.0</ele><time>2026-03-29T13:40:04.944Z</time></trkpt><trkpt lat="43.3271029" lon="13.2353388"><ele>727.0</ele><time>2026-03-29T13:40:08.952Z</time></trkpt><trkpt lat="43.3271535" lon="13.2353943"><ele>727.0</ele><time>2026-03-29T13:40:11.952Z</time></trkpt><trkpt lat="43.3272191" lon="13.2354514"><ele>727.0</ele><time>2026-03-29T13:40:15.951Z</time></trkpt><trkpt lat="43.3272754" lon="13.2355281"><ele>726.7142857142857</ele><time>2026-03-29T13:40:24.934Z</time></trkpt><trkpt lat="43.3273371" lon="13.2355924"><ele>726.4285714285714</ele><time>2026-03-29T13:40:35.957Z</time></trkpt><trkpt lat="43.327393" lon="13.2356543"><ele>726.1428571428571</ele><time>2026-03-29T13:40:38.949Z</time></trkpt><trkpt lat="43.3274428" lon="13.235713"><ele>725.8571428571429</ele><time>2026-03-29T13:40:40.949Z</time></trkpt><trkpt lat="43.3275022" lon="13.2357466"><ele>725.5714285714287</ele><time>2026-03-29T13:40:42.951Z</time></trkpt><trkpt lat="43.3275635" lon="13.2357904"><ele>725.2857142857143</ele><time>2026-03-29T13:40:52.933Z</time></trkpt><trkpt lat="43.3276114" lon="13.2358565"><ele>725.0</ele><time>2026-03-29T13:41:02.936Z</time></trkpt><trkpt lat="43.3276698" lon="13.2358957"><ele>725.0</ele><time>2026-03-29T13:41:38.938Z</time></trkpt><trkpt lat="43.3277211" lon="13.2359604"><ele>725.0</ele><time>2026-03-29T13:43:05.952Z</time></trkpt><trkpt lat="43.3276674" lon="13.2359015"><ele>725.0</ele><time>2026-03-29T13:43:20.949Z</time></trkpt><trkpt lat="43.3276065" lon="13.2358657"><ele>725.0</ele><time>2026-03-29T13:50:30.97Z</time></trkpt><trkpt lat="43.3275618" lon="13.2357941"><ele>725.0</ele><time>2026-03-29T13:50:32.972Z</time></trkpt><trkpt lat="43.327501" lon="13.2357555"><ele>725.0</ele><time>2026-03-29T13:50:34.967Z</time></trkpt><trkpt lat="43.3274448" lon="13.2357142"><ele>725.0</ele><time>2026-03-29T13:50:45.979Z</time></trkpt><trkpt lat="43.3273893" lon="13.2356582"><ele>725.3333333333333</ele><time>2026-03-29T13:50:47.983Z</time></trkpt><trkpt lat="43.3273494" lon="13.2355797"><ele>725.6666666666666</ele><time>2026-03-29T13:50:51.985Z</time></trkpt><trkpt lat="43.3272854" lon="13.2355376"><ele>726.0</ele><time>2026-03-29T13:50:57.931Z</time></trkpt><trkpt lat="43.3272442" lon="13.2354647"><ele>726.3333333333334</ele><time>2026-03-29T13:51:01.964Z</time></trkpt><trkpt lat="43.3271919" lon="13.2354124"><ele>726.6666666666667</ele><time>2026-03-29T13:51:04.95Z</time></trkpt><trkpt lat="43.3271121" lon="13.235346"><ele>727.0</ele><time>2026-03-29T13:51:14.978Z</time></trkpt><trkpt lat="43.3270414" lon="13.235259"><ele>727.0</ele><time>2026-03-29T13:51:16.98Z</time></trkpt><trkpt lat="43.3269683" lon="13.2351995"><ele>727.0</ele><time>2026-03-29T13:51:18.981Z</time></trkpt><trkpt lat="43.3268938" lon="13.2351172"><ele>727.0</ele><time>2026-03-29T13:51:20.94Z</time></trkpt><trkpt lat="43.3268438" lon="13.2350464"><ele>727.0</ele><time>2026-03-29T13:51:21.983Z</time></trkpt><trkpt lat="43.3267923" lon="13.2349859"><ele>727.0</ele><time>2026-03-29T13:51:22.973Z</time></trkpt><trkpt lat="43.3266985" lon="13.2348772"><ele>727.0</ele><time>2026-03-29T13:51:24.99Z</time></trkpt><trkpt lat="43.3266047" lon="13.23477"><ele>728.2</ele><time>2026-03-29T13:51:26.953Z</time></trkpt><trkpt lat="43.3265364" lon="13.2346328"><ele>729.4000000000001</ele><time>2026-03-29T13:51:28.977Z</time></trkpt><trkpt lat="43.3264955" lon="13.234561"><ele>730.5999999999999</ele><time>2026-03-29T13:51:29.99Z</time></trkpt><trkpt lat="43.3264499" lon="13.2344934"><ele>731.8</ele><time>2026-03-29T13:51:30.943Z</time></trkpt><trkpt lat="43.3263604" lon="13.2344288"><ele>733.0</ele><time>2026-03-29T13:51:32.979Z</time></trkpt><trkpt lat="43.3262622" lon="13.2343532"><ele>733.0</ele><time>2026-03-29T13:51:34.978Z</time></trkpt><trkpt lat="43.3261928" lon="13.2343159"><ele>733.0</ele><time>2026-03-29T13:51:35.968Z</time></trkpt><trkpt lat="43.326116" lon="13.234263"><ele>733.0</ele><time>2026-03-29T13:51:36.964Z</time></trkpt><trkpt lat="43.3260492" lon="13.2341995"><ele>733.0</ele><time>2026-03-29T13:51:37.938Z</time></trkpt><trkpt lat="43.3260047" lon="13.2341308"><ele>733.0</ele><time>2026-03-29T13:51:38.991Z</time></trkpt><trkpt lat="43.3259383" lon="13.2339971"><ele>733.0</ele><time>2026-03-29T13:51:40.964Z</time></trkpt><trkpt lat="43.3258722" lon="13.2339746"><ele>733.3333333333334</ele><time>2026-03-29T13:51:41.961Z</time></trkpt><trkpt lat="43.3257909" lon="13.2339334"><ele>733.6666666666667</ele><time>2026-03-29T13:51:42.966Z</time></trkpt><trkpt lat="43.3257209" lon="13.233883"><ele>734.0</ele><time>2026-03-29T13:51:43.979Z</time></trkpt><trkpt lat="43.3256489" lon="13.233833"><ele>734.3333333333334</ele><time>2026-03-29T13:51:44.961Z</time></trkpt><trkpt lat="43.3255786" lon="13.2337771"><ele>734.6666666666666</ele><time>2026-03-29T13:51:45.951Z</time></trkpt><trkpt lat="43.3255177" lon="13.233707"><ele>735.0</ele><time>2026-03-29T13:51:46.989Z</time></trkpt><trkpt lat="43.3254701" lon="13.2336419"><ele>735.0</ele><time>2026-03-29T13:51:47.967Z</time></trkpt><trkpt lat="43.3254166" lon="13.2335679"><ele>735.0</ele><time>2026-03-29T13:51:48.978Z</time></trkpt><trkpt lat="43.3253679" lon="13.233477"><ele>735.0</ele><time>2026-03-29T13:51:49.978Z</time></trkpt><trkpt lat="43.3253158" lon="13.2333908"><ele>735.0</ele><time>2026-03-29T13:51:50.974Z</time></trkpt><trkpt lat="43.3252111" lon="13.2333103"><ele>735.0</ele><time>2026-03-29T13:51:52.971Z</time></trkpt><trkpt lat="43.3251494" lon="13.2332896"><ele>735.0</ele><time>2026-03-29T13:51:54.002Z</time></trkpt><trkpt lat="43.3250781" lon="13.2331651"><ele>736.2</ele><time>2026-03-29T13:51:55.969Z</time></trkpt><trkpt lat="43.325045" lon="13.2330606"><ele>737.4</ele><time>2026-03-29T13:51:56.96Z</time></trkpt><trkpt lat="43.3250235" lon="13.232938"><ele>738.5999999999999</ele><time>2026-03-29T13:51:57.999Z</time></trkpt><trkpt lat="43.3249845" lon="13.2327962"><ele>739.8</ele><time>2026-03-29T13:51:58.927Z</time></trkpt><trkpt lat="43.3249475" lon="13.2326462"><ele>741.0</ele><time>2026-03-29T13:51:59.966Z</time></trkpt><trkpt lat="43.324907" lon="13.2324965"><ele>741.0</ele><time>2026-03-29T13:52:00.962Z</time></trkpt><trkpt lat="43.3248848" lon="13.2323702"><ele>741.0</ele><time>2026-03-29T13:52:01.988Z</time></trkpt><trkpt lat="43.324865" lon="13.2322825"><ele>741.0</ele><time>2026-03-29T13:52:02.976Z</time></trkpt><trkpt lat="43.324833" lon="13.2322047"><ele>741.0</ele><time>2026-03-29T13:52:03.965Z</time></trkpt><trkpt lat="43.3247779" lon="13.2321466"><ele>741.0</ele><time>2026-03-29T13:52:04.982Z</time></trkpt><trkpt lat="43.3246992" lon="13.2320831"><ele>741.0</ele><time>2026-03-29T13:52:05.991Z</time></trkpt><trkpt lat="43.3245967" lon="13.2320229"><ele>741.1666666666666</ele><time>2026-03-29T13:52:06.973Z</time></trkpt><trkpt lat="43.3245041" lon="13.2319563"><ele>741.3333333333334</ele><time>2026-03-29T13:52:07.989Z</time></trkpt><trkpt lat="43.3244215" lon="13.23189"><ele>741.5</ele><time>2026-03-29T13:52:08.967Z</time></trkpt><trkpt lat="43.3243638" lon="13.2318161"><ele>741.6666666666667</ele><time>2026-03-29T13:52:09.97Z</time></trkpt><trkpt lat="43.3243254" lon="13.2317347"><ele>741.8333333333334</ele><time>2026-03-29T13:52:10.957Z</time></trkpt><trkpt lat="43.3242947" lon="13.2316393"><ele>742.0</ele><time>2026-03-29T13:52:11.994Z</time></trkpt><trkpt lat="43.3242737" lon="13.2315226"><ele>741.1666666666667</ele><time>2026-03-29T13:52:12.933Z</time></trkpt><trkpt lat="43.3242442" lon="13.2314217"><ele>740.3333333333334</ele><time>2026-03-29T13:52:13.983Z</time></trkpt><trkpt lat="43.3242177" lon="13.2313331"><ele>739.5</ele><time>2026-03-29T13:52:14.968Z</time></trkpt><trkpt lat="43.3241867" lon="13.231251"><ele>738.6666666666666</ele><time>2026-03-29T13:52:15.991Z</time></trkpt><trkpt lat="43.324154" lon="13.2311704"><ele>737.8333333333333</ele><time>2026-03-29T13:52:16.974Z</time></trkpt><trkpt lat="43.3241121" lon="13.2311014"><ele>737.0</ele><time>2026-03-29T13:52:17.967Z</time></trkpt><trkpt lat="43.3240146" lon="13.2310301"><ele>737.6666666666666</ele><time>2026-03-29T13:52:19.988Z</time></trkpt><trkpt lat="43.3238931" lon="13.2309748"><ele>738.3333333333333</ele><time>2026-03-29T13:52:21.992Z</time></trkpt><trkpt lat="43.3238292" lon="13.230926"><ele>739.0</ele><time>2026-03-29T13:52:22.989Z</time></trkpt><trkpt lat="43.3237619" lon="13.2308738"><ele>739.6666666666666</ele><time>2026-03-29T13:52:23.968Z</time></trkpt><trkpt lat="43.3236997" lon="13.2308262"><ele>740.3333333333334</ele><time>2026-03-29T13:52:24.967Z</time></trkpt><trkpt lat="43.3236406" lon="13.2307626"><ele>741.0</ele><time>2026-03-29T13:52:25.979Z</time></trkpt><trkpt lat="43.3235836" lon="13.2307012"><ele>741.6666666666666</ele><time>2026-03-29T13:52:26.968Z</time></trkpt><trkpt lat="43.3235174" lon="13.2306378"><ele>742.3333333333334</ele><time>2026-03-29T13:52:27.974Z</time></trkpt><trkpt lat="43.3234487" lon="13.2305869"><ele>743.0</ele><time>2026-03-29T13:52:28.993Z</time></trkpt><trkpt lat="43.3233844" lon="13.2305509"><ele>743.6666666666667</ele><time>2026-03-29T13:52:29.976Z</time></trkpt><trkpt lat="43.3233145" lon="13.2304931"><ele>744.3333333333334</ele><time>2026-03-29T13:52:31.965Z</time></trkpt><trkpt lat="43.3232629" lon="13.2303753"><ele>745.0</ele><time>2026-03-29T13:52:34.971Z</time></trkpt><trkpt lat="43.3232222" lon="13.2302405"><ele>745.0</ele><time>2026-03-29T13:52:36.967Z</time></trkpt><trkpt lat="43.3231767" lon="13.2300899"><ele>745.0</ele><time>2026-03-29T13:52:38.951Z</time></trkpt><trkpt lat="43.3231447" lon="13.2300075"><ele>745.0</ele><time>2026-03-29T13:52:39.992Z</time></trkpt><trkpt lat="43.323107" lon="13.2299248"><ele>745.0</ele><time>2026-03-29T13:52:40.978Z</time></trkpt><trkpt lat="43.3230644" lon="13.2298407"><ele>745.0</ele><time>2026-03-29T13:52:42Z</time></trkpt><trkpt lat="43.3230087" lon="13.2297591"><ele>745.0</ele><time>2026-03-29T13:52:42.967Z</time></trkpt><trkpt lat="43.3229625" lon="13.2296952"><ele>745.0</ele><time>2026-03-29T13:52:44.014Z</time></trkpt><trkpt lat="43.3228644" lon="13.2295987"><ele>745.0</ele><time>2026-03-29T13:52:45.985Z</time></trkpt><trkpt lat="43.3228179" lon="13.2295395"><ele>745.0</ele><time>2026-03-29T13:52:46.987Z</time></trkpt><trkpt lat="43.3227698" lon="13.2294788"><ele>745.0</ele><time>2026-03-29T13:52:47.98Z</time></trkpt><trkpt lat="43.3227233" lon="13.2294203"><ele>745.0</ele><time>2026-03-29T13:52:48.997Z</time></trkpt><trkpt lat="43.3226348" lon="13.2292936"><ele>745.0</ele><time>2026-03-29T13:52:50.964Z</time></trkpt><trkpt lat="43.3225841" lon="13.2292201"><ele>745.0</ele><time>2026-03-29T13:52:51.957Z</time></trkpt><trkpt lat="43.3225298" lon="13.2291417"><ele>745.0</ele><time>2026-03-29T13:52:52.972Z</time></trkpt><trkpt lat="43.3224742" lon="13.2290844"><ele>745.0</ele><time>2026-03-29T13:52:53.981Z</time></trkpt><trkpt lat="43.3223872" lon="13.2290002"><ele>745.0</ele><time>2026-03-29T13:52:55.992Z</time></trkpt><trkpt lat="43.3223087" lon="13.2289102"><ele>745.0</ele><time>2026-03-29T13:52:57.975Z</time></trkpt><trkpt lat="43.3222272" lon="13.228816"><ele>746.8333333333334</ele><time>2026-03-29T13:52:59.989Z</time></trkpt><trkpt lat="43.3221531" lon="13.2286985"><ele>748.6666666666667</ele><time>2026-03-29T13:53:01.974Z</time></trkpt><trkpt lat="43.3220988" lon="13.2286047"><ele>750.5</ele><time>2026-03-29T13:53:03.992Z</time></trkpt><trkpt lat="43.3220562" lon="13.2285111"><ele>752.3333333333334</ele><time>2026-03-29T13:53:07.939Z</time></trkpt><trkpt lat="43.3220249" lon="13.2283836"><ele>754.1666666666666</ele><time>2026-03-29T13:53:10.961Z</time></trkpt><trkpt lat="43.3220087" lon="13.2282945"><ele>756.0</ele><time>2026-03-29T13:53:12.956Z</time></trkpt><trkpt lat="43.3219875" lon="13.2282101"><ele>756.0</ele><time>2026-03-29T13:53:14.978Z</time></trkpt><trkpt lat="43.3219442" lon="13.2281051"><ele>756.0</ele><time>2026-03-29T13:53:17.939Z</time></trkpt><trkpt lat="43.3218935" lon="13.2280378"><ele>756.0</ele><time>2026-03-29T13:53:34.987Z</time></trkpt><trkpt lat="43.3218336" lon="13.2279634"><ele>756.0</ele><time>2026-03-29T13:53:42.969Z</time></trkpt><trkpt lat="43.3217623" lon="13.2280063"><ele>756.0</ele><time>2026-03-29T13:53:48.002Z</time></trkpt><trkpt lat="43.3216833" lon="13.2280859"><ele>756.0</ele><time>2026-03-29T13:53:50.977Z</time></trkpt><trkpt lat="43.321696" lon="13.2281765"><ele>756.0</ele><time>2026-03-29T13:53:52.99Z</time></trkpt><trkpt lat="43.3217446" lon="13.2282913"><ele>756.0</ele><time>2026-03-29T13:53:54.982Z</time></trkpt><trkpt lat="43.3217634" lon="13.228386"><ele>756.0</ele><time>2026-03-29T13:53:59.935Z</time></trkpt><trkpt lat="43.3217418" lon="13.2284733"><ele>756.0</ele><time>2026-03-29T13:54:02.985Z</time></trkpt><trkpt lat="43.3217566" lon="13.2285907"><ele>756.0</ele><time>2026-03-29T13:54:06.928Z</time></trkpt><trkpt lat="43.3217808" lon="13.2287072"><ele>756.0</ele><time>2026-03-29T13:54:10.984Z</time></trkpt><trkpt lat="43.3217977" lon="13.2288187"><ele>756.0</ele><time>2026-03-29T13:54:13.985Z</time></trkpt><trkpt lat="43.3218167" lon="13.2289191"><ele>756.0</ele><time>2026-03-29T13:54:16.974Z</time></trkpt><trkpt lat="43.3218512" lon="13.2290376"><ele>756.0</ele><time>2026-03-29T13:54:19.968Z</time></trkpt><trkpt lat="43.3218782" lon="13.229153"><ele>756.0</ele><time>2026-03-29T13:54:22.99Z</time></trkpt><trkpt lat="43.3218754" lon="13.2292423"><ele>756.0</ele><time>2026-03-29T13:54:24.959Z</time></trkpt><trkpt lat="43.3219282" lon="13.2293651"><ele>756.0</ele><time>2026-03-29T13:54:27.983Z</time></trkpt><trkpt lat="43.3219697" lon="13.2294477"><ele>754.5</ele><time>2026-03-29T13:54:29.96Z</time></trkpt><trkpt lat="43.3219986" lon="13.2295488"><ele>753.0</ele><time>2026-03-29T13:54:31.977Z</time></trkpt><trkpt lat="43.3220302" lon="13.2296548"><ele>751.5</ele><time>2026-03-29T13:54:33.972Z</time></trkpt><trkpt lat="43.3220395" lon="13.2297775"><ele>750.0</ele><time>2026-03-29T13:54:35.967Z</time></trkpt><trkpt lat="43.3220605" lon="13.2298601"><ele>748.5</ele><time>2026-03-29T13:54:36.971Z</time></trkpt><trkpt lat="43.3221123" lon="13.2299308"><ele>747.0</ele><time>2026-03-29T13:54:38.967Z</time></trkpt><trkpt lat="43.3221636" lon="13.2300303"><ele>745.2</ele><time>2026-03-29T13:54:40.965Z</time></trkpt><trkpt lat="43.3221886" lon="13.2301349"><ele>743.4000000000001</ele><time>2026-03-29T13:54:41.972Z</time></trkpt><trkpt lat="43.3222167" lon="13.2302364"><ele>741.5999999999999</ele><time>2026-03-29T13:54:43.126Z</time></trkpt><trkpt lat="43.3222799" lon="13.2303892"><ele>739.8</ele><time>2026-03-29T13:54:44.976Z</time></trkpt><trkpt lat="43.3223054" lon="13.2305058"><ele>738.0</ele><time>2026-03-29T13:54:46.996Z</time></trkpt><trkpt lat="43.3222754" lon="13.2306135"><ele>736.0</ele><time>2026-03-29T13:54:48.964Z</time></trkpt><trkpt lat="43.3222213" lon="13.2307228"><ele>734.0</ele><time>2026-03-29T13:54:50.963Z</time></trkpt><trkpt lat="43.3222113" lon="13.2308459"><ele>732.0</ele><time>2026-03-29T13:54:52.985Z</time></trkpt><trkpt lat="43.3222978" lon="13.2308892"><ele>730.0</ele><time>2026-03-29T13:54:56.937Z</time></trkpt><trkpt lat="43.3223474" lon="13.2309545"><ele>728.0</ele><time>2026-03-29T13:54:59.925Z</time></trkpt><trkpt lat="43.322385" lon="13.2310528"><ele>726.0</ele><time>2026-03-29T13:55:04.939Z</time></trkpt><trkpt lat="43.3224196" lon="13.2311433"><ele>725.0</ele><time>2026-03-29T13:55:07.949Z</time></trkpt><trkpt lat="43.3224515" lon="13.2312515"><ele>724.0</ele><time>2026-03-29T13:55:10.984Z</time></trkpt><trkpt lat="43.3224646" lon="13.2313512"><ele>723.0</ele><time>2026-03-29T13:55:12.972Z</time></trkpt><trkpt lat="43.3224633" lon="13.2314733"><ele>722.0</ele><time>2026-03-29T13:55:15.958Z</time></trkpt><trkpt lat="43.3224783" lon="13.2315708"><ele>721.0</ele><time>2026-03-29T13:55:26.963Z</time></trkpt><trkpt lat="43.3225271" lon="13.2316314"><ele>720.0</ele><time>2026-03-29T13:55:30.972Z</time></trkpt><trkpt lat="43.3225216" lon="13.2317219"><ele>717.5</ele><time>2026-03-29T13:55:36.962Z</time></trkpt><trkpt lat="43.3225215" lon="13.2318153"><ele>715.0</ele><time>2026-03-29T13:55:38.976Z</time></trkpt><trkpt lat="43.3225364" lon="13.2319515"><ele>712.5</ele><time>2026-03-29T13:55:40.975Z</time></trkpt><trkpt lat="43.3225744" lon="13.2320683"><ele>710.0</ele><time>2026-03-29T13:55:41.978Z</time></trkpt><trkpt lat="43.3226059" lon="13.2322006"><ele>707.5</ele><time>2026-03-29T13:55:43.967Z</time></trkpt><trkpt lat="43.3225769" lon="13.2322818"><ele>705.0</ele><time>2026-03-29T13:55:45.971Z</time></trkpt><trkpt lat="43.322546" lon="13.2323622"><ele>702.8333333333334</ele><time>2026-03-29T13:55:46.974Z</time></trkpt><trkpt lat="43.322492" lon="13.2324866"><ele>700.6666666666666</ele><time>2026-03-29T13:55:48.984Z</time></trkpt><trkpt lat="43.322441" lon="13.2326153"><ele>698.5</ele><time>2026-03-29T13:55:50.947Z</time></trkpt><trkpt lat="43.3223858" lon="13.2326876"><ele>696.3333333333333</ele><time>2026-03-29T13:55:52.972Z</time></trkpt><trkpt lat="43.322332" lon="13.2327387"><ele>694.1666666666666</ele><time>2026-03-29T13:55:53.981Z</time></trkpt><trkpt lat="43.3222786" lon="13.2327881"><ele>692.0</ele><time>2026-03-29T13:55:54.96Z</time></trkpt><trkpt lat="43.3222259" lon="13.2328411"><ele>692.0</ele><time>2026-03-29T13:55:55.993Z</time></trkpt><trkpt lat="43.3221698" lon="13.232883"><ele>692.0</ele><time>2026-03-29T13:55:56.975Z</time></trkpt><trkpt lat="43.3220656" lon="13.2329175"><ele>692.0</ele><time>2026-03-29T13:55:58.955Z</time></trkpt><trkpt lat="43.3219479" lon="13.2329145"><ele>692.0</ele><time>2026-03-29T13:56:00.981Z</time></trkpt><trkpt lat="43.3218292" lon="13.2329135"><ele>692.0</ele><time>2026-03-29T13:56:02.957Z</time></trkpt><trkpt lat="43.3217089" lon="13.2329005"><ele>692.0</ele><time>2026-03-29T13:56:04.975Z</time></trkpt><trkpt lat="43.3216331" lon="13.2328761"><ele>692.0</ele><time>2026-03-29T13:56:07.953Z</time></trkpt><trkpt lat="43.3215685" lon="13.2328777"><ele>692.0</ele><time>2026-03-29T13:56:21.98Z</time></trkpt><trkpt lat="43.3215327" lon="13.2329725"><ele>692.0</ele><time>2026-03-29T13:56:26.96Z</time></trkpt><trkpt lat="43.3215556" lon="13.2330793"><ele>692.0</ele><time>2026-03-29T13:56:30.963Z</time></trkpt><trkpt lat="43.3216201" lon="13.2331476"><ele>692.0</ele><time>2026-03-29T13:56:32.962Z</time></trkpt><trkpt lat="43.321686" lon="13.2332149"><ele>690.0</ele><time>2026-03-29T13:56:33.965Z</time></trkpt><trkpt lat="43.3217446" lon="13.2332783"><ele>688.0</ele><time>2026-03-29T13:56:34.962Z</time></trkpt><trkpt lat="43.321804" lon="13.2333578"><ele>686.0</ele><time>2026-03-29T13:56:36.942Z</time></trkpt><trkpt lat="43.3218951" lon="13.2334557"><ele>684.0</ele><time>2026-03-29T13:56:39.986Z</time></trkpt><trkpt lat="43.3219494" lon="13.2335322"><ele>682.0</ele><time>2026-03-29T13:56:40.973Z</time></trkpt><trkpt lat="43.3220273" lon="13.2336365"><ele>682.0</ele><time>2026-03-29T13:56:42.964Z</time></trkpt><trkpt lat="43.3220822" lon="13.2337006"><ele>682.0</ele><time>2026-03-29T13:56:44.95Z</time></trkpt><trkpt lat="43.3221636" lon="13.2337056"><ele>682.0</ele><time>2026-03-29T13:56:48.965Z</time></trkpt><trkpt lat="43.3222436" lon="13.2337035"><ele>682.0</ele><time>2026-03-29T13:56:51.989Z</time></trkpt><trkpt lat="43.3223524" lon="13.2337117"><ele>682.0</ele><time>2026-03-29T13:56:53.991Z</time></trkpt><trkpt lat="43.3224392" lon="13.2337751"><ele>682.0</ele><time>2026-03-29T13:56:55.977Z</time></trkpt><trkpt lat="43.3224877" lon="13.2338521"><ele>680.1666666666667</ele><time>2026-03-29T13:56:57.961Z</time></trkpt><trkpt lat="43.3225669" lon="13.2339107"><ele>678.3333333333334</ele><time>2026-03-29T13:56:59.933Z</time></trkpt><trkpt lat="43.3226396" lon="13.2339363"><ele>676.5</ele><time>2026-03-29T13:57:02.004Z</time></trkpt><trkpt lat="43.3227082" lon="13.233961"><ele>674.6666666666666</ele><time>2026-03-29T13:57:03.981Z</time></trkpt><trkpt lat="43.3227924" lon="13.2340053"><ele>672.8333333333333</ele><time>2026-03-29T13:57:05.954Z</time></trkpt><trkpt lat="43.3228831" lon="13.2340427"><ele>671.0</ele><time>2026-03-29T13:57:07.961Z</time></trkpt><trkpt lat="43.3229892" lon="13.2341785"><ele>669.8333333333333</ele><time>2026-03-29T13:57:09.98Z</time></trkpt><trkpt lat="43.3230499" lon="13.2342247"><ele>668.6666666666666</ele><time>2026-03-29T13:57:10.982Z</time></trkpt><trkpt lat="43.3231627" lon="13.2343038"><ele>667.5</ele><time>2026-03-29T13:57:13.99Z</time></trkpt><trkpt lat="43.3232162" lon="13.2343617"><ele>666.3333333333334</ele><time>2026-03-29T13:57:14.956Z</time></trkpt><trkpt lat="43.3232779" lon="13.2344303"><ele>665.1666666666667</ele><time>2026-03-29T13:57:15.938Z</time></trkpt><trkpt lat="43.3233177" lon="13.2345519"><ele>664.0</ele><time>2026-03-29T13:57:17.958Z</time></trkpt><trkpt lat="43.3233471" lon="13.2346515"><ele>662.2</ele><time>2026-03-29T13:57:19.951Z</time></trkpt><trkpt lat="43.3233516" lon="13.2347638"><ele>660.4000000000001</ele><time>2026-03-29T13:57:22.961Z</time></trkpt><trkpt lat="43.3233586" lon="13.2348839"><ele>658.6</ele><time>2026-03-29T13:57:25.987Z</time></trkpt><trkpt lat="43.323392" lon="13.2349898"><ele>656.8</ele><time>2026-03-29T13:57:27.992Z</time></trkpt><trkpt lat="43.3234222" lon="13.2351457"><ele>655.0</ele><time>2026-03-29T13:57:29.968Z</time></trkpt><trkpt lat="43.3234652" lon="13.2352727"><ele>653.1666666666667</ele><time>2026-03-29T13:57:31.948Z</time></trkpt><trkpt lat="43.323504" lon="13.2353438"><ele>651.3333333333334</ele><time>2026-03-29T13:57:33.986Z</time></trkpt><trkpt lat="43.323554" lon="13.2354258"><ele>649.5</ele><time>2026-03-29T13:57:36.967Z</time></trkpt><trkpt lat="43.3235961" lon="13.2355196"><ele>647.6666666666666</ele><time>2026-03-29T13:57:39.964Z</time></trkpt><trkpt lat="43.3236381" lon="13.2356112"><ele>645.8333333333333</ele><time>2026-03-29T13:57:43.976Z</time></trkpt><trkpt lat="43.3237105" lon="13.2357076"><ele>644.0</ele><time>2026-03-29T13:57:46.973Z</time></trkpt><trkpt lat="43.3237706" lon="13.2357994"><ele>643.2</ele><time>2026-03-29T13:57:48.986Z</time></trkpt><trkpt lat="43.3238423" lon="13.2359094"><ele>642.4000000000001</ele><time>2026-03-29T13:57:51.967Z</time></trkpt><trkpt lat="43.3239396" lon="13.2360265"><ele>641.6</ele><time>2026-03-29T13:57:53.963Z</time></trkpt><trkpt lat="43.323998" lon="13.2360998"><ele>640.8</ele><time>2026-03-29T13:57:55.96Z</time></trkpt><trkpt lat="43.3240506" lon="13.2361647"><ele>640.0</ele><time>2026-03-29T13:57:58.982Z</time></trkpt><trkpt lat="43.3240794" lon="13.2362427"><ele>637.5714285714286</ele><time>2026-03-29T13:58:10.959Z</time></trkpt><trkpt lat="43.3241339" lon="13.2363052"><ele>635.1428571428571</ele><time>2026-03-29T13:58:18.012Z</time></trkpt><trkpt lat="43.324191" lon="13.2363617"><ele>632.7142857142858</ele><time>2026-03-29T13:58:23.967Z</time></trkpt><trkpt lat="43.324253" lon="13.2363955"><ele>630.2857142857142</ele><time>2026-03-29T13:58:27.973Z</time></trkpt><trkpt lat="43.324318" lon="13.2364284"><ele>627.8571428571429</ele><time>2026-03-29T13:58:48.96Z</time></trkpt><trkpt lat="43.3243773" lon="13.2364613"><ele>625.4285714285714</ele><time>2026-03-29T13:58:58.981Z</time></trkpt><trkpt lat="43.3244479" lon="13.2364812"><ele>623.0</ele><time>2026-03-29T13:59:04.969Z</time></trkpt><trkpt lat="43.3245049" lon="13.236538"><ele>620.8571428571429</ele><time>2026-03-29T13:59:08.962Z</time></trkpt><trkpt lat="43.3245648" lon="13.2365821"><ele>618.7142857142858</ele><time>2026-03-29T13:59:13.959Z</time></trkpt><trkpt lat="43.3246294" lon="13.236637"><ele>616.5714285714286</ele><time>2026-03-29T13:59:16.973Z</time></trkpt><trkpt lat="43.3246934" lon="13.2366857"><ele>614.4285714285714</ele><time>2026-03-29T13:59:19.954Z</time></trkpt><trkpt lat="43.3247463" lon="13.2367456"><ele>612.2857142857143</ele><time>2026-03-29T13:59:23.98Z</time></trkpt><trkpt lat="43.3248134" lon="13.2368146"><ele>610.1428571428571</ele><time>2026-03-29T13:59:27.969Z</time></trkpt><trkpt lat="43.3248646" lon="13.2368655"><ele>608.0</ele><time>2026-03-29T13:59:30.972Z</time></trkpt><trkpt lat="43.3249234" lon="13.2369255"><ele>606.1666666666666</ele><time>2026-03-29T13:59:34.001Z</time></trkpt><trkpt lat="43.3249841" lon="13.2369818"><ele>604.3333333333333</ele><time>2026-03-29T13:59:36.968Z</time></trkpt><trkpt lat="43.3250478" lon="13.2370503"><ele>602.5</ele><time>2026-03-29T13:59:39.979Z</time></trkpt><trkpt lat="43.3250962" lon="13.237174"><ele>600.6666666666666</ele><time>2026-03-29T13:59:42.954Z</time></trkpt><trkpt lat="43.3251175" lon="13.2373119"><ele>598.8333333333334</ele><time>2026-03-29T13:59:44.978Z</time></trkpt><trkpt lat="43.3251493" lon="13.2374151"><ele>597.0</ele><time>2026-03-29T13:59:51.973Z</time></trkpt><trkpt lat="43.3252471" lon="13.2377077"><ele>593.5</ele><time>2026-03-29T13:59:52.962Z</time></trkpt><trkpt lat="43.3252627" lon="13.2378129"><ele>590.0</ele><time>2026-03-29T13:59:54.975Z</time></trkpt><trkpt lat="43.3253002" lon="13.2378933"><ele>586.5</ele><time>2026-03-29T13:59:56.997Z</time></trkpt><trkpt lat="43.3253505" lon="13.2379943"><ele>583.0</ele><time>2026-03-29T13:59:59.939Z</time></trkpt><trkpt lat="43.3254095" lon="13.2380882"><ele>579.5</ele><time>2026-03-29T14:00:02.985Z</time></trkpt><trkpt lat="43.3254609" lon="13.23823"><ele>576.0</ele><time>2026-03-29T14:00:04.973Z</time></trkpt><trkpt lat="43.3254976" lon="13.238336"><ele>573.3333333333334</ele><time>2026-03-29T14:00:06.933Z</time></trkpt><trkpt lat="43.3255651" lon="13.2385038"><ele>570.6666666666666</ele><time>2026-03-29T14:00:08.949Z</time></trkpt><trkpt lat="43.3256084" lon="13.2385675"><ele>568.0</ele><time>2026-03-29T14:00:09.958Z</time></trkpt><trkpt lat="43.325621" lon="13.2386541"><ele>565.3333333333333</ele><time>2026-03-29T14:00:10.936Z</time></trkpt><trkpt lat="43.3256728" lon="13.2387455"><ele>562.6666666666666</ele><time>2026-03-29T14:00:12.932Z</time></trkpt><trkpt lat="43.3256883" lon="13.2388297"><ele>560.0</ele><time>2026-03-29T14:00:13.935Z</time></trkpt><trkpt lat="43.3257026" lon="13.2389478"><ele>555.6</ele><time>2026-03-29T14:00:14.93Z</time></trkpt><trkpt lat="43.3257109" lon="13.2391032"><ele>551.2</ele><time>2026-03-29T14:00:16.927Z</time></trkpt><trkpt lat="43.3257606" lon="13.2392564"><ele>546.8</ele><time>2026-03-29T14:00:18.925Z</time></trkpt><trkpt lat="43.325803" lon="13.2393342"><ele>542.4</ele><time>2026-03-29T14:00:19.945Z</time></trkpt><trkpt lat="43.3257923" lon="13.2394665"><ele>538.0</ele><time>2026-03-29T14:00:21.941Z</time></trkpt><trkpt lat="43.3258218" lon="13.2395712"><ele>538.0</ele><time>2026-03-29T14:00:22.932Z</time></trkpt><trkpt lat="43.3258525" lon="13.2396667"><ele>538.0</ele><time>2026-03-29T14:00:24.953Z</time></trkpt><trkpt lat="43.3258593" lon="13.2398057"><ele>538.0</ele><time>2026-03-29T14:00:26.955Z</time></trkpt><trkpt lat="43.3258613" lon="13.2399423"><ele>538.0</ele><time>2026-03-29T14:00:27.962Z</time></trkpt><trkpt lat="43.3258798" lon="13.2400487"><ele>538.0</ele><time>2026-03-29T14:00:28.965Z</time></trkpt><trkpt lat="43.3259066" lon="13.2401413"><ele>538.0</ele><time>2026-03-29T14:00:29.955Z</time></trkpt><trkpt lat="43.3259138" lon="13.2402401"><ele>534.6</ele><time>2026-03-29T14:00:30.967Z</time></trkpt><trkpt lat="43.3259061" lon="13.2403656"><ele>531.1999999999999</ele><time>2026-03-29T14:00:31.976Z</time></trkpt><trkpt lat="43.3258827" lon="13.2404881"><ele>527.8</ele><time>2026-03-29T14:00:32.94Z</time></trkpt><trkpt lat="43.3258588" lon="13.2406194"><ele>524.4</ele><time>2026-03-29T14:00:33.936Z</time></trkpt><trkpt lat="43.3258448" lon="13.2407261"><ele>521.0</ele><time>2026-03-29T14:00:34.967Z</time></trkpt><trkpt lat="43.3258189" lon="13.2408525"><ele>518.1666666666666</ele><time>2026-03-29T14:00:36.965Z</time></trkpt><trkpt lat="43.3257835" lon="13.2409365"><ele>515.3333333333333</ele><time>2026-03-29T14:00:38.968Z</time></trkpt><trkpt lat="43.3257171" lon="13.2409977"><ele>512.5</ele><time>2026-03-29T14:00:39.975Z</time></trkpt><trkpt lat="43.3256472" lon="13.2410289"><ele>509.66666666666663</ele><time>2026-03-29T14:00:41.966Z</time></trkpt><trkpt lat="43.3255624" lon="13.2410493"><ele>506.8333333333333</ele><time>2026-03-29T14:00:44.971Z</time></trkpt><trkpt lat="43.3254695" lon="13.2410983"><ele>504.0</ele><time>2026-03-29T14:00:46.964Z</time></trkpt><trkpt lat="43.3253993" lon="13.2411242"><ele>503.5</ele><time>2026-03-29T14:00:47.967Z</time></trkpt><trkpt lat="43.3252922" lon="13.2411429"><ele>503.0</ele><time>2026-03-29T14:00:49.968Z</time></trkpt><trkpt lat="43.3252069" lon="13.2411558"><ele>502.5</ele><time>2026-03-29T14:00:51.964Z</time></trkpt><trkpt lat="43.3251471" lon="13.2412014"><ele>502.0</ele><time>2026-03-29T14:00:53.966Z</time></trkpt><trkpt lat="43.3250732" lon="13.2412106"><ele>501.5</ele><time>2026-03-29T14:00:55.954Z</time></trkpt><trkpt lat="43.3250079" lon="13.2412058"><ele>501.0</ele><time>2026-03-29T14:00:56.962Z</time></trkpt><trkpt lat="43.3249214" lon="13.241222"><ele>501.0</ele><time>2026-03-29T14:00:58.967Z</time></trkpt><trkpt lat="43.3249464" lon="13.2413479"><ele>501.0</ele><time>2026-03-29T14:01:02.944Z</time></trkpt><trkpt lat="43.3249991" lon="13.241467"><ele>501.0</ele><time>2026-03-29T14:01:04.965Z</time></trkpt><trkpt lat="43.3250567" lon="13.24156"><ele>501.0</ele><time>2026-03-29T14:01:05.973Z</time></trkpt><trkpt lat="43.3250916" lon="13.2416402"><ele>501.0</ele><time>2026-03-29T14:01:07.959Z</time></trkpt><trkpt lat="43.3251258" lon="13.2417695"><ele>497.0</ele><time>2026-03-29T14:01:45.977Z</time></trkpt><trkpt lat="43.3251538" lon="13.2418645"><ele>493.0</ele><time>2026-03-29T14:01:48.974Z</time></trkpt><trkpt lat="43.3252004" lon="13.2419841"><ele>489.0</ele><time>2026-03-29T14:01:52Z</time></trkpt><trkpt lat="43.3252873" lon="13.2420807"><ele>485.0</ele><time>2026-03-29T14:01:53.953Z</time></trkpt><trkpt lat="43.3253756" lon="13.2421701"><ele>481.0</ele><time>2026-03-29T14:01:55.983Z</time></trkpt><trkpt lat="43.325451" lon="13.2422589"><ele>479.33333333333337</ele><time>2026-03-29T14:01:57.989Z</time></trkpt><trkpt lat="43.3255223" lon="13.2423526"><ele>477.6666666666667</ele><time>2026-03-29T14:01:59.946Z</time></trkpt><trkpt lat="43.3255786" lon="13.2424306"><ele>476.0</ele><time>2026-03-29T14:02:03.987Z</time></trkpt><trkpt lat="43.3256117" lon="13.2425324"><ele>474.33333333333337</ele><time>2026-03-29T14:02:06.968Z</time></trkpt><trkpt lat="43.3256219" lon="13.2426257"><ele>472.6666666666667</ele><time>2026-03-29T14:02:08.988Z</time></trkpt><trkpt lat="43.3256412" lon="13.2427278"><ele>471.0</ele><time>2026-03-29T14:02:10.981Z</time></trkpt><trkpt lat="43.3256712" lon="13.2429061"><ele>470.3333333333333</ele><time>2026-03-29T14:02:12.955Z</time></trkpt><trkpt lat="43.3256699" lon="13.2430054"><ele>469.66666666666663</ele><time>2026-03-29T14:02:14.002Z</time></trkpt><trkpt lat="43.3256529" lon="13.2430896"><ele>469.0</ele><time>2026-03-29T14:02:14.971Z</time></trkpt><trkpt lat="43.3256094" lon="13.2432089"><ele>468.3333333333333</ele><time>2026-03-29T14:02:16.985Z</time></trkpt><trkpt lat="43.3256197" lon="13.2433125"><ele>467.66666666666663</ele><time>2026-03-29T14:02:18.988Z</time></trkpt><trkpt lat="43.3256264" lon="13.2434568"><ele>467.0</ele><time>2026-03-29T14:02:20.991Z</time></trkpt><trkpt lat="43.3256402" lon="13.2436462"><ele>465.16666666666663</ele><time>2026-03-29T14:02:22.982Z</time></trkpt><trkpt lat="43.3256551" lon="13.2437413"><ele>463.3333333333333</ele><time>2026-03-29T14:02:23.98Z</time></trkpt><trkpt lat="43.3256544" lon="13.2438684"><ele>461.5</ele><time>2026-03-29T14:02:25.994Z</time></trkpt><trkpt lat="43.3256097" lon="13.2439642"><ele>459.66666666666663</ele><time>2026-03-29T14:02:27.992Z</time></trkpt><trkpt lat="43.3255634" lon="13.2440485"><ele>457.8333333333333</ele><time>2026-03-29T14:02:29.999Z</time></trkpt><trkpt lat="43.3255038" lon="13.2441105"><ele>456.0</ele><time>2026-03-29T14:02:32.006Z</time></trkpt><trkpt lat="43.3254055" lon="13.2442519"><ele>455.4</ele><time>2026-03-29T14:02:34.005Z</time></trkpt><trkpt lat="43.3253748" lon="13.2443288"><ele>454.8</ele><time>2026-03-29T14:02:34.996Z</time></trkpt><trkpt lat="43.3253646" lon="13.2444732"><ele>454.19999999999993</ele><time>2026-03-29T14:02:36.999Z</time></trkpt><trkpt lat="43.3254522" lon="13.2445901"><ele>453.59999999999997</ele><time>2026-03-29T14:02:38.991Z</time></trkpt><trkpt lat="43.3255364" lon="13.244642"><ele>453.0</ele><time>2026-03-29T14:02:39.993Z</time></trkpt><trkpt lat="43.3256231" lon="13.2447043"><ele>449.59999999999997</ele><time>2026-03-29T14:02:40.99Z</time></trkpt><trkpt lat="43.3257004" lon="13.2447966"><ele>446.19999999999993</ele><time>2026-03-29T14:02:41.985Z</time></trkpt><trkpt lat="43.325775" lon="13.2449104"><ele>442.8</ele><time>2026-03-29T14:02:42.994Z</time></trkpt><trkpt lat="43.325853" lon="13.2450178"><ele>439.4</ele><time>2026-03-29T14:02:43.99Z</time></trkpt><trkpt lat="43.3259199" lon="13.2451116"><ele>436.0</ele><time>2026-03-29T14:02:44.973Z</time></trkpt><trkpt lat="43.325969" lon="13.2451814"><ele>436.0</ele><time>2026-03-29T14:02:46.003Z</time></trkpt><trkpt lat="43.3260148" lon="13.2452426"><ele>436.0</ele><time>2026-03-29T14:02:46.972Z</time></trkpt><trkpt lat="43.3260603" lon="13.2453142"><ele>436.0</ele><time>2026-03-29T14:02:48.012Z</time></trkpt><trkpt lat="43.3261038" lon="13.2453831"><ele>436.0</ele><time>2026-03-29T14:02:49.003Z</time></trkpt><trkpt lat="43.3261479" lon="13.24545"><ele>436.0</ele><time>2026-03-29T14:02:49.992Z</time></trkpt><trkpt lat="43.3261965" lon="13.2455206"><ele>436.0</ele><time>2026-03-29T14:02:50.997Z</time></trkpt><trkpt lat="43.3262508" lon="13.2456006"><ele>436.0</ele><time>2026-03-29T14:02:52.003Z</time></trkpt><trkpt lat="43.3263076" lon="13.2456799"><ele>435.50000000000006</ele><time>2026-03-29T14:02:52.995Z</time></trkpt><trkpt lat="43.3263609" lon="13.2457549"><ele>435.0</ele><time>2026-03-29T14:02:54Z</time></trkpt><trkpt lat="43.3264104" lon="13.2458293"><ele>434.5</ele><time>2026-03-29T14:02:54.986Z</time></trkpt><trkpt lat="43.3264631" lon="13.245901"><ele>434.0</ele><time>2026-03-29T14:02:55.994Z</time></trkpt><trkpt lat="43.3265104" lon="13.2459774"><ele>433.50000000000006</ele><time>2026-03-29T14:02:56.973Z</time></trkpt><trkpt lat="43.3265554" lon="13.2460408"><ele>433.0</ele><time>2026-03-29T14:02:57.97Z</time></trkpt><trkpt lat="43.326626" lon="13.2461487"><ele>433.00000000000006</ele><time>2026-03-29T14:02:59.95Z</time></trkpt><trkpt lat="43.3266922" lon="13.2462529"><ele>433.0</ele><time>2026-03-29T14:03:01.988Z</time></trkpt><trkpt lat="43.3267394" lon="13.2463113"><ele>433.0</ele><time>2026-03-29T14:03:03.992Z</time></trkpt><trkpt lat="43.3268079" lon="13.2463223"><ele>433.0</ele><time>2026-03-29T14:03:06Z</time></trkpt><trkpt lat="43.3268877" lon="13.2462532"><ele>433.00000000000006</ele><time>2026-03-29T14:03:07.999Z</time></trkpt><trkpt lat="43.3269788" lon="13.2462409"><ele>433.0</ele><time>2026-03-29T14:03:09.981Z</time></trkpt><trkpt lat="43.3270679" lon="13.2462306"><ele>433.0</ele><time>2026-03-29T14:03:12.008Z</time></trkpt><trkpt lat="43.3271563" lon="13.2462144"><ele>432.99999999999994</ele><time>2026-03-29T14:03:13.968Z</time></trkpt><trkpt lat="43.3272515" lon="13.2462075"><ele>432.99999999999994</ele><time>2026-03-29T14:03:15.985Z</time></trkpt><trkpt lat="43.3273507" lon="13.2461858"><ele>433.0</ele><time>2026-03-29T14:03:17.998Z</time></trkpt><trkpt lat="43.3274719" lon="13.2461681"><ele>433.0</ele><time>2026-03-29T14:03:19.997Z</time></trkpt><trkpt lat="43.3275459" lon="13.2461661"><ele>433.1666666666667</ele><time>2026-03-29T14:03:20.983Z</time></trkpt><trkpt lat="43.3276122" lon="13.2461624"><ele>433.33333333333337</ele><time>2026-03-29T14:03:21.998Z</time></trkpt><trkpt lat="43.3277429" lon="13.2461539"><ele>433.5</ele><time>2026-03-29T14:03:24.018Z</time></trkpt><trkpt lat="43.3278171" lon="13.2461375"><ele>433.66666666666663</ele><time>2026-03-29T14:03:24.949Z</time></trkpt><trkpt lat="43.3278848" lon="13.2461286"><ele>433.8333333333333</ele><time>2026-03-29T14:03:26.005Z</time></trkpt><trkpt lat="43.327954" lon="13.2461523"><ele>434.0</ele><time>2026-03-29T14:03:26.991Z</time></trkpt><trkpt lat="43.3280241" lon="13.2462508"><ele>432.0</ele><time>2026-03-29T14:03:27.977Z</time></trkpt><trkpt lat="43.3280922" lon="13.2463592"><ele>430.0</ele><time>2026-03-29T14:03:28.966Z</time></trkpt><trkpt lat="43.3281547" lon="13.2464495"><ele>428.0</ele><time>2026-03-29T14:03:29.993Z</time></trkpt><trkpt lat="43.3282401" lon="13.2465247"><ele>426.0</ele><time>2026-03-29T14:03:30.997Z</time></trkpt><trkpt lat="43.3283187" lon="13.2465725"><ele>424.0</ele><time>2026-03-29T14:03:31.991Z</time></trkpt><trkpt lat="43.3283991" lon="13.2466174"><ele>423.2</ele><time>2026-03-29T14:03:32.998Z</time></trkpt><trkpt lat="43.3284759" lon="13.2466653"><ele>422.4</ele><time>2026-03-29T14:03:34.001Z</time></trkpt><trkpt lat="43.3285601" lon="13.2467298"><ele>421.6</ele><time>2026-03-29T14:03:35.012Z</time></trkpt><trkpt lat="43.3286483" lon="13.2467829"><ele>420.8</ele><time>2026-03-29T14:03:35.996Z</time></trkpt><trkpt lat="43.3287347" lon="13.2468308"><ele>420.0</ele><time>2026-03-29T14:03:36.994Z</time></trkpt><trkpt lat="43.3288234" lon="13.2468817"><ele>418.2</ele><time>2026-03-29T14:03:37.962Z</time></trkpt><trkpt lat="43.3289087" lon="13.2469313"><ele>416.4</ele><time>2026-03-29T14:03:38.99Z</time></trkpt><trkpt lat="43.3289977" lon="13.2469742"><ele>414.6</ele><time>2026-03-29T14:03:39.993Z</time></trkpt><trkpt lat="43.3290872" lon="13.2469935"><ele>412.8</ele><time>2026-03-29T14:03:40.963Z</time></trkpt><trkpt lat="43.3291746" lon="13.2470188"><ele>411.0</ele><time>2026-03-29T14:03:41.993Z</time></trkpt><trkpt lat="43.3292587" lon="13.2470547"><ele>411.0</ele><time>2026-03-29T14:03:42.991Z</time></trkpt><trkpt lat="43.3293346" lon="13.2471031"><ele>411.0</ele><time>2026-03-29T14:03:43.997Z</time></trkpt><trkpt lat="43.3294137" lon="13.247146"><ele>411.0</ele><time>2026-03-29T14:03:44.999Z</time></trkpt><trkpt lat="43.3295021" lon="13.2471777"><ele>411.0</ele><time>2026-03-29T14:03:45.983Z</time></trkpt><trkpt lat="43.3296031" lon="13.2472057"><ele>411.0</ele><time>2026-03-29T14:03:46.991Z</time></trkpt><trkpt lat="43.3297112" lon="13.2472264"><ele>409.4</ele><time>2026-03-29T14:03:47.96Z</time></trkpt><trkpt lat="43.3298278" lon="13.2472455"><ele>407.8</ele><time>2026-03-29T14:03:48.999Z</time></trkpt><trkpt lat="43.3299365" lon="13.2472545"><ele>406.2</ele><time>2026-03-29T14:03:49.992Z</time></trkpt><trkpt lat="43.3300435" lon="13.2472505"><ele>404.59999999999997</ele><time>2026-03-29T14:03:50.974Z</time></trkpt><trkpt lat="43.3301482" lon="13.2472364"><ele>403.0</ele><time>2026-03-29T14:03:51.997Z</time></trkpt><trkpt lat="43.3302482" lon="13.2472101"><ele>403.0</ele><time>2026-03-29T14:03:52.99Z</time></trkpt><trkpt lat="43.3303503" lon="13.2471853"><ele>403.0</ele><time>2026-03-29T14:03:54.021Z</time></trkpt><trkpt lat="43.330452" lon="13.2471608"><ele>403.0</ele><time>2026-03-29T14:03:54.992Z</time></trkpt><trkpt lat="43.3305483" lon="13.2471446"><ele>403.0</ele><time>2026-03-29T14:03:55.986Z</time></trkpt><trkpt lat="43.330638" lon="13.2471411"><ele>403.0</ele><time>2026-03-29T14:03:56.968Z</time></trkpt><trkpt lat="43.3307178" lon="13.2471398"><ele>401.1666666666667</ele><time>2026-03-29T14:03:57.992Z</time></trkpt><trkpt lat="43.3307977" lon="13.2471411"><ele>399.33333333333337</ele><time>2026-03-29T14:03:58.988Z</time></trkpt><trkpt lat="43.3308763" lon="13.2471505"><ele>397.5</ele><time>2026-03-29T14:03:59.945Z</time></trkpt><trkpt lat="43.3309561" lon="13.2471658"><ele>395.66666666666663</ele><time>2026-03-29T14:04:00.988Z</time></trkpt><trkpt lat="43.3310377" lon="13.2471778"><ele>393.8333333333333</ele><time>2026-03-29T14:04:01.99Z</time></trkpt><trkpt lat="43.331132" lon="13.2471977"><ele>392.0</ele><time>2026-03-29T14:04:02.958Z</time></trkpt><trkpt lat="43.3312359" lon="13.2472125"><ele>392.0</ele><time>2026-03-29T14:04:03.935Z</time></trkpt><trkpt lat="43.3313324" lon="13.2472231"><ele>392.0</ele><time>2026-03-29T14:04:04.933Z</time></trkpt><trkpt lat="43.3314431" lon="13.2472341"><ele>392.0</ele><time>2026-03-29T14:04:05.94Z</time></trkpt><trkpt lat="43.3315437" lon="13.2472416"><ele>392.0</ele><time>2026-03-29T14:04:06.936Z</time></trkpt><trkpt lat="43.3316397" lon="13.2472575"><ele>392.0</ele><time>2026-03-29T14:04:07.959Z</time></trkpt><trkpt lat="43.331724" lon="13.2472591"><ele>390.40000000000003</ele><time>2026-03-29T14:04:08.941Z</time></trkpt><trkpt lat="43.3318176" lon="13.2472811"><ele>388.8</ele><time>2026-03-29T14:04:09.938Z</time></trkpt><trkpt lat="43.3319138" lon="13.2473327"><ele>387.2</ele><time>2026-03-29T14:04:10.936Z</time></trkpt><trkpt lat="43.3320139" lon="13.2474085"><ele>385.6</ele><time>2026-03-29T14:04:11.97Z</time></trkpt><trkpt lat="43.3321071" lon="13.2474783"><ele>384.0</ele><time>2026-03-29T14:04:12.98Z</time></trkpt><trkpt lat="43.3321997" lon="13.2475243"><ele>381.79999999999995</ele><time>2026-03-29T14:04:13.974Z</time></trkpt><trkpt lat="43.3322837" lon="13.2475441"><ele>379.59999999999997</ele><time>2026-03-29T14:04:14.956Z</time></trkpt><trkpt lat="43.3323779" lon="13.2475632"><ele>377.4</ele><time>2026-03-29T14:04:15.983Z</time></trkpt><trkpt lat="43.3324583" lon="13.2475933"><ele>375.2</ele><time>2026-03-29T14:04:16.993Z</time></trkpt><trkpt lat="43.332572" lon="13.2476133"><ele>373.0</ele><time>2026-03-29T14:04:18.95Z</time></trkpt><trkpt lat="43.332675" lon="13.2476311"><ele>373.0</ele><time>2026-03-29T14:04:20.97Z</time></trkpt><trkpt lat="43.3327719" lon="13.2476804"><ele>373.0</ele><time>2026-03-29T14:04:22.971Z</time></trkpt><trkpt lat="43.332854" lon="13.2477716"><ele>373.0</ele><time>2026-03-29T14:04:24.959Z</time></trkpt><trkpt lat="43.332953" lon="13.2478357"><ele>373.0</ele><time>2026-03-29T14:04:26.961Z</time></trkpt><trkpt lat="43.3330676" lon="13.2478612"><ele>373.0</ele><time>2026-03-29T14:04:28.967Z</time></trkpt><trkpt lat="43.3331709" lon="13.2478757"><ele>371.3333333333333</ele><time>2026-03-29T14:04:30.972Z</time></trkpt><trkpt lat="43.3332401" lon="13.247897"><ele>369.66666666666663</ele><time>2026-03-29T14:04:32.975Z</time></trkpt><trkpt lat="43.3333314" lon="13.2479565"><ele>368.0</ele><time>2026-03-29T14:04:34.992Z</time></trkpt><trkpt lat="43.3333969" lon="13.2480043"><ele>366.3333333333333</ele><time>2026-03-29T14:04:36.994Z</time></trkpt><trkpt lat="43.3334645" lon="13.2479918"><ele>364.6666666666667</ele><time>2026-03-29T14:04:39.967Z</time></trkpt><trkpt lat="43.3335145" lon="13.2479332"><ele>363.0</ele><time>2026-03-29T14:04:43.927Z</time></trkpt><trkpt lat="43.3336061" lon="13.2479096"><ele>363.0</ele><time>2026-03-29T14:04:47.921Z</time></trkpt><trkpt lat="43.3336849" lon="13.247924"><ele>363.0</ele><time>2026-03-29T14:04:49.921Z</time></trkpt><trkpt lat="43.3337857" lon="13.2479176"><ele>363.0</ele><time>2026-03-29T14:04:50.919Z</time></trkpt><trkpt lat="43.3338527" lon="13.2479049"><ele>363.0</ele><time>2026-03-29T14:04:51.92Z</time></trkpt><trkpt lat="43.3339187" lon="13.2478467"><ele>363.0</ele><time>2026-03-29T14:04:52.921Z</time></trkpt><trkpt lat="43.3339758" lon="13.2478001"><ele>363.0</ele><time>2026-03-29T14:04:53.923Z</time></trkpt><trkpt lat="43.3340953" lon="13.2477639"><ele>362.1666666666667</ele><time>2026-03-29T14:04:55.918Z</time></trkpt><trkpt lat="43.334175" lon="13.2477628"><ele>361.3333333333333</ele><time>2026-03-29T14:04:56.926Z</time></trkpt><trkpt lat="43.3342723" lon="13.2477663"><ele>360.5</ele><time>2026-03-29T14:04:57.918Z</time></trkpt><trkpt lat="43.3343657" lon="13.2477824"><ele>359.66666666666663</ele><time>2026-03-29T14:04:58.917Z</time></trkpt><trkpt lat="43.3344479" lon="13.2477918"><ele>358.8333333333333</ele><time>2026-03-29T14:04:59.918Z</time></trkpt><trkpt lat="43.3345366" lon="13.2477943"><ele>358.0</ele><time>2026-03-29T14:05:00.921Z</time></trkpt><trkpt lat="43.3346201" lon="13.2477769"><ele>358.0</ele><time>2026-03-29T14:05:01.934Z</time></trkpt><trkpt lat="43.3346957" lon="13.2477685"><ele>358.0</ele><time>2026-03-29T14:05:02.917Z</time></trkpt><trkpt lat="43.334778" lon="13.247756"><ele>358.0</ele><time>2026-03-29T14:05:03.922Z</time></trkpt><trkpt lat="43.3348559" lon="13.2477663"><ele>358.0</ele><time>2026-03-29T14:05:04.919Z</time></trkpt><trkpt lat="43.334937" lon="13.2477695"><ele>358.0</ele><time>2026-03-29T14:05:05.938Z</time></trkpt><trkpt lat="43.3352052" lon="13.247751"><ele>357.16666666666663</ele><time>2026-03-29T14:05:09.921Z</time></trkpt><trkpt lat="43.3352993" lon="13.2477765"><ele>356.3333333333333</ele><time>2026-03-29T14:05:11.913Z</time></trkpt><trkpt lat="43.3354046" lon="13.2477748"><ele>355.5</ele><time>2026-03-29T14:05:13.932Z</time></trkpt><trkpt lat="43.3354555" lon="13.2477073"><ele>354.6666666666667</ele><time>2026-03-29T14:05:14.919Z</time></trkpt><trkpt lat="43.3355145" lon="13.2476356"><ele>353.83333333333337</ele><time>2026-03-29T14:05:15.917Z</time></trkpt><trkpt lat="43.3355888" lon="13.2475637"><ele>353.0</ele><time>2026-03-29T14:05:16.912Z</time></trkpt><trkpt lat="43.3356635" lon="13.2475169"><ele>351.4</ele><time>2026-03-29T14:05:17.917Z</time></trkpt><trkpt lat="43.335724" lon="13.2474803"><ele>349.79999999999995</ele><time>2026-03-29T14:05:18.913Z</time></trkpt><trkpt lat="43.3358447" lon="13.2474437"><ele>348.2</ele><time>2026-03-29T14:05:20.917Z</time></trkpt><trkpt lat="43.3359412" lon="13.2474243"><ele>346.6</ele><time>2026-03-29T14:05:21.914Z</time></trkpt><trkpt lat="43.3360203" lon="13.2473929"><ele>345.0</ele><time>2026-03-29T14:05:22.92Z</time></trkpt><trkpt lat="43.336103" lon="13.2473487"><ele>345.0</ele><time>2026-03-29T14:05:23.933Z</time></trkpt><trkpt lat="43.3361893" lon="13.2472994"><ele>345.0</ele><time>2026-03-29T14:05:24.919Z</time></trkpt><trkpt lat="43.3362739" lon="13.2472455"><ele>345.0</ele><time>2026-03-29T14:05:25.924Z</time></trkpt><trkpt lat="43.3363517" lon="13.2471661"><ele>345.0</ele><time>2026-03-29T14:05:26.912Z</time></trkpt><trkpt lat="43.3364109" lon="13.2470871"><ele>345.0</ele><time>2026-03-29T14:05:27.922Z</time></trkpt><trkpt lat="43.3364603" lon="13.2470203"><ele>345.0</ele><time>2026-03-29T14:05:28.914Z</time></trkpt><trkpt lat="43.3365344" lon="13.2469811"><ele>342.8333333333333</ele><time>2026-03-29T14:05:29.914Z</time></trkpt><trkpt lat="43.3366112" lon="13.2469923"><ele>340.6666666666667</ele><time>2026-03-29T14:05:30.914Z</time></trkpt><trkpt lat="43.3366989" lon="13.2470225"><ele>338.5</ele><time>2026-03-29T14:05:31.912Z</time></trkpt><trkpt lat="43.3367614" lon="13.2470631"><ele>336.33333333333337</ele><time>2026-03-29T14:05:33.915Z</time></trkpt><trkpt lat="43.3368172" lon="13.2471398"><ele>334.1666666666667</ele><time>2026-03-29T14:05:35.916Z</time></trkpt><trkpt lat="43.3368772" lon="13.2472046"><ele>332.0</ele><time>2026-03-29T14:05:38.922Z</time></trkpt><trkpt lat="43.33694" lon="13.2472112"><ele>332.0</ele><time>2026-03-29T14:06:03.949Z</time></trkpt><trkpt lat="43.3369971" lon="13.2472578"><ele>332.0</ele><time>2026-03-29T14:06:09.939Z</time></trkpt><trkpt lat="43.3370732" lon="13.2472463"><ele>332.0</ele><time>2026-03-29T14:07:17.969Z</time></trkpt><trkpt lat="43.337088" lon="13.247138"><ele>332.0</ele><time>2026-03-29T14:07:40.941Z</time></trkpt><trkpt lat="43.3371226" lon="13.2470639"><ele>332.0</ele><time>2026-03-29T14:07:47.931Z</time></trkpt><trkpt lat="43.3370778" lon="13.2471398"><ele>332.0</ele><time>2026-03-29T14:09:41.968Z</time></trkpt><trkpt lat="43.3370564" lon="13.2472231"><ele>332.0</ele><time>2026-03-29T14:09:43.973Z</time></trkpt><trkpt lat="43.3371036" lon="13.2470769"><ele>332.0</ele><time>2026-03-29T14:15:49.951Z</time></trkpt><trkpt lat="43.3371165" lon="13.2469345"><ele>332.0</ele><time>2026-03-29T14:15:51.968Z</time></trkpt><trkpt lat="43.3370454" lon="13.2467907"><ele>332.0</ele><time>2026-03-29T14:15:53.972Z</time></trkpt><trkpt lat="43.3369941" lon="13.2467299"><ele>332.0</ele><time>2026-03-29T14:15:54.937Z</time></trkpt><trkpt lat="43.3369758" lon="13.2466371"><ele>332.0</ele><time>2026-03-29T14:15:55.99Z</time></trkpt><trkpt lat="43.3369672" lon="13.246536"><ele>332.0</ele><time>2026-03-29T14:15:56.983Z</time></trkpt><trkpt lat="43.336943" lon="13.2464178"><ele>333.5</ele><time>2026-03-29T14:15:57.968Z</time></trkpt><trkpt lat="43.3369141" lon="13.2463198"><ele>335.0</ele><time>2026-03-29T14:15:58.969Z</time></trkpt><trkpt lat="43.3368665" lon="13.2462605"><ele>336.5</ele><time>2026-03-29T14:16:03.975Z</time></trkpt><trkpt lat="43.3369304" lon="13.2461963"><ele>338.0</ele><time>2026-03-29T14:16:06.962Z</time></trkpt><trkpt lat="43.3370211" lon="13.2460876"><ele>339.5</ele><time>2026-03-29T14:16:08.934Z</time></trkpt><trkpt lat="43.3370803" lon="13.2460405"><ele>341.0</ele><time>2026-03-29T14:16:09.93Z</time></trkpt><trkpt lat="43.3371374" lon="13.2460019"><ele>341.0</ele><time>2026-03-29T14:16:10.973Z</time></trkpt><trkpt lat="43.3371982" lon="13.245943"><ele>341.0</ele><time>2026-03-29T14:16:12.936Z</time></trkpt><trkpt lat="43.3372846" lon="13.2459207"><ele>341.0</ele><time>2026-03-29T14:16:43.966Z</time></trkpt><trkpt lat="43.3373607" lon="13.2458817"><ele>341.0</ele><time>2026-03-29T14:16:45.964Z</time></trkpt><trkpt lat="43.3374353" lon="13.2458529"><ele>341.0</ele><time>2026-03-29T14:16:47.971Z</time></trkpt><trkpt lat="43.3374955" lon="13.2458062"><ele>341.0</ele><time>2026-03-29T14:17:03.925Z</time></trkpt><trkpt lat="43.3375602" lon="13.2457651"><ele>340.0</ele><time>2026-03-29T14:17:16.962Z</time></trkpt><trkpt lat="43.3376209" lon="13.245735"><ele>339.0</ele><time>2026-03-29T14:17:27.96Z</time></trkpt><trkpt lat="43.3376173" lon="13.2456476"><ele>338.0</ele><time>2026-03-29T14:17:31.96Z</time></trkpt><trkpt lat="43.3375932" lon="13.2455423"><ele>337.0</ele><time>2026-03-29T14:17:35.961Z</time></trkpt><trkpt lat="43.3375785" lon="13.2454509"><ele>336.0</ele><time>2026-03-29T14:17:38.958Z</time></trkpt><trkpt lat="43.3375368" lon="13.2453597"><ele>335.0</ele><time>2026-03-29T14:17:41.95Z</time></trkpt><trkpt lat="43.3375023" lon="13.2452805"><ele>334.0</ele><time>2026-03-29T14:17:43.968Z</time></trkpt><trkpt lat="43.3374799" lon="13.2451978"><ele>334.0</ele><time>2026-03-29T14:17:45.97Z</time></trkpt><trkpt lat="43.3374679" lon="13.2451092"><ele>334.0</ele><time>2026-03-29T14:17:47.946Z</time></trkpt><trkpt lat="43.3374299" lon="13.2450241"><ele>334.0</ele><time>2026-03-29T14:17:50.944Z</time></trkpt><trkpt lat="43.3374084" lon="13.2449371"><ele>334.0</ele><time>2026-03-29T14:17:53.945Z</time></trkpt><trkpt lat="43.3373886" lon="13.244845"><ele>334.0</ele><time>2026-03-29T14:17:56.951Z</time></trkpt><trkpt lat="43.3373708" lon="13.2447211"><ele>334.0</ele><time>2026-03-29T14:17:59.966Z</time></trkpt><trkpt lat="43.3373865" lon="13.2446093"><ele>334.57142857142856</ele><time>2026-03-29T14:18:02.929Z</time></trkpt><trkpt lat="43.3373992" lon="13.2445012"><ele>335.14285714285717</ele><time>2026-03-29T14:18:05.955Z</time></trkpt><trkpt lat="43.337414" lon="13.2444042"><ele>335.7142857142857</ele><time>2026-03-29T14:19:18.949Z</time></trkpt><trkpt lat="43.3374277" lon="13.2443173"><ele>336.2857142857143</ele><time>2026-03-29T14:19:42.943Z</time></trkpt><trkpt lat="43.3374379" lon="13.2442147"><ele>336.85714285714283</ele><time>2026-03-29T14:19:48.959Z</time></trkpt><trkpt lat="43.3374842" lon="13.2441372"><ele>337.42857142857144</ele><time>2026-03-29T14:20:07.945Z</time></trkpt><trkpt lat="43.3375399" lon="13.2440919"><ele>338.0</ele><time>2026-03-29T14:20:15.935Z</time></trkpt><trkpt lat="43.3375743" lon="13.2440159"><ele>338.0</ele><time>2026-03-29T14:21:09.952Z</time></trkpt><trkpt lat="43.3376394" lon="13.243989"><ele>338.0</ele><time>2026-03-29T14:21:15.967Z</time></trkpt><trkpt lat="43.3376998" lon="13.2439439"><ele>338.0</ele><time>2026-03-29T14:21:33.952Z</time></trkpt><trkpt lat="43.3377467" lon="13.2438791"><ele>338.0</ele><time>2026-03-29T14:21:39.938Z</time></trkpt><trkpt lat="43.3378145" lon="13.2438217"><ele>338.0</ele><time>2026-03-29T14:21:43.968Z</time></trkpt><trkpt lat="43.3378892" lon="13.243777"><ele>338.0</ele><time>2026-03-29T14:21:46.957Z</time></trkpt><trkpt lat="43.3379357" lon="13.2437078"><ele>338.0</ele><time>2026-03-29T14:21:49.931Z</time></trkpt><trkpt lat="43.3379719" lon="13.2436296"><ele>337.83333333333337</ele><time>2026-03-29T14:21:54.952Z</time></trkpt><trkpt lat="43.3380276" lon="13.2435333"><ele>337.6666666666667</ele><time>2026-03-29T14:22:44.961Z</time></trkpt><trkpt lat="43.3379916" lon="13.2434534"><ele>337.5</ele><time>2026-03-29T14:23:24.964Z</time></trkpt><trkpt lat="43.337988" lon="13.2433491"><ele>337.3333333333333</ele><time>2026-03-29T14:25:24.943Z</time></trkpt><trkpt lat="43.3379558" lon="13.2432605"><ele>337.16666666666663</ele><time>2026-03-29T14:29:40.964Z</time></trkpt><trkpt lat="43.3379349" lon="13.2431659"><ele>337.0</ele><time>2026-03-29T14:29:44.957Z</time></trkpt><trkpt lat="43.3378946" lon="13.2430647"><ele>337.00000000000006</ele><time>2026-03-29T14:29:48.949Z</time></trkpt><trkpt lat="43.3378607" lon="13.2429852"><ele>337.0</ele><time>2026-03-29T14:29:51.969Z</time></trkpt><trkpt lat="43.3378419" lon="13.2428972"><ele>337.0</ele><time>2026-03-29T14:29:54.965Z</time></trkpt><trkpt lat="43.3378084" lon="13.2428231"><ele>337.0</ele><time>2026-03-29T14:29:57.966Z</time></trkpt><trkpt lat="43.3377842" lon="13.2427356"><ele>337.0</ele><time>2026-03-29T14:30:00.948Z</time></trkpt><trkpt lat="43.3377618" lon="13.2426427"><ele>337.00000000000006</ele><time>2026-03-29T14:30:03.931Z</time></trkpt><trkpt lat="43.3377553" lon="13.2425323"><ele>337.0</ele><time>2026-03-29T14:30:10.916Z</time></trkpt><trkpt lat="43.3377149" lon="13.242448"><ele>337.0</ele><time>2026-03-29T14:30:24.926Z</time></trkpt><trkpt lat="43.337684" lon="13.242361"><ele>337.0</ele><time>2026-03-29T14:30:27.94Z</time></trkpt><trkpt lat="43.3376645" lon="13.2422787"><ele>337.0</ele><time>2026-03-29T14:30:29.941Z</time></trkpt><trkpt lat="43.3376489" lon="13.2421677"><ele>337.0</ele><time>2026-03-29T14:30:32.937Z</time></trkpt><trkpt lat="43.3376627" lon="13.2420481"><ele>337.0</ele><time>2026-03-29T14:30:34.934Z</time></trkpt><trkpt lat="43.337686" lon="13.2419029"><ele>337.0</ele><time>2026-03-29T14:30:36.922Z</time></trkpt><trkpt lat="43.3376832" lon="13.2418062"><ele>337.5</ele><time>2026-03-29T14:30:37.93Z</time></trkpt><trkpt lat="43.3377" lon="13.241701"><ele>338.0</ele><time>2026-03-29T14:30:39.935Z</time></trkpt><trkpt lat="43.3377151" lon="13.2415866"><ele>338.5</ele><time>2026-03-29T14:30:42.946Z</time></trkpt><trkpt lat="43.3377229" lon="13.2414741"><ele>339.0</ele><time>2026-03-29T14:30:45.945Z</time></trkpt><trkpt lat="43.3377347" lon="13.2413885"><ele>339.5</ele><time>2026-03-29T14:30:47.955Z</time></trkpt><trkpt lat="43.3377572" lon="13.2412634"><ele>340.0</ele><time>2026-03-29T14:30:50.966Z</time></trkpt><trkpt lat="43.3377624" lon="13.2411746"><ele>341.4</ele><time>2026-03-29T14:30:52.959Z</time></trkpt><trkpt lat="43.3377848" lon="13.2410716"><ele>342.8</ele><time>2026-03-29T14:30:54.949Z</time></trkpt><trkpt lat="43.3377745" lon="13.240953"><ele>344.20000000000005</ele><time>2026-03-29T14:30:56.966Z</time></trkpt><trkpt lat="43.337757" lon="13.2408261"><ele>345.6</ele><time>2026-03-29T14:30:58.953Z</time></trkpt><trkpt lat="43.3377637" lon="13.2406712"><ele>347.0</ele><time>2026-03-29T14:31:00.961Z</time></trkpt><trkpt lat="43.3377726" lon="13.2405164"><ele>347.0</ele><time>2026-03-29T14:31:02.943Z</time></trkpt><trkpt lat="43.3377835" lon="13.2403889"><ele>347.0</ele><time>2026-03-29T14:31:04.921Z</time></trkpt><trkpt lat="43.3378234" lon="13.2402438"><ele>347.0</ele><time>2026-03-29T14:31:06.961Z</time></trkpt><trkpt lat="43.3378515" lon="13.2400936"><ele>347.0</ele><time>2026-03-29T14:31:08.96Z</time></trkpt><trkpt lat="43.3378349" lon="13.2400052"><ele>347.0</ele><time>2026-03-29T14:31:11.955Z</time></trkpt><trkpt lat="43.3378258" lon="13.2399118"><ele>347.0</ele><time>2026-03-29T14:31:19.931Z</time></trkpt><trkpt lat="43.3378027" lon="13.2398232"><ele>347.0</ele><time>2026-03-29T14:31:23.964Z</time></trkpt><trkpt lat="43.337785" lon="13.2397038"><ele>347.0</ele><time>2026-03-29T14:31:26.946Z</time></trkpt><trkpt lat="43.3377678" lon="13.2396171"><ele>347.0</ele><time>2026-03-29T14:38:22.949Z</time></trkpt><trkpt lat="43.3377489" lon="13.2395035"><ele>347.0</ele><time>2026-03-29T14:38:26.909Z</time></trkpt><trkpt lat="43.3377313" lon="13.2394109"><ele>347.0</ele><time>2026-03-29T14:38:30.957Z</time></trkpt><trkpt lat="43.3377283" lon="13.2392942"><ele>347.0</ele><time>2026-03-29T14:38:32.955Z</time></trkpt><trkpt lat="43.3377054" lon="13.2392005"><ele>347.0</ele><time>2026-03-29T14:38:34.969Z</time></trkpt><trkpt lat="43.3376272" lon="13.2390895"><ele>347.0</ele><time>2026-03-29T14:38:36.964Z</time></trkpt><trkpt lat="43.3375791" lon="13.2390297"><ele>347.0</ele><time>2026-03-29T14:38:37.969Z</time></trkpt><trkpt lat="43.3375399" lon="13.238951"><ele>347.0</ele><time>2026-03-29T14:38:38.976Z</time></trkpt><trkpt lat="43.3375234" lon="13.2388522"><ele>347.0</ele><time>2026-03-29T14:38:39.959Z</time></trkpt><trkpt lat="43.3375296" lon="13.2387525"><ele>347.6</ele><time>2026-03-29T14:38:40.95Z</time></trkpt><trkpt lat="43.3375598" lon="13.2386416"><ele>348.20000000000005</ele><time>2026-03-29T14:38:41.927Z</time></trkpt><trkpt lat="43.337598" lon="13.2385225"><ele>348.8</ele><time>2026-03-29T14:38:42.961Z</time></trkpt><trkpt lat="43.3376232" lon="13.2384045"><ele>349.4</ele><time>2026-03-29T14:38:43.96Z</time></trkpt><trkpt lat="43.3376149" lon="13.2382574"><ele>350.0</ele><time>2026-03-29T14:38:44.982Z</time></trkpt><trkpt lat="43.3375702" lon="13.2381035"><ele>351.4</ele><time>2026-03-29T14:38:45.948Z</time></trkpt><trkpt lat="43.3375374" lon="13.2379491"><ele>352.8</ele><time>2026-03-29T14:38:46.973Z</time></trkpt><trkpt lat="43.3375189" lon="13.2378033"><ele>354.20000000000005</ele><time>2026-03-29T14:38:47.997Z</time></trkpt><trkpt lat="43.3375014" lon="13.2376642"><ele>355.6</ele><time>2026-03-29T14:38:48.966Z</time></trkpt><trkpt lat="43.3374925" lon="13.2375692"><ele>357.0</ele><time>2026-03-29T14:38:49.981Z</time></trkpt><trkpt lat="43.3375263" lon="13.2374396"><ele>357.0</ele><time>2026-03-29T14:38:51.958Z</time></trkpt><trkpt lat="43.337604" lon="13.2373362"><ele>357.0</ele><time>2026-03-29T14:38:53.931Z</time></trkpt><trkpt lat="43.3376559" lon="13.2372666"><ele>357.0</ele><time>2026-03-29T14:38:54.943Z</time></trkpt><trkpt lat="43.3377142" lon="13.2371679"><ele>357.0</ele><time>2026-03-29T14:38:55.952Z</time></trkpt><trkpt lat="43.337766" lon="13.2370394"><ele>357.0</ele><time>2026-03-29T14:38:56.957Z</time></trkpt><trkpt lat="43.3378057" lon="13.2368977"><ele>357.6</ele><time>2026-03-29T14:38:57.979Z</time></trkpt><trkpt lat="43.3378268" lon="13.2367504"><ele>358.20000000000005</ele><time>2026-03-29T14:38:58.967Z</time></trkpt><trkpt lat="43.337843" lon="13.2366155"><ele>358.8</ele><time>2026-03-29T14:38:59.948Z</time></trkpt><trkpt lat="43.3378585" lon="13.2364852"><ele>359.4</ele><time>2026-03-29T14:39:00.95Z</time></trkpt><trkpt lat="43.3378689" lon="13.2363674"><ele>360.0</ele><time>2026-03-29T14:39:01.964Z</time></trkpt><trkpt lat="43.3378784" lon="13.2362602"><ele>360.0</ele><time>2026-03-29T14:39:02.956Z</time></trkpt><trkpt lat="43.3378981" lon="13.2361111"><ele>360.0</ele><time>2026-03-29T14:39:04.926Z</time></trkpt><trkpt lat="43.3379079" lon="13.2360082"><ele>360.0</ele><time>2026-03-29T14:39:06.939Z</time></trkpt><trkpt lat="43.3379002" lon="13.2359189"><ele>360.0</ele><time>2026-03-29T14:39:10.967Z</time></trkpt><trkpt lat="43.3378948" lon="13.2358029"><ele>360.0</ele><time>2026-03-29T14:39:12.973Z</time></trkpt><trkpt lat="43.3378731" lon="13.2356808"><ele>360.0</ele><time>2026-03-29T14:39:15.98Z</time></trkpt><trkpt lat="43.3378224" lon="13.235581"><ele>360.4</ele><time>2026-03-29T14:39:17.952Z</time></trkpt><trkpt lat="43.337755" lon="13.2354719"><ele>360.8</ele><time>2026-03-29T14:39:19.985Z</time></trkpt><trkpt lat="43.3377028" lon="13.2353423"><ele>361.20000000000005</ele><time>2026-03-29T14:39:21.981Z</time></trkpt><trkpt lat="43.3376891" lon="13.2352242"><ele>361.6</ele><time>2026-03-29T14:39:23.979Z</time></trkpt><trkpt lat="43.3376659" lon="13.2351331"><ele>362.0</ele><time>2026-03-29T14:39:25.982Z</time></trkpt><trkpt lat="43.3376649" lon="13.235005"><ele>362.0</ele><time>2026-03-29T14:40:52.988Z</time></trkpt><trkpt lat="43.3376554" lon="13.234876"><ele>362.0</ele><time>2026-03-29T14:40:55.975Z</time></trkpt><trkpt lat="43.3376617" lon="13.2347305"><ele>362.0</ele><time>2026-03-29T14:40:57.979Z</time></trkpt><trkpt lat="43.3376619" lon="13.2346431"><ele>362.0</ele><time>2026-03-29T14:40:58.981Z</time></trkpt><trkpt lat="43.3376471" lon="13.2345533"><ele>362.0</ele><time>2026-03-29T14:40:59.968Z</time></trkpt><trkpt lat="43.3376238" lon="13.2344572"><ele>362.0</ele><time>2026-03-29T14:41:00.944Z</time></trkpt><trkpt lat="43.3375898" lon="13.2343617"><ele>365.33333333333337</ele><time>2026-03-29T14:41:01.93Z</time></trkpt><trkpt lat="43.3375529" lon="13.2342638"><ele>368.6666666666667</ele><time>2026-03-29T14:41:02.957Z</time></trkpt><trkpt lat="43.3375015" lon="13.2341708"><ele>372.0</ele><time>2026-03-29T14:41:03.97Z</time></trkpt><trkpt lat="43.3374402" lon="13.2340838"><ele>375.3333333333333</ele><time>2026-03-29T14:41:04.944Z</time></trkpt><trkpt lat="43.3373714" lon="13.2339975"><ele>378.66666666666663</ele><time>2026-03-29T14:41:05.925Z</time></trkpt><trkpt lat="43.3373065" lon="13.2339066"><ele>382.0</ele><time>2026-03-29T14:41:06.966Z</time></trkpt><trkpt lat="43.3372401" lon="13.2338246"><ele>380.8</ele><time>2026-03-29T14:41:07.978Z</time></trkpt><trkpt lat="43.3371703" lon="13.2337397"><ele>379.6</ele><time>2026-03-29T14:41:08.984Z</time></trkpt><trkpt lat="43.3371095" lon="13.2336368"><ele>378.40000000000003</ele><time>2026-03-29T14:41:09.937Z</time></trkpt><trkpt lat="43.3370521" lon="13.2335172"><ele>377.20000000000005</ele><time>2026-03-29T14:41:10.969Z</time></trkpt><trkpt lat="43.3370105" lon="13.2333987"><ele>376.0</ele><time>2026-03-29T14:41:11.995Z</time></trkpt><trkpt lat="43.3369763" lon="13.2332682"><ele>376.0</ele><time>2026-03-29T14:41:12.975Z</time></trkpt><trkpt lat="43.3369419" lon="13.2331455"><ele>376.0</ele><time>2026-03-29T14:41:13.981Z</time></trkpt><trkpt lat="43.3368917" lon="13.2330443"><ele>376.0</ele><time>2026-03-29T14:41:14.968Z</time></trkpt><trkpt lat="43.3368229" lon="13.2329896"><ele>376.0</ele><time>2026-03-29T14:41:15.97Z</time></trkpt><trkpt lat="43.3367563" lon="13.232938"><ele>376.0</ele><time>2026-03-29T14:41:16.979Z</time></trkpt><trkpt lat="43.3367309" lon="13.2328582"><ele>376.0</ele><time>2026-03-29T14:41:17.982Z</time></trkpt><trkpt lat="43.336724" lon="13.2327477"><ele>380.20000000000005</ele><time>2026-03-29T14:41:18.954Z</time></trkpt><trkpt lat="43.3367234" lon="13.2326166"><ele>384.40000000000003</ele><time>2026-03-29T14:41:19.948Z</time></trkpt><trkpt lat="43.3367049" lon="13.2324819"><ele>388.6</ele><time>2026-03-29T14:41:20.967Z</time></trkpt><trkpt lat="43.3366798" lon="13.2323395"><ele>392.8</ele><time>2026-03-29T14:41:21.965Z</time></trkpt><trkpt lat="43.3366593" lon="13.2322187"><ele>397.0</ele><time>2026-03-29T14:41:22.949Z</time></trkpt><trkpt lat="43.3366359" lon="13.2321238"><ele>399.40000000000003</ele><time>2026-03-29T14:41:23.977Z</time></trkpt><trkpt lat="43.3365773" lon="13.2320026"><ele>401.8</ele><time>2026-03-29T14:41:25.94Z</time></trkpt><trkpt lat="43.3364826" lon="13.2318979"><ele>404.2</ele><time>2026-03-29T14:41:27.948Z</time></trkpt><trkpt lat="43.3364137" lon="13.2318112"><ele>406.6</ele><time>2026-03-29T14:41:29.933Z</time></trkpt><trkpt lat="43.3363382" lon="13.2317772"><ele>409.0</ele><time>2026-03-29T14:41:33.953Z</time></trkpt><trkpt lat="43.3362488" lon="13.2318028"><ele>409.00000000000006</ele><time>2026-03-29T14:41:35.961Z</time></trkpt><trkpt lat="43.3361465" lon="13.2318215"><ele>409.0</ele><time>2026-03-29T14:41:37.937Z</time></trkpt><trkpt lat="43.3360626" lon="13.2317816"><ele>409.0</ele><time>2026-03-29T14:41:39.954Z</time></trkpt><trkpt lat="43.3360443" lon="13.2316853"><ele>409.0</ele><time>2026-03-29T14:41:41.937Z</time></trkpt><trkpt lat="43.3360997" lon="13.2316034"><ele>409.00000000000006</ele><time>2026-03-29T14:41:43.945Z</time></trkpt><trkpt lat="43.3361744" lon="13.231604"><ele>409.0</ele><time>2026-03-29T14:41:45.947Z</time></trkpt><trkpt lat="43.3362514" lon="13.2315589"><ele>415.79999999999995</ele><time>2026-03-29T14:41:47.965Z</time></trkpt><trkpt lat="43.3362614" lon="13.2314714"><ele>422.59999999999997</ele><time>2026-03-29T14:41:50.923Z</time></trkpt><trkpt lat="43.3362136" lon="13.2313741"><ele>429.4</ele><time>2026-03-29T14:41:52.994Z</time></trkpt><trkpt lat="43.3361559" lon="13.2312692"><ele>436.2</ele><time>2026-03-29T14:41:54.936Z</time></trkpt><trkpt lat="43.3360603" lon="13.2311779"><ele>443.0</ele><time>2026-03-29T14:41:56.979Z</time></trkpt><trkpt lat="43.3359424" lon="13.2310885"><ele>442.99999999999994</ele><time>2026-03-29T14:41:58.993Z</time></trkpt><trkpt lat="43.3358779" lon="13.2310533"><ele>443.0</ele><time>2026-03-29T14:41:59.96Z</time></trkpt><trkpt lat="43.335809" lon="13.2310171"><ele>443.0</ele><time>2026-03-29T14:42:00.94Z</time></trkpt><trkpt lat="43.3357378" lon="13.2309896"><ele>443.0</ele><time>2026-03-29T14:42:01.99Z</time></trkpt><trkpt lat="43.3356655" lon="13.2309602"><ele>442.99999999999994</ele><time>2026-03-29T14:42:02.95Z</time></trkpt><trkpt lat="43.3355912" lon="13.2309212"><ele>443.0</ele><time>2026-03-29T14:42:03.976Z</time></trkpt><trkpt lat="43.3355021" lon="13.2308807"><ele>443.75</ele><time>2026-03-29T14:42:04.97Z</time></trkpt><trkpt lat="43.3353904" lon="13.2308422"><ele>444.5</ele><time>2026-03-29T14:42:05.927Z</time></trkpt><trkpt lat="43.3352822" lon="13.2308069"><ele>445.25</ele><time>2026-03-29T14:42:06.972Z</time></trkpt><trkpt lat="43.3351728" lon="13.2307684"><ele>446.0</ele><time>2026-03-29T14:42:07.945Z</time></trkpt><trkpt lat="43.3350579" lon="13.2307264"><ele>446.0</ele><time>2026-03-29T14:42:08.97Z</time></trkpt><trkpt lat="43.3349536" lon="13.230678"><ele>446.0</ele><time>2026-03-29T14:42:09.961Z</time></trkpt><trkpt lat="43.3348506" lon="13.2306326"><ele>446.0</ele><time>2026-03-29T14:42:10.974Z</time></trkpt><trkpt lat="43.334746" lon="13.2305923"><ele>446.0</ele><time>2026-03-29T14:42:11.977Z</time></trkpt><trkpt lat="43.3346368" lon="13.2305596"><ele>446.0</ele><time>2026-03-29T14:42:12.95Z</time></trkpt><trkpt lat="43.3345293" lon="13.2305328"><ele>455.8</ele><time>2026-03-29T14:42:13.98Z</time></trkpt><trkpt lat="43.3344179" lon="13.2305088"><ele>465.6</ele><time>2026-03-29T14:42:14.951Z</time></trkpt><trkpt lat="43.3343078" lon="13.2304974"><ele>475.4</ele><time>2026-03-29T14:42:15.989Z</time></trkpt><trkpt lat="43.3342082" lon="13.2304958"><ele>485.2</ele><time>2026-03-29T14:42:16.943Z</time></trkpt><trkpt lat="43.3341245" lon="13.2305138"><ele>495.0</ele><time>2026-03-29T14:42:17.966Z</time></trkpt><trkpt lat="43.3340415" lon="13.2305534"><ele>495.0</ele><time>2026-03-29T14:42:19.984Z</time></trkpt><trkpt lat="43.3339687" lon="13.2305648"><ele>495.0</ele><time>2026-03-29T14:42:22.959Z</time></trkpt><trkpt lat="43.3340057" lon="13.230491"><ele>495.0</ele><time>2026-03-29T14:42:26.965Z</time></trkpt><trkpt lat="43.3340826" lon="13.2304875"><ele>495.0</ele><time>2026-03-29T14:42:28.964Z</time></trkpt><trkpt lat="43.3341658" lon="13.2304498"><ele>495.0</ele><time>2026-03-29T14:42:30.962Z</time></trkpt><trkpt lat="43.3342748" lon="13.2303803"><ele>495.0</ele><time>2026-03-29T14:42:32.962Z</time></trkpt><trkpt lat="43.3343334" lon="13.2303402"><ele>495.0</ele><time>2026-03-29T14:42:33.961Z</time></trkpt><trkpt lat="43.3344058" lon="13.2303023"><ele>495.0</ele><time>2026-03-29T14:42:34.984Z</time></trkpt><trkpt lat="43.3344926" lon="13.2302668"><ele>495.0</ele><time>2026-03-29T14:42:35.981Z</time></trkpt><trkpt lat="43.334594" lon="13.2302294"><ele>495.0</ele><time>2026-03-29T14:42:36.963Z</time></trkpt><trkpt lat="43.3347055" lon="13.2302009"><ele>495.0</ele><time>2026-03-29T14:42:37.959Z</time></trkpt><trkpt lat="43.3348216" lon="13.2301473"><ele>492.75</ele><time>2026-03-29T14:42:38.939Z</time></trkpt><trkpt lat="43.3349475" lon="13.2300803"><ele>490.5</ele><time>2026-03-29T14:42:39.972Z</time></trkpt><trkpt lat="43.3350719" lon="13.2300055"><ele>488.25</ele><time>2026-03-29T14:42:40.985Z</time></trkpt><trkpt lat="43.335179" lon="13.2299477"><ele>486.0</ele><time>2026-03-29T14:42:41.939Z</time></trkpt><trkpt lat="43.3352731" lon="13.2298812"><ele>491.0</ele><time>2026-03-29T14:42:42.973Z</time></trkpt><trkpt lat="43.3353659" lon="13.2298052"><ele>496.0</ele><time>2026-03-29T14:42:43.977Z</time></trkpt><trkpt lat="43.3354491" lon="13.2297369"><ele>501.0</ele><time>2026-03-29T14:42:44.952Z</time></trkpt><trkpt lat="43.3355137" lon="13.2297024"><ele>506.0</ele><time>2026-03-29T14:42:45.964Z</time></trkpt><trkpt lat="43.3355829" lon="13.2296718"><ele>511.0</ele><time>2026-03-29T14:42:46.94Z</time></trkpt><trkpt lat="43.3356473" lon="13.2296382"><ele>516.0</ele><time>2026-03-29T14:42:47.965Z</time></trkpt><trkpt lat="43.335702" lon="13.2295807"><ele>516.0</ele><time>2026-03-29T14:42:48.965Z</time></trkpt><trkpt lat="43.3357521" lon="13.2295065"><ele>516.0</ele><time>2026-03-29T14:42:49.949Z</time></trkpt><trkpt lat="43.3358185" lon="13.2294373"><ele>516.0</ele><time>2026-03-29T14:42:50.985Z</time></trkpt><trkpt lat="43.3359048" lon="13.2293756"><ele>516.0</ele><time>2026-03-29T14:42:51.965Z</time></trkpt><trkpt lat="43.3359979" lon="13.2293311"><ele>516.0</ele><time>2026-03-29T14:42:52.961Z</time></trkpt><trkpt lat="43.3360802" lon="13.2292994"><ele>516.0</ele><time>2026-03-29T14:42:53.967Z</time></trkpt><trkpt lat="43.336159" lon="13.2292749"><ele>516.0</ele><time>2026-03-29T14:42:54.986Z</time></trkpt><trkpt lat="43.3362439" lon="13.2292812"><ele>516.0</ele><time>2026-03-29T14:42:55.955Z</time></trkpt><trkpt lat="43.336331" lon="13.2293083"><ele>516.0</ele><time>2026-03-29T14:42:56.97Z</time></trkpt><trkpt lat="43.3364264" lon="13.229377"><ele>516.0</ele><time>2026-03-29T14:42:57.923Z</time></trkpt><trkpt lat="43.3365215" lon="13.2294578"><ele>516.0</ele><time>2026-03-29T14:42:58.962Z</time></trkpt><trkpt lat="43.3366231" lon="13.2295184"><ele>517.6666666666666</ele><time>2026-03-29T14:42:59.981Z</time></trkpt><trkpt lat="43.3367056" lon="13.2295565"><ele>519.3333333333334</ele><time>2026-03-29T14:43:00.955Z</time></trkpt><trkpt lat="43.3367677" lon="13.229571"><ele>521.0</ele><time>2026-03-29T14:43:01.944Z</time></trkpt><trkpt lat="43.3368344" lon="13.2295532"><ele>522.6666666666667</ele><time>2026-03-29T14:43:02.976Z</time></trkpt><trkpt lat="43.336945" lon="13.229481"><ele>524.3333333333334</ele><time>2026-03-29T14:43:04.953Z</time></trkpt><trkpt lat="43.3370019" lon="13.2294376"><ele>526.0</ele><time>2026-03-29T14:43:05.928Z</time></trkpt><trkpt lat="43.3370663" lon="13.2294027"><ele>526.0</ele><time>2026-03-29T14:43:06.965Z</time></trkpt><trkpt lat="43.3371492" lon="13.2293373"><ele>526.0</ele><time>2026-03-29T14:43:07.939Z</time></trkpt><trkpt lat="43.3372404" lon="13.2292669"><ele>526.0</ele><time>2026-03-29T14:43:08.932Z</time></trkpt><trkpt lat="43.3373382" lon="13.2291975"><ele>526.0</ele><time>2026-03-29T14:43:09.964Z</time></trkpt><trkpt lat="43.3374396" lon="13.229121"><ele>526.0</ele><time>2026-03-29T14:43:10.986Z</time></trkpt><trkpt lat="43.3375378" lon="13.2290494"><ele>527.8</ele><time>2026-03-29T14:43:11.972Z</time></trkpt><trkpt lat="43.3376317" lon="13.2289837"><ele>529.6</ele><time>2026-03-29T14:43:12.977Z</time></trkpt><trkpt lat="43.337725" lon="13.2289259"><ele>531.4</ele><time>2026-03-29T14:43:13.962Z</time></trkpt><trkpt lat="43.3378168" lon="13.2288502"><ele>533.2</ele><time>2026-03-29T14:43:14.97Z</time></trkpt><trkpt lat="43.3378993" lon="13.2287663"><ele>535.0</ele><time>2026-03-29T14:43:15.98Z</time></trkpt><trkpt lat="43.337965" lon="13.2286987"><ele>538.8333333333334</ele><time>2026-03-29T14:43:16.957Z</time></trkpt><trkpt lat="43.3380159" lon="13.2286347"><ele>542.6666666666667</ele><time>2026-03-29T14:43:17.986Z</time></trkpt><trkpt lat="43.338065" lon="13.2285723"><ele>546.5</ele><time>2026-03-29T14:43:18.965Z</time></trkpt><trkpt lat="43.3381126" lon="13.2284822"><ele>550.3333333333334</ele><time>2026-03-29T14:43:19.94Z</time></trkpt><trkpt lat="43.3381671" lon="13.2283771"><ele>554.1666666666666</ele><time>2026-03-29T14:43:20.982Z</time></trkpt><trkpt lat="43.3382133" lon="13.2282646"><ele>558.0</ele><time>2026-03-29T14:43:21.983Z</time></trkpt><trkpt lat="43.3382415" lon="13.2281353"><ele>562.0</ele><time>2026-03-29T14:43:22.983Z</time></trkpt><trkpt lat="43.3382535" lon="13.2280114"><ele>566.0</ele><time>2026-03-29T14:43:23.978Z</time></trkpt><trkpt lat="43.338274" lon="13.227929"><ele>570.0</ele><time>2026-03-29T14:43:24.97Z</time></trkpt><trkpt lat="43.3383552" lon="13.2278206"><ele>574.0</ele><time>2026-03-29T14:43:26.993Z</time></trkpt><trkpt lat="43.338446" lon="13.2277577"><ele>578.0</ele><time>2026-03-29T14:43:29.002Z</time></trkpt><trkpt lat="43.3385504" lon="13.2278522"><ele>578.0</ele><time>2026-03-29T14:43:30.962Z</time></trkpt><trkpt lat="43.3386365" lon="13.2279672"><ele>578.0</ele><time>2026-03-29T14:43:31.993Z</time></trkpt><trkpt lat="43.3387286" lon="13.2280792"><ele>578.0</ele><time>2026-03-29T14:43:32.985Z</time></trkpt><trkpt lat="43.3388098" lon="13.2282156"><ele>578.0</ele><time>2026-03-29T14:43:33.977Z</time></trkpt><trkpt lat="43.3388668" lon="13.22836"><ele>578.8</ele><time>2026-03-29T14:43:34.966Z</time></trkpt><trkpt lat="43.3389183" lon="13.2285094"><ele>579.5999999999999</ele><time>2026-03-29T14:43:35.99Z</time></trkpt><trkpt lat="43.3389681" lon="13.2286396"><ele>580.4000000000001</ele><time>2026-03-29T14:43:36.974Z</time></trkpt><trkpt lat="43.3390212" lon="13.2287365"><ele>581.2</ele><time>2026-03-29T14:43:37.974Z</time></trkpt><trkpt lat="43.339083" lon="13.2288142"><ele>582.0</ele><time>2026-03-29T14:43:38.98Z</time></trkpt><trkpt lat="43.3391516" lon="13.2288802"><ele>582.0</ele><time>2026-03-29T14:43:39.978Z</time></trkpt><trkpt lat="43.339221" lon="13.2289531"><ele>582.0</ele><time>2026-03-29T14:43:40.973Z</time></trkpt><trkpt lat="43.3392754" lon="13.2290405"><ele>582.0</ele><time>2026-03-29T14:43:41.989Z</time></trkpt><trkpt lat="43.3393199" lon="13.2291385"><ele>582.0</ele><time>2026-03-29T14:43:42.972Z</time></trkpt><trkpt lat="43.339362" lon="13.2292439"><ele>582.0</ele><time>2026-03-29T14:43:43.969Z</time></trkpt><trkpt lat="43.3394098" lon="13.2293509"><ele>582.0</ele><time>2026-03-29T14:43:44.983Z</time></trkpt><trkpt lat="43.3394704" lon="13.2294634"><ele>583.8000000000001</ele><time>2026-03-29T14:43:45.945Z</time></trkpt><trkpt lat="43.3395343" lon="13.2295801"><ele>585.6</ele><time>2026-03-29T14:43:46.975Z</time></trkpt><trkpt lat="43.3396015" lon="13.2296959"><ele>587.4000000000001</ele><time>2026-03-29T14:43:47.925Z</time></trkpt><trkpt lat="43.3396665" lon="13.2298144"><ele>589.2</ele><time>2026-03-29T14:43:48.978Z</time></trkpt><trkpt lat="43.3397353" lon="13.2299341"><ele>591.0</ele><time>2026-03-29T14:43:49.973Z</time></trkpt><trkpt lat="43.3397996" lon="13.2300507"><ele>591.0</ele><time>2026-03-29T14:43:50.966Z</time></trkpt><trkpt lat="43.3398569" lon="13.230177"><ele>591.0</ele><time>2026-03-29T14:43:51.979Z</time></trkpt><trkpt lat="43.3399048" lon="13.2303004"><ele>591.0</ele><time>2026-03-29T14:43:52.964Z</time></trkpt><trkpt lat="43.3399503" lon="13.2304125"><ele>591.0</ele><time>2026-03-29T14:43:53.98Z</time></trkpt><trkpt lat="43.3399969" lon="13.2305078"><ele>591.0</ele><time>2026-03-29T14:43:54.978Z</time></trkpt><trkpt lat="43.3400414" lon="13.230592"><ele>588.6</ele><time>2026-03-29T14:43:55.973Z</time></trkpt><trkpt lat="43.3400822" lon="13.2306836"><ele>586.2</ele><time>2026-03-29T14:43:56.944Z</time></trkpt><trkpt lat="43.3401272" lon="13.2307984"><ele>583.8</ele><time>2026-03-29T14:43:57.96Z</time></trkpt><trkpt lat="43.3401797" lon="13.2309192"><ele>581.4</ele><time>2026-03-29T14:43:58.985Z</time></trkpt><trkpt lat="43.3402366" lon="13.231047"><ele>579.0</ele><time>2026-03-29T14:43:59.951Z</time></trkpt><trkpt lat="43.3402968" lon="13.2311771"><ele>579.0</ele><time>2026-03-29T14:44:00.937Z</time></trkpt><trkpt lat="43.3403613" lon="13.2313108"><ele>579.0</ele><time>2026-03-29T14:44:01.97Z</time></trkpt><trkpt lat="43.3404249" lon="13.2314453"><ele>579.0</ele><time>2026-03-29T14:44:02.929Z</time></trkpt><trkpt lat="43.3404923" lon="13.2315783"><ele>579.0</ele><time>2026-03-29T14:44:03.963Z</time></trkpt><trkpt lat="43.3405594" lon="13.2317086"><ele>584.0</ele><time>2026-03-29T14:44:04.971Z</time></trkpt><trkpt lat="43.3406292" lon="13.2318419"><ele>589.0</ele><time>2026-03-29T14:44:05.928Z</time></trkpt><trkpt lat="43.3406987" lon="13.2319709"><ele>594.0</ele><time>2026-03-29T14:44:06.953Z</time></trkpt><trkpt lat="43.3407637" lon="13.2320952"><ele>599.0</ele><time>2026-03-29T14:44:07.962Z</time></trkpt><trkpt lat="43.3408294" lon="13.232208"><ele>595.5</ele><time>2026-03-29T14:44:08.967Z</time></trkpt><trkpt lat="43.3408916" lon="13.2323284"><ele>592.0</ele><time>2026-03-29T14:44:09.979Z</time></trkpt><trkpt lat="43.3409581" lon="13.2324517"><ele>588.5</ele><time>2026-03-29T14:44:10.958Z</time></trkpt><trkpt lat="43.3410291" lon="13.2325825"><ele>585.0</ele><time>2026-03-29T14:44:11.969Z</time></trkpt><trkpt lat="43.3410961" lon="13.232734"><ele>585.0</ele><time>2026-03-29T14:44:12.945Z</time></trkpt><trkpt lat="43.3411598" lon="13.232895"><ele>585.0</ele><time>2026-03-29T14:44:13.971Z</time></trkpt><trkpt lat="43.3412248" lon="13.2330513"><ele>585.0</ele><time>2026-03-29T14:44:14.986Z</time></trkpt><trkpt lat="43.341293" lon="13.2332139"><ele>585.0</ele><time>2026-03-29T14:44:15.955Z</time></trkpt><trkpt lat="43.3413675" lon="13.2333809"><ele>588.4</ele><time>2026-03-29T14:44:16.968Z</time></trkpt><trkpt lat="43.3414239" lon="13.2335208"><ele>591.8</ele><time>2026-03-29T14:44:17.983Z</time></trkpt><trkpt lat="43.3414568" lon="13.2336337"><ele>595.2</ele><time>2026-03-29T14:44:18.968Z</time></trkpt><trkpt lat="43.3414964" lon="13.2337661"><ele>598.6</ele><time>2026-03-29T14:44:20.971Z</time></trkpt><trkpt lat="43.3415241" lon="13.2338465"><ele>602.0</ele><time>2026-03-29T14:44:21.959Z</time></trkpt><trkpt lat="43.3415581" lon="13.2339429"><ele>599.4</ele><time>2026-03-29T14:44:22.98Z</time></trkpt><trkpt lat="43.3415937" lon="13.2340373"><ele>596.8000000000001</ele><time>2026-03-29T14:44:23.983Z</time></trkpt><trkpt lat="43.3416395" lon="13.23415"><ele>594.2</ele><time>2026-03-29T14:44:24.973Z</time></trkpt><trkpt lat="43.3416954" lon="13.2342753"><ele>591.6</ele><time>2026-03-29T14:44:25.968Z</time></trkpt><trkpt lat="43.3417523" lon="13.2344078"><ele>589.0</ele><time>2026-03-29T14:44:26.986Z</time></trkpt><trkpt lat="43.3418068" lon="13.2345436"><ele>589.0</ele><time>2026-03-29T14:44:27.975Z</time></trkpt><trkpt lat="43.3418638" lon="13.2346841"><ele>589.0</ele><time>2026-03-29T14:44:28.991Z</time></trkpt><trkpt lat="43.3419218" lon="13.2348256"><ele>589.0</ele><time>2026-03-29T14:44:29.971Z</time></trkpt><trkpt lat="43.3419837" lon="13.2349681"><ele>589.0</ele><time>2026-03-29T14:44:30.931Z</time></trkpt><trkpt lat="43.3420333" lon="13.2350974"><ele>587.2</ele><time>2026-03-29T14:44:31.933Z</time></trkpt><trkpt lat="43.3420684" lon="13.2352158"><ele>585.4</ele><time>2026-03-29T14:44:32.935Z</time></trkpt><trkpt lat="43.3421104" lon="13.2353352"><ele>583.6</ele><time>2026-03-29T14:44:33.973Z</time></trkpt><trkpt lat="43.3421459" lon="13.2354614"><ele>581.8</ele><time>2026-03-29T14:44:34.965Z</time></trkpt><trkpt lat="43.3421753" lon="13.2355789"><ele>580.0</ele><time>2026-03-29T14:44:35.952Z</time></trkpt><trkpt lat="43.3421966" lon="13.235688"><ele>584.4</ele><time>2026-03-29T14:44:36.939Z</time></trkpt><trkpt lat="43.3422371" lon="13.2358293"><ele>588.8</ele><time>2026-03-29T14:44:38.967Z</time></trkpt><trkpt lat="43.3422558" lon="13.2359292"><ele>593.2</ele><time>2026-03-29T14:44:41.948Z</time></trkpt><trkpt lat="43.3422805" lon="13.2360573"><ele>597.6</ele><time>2026-03-29T14:47:27.954Z</time></trkpt><trkpt lat="43.3423615" lon="13.2362206"><ele>602.0</ele><time>2026-03-29T14:47:29.988Z</time></trkpt><trkpt lat="43.3424063" lon="13.236322"><ele>602.0</ele><time>2026-03-29T14:47:30.96Z</time></trkpt><trkpt lat="43.3424501" lon="13.2364494"><ele>602.0</ele><time>2026-03-29T14:47:31.987Z</time></trkpt><trkpt lat="43.3425002" lon="13.2365872"><ele>602.0</ele><time>2026-03-29T14:47:32.968Z</time></trkpt><trkpt lat="43.3425444" lon="13.2367095"><ele>602.0</ele><time>2026-03-29T14:47:33.982Z</time></trkpt><trkpt lat="43.3425874" lon="13.2368281"><ele>602.0</ele><time>2026-03-29T14:47:34.991Z</time></trkpt><trkpt lat="43.3426255" lon="13.2369365"><ele>601.1666666666666</ele><time>2026-03-29T14:47:35.967Z</time></trkpt><trkpt lat="43.3426609" lon="13.2370297"><ele>600.3333333333333</ele><time>2026-03-29T14:47:36.987Z</time></trkpt><trkpt lat="43.3426973" lon="13.2371109"><ele>599.5</ele><time>2026-03-29T14:47:37.989Z</time></trkpt><trkpt lat="43.3427353" lon="13.2371829"><ele>598.6666666666666</ele><time>2026-03-29T14:47:38.983Z</time></trkpt><trkpt lat="43.3427937" lon="13.2373037"><ele>597.8333333333334</ele><time>2026-03-29T14:47:40.965Z</time></trkpt><trkpt lat="43.3428451" lon="13.2374519"><ele>597.0</ele><time>2026-03-29T14:47:43.018Z</time></trkpt><trkpt lat="43.3428832" lon="13.2375755"><ele>595.6666666666666</ele><time>2026-03-29T14:47:45.001Z</time></trkpt><trkpt lat="43.3429155" lon="13.2376644"><ele>594.3333333333334</ele><time>2026-03-29T14:47:46.996Z</time></trkpt><trkpt lat="43.3429859" lon="13.2377526"><ele>593.0</ele><time>2026-03-29T14:50:20.941Z</time></trkpt><trkpt lat="43.3430275" lon="13.2376828"><ele>591.6666666666667</ele><time>2026-03-29T14:50:22.987Z</time></trkpt><trkpt lat="43.3429686" lon="13.2376416"><ele>590.3333333333334</ele><time>2026-03-29T14:50:25.965Z</time></trkpt><trkpt lat="43.3429199" lon="13.2375627"><ele>589.0</ele><time>2026-03-29T14:50:28.942Z</time></trkpt><trkpt lat="43.3429528" lon="13.2374404"><ele>590.3333333333334</ele><time>2026-03-29T14:50:30.967Z</time></trkpt><trkpt lat="43.342982" lon="13.2372951"><ele>591.6666666666667</ele><time>2026-03-29T14:50:32.94Z</time></trkpt><trkpt lat="43.3429959" lon="13.2371368"><ele>593.0</ele><time>2026-03-29T14:50:35.004Z</time></trkpt><trkpt lat="43.3429863" lon="13.2370388"><ele>594.3333333333334</ele><time>2026-03-29T14:50:35.991Z</time></trkpt><trkpt lat="43.3429757" lon="13.2369504"><ele>595.6666666666666</ele><time>2026-03-29T14:50:36.984Z</time></trkpt><trkpt lat="43.3429621" lon="13.236858"><ele>597.0</ele><time>2026-03-29T14:50:37.976Z</time></trkpt><trkpt lat="43.3429496" lon="13.2367706"><ele>597.0</ele><time>2026-03-29T14:50:38.963Z</time></trkpt><trkpt lat="43.3429217" lon="13.2366204"><ele>597.0</ele><time>2026-03-29T14:50:40.955Z</time></trkpt><trkpt lat="43.3429184" lon="13.236523"><ele>597.0</ele><time>2026-03-29T14:50:42.978Z</time></trkpt><trkpt lat="43.3429483" lon="13.2364235"><ele>597.0</ele><time>2026-03-29T14:50:45.998Z</time></trkpt><trkpt lat="43.3430053" lon="13.2363422"><ele>597.0</ele><time>2026-03-29T14:50:50.984Z</time></trkpt><trkpt lat="43.3430511" lon="13.236245"><ele>597.0</ele><time>2026-03-29T14:50:52.989Z</time></trkpt><trkpt lat="43.3431044" lon="13.2361547"><ele>600.8333333333334</ele><time>2026-03-29T14:50:54.94Z</time></trkpt><trkpt lat="43.3431567" lon="13.2360886"><ele>604.6666666666666</ele><time>2026-03-29T14:50:56.979Z</time></trkpt><trkpt lat="43.3432157" lon="13.2360497"><ele>608.5</ele><time>2026-03-29T14:50:58.992Z</time></trkpt><trkpt lat="43.3432979" lon="13.2360118"><ele>612.3333333333333</ele><time>2026-03-29T14:51:01.967Z</time></trkpt><trkpt lat="43.3433682" lon="13.2359735"><ele>616.1666666666666</ele><time>2026-03-29T14:51:03.977Z</time></trkpt><trkpt lat="43.3434459" lon="13.2359259"><ele>620.0</ele><time>2026-03-29T14:51:05.961Z</time></trkpt><trkpt lat="43.3435475" lon="13.2359089"><ele>620.0</ele><time>2026-03-29T14:51:07.925Z</time></trkpt><trkpt lat="43.3436488" lon="13.2358555"><ele>620.0</ele><time>2026-03-29T14:51:09.999Z</time></trkpt><trkpt lat="43.3437382" lon="13.2357624"><ele>620.0</ele><time>2026-03-29T14:51:11.976Z</time></trkpt><trkpt lat="43.3437518" lon="13.2356291"><ele>620.0</ele><time>2026-03-29T14:51:13.966Z</time></trkpt><trkpt lat="43.3437357" lon="13.2355389"><ele>620.0</ele><time>2026-03-29T14:51:15.988Z</time></trkpt><trkpt lat="43.3437754" lon="13.2354139"><ele>621.8333333333333</ele><time>2026-03-29T14:51:18.966Z</time></trkpt><trkpt lat="43.3437868" lon="13.2353083"><ele>623.6666666666666</ele><time>2026-03-29T14:51:20.963Z</time></trkpt><trkpt lat="43.3438394" lon="13.2352249"><ele>625.5</ele><time>2026-03-29T14:51:22.978Z</time></trkpt><trkpt lat="43.343927" lon="13.2352086"><ele>627.3333333333334</ele><time>2026-03-29T14:51:24.979Z</time></trkpt><trkpt lat="43.3440094" lon="13.235159"><ele>629.1666666666667</ele><time>2026-03-29T14:51:26.985Z</time></trkpt><trkpt lat="43.3440405" lon="13.2350328"><ele>631.0</ele><time>2026-03-29T14:51:29.013Z</time></trkpt><trkpt lat="43.3440442" lon="13.2348764"><ele>635.6</ele><time>2026-03-29T14:51:30.992Z</time></trkpt><trkpt lat="43.3440531" lon="13.2347368"><ele>640.2</ele><time>2026-03-29T14:51:32.984Z</time></trkpt><trkpt lat="43.3440639" lon="13.2346268"><ele>644.8000000000001</ele><time>2026-03-29T14:51:34.976Z</time></trkpt><trkpt lat="43.3440777" lon="13.234507"><ele>649.4000000000001</ele><time>2026-03-29T14:51:36.958Z</time></trkpt><trkpt lat="43.3440948" lon="13.2343775"><ele>654.0</ele><time>2026-03-29T14:51:38.977Z</time></trkpt><trkpt lat="43.3441135" lon="13.2342588"><ele>654.0</ele><time>2026-03-29T14:51:40.961Z</time></trkpt><trkpt lat="43.3441109" lon="13.2341479"><ele>654.0</ele><time>2026-03-29T14:51:42.965Z</time></trkpt><trkpt lat="43.3441114" lon="13.2340329"><ele>654.0</ele><time>2026-03-29T14:51:44.947Z</time></trkpt><trkpt lat="43.3441153" lon="13.233876"><ele>654.0</ele><time>2026-03-29T14:51:46.952Z</time></trkpt><trkpt lat="43.3441553" lon="13.2337578"><ele>654.0</ele><time>2026-03-29T14:51:48.954Z</time></trkpt><trkpt lat="43.3441775" lon="13.2336702"><ele>654.0</ele><time>2026-03-29T14:51:49.956Z</time></trkpt><trkpt lat="43.3441916" lon="13.2334965"><ele>655.8571428571429</ele><time>2026-03-29T14:51:52.001Z</time></trkpt><trkpt lat="43.3441919" lon="13.2333878"><ele>657.7142857142858</ele><time>2026-03-29T14:51:52.951Z</time></trkpt><trkpt lat="43.3441819" lon="13.2332894"><ele>659.5714285714287</ele><time>2026-03-29T14:51:53.986Z</time></trkpt><trkpt lat="43.3441726" lon="13.2332012"><ele>661.4285714285714</ele><time>2026-03-29T14:51:54.982Z</time></trkpt><trkpt lat="43.3441668" lon="13.2331035"><ele>663.2857142857143</ele><time>2026-03-29T14:51:56.007Z</time></trkpt><trkpt lat="43.3441737" lon="13.2330146"><ele>665.1428571428572</ele><time>2026-03-29T14:51:56.989Z</time></trkpt><trkpt lat="43.3441853" lon="13.2329249"><ele>667.0</ele><time>2026-03-29T14:51:57.994Z</time></trkpt><trkpt lat="43.3441833" lon="13.2327513"><ele>668.8333333333334</ele><time>2026-03-29T14:51:59.962Z</time></trkpt><trkpt lat="43.3441773" lon="13.2326579"><ele>670.6666666666667</ele><time>2026-03-29T14:52:00.949Z</time></trkpt><trkpt lat="43.3441744" lon="13.2325649"><ele>672.5</ele><time>2026-03-29T14:52:01.975Z</time></trkpt><trkpt lat="43.3441733" lon="13.2324504"><ele>674.3333333333334</ele><time>2026-03-29T14:52:02.955Z</time></trkpt><trkpt lat="43.344164" lon="13.2323328"><ele>676.1666666666666</ele><time>2026-03-29T14:52:03.95Z</time></trkpt><trkpt lat="43.3441512" lon="13.2322256"><ele>678.0</ele><time>2026-03-29T14:52:04.98Z</time></trkpt><trkpt lat="43.3441293" lon="13.2321367"><ele>679.1428571428571</ele><time>2026-03-29T14:52:05.972Z</time></trkpt><trkpt lat="43.3440992" lon="13.2320575"><ele>680.2857142857143</ele><time>2026-03-29T14:52:06.928Z</time></trkpt><trkpt lat="43.3440731" lon="13.2319775"><ele>681.4285714285714</ele><time>2026-03-29T14:52:07.978Z</time></trkpt><trkpt lat="43.3440361" lon="13.2318939"><ele>682.5714285714286</ele><time>2026-03-29T14:52:08.977Z</time></trkpt><trkpt lat="43.3439982" lon="13.2318045"><ele>683.7142857142858</ele><time>2026-03-29T14:52:09.989Z</time></trkpt><trkpt lat="43.3439648" lon="13.2317075"><ele>684.8571428571429</ele><time>2026-03-29T14:52:10.968Z</time></trkpt><trkpt lat="43.3439246" lon="13.2316063"><ele>686.0</ele><time>2026-03-29T14:52:11.988Z</time></trkpt><trkpt lat="43.3438812" lon="13.2314961"><ele>687.3333333333333</ele><time>2026-03-29T14:52:12.982Z</time></trkpt><trkpt lat="43.3438431" lon="13.231397"><ele>688.6666666666666</ele><time>2026-03-29T14:52:13.989Z</time></trkpt><trkpt lat="43.3438072" lon="13.2312922"><ele>690.0</ele><time>2026-03-29T14:52:14.987Z</time></trkpt><trkpt lat="43.3437659" lon="13.2311911"><ele>691.3333333333334</ele><time>2026-03-29T14:52:15.993Z</time></trkpt><trkpt lat="43.3437169" lon="13.2311045"><ele>692.6666666666667</ele><time>2026-03-29T14:52:16.991Z</time></trkpt><trkpt lat="43.3436681" lon="13.231023"><ele>694.0</ele><time>2026-03-29T14:52:17.977Z</time></trkpt><trkpt lat="43.3436287" lon="13.2309362"><ele>694.0</ele><time>2026-03-29T14:52:18.984Z</time></trkpt><trkpt lat="43.3435771" lon="13.2308183"><ele>694.0</ele><time>2026-03-29T14:52:20.981Z</time></trkpt><trkpt lat="43.3435273" lon="13.2307274"><ele>694.0</ele><time>2026-03-29T14:53:55.006Z</time></trkpt><trkpt lat="43.3434668" lon="13.2306113"><ele>694.0</ele><time>2026-03-29T14:53:56.998Z</time></trkpt><trkpt lat="43.3434343" lon="13.2305218"><ele>694.0</ele><time>2026-03-29T14:53:58.001Z</time></trkpt><trkpt lat="43.3433952" lon="13.2304121"><ele>694.0</ele><time>2026-03-29T14:53:58.931Z</time></trkpt><trkpt lat="43.3433569" lon="13.2303048"><ele>695.4000000000001</ele><time>2026-03-29T14:53:59.948Z</time></trkpt><trkpt lat="43.3433117" lon="13.2301971"><ele>696.8</ele><time>2026-03-29T14:54:00.926Z</time></trkpt><trkpt lat="43.3432655" lon="13.2300655"><ele>698.2</ele><time>2026-03-29T14:54:01.929Z</time></trkpt><trkpt lat="43.3432239" lon="13.2299277"><ele>699.5999999999999</ele><time>2026-03-29T14:54:02.98Z</time></trkpt><trkpt lat="43.3431916" lon="13.2297988"><ele>701.0</ele><time>2026-03-29T14:54:03.949Z</time></trkpt><trkpt lat="43.3431549" lon="13.2296574"><ele>701.4</ele><time>2026-03-29T14:54:04.968Z</time></trkpt><trkpt lat="43.3431159" lon="13.2295083"><ele>701.8</ele><time>2026-03-29T14:54:05.942Z</time></trkpt><trkpt lat="43.3430774" lon="13.2293776"><ele>702.1999999999999</ele><time>2026-03-29T14:54:06.931Z</time></trkpt><trkpt lat="43.3430477" lon="13.2292476"><ele>702.5999999999999</ele><time>2026-03-29T14:54:07.987Z</time></trkpt><trkpt lat="43.3430261" lon="13.2291337"><ele>703.0</ele><time>2026-03-29T14:54:08.954Z</time></trkpt><trkpt lat="43.3429954" lon="13.2290094"><ele>703.8</ele><time>2026-03-29T14:54:09.984Z</time></trkpt><trkpt lat="43.3429541" lon="13.2288751"><ele>704.5999999999999</ele><time>2026-03-29T14:54:10.952Z</time></trkpt><trkpt lat="43.3429104" lon="13.2287561"><ele>705.4000000000001</ele><time>2026-03-29T14:54:11.965Z</time></trkpt><trkpt lat="43.3428654" lon="13.2286461"><ele>706.2</ele><time>2026-03-29T14:54:12.972Z</time></trkpt><trkpt lat="43.3428253" lon="13.2285341"><ele>707.0</ele><time>2026-03-29T14:54:13.969Z</time></trkpt><trkpt lat="43.3427861" lon="13.2284105"><ele>707.0</ele><time>2026-03-29T14:54:14.96Z</time></trkpt><trkpt lat="43.3427449" lon="13.2282858"><ele>707.0</ele><time>2026-03-29T14:54:15.973Z</time></trkpt><trkpt lat="43.3426958" lon="13.2281475"><ele>707.0</ele><time>2026-03-29T14:54:16.957Z</time></trkpt><trkpt lat="43.3426402" lon="13.2280058"><ele>707.0</ele><time>2026-03-29T14:54:17.963Z</time></trkpt><trkpt lat="43.3425866" lon="13.2278571"><ele>707.0</ele><time>2026-03-29T14:54:18.972Z</time></trkpt><trkpt lat="43.3425351" lon="13.2277144"><ele>706.25</ele><time>2026-03-29T14:54:19.965Z</time></trkpt><trkpt lat="43.3424887" lon="13.2275733"><ele>705.5</ele><time>2026-03-29T14:54:20.977Z</time></trkpt><trkpt lat="43.3424413" lon="13.227426"><ele>704.75</ele><time>2026-03-29T14:54:21.974Z</time></trkpt><trkpt lat="43.3423971" lon="13.2272791"><ele>704.0</ele><time>2026-03-29T14:54:22.977Z</time></trkpt><trkpt lat="43.3423532" lon="13.2271273"><ele>703.6</ele><time>2026-03-29T14:54:23.956Z</time></trkpt><trkpt lat="43.3423144" lon="13.226983"><ele>703.2</ele><time>2026-03-29T14:54:24.968Z</time></trkpt><trkpt lat="43.3422713" lon="13.2268432"><ele>702.8000000000001</ele><time>2026-03-29T14:54:26.001Z</time></trkpt><trkpt lat="43.3422357" lon="13.2267207"><ele>702.4000000000001</ele><time>2026-03-29T14:54:27.01Z</time></trkpt><trkpt lat="43.3422015" lon="13.22661"><ele>702.0</ele><time>2026-03-29T14:54:27.983Z</time></trkpt><trkpt lat="43.3421639" lon="13.2264917"><ele>701.6666666666666</ele><time>2026-03-29T14:54:28.965Z</time></trkpt><trkpt lat="43.3421232" lon="13.2263626"><ele>701.3333333333334</ele><time>2026-03-29T14:54:30Z</time></trkpt><trkpt lat="43.3420818" lon="13.22624"><ele>701.0</ele><time>2026-03-29T14:54:31.014Z</time></trkpt><trkpt lat="43.3420438" lon="13.2261295"><ele>700.6666666666667</ele><time>2026-03-29T14:54:31.964Z</time></trkpt><trkpt lat="43.3420143" lon="13.2260244"><ele>700.3333333333334</ele><time>2026-03-29T14:54:32.987Z</time></trkpt><trkpt lat="43.3420115" lon="13.2259339"><ele>700.0</ele><time>2026-03-29T14:54:33.979Z</time></trkpt><trkpt lat="43.3420941" lon="13.225795"><ele>700.0</ele><time>2026-03-29T14:54:35.978Z</time></trkpt><trkpt lat="43.3421815" lon="13.2257203"><ele>700.0</ele><time>2026-03-29T14:54:36.986Z</time></trkpt><trkpt lat="43.3422893" lon="13.2256221"><ele>700.0</ele><time>2026-03-29T14:54:37.976Z</time></trkpt><trkpt lat="43.3424103" lon="13.2255065"><ele>700.0</ele><time>2026-03-29T14:54:38.983Z</time></trkpt><trkpt lat="43.3425372" lon="13.2253906"><ele>698.0</ele><time>2026-03-29T14:54:39.976Z</time></trkpt><trkpt lat="43.3426622" lon="13.2252767"><ele>696.0</ele><time>2026-03-29T14:54:40.958Z</time></trkpt><trkpt lat="43.3427768" lon="13.2251669"><ele>694.0</ele><time>2026-03-29T14:54:41.985Z</time></trkpt><trkpt lat="43.3428896" lon="13.2250625"><ele>692.0</ele><time>2026-03-29T14:54:42.978Z</time></trkpt><trkpt lat="43.3429964" lon="13.2249621"><ele>690.8</ele><time>2026-03-29T14:54:43.985Z</time></trkpt><trkpt lat="43.343096" lon="13.2248594"><ele>689.6</ele><time>2026-03-29T14:54:44.96Z</time></trkpt><trkpt lat="43.3431875" lon="13.2247725"><ele>688.4</ele><time>2026-03-29T14:54:45.958Z</time></trkpt><trkpt lat="43.3432741" lon="13.2246906"><ele>687.1999999999999</ele><time>2026-03-29T14:54:46.97Z</time></trkpt><trkpt lat="43.3433496" lon="13.2246203"><ele>686.0</ele><time>2026-03-29T14:54:47.958Z</time></trkpt><trkpt lat="43.3434226" lon="13.2245502"><ele>685.3333333333333</ele><time>2026-03-29T14:54:48.988Z</time></trkpt><trkpt lat="43.343487" lon="13.2244905"><ele>684.6666666666666</ele><time>2026-03-29T14:54:49.997Z</time></trkpt><trkpt lat="43.3435486" lon="13.2244348"><ele>684.0</ele><time>2026-03-29T14:54:51.011Z</time></trkpt><trkpt lat="43.343603" lon="13.2243834"><ele>683.3333333333334</ele><time>2026-03-29T14:54:52.001Z</time></trkpt><trkpt lat="43.3436587" lon="13.2243238"><ele>682.6666666666667</ele><time>2026-03-29T14:54:52.974Z</time></trkpt><trkpt lat="43.343758" lon="13.2242269"><ele>682.0</ele><time>2026-03-29T14:54:54.969Z</time></trkpt><trkpt lat="43.3438388" lon="13.2241456"><ele>681.0</ele><time>2026-03-29T14:54:56.981Z</time></trkpt><trkpt lat="43.3439028" lon="13.2240824"><ele>680.0</ele><time>2026-03-29T14:54:58.989Z</time></trkpt><trkpt lat="43.3439667" lon="13.224031"><ele>679.0</ele><time>2026-03-29T14:55:01.004Z</time></trkpt><trkpt lat="43.3440502" lon="13.2240089"><ele>678.0</ele><time>2026-03-29T14:55:02.98Z</time></trkpt><trkpt lat="43.344131" lon="13.2240656"><ele>677.0</ele><time>2026-03-29T14:55:04.964Z</time></trkpt><trkpt lat="43.3442358" lon="13.2241538"><ele>676.9999999999999</ele><time>2026-03-29T14:55:06.934Z</time></trkpt><trkpt lat="43.344295" lon="13.2242076"><ele>677.0</ele><time>2026-03-29T14:55:07.969Z</time></trkpt><trkpt lat="43.3443621" lon="13.2242535"><ele>677.0</ele><time>2026-03-29T14:55:08.998Z</time></trkpt><trkpt lat="43.3444308" lon="13.2243"><ele>677.0</ele><time>2026-03-29T14:55:09.96Z</time></trkpt><trkpt lat="43.3445044" lon="13.2243078"><ele>677.0</ele><time>2026-03-29T14:55:10.993Z</time></trkpt><trkpt lat="43.3445674" lon="13.2242795"><ele>676.9999999999999</ele><time>2026-03-29T14:55:11.955Z</time></trkpt><trkpt lat="43.3446345" lon="13.2242415"><ele>677.0</ele><time>2026-03-29T14:55:12.967Z</time></trkpt><trkpt lat="43.344703" lon="13.2242013"><ele>677.6</ele><time>2026-03-29T14:55:14.005Z</time></trkpt><trkpt lat="43.3448137" lon="13.22414"><ele>678.2</ele><time>2026-03-29T14:55:15.988Z</time></trkpt><trkpt lat="43.3449071" lon="13.2241011"><ele>678.8</ele><time>2026-03-29T14:55:18.002Z</time></trkpt><trkpt lat="43.3449931" lon="13.2240503"><ele>679.4</ele><time>2026-03-29T14:55:19.987Z</time></trkpt><trkpt lat="43.3450706" lon="13.2240116"><ele>680.0</ele><time>2026-03-29T14:55:21.975Z</time></trkpt><trkpt lat="43.3451237" lon="13.2239498"><ele>680.0</ele><time>2026-03-29T14:55:24.974Z</time></trkpt><trkpt lat="43.3451014" lon="13.223861"><ele>680.0</ele><time>2026-03-29T14:55:28.992Z</time></trkpt><trkpt lat="43.3450829" lon="13.2237332"><ele>680.0</ele><time>2026-03-29T14:55:31.977Z</time></trkpt><trkpt lat="43.3450529" lon="13.223581"><ele>680.0</ele><time>2026-03-29T14:55:33.971Z</time></trkpt><trkpt lat="43.345019" lon="13.2234158"><ele>680.0</ele><time>2026-03-29T14:55:35.962Z</time></trkpt><trkpt lat="43.3449981" lon="13.2233235"><ele>680.0</ele><time>2026-03-29T14:55:36.996Z</time></trkpt><trkpt lat="43.3449656" lon="13.2231603"><ele>680.0</ele><time>2026-03-29T14:55:38.976Z</time></trkpt><trkpt lat="43.3449504" lon="13.223074"><ele>680.0</ele><time>2026-03-29T14:55:39.994Z</time></trkpt><trkpt lat="43.3449358" lon="13.2229754"><ele>680.0</ele><time>2026-03-29T14:55:40.961Z</time></trkpt><trkpt lat="43.3449218" lon="13.222879"><ele>680.0</ele><time>2026-03-29T14:55:41.974Z</time></trkpt><trkpt lat="43.3449107" lon="13.2227921"><ele>680.0</ele><time>2026-03-29T14:55:42.973Z</time></trkpt><trkpt lat="43.344894" lon="13.2226486"><ele>680.0</ele><time>2026-03-29T14:55:44.971Z</time></trkpt><trkpt lat="43.3448918" lon="13.2225226"><ele>680.0</ele><time>2026-03-29T14:55:46.973Z</time></trkpt><trkpt lat="43.3448897" lon="13.222397"><ele>680.0</ele><time>2026-03-29T14:55:48.967Z</time></trkpt><trkpt lat="43.3448746" lon="13.2222906"><ele>680.0</ele><time>2026-03-29T14:55:50.97Z</time></trkpt><trkpt lat="43.3448572" lon="13.2222007"><ele>680.0</ele><time>2026-03-29T14:55:52.993Z</time></trkpt><trkpt lat="43.3448395" lon="13.2220917"><ele>680.0</ele><time>2026-03-29T14:55:56.001Z</time></trkpt><trkpt lat="43.3448264" lon="13.2219754"><ele>679.8333333333333</ele><time>2026-03-29T14:55:58.974Z</time></trkpt><trkpt lat="43.3448237" lon="13.2218437"><ele>679.6666666666666</ele><time>2026-03-29T14:56:01.999Z</time></trkpt><trkpt lat="43.3448184" lon="13.2217335"><ele>679.5</ele><time>2026-03-29T14:56:03.998Z</time></trkpt><trkpt lat="43.3448115" lon="13.2216407"><ele>679.3333333333334</ele><time>2026-03-29T14:56:05.983Z</time></trkpt><trkpt lat="43.3448058" lon="13.2215396"><ele>679.1666666666667</ele><time>2026-03-29T14:56:07.961Z</time></trkpt><trkpt lat="43.3448152" lon="13.2214376"><ele>679.0</ele><time>2026-03-29T14:56:09.984Z</time></trkpt><trkpt lat="43.3448028" lon="13.2213024"><ele>678.5</ele><time>2026-03-29T14:56:11.974Z</time></trkpt><trkpt lat="43.3448098" lon="13.2211806"><ele>678.0</ele><time>2026-03-29T14:56:13.99Z</time></trkpt><trkpt lat="43.344799" lon="13.2210889"><ele>677.5</ele><time>2026-03-29T14:56:15.974Z</time></trkpt><trkpt lat="43.3447934" lon="13.2209724"><ele>677.0</ele><time>2026-03-29T14:56:17.974Z</time></trkpt><trkpt lat="43.3447768" lon="13.2208509"><ele>676.5</ele><time>2026-03-29T14:56:19.971Z</time></trkpt><trkpt lat="43.3447593" lon="13.2207374"><ele>676.0</ele><time>2026-03-29T14:56:21.941Z</time></trkpt><trkpt lat="43.344749" lon="13.2206003"><ele>673.8</ele><time>2026-03-29T14:56:23.956Z</time></trkpt><trkpt lat="43.3447772" lon="13.2204602"><ele>671.5999999999999</ele><time>2026-03-29T14:56:25.941Z</time></trkpt><trkpt lat="43.3448239" lon="13.2203398"><ele>669.4</ele><time>2026-03-29T14:56:27.935Z</time></trkpt><trkpt lat="43.3448804" lon="13.2202553"><ele>667.2</ele><time>2026-03-29T14:56:29.998Z</time></trkpt><trkpt lat="43.3449561" lon="13.220169"><ele>665.0</ele><time>2026-03-29T14:56:31.984Z</time></trkpt><trkpt lat="43.3450629" lon="13.2200823"><ele>665.0</ele><time>2026-03-29T14:56:33.961Z</time></trkpt><trkpt lat="43.3451163" lon="13.2200337"><ele>665.0</ele><time>2026-03-29T14:56:34.95Z</time></trkpt><trkpt lat="43.3451728" lon="13.2199835"><ele>665.0</ele><time>2026-03-29T14:56:35.967Z</time></trkpt><trkpt lat="43.3452308" lon="13.219927"><ele>665.0</ele><time>2026-03-29T14:56:36.948Z</time></trkpt><trkpt lat="43.3453048" lon="13.2198007"><ele>665.0</ele><time>2026-03-29T14:56:38.941Z</time></trkpt><trkpt lat="43.3453307" lon="13.2197131"><ele>665.0</ele><time>2026-03-29T14:56:39.947Z</time></trkpt><trkpt lat="43.345323" lon="13.2196123"><ele>664.6</ele><time>2026-03-29T14:56:40.949Z</time></trkpt><trkpt lat="43.3452774" lon="13.2194384"><ele>664.2</ele><time>2026-03-29T14:56:42.98Z</time></trkpt><trkpt lat="43.3452166" lon="13.2193439"><ele>663.8</ele><time>2026-03-29T14:56:43.973Z</time></trkpt><trkpt lat="43.3451518" lon="13.2192392"><ele>663.4</ele><time>2026-03-29T14:56:44.961Z</time></trkpt><trkpt lat="43.3451004" lon="13.2191251"><ele>663.0</ele><time>2026-03-29T14:56:45.986Z</time></trkpt><trkpt lat="43.3450518" lon="13.2190186"><ele>664.6666666666666</ele><time>2026-03-29T14:56:46.964Z</time></trkpt><trkpt lat="43.3450086" lon="13.2189215"><ele>666.3333333333334</ele><time>2026-03-29T14:56:47.986Z</time></trkpt><trkpt lat="43.3449656" lon="13.2188208"><ele>668.0</ele><time>2026-03-29T14:56:48.966Z</time></trkpt><trkpt lat="43.3449281" lon="13.2187393"><ele>669.6666666666667</ele><time>2026-03-29T14:56:49.983Z</time></trkpt><trkpt lat="43.3448945" lon="13.2186512"><ele>671.3333333333334</ele><time>2026-03-29T14:56:50.971Z</time></trkpt><trkpt lat="43.3448568" lon="13.2185642"><ele>673.0</ele><time>2026-03-29T14:56:51.958Z</time></trkpt><trkpt lat="43.3448261" lon="13.2184687"><ele>673.0</ele><time>2026-03-29T14:56:52.949Z</time></trkpt><trkpt lat="43.3447924" lon="13.2183806"><ele>673.0</ele><time>2026-03-29T14:56:53.959Z</time></trkpt><trkpt lat="43.3447615" lon="13.2182839"><ele>673.0</ele><time>2026-03-29T14:56:54.941Z</time></trkpt><trkpt lat="43.3447361" lon="13.218187"><ele>673.0</ele><time>2026-03-29T14:56:55.969Z</time></trkpt><trkpt lat="43.3447122" lon="13.2180882"><ele>673.0</ele><time>2026-03-29T14:56:56.968Z</time></trkpt><trkpt lat="43.3446827" lon="13.2179978"><ele>673.0</ele><time>2026-03-29T14:56:57.96Z</time></trkpt><trkpt lat="43.344648" lon="13.217909"><ele>673.0</ele><time>2026-03-29T14:56:58.953Z</time></trkpt><trkpt lat="43.3446195" lon="13.2178234"><ele>669.0</ele><time>2026-03-29T14:56:59.966Z</time></trkpt><trkpt lat="43.3445917" lon="13.2177271"><ele>665.0</ele><time>2026-03-29T14:57:00.956Z</time></trkpt><trkpt lat="43.3445654" lon="13.2176322"><ele>661.0</ele><time>2026-03-29T14:57:01.963Z</time></trkpt><trkpt lat="43.344545" lon="13.2175232"><ele>657.0</ele><time>2026-03-29T14:57:02.95Z</time></trkpt><trkpt lat="43.3445066" lon="13.2174024"><ele>653.0</ele><time>2026-03-29T14:57:03.957Z</time></trkpt><trkpt lat="43.3444542" lon="13.2172856"><ele>649.0</ele><time>2026-03-29T14:57:04.974Z</time></trkpt><trkpt lat="43.3443935" lon="13.2171722"><ele>649.0</ele><time>2026-03-29T14:57:05.982Z</time></trkpt><trkpt lat="43.3443285" lon="13.217066"><ele>649.0</ele><time>2026-03-29T14:57:06.93Z</time></trkpt><trkpt lat="43.3442638" lon="13.2169635"><ele>649.0</ele><time>2026-03-29T14:57:07.981Z</time></trkpt><trkpt lat="43.3442086" lon="13.2168609"><ele>649.0</ele><time>2026-03-29T14:57:08.975Z</time></trkpt><trkpt lat="43.344156" lon="13.2167715"><ele>649.0</ele><time>2026-03-29T14:57:09.987Z</time></trkpt><trkpt lat="43.3441003" lon="13.2166944"><ele>649.0</ele><time>2026-03-29T14:57:10.975Z</time></trkpt><trkpt lat="43.3440492" lon="13.2166358"><ele>649.0</ele><time>2026-03-29T14:57:11.962Z</time></trkpt><trkpt lat="43.3439629" lon="13.2165052"><ele>649.0</ele><time>2026-03-29T14:57:13.956Z</time></trkpt><trkpt lat="43.3439247" lon="13.2164091"><ele>649.0</ele><time>2026-03-29T14:57:14.943Z</time></trkpt><trkpt lat="43.3438799" lon="13.2163038"><ele>649.0</ele><time>2026-03-29T14:57:15.98Z</time></trkpt><trkpt lat="43.3438399" lon="13.2162161"><ele>649.0</ele><time>2026-03-29T14:57:16.979Z</time></trkpt><trkpt lat="43.3438118" lon="13.2161289"><ele>650.0</ele><time>2026-03-29T14:57:17.982Z</time></trkpt><trkpt lat="43.3437893" lon="13.2160438"><ele>651.0</ele><time>2026-03-29T14:57:18.984Z</time></trkpt><trkpt lat="43.34377" lon="13.2158934"><ele>652.0</ele><time>2026-03-29T14:57:21.012Z</time></trkpt><trkpt lat="43.3437948" lon="13.2157869"><ele>653.0</ele><time>2026-03-29T14:57:22.97Z</time></trkpt><trkpt lat="43.3438626" lon="13.2156581"><ele>654.0</ele><time>2026-03-29T14:57:24.973Z</time></trkpt><trkpt lat="43.3439293" lon="13.2155147"><ele>654.0</ele><time>2026-03-29T14:57:26.993Z</time></trkpt><trkpt lat="43.3439622" lon="13.2154397"><ele>654.0</ele><time>2026-03-29T14:57:27.979Z</time></trkpt><trkpt lat="43.343994" lon="13.2153639"><ele>654.0</ele><time>2026-03-29T14:57:28.987Z</time></trkpt><trkpt lat="43.3440234" lon="13.215284"><ele>654.0</ele><time>2026-03-29T14:57:29.993Z</time></trkpt><trkpt lat="43.3440579" lon="13.2152025"><ele>654.0</ele><time>2026-03-29T14:57:30.961Z</time></trkpt><trkpt lat="43.3440905" lon="13.2151198"><ele>654.0</ele><time>2026-03-29T14:57:31.969Z</time></trkpt><trkpt lat="43.3441202" lon="13.2150323"><ele>654.0</ele><time>2026-03-29T14:57:32.98Z</time></trkpt><trkpt lat="43.3441537" lon="13.214935"><ele>654.0</ele><time>2026-03-29T14:57:33.967Z</time></trkpt><trkpt lat="43.3441877" lon="13.214841"><ele>654.0</ele><time>2026-03-29T14:57:34.966Z</time></trkpt><trkpt lat="43.3442169" lon="13.2147515"><ele>654.0</ele><time>2026-03-29T14:57:35.957Z</time></trkpt><trkpt lat="43.3442446" lon="13.2146655"><ele>654.0</ele><time>2026-03-29T14:57:36.998Z</time></trkpt><trkpt lat="43.3442683" lon="13.2145835"><ele>654.0</ele><time>2026-03-29T14:57:37.973Z</time></trkpt><trkpt lat="43.3443005" lon="13.214498"><ele>654.0</ele><time>2026-03-29T14:57:38.98Z</time></trkpt><trkpt lat="43.344327" lon="13.2144158"><ele>654.0</ele><time>2026-03-29T14:57:39.975Z</time></trkpt><trkpt lat="43.3443562" lon="13.2143257"><ele>653.0</ele><time>2026-03-29T14:57:40.939Z</time></trkpt><trkpt lat="43.3443862" lon="13.2142412"><ele>652.0</ele><time>2026-03-29T14:57:41.974Z</time></trkpt><trkpt lat="43.3444152" lon="13.2141612"><ele>651.0</ele><time>2026-03-29T14:57:42.97Z</time></trkpt><trkpt lat="43.3444596" lon="13.2140065"><ele>650.0</ele><time>2026-03-29T14:57:44.948Z</time></trkpt><trkpt lat="43.344496" lon="13.213858"><ele>649.0</ele><time>2026-03-29T14:57:46.993Z</time></trkpt><trkpt lat="43.3445175" lon="13.2137704"><ele>648.0</ele><time>2026-03-29T14:57:48.982Z</time></trkpt><trkpt lat="43.3445308" lon="13.2136818"><ele>646.8333333333334</ele><time>2026-03-29T14:57:52.989Z</time></trkpt><trkpt lat="43.3445425" lon="13.2135945"><ele>645.6666666666666</ele><time>2026-03-29T14:57:55.965Z</time></trkpt><trkpt lat="43.3445771" lon="13.213506"><ele>644.5</ele><time>2026-03-29T14:57:58.977Z</time></trkpt><trkpt lat="43.3446371" lon="13.2133619"><ele>643.3333333333333</ele><time>2026-03-29T14:58:00.981Z</time></trkpt><trkpt lat="43.3446655" lon="13.2132698"><ele>642.1666666666666</ele><time>2026-03-29T14:58:01.982Z</time></trkpt><trkpt lat="43.3446984" lon="13.2131485"><ele>641.0</ele><time>2026-03-29T14:58:02.948Z</time></trkpt><trkpt lat="43.3447315" lon="13.2129975"><ele>647.75</ele><time>2026-03-29T14:58:03.975Z</time></trkpt><trkpt lat="43.344775" lon="13.2128437"><ele>654.5</ele><time>2026-03-29T14:58:04.963Z</time></trkpt><trkpt lat="43.3448211" lon="13.2126815"><ele>661.25</ele><time>2026-03-29T14:58:05.97Z</time></trkpt><trkpt lat="43.3448749" lon="13.2125375"><ele>668.0</ele><time>2026-03-29T14:58:06.931Z</time></trkpt><trkpt lat="43.3449436" lon="13.2124086"><ele>665.8333333333333</ele><time>2026-03-29T14:58:07.936Z</time></trkpt><trkpt lat="43.3450083" lon="13.2122822"><ele>663.6666666666666</ele><time>2026-03-29T14:58:08.989Z</time></trkpt><trkpt lat="43.3450498" lon="13.2121688"><ele>661.5</ele><time>2026-03-29T14:58:09.986Z</time></trkpt><trkpt lat="43.3450789" lon="13.2120649"><ele>659.3333333333334</ele><time>2026-03-29T14:58:10.985Z</time></trkpt><trkpt lat="43.3451022" lon="13.2119651"><ele>657.1666666666667</ele><time>2026-03-29T14:58:11.971Z</time></trkpt><trkpt lat="43.3451253" lon="13.2118812"><ele>655.0</ele><time>2026-03-29T14:58:12.97Z</time></trkpt><trkpt lat="43.345165" lon="13.2117858"><ele>655.0</ele><time>2026-03-29T14:58:13.971Z</time></trkpt><trkpt lat="43.3452079" lon="13.2116836"><ele>655.0</ele><time>2026-03-29T14:58:14.997Z</time></trkpt><trkpt lat="43.3452725" lon="13.211557"><ele>655.0</ele><time>2026-03-29T14:58:15.967Z</time></trkpt><trkpt lat="43.3453497" lon="13.21142"><ele>655.0</ele><time>2026-03-29T14:58:16.96Z</time></trkpt><trkpt lat="43.3454271" lon="13.2112889"><ele>655.0</ele><time>2026-03-29T14:58:17.989Z</time></trkpt><trkpt lat="43.3455072" lon="13.2111581"><ele>658.25</ele><time>2026-03-29T14:58:18.992Z</time></trkpt><trkpt lat="43.3455892" lon="13.2110447"><ele>661.5</ele><time>2026-03-29T14:58:19.982Z</time></trkpt><trkpt lat="43.3456755" lon="13.2109381"><ele>664.75</ele><time>2026-03-29T14:58:20.955Z</time></trkpt><trkpt lat="43.3457659" lon="13.210838"><ele>668.0</ele><time>2026-03-29T14:58:21.969Z</time></trkpt><trkpt lat="43.3458587" lon="13.2107447"><ele>668.0</ele><time>2026-03-29T14:58:22.945Z</time></trkpt><trkpt lat="43.345947" lon="13.210658"><ele>668.0</ele><time>2026-03-29T14:58:23.956Z</time></trkpt><trkpt lat="43.3460389" lon="13.2105831"><ele>668.0</ele><time>2026-03-29T14:58:24.954Z</time></trkpt><trkpt lat="43.3461172" lon="13.210527"><ele>668.0</ele><time>2026-03-29T14:58:25.961Z</time></trkpt><trkpt lat="43.3461882" lon="13.2104863"><ele>668.0</ele><time>2026-03-29T14:58:26.96Z</time></trkpt><trkpt lat="43.3462528" lon="13.2104534"><ele>668.0</ele><time>2026-03-29T14:58:27.936Z</time></trkpt><trkpt lat="43.3463211" lon="13.2104454"><ele>663.8</ele><time>2026-03-29T14:58:28.934Z</time></trkpt><trkpt lat="43.3463963" lon="13.2104457"><ele>659.5999999999999</ele><time>2026-03-29T14:58:29.949Z</time></trkpt><trkpt lat="43.3464808" lon="13.2104518"><ele>655.4000000000001</ele><time>2026-03-29T14:58:30.953Z</time></trkpt><trkpt lat="43.346574" lon="13.2104634"><ele>651.2</ele><time>2026-03-29T14:58:31.95Z</time></trkpt><trkpt lat="43.3466699" lon="13.2104857"><ele>647.0</ele><time>2026-03-29T14:58:32.961Z</time></trkpt><trkpt lat="43.3467678" lon="13.2105163"><ele>647.0</ele><time>2026-03-29T14:58:33.945Z</time></trkpt><trkpt lat="43.3468751" lon="13.2105463"><ele>647.0</ele><time>2026-03-29T14:58:34.958Z</time></trkpt><trkpt lat="43.3469729" lon="13.2105694"><ele>647.0</ele><time>2026-03-29T14:58:35.956Z</time></trkpt><trkpt lat="43.3470707" lon="13.2105658"><ele>647.0</ele><time>2026-03-29T14:58:36.96Z</time></trkpt><trkpt lat="43.3471754" lon="13.2105578"><ele>647.0</ele><time>2026-03-29T14:58:37.976Z</time></trkpt><trkpt lat="43.3472808" lon="13.2105444"><ele>650.0</ele><time>2026-03-29T14:58:38.972Z</time></trkpt><trkpt lat="43.3473617" lon="13.2105487"><ele>653.0</ele><time>2026-03-29T14:58:39.969Z</time></trkpt><trkpt lat="43.3474385" lon="13.2105536"><ele>656.0</ele><time>2026-03-29T14:58:40.954Z</time></trkpt><trkpt lat="43.34757" lon="13.2105588"><ele>659.0</ele><time>2026-03-29T14:58:42.978Z</time></trkpt><trkpt lat="43.3476347" lon="13.2105121"><ele>662.0</ele><time>2026-03-29T14:58:44.971Z</time></trkpt><trkpt lat="43.3476496" lon="13.2103742"><ele>662.0</ele><time>2026-03-29T14:58:46.968Z</time></trkpt><trkpt lat="43.3476238" lon="13.2102115"><ele>662.0</ele><time>2026-03-29T14:58:48.972Z</time></trkpt><trkpt lat="43.3475931" lon="13.2101131"><ele>662.0</ele><time>2026-03-29T14:58:49.983Z</time></trkpt><trkpt lat="43.3475585" lon="13.2100099"><ele>662.0</ele><time>2026-03-29T14:58:50.965Z</time></trkpt><trkpt lat="43.3475206" lon="13.2099151"><ele>662.0</ele><time>2026-03-29T14:58:51.975Z</time></trkpt><trkpt lat="43.3474763" lon="13.209821"><ele>662.0</ele><time>2026-03-29T14:58:52.954Z</time></trkpt><trkpt lat="43.3474315" lon="13.2097232"><ele>665.8</ele><time>2026-03-29T14:58:53.965Z</time></trkpt><trkpt lat="43.3473874" lon="13.2096173"><ele>669.6</ele><time>2026-03-29T14:58:54.958Z</time></trkpt><trkpt lat="43.347353" lon="13.2094942"><ele>673.4</ele><time>2026-03-29T14:58:55.974Z</time></trkpt><trkpt lat="43.3473084" lon="13.2093738"><ele>677.1999999999999</ele><time>2026-03-29T14:58:56.967Z</time></trkpt><trkpt lat="43.3472625" lon="13.2092492"><ele>681.0</ele><time>2026-03-29T14:58:57.959Z</time></trkpt><trkpt lat="43.3472149" lon="13.2091287"><ele>675.1666666666666</ele><time>2026-03-29T14:58:58.983Z</time></trkpt><trkpt lat="43.3471652" lon="13.2090216"><ele>669.3333333333334</ele><time>2026-03-29T14:58:59.975Z</time></trkpt><trkpt lat="43.3471183" lon="13.2089233"><ele>663.5</ele><time>2026-03-29T14:59:00.98Z</time></trkpt><trkpt lat="43.347079" lon="13.2088335"><ele>657.6666666666667</ele><time>2026-03-29T14:59:01.934Z</time></trkpt><trkpt lat="43.3470351" lon="13.2087273"><ele>651.8333333333334</ele><time>2026-03-29T14:59:02.964Z</time></trkpt><trkpt lat="43.3469979" lon="13.2086249"><ele>646.0</ele><time>2026-03-29T14:59:03.968Z</time></trkpt><trkpt lat="43.3469922" lon="13.2085192"><ele>646.0</ele><time>2026-03-29T14:59:04.954Z</time></trkpt><trkpt lat="43.3470071" lon="13.208419"><ele>646.0</ele><time>2026-03-29T14:59:05.961Z</time></trkpt><trkpt lat="43.347038" lon="13.20831"><ele>646.0</ele><time>2026-03-29T14:59:06.931Z</time></trkpt><trkpt lat="43.3470801" lon="13.2081968"><ele>646.0</ele><time>2026-03-29T14:59:07.937Z</time></trkpt><trkpt lat="43.3471258" lon="13.2080779"><ele>646.0</ele><time>2026-03-29T14:59:08.986Z</time></trkpt><trkpt lat="43.3471684" lon="13.2079661"><ele>646.0</ele><time>2026-03-29T14:59:09.989Z</time></trkpt><trkpt lat="43.34721" lon="13.2078459"><ele>651.3333333333334</ele><time>2026-03-29T14:59:10.971Z</time></trkpt><trkpt lat="43.3472547" lon="13.2077357"><ele>656.6666666666667</ele><time>2026-03-29T14:59:11.98Z</time></trkpt><trkpt lat="43.347299" lon="13.2076324"><ele>662.0</ele><time>2026-03-29T14:59:12.934Z</time></trkpt><trkpt lat="43.3473445" lon="13.2075353"><ele>667.3333333333334</ele><time>2026-03-29T14:59:13.969Z</time></trkpt><trkpt lat="43.3473816" lon="13.207445"><ele>672.6666666666666</ele><time>2026-03-29T14:59:14.987Z</time></trkpt><trkpt lat="43.3474259" lon="13.207348"><ele>678.0</ele><time>2026-03-29T14:59:15.967Z</time></trkpt><trkpt lat="43.3474667" lon="13.207245"><ele>678.0</ele><time>2026-03-29T14:59:16.98Z</time></trkpt><trkpt lat="43.3475031" lon="13.2071318"><ele>678.0</ele><time>2026-03-29T14:59:17.964Z</time></trkpt><trkpt lat="43.3475399" lon="13.207007"><ele>678.0</ele><time>2026-03-29T14:59:18.964Z</time></trkpt><trkpt lat="43.3475736" lon="13.2068903"><ele>678.0</ele><time>2026-03-29T14:59:19.981Z</time></trkpt><trkpt lat="43.3476032" lon="13.2067662"><ele>678.0</ele><time>2026-03-29T14:59:20.974Z</time></trkpt><trkpt lat="43.3476309" lon="13.2066206"><ele>677.3333333333334</ele><time>2026-03-29T14:59:21.947Z</time></trkpt><trkpt lat="43.3476453" lon="13.2064924"><ele>676.6666666666666</ele><time>2026-03-29T14:59:22.933Z</time></trkpt><trkpt lat="43.3476558" lon="13.2063748"><ele>676.0</ele><time>2026-03-29T14:59:23.977Z</time></trkpt><trkpt lat="43.347665" lon="13.2062592"><ele>675.3333333333333</ele><time>2026-03-29T14:59:24.958Z</time></trkpt><trkpt lat="43.3476777" lon="13.2061614"><ele>674.6666666666666</ele><time>2026-03-29T14:59:25.965Z</time></trkpt><trkpt lat="43.3476919" lon="13.2060719"><ele>674.0</ele><time>2026-03-29T14:59:26.934Z</time></trkpt><trkpt lat="43.3477104" lon="13.205979"><ele>674.0</ele><time>2026-03-29T14:59:27.991Z</time></trkpt><trkpt lat="43.3477266" lon="13.2058717"><ele>674.0</ele><time>2026-03-29T14:59:28.964Z</time></trkpt><trkpt lat="43.3477441" lon="13.2057552"><ele>674.0</ele><time>2026-03-29T14:59:29.963Z</time></trkpt><trkpt lat="43.3477711" lon="13.205619"><ele>674.0</ele><time>2026-03-29T14:59:30.984Z</time></trkpt><trkpt lat="43.3477907" lon="13.2054841"><ele>674.0</ele><time>2026-03-29T14:59:31.969Z</time></trkpt><trkpt lat="43.3478099" lon="13.2053462"><ele>672.8333333333333</ele><time>2026-03-29T14:59:32.98Z</time></trkpt><trkpt lat="43.3478362" lon="13.2052128"><ele>671.6666666666666</ele><time>2026-03-29T14:59:33.976Z</time></trkpt><trkpt lat="43.3478461" lon="13.2050896"><ele>670.5</ele><time>2026-03-29T14:59:34.972Z</time></trkpt><trkpt lat="43.3478453" lon="13.2049799"><ele>669.3333333333334</ele><time>2026-03-29T14:59:35.975Z</time></trkpt><trkpt lat="43.3478483" lon="13.204866"><ele>668.1666666666667</ele><time>2026-03-29T14:59:36.956Z</time></trkpt><trkpt lat="43.3478561" lon="13.2047519"><ele>667.0</ele><time>2026-03-29T14:59:37.972Z</time></trkpt><trkpt lat="43.347877" lon="13.2046362"><ele>666.2</ele><time>2026-03-29T14:59:38.983Z</time></trkpt><trkpt lat="43.3478926" lon="13.2045214"><ele>665.4000000000001</ele><time>2026-03-29T14:59:39.973Z</time></trkpt><trkpt lat="43.3479214" lon="13.2043944"><ele>664.5999999999999</ele><time>2026-03-29T14:59:40.966Z</time></trkpt><trkpt lat="43.3479382" lon="13.2042715"><ele>663.8</ele><time>2026-03-29T14:59:41.98Z</time></trkpt><trkpt lat="43.3479535" lon="13.2041561"><ele>663.0</ele><time>2026-03-29T14:59:42.944Z</time></trkpt><trkpt lat="43.3479682" lon="13.2040302"><ele>662.1666666666666</ele><time>2026-03-29T14:59:43.986Z</time></trkpt><trkpt lat="43.3479864" lon="13.2039199"><ele>661.3333333333334</ele><time>2026-03-29T14:59:44.964Z</time></trkpt><trkpt lat="43.3480018" lon="13.203807"><ele>660.5</ele><time>2026-03-29T14:59:45.969Z</time></trkpt><trkpt lat="43.348016" lon="13.2037081"><ele>659.6666666666667</ele><time>2026-03-29T14:59:46.955Z</time></trkpt><trkpt lat="43.3480101" lon="13.2036205"><ele>658.8333333333334</ele><time>2026-03-29T14:59:47.98Z</time></trkpt><trkpt lat="43.3480018" lon="13.2035308"><ele>658.0</ele><time>2026-03-29T14:59:48.964Z</time></trkpt><trkpt lat="43.3479892" lon="13.2033723"><ele>658.0</ele><time>2026-03-29T14:59:50.975Z</time></trkpt><trkpt lat="43.347989" lon="13.203205"><ele>658.0</ele><time>2026-03-29T14:59:52.982Z</time></trkpt><trkpt lat="43.3479813" lon="13.2030452"><ele>658.0</ele><time>2026-03-29T14:59:54.982Z</time></trkpt><trkpt lat="43.3479847" lon="13.2029574"><ele>658.0</ele><time>2026-03-29T14:59:55.984Z</time></trkpt><trkpt lat="43.3480019" lon="13.2027861"><ele>658.0</ele><time>2026-03-29T14:59:57.981Z</time></trkpt><trkpt lat="43.3479908" lon="13.2026851"><ele>656.8333333333334</ele><time>2026-03-29T14:59:58.989Z</time></trkpt><trkpt lat="43.3479605" lon="13.2025756"><ele>655.6666666666667</ele><time>2026-03-29T14:59:59.972Z</time></trkpt><trkpt lat="43.3479014" lon="13.2024835"><ele>654.5</ele><time>2026-03-29T15:00:00.947Z</time></trkpt><trkpt lat="43.3478569" lon="13.2024062"><ele>653.3333333333334</ele><time>2026-03-29T15:00:01.93Z</time></trkpt><trkpt lat="43.3478305" lon="13.202305"><ele>652.1666666666666</ele><time>2026-03-29T15:00:02.933Z</time></trkpt><trkpt lat="43.3478123" lon="13.2021561"><ele>651.0</ele><time>2026-03-29T15:00:03.944Z</time></trkpt><trkpt lat="43.3477904" lon="13.201995"><ele>650.4</ele><time>2026-03-29T15:00:04.961Z</time></trkpt><trkpt lat="43.347773" lon="13.2018596"><ele>649.8</ele><time>2026-03-29T15:00:05.978Z</time></trkpt><trkpt lat="43.347761" lon="13.2017034"><ele>649.1999999999999</ele><time>2026-03-29T15:00:06.951Z</time></trkpt><trkpt lat="43.3477421" lon="13.201569"><ele>648.5999999999999</ele><time>2026-03-29T15:00:07.929Z</time></trkpt><trkpt lat="43.3477322" lon="13.201438"><ele>648.0</ele><time>2026-03-29T15:00:08.933Z</time></trkpt><trkpt lat="43.3477204" lon="13.2012924"><ele>648.0</ele><time>2026-03-29T15:00:09.981Z</time></trkpt><trkpt lat="43.3477263" lon="13.2011389"><ele>648.0</ele><time>2026-03-29T15:00:10.961Z</time></trkpt><trkpt lat="43.34774" lon="13.2010048"><ele>648.0</ele><time>2026-03-29T15:00:11.968Z</time></trkpt><trkpt lat="43.3477435" lon="13.2008834"><ele>648.0</ele><time>2026-03-29T15:00:13Z</time></trkpt><trkpt lat="43.3477484" lon="13.2007714"><ele>648.0</ele><time>2026-03-29T15:00:13.983Z</time></trkpt><trkpt lat="43.3477451" lon="13.20066"><ele>647.4</ele><time>2026-03-29T15:00:14.959Z</time></trkpt><trkpt lat="43.3477609" lon="13.2005375"><ele>646.8</ele><time>2026-03-29T15:00:15.981Z</time></trkpt><trkpt lat="43.3477935" lon="13.2003949"><ele>646.2</ele><time>2026-03-29T15:00:16.957Z</time></trkpt><trkpt lat="43.3478367" lon="13.2002452"><ele>645.6</ele><time>2026-03-29T15:00:17.983Z</time></trkpt><trkpt lat="43.3478748" lon="13.2000874"><ele>645.0</ele><time>2026-03-29T15:00:18.951Z</time></trkpt><trkpt lat="43.3479013" lon="13.1999332"><ele>644.3333333333334</ele><time>2026-03-29T15:00:19.927Z</time></trkpt><trkpt lat="43.3479126" lon="13.1997885"><ele>643.6666666666666</ele><time>2026-03-29T15:00:20.925Z</time></trkpt><trkpt lat="43.3479325" lon="13.1996772"><ele>643.0</ele><time>2026-03-29T15:00:21.921Z</time></trkpt><trkpt lat="43.3479425" lon="13.1995801"><ele>642.3333333333333</ele><time>2026-03-29T15:00:22.927Z</time></trkpt><trkpt lat="43.3479597" lon="13.1994732"><ele>641.6666666666666</ele><time>2026-03-29T15:00:23.93Z</time></trkpt><trkpt lat="43.3480003" lon="13.1993468"><ele>641.0</ele><time>2026-03-29T15:00:24.938Z</time></trkpt><trkpt lat="43.3480265" lon="13.1992467"><ele>641.0</ele><time>2026-03-29T15:00:25.934Z</time></trkpt><trkpt lat="43.3480346" lon="13.1991539"><ele>641.0</ele><time>2026-03-29T15:00:26.959Z</time></trkpt><trkpt lat="43.3480553" lon="13.1990568"><ele>641.0</ele><time>2026-03-29T15:00:27.985Z</time></trkpt><trkpt lat="43.3480662" lon="13.1989478"><ele>641.0</ele><time>2026-03-29T15:00:28.982Z</time></trkpt><trkpt lat="43.3480969" lon="13.1988509"><ele>641.0</ele><time>2026-03-29T15:00:29.984Z</time></trkpt><trkpt lat="43.3481426" lon="13.1987518"><ele>641.0</ele><time>2026-03-29T15:00:30.985Z</time></trkpt><trkpt lat="43.3481867" lon="13.1986454"><ele>647.5999999999999</ele><time>2026-03-29T15:00:31.998Z</time></trkpt><trkpt lat="43.3481992" lon="13.1985071"><ele>654.2</ele><time>2026-03-29T15:00:32.977Z</time></trkpt><trkpt lat="43.3482027" lon="13.1983819"><ele>660.8</ele><time>2026-03-29T15:00:33.986Z</time></trkpt><trkpt lat="43.3482445" lon="13.1982647"><ele>667.4000000000001</ele><time>2026-03-29T15:00:34.969Z</time></trkpt><trkpt lat="43.3482914" lon="13.1981567"><ele>674.0</ele><time>2026-03-29T15:00:35.972Z</time></trkpt><trkpt lat="43.3483191" lon="13.1980571"><ele>674.0</ele><time>2026-03-29T15:00:36.986Z</time></trkpt><trkpt lat="43.3483492" lon="13.1979463"><ele>674.0</ele><time>2026-03-29T15:00:37.931Z</time></trkpt><trkpt lat="43.3483954" lon="13.1978292"><ele>674.0</ele><time>2026-03-29T15:00:38.973Z</time></trkpt><trkpt lat="43.3484567" lon="13.1977162"><ele>674.0</ele><time>2026-03-29T15:00:39.97Z</time></trkpt><trkpt lat="43.348521" lon="13.1975976"><ele>674.0</ele><time>2026-03-29T15:00:40.96Z</time></trkpt><trkpt lat="43.3485808" lon="13.1974829"><ele>674.0</ele><time>2026-03-29T15:00:42.005Z</time></trkpt><trkpt lat="43.3486182" lon="13.1973471"><ele>674.0</ele><time>2026-03-29T15:00:42.952Z</time></trkpt><trkpt lat="43.3486469" lon="13.1972148"><ele>674.0</ele><time>2026-03-29T15:00:43.936Z</time></trkpt><trkpt lat="43.3486681" lon="13.1971039"><ele>674.0</ele><time>2026-03-29T15:00:44.984Z</time></trkpt><trkpt lat="43.3487166" lon="13.1970017"><ele>674.0</ele><time>2026-03-29T15:00:45.989Z</time></trkpt><trkpt lat="43.3487769" lon="13.1969045"><ele>672.6666666666666</ele><time>2026-03-29T15:00:46.987Z</time></trkpt><trkpt lat="43.3488222" lon="13.1968242"><ele>671.3333333333333</ele><time>2026-03-29T15:00:47.927Z</time></trkpt><trkpt lat="43.3488728" lon="13.1967543"><ele>670.0</ele><time>2026-03-29T15:00:49.994Z</time></trkpt><trkpt lat="43.3489361" lon="13.1967092"><ele>668.6666666666666</ele><time>2026-03-29T15:00:52.974Z</time></trkpt><trkpt lat="43.3490188" lon="13.1967004"><ele>667.3333333333334</ele><time>2026-03-29T15:00:55.985Z</time></trkpt><trkpt lat="43.3490939" lon="13.1967362"><ele>666.0</ele><time>2026-03-29T15:01:03.927Z</time></trkpt><trkpt lat="43.3491995" lon="13.1967087"><ele>671.1999999999999</ele><time>2026-03-29T15:01:30.002Z</time></trkpt><trkpt lat="43.3492872" lon="13.1966976"><ele>676.4</ele><time>2026-03-29T15:01:30.986Z</time></trkpt><trkpt lat="43.3493808" lon="13.196702"><ele>681.6</ele><time>2026-03-29T15:01:31.974Z</time></trkpt><trkpt lat="43.3494797" lon="13.1967448"><ele>686.8</ele><time>2026-03-29T15:01:32.994Z</time></trkpt><trkpt lat="43.3495795" lon="13.1968035"><ele>692.0</ele><time>2026-03-29T15:01:33.95Z</time></trkpt><trkpt lat="43.349677" lon="13.1968541"><ele>694.1666666666666</ele><time>2026-03-29T15:01:34.968Z</time></trkpt><trkpt lat="43.3497667" lon="13.1969125"><ele>696.3333333333333</ele><time>2026-03-29T15:01:35.984Z</time></trkpt><trkpt lat="43.3498496" lon="13.1969693"><ele>698.5</ele><time>2026-03-29T15:01:36.975Z</time></trkpt><trkpt lat="43.3499273" lon="13.1970301"><ele>700.6666666666666</ele><time>2026-03-29T15:01:37.961Z</time></trkpt><trkpt lat="43.3499963" lon="13.19709"><ele>702.8333333333334</ele><time>2026-03-29T15:01:38.989Z</time></trkpt><trkpt lat="43.3500542" lon="13.1971487"><ele>705.0</ele><time>2026-03-29T15:01:39.965Z</time></trkpt><trkpt lat="43.3501157" lon="13.1971978"><ele>704.9999999999999</ele><time>2026-03-29T15:01:40.996Z</time></trkpt><trkpt lat="43.3501812" lon="13.1972534"><ele>705.0</ele><time>2026-03-29T15:01:41.991Z</time></trkpt><trkpt lat="43.3502463" lon="13.1973031"><ele>705.0</ele><time>2026-03-29T15:01:42.99Z</time></trkpt><trkpt lat="43.3503063" lon="13.1973546"><ele>705.0</ele><time>2026-03-29T15:01:43.936Z</time></trkpt><trkpt lat="43.3503701" lon="13.1974017"><ele>705.0</ele><time>2026-03-29T15:01:44.95Z</time></trkpt><trkpt lat="43.3504332" lon="13.1974498"><ele>704.9999999999999</ele><time>2026-03-29T15:01:45.986Z</time></trkpt><trkpt lat="43.350492" lon="13.1975033"><ele>705.0</ele><time>2026-03-29T15:01:46.973Z</time></trkpt><trkpt lat="43.3505526" lon="13.1975511"><ele>704.1666666666666</ele><time>2026-03-29T15:01:47.977Z</time></trkpt><trkpt lat="43.3506166" lon="13.1976002"><ele>703.3333333333334</ele><time>2026-03-29T15:01:48.968Z</time></trkpt><trkpt lat="43.3506805" lon="13.1976444"><ele>702.5</ele><time>2026-03-29T15:01:49.955Z</time></trkpt><trkpt lat="43.3507508" lon="13.1976944"><ele>701.6666666666667</ele><time>2026-03-29T15:01:50.986Z</time></trkpt><trkpt lat="43.3508181" lon="13.1977475"><ele>700.8333333333334</ele><time>2026-03-29T15:01:51.992Z</time></trkpt><trkpt lat="43.3508928" lon="13.1978043"><ele>700.0</ele><time>2026-03-29T15:01:52.984Z</time></trkpt><trkpt lat="43.350968" lon="13.1978549"><ele>700.0</ele><time>2026-03-29T15:01:53.96Z</time></trkpt><trkpt lat="43.3510442" lon="13.1979132"><ele>700.0</ele><time>2026-03-29T15:01:54.974Z</time></trkpt><trkpt lat="43.3511258" lon="13.1979761"><ele>700.0</ele><time>2026-03-29T15:01:55.98Z</time></trkpt><trkpt lat="43.3512091" lon="13.1980393"><ele>700.0</ele><time>2026-03-29T15:01:56.97Z</time></trkpt><trkpt lat="43.351292" lon="13.1980916"><ele>700.0</ele><time>2026-03-29T15:01:57.965Z</time></trkpt><trkpt lat="43.3513768" lon="13.1981436"><ele>699.2</ele><time>2026-03-29T15:01:58.994Z</time></trkpt><trkpt lat="43.3514671" lon="13.1981882"><ele>698.4</ele><time>2026-03-29T15:01:59.979Z</time></trkpt><trkpt lat="43.3515605" lon="13.1982352"><ele>697.5999999999999</ele><time>2026-03-29T15:02:00.962Z</time></trkpt><trkpt lat="43.3516645" lon="13.1982763"><ele>696.8</ele><time>2026-03-29T15:02:01.985Z</time></trkpt><trkpt lat="43.3517757" lon="13.198313"><ele>696.0</ele><time>2026-03-29T15:02:02.999Z</time></trkpt><trkpt lat="43.3518908" lon="13.1983397"><ele>696.0</ele><time>2026-03-29T15:02:03.984Z</time></trkpt><trkpt lat="43.3520041" lon="13.1983596"><ele>696.0</ele><time>2026-03-29T15:02:05.005Z</time></trkpt><trkpt lat="43.3521112" lon="13.1983649"><ele>696.0</ele><time>2026-03-29T15:02:05.989Z</time></trkpt><trkpt lat="43.3522162" lon="13.1983662"><ele>696.0</ele><time>2026-03-29T15:02:06.957Z</time></trkpt><trkpt lat="43.3523211" lon="13.1983647"><ele>696.0</ele><time>2026-03-29T15:02:07.936Z</time></trkpt><trkpt lat="43.3524275" lon="13.1983594"><ele>698.0</ele><time>2026-03-29T15:02:08.981Z</time></trkpt><trkpt lat="43.3525268" lon="13.1983387"><ele>700.0</ele><time>2026-03-29T15:02:10.001Z</time></trkpt><trkpt lat="43.3526205" lon="13.1983222"><ele>702.0</ele><time>2026-03-29T15:02:11.014Z</time></trkpt><trkpt lat="43.3527099" lon="13.1983043"><ele>704.0</ele><time>2026-03-29T15:02:11.992Z</time></trkpt><trkpt lat="43.3528053" lon="13.1982908"><ele>706.0</ele><time>2026-03-29T15:02:13.003Z</time></trkpt><trkpt lat="43.3529002" lon="13.1982791"><ele>706.0</ele><time>2026-03-29T15:02:13.983Z</time></trkpt><trkpt lat="43.3530019" lon="13.1982695"><ele>706.0</ele><time>2026-03-29T15:02:14.972Z</time></trkpt><trkpt lat="43.3531123" lon="13.1982618"><ele>706.0</ele><time>2026-03-29T15:02:15.988Z</time></trkpt><trkpt lat="43.3532245" lon="13.1982676"><ele>706.0</ele><time>2026-03-29T15:02:16.966Z</time></trkpt><trkpt lat="43.3533383" lon="13.1982813"><ele>706.0</ele><time>2026-03-29T15:02:17.995Z</time></trkpt><trkpt lat="43.353452" lon="13.1983117"><ele>707.5</ele><time>2026-03-29T15:02:18.959Z</time></trkpt><trkpt lat="43.353564" lon="13.1983573"><ele>709.0</ele><time>2026-03-29T15:02:19.984Z</time></trkpt><trkpt lat="43.3536779" lon="13.1984088"><ele>710.5</ele><time>2026-03-29T15:02:20.986Z</time></trkpt><trkpt lat="43.3537947" lon="13.1984697"><ele>712.0</ele><time>2026-03-29T15:02:21.996Z</time></trkpt><trkpt lat="43.3539094" lon="13.1985333"><ele>714.75</ele><time>2026-03-29T15:02:22.978Z</time></trkpt><trkpt lat="43.3540225" lon="13.1985993"><ele>717.5</ele><time>2026-03-29T15:02:23.986Z</time></trkpt><trkpt lat="43.3541328" lon="13.1986682"><ele>720.25</ele><time>2026-03-29T15:02:25Z</time></trkpt><trkpt lat="43.3542408" lon="13.198737"><ele>723.0</ele><time>2026-03-29T15:02:25.941Z</time></trkpt><trkpt lat="43.35435" lon="13.1988088"><ele>723.0</ele><time>2026-03-29T15:02:26.924Z</time></trkpt><trkpt lat="43.3544542" lon="13.1988832"><ele>723.0</ele><time>2026-03-29T15:02:27.929Z</time></trkpt><trkpt lat="43.3545662" lon="13.1989698"><ele>723.0</ele><time>2026-03-29T15:02:28.925Z</time></trkpt><trkpt lat="43.3546744" lon="13.1990432"><ele>723.0</ele><time>2026-03-29T15:02:29.947Z</time></trkpt><trkpt lat="43.3547703" lon="13.1991072"><ele>721.8</ele><time>2026-03-29T15:02:30.94Z</time></trkpt><trkpt lat="43.3548627" lon="13.1991747"><ele>720.5999999999999</ele><time>2026-03-29T15:02:31.958Z</time></trkpt><trkpt lat="43.3549479" lon="13.1992346"><ele>719.4000000000001</ele><time>2026-03-29T15:02:32.958Z</time></trkpt><trkpt lat="43.3550408" lon="13.1992935"><ele>718.2</ele><time>2026-03-29T15:02:33.992Z</time></trkpt><trkpt lat="43.3551436" lon="13.1993491"><ele>717.0</ele><time>2026-03-29T15:02:34.946Z</time></trkpt><trkpt lat="43.3552492" lon="13.1994059"><ele>717.0</ele><time>2026-03-29T15:02:35.941Z</time></trkpt><trkpt lat="43.3553588" lon="13.1994527"><ele>717.0</ele><time>2026-03-29T15:02:36.949Z</time></trkpt><trkpt lat="43.3554702" lon="13.1995028"><ele>717.0</ele><time>2026-03-29T15:02:37.947Z</time></trkpt><trkpt lat="43.355581" lon="13.1995381"><ele>717.0</ele><time>2026-03-29T15:02:38.989Z</time></trkpt><trkpt lat="43.3556884" lon="13.1995658"><ele>719.0</ele><time>2026-03-29T15:02:39.997Z</time></trkpt><trkpt lat="43.3557972" lon="13.1995998"><ele>721.0</ele><time>2026-03-29T15:02:40.983Z</time></trkpt><trkpt lat="43.3559013" lon="13.1996254"><ele>723.0</ele><time>2026-03-29T15:02:41.971Z</time></trkpt><trkpt lat="43.3559859" lon="13.199645"><ele>725.0</ele><time>2026-03-29T15:02:42.955Z</time></trkpt><trkpt lat="43.3560598" lon="13.199664"><ele>727.0</ele><time>2026-03-29T15:02:43.971Z</time></trkpt><trkpt lat="43.3561348" lon="13.1996792"><ele>727.0</ele><time>2026-03-29T15:02:44.981Z</time></trkpt><trkpt lat="43.3562089" lon="13.1996932"><ele>727.0</ele><time>2026-03-29T15:02:45.962Z</time></trkpt><trkpt lat="43.3562899" lon="13.1997078"><ele>727.0</ele><time>2026-03-29T15:02:46.975Z</time></trkpt><trkpt lat="43.3563599" lon="13.19971"><ele>727.0</ele><time>2026-03-29T15:02:48.001Z</time></trkpt><trkpt lat="43.3564437" lon="13.1996856"><ele>727.0</ele><time>2026-03-29T15:02:48.952Z</time></trkpt><trkpt lat="43.3565254" lon="13.1996428"><ele>727.0</ele><time>2026-03-29T15:02:49.937Z</time></trkpt><trkpt lat="43.3565965" lon="13.1995815"><ele>726.4000000000001</ele><time>2026-03-29T15:02:50.929Z</time></trkpt><trkpt lat="43.356657" lon="13.1994944"><ele>725.8000000000001</ele><time>2026-03-29T15:02:52.005Z</time></trkpt><trkpt lat="43.3567085" lon="13.1993939"><ele>725.2</ele><time>2026-03-29T15:02:53.008Z</time></trkpt><trkpt lat="43.3567621" lon="13.1992847"><ele>724.6</ele><time>2026-03-29T15:02:53.974Z</time></trkpt><trkpt lat="43.3568138" lon="13.1991668"><ele>724.0</ele><time>2026-03-29T15:02:54.932Z</time></trkpt><trkpt lat="43.3568608" lon="13.1990391"><ele>724.8000000000001</ele><time>2026-03-29T15:02:55.95Z</time></trkpt><trkpt lat="43.3568922" lon="13.1989094"><ele>725.6</ele><time>2026-03-29T15:02:56.969Z</time></trkpt><trkpt lat="43.3569229" lon="13.1987896"><ele>726.4</ele><time>2026-03-29T15:02:57.976Z</time></trkpt><trkpt lat="43.3569439" lon="13.1986702"><ele>727.2</ele><time>2026-03-29T15:02:59.004Z</time></trkpt><trkpt lat="43.3569599" lon="13.198575"><ele>728.0</ele><time>2026-03-29T15:02:59.963Z</time></trkpt><trkpt lat="43.3569676" lon="13.19842"><ele>728.0</ele><time>2026-03-29T15:03:01.968Z</time></trkpt><trkpt lat="43.3569725" lon="13.1983073"><ele>728.0</ele><time>2026-03-29T15:03:03.999Z</time></trkpt><trkpt lat="43.3569745" lon="13.1981768"><ele>728.0</ele><time>2026-03-29T15:03:05.988Z</time></trkpt><trkpt lat="43.3569784" lon="13.1980488"><ele>728.0</ele><time>2026-03-29T15:03:07.942Z</time></trkpt><trkpt lat="43.3569715" lon="13.1979456"><ele>728.0</ele><time>2026-03-29T15:03:10.996Z</time></trkpt><trkpt lat="43.3546744" lon="13.1990432"><ele>725.8</ele><time>2026-03-29T15:02:29.947Z</time></trkpt><trkpt lat="43.3547703" lon="13.1991072"><ele>723.5999999999999</ele><time>2026-03-29T15:02:30.94Z</time></trkpt><trkpt lat="43.3548627" lon="13.1991747"><ele>721.4000000000001</ele><time>2026-03-29T15:02:31.958Z</time></trkpt><trkpt lat="43.3549479" lon="13.1992346"><ele>719.2</ele><time>2026-03-29T15:02:32.958Z</time></trkpt><trkpt lat="43.3550408" lon="13.1992935"><ele>717.0</ele><time>2026-03-29T15:02:33.992Z</time></trkpt><trkpt lat="43.3551436" lon="13.1993491"><ele>717.0</ele><time>2026-03-29T15:02:34.946Z</time></trkpt><trkpt lat="43.3552492" lon="13.1994059"><ele>717.0</ele><time>2026-03-29T15:02:35.941Z</time></trkpt><trkpt lat="43.3553588" lon="13.1994527"><ele>717.0</ele><time>2026-03-29T15:02:36.949Z</time></trkpt><trkpt lat="43.3554702" lon="13.1995028"><ele>717.0</ele><time>2026-03-29T15:02:37.947Z</time></trkpt><trkpt lat="43.355581" lon="13.1995381"><ele>719.0</ele><time>2026-03-29T15:02:38.989Z</time></trkpt><trkpt lat="43.3556884" lon="13.1995658"><ele>721.0</ele><time>2026-03-29T15:02:39.997Z</time></trkpt><trkpt lat="43.3557972" lon="13.1995998"><ele>723.0</ele><time>2026-03-29T15:02:40.983Z</time></trkpt><trkpt lat="43.3559013" lon="13.1996254"><ele>725.0</ele><time>2026-03-29T15:02:41.971Z</time></trkpt><trkpt lat="43.3559859" lon="13.199645"><ele>727.0</ele><time>2026-03-29T15:02:42.955Z</time></trkpt><trkpt lat="43.3560598" lon="13.199664"><ele>727.0</ele><time>2026-03-29T15:02:43.971Z</time></trkpt><trkpt lat="43.3561348" lon="13.1996792"><ele>727.0</ele><time>2026-03-29T15:02:44.981Z</time></trkpt><trkpt lat="43.3562089" lon="13.1996932"><ele>727.0</ele><time>2026-03-29T15:02:45.962Z</time></trkpt><trkpt lat="43.3562899" lon="13.1997078"><ele>727.0</ele><time>2026-03-29T15:02:46.975Z</time></trkpt><trkpt lat="43.3563599" lon="13.19971"><ele>727.0</ele><time>2026-03-29T15:02:48.001Z</time></trkpt><trkpt lat="43.3564437" lon="13.1996856"><ele>727.0</ele><time>2026-03-29T15:02:48.952Z</time></trkpt><trkpt lat="43.3565254" lon="13.1996428"><ele>726.4000000000001</ele><time>2026-03-29T15:02:49.937Z</time></trkpt><trkpt lat="43.3565965" lon="13.1995815"><ele>725.8000000000001</ele><time>2026-03-29T15:02:50.929Z</time></trkpt><trkpt lat="43.356657" lon="13.1994944"><ele>725.2</ele><time>2026-03-29T15:02:52.005Z</time></trkpt><trkpt lat="43.3567085" lon="13.1993939"><ele>724.6</ele><time>2026-03-29T15:02:53.008Z</time></trkpt><trkpt lat="43.3567621" lon="13.1992847"><ele>724.0</ele><time>2026-03-29T15:02:53.974Z</time></trkpt><trkpt lat="43.3568138" lon="13.1991668"><ele>724.0</ele><time>2026-03-29T15:02:54.932Z</time></trkpt><trkpt lat="43.3568608" lon="13.1990391"><ele>724.0</ele><time>2026-03-29T15:02:55.95Z</time></trkpt><trkpt lat="43.3568922" lon="13.1989094"><ele>724.0</ele><time>2026-03-29T15:02:56.969Z</time></trkpt><trkpt lat="43.3569229" lon="13.1987896"><ele>724.0</ele><time>2026-03-29T15:02:57.976Z</time></trkpt><trkpt lat="43.3569439" lon="13.1986702"><ele>724.0</ele><time>2026-03-29T15:02:59.004Z</time></trkpt><trkpt lat="43.3569599" lon="13.198575"><ele>724.8000000000001</ele><time>2026-03-29T15:02:59.963Z</time></trkpt><trkpt lat="43.3569676" lon="13.19842"><ele>725.6</ele><time>2026-03-29T15:03:01.968Z</time></trkpt><trkpt lat="43.3569725" lon="13.1983073"><ele>726.4</ele><time>2026-03-29T15:03:03.999Z</time></trkpt><trkpt lat="43.3569745" lon="13.1981768"><ele>727.2</ele><time>2026-03-29T15:03:05.988Z</time></trkpt><trkpt lat="43.3569784" lon="13.1980488"><ele>728.0</ele><time>2026-03-29T15:03:07.942Z</time></trkpt><trkpt lat="43.3569715" lon="13.1979456"><ele>728.0</ele><time>2026-03-29T15:03:10.996Z</time></trkpt><trkpt lat="43.3569815" lon="13.1978198"><ele>728.0</ele><time>2026-03-29T15:03:12.989Z</time></trkpt><trkpt lat="43.3570188" lon="13.1976853"><ele>728.0</ele><time>2026-03-29T15:03:14.999Z</time></trkpt><trkpt lat="43.3571024" lon="13.1975516"><ele>728.0</ele><time>2026-03-29T15:03:16.962Z</time></trkpt><trkpt lat="43.3571531" lon="13.1974684"><ele>728.0</ele><time>2026-03-29T15:03:17.997Z</time></trkpt><trkpt lat="43.3571986" lon="13.1973812"><ele>728.1666666666666</ele><time>2026-03-29T15:03:18.986Z</time></trkpt><trkpt lat="43.3572498" lon="13.1972937"><ele>728.3333333333333</ele><time>2026-03-29T15:03:19.973Z</time></trkpt><trkpt lat="43.3572983" lon="13.1972001"><ele>728.5</ele><time>2026-03-29T15:03:20.931Z</time></trkpt><trkpt lat="43.3573469" lon="13.1970957"><ele>728.6666666666666</ele><time>2026-03-29T15:03:21.989Z</time></trkpt><trkpt lat="43.3573819" lon="13.1969998"><ele>728.8333333333334</ele><time>2026-03-29T15:03:22.983Z</time></trkpt><trkpt lat="43.3574136" lon="13.196922"><ele>729.0</ele><time>2026-03-29T15:03:23.996Z</time></trkpt><trkpt lat="43.3574138" lon="13.1968062"><ele>729.0</ele><time>2026-03-29T15:03:25.974Z</time></trkpt><trkpt lat="43.3573668" lon="13.1967293"><ele>729.0</ele><time>2026-03-29T15:03:27.975Z</time></trkpt><trkpt lat="43.3572963" lon="13.1965934"><ele>729.0</ele><time>2026-03-29T15:03:29.981Z</time></trkpt><trkpt lat="43.3572554" lon="13.1965081"><ele>729.0</ele><time>2026-03-29T15:03:30.973Z</time></trkpt><trkpt lat="43.3572051" lon="13.196422"><ele>729.0</ele><time>2026-03-29T15:03:31.993Z</time></trkpt><trkpt lat="43.357156" lon="13.1963316"><ele>729.0</ele><time>2026-03-29T15:03:32.987Z</time></trkpt><trkpt lat="43.357105" lon="13.1962397"><ele>728.8333333333334</ele><time>2026-03-29T15:03:33.983Z</time></trkpt><trkpt lat="43.3570526" lon="13.1961474"><ele>728.6666666666666</ele><time>2026-03-29T15:03:34.98Z</time></trkpt><trkpt lat="43.3570068" lon="13.196054"><ele>728.5</ele><time>2026-03-29T15:03:35.998Z</time></trkpt><trkpt lat="43.356963" lon="13.1959567"><ele>728.3333333333333</ele><time>2026-03-29T15:03:36.937Z</time></trkpt><trkpt lat="43.356919" lon="13.1958566"><ele>728.1666666666666</ele><time>2026-03-29T15:03:37.999Z</time></trkpt><trkpt lat="43.3568755" lon="13.1957691"><ele>728.0</ele><time>2026-03-29T15:03:38.996Z</time></trkpt><trkpt lat="43.356835" lon="13.1956945"><ele>728.4285714285714</ele><time>2026-03-29T15:03:39.959Z</time></trkpt><trkpt lat="43.3567953" lon="13.1956251"><ele>728.8571428571429</ele><time>2026-03-29T15:03:40.99Z</time></trkpt><trkpt lat="43.3567581" lon="13.1955543"><ele>729.2857142857142</ele><time>2026-03-29T15:03:42.003Z</time></trkpt><trkpt lat="43.3567135" lon="13.1954838"><ele>729.7142857142858</ele><time>2026-03-29T15:03:42.965Z</time></trkpt><trkpt lat="43.3566656" lon="13.1954075"><ele>730.1428571428571</ele><time>2026-03-29T15:03:43.972Z</time></trkpt><trkpt lat="43.3566136" lon="13.1953257"><ele>730.5714285714286</ele><time>2026-03-29T15:03:44.976Z</time></trkpt><trkpt lat="43.3565597" lon="13.1952402"><ele>731.0</ele><time>2026-03-29T15:03:45.999Z</time></trkpt><trkpt lat="43.3565057" lon="13.1951477"><ele>731.0</ele><time>2026-03-29T15:03:46.995Z</time></trkpt><trkpt lat="43.3564615" lon="13.1950646"><ele>731.0</ele><time>2026-03-29T15:03:47.957Z</time></trkpt><trkpt lat="43.3564015" lon="13.1949391"><ele>731.0</ele><time>2026-03-29T15:03:49.999Z</time></trkpt><trkpt lat="43.3563489" lon="13.1948376"><ele>731.0</ele><time>2026-03-29T15:03:52.002Z</time></trkpt><trkpt lat="43.3563066" lon="13.1947555"><ele>731.0</ele><time>2026-03-29T15:03:53.987Z</time></trkpt><trkpt lat="43.3562518" lon="13.1946611"><ele>731.0</ele><time>2026-03-29T15:03:57.004Z</time></trkpt><trkpt lat="43.3562235" lon="13.194574"><ele>729.3333333333333</ele><time>2026-03-29T15:03:59.982Z</time></trkpt><trkpt lat="43.3561581" lon="13.1944694"><ele>727.6666666666666</ele><time>2026-03-29T15:12:36.988Z</time></trkpt><trkpt lat="43.3561132" lon="13.1943632"><ele>726.0</ele><time>2026-03-29T15:12:38.96Z</time></trkpt><trkpt lat="43.3560619" lon="13.1942554"><ele>724.3333333333334</ele><time>2026-03-29T15:12:40.938Z</time></trkpt><trkpt lat="43.3560105" lon="13.1941658"><ele>722.6666666666667</ele><time>2026-03-29T15:12:42.979Z</time></trkpt><trkpt lat="43.3559785" lon="13.1940886"><ele>721.0</ele><time>2026-03-29T15:12:44.978Z</time></trkpt><trkpt lat="43.3559456" lon="13.1940118"><ele>720.8333333333334</ele><time>2026-03-29T15:14:19.973Z</time></trkpt><trkpt lat="43.355893" lon="13.1939204"><ele>720.6666666666667</ele><time>2026-03-29T15:14:21.975Z</time></trkpt><trkpt lat="43.3558245" lon="13.1937946"><ele>720.5</ele><time>2026-03-29T15:14:23.984Z</time></trkpt><trkpt lat="43.3557573" lon="13.193668"><ele>720.3333333333334</ele><time>2026-03-29T15:14:26.009Z</time></trkpt><trkpt lat="43.3557197" lon="13.1935934"><ele>720.1666666666666</ele><time>2026-03-29T15:14:26.998Z</time></trkpt><trkpt lat="43.3556868" lon="13.1935173"><ele>720.0</ele><time>2026-03-29T15:14:27.99Z</time></trkpt><trkpt lat="43.3556261" lon="13.1933874"><ele>720.0</ele><time>2026-03-29T15:14:29.996Z</time></trkpt><trkpt lat="43.3555695" lon="13.1932511"><ele>720.0</ele><time>2026-03-29T15:14:31.987Z</time></trkpt><trkpt lat="43.3555095" lon="13.1931119"><ele>720.0</ele><time>2026-03-29T15:14:33.995Z</time></trkpt><trkpt lat="43.3554496" lon="13.1929845"><ele>720.0</ele><time>2026-03-29T15:14:35.979Z</time></trkpt><trkpt lat="43.3553996" lon="13.1928684"><ele>720.0</ele><time>2026-03-29T15:14:37.994Z</time></trkpt><trkpt lat="43.3553749" lon="13.1927408"><ele>719.1666666666666</ele><time>2026-03-29T15:14:40.005Z</time></trkpt><trkpt lat="43.3553133" lon="13.192585"><ele>718.3333333333334</ele><time>2026-03-29T15:14:41.992Z</time></trkpt><trkpt lat="43.3552796" lon="13.1925033"><ele>717.5</ele><time>2026-03-29T15:14:42.983Z</time></trkpt><trkpt lat="43.3552465" lon="13.1924108"><ele>716.6666666666667</ele><time>2026-03-29T15:14:44.004Z</time></trkpt><trkpt lat="43.3552073" lon="13.1923198"><ele>715.8333333333334</ele><time>2026-03-29T15:14:44.982Z</time></trkpt><trkpt lat="43.3551611" lon="13.192223"><ele>715.0</ele><time>2026-03-29T15:14:46.003Z</time></trkpt><trkpt lat="43.3551115" lon="13.1921222"><ele>714.0</ele><time>2026-03-29T15:14:46.998Z</time></trkpt><trkpt lat="43.3550634" lon="13.1920221"><ele>713.0</ele><time>2026-03-29T15:14:47.998Z</time></trkpt><trkpt lat="43.3550181" lon="13.1919255"><ele>712.0</ele><time>2026-03-29T15:14:48.995Z</time></trkpt><trkpt lat="43.3549747" lon="13.1918368"><ele>711.0</ele><time>2026-03-29T15:14:49.99Z</time></trkpt><trkpt lat="43.354935" lon="13.1917481"><ele>710.0</ele><time>2026-03-29T15:14:50.987Z</time></trkpt><trkpt lat="43.3548979" lon="13.1916539"><ele>709.0</ele><time>2026-03-29T15:14:51.958Z</time></trkpt><trkpt lat="43.3548609" lon="13.1915615"><ele>710.4000000000001</ele><time>2026-03-29T15:14:52.984Z</time></trkpt><trkpt lat="43.3547994" lon="13.1914178"><ele>711.8</ele><time>2026-03-29T15:14:54.982Z</time></trkpt><trkpt lat="43.3547354" lon="13.1912832"><ele>713.2</ele><time>2026-03-29T15:14:56.981Z</time></trkpt><trkpt lat="43.3546793" lon="13.1911841"><ele>714.5999999999999</ele><time>2026-03-29T15:14:58.984Z</time></trkpt><trkpt lat="43.3546228" lon="13.1910816"><ele>716.0</ele><time>2026-03-29T15:15:00.93Z</time></trkpt><trkpt lat="43.3545699" lon="13.1909882"><ele>713.3333333333333</ele><time>2026-03-29T15:15:03.002Z</time></trkpt><trkpt lat="43.3545176" lon="13.1909011"><ele>710.6666666666666</ele><time>2026-03-29T15:15:04.972Z</time></trkpt><trkpt lat="43.3544609" lon="13.1908262"><ele>708.0</ele><time>2026-03-29T15:15:06.954Z</time></trkpt><trkpt lat="43.3544091" lon="13.1907257"><ele>705.3333333333334</ele><time>2026-03-29T15:15:08.938Z</time></trkpt><trkpt lat="43.3543682" lon="13.1906502"><ele>702.6666666666667</ele><time>2026-03-29T15:15:09.973Z</time></trkpt><trkpt lat="43.3542997" lon="13.1905395"><ele>700.0</ele><time>2026-03-29T15:15:11.97Z</time></trkpt><trkpt lat="43.3542367" lon="13.1904416"><ele>699.0</ele><time>2026-03-29T15:15:13.943Z</time></trkpt><trkpt lat="43.3541617" lon="13.1903516"><ele>698.0</ele><time>2026-03-29T15:15:15.967Z</time></trkpt><trkpt lat="43.3541155" lon="13.1902217"><ele>697.0</ele><time>2026-03-29T15:15:17.984Z</time></trkpt><trkpt lat="43.3540989" lon="13.190113"><ele>696.0</ele><time>2026-03-29T15:15:18.973Z</time></trkpt><trkpt lat="43.354072" lon="13.1899943"><ele>695.0</ele><time>2026-03-29T15:15:19.989Z</time></trkpt><trkpt lat="43.3540369" lon="13.1898745"><ele>693.8</ele><time>2026-03-29T15:15:20.961Z</time></trkpt><trkpt lat="43.3540086" lon="13.1897608"><ele>692.6</ele><time>2026-03-29T15:15:21.977Z</time></trkpt><trkpt lat="43.3539846" lon="13.189641"><ele>691.4000000000001</ele><time>2026-03-29T15:15:22.99Z</time></trkpt><trkpt lat="43.3539764" lon="13.1895115"><ele>690.2</ele><time>2026-03-29T15:15:23.969Z</time></trkpt><trkpt lat="43.3539678" lon="13.1893809"><ele>689.0</ele><time>2026-03-29T15:15:24.983Z</time></trkpt><trkpt lat="43.3539665" lon="13.1892638"><ele>689.0</ele><time>2026-03-29T15:15:25.962Z</time></trkpt><trkpt lat="43.3539593" lon="13.1891491"><ele>689.0</ele><time>2026-03-29T15:15:26.964Z</time></trkpt><trkpt lat="43.3539493" lon="13.1890472"><ele>689.0</ele><time>2026-03-29T15:15:27.993Z</time></trkpt><trkpt lat="43.3539471" lon="13.188952"><ele>689.0</ele><time>2026-03-29T15:15:28.996Z</time></trkpt><trkpt lat="43.3539566" lon="13.1888588"><ele>689.0</ele><time>2026-03-29T15:15:29.999Z</time></trkpt><trkpt lat="43.3539899" lon="13.1887813"><ele>689.0</ele><time>2026-03-29T15:15:30.982Z</time></trkpt><trkpt lat="43.3540334" lon="13.1887076"><ele>689.0</ele><time>2026-03-29T15:15:31.998Z</time></trkpt><trkpt lat="43.354104" lon="13.1886516"><ele>685.4000000000001</ele><time>2026-03-29T15:15:32.938Z</time></trkpt><trkpt lat="43.354196" lon="13.1885996"><ele>681.8</ele><time>2026-03-29T15:15:33.986Z</time></trkpt><trkpt lat="43.354299" lon="13.1885433"><ele>678.2</ele><time>2026-03-29T15:15:34.988Z</time></trkpt><trkpt lat="43.3544016" lon="13.1884712"><ele>674.5999999999999</ele><time>2026-03-29T15:15:35.978Z</time></trkpt><trkpt lat="43.3544934" lon="13.1883964"><ele>671.0</ele><time>2026-03-29T15:15:36.992Z</time></trkpt><trkpt lat="43.3545696" lon="13.1883374"><ele>671.0</ele><time>2026-03-29T15:15:37.971Z</time></trkpt><trkpt lat="43.3546253" lon="13.1882864"><ele>671.0</ele><time>2026-03-29T15:15:38.965Z</time></trkpt><trkpt lat="43.3546688" lon="13.1881687"><ele>671.0</ele><time>2026-03-29T15:15:40.964Z</time></trkpt><trkpt lat="43.3546493" lon="13.1880082"><ele>671.0</ele><time>2026-03-29T15:15:42.996Z</time></trkpt><trkpt lat="43.3546351" lon="13.1879143"><ele>671.0</ele><time>2026-03-29T15:15:43.981Z</time></trkpt><trkpt lat="43.3546268" lon="13.1878159"><ele>671.0</ele><time>2026-03-29T15:15:44.985Z</time></trkpt><trkpt lat="43.3546452" lon="13.1877083"><ele>672.5999999999999</ele><time>2026-03-29T15:15:46Z</time></trkpt><trkpt lat="43.3546842" lon="13.1875957"><ele>674.2</ele><time>2026-03-29T15:15:46.996Z</time></trkpt><trkpt lat="43.3547309" lon="13.1874594"><ele>675.8</ele><time>2026-03-29T15:15:47.988Z</time></trkpt><trkpt lat="43.3547778" lon="13.1873089"><ele>677.4000000000001</ele><time>2026-03-29T15:15:49.009Z</time></trkpt><trkpt lat="43.3548371" lon="13.1871569"><ele>679.0</ele><time>2026-03-29T15:15:49.99Z</time></trkpt><trkpt lat="43.3548985" lon="13.1870189"><ele>675.6</ele><time>2026-03-29T15:15:50.996Z</time></trkpt><trkpt lat="43.354958" lon="13.1869032"><ele>672.2</ele><time>2026-03-29T15:15:51.953Z</time></trkpt><trkpt lat="43.3550058" lon="13.1868089"><ele>668.8000000000001</ele><time>2026-03-29T15:15:52.965Z</time></trkpt><trkpt lat="43.355059" lon="13.1866904"><ele>665.4000000000001</ele><time>2026-03-29T15:15:54.976Z</time></trkpt><trkpt lat="43.3550893" lon="13.1866122"><ele>662.0</ele><time>2026-03-29T15:16:11.98Z</time></trkpt><trkpt lat="43.3551726" lon="13.1865104"><ele>662.0</ele><time>2026-03-29T15:16:13.986Z</time></trkpt><trkpt lat="43.3552239" lon="13.1864554"><ele>662.0</ele><time>2026-03-29T15:16:14.983Z</time></trkpt><trkpt lat="43.3552781" lon="13.1864052"><ele>662.0</ele><time>2026-03-29T15:16:15.98Z</time></trkpt><trkpt lat="43.355352" lon="13.1863649"><ele>662.0</ele><time>2026-03-29T15:16:16.976Z</time></trkpt><trkpt lat="43.3554291" lon="13.1863207"><ele>662.0</ele><time>2026-03-29T15:16:17.998Z</time></trkpt><trkpt lat="43.3555067" lon="13.1862669"><ele>662.0</ele><time>2026-03-29T15:16:18.96Z</time></trkpt><trkpt lat="43.3555617" lon="13.1861888"><ele>662.0</ele><time>2026-03-29T15:16:19.99Z</time></trkpt><trkpt lat="43.3556098" lon="13.1860973"><ele>662.0</ele><time>2026-03-29T15:16:20.967Z</time></trkpt><trkpt lat="43.3556433" lon="13.185979"><ele>662.0</ele><time>2026-03-29T15:16:21.982Z</time></trkpt><trkpt lat="43.3556687" lon="13.1858554"><ele>662.0</ele><time>2026-03-29T15:16:22.976Z</time></trkpt><trkpt lat="43.3557011" lon="13.1857611"><ele>662.0</ele><time>2026-03-29T15:16:23.962Z</time></trkpt><trkpt lat="43.3557388" lon="13.1856851"><ele>662.0</ele><time>2026-03-29T15:16:25.002Z</time></trkpt><trkpt lat="43.35579" lon="13.1856162"><ele>656.2</ele><time>2026-03-29T15:16:25.987Z</time></trkpt><trkpt lat="43.3558635" lon="13.1855417"><ele>650.4000000000001</ele><time>2026-03-29T15:16:27.005Z</time></trkpt><trkpt lat="43.3559476" lon="13.1854661"><ele>644.5999999999999</ele><time>2026-03-29T15:16:27.968Z</time></trkpt><trkpt lat="43.3560318" lon="13.1853944"><ele>638.8</ele><time>2026-03-29T15:16:28.957Z</time></trkpt><trkpt lat="43.356124" lon="13.1853369"><ele>633.0</ele><time>2026-03-29T15:16:29.978Z</time></trkpt><trkpt lat="43.3562209" lon="13.185304"><ele>633.0</ele><time>2026-03-29T15:16:30.968Z</time></trkpt><trkpt lat="43.356305" lon="13.1852777"><ele>633.0</ele><time>2026-03-29T15:16:31.974Z</time></trkpt><trkpt lat="43.3563824" lon="13.1852899"><ele>633.0</ele><time>2026-03-29T15:16:32.993Z</time></trkpt><trkpt lat="43.3564636" lon="13.1853261"><ele>633.0</ele><time>2026-03-29T15:16:33.985Z</time></trkpt><trkpt lat="43.35654" lon="13.1853741"><ele>633.0</ele><time>2026-03-29T15:16:34.97Z</time></trkpt><trkpt lat="43.3566176" lon="13.1854376"><ele>633.0</ele><time>2026-03-29T15:16:35.989Z</time></trkpt><trkpt lat="43.3566913" lon="13.1854999"><ele>636.0</ele><time>2026-03-29T15:16:36.963Z</time></trkpt><trkpt lat="43.3567945" lon="13.1855343"><ele>639.0</ele><time>2026-03-29T15:16:38.972Z</time></trkpt><trkpt lat="43.3568572" lon="13.1854543"><ele>642.0</ele><time>2026-03-29T15:16:40.971Z</time></trkpt><trkpt lat="43.3568693" lon="13.185335"><ele>645.0</ele><time>2026-03-29T15:16:41.968Z</time></trkpt><trkpt lat="43.356867" lon="13.1851848"><ele>648.0</ele><time>2026-03-29T15:16:42.985Z</time></trkpt><trkpt lat="43.3568675" lon="13.185034"><ele>648.0</ele><time>2026-03-29T15:16:43.98Z</time></trkpt><trkpt lat="43.3568653" lon="13.1848844"><ele>648.0</ele><time>2026-03-29T15:16:44.971Z</time></trkpt><trkpt lat="43.3568674" lon="13.1847269"><ele>648.0</ele><time>2026-03-29T15:16:45.982Z</time></trkpt><trkpt lat="43.3568736" lon="13.1845701"><ele>648.0</ele><time>2026-03-29T15:16:46.98Z</time></trkpt><trkpt lat="43.3568719" lon="13.184438"><ele>648.0</ele><time>2026-03-29T15:16:47.979Z</time></trkpt><trkpt lat="43.3568696" lon="13.1843195"><ele>645.0</ele><time>2026-03-29T15:16:48.945Z</time></trkpt><trkpt lat="43.3568729" lon="13.1842008"><ele>642.0</ele><time>2026-03-29T15:16:49.947Z</time></trkpt><trkpt lat="43.356889" lon="13.1840786"><ele>639.0</ele><time>2026-03-29T15:16:50.938Z</time></trkpt><trkpt lat="43.3569231" lon="13.1839693"><ele>636.0</ele><time>2026-03-29T15:16:51.968Z</time></trkpt><trkpt lat="43.3569637" lon="13.1838721"><ele>633.0</ele><time>2026-03-29T15:16:52.938Z</time></trkpt><trkpt lat="43.3570188" lon="13.1837759"><ele>630.0</ele><time>2026-03-29T15:16:53.943Z</time></trkpt><trkpt lat="43.3570852" lon="13.1836629"><ele>627.0</ele><time>2026-03-29T15:16:54.957Z</time></trkpt><trkpt lat="43.3571672" lon="13.1835327"><ele>624.0</ele><time>2026-03-29T15:16:55.951Z</time></trkpt><trkpt lat="43.3572518" lon="13.1834029"><ele>621.0</ele><time>2026-03-29T15:16:56.947Z</time></trkpt><trkpt lat="43.3573367" lon="13.1833051"><ele>618.0</ele><time>2026-03-29T15:16:57.949Z</time></trkpt><trkpt lat="43.3574162" lon="13.1832229"><ele>618.3333333333334</ele><time>2026-03-29T15:16:58.959Z</time></trkpt><trkpt lat="43.3575037" lon="13.183137"><ele>618.6666666666666</ele><time>2026-03-29T15:16:59.964Z</time></trkpt><trkpt lat="43.3575798" lon="13.1830605"><ele>619.0</ele><time>2026-03-29T15:17:00.957Z</time></trkpt><trkpt lat="43.3576513" lon="13.1830105"><ele>619.3333333333333</ele><time>2026-03-29T15:17:01.966Z</time></trkpt><trkpt lat="43.3577276" lon="13.18301"><ele>619.6666666666666</ele><time>2026-03-29T15:17:02.962Z</time></trkpt><trkpt lat="43.3578066" lon="13.1830392"><ele>620.0</ele><time>2026-03-29T15:17:03.969Z</time></trkpt><trkpt lat="43.3578909" lon="13.1830971"><ele>625.75</ele><time>2026-03-29T15:17:04.962Z</time></trkpt><trkpt lat="43.3580007" lon="13.1831816"><ele>631.5</ele><time>2026-03-29T15:17:05.951Z</time></trkpt><trkpt lat="43.3581223" lon="13.1832431"><ele>637.25</ele><time>2026-03-29T15:17:06.978Z</time></trkpt><trkpt lat="43.3582281" lon="13.1832969"><ele>643.0</ele><time>2026-03-29T15:17:07.962Z</time></trkpt><trkpt lat="43.3583247" lon="13.1833471"><ele>643.8</ele><time>2026-03-29T15:17:08.959Z</time></trkpt><trkpt lat="43.3583993" lon="13.1833684"><ele>644.5999999999999</ele><time>2026-03-29T15:17:09.949Z</time></trkpt><trkpt lat="43.3585094" lon="13.1833096"><ele>645.4000000000001</ele><time>2026-03-29T15:17:11.954Z</time></trkpt><trkpt lat="43.3585391" lon="13.1832023"><ele>646.2</ele><time>2026-03-29T15:17:12.966Z</time></trkpt><trkpt lat="43.3585458" lon="13.1830768"><ele>647.0</ele><time>2026-03-29T15:17:13.97Z</time></trkpt><trkpt lat="43.3585484" lon="13.182933"><ele>643.2</ele><time>2026-03-29T15:17:14.949Z</time></trkpt><trkpt lat="43.3585534" lon="13.1827977"><ele>639.4000000000001</ele><time>2026-03-29T15:17:15.991Z</time></trkpt><trkpt lat="43.358572" lon="13.1826764"><ele>635.5999999999999</ele><time>2026-03-29T15:17:16.959Z</time></trkpt><trkpt lat="43.3585891" lon="13.1825403"><ele>631.8</ele><time>2026-03-29T15:17:17.94Z</time></trkpt><trkpt lat="43.3586169" lon="13.1824171"><ele>628.0</ele><time>2026-03-29T15:17:18.953Z</time></trkpt><trkpt lat="43.3586477" lon="13.1822783"><ele>623.1999999999999</ele><time>2026-03-29T15:17:19.965Z</time></trkpt><trkpt lat="43.3586767" lon="13.1821422"><ele>618.4</ele><time>2026-03-29T15:17:20.973Z</time></trkpt><trkpt lat="43.3587062" lon="13.1820114"><ele>613.5999999999999</ele><time>2026-03-29T15:17:21.934Z</time></trkpt><trkpt lat="43.3587333" lon="13.181874"><ele>608.8</ele><time>2026-03-29T15:17:22.962Z</time></trkpt><trkpt lat="43.3587672" lon="13.1817481"><ele>604.0</ele><time>2026-03-29T15:17:23.975Z</time></trkpt><trkpt lat="43.3587988" lon="13.181608"><ele>600.2</ele><time>2026-03-29T15:17:24.973Z</time></trkpt><trkpt lat="43.3588348" lon="13.1814643"><ele>596.4</ele><time>2026-03-29T15:17:25.939Z</time></trkpt><trkpt lat="43.3588605" lon="13.1813106"><ele>592.6</ele><time>2026-03-29T15:17:26.938Z</time></trkpt><trkpt lat="43.3588859" lon="13.1811627"><ele>588.8</ele><time>2026-03-29T15:17:27.979Z</time></trkpt><trkpt lat="43.358913" lon="13.18102"><ele>585.0</ele><time>2026-03-29T15:17:28.973Z</time></trkpt><trkpt lat="43.3589387" lon="13.1808857"><ele>589.6</ele><time>2026-03-29T15:17:29.958Z</time></trkpt><trkpt lat="43.3589703" lon="13.1807515"><ele>594.2</ele><time>2026-03-29T15:17:30.959Z</time></trkpt><trkpt lat="43.358997" lon="13.1806117"><ele>598.8</ele><time>2026-03-29T15:17:31.948Z</time></trkpt><trkpt lat="43.3590299" lon="13.1804822"><ele>603.4</ele><time>2026-03-29T15:17:32.985Z</time></trkpt><trkpt lat="43.3590669" lon="13.1803481"><ele>608.0</ele><time>2026-03-29T15:17:33.978Z</time></trkpt><trkpt lat="43.359106" lon="13.1802107"><ele>608.0</ele><time>2026-03-29T15:17:34.937Z</time></trkpt><trkpt lat="43.3591471" lon="13.1800713"><ele>608.0</ele><time>2026-03-29T15:17:35.968Z</time></trkpt><trkpt lat="43.3591866" lon="13.1799395"><ele>608.0</ele><time>2026-03-29T15:17:36.96Z</time></trkpt><trkpt lat="43.3592238" lon="13.1798133"><ele>608.0</ele><time>2026-03-29T15:17:37.98Z</time></trkpt><trkpt lat="43.35927" lon="13.1796966"><ele>608.0</ele><time>2026-03-29T15:17:38.955Z</time></trkpt><trkpt lat="43.3593235" lon="13.1795935"><ele>604.1666666666666</ele><time>2026-03-29T15:17:39.954Z</time></trkpt><trkpt lat="43.3593768" lon="13.179508"><ele>600.3333333333333</ele><time>2026-03-29T15:17:40.959Z</time></trkpt><trkpt lat="43.3594326" lon="13.1794389"><ele>596.5</ele><time>2026-03-29T15:17:41.964Z</time></trkpt><trkpt lat="43.3594897" lon="13.1793861"><ele>592.6666666666666</ele><time>2026-03-29T15:17:42.955Z</time></trkpt><trkpt lat="43.3595524" lon="13.1793595"><ele>588.8333333333334</ele><time>2026-03-29T15:17:43.962Z</time></trkpt><trkpt lat="43.3596367" lon="13.1793663"><ele>585.0</ele><time>2026-03-29T15:17:44.962Z</time></trkpt><trkpt lat="43.3597291" lon="13.1793949"><ele>584.8</ele><time>2026-03-29T15:17:45.956Z</time></trkpt><trkpt lat="43.3598266" lon="13.179426"><ele>584.6</ele><time>2026-03-29T15:17:46.945Z</time></trkpt><trkpt lat="43.3599257" lon="13.1794533"><ele>584.4</ele><time>2026-03-29T15:17:47.945Z</time></trkpt><trkpt lat="43.3600132" lon="13.1794911"><ele>584.2</ele><time>2026-03-29T15:17:48.932Z</time></trkpt><trkpt lat="43.3600977" lon="13.1795294"><ele>584.0</ele><time>2026-03-29T15:17:49.945Z</time></trkpt><trkpt lat="43.3601854" lon="13.1795585"><ele>584.0</ele><time>2026-03-29T15:17:50.939Z</time></trkpt><trkpt lat="43.3602708" lon="13.1796071"><ele>584.0</ele><time>2026-03-29T15:17:51.935Z</time></trkpt><trkpt lat="43.3603393" lon="13.179658"><ele>584.0</ele><time>2026-03-29T15:17:52.934Z</time></trkpt><trkpt lat="43.3604014" lon="13.179693"><ele>584.0</ele><time>2026-03-29T15:17:53.935Z</time></trkpt><trkpt lat="43.3604683" lon="13.1797239"><ele>584.0</ele><time>2026-03-29T15:17:54.954Z</time></trkpt><trkpt lat="43.3605321" lon="13.1797864"><ele>584.0</ele><time>2026-03-29T15:17:55.943Z</time></trkpt><trkpt lat="43.3606234" lon="13.1797906"><ele>583.6666666666666</ele><time>2026-03-29T15:17:57.975Z</time></trkpt><trkpt lat="43.3606808" lon="13.1797394"><ele>583.3333333333333</ele><time>2026-03-29T15:17:58.939Z</time></trkpt><trkpt lat="43.3607388" lon="13.1796801"><ele>583.0</ele><time>2026-03-29T15:17:59.933Z</time></trkpt><trkpt lat="43.3607995" lon="13.1796213"><ele>582.6666666666666</ele><time>2026-03-29T15:18:00.946Z</time></trkpt><trkpt lat="43.3608764" lon="13.1796021"><ele>582.3333333333334</ele><time>2026-03-29T15:18:01.961Z</time></trkpt><trkpt lat="43.3609561" lon="13.1796272"><ele>582.0</ele><time>2026-03-29T15:18:02.934Z</time></trkpt><trkpt lat="43.3610335" lon="13.1796522"><ele>582.0</ele><time>2026-03-29T15:18:03.942Z</time></trkpt><trkpt lat="43.3611099" lon="13.1796648"><ele>582.0</ele><time>2026-03-29T15:18:04.935Z</time></trkpt><trkpt lat="43.3612255" lon="13.1796545"><ele>582.0</ele><time>2026-03-29T15:18:06.977Z</time></trkpt><trkpt lat="43.3612789" lon="13.1795957"><ele>582.0</ele><time>2026-03-29T15:18:07.933Z</time></trkpt><trkpt lat="43.3613135" lon="13.1795102"><ele>582.0</ele><time>2026-03-29T15:18:08.961Z</time></trkpt><trkpt lat="43.3613223" lon="13.1794023"><ele>582.0</ele><time>2026-03-29T15:18:09.972Z</time></trkpt><trkpt lat="43.3613347" lon="13.1792571"><ele>582.0</ele><time>2026-03-29T15:18:10.931Z</time></trkpt><trkpt lat="43.3613612" lon="13.1791135"><ele>582.0</ele><time>2026-03-29T15:18:11.936Z</time></trkpt><trkpt lat="43.3613949" lon="13.1789607"><ele>582.0</ele><time>2026-03-29T15:18:12.945Z</time></trkpt><trkpt lat="43.3614259" lon="13.1787956"><ele>582.0</ele><time>2026-03-29T15:18:13.94Z</time></trkpt><trkpt lat="43.3614493" lon="13.1786062"><ele>591.75</ele><time>2026-03-29T15:18:14.946Z</time></trkpt><trkpt lat="43.3614639" lon="13.1784179"><ele>601.5</ele><time>2026-03-29T15:18:15.993Z</time></trkpt><trkpt lat="43.3614684" lon="13.1782452"><ele>611.25</ele><time>2026-03-29T15:18:16.929Z</time></trkpt><trkpt lat="43.3614682" lon="13.178078"><ele>621.0</ele><time>2026-03-29T15:18:17.933Z</time></trkpt><trkpt lat="43.361453" lon="13.1778944"><ele>621.0</ele><time>2026-03-29T15:18:18.933Z</time></trkpt><trkpt lat="43.3614187" lon="13.1776969"><ele>621.0</ele><time>2026-03-29T15:18:19.937Z</time></trkpt><trkpt lat="43.361376" lon="13.1775225"><ele>621.0</ele><time>2026-03-29T15:18:20.945Z</time></trkpt><trkpt lat="43.3613419" lon="13.1773915"><ele>621.0</ele><time>2026-03-29T15:18:21.933Z</time></trkpt><trkpt lat="43.3613189" lon="13.1772829"><ele>619.0</ele><time>2026-03-29T15:18:22.935Z</time></trkpt><trkpt lat="43.3613176" lon="13.1771912"><ele>617.0</ele><time>2026-03-29T15:18:23.983Z</time></trkpt><trkpt lat="43.3613266" lon="13.1771053"><ele>615.0</ele><time>2026-03-29T15:18:24.93Z</time></trkpt><trkpt lat="43.3613491" lon="13.1769837"><ele>613.0</ele><time>2026-03-29T15:18:25.939Z</time></trkpt><trkpt lat="43.3613845" lon="13.1768397"><ele>611.0</ele><time>2026-03-29T15:18:26.938Z</time></trkpt><trkpt lat="43.3614243" lon="13.1767081"><ele>609.0</ele><time>2026-03-29T15:18:27.943Z</time></trkpt><trkpt lat="43.361472" lon="13.1765861"><ele>605.4</ele><time>2026-03-29T15:18:28.948Z</time></trkpt><trkpt lat="43.3615368" lon="13.1764969"><ele>601.8</ele><time>2026-03-29T15:18:29.942Z</time></trkpt><trkpt lat="43.3616188" lon="13.176425"><ele>598.2</ele><time>2026-03-29T15:18:30.94Z</time></trkpt><trkpt lat="43.3617149" lon="13.1763463"><ele>594.6</ele><time>2026-03-29T15:18:31.993Z</time></trkpt><trkpt lat="43.3618196" lon="13.1762737"><ele>591.0</ele><time>2026-03-29T15:18:32.944Z</time></trkpt><trkpt lat="43.3619235" lon="13.1762038"><ele>591.0</ele><time>2026-03-29T15:18:33.938Z</time></trkpt><trkpt lat="43.362025" lon="13.1761547"><ele>591.0</ele><time>2026-03-29T15:18:34.935Z</time></trkpt><trkpt lat="43.3621181" lon="13.1761112"><ele>591.0</ele><time>2026-03-29T15:18:35.935Z</time></trkpt><trkpt lat="43.3622017" lon="13.1760968"><ele>591.0</ele><time>2026-03-29T15:18:36.938Z</time></trkpt><trkpt lat="43.3622849" lon="13.1761157"><ele>591.0</ele><time>2026-03-29T15:18:37.943Z</time></trkpt><trkpt lat="43.3623505" lon="13.1761469"><ele>591.0</ele><time>2026-03-29T15:18:38.932Z</time></trkpt><trkpt lat="43.3624607" lon="13.1762261"><ele>590.8</ele><time>2026-03-29T15:18:40.942Z</time></trkpt><trkpt lat="43.3625254" lon="13.1762908"><ele>590.6</ele><time>2026-03-29T15:18:41.942Z</time></trkpt><trkpt lat="43.362611" lon="13.1763639"><ele>590.4</ele><time>2026-03-29T15:18:42.933Z</time></trkpt><trkpt lat="43.3626986" lon="13.1764287"><ele>590.2</ele><time>2026-03-29T15:18:43.958Z</time></trkpt><trkpt lat="43.3627909" lon="13.1765058"><ele>590.0</ele><time>2026-03-29T15:18:44.938Z</time></trkpt><trkpt lat="43.3628699" lon="13.1765818"><ele>588.8</ele><time>2026-03-29T15:18:45.966Z</time></trkpt><trkpt lat="43.362942" lon="13.1766599"><ele>587.6</ele><time>2026-03-29T15:18:46.933Z</time></trkpt><trkpt lat="43.363005" lon="13.1767297"><ele>586.4</ele><time>2026-03-29T15:18:47.945Z</time></trkpt><trkpt lat="43.3630747" lon="13.1768019"><ele>585.2</ele><time>2026-03-29T15:18:48.94Z</time></trkpt><trkpt lat="43.3631573" lon="13.1768923"><ele>584.0</ele><time>2026-03-29T15:18:49.993Z</time></trkpt><trkpt lat="43.3632385" lon="13.1769827"><ele>584.0</ele><time>2026-03-29T15:18:50.952Z</time></trkpt><trkpt lat="43.3633186" lon="13.177069"><ele>584.0</ele><time>2026-03-29T15:18:51.955Z</time></trkpt><trkpt lat="43.3633946" lon="13.1771572"><ele>584.0</ele><time>2026-03-29T15:18:52.946Z</time></trkpt><trkpt lat="43.3634664" lon="13.1772435"><ele>584.0</ele><time>2026-03-29T15:18:53.948Z</time></trkpt><trkpt lat="43.3635376" lon="13.1773181"><ele>584.0</ele><time>2026-03-29T15:18:54.949Z</time></trkpt><trkpt lat="43.3635949" lon="13.1773807"><ele>586.4285714285714</ele><time>2026-03-29T15:18:55.954Z</time></trkpt><trkpt lat="43.3636438" lon="13.1774445"><ele>588.8571428571429</ele><time>2026-03-29T15:18:56.958Z</time></trkpt><trkpt lat="43.3637122" lon="13.1775334"><ele>591.2857142857142</ele><time>2026-03-29T15:18:58.949Z</time></trkpt><trkpt lat="43.3637419" lon="13.177627"><ele>593.7142857142858</ele><time>2026-03-29T15:19:01.944Z</time></trkpt><trkpt lat="43.3637546" lon="13.1777169"><ele>596.1428571428572</ele><time>2026-03-29T15:19:21.941Z</time></trkpt><trkpt lat="43.3636993" lon="13.1777946"><ele>598.5714285714286</ele><time>2026-03-29T15:19:23.986Z</time></trkpt><trkpt lat="43.3636573" lon="13.1778659"><ele>601.0</ele><time>2026-03-29T15:19:24.961Z</time></trkpt><trkpt lat="43.3636229" lon="13.1779425"><ele>601.0</ele><time>2026-03-29T15:19:25.936Z</time></trkpt><trkpt lat="43.3635878" lon="13.1780316"><ele>601.0</ele><time>2026-03-29T15:19:26.933Z</time></trkpt><trkpt lat="43.363555" lon="13.1781515"><ele>601.0</ele><time>2026-03-29T15:19:27.963Z</time></trkpt><trkpt lat="43.3635404" lon="13.1782928"><ele>601.0</ele><time>2026-03-29T15:19:28.988Z</time></trkpt><trkpt lat="43.3635394" lon="13.1784307"><ele>601.0</ele><time>2026-03-29T15:19:29.951Z</time></trkpt><trkpt lat="43.3635436" lon="13.1785767"><ele>603.6</ele><time>2026-03-29T15:19:30.937Z</time></trkpt><trkpt lat="43.3635475" lon="13.1787176"><ele>606.2</ele><time>2026-03-29T15:19:31.947Z</time></trkpt><trkpt lat="43.3635448" lon="13.1788716"><ele>608.8</ele><time>2026-03-29T15:19:32.969Z</time></trkpt><trkpt lat="43.3635438" lon="13.1790231"><ele>611.4</ele><time>2026-03-29T15:19:33.976Z</time></trkpt><trkpt lat="43.3635442" lon="13.1791789"><ele>614.0</ele><time>2026-03-29T15:19:34.935Z</time></trkpt><trkpt lat="43.3635485" lon="13.1793386"><ele>616.8</ele><time>2026-03-29T15:19:35.963Z</time></trkpt><trkpt lat="43.3635521" lon="13.179501"><ele>619.5999999999999</ele><time>2026-03-29T15:19:36.981Z</time></trkpt><trkpt lat="43.3635583" lon="13.1796547"><ele>622.4</ele><time>2026-03-29T15:19:37.983Z</time></trkpt><trkpt lat="43.3635648" lon="13.1798"><ele>625.1999999999999</ele><time>2026-03-29T15:19:38.948Z</time></trkpt><trkpt lat="43.3635705" lon="13.1799495"><ele>628.0</ele><time>2026-03-29T15:19:39.942Z</time></trkpt><trkpt lat="43.3635811" lon="13.1801051"><ele>631.0</ele><time>2026-03-29T15:19:41.035Z</time></trkpt><trkpt lat="43.3635901" lon="13.1802737"><ele>634.0</ele><time>2026-03-29T15:19:41.955Z</time></trkpt><trkpt lat="43.3635936" lon="13.1804409"><ele>637.0</ele><time>2026-03-29T15:19:42.986Z</time></trkpt><trkpt lat="43.363602" lon="13.1806012"><ele>640.0</ele><time>2026-03-29T15:19:43.938Z</time></trkpt><trkpt lat="43.3636155" lon="13.1807651"><ele>643.75</ele><time>2026-03-29T15:19:44.938Z</time></trkpt><trkpt lat="43.3636267" lon="13.1809177"><ele>647.5</ele><time>2026-03-29T15:19:45.949Z</time></trkpt><trkpt lat="43.3636505" lon="13.1810842"><ele>651.25</ele><time>2026-03-29T15:19:46.983Z</time></trkpt><trkpt lat="43.3636801" lon="13.1812437"><ele>655.0</ele><time>2026-03-29T15:19:47.995Z</time></trkpt><trkpt lat="43.3637124" lon="13.1814068"><ele>658.5</ele><time>2026-03-29T15:19:48.927Z</time></trkpt><trkpt lat="43.363752" lon="13.181577"><ele>662.0</ele><time>2026-03-29T15:19:49.952Z</time></trkpt><trkpt lat="43.3637911" lon="13.181743"><ele>665.5</ele><time>2026-03-29T15:19:50.934Z</time></trkpt><trkpt lat="43.3638253" lon="13.1819021"><ele>669.0</ele><time>2026-03-29T15:19:51.988Z</time></trkpt><trkpt lat="43.3638576" lon="13.1820621"><ele>660.75</ele><time>2026-03-29T15:19:52.964Z</time></trkpt><trkpt lat="43.3638887" lon="13.1822267"><ele>652.5</ele><time>2026-03-29T15:19:53.931Z</time></trkpt><trkpt lat="43.3639187" lon="13.1823883"><ele>644.25</ele><time>2026-03-29T15:19:54.96Z</time></trkpt><trkpt lat="43.3639567" lon="13.1825559"><ele>636.0</ele><time>2026-03-29T15:19:55.965Z</time></trkpt><trkpt lat="43.3639923" lon="13.1827188"><ele>636.0</ele><time>2026-03-29T15:19:56.989Z</time></trkpt><trkpt lat="43.3640253" lon="13.1828737"><ele>636.0</ele><time>2026-03-29T15:19:57.956Z</time></trkpt><trkpt lat="43.3640584" lon="13.1830378"><ele>636.0</ele><time>2026-03-29T15:19:58.986Z</time></trkpt><trkpt lat="43.3641048" lon="13.1832049"><ele>636.0</ele><time>2026-03-29T15:20:00.008Z</time></trkpt><trkpt lat="43.3641514" lon="13.1833709"><ele>642.25</ele><time>2026-03-29T15:20:00.971Z</time></trkpt><trkpt lat="43.3641972" lon="13.1835352"><ele>648.5</ele><time>2026-03-29T15:20:01.978Z</time></trkpt><trkpt lat="43.3642496" lon="13.1837005"><ele>654.75</ele><time>2026-03-29T15:20:02.973Z</time></trkpt><trkpt lat="43.3643076" lon="13.1838698"><ele>661.0</ele><time>2026-03-29T15:20:03.996Z</time></trkpt><trkpt lat="43.3643713" lon="13.1840483"><ele>666.75</ele><time>2026-03-29T15:20:04.955Z</time></trkpt><trkpt lat="43.3644296" lon="13.1842304"><ele>672.5</ele><time>2026-03-29T15:20:05.95Z</time></trkpt><trkpt lat="43.3644895" lon="13.18441"><ele>678.25</ele><time>2026-03-29T15:20:06.932Z</time></trkpt><trkpt lat="43.3645505" lon="13.1845888"><ele>684.0</ele><time>2026-03-29T15:20:07.995Z</time></trkpt><trkpt lat="43.3646114" lon="13.1847681"><ele>690.0</ele><time>2026-03-29T15:20:08.937Z</time></trkpt><trkpt lat="43.3646779" lon="13.1849499"><ele>696.0</ele><time>2026-03-29T15:20:09.967Z</time></trkpt><trkpt lat="43.3647453" lon="13.1851302"><ele>702.0</ele><time>2026-03-29T15:20:10.946Z</time></trkpt><trkpt lat="43.3648167" lon="13.185315"><ele>708.0</ele><time>2026-03-29T15:20:11.979Z</time></trkpt><trkpt lat="43.3648861" lon="13.1855044"><ele>701.5</ele><time>2026-03-29T15:20:12.989Z</time></trkpt><trkpt lat="43.3649554" lon="13.1856894"><ele>695.0</ele><time>2026-03-29T15:20:13.991Z</time></trkpt><trkpt lat="43.3650281" lon="13.1858689"><ele>688.5</ele><time>2026-03-29T15:20:15.003Z</time></trkpt><trkpt lat="43.3651013" lon="13.1860377"><ele>682.0</ele><time>2026-03-29T15:20:15.988Z</time></trkpt><trkpt lat="43.3651741" lon="13.1862152"><ele>682.0</ele><time>2026-03-29T15:20:16.985Z</time></trkpt><trkpt lat="43.3652463" lon="13.1863967"><ele>682.0</ele><time>2026-03-29T15:20:17.947Z</time></trkpt><trkpt lat="43.3653176" lon="13.1865627"><ele>682.0</ele><time>2026-03-29T15:20:18.977Z</time></trkpt><trkpt lat="43.3653861" lon="13.186733"><ele>682.0</ele><time>2026-03-29T15:20:19.935Z</time></trkpt><trkpt lat="43.3654566" lon="13.1869028"><ele>683.25</ele><time>2026-03-29T15:20:20.998Z</time></trkpt><trkpt lat="43.3655296" lon="13.1870695"><ele>684.5</ele><time>2026-03-29T15:20:21.984Z</time></trkpt><trkpt lat="43.3656049" lon="13.187238"><ele>685.75</ele><time>2026-03-29T15:20:22.972Z</time></trkpt><trkpt lat="43.3656813" lon="13.1874069"><ele>687.0</ele><time>2026-03-29T15:20:23.983Z</time></trkpt><trkpt lat="43.3657559" lon="13.1875767"><ele>687.0</ele><time>2026-03-29T15:20:24.99Z</time></trkpt><trkpt lat="43.3658323" lon="13.1877501"><ele>687.0</ele><time>2026-03-29T15:20:25.992Z</time></trkpt><trkpt lat="43.365902" lon="13.1879216"><ele>687.0</ele><time>2026-03-29T15:20:26.981Z</time></trkpt><trkpt lat="43.3659751" lon="13.1880937"><ele>687.0</ele><time>2026-03-29T15:20:27.976Z</time></trkpt><trkpt lat="43.3660482" lon="13.188261"><ele>693.5</ele><time>2026-03-29T15:20:28.984Z</time></trkpt><trkpt lat="43.3661246" lon="13.1884283"><ele>700.0</ele><time>2026-03-29T15:20:29.985Z</time></trkpt><trkpt lat="43.3662015" lon="13.1886036"><ele>706.5</ele><time>2026-03-29T15:20:30.998Z</time></trkpt><trkpt lat="43.3662786" lon="13.1887822"><ele>713.0</ele><time>2026-03-29T15:20:31.987Z</time></trkpt><trkpt lat="43.3663536" lon="13.1889609"><ele>707.0</ele><time>2026-03-29T15:20:32.958Z</time></trkpt><trkpt lat="43.3664288" lon="13.1891409"><ele>701.0</ele><time>2026-03-29T15:20:33.957Z</time></trkpt><trkpt lat="43.3665031" lon="13.189324"><ele>695.0</ele><time>2026-03-29T15:20:34.993Z</time></trkpt><trkpt lat="43.3665774" lon="13.1895007"><ele>695.0</ele><time>2026-03-29T15:20:35.986Z</time></trkpt><trkpt lat="43.366649" lon="13.1896743"><ele>695.0</ele><time>2026-03-29T15:20:36.979Z</time></trkpt><trkpt lat="43.3667158" lon="13.1898433"><ele>695.0</ele><time>2026-03-29T15:20:38.011Z</time></trkpt><trkpt lat="43.3667824" lon="13.1900077"><ele>695.0</ele><time>2026-03-29T15:20:39Z</time></trkpt><trkpt lat="43.3668448" lon="13.1901669"><ele>700.75</ele><time>2026-03-29T15:20:39.995Z</time></trkpt><trkpt lat="43.366902" lon="13.1903145"><ele>706.5</ele><time>2026-03-29T15:20:40.975Z</time></trkpt><trkpt lat="43.3669479" lon="13.1904589"><ele>712.25</ele><time>2026-03-29T15:20:41.974Z</time></trkpt><trkpt lat="43.3669885" lon="13.190609"><ele>718.0</ele><time>2026-03-29T15:20:43Z</time></trkpt><trkpt lat="43.3670284" lon="13.1907615"><ele>723.25</ele><time>2026-03-29T15:20:43.982Z</time></trkpt><trkpt lat="43.3670717" lon="13.1909185"><ele>728.5</ele><time>2026-03-29T15:20:45.007Z</time></trkpt><trkpt lat="43.3671192" lon="13.1910795"><ele>733.75</ele><time>2026-03-29T15:20:45.998Z</time></trkpt><trkpt lat="43.3671797" lon="13.1912373"><ele>739.0</ele><time>2026-03-29T15:20:46.99Z</time></trkpt><trkpt lat="43.3672617" lon="13.1913767"><ele>732.75</ele><time>2026-03-29T15:20:47.994Z</time></trkpt><trkpt lat="43.3673568" lon="13.1915007"><ele>726.5</ele><time>2026-03-29T15:20:48.988Z</time></trkpt><trkpt lat="43.3674525" lon="13.1916064"><ele>720.25</ele><time>2026-03-29T15:20:49.986Z</time></trkpt><trkpt lat="43.3675456" lon="13.1917248"><ele>714.0</ele><time>2026-03-29T15:20:50.997Z</time></trkpt><trkpt lat="43.3676383" lon="13.1918465"><ele>714.0</ele><time>2026-03-29T15:20:51.992Z</time></trkpt><trkpt lat="43.3677127" lon="13.191983"><ele>714.0</ele><time>2026-03-29T15:20:52.999Z</time></trkpt><trkpt lat="43.3677765" lon="13.1921229"><ele>714.0</ele><time>2026-03-29T15:20:53.991Z</time></trkpt><trkpt lat="43.3678307" lon="13.1922624"><ele>714.0</ele><time>2026-03-29T15:20:54.981Z</time></trkpt><trkpt lat="43.3678811" lon="13.1924049"><ele>712.2</ele><time>2026-03-29T15:20:55.988Z</time></trkpt><trkpt lat="43.367936" lon="13.1925413"><ele>710.4000000000001</ele><time>2026-03-29T15:20:56.971Z</time></trkpt><trkpt lat="43.367999" lon="13.1926698"><ele>708.6</ele><time>2026-03-29T15:20:57.989Z</time></trkpt><trkpt lat="43.3680681" lon="13.1927853"><ele>706.8</ele><time>2026-03-29T15:20:58.986Z</time></trkpt><trkpt lat="43.368138" lon="13.1928953"><ele>705.0</ele><time>2026-03-29T15:20:59.986Z</time></trkpt><trkpt lat="43.3682047" lon="13.1930084"><ele>705.0</ele><time>2026-03-29T15:21:00.978Z</time></trkpt><trkpt lat="43.3682593" lon="13.1931303"><ele>705.0</ele><time>2026-03-29T15:21:01.989Z</time></trkpt><trkpt lat="43.368312" lon="13.1932473"><ele>705.0</ele><time>2026-03-29T15:21:03.035Z</time></trkpt><trkpt lat="43.3683982" lon="13.1934402"><ele>705.0</ele><time>2026-03-29T15:21:04.979Z</time></trkpt><trkpt lat="43.3684306" lon="13.1935229"><ele>705.0</ele><time>2026-03-29T15:21:05.96Z</time></trkpt><trkpt lat="43.3684652" lon="13.1936369"><ele>704.5714285714286</ele><time>2026-03-29T15:21:07.982Z</time></trkpt><trkpt lat="43.3685139" lon="13.193718"><ele>704.1428571428571</ele><time>2026-03-29T15:23:48.992Z</time></trkpt><trkpt lat="43.3685689" lon="13.193769"><ele>703.7142857142858</ele><time>2026-03-29T15:23:52.019Z</time></trkpt><trkpt lat="43.3686307" lon="13.1937909"><ele>703.2857142857142</ele><time>2026-03-29T15:23:59.014Z</time></trkpt><trkpt lat="43.3686992" lon="13.193811"><ele>702.8571428571429</ele><time>2026-03-29T15:24:02.961Z</time></trkpt><trkpt lat="43.3687892" lon="13.1938165"><ele>702.4285714285714</ele><time>2026-03-29T15:24:06.978Z</time></trkpt><trkpt lat="43.368866" lon="13.1938266"><ele>702.0</ele><time>2026-03-29T15:24:09.943Z</time></trkpt><trkpt lat="43.3689349" lon="13.1938534"><ele>702.0</ele><time>2026-03-29T15:24:12.011Z</time></trkpt><trkpt lat="43.3690004" lon="13.1938782"><ele>702.0</ele><time>2026-03-29T15:24:13.968Z</time></trkpt><trkpt lat="43.3690881" lon="13.1939056"><ele>702.0</ele><time>2026-03-29T15:24:15.972Z</time></trkpt><trkpt lat="43.3692089" lon="13.1939489"><ele>702.0</ele><time>2026-03-29T15:24:17.989Z</time></trkpt><trkpt lat="43.3693073" lon="13.1939798"><ele>702.0</ele><time>2026-03-29T15:24:20.016Z</time></trkpt><trkpt lat="43.3694245" lon="13.1940129"><ele>702.1428571428572</ele><time>2026-03-29T15:24:21.992Z</time></trkpt><trkpt lat="43.3694871" lon="13.1940294"><ele>702.2857142857143</ele><time>2026-03-29T15:24:22.964Z</time></trkpt><trkpt lat="43.3695506" lon="13.1940482"><ele>702.4285714285714</ele><time>2026-03-29T15:24:24.007Z</time></trkpt><trkpt lat="43.3696167" lon="13.1940732"><ele>702.5714285714287</ele><time>2026-03-29T15:24:24.981Z</time></trkpt><trkpt lat="43.3696876" lon="13.1941031"><ele>702.7142857142858</ele><time>2026-03-29T15:24:25.996Z</time></trkpt><trkpt lat="43.3697612" lon="13.194133"><ele>702.8571428571429</ele><time>2026-03-29T15:24:27.008Z</time></trkpt><trkpt lat="43.3698359" lon="13.1941603"><ele>703.0</ele><time>2026-03-29T15:24:27.988Z</time></trkpt><trkpt lat="43.3699091" lon="13.1941842"><ele>703.0</ele><time>2026-03-29T15:24:28.965Z</time></trkpt><trkpt lat="43.3699782" lon="13.1942076"><ele>703.0</ele><time>2026-03-29T15:24:29.984Z</time></trkpt><trkpt lat="43.3700409" lon="13.1942258"><ele>703.0</ele><time>2026-03-29T15:24:30.961Z</time></trkpt><trkpt lat="43.3701582" lon="13.1942606"><ele>703.0</ele><time>2026-03-29T15:24:32.963Z</time></trkpt><trkpt lat="43.3702743" lon="13.1942938"><ele>703.0</ele><time>2026-03-29T15:24:34.994Z</time></trkpt><trkpt lat="43.3703856" lon="13.1943336"><ele>703.0</ele><time>2026-03-29T15:24:36.948Z</time></trkpt><trkpt lat="43.3704964" lon="13.1943702"><ele>703.0</ele><time>2026-03-29T15:24:38.977Z</time></trkpt><trkpt lat="43.3706043" lon="13.1944204"><ele>703.0</ele><time>2026-03-29T15:24:41Z</time></trkpt><trkpt lat="43.3706656" lon="13.1944474"><ele>703.0</ele><time>2026-03-29T15:24:41.968Z</time></trkpt><trkpt lat="43.3707259" lon="13.1944766"><ele>703.0</ele><time>2026-03-29T15:24:42.986Z</time></trkpt><trkpt lat="43.3708146" lon="13.1945335"><ele>703.1666666666667</ele><time>2026-03-29T15:24:45.001Z</time></trkpt><trkpt lat="43.3708694" lon="13.194584"><ele>703.3333333333334</ele><time>2026-03-29T15:24:47.976Z</time></trkpt><trkpt lat="43.3709421" lon="13.1945879"><ele>703.5</ele><time>2026-03-29T15:25:17.952Z</time></trkpt><trkpt lat="43.3709976" lon="13.1946505"><ele>703.6666666666666</ele><time>2026-03-29T15:25:24.99Z</time></trkpt><trkpt lat="43.3710772" lon="13.1947229"><ele>703.8333333333333</ele><time>2026-03-29T15:25:25.988Z</time></trkpt><trkpt lat="43.37117" lon="13.1947997"><ele>704.0</ele><time>2026-03-29T15:25:26.995Z</time></trkpt><trkpt lat="43.3712642" lon="13.1948711"><ele>702.6</ele><time>2026-03-29T15:25:27.991Z</time></trkpt><trkpt lat="43.3713621" lon="13.1949235"><ele>701.2</ele><time>2026-03-29T15:25:28.98Z</time></trkpt><trkpt lat="43.3714563" lon="13.1949656"><ele>699.8000000000001</ele><time>2026-03-29T15:25:29.996Z</time></trkpt><trkpt lat="43.3715456" lon="13.1950102"><ele>698.4000000000001</ele><time>2026-03-29T15:25:30.994Z</time></trkpt><trkpt lat="43.3716408" lon="13.1950576"><ele>697.0</ele><time>2026-03-29T15:25:32Z</time></trkpt><trkpt lat="43.3717313" lon="13.1951208"><ele>697.0</ele><time>2026-03-29T15:25:33.001Z</time></trkpt><trkpt lat="43.3718205" lon="13.195185"><ele>697.0</ele><time>2026-03-29T15:25:34.009Z</time></trkpt><trkpt lat="43.3719268" lon="13.1952438"><ele>697.0</ele><time>2026-03-29T15:25:34.996Z</time></trkpt><trkpt lat="43.3720397" lon="13.1953092"><ele>697.0</ele><time>2026-03-29T15:25:36.01Z</time></trkpt><trkpt lat="43.3721443" lon="13.19538"><ele>690.25</ele><time>2026-03-29T15:25:37.001Z</time></trkpt><trkpt lat="43.372249" lon="13.1954442"><ele>683.5</ele><time>2026-03-29T15:25:37.972Z</time></trkpt><trkpt lat="43.3723487" lon="13.195509"><ele>676.75</ele><time>2026-03-29T15:25:38.969Z</time></trkpt><trkpt lat="43.3724535" lon="13.1955779"><ele>670.0</ele><time>2026-03-29T15:25:40.005Z</time></trkpt><trkpt lat="43.3725499" lon="13.1956519"><ele>672.6</ele><time>2026-03-29T15:25:40.989Z</time></trkpt><trkpt lat="43.3726392" lon="13.195725"><ele>675.2</ele><time>2026-03-29T15:25:42.001Z</time></trkpt><trkpt lat="43.3727282" lon="13.1957798"><ele>677.8</ele><time>2026-03-29T15:25:42.959Z</time></trkpt><trkpt lat="43.372819" lon="13.1958175"><ele>680.4</ele><time>2026-03-29T15:25:43.999Z</time></trkpt><trkpt lat="43.3728989" lon="13.1958512"><ele>683.0</ele><time>2026-03-29T15:25:44.947Z</time></trkpt><trkpt lat="43.372973" lon="13.1959265"><ele>678.5999999999999</ele><time>2026-03-29T15:25:45.991Z</time></trkpt><trkpt lat="43.3730465" lon="13.1960182"><ele>674.1999999999999</ele><time>2026-03-29T15:25:47.014Z</time></trkpt><trkpt lat="43.3731223" lon="13.1960919"><ele>669.8</ele><time>2026-03-29T15:25:48.004Z</time></trkpt><trkpt lat="43.3731919" lon="13.196159"><ele>665.4</ele><time>2026-03-29T15:25:49.001Z</time></trkpt><trkpt lat="43.3732743" lon="13.1963091"><ele>661.0</ele><time>2026-03-29T15:25:50.996Z</time></trkpt><trkpt lat="43.3733252" lon="13.1963964"><ele>661.0</ele><time>2026-03-29T15:25:52Z</time></trkpt><trkpt lat="43.3734173" lon="13.1965007"><ele>661.0</ele><time>2026-03-29T15:25:53.989Z</time></trkpt><trkpt lat="43.3735211" lon="13.1966621"><ele>661.0</ele><time>2026-03-29T15:25:56.007Z</time></trkpt><trkpt lat="43.3735565" lon="13.1968291"><ele>661.0</ele><time>2026-03-29T15:25:56.971Z</time></trkpt><trkpt lat="43.3735863" lon="13.1970073"><ele>661.25</ele><time>2026-03-29T15:25:57.984Z</time></trkpt><trkpt lat="43.3736167" lon="13.1971922"><ele>661.5</ele><time>2026-03-29T15:25:58.993Z</time></trkpt><trkpt lat="43.3736514" lon="13.1973911"><ele>661.75</ele><time>2026-03-29T15:25:59.992Z</time></trkpt><trkpt lat="43.3736912" lon="13.1975795"><ele>662.0</ele><time>2026-03-29T15:26:00.979Z</time></trkpt><trkpt lat="43.3737243" lon="13.1977607"><ele>662.0</ele><time>2026-03-29T15:26:01.972Z</time></trkpt><trkpt lat="43.373747" lon="13.1979403"><ele>662.0</ele><time>2026-03-29T15:26:03.001Z</time></trkpt><trkpt lat="43.3737631" lon="13.1981063"><ele>662.0</ele><time>2026-03-29T15:26:03.953Z</time></trkpt><trkpt lat="43.3737749" lon="13.1982675"><ele>662.0</ele><time>2026-03-29T15:26:05.006Z</time></trkpt><trkpt lat="43.3737822" lon="13.1984201"><ele>661.0</ele><time>2026-03-29T15:26:05.98Z</time></trkpt><trkpt lat="43.3737804" lon="13.1985627"><ele>660.0</ele><time>2026-03-29T15:26:06.988Z</time></trkpt><trkpt lat="43.3737784" lon="13.1986823"><ele>659.0</ele><time>2026-03-29T15:26:07.98Z</time></trkpt><trkpt lat="43.3737815" lon="13.1987858"><ele>658.0</ele><time>2026-03-29T15:26:08.977Z</time></trkpt><trkpt lat="43.3738123" lon="13.1989178"><ele>657.0</ele><time>2026-03-29T15:26:10.96Z</time></trkpt><trkpt lat="43.3738849" lon="13.1989735"><ele>654.3333333333334</ele><time>2026-03-29T15:26:12.992Z</time></trkpt><trkpt lat="43.3739648" lon="13.1989953"><ele>651.6666666666666</ele><time>2026-03-29T15:26:14.977Z</time></trkpt><trkpt lat="43.3740508" lon="13.1989012"><ele>649.0</ele><time>2026-03-29T15:26:16.982Z</time></trkpt><trkpt lat="43.3741037" lon="13.1988321"><ele>646.3333333333333</ele><time>2026-03-29T15:26:18.002Z</time></trkpt><trkpt lat="43.3741544" lon="13.1987575"><ele>643.6666666666666</ele><time>2026-03-29T15:26:18.939Z</time></trkpt><trkpt lat="43.3742135" lon="13.1986974"><ele>641.0</ele><time>2026-03-29T15:26:19.994Z</time></trkpt><trkpt lat="43.3742765" lon="13.1986475"><ele>641.0</ele><time>2026-03-29T15:26:20.974Z</time></trkpt><trkpt lat="43.3743415" lon="13.1986135"><ele>641.0</ele><time>2026-03-29T15:26:21.995Z</time></trkpt><trkpt lat="43.3744065" lon="13.1985975"><ele>641.0</ele><time>2026-03-29T15:26:22.996Z</time></trkpt><trkpt lat="43.37447" lon="13.1985891"><ele>641.0</ele><time>2026-03-29T15:26:23.987Z</time></trkpt><trkpt lat="43.3745376" lon="13.1985819"><ele>641.0</ele><time>2026-03-29T15:26:24.988Z</time></trkpt><trkpt lat="43.3746039" lon="13.1985741"><ele>641.0</ele><time>2026-03-29T15:26:26.013Z</time></trkpt><trkpt lat="43.3746699" lon="13.1985616"><ele>641.0</ele><time>2026-03-29T15:26:26.98Z</time></trkpt><trkpt lat="43.3747324" lon="13.1985512"><ele>636.8333333333333</ele><time>2026-03-29T15:26:27.988Z</time></trkpt><trkpt lat="43.3748514" lon="13.1985026"><ele>632.6666666666666</ele><time>2026-03-29T15:26:29.989Z</time></trkpt><trkpt lat="43.3749043" lon="13.1984399"><ele>628.5</ele><time>2026-03-29T15:26:31.004Z</time></trkpt><trkpt lat="43.3749586" lon="13.1983701"><ele>624.3333333333334</ele><time>2026-03-29T15:26:32.005Z</time></trkpt><trkpt lat="43.3750077" lon="13.1982922"><ele>620.1666666666667</ele><time>2026-03-29T15:26:32.978Z</time></trkpt><trkpt lat="43.3750545" lon="13.1982"><ele>616.0</ele><time>2026-03-29T15:26:34.003Z</time></trkpt><trkpt lat="43.3750979" lon="13.1981036"><ele>615.6</ele><time>2026-03-29T15:26:35.006Z</time></trkpt><trkpt lat="43.3751353" lon="13.1980096"><ele>615.2</ele><time>2026-03-29T15:26:35.993Z</time></trkpt><trkpt lat="43.3751574" lon="13.1978499"><ele>614.8</ele><time>2026-03-29T15:26:37.991Z</time></trkpt><trkpt lat="43.3751477" lon="13.1976965"><ele>614.4</ele><time>2026-03-29T15:26:40.003Z</time></trkpt><trkpt lat="43.3751397" lon="13.1975434"><ele>614.0</ele><time>2026-03-29T15:26:41.972Z</time></trkpt><trkpt lat="43.3751249" lon="13.1974147"><ele>612.4</ele><time>2026-03-29T15:26:43.994Z</time></trkpt><trkpt lat="43.3751205" lon="13.1973135"><ele>610.8</ele><time>2026-03-29T15:26:46.007Z</time></trkpt><trkpt lat="43.3751205" lon="13.1972146"><ele>609.2</ele><time>2026-03-29T15:26:48.977Z</time></trkpt><trkpt lat="43.3751812" lon="13.1971158"><ele>607.6</ele><time>2026-03-29T15:26:51.972Z</time></trkpt><trkpt lat="43.3752894" lon="13.1971119"><ele>606.0</ele><time>2026-03-29T15:26:54.006Z</time></trkpt><trkpt lat="43.3754106" lon="13.1971334"><ele>606.0</ele><time>2026-03-29T15:26:55.999Z</time></trkpt><trkpt lat="43.3755181" lon="13.1971264"><ele>606.0</ele><time>2026-03-29T15:26:57.983Z</time></trkpt><trkpt lat="43.3756164" lon="13.1970155"><ele>606.0</ele><time>2026-03-29T15:27:00.003Z</time></trkpt><trkpt lat="43.3756639" lon="13.196957"><ele>606.0</ele><time>2026-03-29T15:27:00.967Z</time></trkpt><trkpt lat="43.3757182" lon="13.1969098"><ele>606.0</ele><time>2026-03-29T15:27:01.998Z</time></trkpt><trkpt lat="43.375827" lon="13.1968294"><ele>602.0</ele><time>2026-03-29T15:27:03.991Z</time></trkpt><trkpt lat="43.3759443" lon="13.1967601"><ele>598.0</ele><time>2026-03-29T15:27:05.982Z</time></trkpt><trkpt lat="43.3760724" lon="13.1967211"><ele>594.0</ele><time>2026-03-29T15:27:08.008Z</time></trkpt><trkpt lat="43.3761503" lon="13.1967138"><ele>590.0</ele><time>2026-03-29T15:27:08.99Z</time></trkpt><trkpt lat="43.3762253" lon="13.1967093"><ele>586.0</ele><time>2026-03-29T15:27:09.94Z</time></trkpt><trkpt lat="43.376301" lon="13.1967062"><ele>583.6666666666667</ele><time>2026-03-29T15:27:10.998Z</time></trkpt><trkpt lat="43.376381" lon="13.196701"><ele>581.3333333333334</ele><time>2026-03-29T15:27:11.986Z</time></trkpt><trkpt lat="43.3764643" lon="13.1966844"><ele>579.0</ele><time>2026-03-29T15:27:13Z</time></trkpt><trkpt lat="43.3765447" lon="13.196675"><ele>576.6666666666666</ele><time>2026-03-29T15:27:13.969Z</time></trkpt><trkpt lat="43.3766177" lon="13.1966766"><ele>574.3333333333333</ele><time>2026-03-29T15:27:14.989Z</time></trkpt><trkpt lat="43.3767025" lon="13.1965967"><ele>572.0</ele><time>2026-03-29T15:27:16.995Z</time></trkpt><trkpt lat="43.376736" lon="13.1964461"><ele>570.8333333333333</ele><time>2026-03-29T15:27:19.002Z</time></trkpt><trkpt lat="43.3767518" lon="13.1963482"><ele>569.6666666666666</ele><time>2026-03-29T15:27:20.99Z</time></trkpt><trkpt lat="43.3767877" lon="13.1962714"><ele>568.5</ele><time>2026-03-29T15:27:22.98Z</time></trkpt><trkpt lat="43.3768765" lon="13.1962401"><ele>567.3333333333334</ele><time>2026-03-29T15:27:24.988Z</time></trkpt><trkpt lat="43.376979" lon="13.1962371"><ele>566.1666666666667</ele><time>2026-03-29T15:27:26.952Z</time></trkpt><trkpt lat="43.3770555" lon="13.1962441"><ele>565.0</ele><time>2026-03-29T15:27:29.959Z</time></trkpt><trkpt lat="43.3771199" lon="13.196259"><ele>565.0</ele><time>2026-03-29T15:27:32.995Z</time></trkpt><trkpt lat="43.3771399" lon="13.1963767"><ele>565.0</ele><time>2026-03-29T15:27:34.963Z</time></trkpt><trkpt lat="43.3771747" lon="13.196544"><ele>565.0</ele><time>2026-03-29T15:27:36.98Z</time></trkpt><trkpt lat="43.3771905" lon="13.1966419"><ele>565.0</ele><time>2026-03-29T15:27:37.987Z</time></trkpt><trkpt lat="43.3772037" lon="13.1967464"><ele>565.0</ele><time>2026-03-29T15:27:39.014Z</time></trkpt><trkpt lat="43.377217" lon="13.1968497"><ele>565.0</ele><time>2026-03-29T15:27:39.969Z</time></trkpt><trkpt lat="43.3772305" lon="13.1969511"><ele>565.3333333333334</ele><time>2026-03-29T15:27:40.989Z</time></trkpt><trkpt lat="43.3772436" lon="13.1970485"><ele>565.6666666666667</ele><time>2026-03-29T15:27:42.015Z</time></trkpt><trkpt lat="43.3772567" lon="13.197146"><ele>566.0</ele><time>2026-03-29T15:27:42.99Z</time></trkpt><trkpt lat="43.3772724" lon="13.1972557"><ele>566.3333333333334</ele><time>2026-03-29T15:27:44.007Z</time></trkpt><trkpt lat="43.3772886" lon="13.1973725"><ele>566.6666666666666</ele><time>2026-03-29T15:27:44.983Z</time></trkpt><trkpt lat="43.3773001" lon="13.1974991"><ele>567.0</ele><time>2026-03-29T15:27:45.983Z</time></trkpt><trkpt lat="43.377302" lon="13.1976288"><ele>566.3333333333334</ele><time>2026-03-29T15:27:46.974Z</time></trkpt><trkpt lat="43.3773044" lon="13.1977539"><ele>565.6666666666666</ele><time>2026-03-29T15:27:48.005Z</time></trkpt><trkpt lat="43.3772904" lon="13.197867"><ele>565.0</ele><time>2026-03-29T15:27:49.003Z</time></trkpt><trkpt lat="43.377271" lon="13.1979749"><ele>564.3333333333333</ele><time>2026-03-29T15:27:49.994Z</time></trkpt><trkpt lat="43.3772469" lon="13.1980823"><ele>563.6666666666666</ele><time>2026-03-29T15:27:50.985Z</time></trkpt><trkpt lat="43.377232" lon="13.198172"><ele>563.0</ele><time>2026-03-29T15:27:51.985Z</time></trkpt><trkpt lat="43.377216" lon="13.1982648"><ele>562.5714285714286</ele><time>2026-03-29T15:27:52.993Z</time></trkpt><trkpt lat="43.3771966" lon="13.1983519"><ele>562.1428571428571</ele><time>2026-03-29T15:27:53.992Z</time></trkpt><trkpt lat="43.3771776" lon="13.1984479"><ele>561.7142857142858</ele><time>2026-03-29T15:27:54.99Z</time></trkpt><trkpt lat="43.3771544" lon="13.1985352"><ele>561.2857142857142</ele><time>2026-03-29T15:27:55.996Z</time></trkpt><trkpt lat="43.3771366" lon="13.198628"><ele>560.8571428571429</ele><time>2026-03-29T15:27:57.003Z</time></trkpt><trkpt lat="43.3771179" lon="13.1987244"><ele>560.4285714285714</ele><time>2026-03-29T15:27:58.009Z</time></trkpt><trkpt lat="43.3771016" lon="13.1988238"><ele>560.0</ele><time>2026-03-29T15:27:58.995Z</time></trkpt><trkpt lat="43.3770877" lon="13.1989284"><ele>561.3333333333333</ele><time>2026-03-29T15:27:59.988Z</time></trkpt><trkpt lat="43.3770785" lon="13.1990335"><ele>562.6666666666666</ele><time>2026-03-29T15:28:01.019Z</time></trkpt><trkpt lat="43.3770748" lon="13.1991447"><ele>564.0</ele><time>2026-03-29T15:28:01.976Z</time></trkpt><trkpt lat="43.3770688" lon="13.1992575"><ele>565.3333333333334</ele><time>2026-03-29T15:28:03.001Z</time></trkpt><trkpt lat="43.3770607" lon="13.1993732"><ele>566.6666666666667</ele><time>2026-03-29T15:28:04.004Z</time></trkpt><trkpt lat="43.3770551" lon="13.199492"><ele>568.0</ele><time>2026-03-29T15:28:04.994Z</time></trkpt><trkpt lat="43.3770467" lon="13.1996095"><ele>568.0</ele><time>2026-03-29T15:28:06.024Z</time></trkpt><trkpt lat="43.3770412" lon="13.1997291"><ele>568.0</ele><time>2026-03-29T15:28:06.996Z</time></trkpt><trkpt lat="43.377041" lon="13.1998516"><ele>568.0</ele><time>2026-03-29T15:28:08.004Z</time></trkpt><trkpt lat="43.3770366" lon="13.1999678"><ele>568.0</ele><time>2026-03-29T15:28:08.996Z</time></trkpt><trkpt lat="43.3770302" lon="13.200077"><ele>568.0</ele><time>2026-03-29T15:28:09.946Z</time></trkpt><trkpt lat="43.377024" lon="13.2001803"><ele>568.0</ele><time>2026-03-29T15:28:10.986Z</time></trkpt><trkpt lat="43.3770216" lon="13.2002929"><ele>568.1666666666667</ele><time>2026-03-29T15:28:11.999Z</time></trkpt><trkpt lat="43.3770147" lon="13.2004014"><ele>568.3333333333334</ele><time>2026-03-29T15:28:12.977Z</time></trkpt><trkpt lat="43.3770093" lon="13.2005129"><ele>568.5</ele><time>2026-03-29T15:28:14.005Z</time></trkpt><trkpt lat="43.3770086" lon="13.2006335"><ele>568.6666666666666</ele><time>2026-03-29T15:28:15.006Z</time></trkpt><trkpt lat="43.3770094" lon="13.2007535"><ele>568.8333333333333</ele><time>2026-03-29T15:28:15.988Z</time></trkpt><trkpt lat="43.3770143" lon="13.2008686"><ele>569.0</ele><time>2026-03-29T15:28:16.986Z</time></trkpt><trkpt lat="43.3770166" lon="13.2009834"><ele>569.6</ele><time>2026-03-29T15:28:17.982Z</time></trkpt><trkpt lat="43.3770193" lon="13.2011034"><ele>570.2</ele><time>2026-03-29T15:28:19.012Z</time></trkpt><trkpt lat="43.3770247" lon="13.2012248"><ele>570.8000000000001</ele><time>2026-03-29T15:28:20.009Z</time></trkpt><trkpt lat="43.3770272" lon="13.2013517"><ele>571.4</ele><time>2026-03-29T15:28:21.008Z</time></trkpt><trkpt lat="43.3770311" lon="13.2014802"><ele>572.0</ele><time>2026-03-29T15:28:21.999Z</time></trkpt><trkpt lat="43.377036" lon="13.2016116"><ele>572.8000000000001</ele><time>2026-03-29T15:28:22.997Z</time></trkpt><trkpt lat="43.3770465" lon="13.2017471"><ele>573.6</ele><time>2026-03-29T15:28:23.994Z</time></trkpt><trkpt lat="43.3770566" lon="13.2018768"><ele>574.4000000000001</ele><time>2026-03-29T15:28:24.997Z</time></trkpt><trkpt lat="43.3770613" lon="13.2020076"><ele>575.2</ele><time>2026-03-29T15:28:25.995Z</time></trkpt><trkpt lat="43.3770666" lon="13.20215"><ele>576.0</ele><time>2026-03-29T15:28:27.005Z</time></trkpt><trkpt lat="43.3770665" lon="13.2022926"><ele>576.8</ele><time>2026-03-29T15:28:28.003Z</time></trkpt><trkpt lat="43.3770682" lon="13.202439"><ele>577.6</ele><time>2026-03-29T15:28:29.007Z</time></trkpt><trkpt lat="43.3770623" lon="13.2025866"><ele>578.4</ele><time>2026-03-29T15:28:30.012Z</time></trkpt><trkpt lat="43.3770517" lon="13.2027246"><ele>579.2</ele><time>2026-03-29T15:28:30.995Z</time></trkpt><trkpt lat="43.377038" lon="13.202856"><ele>580.0</ele><time>2026-03-29T15:28:32.012Z</time></trkpt><trkpt lat="43.3770146" lon="13.2029821"><ele>580.0</ele><time>2026-03-29T15:28:33.01Z</time></trkpt><trkpt lat="43.3769856" lon="13.2031102"><ele>580.0</ele><time>2026-03-29T15:28:33.979Z</time></trkpt><trkpt lat="43.3769501" lon="13.2032368"><ele>580.0</ele><time>2026-03-29T15:28:35.004Z</time></trkpt><trkpt lat="43.3769116" lon="13.2033595"><ele>580.0</ele><time>2026-03-29T15:28:35.972Z</time></trkpt><trkpt lat="43.3768702" lon="13.2034817"><ele>580.0</ele><time>2026-03-29T15:28:37.015Z</time></trkpt><trkpt lat="43.3768278" lon="13.2036078"><ele>580.2</ele><time>2026-03-29T15:28:37.993Z</time></trkpt><trkpt lat="43.3767832" lon="13.2037352"><ele>580.4</ele><time>2026-03-29T15:28:38.989Z</time></trkpt><trkpt lat="43.376739" lon="13.2038624"><ele>580.6</ele><time>2026-03-29T15:28:39.988Z</time></trkpt><trkpt lat="43.3766931" lon="13.2039908"><ele>580.8</ele><time>2026-03-29T15:28:40.987Z</time></trkpt><trkpt lat="43.3766527" lon="13.2041211"><ele>581.0</ele><time>2026-03-29T15:28:41.999Z</time></trkpt><trkpt lat="43.376616" lon="13.2042495"><ele>581.0</ele><time>2026-03-29T15:28:43.007Z</time></trkpt><trkpt lat="43.3765903" lon="13.2043814"><ele>581.0</ele><time>2026-03-29T15:28:44.007Z</time></trkpt><trkpt lat="43.3765705" lon="13.204511"><ele>581.0</ele><time>2026-03-29T15:28:44.978Z</time></trkpt><trkpt lat="43.3765552" lon="13.2046401"><ele>581.0</ele><time>2026-03-29T15:28:46.011Z</time></trkpt><trkpt lat="43.3765497" lon="13.2047664"><ele>581.0</ele><time>2026-03-29T15:28:46.984Z</time></trkpt><trkpt lat="43.3765471" lon="13.2048866"><ele>580.5</ele><time>2026-03-29T15:28:47.982Z</time></trkpt><trkpt lat="43.3765371" lon="13.2049969"><ele>580.0</ele><time>2026-03-29T15:28:48.988Z</time></trkpt><trkpt lat="43.3765269" lon="13.2051048"><ele>579.5</ele><time>2026-03-29T15:28:50.014Z</time></trkpt><trkpt lat="43.3765117" lon="13.2052023"><ele>579.0</ele><time>2026-03-29T15:28:50.98Z</time></trkpt><trkpt lat="43.3764937" lon="13.205297"><ele>578.5</ele><time>2026-03-29T15:28:51.984Z</time></trkpt><trkpt lat="43.3764681" lon="13.2053907"><ele>578.0</ele><time>2026-03-29T15:28:52.99Z</time></trkpt><trkpt lat="43.3764401" lon="13.2054954"><ele>578.0</ele><time>2026-03-29T15:28:53.99Z</time></trkpt><trkpt lat="43.3764058" lon="13.205606"><ele>578.0</ele><time>2026-03-29T15:28:54.983Z</time></trkpt><trkpt lat="43.3763644" lon="13.2057229"><ele>578.0</ele><time>2026-03-29T15:28:55.991Z</time></trkpt><trkpt lat="43.3763126" lon="13.2058406"><ele>578.0</ele><time>2026-03-29T15:28:56.987Z</time></trkpt><trkpt lat="43.3762503" lon="13.2059529"><ele>578.0</ele><time>2026-03-29T15:28:58.001Z</time></trkpt><trkpt lat="43.3761783" lon="13.2060719"><ele>583.25</ele><time>2026-03-29T15:28:58.99Z</time></trkpt><trkpt lat="43.3761134" lon="13.2062027"><ele>588.5</ele><time>2026-03-29T15:28:59.99Z</time></trkpt><trkpt lat="43.3760712" lon="13.2063541"><ele>593.75</ele><time>2026-03-29T15:29:00.993Z</time></trkpt><trkpt lat="43.3760348" lon="13.2065214"><ele>599.0</ele><time>2026-03-29T15:29:02Z</time></trkpt><trkpt lat="43.3759998" lon="13.2066927"><ele>599.0</ele><time>2026-03-29T15:29:02.995Z</time></trkpt><trkpt lat="43.3759605" lon="13.2068559"><ele>599.0</ele><time>2026-03-29T15:29:03.975Z</time></trkpt><trkpt lat="43.3758943" lon="13.2069923"><ele>599.0</ele><time>2026-03-29T15:29:04.998Z</time></trkpt><trkpt lat="43.375811" lon="13.2071188"><ele>599.0</ele><time>2026-03-29T15:29:05.995Z</time></trkpt><trkpt lat="43.3757238" lon="13.2072348"><ele>597.8</ele><time>2026-03-29T15:29:06.977Z</time></trkpt><trkpt lat="43.3756384" lon="13.2073357"><ele>596.5999999999999</ele><time>2026-03-29T15:29:07.99Z</time></trkpt><trkpt lat="43.3755518" lon="13.2074367"><ele>595.4</ele><time>2026-03-29T15:29:08.959Z</time></trkpt><trkpt lat="43.3754692" lon="13.2075382"><ele>594.1999999999999</ele><time>2026-03-29T15:29:09.945Z</time></trkpt><trkpt lat="43.3753938" lon="13.2076465"><ele>593.0</ele><time>2026-03-29T15:29:10.995Z</time></trkpt><trkpt lat="43.3753212" lon="13.2077559"><ele>595.4</ele><time>2026-03-29T15:29:11.978Z</time></trkpt><trkpt lat="43.3752583" lon="13.207858"><ele>597.8</ele><time>2026-03-29T15:29:12.973Z</time></trkpt><trkpt lat="43.3751982" lon="13.2079512"><ele>600.2</ele><time>2026-03-29T15:29:13.995Z</time></trkpt><trkpt lat="43.375142" lon="13.208046"><ele>602.6</ele><time>2026-03-29T15:29:14.96Z</time></trkpt><trkpt lat="43.3750832" lon="13.2081471"><ele>605.0</ele><time>2026-03-29T15:29:16.008Z</time></trkpt><trkpt lat="43.3750254" lon="13.2082461"><ele>605.0</ele><time>2026-03-29T15:29:16.964Z</time></trkpt><trkpt lat="43.3749706" lon="13.2083394"><ele>605.0</ele><time>2026-03-29T15:29:17.992Z</time></trkpt><trkpt lat="43.3749236" lon="13.2084332"><ele>605.0</ele><time>2026-03-29T15:29:19.005Z</time></trkpt><trkpt lat="43.3748888" lon="13.2085464"><ele>605.0</ele><time>2026-03-29T15:29:20.005Z</time></trkpt><trkpt lat="43.3748682" lon="13.208669"><ele>605.0</ele><time>2026-03-29T15:29:21.006Z</time></trkpt><trkpt lat="43.3748635" lon="13.2087938"><ele>605.0</ele><time>2026-03-29T15:29:21.983Z</time></trkpt><trkpt lat="43.3748763" lon="13.2089111"><ele>603.6666666666666</ele><time>2026-03-29T15:29:22.968Z</time></trkpt><trkpt lat="43.3749053" lon="13.2090091"><ele>602.3333333333333</ele><time>2026-03-29T15:29:23.984Z</time></trkpt><trkpt lat="43.3749394" lon="13.2090857"><ele>601.0</ele><time>2026-03-29T15:29:24.98Z</time></trkpt><trkpt lat="43.3749921" lon="13.2091638"><ele>599.6666666666666</ele><time>2026-03-29T15:29:25.941Z</time></trkpt><trkpt lat="43.3750569" lon="13.2092313"><ele>598.3333333333334</ele><time>2026-03-29T15:29:26.996Z</time></trkpt><trkpt lat="43.3751284" lon="13.2092924"><ele>597.0</ele><time>2026-03-29T15:29:28.001Z</time></trkpt><trkpt lat="43.3751982" lon="13.2093601"><ele>597.0</ele><time>2026-03-29T15:29:28.98Z</time></trkpt><trkpt lat="43.3752612" lon="13.20943"><ele>597.0</ele><time>2026-03-29T15:29:30.016Z</time></trkpt><trkpt lat="43.3753163" lon="13.2095155"><ele>597.0</ele><time>2026-03-29T15:29:31.017Z</time></trkpt><trkpt lat="43.3753629" lon="13.2096201"><ele>597.0</ele><time>2026-03-29T15:29:31.995Z</time></trkpt><trkpt lat="43.3754041" lon="13.2097376"><ele>597.0</ele><time>2026-03-29T15:29:32.98Z</time></trkpt><trkpt lat="43.3754443" lon="13.2098599"><ele>597.0</ele><time>2026-03-29T15:29:34.01Z</time></trkpt><trkpt lat="43.3754842" lon="13.2099807"><ele>596.2</ele><time>2026-03-29T15:29:35.005Z</time></trkpt><trkpt lat="43.3755285" lon="13.2101025"><ele>595.4000000000001</ele><time>2026-03-29T15:29:35.993Z</time></trkpt><trkpt lat="43.3755736" lon="13.210218"><ele>594.5999999999999</ele><time>2026-03-29T15:29:36.99Z</time></trkpt><trkpt lat="43.3756199" lon="13.2103346"><ele>593.8</ele><time>2026-03-29T15:29:37.988Z</time></trkpt><trkpt lat="43.3756605" lon="13.2104496"><ele>593.0</ele><time>2026-03-29T15:29:38.992Z</time></trkpt><trkpt lat="43.3756955" lon="13.2105677"><ele>592.8333333333333</ele><time>2026-03-29T15:29:39.993Z</time></trkpt><trkpt lat="43.3757256" lon="13.2106812"><ele>592.6666666666666</ele><time>2026-03-29T15:29:40.955Z</time></trkpt><trkpt lat="43.3757525" lon="13.2107901"><ele>592.5</ele><time>2026-03-29T15:29:41.996Z</time></trkpt><trkpt lat="43.3757717" lon="13.2109064"><ele>592.3333333333334</ele><time>2026-03-29T15:29:43Z</time></trkpt><trkpt lat="43.3757843" lon="13.211017"><ele>592.1666666666667</ele><time>2026-03-29T15:29:44.002Z</time></trkpt><trkpt lat="43.3757924" lon="13.2111361"><ele>592.0</ele><time>2026-03-29T15:29:45.005Z</time></trkpt><trkpt lat="43.375794" lon="13.2112549"><ele>592.0</ele><time>2026-03-29T15:29:45.998Z</time></trkpt><trkpt lat="43.3757931" lon="13.2113797"><ele>592.0</ele><time>2026-03-29T15:29:46.978Z</time></trkpt><trkpt lat="43.3757867" lon="13.2115033"><ele>592.0</ele><time>2026-03-29T15:29:48.001Z</time></trkpt><trkpt lat="43.3757785" lon="13.2116295"><ele>592.0</ele><time>2026-03-29T15:29:48.993Z</time></trkpt><trkpt lat="43.3757713" lon="13.2117621"><ele>592.0</ele><time>2026-03-29T15:29:49.997Z</time></trkpt><trkpt lat="43.3757605" lon="13.2118923"><ele>592.2</ele><time>2026-03-29T15:29:51.009Z</time></trkpt><trkpt lat="43.3757543" lon="13.2120277"><ele>592.4000000000001</ele><time>2026-03-29T15:29:51.976Z</time></trkpt><trkpt lat="43.3757489" lon="13.2121633"><ele>592.5999999999999</ele><time>2026-03-29T15:29:52.986Z</time></trkpt><trkpt lat="43.3757438" lon="13.212309"><ele>592.8</ele><time>2026-03-29T15:29:53.999Z</time></trkpt><trkpt lat="43.3757403" lon="13.21246"><ele>593.0</ele><time>2026-03-29T15:29:55.008Z</time></trkpt><trkpt lat="43.3757398" lon="13.2126098"><ele>593.8333333333333</ele><time>2026-03-29T15:29:55.995Z</time></trkpt><trkpt lat="43.3757391" lon="13.212743"><ele>594.6666666666666</ele><time>2026-03-29T15:29:56.995Z</time></trkpt><trkpt lat="43.3757344" lon="13.212862"><ele>595.5</ele><time>2026-03-29T15:29:58.003Z</time></trkpt><trkpt lat="43.3757303" lon="13.2129648"><ele>596.3333333333334</ele><time>2026-03-29T15:29:58.99Z</time></trkpt><trkpt lat="43.3757207" lon="13.2130551"><ele>597.1666666666667</ele><time>2026-03-29T15:30:00.008Z</time></trkpt><trkpt lat="43.3757083" lon="13.2131865"><ele>598.0</ele><time>2026-03-29T15:30:01.98Z</time></trkpt><trkpt lat="43.3757653" lon="13.2132711"><ele>598.5</ele><time>2026-03-29T15:30:03.988Z</time></trkpt><trkpt lat="43.3758364" lon="13.2132929"><ele>599.0</ele><time>2026-03-29T15:30:04.958Z</time></trkpt><trkpt lat="43.3759166" lon="13.2132827"><ele>599.5</ele><time>2026-03-29T15:30:06.005Z</time></trkpt><trkpt lat="43.3759937" lon="13.2132731"><ele>600.0</ele><time>2026-03-29T15:30:06.996Z</time></trkpt><trkpt lat="43.3760676" lon="13.2132636"><ele>600.5</ele><time>2026-03-29T15:30:08.007Z</time></trkpt><trkpt lat="43.3761429" lon="13.2132577"><ele>601.0</ele><time>2026-03-29T15:30:08.97Z</time></trkpt><trkpt lat="43.3762169" lon="13.2132581"><ele>601.0</ele><time>2026-03-29T15:30:09.947Z</time></trkpt><trkpt lat="43.3762858" lon="13.21327"><ele>601.0</ele><time>2026-03-29T15:30:10.94Z</time></trkpt><trkpt lat="43.3764042" lon="13.2133049"><ele>601.0</ele><time>2026-03-29T15:30:12.998Z</time></trkpt><trkpt lat="43.3765049" lon="13.2133552"><ele>601.0</ele><time>2026-03-29T15:30:14.988Z</time></trkpt><trkpt lat="43.3765893" lon="13.2134037"><ele>601.0</ele><time>2026-03-29T15:30:17.984Z</time></trkpt><trkpt lat="43.3766531" lon="13.2134536"><ele>603.0</ele><time>2026-03-29T15:30:23.004Z</time></trkpt><trkpt lat="43.3767181" lon="13.2134751"><ele>603.0</ele><time>2026-03-29T15:30:26.985Z</time></trkpt><trkpt lat="43.3767622" lon="13.2135379"><ele>603.0</ele><time>2026-03-29T15:30:59.941Z</time></trkpt></trkseg></trk></gpx>